<?xml version="1.0" encoding="utf-8" standalone="yes"?>
<gpx version="1.1" creator="Locus Map, Android"
 xmlns="http://www.topografix.com/GPX/1/1"
 xmlns:xsi="http://www.w3.org/2001/XMLSchema-instance"
 xsi:schemaLocation="http://www.topografix.com/GPX/1/1 http://www.topografix.com/GPX/1/1/gpx.xsd"
 xmlns:gpxx="http://www.garmin.com/xmlschemas/GpxExtensions/v3"
 xmlns:gpxtrkx="http://www.garmin.com/xmlschemas/TrackStatsExtension/v1"
 xmlns:gpxtpx="http://www.garmin.com/xmlschemas/TrackPointExtension/v2"
 xmlns:locus="http://www.locusmap.eu">
	<metadata>
		<desc>File with points/tracks from Locus Map Classic/3.70.5</desc>
		<time>2024-03-10T17:57:13.227Z</time>
	</metadata>
<trk>
<name>Tonalina</name>
	<extensions>
		<line xmlns="http://www.topografix.com/GPX/gpx_style/0/2">
			<color>0000FF</color>
			<opacity>0.59</opacity>
			<width>6.0</width>
			<extensions>
				<locus:lsColorBase>#960000FF</locus:lsColorBase>
				<locus:lsWidth>6.0</locus:lsWidth>
				<locus:lsUnits>PIXELS</locus:lsUnits>
			</extensions>
		</line>
		<locus:activity>ski_mountaineering</locus:activity>
	</extensions>
<trkseg>
<trkpt lat="46.2518490" lon="10.5444960">
	<ele>1655.60</ele>
	<time>2024-03-09T08:09:37.000Z</time>
</trkpt>
<trkpt lat="46.2518480" lon="10.5444940">
	<ele>1655.60</ele>
	<time>2024-03-09T08:09:38.000Z</time>
</trkpt>
<trkpt lat="46.2518480" lon="10.5444930">
	<ele>1655.60</ele>
	<time>2024-03-09T08:09:39.000Z</time>
</trkpt>
<trkpt lat="46.2518470" lon="10.5444970">
	<ele>1655.60</ele>
	<time>2024-03-09T08:09:40.000Z</time>
</trkpt>
<trkpt lat="46.2518420" lon="10.5445040">
	<ele>1655.60</ele>
	<time>2024-03-09T08:09:41.000Z</time>
</trkpt>
<trkpt lat="46.2518410" lon="10.5445090">
	<ele>1655.60</ele>
	<time>2024-03-09T08:09:42.000Z</time>
</trkpt>
<trkpt lat="46.2518430" lon="10.5445170">
	<ele>1655.60</ele>
	<time>2024-03-09T08:09:43.000Z</time>
</trkpt>
<trkpt lat="46.2518430" lon="10.5445280">
	<ele>1655.60</ele>
	<time>2024-03-09T08:09:44.000Z</time>
</trkpt>
<trkpt lat="46.2518430" lon="10.5445380">
	<ele>1655.60</ele>
	<time>2024-03-09T08:09:45.000Z</time>
</trkpt>
<trkpt lat="46.2518440" lon="10.5445460">
	<ele>1655.60</ele>
	<time>2024-03-09T08:09:46.000Z</time>
</trkpt>
<trkpt lat="46.2518430" lon="10.5445560">
	<ele>1655.60</ele>
	<time>2024-03-09T08:09:47.000Z</time>
</trkpt>
<trkpt lat="46.2518430" lon="10.5445680">
	<ele>1655.60</ele>
	<time>2024-03-09T08:09:48.000Z</time>
</trkpt>
<trkpt lat="46.2518420" lon="10.5445760">
	<ele>1655.60</ele>
	<time>2024-03-09T08:09:49.000Z</time>
</trkpt>
<trkpt lat="46.2518420" lon="10.5445840">
	<ele>1655.60</ele>
	<time>2024-03-09T08:09:50.000Z</time>
</trkpt>
<trkpt lat="46.2518420" lon="10.5445920">
	<ele>1655.60</ele>
	<time>2024-03-09T08:09:51.000Z</time>
</trkpt>
<trkpt lat="46.2518410" lon="10.5446000">
	<ele>1655.60</ele>
	<time>2024-03-09T08:09:52.000Z</time>
</trkpt>
<trkpt lat="46.2518410" lon="10.5446120">
	<ele>1655.60</ele>
	<time>2024-03-09T08:09:53.000Z</time>
</trkpt>
<trkpt lat="46.2518410" lon="10.5446230">
	<ele>1655.60</ele>
	<time>2024-03-09T08:09:54.000Z</time>
</trkpt>
<trkpt lat="46.2518430" lon="10.5446310">
	<ele>1655.60</ele>
	<time>2024-03-09T08:09:55.000Z</time>
</trkpt>
<trkpt lat="46.2518430" lon="10.5446370">
	<ele>1655.60</ele>
	<time>2024-03-09T08:09:56.000Z</time>
</trkpt>
<trkpt lat="46.2518430" lon="10.5446420">
	<ele>1655.60</ele>
	<time>2024-03-09T08:09:57.000Z</time>
</trkpt>
<trkpt lat="46.2518450" lon="10.5446500">
	<ele>1655.60</ele>
	<time>2024-03-09T08:09:58.000Z</time>
</trkpt>
<trkpt lat="46.2518450" lon="10.5446640">
	<ele>1655.60</ele>
	<time>2024-03-09T08:09:59.000Z</time>
</trkpt>
<trkpt lat="46.2518460" lon="10.5446730">
	<ele>1655.60</ele>
	<time>2024-03-09T08:10:00.000Z</time>
</trkpt>
<trkpt lat="46.2518480" lon="10.5446830">
	<ele>1655.60</ele>
	<time>2024-03-09T08:10:01.000Z</time>
</trkpt>
<trkpt lat="46.2518490" lon="10.5446930">
	<ele>1655.60</ele>
	<time>2024-03-09T08:10:02.000Z</time>
</trkpt>
<trkpt lat="46.2518490" lon="10.5447020">
	<ele>1655.60</ele>
	<time>2024-03-09T08:10:03.000Z</time>
</trkpt>
<trkpt lat="46.2518490" lon="10.5447140">
	<ele>1655.60</ele>
	<time>2024-03-09T08:10:04.000Z</time>
</trkpt>
<trkpt lat="46.2518500" lon="10.5447260">
	<ele>1655.60</ele>
	<time>2024-03-09T08:10:05.000Z</time>
</trkpt>
<trkpt lat="46.2518540" lon="10.5447340">
	<ele>1655.60</ele>
	<time>2024-03-09T08:10:06.000Z</time>
</trkpt>
<trkpt lat="46.2518560" lon="10.5447430">
	<ele>1655.60</ele>
	<time>2024-03-09T08:10:07.000Z</time>
</trkpt>
<trkpt lat="46.2518590" lon="10.5447530">
	<ele>1655.60</ele>
	<time>2024-03-09T08:10:08.000Z</time>
</trkpt>
<trkpt lat="46.2518620" lon="10.5447620">
	<ele>1655.60</ele>
	<time>2024-03-09T08:10:09.000Z</time>
</trkpt>
<trkpt lat="46.2518620" lon="10.5447690">
	<ele>1655.60</ele>
	<time>2024-03-09T08:10:10.000Z</time>
</trkpt>
<trkpt lat="46.2518640" lon="10.5447760">
	<ele>1655.80</ele>
	<time>2024-03-09T08:10:11.000Z</time>
</trkpt>
<trkpt lat="46.2518670" lon="10.5447840">
	<ele>1655.80</ele>
	<time>2024-03-09T08:10:12.000Z</time>
</trkpt>
<trkpt lat="46.2518670" lon="10.5447920">
	<ele>1655.80</ele>
	<time>2024-03-09T08:10:13.000Z</time>
</trkpt>
<trkpt lat="46.2518710" lon="10.5447970">
	<ele>1655.80</ele>
	<time>2024-03-09T08:10:14.000Z</time>
</trkpt>
<trkpt lat="46.2518750" lon="10.5448030">
	<ele>1655.80</ele>
	<time>2024-03-09T08:10:15.000Z</time>
</trkpt>
<trkpt lat="46.2518790" lon="10.5448080">
	<ele>1655.80</ele>
	<time>2024-03-09T08:10:16.000Z</time>
</trkpt>
<trkpt lat="46.2518810" lon="10.5448100">
	<ele>1655.60</ele>
	<time>2024-03-09T08:10:17.000Z</time>
</trkpt>
<trkpt lat="46.2518830" lon="10.5448120">
	<ele>1655.60</ele>
	<time>2024-03-09T08:10:18.000Z</time>
</trkpt>
<trkpt lat="46.2518800" lon="10.5448150">
	<ele>1655.60</ele>
	<time>2024-03-09T08:10:19.000Z</time>
</trkpt>
<trkpt lat="46.2518790" lon="10.5448190">
	<ele>1655.60</ele>
	<time>2024-03-09T08:10:20.000Z</time>
</trkpt>
<trkpt lat="46.2518730" lon="10.5448280">
	<ele>1655.60</ele>
	<time>2024-03-09T08:10:21.000Z</time>
</trkpt>
<trkpt lat="46.2518710" lon="10.5448270">
	<ele>1655.60</ele>
	<time>2024-03-09T08:10:22.000Z</time>
</trkpt>
<trkpt lat="46.2518690" lon="10.5448280">
	<ele>1655.60</ele>
	<time>2024-03-09T08:10:23.000Z</time>
</trkpt>
<trkpt lat="46.2518680" lon="10.5448380">
	<ele>1655.60</ele>
	<time>2024-03-09T08:10:24.000Z</time>
</trkpt>
<trkpt lat="46.2518660" lon="10.5448440">
	<ele>1655.80</ele>
	<time>2024-03-09T08:10:25.000Z</time>
</trkpt>
<trkpt lat="46.2518620" lon="10.5448520">
	<ele>1655.80</ele>
	<time>2024-03-09T08:10:26.000Z</time>
</trkpt>
<trkpt lat="46.2518600" lon="10.5448560">
	<ele>1655.80</ele>
	<time>2024-03-09T08:10:27.000Z</time>
</trkpt>
<trkpt lat="46.2518580" lon="10.5448590">
	<ele>1655.80</ele>
	<time>2024-03-09T08:10:28.000Z</time>
</trkpt>
<trkpt lat="46.2518580" lon="10.5448590">
	<ele>1655.80</ele>
	<time>2024-03-09T08:10:29.000Z</time>
</trkpt>
<trkpt lat="46.2518580" lon="10.5448590">
	<ele>1655.80</ele>
	<time>2024-03-09T08:10:30.000Z</time>
</trkpt>
<trkpt lat="46.2518580" lon="10.5448590">
	<ele>1655.80</ele>
	<time>2024-03-09T08:10:31.000Z</time>
</trkpt>
<trkpt lat="46.2518580" lon="10.5448590">
	<ele>1655.80</ele>
	<time>2024-03-09T08:10:32.000Z</time>
</trkpt>
<trkpt lat="46.2518580" lon="10.5448590">
	<ele>1655.80</ele>
	<time>2024-03-09T08:10:33.000Z</time>
</trkpt>
<trkpt lat="46.2518580" lon="10.5448590">
	<ele>1655.80</ele>
	<time>2024-03-09T08:10:34.000Z</time>
</trkpt>
<trkpt lat="46.2518580" lon="10.5448590">
	<ele>1655.80</ele>
	<time>2024-03-09T08:10:35.000Z</time>
</trkpt>
<trkpt lat="46.2518580" lon="10.5448590">
	<ele>1655.80</ele>
	<time>2024-03-09T08:10:36.000Z</time>
</trkpt>
<trkpt lat="46.2518580" lon="10.5448590">
	<ele>1656.00</ele>
	<time>2024-03-09T08:10:37.000Z</time>
</trkpt>
<trkpt lat="46.2518580" lon="10.5448590">
	<ele>1656.00</ele>
	<time>2024-03-09T08:10:38.000Z</time>
</trkpt>
<trkpt lat="46.2518580" lon="10.5448590">
	<ele>1656.00</ele>
	<time>2024-03-09T08:10:39.000Z</time>
</trkpt>
<trkpt lat="46.2518580" lon="10.5448590">
	<ele>1656.20</ele>
	<time>2024-03-09T08:10:40.000Z</time>
</trkpt>
<trkpt lat="46.2518580" lon="10.5448590">
	<ele>1656.20</ele>
	<time>2024-03-09T08:10:41.000Z</time>
</trkpt>
<trkpt lat="46.2518580" lon="10.5448590">
	<ele>1656.20</ele>
	<time>2024-03-09T08:10:42.000Z</time>
</trkpt>
<trkpt lat="46.2518580" lon="10.5448590">
	<ele>1656.40</ele>
	<time>2024-03-09T08:10:43.000Z</time>
</trkpt>
<trkpt lat="46.2518580" lon="10.5448630">
	<ele>1656.40</ele>
	<time>2024-03-09T08:10:44.000Z</time>
</trkpt>
<trkpt lat="46.2518580" lon="10.5448650">
	<ele>1656.40</ele>
	<time>2024-03-09T08:10:45.000Z</time>
</trkpt>
<trkpt lat="46.2518580" lon="10.5448650">
	<ele>1656.40</ele>
	<time>2024-03-09T08:10:46.000Z</time>
</trkpt>
<trkpt lat="46.2518580" lon="10.5448660">
	<ele>1656.60</ele>
	<time>2024-03-09T08:10:47.000Z</time>
</trkpt>
<trkpt lat="46.2518590" lon="10.5448680">
	<ele>1656.60</ele>
	<time>2024-03-09T08:10:48.000Z</time>
</trkpt>
<trkpt lat="46.2518590" lon="10.5448720">
	<ele>1656.60</ele>
	<time>2024-03-09T08:10:49.000Z</time>
</trkpt>
<trkpt lat="46.2518590" lon="10.5448760">
	<ele>1656.60</ele>
	<time>2024-03-09T08:10:50.000Z</time>
</trkpt>
<trkpt lat="46.2518590" lon="10.5448820">
	<ele>1656.80</ele>
	<time>2024-03-09T08:10:51.000Z</time>
</trkpt>
<trkpt lat="46.2518590" lon="10.5448890">
	<ele>1656.80</ele>
	<time>2024-03-09T08:10:52.000Z</time>
</trkpt>
<trkpt lat="46.2518590" lon="10.5448980">
	<ele>1656.80</ele>
	<time>2024-03-09T08:10:53.000Z</time>
</trkpt>
<trkpt lat="46.2518590" lon="10.5449090">
	<ele>1656.80</ele>
	<time>2024-03-09T08:10:54.000Z</time>
</trkpt>
<trkpt lat="46.2518590" lon="10.5449190">
	<ele>1657.00</ele>
	<time>2024-03-09T08:10:55.000Z</time>
</trkpt>
<trkpt lat="46.2518610" lon="10.5449300">
	<ele>1657.00</ele>
	<time>2024-03-09T08:10:56.000Z</time>
</trkpt>
<trkpt lat="46.2518630" lon="10.5449540">
	<ele>1657.00</ele>
	<time>2024-03-09T08:10:57.000Z</time>
</trkpt>
<trkpt lat="46.2518670" lon="10.5449770">
	<ele>1657.00</ele>
	<time>2024-03-09T08:10:58.000Z</time>
</trkpt>
<trkpt lat="46.2518700" lon="10.5450000">
	<ele>1657.00</ele>
	<time>2024-03-09T08:10:59.000Z</time>
</trkpt>
<trkpt lat="46.2518710" lon="10.5450220">
	<ele>1657.00</ele>
	<time>2024-03-09T08:11:00.000Z</time>
</trkpt>
<trkpt lat="46.2518750" lon="10.5450420">
	<ele>1657.20</ele>
	<time>2024-03-09T08:11:01.000Z</time>
</trkpt>
<trkpt lat="46.2518770" lon="10.5450620">
	<ele>1657.40</ele>
	<time>2024-03-09T08:11:02.000Z</time>
</trkpt>
<trkpt lat="46.2518790" lon="10.5450820">
	<ele>1657.60</ele>
	<time>2024-03-09T08:11:03.000Z</time>
</trkpt>
<trkpt lat="46.2518820" lon="10.5451000">
	<ele>1657.60</ele>
	<time>2024-03-09T08:11:04.000Z</time>
</trkpt>
<trkpt lat="46.2518850" lon="10.5451210">
	<ele>1657.80</ele>
	<time>2024-03-09T08:11:05.000Z</time>
</trkpt>
<trkpt lat="46.2518870" lon="10.5451270">
	<ele>1658.00</ele>
	<time>2024-03-09T08:11:06.000Z</time>
</trkpt>
<trkpt lat="46.2518890" lon="10.5451360">
	<ele>1658.20</ele>
	<time>2024-03-09T08:11:07.000Z</time>
</trkpt>
<trkpt lat="46.2518910" lon="10.5451480">
	<ele>1658.40</ele>
	<time>2024-03-09T08:11:08.000Z</time>
</trkpt>
<trkpt lat="46.2518920" lon="10.5451530">
	<ele>1658.60</ele>
	<time>2024-03-09T08:11:09.000Z</time>
</trkpt>
<trkpt lat="46.2518900" lon="10.5451610">
	<ele>1658.80</ele>
	<time>2024-03-09T08:11:10.000Z</time>
</trkpt>
<trkpt lat="46.2518870" lon="10.5451700">
	<ele>1659.00</ele>
	<time>2024-03-09T08:11:11.000Z</time>
</trkpt>
<trkpt lat="46.2518860" lon="10.5451760">
	<ele>1659.20</ele>
	<time>2024-03-09T08:11:12.000Z</time>
</trkpt>
<trkpt lat="46.2518830" lon="10.5451810">
	<ele>1659.40</ele>
	<time>2024-03-09T08:11:13.000Z</time>
</trkpt>
<trkpt lat="46.2518790" lon="10.5451880">
	<ele>1659.40</ele>
	<time>2024-03-09T08:11:14.000Z</time>
</trkpt>
<trkpt lat="46.2518810" lon="10.5451930">
	<ele>1659.60</ele>
	<time>2024-03-09T08:11:15.000Z</time>
</trkpt>
<trkpt lat="46.2518850" lon="10.5452020">
	<ele>1659.60</ele>
	<time>2024-03-09T08:11:16.000Z</time>
</trkpt>
<trkpt lat="46.2518820" lon="10.5452110">
	<ele>1659.80</ele>
	<time>2024-03-09T08:11:17.000Z</time>
</trkpt>
<trkpt lat="46.2518760" lon="10.5452210">
	<ele>1660.00</ele>
	<time>2024-03-09T08:11:18.000Z</time>
</trkpt>
<trkpt lat="46.2518690" lon="10.5452280">
	<ele>1660.00</ele>
	<time>2024-03-09T08:11:19.000Z</time>
</trkpt>
<trkpt lat="46.2518660" lon="10.5452350">
	<ele>1660.20</ele>
	<time>2024-03-09T08:11:20.000Z</time>
</trkpt>
<trkpt lat="46.2518630" lon="10.5452450">
	<ele>1660.40</ele>
	<time>2024-03-09T08:11:21.000Z</time>
</trkpt>
<trkpt lat="46.2518640" lon="10.5452530">
	<ele>1660.40</ele>
	<time>2024-03-09T08:11:22.000Z</time>
</trkpt>
<trkpt lat="46.2518650" lon="10.5452620">
	<ele>1660.60</ele>
	<time>2024-03-09T08:11:23.000Z</time>
</trkpt>
<trkpt lat="46.2518660" lon="10.5452740">
	<ele>1660.60</ele>
	<time>2024-03-09T08:11:24.000Z</time>
</trkpt>
<trkpt lat="46.2518640" lon="10.5452830">
	<ele>1660.80</ele>
	<time>2024-03-09T08:11:25.000Z</time>
</trkpt>
<trkpt lat="46.2518620" lon="10.5452910">
	<ele>1660.80</ele>
	<time>2024-03-09T08:11:26.000Z</time>
</trkpt>
<trkpt lat="46.2518610" lon="10.5453010">
	<ele>1661.00</ele>
	<time>2024-03-09T08:11:27.000Z</time>
</trkpt>
<trkpt lat="46.2518590" lon="10.5453170">
	<ele>1661.40</ele>
	<time>2024-03-09T08:11:28.000Z</time>
</trkpt>
<trkpt lat="46.2518640" lon="10.5453270">
	<ele>1661.60</ele>
	<time>2024-03-09T08:11:29.000Z</time>
</trkpt>
<trkpt lat="46.2518640" lon="10.5453360">
	<ele>1661.60</ele>
	<time>2024-03-09T08:11:30.000Z</time>
</trkpt>
<trkpt lat="46.2518650" lon="10.5453470">
	<ele>1661.80</ele>
	<time>2024-03-09T08:11:31.000Z</time>
</trkpt>
<trkpt lat="46.2518640" lon="10.5453640">
	<ele>1662.00</ele>
	<time>2024-03-09T08:11:32.000Z</time>
</trkpt>
<trkpt lat="46.2518600" lon="10.5453790">
	<ele>1662.00</ele>
	<time>2024-03-09T08:11:33.000Z</time>
</trkpt>
<trkpt lat="46.2518570" lon="10.5453890">
	<ele>1662.20</ele>
	<time>2024-03-09T08:11:34.000Z</time>
</trkpt>
<trkpt lat="46.2518520" lon="10.5454010">
	<ele>1662.20</ele>
	<time>2024-03-09T08:11:35.000Z</time>
</trkpt>
<trkpt lat="46.2518490" lon="10.5454150">
	<ele>1662.20</ele>
	<time>2024-03-09T08:11:36.000Z</time>
</trkpt>
<trkpt lat="46.2518470" lon="10.5454300">
	<ele>1662.20</ele>
	<time>2024-03-09T08:11:37.000Z</time>
</trkpt>
<trkpt lat="46.2518460" lon="10.5454430">
	<ele>1662.40</ele>
	<time>2024-03-09T08:11:38.000Z</time>
</trkpt>
<trkpt lat="46.2518450" lon="10.5454550">
	<ele>1662.40</ele>
	<time>2024-03-09T08:11:39.000Z</time>
</trkpt>
<trkpt lat="46.2518440" lon="10.5454670">
	<ele>1662.40</ele>
	<time>2024-03-09T08:11:40.000Z</time>
</trkpt>
<trkpt lat="46.2518420" lon="10.5454790">
	<ele>1662.40</ele>
	<time>2024-03-09T08:11:41.000Z</time>
</trkpt>
<trkpt lat="46.2518410" lon="10.5454910">
	<ele>1662.40</ele>
	<time>2024-03-09T08:11:42.000Z</time>
</trkpt>
<trkpt lat="46.2518410" lon="10.5455010">
	<ele>1662.40</ele>
	<time>2024-03-09T08:11:43.000Z</time>
</trkpt>
<trkpt lat="46.2518410" lon="10.5455120">
	<ele>1662.60</ele>
	<time>2024-03-09T08:11:44.000Z</time>
</trkpt>
<trkpt lat="46.2518390" lon="10.5455200">
	<ele>1662.60</ele>
	<time>2024-03-09T08:11:45.000Z</time>
</trkpt>
<trkpt lat="46.2518390" lon="10.5455280">
	<ele>1662.60</ele>
	<time>2024-03-09T08:11:46.000Z</time>
</trkpt>
<trkpt lat="46.2518380" lon="10.5455380">
	<ele>1662.60</ele>
	<time>2024-03-09T08:11:47.000Z</time>
</trkpt>
<trkpt lat="46.2518380" lon="10.5455500">
	<ele>1662.80</ele>
	<time>2024-03-09T08:11:48.000Z</time>
</trkpt>
<trkpt lat="46.2518400" lon="10.5455600">
	<ele>1663.00</ele>
	<time>2024-03-09T08:11:49.000Z</time>
</trkpt>
<trkpt lat="46.2518410" lon="10.5455690">
	<ele>1663.00</ele>
	<time>2024-03-09T08:11:50.000Z</time>
</trkpt>
<trkpt lat="46.2518420" lon="10.5455790">
	<ele>1663.00</ele>
	<time>2024-03-09T08:11:51.000Z</time>
</trkpt>
<trkpt lat="46.2518430" lon="10.5455920">
	<ele>1663.00</ele>
	<time>2024-03-09T08:11:52.000Z</time>
</trkpt>
<trkpt lat="46.2518440" lon="10.5456030">
	<ele>1663.00</ele>
	<time>2024-03-09T08:11:53.000Z</time>
</trkpt>
<trkpt lat="46.2518440" lon="10.5456140">
	<ele>1663.00</ele>
	<time>2024-03-09T08:11:54.000Z</time>
</trkpt>
<trkpt lat="46.2518450" lon="10.5456260">
	<ele>1663.00</ele>
	<time>2024-03-09T08:11:55.000Z</time>
</trkpt>
<trkpt lat="46.2518440" lon="10.5456380">
	<ele>1663.00</ele>
	<time>2024-03-09T08:11:56.000Z</time>
</trkpt>
<trkpt lat="46.2518450" lon="10.5456470">
	<ele>1663.00</ele>
	<time>2024-03-09T08:11:57.000Z</time>
</trkpt>
<trkpt lat="46.2518460" lon="10.5456580">
	<ele>1663.00</ele>
	<time>2024-03-09T08:11:58.000Z</time>
</trkpt>
<trkpt lat="46.2518500" lon="10.5456690">
	<ele>1663.00</ele>
	<time>2024-03-09T08:11:59.000Z</time>
</trkpt>
<trkpt lat="46.2518500" lon="10.5456750">
	<ele>1663.00</ele>
	<time>2024-03-09T08:12:00.000Z</time>
</trkpt>
<trkpt lat="46.2518510" lon="10.5456790">
	<ele>1663.00</ele>
	<time>2024-03-09T08:12:01.000Z</time>
</trkpt>
<trkpt lat="46.2518510" lon="10.5456850">
	<ele>1663.00</ele>
	<time>2024-03-09T08:12:02.000Z</time>
</trkpt>
<trkpt lat="46.2518500" lon="10.5456920">
	<ele>1663.00</ele>
	<time>2024-03-09T08:12:03.000Z</time>
</trkpt>
<trkpt lat="46.2518510" lon="10.5457020">
	<ele>1663.00</ele>
	<time>2024-03-09T08:12:04.000Z</time>
</trkpt>
<trkpt lat="46.2518520" lon="10.5457100">
	<ele>1663.00</ele>
	<time>2024-03-09T08:12:05.000Z</time>
</trkpt>
<trkpt lat="46.2518530" lon="10.5457200">
	<ele>1663.00</ele>
	<time>2024-03-09T08:12:06.000Z</time>
</trkpt>
<trkpt lat="46.2518530" lon="10.5457320">
	<ele>1663.00</ele>
	<time>2024-03-09T08:12:07.000Z</time>
</trkpt>
<trkpt lat="46.2518540" lon="10.5457460">
	<ele>1663.00</ele>
	<time>2024-03-09T08:12:08.000Z</time>
</trkpt>
<trkpt lat="46.2518570" lon="10.5457580">
	<ele>1663.00</ele>
	<time>2024-03-09T08:12:09.000Z</time>
</trkpt>
<trkpt lat="46.2518590" lon="10.5457650">
	<ele>1663.20</ele>
	<time>2024-03-09T08:12:10.000Z</time>
</trkpt>
<trkpt lat="46.2518610" lon="10.5457740">
	<ele>1663.40</ele>
	<time>2024-03-09T08:12:11.000Z</time>
</trkpt>
<trkpt lat="46.2518660" lon="10.5457860">
	<ele>1663.40</ele>
	<time>2024-03-09T08:12:12.000Z</time>
</trkpt>
<trkpt lat="46.2518670" lon="10.5458000">
	<ele>1663.60</ele>
	<time>2024-03-09T08:12:13.000Z</time>
</trkpt>
<trkpt lat="46.2518690" lon="10.5458130">
	<ele>1663.60</ele>
	<time>2024-03-09T08:12:14.000Z</time>
</trkpt>
<trkpt lat="46.2518700" lon="10.5458250">
	<ele>1663.60</ele>
	<time>2024-03-09T08:12:15.000Z</time>
</trkpt>
<trkpt lat="46.2518740" lon="10.5458390">
	<ele>1663.60</ele>
	<time>2024-03-09T08:12:16.000Z</time>
</trkpt>
<trkpt lat="46.2518750" lon="10.5458510">
	<ele>1663.60</ele>
	<time>2024-03-09T08:12:17.000Z</time>
</trkpt>
<trkpt lat="46.2518800" lon="10.5458570">
	<ele>1663.60</ele>
	<time>2024-03-09T08:12:18.000Z</time>
</trkpt>
<trkpt lat="46.2518850" lon="10.5458670">
	<ele>1663.60</ele>
	<time>2024-03-09T08:12:19.000Z</time>
</trkpt>
<trkpt lat="46.2518910" lon="10.5458790">
	<ele>1663.40</ele>
	<time>2024-03-09T08:12:20.000Z</time>
</trkpt>
<trkpt lat="46.2518960" lon="10.5458880">
	<ele>1663.60</ele>
	<time>2024-03-09T08:12:21.000Z</time>
</trkpt>
<trkpt lat="46.2519000" lon="10.5458950">
	<ele>1663.40</ele>
	<time>2024-03-09T08:12:22.000Z</time>
</trkpt>
<trkpt lat="46.2519040" lon="10.5459040">
	<ele>1663.60</ele>
	<time>2024-03-09T08:12:23.000Z</time>
</trkpt>
<trkpt lat="46.2519080" lon="10.5459170">
	<ele>1663.60</ele>
	<time>2024-03-09T08:12:24.000Z</time>
</trkpt>
<trkpt lat="46.2519100" lon="10.5459290">
	<ele>1663.60</ele>
	<time>2024-03-09T08:12:25.000Z</time>
</trkpt>
<trkpt lat="46.2519130" lon="10.5459360">
	<ele>1663.80</ele>
	<time>2024-03-09T08:12:26.000Z</time>
</trkpt>
<trkpt lat="46.2519150" lon="10.5459460">
	<ele>1663.80</ele>
	<time>2024-03-09T08:12:27.000Z</time>
</trkpt>
<trkpt lat="46.2519200" lon="10.5459570">
	<ele>1663.80</ele>
	<time>2024-03-09T08:12:28.000Z</time>
</trkpt>
<trkpt lat="46.2519230" lon="10.5459700">
	<ele>1663.80</ele>
	<time>2024-03-09T08:12:29.000Z</time>
</trkpt>
<trkpt lat="46.2519280" lon="10.5459810">
	<ele>1664.00</ele>
	<time>2024-03-09T08:12:30.000Z</time>
</trkpt>
<trkpt lat="46.2519320" lon="10.5459910">
	<ele>1663.80</ele>
	<time>2024-03-09T08:12:31.000Z</time>
</trkpt>
<trkpt lat="46.2519370" lon="10.5460030">
	<ele>1663.80</ele>
	<time>2024-03-09T08:12:32.000Z</time>
</trkpt>
<trkpt lat="46.2519430" lon="10.5460130">
	<ele>1663.80</ele>
	<time>2024-03-09T08:12:33.000Z</time>
</trkpt>
<trkpt lat="46.2519490" lon="10.5460180">
	<ele>1664.00</ele>
	<time>2024-03-09T08:12:34.000Z</time>
</trkpt>
<trkpt lat="46.2519540" lon="10.5460210">
	<ele>1664.00</ele>
	<time>2024-03-09T08:12:35.000Z</time>
</trkpt>
<trkpt lat="46.2519570" lon="10.5460220">
	<ele>1664.00</ele>
	<time>2024-03-09T08:12:36.000Z</time>
</trkpt>
<trkpt lat="46.2519580" lon="10.5460240">
	<ele>1664.20</ele>
	<time>2024-03-09T08:12:37.000Z</time>
</trkpt>
<trkpt lat="46.2519580" lon="10.5460240">
	<ele>1664.20</ele>
	<time>2024-03-09T08:12:38.000Z</time>
</trkpt>
<trkpt lat="46.2519570" lon="10.5460240">
	<ele>1664.20</ele>
	<time>2024-03-09T08:12:39.000Z</time>
</trkpt>
<trkpt lat="46.2519580" lon="10.5460230">
	<ele>1664.20</ele>
	<time>2024-03-09T08:12:40.000Z</time>
</trkpt>
<trkpt lat="46.2519580" lon="10.5460220">
	<ele>1664.20</ele>
	<time>2024-03-09T08:12:41.000Z</time>
</trkpt>
<trkpt lat="46.2519590" lon="10.5460220">
	<ele>1664.20</ele>
	<time>2024-03-09T08:12:42.000Z</time>
</trkpt>
<trkpt lat="46.2519590" lon="10.5460220">
	<ele>1664.20</ele>
	<time>2024-03-09T08:12:43.000Z</time>
</trkpt>
<trkpt lat="46.2519590" lon="10.5460220">
	<ele>1664.00</ele>
	<time>2024-03-09T08:12:44.000Z</time>
</trkpt>
<trkpt lat="46.2519590" lon="10.5460220">
	<ele>1664.20</ele>
	<time>2024-03-09T08:12:45.000Z</time>
</trkpt>
<trkpt lat="46.2519590" lon="10.5460220">
	<ele>1664.20</ele>
	<time>2024-03-09T08:12:46.000Z</time>
</trkpt>
<trkpt lat="46.2519590" lon="10.5460220">
	<ele>1664.20</ele>
	<time>2024-03-09T08:12:47.000Z</time>
</trkpt>
<trkpt lat="46.2519590" lon="10.5460220">
	<ele>1664.20</ele>
	<time>2024-03-09T08:12:48.000Z</time>
</trkpt>
<trkpt lat="46.2519590" lon="10.5460220">
	<ele>1664.00</ele>
	<time>2024-03-09T08:12:49.000Z</time>
</trkpt>
<trkpt lat="46.2519590" lon="10.5460220">
	<ele>1664.00</ele>
	<time>2024-03-09T08:12:50.000Z</time>
</trkpt>
<trkpt lat="46.2519590" lon="10.5460220">
	<ele>1664.00</ele>
	<time>2024-03-09T08:12:51.000Z</time>
</trkpt>
<trkpt lat="46.2519590" lon="10.5460220">
	<ele>1664.20</ele>
	<time>2024-03-09T08:12:52.000Z</time>
</trkpt>
<trkpt lat="46.2519590" lon="10.5460220">
	<ele>1664.00</ele>
	<time>2024-03-09T08:12:53.000Z</time>
</trkpt>
<trkpt lat="46.2519590" lon="10.5460220">
	<ele>1664.20</ele>
	<time>2024-03-09T08:12:54.000Z</time>
</trkpt>
<trkpt lat="46.2519590" lon="10.5460220">
	<ele>1664.20</ele>
	<time>2024-03-09T08:12:55.000Z</time>
</trkpt>
<trkpt lat="46.2519590" lon="10.5460220">
	<ele>1664.20</ele>
	<time>2024-03-09T08:12:56.000Z</time>
</trkpt>
<trkpt lat="46.2519590" lon="10.5460220">
	<ele>1664.20</ele>
	<time>2024-03-09T08:12:57.000Z</time>
</trkpt>
<trkpt lat="46.2519590" lon="10.5460220">
	<ele>1664.20</ele>
	<time>2024-03-09T08:12:58.000Z</time>
</trkpt>
<trkpt lat="46.2519590" lon="10.5460220">
	<ele>1664.20</ele>
	<time>2024-03-09T08:12:59.000Z</time>
</trkpt>
<trkpt lat="46.2519590" lon="10.5460220">
	<ele>1664.20</ele>
	<time>2024-03-09T08:13:00.000Z</time>
</trkpt>
<trkpt lat="46.2519600" lon="10.5460220">
	<ele>1664.20</ele>
	<time>2024-03-09T08:13:01.000Z</time>
</trkpt>
<trkpt lat="46.2519630" lon="10.5460290">
	<ele>1664.20</ele>
	<time>2024-03-09T08:13:02.000Z</time>
</trkpt>
<trkpt lat="46.2519700" lon="10.5460470">
	<ele>1664.40</ele>
	<time>2024-03-09T08:13:03.000Z</time>
</trkpt>
<trkpt lat="46.2519770" lon="10.5460630">
	<ele>1664.40</ele>
	<time>2024-03-09T08:13:04.000Z</time>
</trkpt>
<trkpt lat="46.2519850" lon="10.5460790">
	<ele>1664.40</ele>
	<time>2024-03-09T08:13:05.000Z</time>
</trkpt>
<trkpt lat="46.2519910" lon="10.5460950">
	<ele>1664.40</ele>
	<time>2024-03-09T08:13:06.000Z</time>
</trkpt>
<trkpt lat="46.2519950" lon="10.5461110">
	<ele>1664.60</ele>
	<time>2024-03-09T08:13:07.000Z</time>
</trkpt>
<trkpt lat="46.2519990" lon="10.5461330">
	<ele>1664.80</ele>
	<time>2024-03-09T08:13:08.000Z</time>
</trkpt>
<trkpt lat="46.2520050" lon="10.5461510">
	<ele>1664.80</ele>
	<time>2024-03-09T08:13:09.000Z</time>
</trkpt>
<trkpt lat="46.2520090" lon="10.5461690">
	<ele>1664.80</ele>
	<time>2024-03-09T08:13:10.000Z</time>
</trkpt>
<trkpt lat="46.2520140" lon="10.5461840">
	<ele>1665.00</ele>
	<time>2024-03-09T08:13:11.000Z</time>
</trkpt>
<trkpt lat="46.2520180" lon="10.5461960">
	<ele>1665.00</ele>
	<time>2024-03-09T08:13:12.000Z</time>
</trkpt>
<trkpt lat="46.2520210" lon="10.5462090">
	<ele>1665.00</ele>
	<time>2024-03-09T08:13:13.000Z</time>
</trkpt>
<trkpt lat="46.2520250" lon="10.5462210">
	<ele>1665.00</ele>
	<time>2024-03-09T08:13:14.000Z</time>
</trkpt>
<trkpt lat="46.2520280" lon="10.5462330">
	<ele>1665.20</ele>
	<time>2024-03-09T08:13:15.000Z</time>
</trkpt>
<trkpt lat="46.2520330" lon="10.5462430">
	<ele>1665.20</ele>
	<time>2024-03-09T08:13:16.000Z</time>
</trkpt>
<trkpt lat="46.2520370" lon="10.5462520">
	<ele>1665.40</ele>
	<time>2024-03-09T08:13:17.000Z</time>
</trkpt>
<trkpt lat="46.2520360" lon="10.5462650">
	<ele>1665.40</ele>
	<time>2024-03-09T08:13:18.000Z</time>
</trkpt>
<trkpt lat="46.2520380" lon="10.5462750">
	<ele>1665.40</ele>
	<time>2024-03-09T08:13:19.000Z</time>
</trkpt>
<trkpt lat="46.2520420" lon="10.5462880">
	<ele>1665.40</ele>
	<time>2024-03-09T08:13:20.000Z</time>
</trkpt>
<trkpt lat="46.2520460" lon="10.5463010">
	<ele>1665.40</ele>
	<time>2024-03-09T08:13:21.000Z</time>
</trkpt>
<trkpt lat="46.2520510" lon="10.5463120">
	<ele>1665.60</ele>
	<time>2024-03-09T08:13:22.000Z</time>
</trkpt>
<trkpt lat="46.2520560" lon="10.5463210">
	<ele>1665.80</ele>
	<time>2024-03-09T08:13:23.000Z</time>
</trkpt>
<trkpt lat="46.2520610" lon="10.5463310">
	<ele>1666.00</ele>
	<time>2024-03-09T08:13:24.000Z</time>
</trkpt>
<trkpt lat="46.2520670" lon="10.5463410">
	<ele>1666.00</ele>
	<time>2024-03-09T08:13:25.000Z</time>
</trkpt>
<trkpt lat="46.2520660" lon="10.5463560">
	<ele>1666.20</ele>
	<time>2024-03-09T08:13:26.000Z</time>
</trkpt>
<trkpt lat="46.2520680" lon="10.5463660">
	<ele>1666.20</ele>
	<time>2024-03-09T08:13:27.000Z</time>
</trkpt>
<trkpt lat="46.2520700" lon="10.5463760">
	<ele>1666.20</ele>
	<time>2024-03-09T08:13:28.000Z</time>
</trkpt>
<trkpt lat="46.2520770" lon="10.5463850">
	<ele>1666.20</ele>
	<time>2024-03-09T08:13:29.000Z</time>
</trkpt>
<trkpt lat="46.2520830" lon="10.5463950">
	<ele>1666.20</ele>
	<time>2024-03-09T08:13:30.000Z</time>
</trkpt>
<trkpt lat="46.2520890" lon="10.5464020">
	<ele>1666.40</ele>
	<time>2024-03-09T08:13:31.000Z</time>
</trkpt>
<trkpt lat="46.2520920" lon="10.5464110">
	<ele>1666.60</ele>
	<time>2024-03-09T08:13:32.000Z</time>
</trkpt>
<trkpt lat="46.2520980" lon="10.5464210">
	<ele>1666.60</ele>
	<time>2024-03-09T08:13:33.000Z</time>
</trkpt>
<trkpt lat="46.2521030" lon="10.5464290">
	<ele>1666.60</ele>
	<time>2024-03-09T08:13:34.000Z</time>
</trkpt>
<trkpt lat="46.2521020" lon="10.5464450">
	<ele>1666.60</ele>
	<time>2024-03-09T08:13:35.000Z</time>
</trkpt>
<trkpt lat="46.2521000" lon="10.5464590">
	<ele>1666.60</ele>
	<time>2024-03-09T08:13:36.000Z</time>
</trkpt>
<trkpt lat="46.2521020" lon="10.5464670">
	<ele>1666.80</ele>
	<time>2024-03-09T08:13:37.000Z</time>
</trkpt>
<trkpt lat="46.2521070" lon="10.5464780">
	<ele>1667.00</ele>
	<time>2024-03-09T08:13:38.000Z</time>
</trkpt>
<trkpt lat="46.2521110" lon="10.5464910">
	<ele>1667.00</ele>
	<time>2024-03-09T08:13:39.000Z</time>
</trkpt>
<trkpt lat="46.2521140" lon="10.5465050">
	<ele>1667.20</ele>
	<time>2024-03-09T08:13:40.000Z</time>
</trkpt>
<trkpt lat="46.2521190" lon="10.5465120">
	<ele>1667.20</ele>
	<time>2024-03-09T08:13:41.000Z</time>
</trkpt>
<trkpt lat="46.2521240" lon="10.5465230">
	<ele>1667.20</ele>
	<time>2024-03-09T08:13:42.000Z</time>
</trkpt>
<trkpt lat="46.2521320" lon="10.5465320">
	<ele>1667.20</ele>
	<time>2024-03-09T08:13:43.000Z</time>
</trkpt>
<trkpt lat="46.2521390" lon="10.5465410">
	<ele>1667.20</ele>
	<time>2024-03-09T08:13:44.000Z</time>
</trkpt>
<trkpt lat="46.2521460" lon="10.5465450">
	<ele>1667.20</ele>
	<time>2024-03-09T08:13:45.000Z</time>
</trkpt>
<trkpt lat="46.2521540" lon="10.5465490">
	<ele>1667.40</ele>
	<time>2024-03-09T08:13:46.000Z</time>
</trkpt>
<trkpt lat="46.2521570" lon="10.5465570">
	<ele>1667.40</ele>
	<time>2024-03-09T08:13:47.000Z</time>
</trkpt>
<trkpt lat="46.2521620" lon="10.5465650">
	<ele>1667.40</ele>
	<time>2024-03-09T08:13:48.000Z</time>
</trkpt>
<trkpt lat="46.2521680" lon="10.5465790">
	<ele>1667.40</ele>
	<time>2024-03-09T08:13:49.000Z</time>
</trkpt>
<trkpt lat="46.2521750" lon="10.5465880">
	<ele>1667.40</ele>
	<time>2024-03-09T08:13:50.000Z</time>
</trkpt>
<trkpt lat="46.2521810" lon="10.5465970">
	<ele>1667.80</ele>
	<time>2024-03-09T08:13:51.000Z</time>
</trkpt>
<trkpt lat="46.2521840" lon="10.5466080">
	<ele>1667.80</ele>
	<time>2024-03-09T08:13:52.000Z</time>
</trkpt>
<trkpt lat="46.2521880" lon="10.5466180">
	<ele>1667.80</ele>
	<time>2024-03-09T08:13:53.000Z</time>
</trkpt>
<trkpt lat="46.2521930" lon="10.5466290">
	<ele>1668.00</ele>
	<time>2024-03-09T08:13:54.000Z</time>
</trkpt>
<trkpt lat="46.2521990" lon="10.5466360">
	<ele>1668.00</ele>
	<time>2024-03-09T08:13:55.000Z</time>
</trkpt>
<trkpt lat="46.2522050" lon="10.5466430">
	<ele>1668.00</ele>
	<time>2024-03-09T08:13:56.000Z</time>
</trkpt>
<trkpt lat="46.2522120" lon="10.5466520">
	<ele>1668.00</ele>
	<time>2024-03-09T08:13:57.000Z</time>
</trkpt>
<trkpt lat="46.2522150" lon="10.5466620">
	<ele>1668.00</ele>
	<time>2024-03-09T08:13:58.000Z</time>
</trkpt>
<trkpt lat="46.2522190" lon="10.5466680">
	<ele>1668.00</ele>
	<time>2024-03-09T08:13:59.000Z</time>
</trkpt>
<trkpt lat="46.2522270" lon="10.5466740">
	<ele>1668.20</ele>
	<time>2024-03-09T08:14:00.000Z</time>
</trkpt>
<trkpt lat="46.2522290" lon="10.5466820">
	<ele>1668.20</ele>
	<time>2024-03-09T08:14:01.000Z</time>
</trkpt>
<trkpt lat="46.2522330" lon="10.5466880">
	<ele>1668.20</ele>
	<time>2024-03-09T08:14:02.000Z</time>
</trkpt>
<trkpt lat="46.2522370" lon="10.5466960">
	<ele>1668.20</ele>
	<time>2024-03-09T08:14:03.000Z</time>
</trkpt>
<trkpt lat="46.2522420" lon="10.5467060">
	<ele>1668.40</ele>
	<time>2024-03-09T08:14:04.000Z</time>
</trkpt>
<trkpt lat="46.2522470" lon="10.5467160">
	<ele>1668.60</ele>
	<time>2024-03-09T08:14:05.000Z</time>
</trkpt>
<trkpt lat="46.2522520" lon="10.5467240">
	<ele>1668.80</ele>
	<time>2024-03-09T08:14:06.000Z</time>
</trkpt>
<trkpt lat="46.2522590" lon="10.5467320">
	<ele>1669.00</ele>
	<time>2024-03-09T08:14:07.000Z</time>
</trkpt>
<trkpt lat="46.2522630" lon="10.5467430">
	<ele>1669.40</ele>
	<time>2024-03-09T08:14:08.000Z</time>
</trkpt>
<trkpt lat="46.2522680" lon="10.5467490">
	<ele>1669.60</ele>
	<time>2024-03-09T08:14:09.000Z</time>
</trkpt>
<trkpt lat="46.2522720" lon="10.5467570">
	<ele>1669.60</ele>
	<time>2024-03-09T08:14:10.000Z</time>
</trkpt>
<trkpt lat="46.2522780" lon="10.5467660">
	<ele>1669.80</ele>
	<time>2024-03-09T08:14:11.000Z</time>
</trkpt>
<trkpt lat="46.2522810" lon="10.5467780">
	<ele>1669.80</ele>
	<time>2024-03-09T08:14:12.000Z</time>
</trkpt>
<trkpt lat="46.2522840" lon="10.5467870">
	<ele>1669.80</ele>
	<time>2024-03-09T08:14:13.000Z</time>
</trkpt>
<trkpt lat="46.2522900" lon="10.5467970">
	<ele>1670.00</ele>
	<time>2024-03-09T08:14:14.000Z</time>
</trkpt>
<trkpt lat="46.2522950" lon="10.5468100">
	<ele>1670.00</ele>
	<time>2024-03-09T08:14:15.000Z</time>
</trkpt>
<trkpt lat="46.2522990" lon="10.5468230">
	<ele>1670.00</ele>
	<time>2024-03-09T08:14:16.000Z</time>
</trkpt>
<trkpt lat="46.2523040" lon="10.5468330">
	<ele>1670.20</ele>
	<time>2024-03-09T08:14:17.000Z</time>
</trkpt>
<trkpt lat="46.2523090" lon="10.5468430">
	<ele>1670.20</ele>
	<time>2024-03-09T08:14:18.000Z</time>
</trkpt>
<trkpt lat="46.2523150" lon="10.5468550">
	<ele>1670.20</ele>
	<time>2024-03-09T08:14:19.000Z</time>
</trkpt>
<trkpt lat="46.2523190" lon="10.5468660">
	<ele>1670.40</ele>
	<time>2024-03-09T08:14:20.000Z</time>
</trkpt>
<trkpt lat="46.2523220" lon="10.5468750">
	<ele>1670.40</ele>
	<time>2024-03-09T08:14:21.000Z</time>
</trkpt>
<trkpt lat="46.2523250" lon="10.5468860">
	<ele>1670.60</ele>
	<time>2024-03-09T08:14:22.000Z</time>
</trkpt>
<trkpt lat="46.2523290" lon="10.5468980">
	<ele>1670.80</ele>
	<time>2024-03-09T08:14:23.000Z</time>
</trkpt>
<trkpt lat="46.2523340" lon="10.5469070">
	<ele>1670.80</ele>
	<time>2024-03-09T08:14:24.000Z</time>
</trkpt>
<trkpt lat="46.2523400" lon="10.5469140">
	<ele>1671.00</ele>
	<time>2024-03-09T08:14:25.000Z</time>
</trkpt>
<trkpt lat="46.2523450" lon="10.5469230">
	<ele>1671.20</ele>
	<time>2024-03-09T08:14:26.000Z</time>
</trkpt>
<trkpt lat="46.2523480" lon="10.5469380">
	<ele>1671.20</ele>
	<time>2024-03-09T08:14:27.000Z</time>
</trkpt>
<trkpt lat="46.2523500" lon="10.5469490">
	<ele>1671.20</ele>
	<time>2024-03-09T08:14:28.000Z</time>
</trkpt>
<trkpt lat="46.2523510" lon="10.5469600">
	<ele>1671.20</ele>
	<time>2024-03-09T08:14:29.000Z</time>
</trkpt>
<trkpt lat="46.2523550" lon="10.5469690">
	<ele>1671.40</ele>
	<time>2024-03-09T08:14:30.000Z</time>
</trkpt>
<trkpt lat="46.2523590" lon="10.5469800">
	<ele>1671.40</ele>
	<time>2024-03-09T08:14:31.000Z</time>
</trkpt>
<trkpt lat="46.2523630" lon="10.5469930">
	<ele>1671.40</ele>
	<time>2024-03-09T08:14:32.000Z</time>
</trkpt>
<trkpt lat="46.2523660" lon="10.5470010">
	<ele>1671.40</ele>
	<time>2024-03-09T08:14:33.000Z</time>
</trkpt>
<trkpt lat="46.2523680" lon="10.5470120">
	<ele>1671.60</ele>
	<time>2024-03-09T08:14:34.000Z</time>
</trkpt>
<trkpt lat="46.2523730" lon="10.5470230">
	<ele>1671.60</ele>
	<time>2024-03-09T08:14:35.000Z</time>
</trkpt>
<trkpt lat="46.2523800" lon="10.5470310">
	<ele>1671.60</ele>
	<time>2024-03-09T08:14:36.000Z</time>
</trkpt>
<trkpt lat="46.2523870" lon="10.5470420">
	<ele>1671.60</ele>
	<time>2024-03-09T08:14:37.000Z</time>
</trkpt>
<trkpt lat="46.2523910" lon="10.5470530">
	<ele>1671.60</ele>
	<time>2024-03-09T08:14:38.000Z</time>
</trkpt>
<trkpt lat="46.2523940" lon="10.5470640">
	<ele>1671.80</ele>
	<time>2024-03-09T08:14:39.000Z</time>
</trkpt>
<trkpt lat="46.2523980" lon="10.5470740">
	<ele>1671.80</ele>
	<time>2024-03-09T08:14:40.000Z</time>
</trkpt>
<trkpt lat="46.2524030" lon="10.5470850">
	<ele>1671.80</ele>
	<time>2024-03-09T08:14:41.000Z</time>
</trkpt>
<trkpt lat="46.2524050" lon="10.5470970">
	<ele>1672.00</ele>
	<time>2024-03-09T08:14:42.000Z</time>
</trkpt>
<trkpt lat="46.2524070" lon="10.5471100">
	<ele>1672.00</ele>
	<time>2024-03-09T08:14:43.000Z</time>
</trkpt>
<trkpt lat="46.2524090" lon="10.5471240">
	<ele>1672.00</ele>
	<time>2024-03-09T08:14:44.000Z</time>
</trkpt>
<trkpt lat="46.2524090" lon="10.5471390">
	<ele>1672.20</ele>
	<time>2024-03-09T08:14:45.000Z</time>
</trkpt>
<trkpt lat="46.2524120" lon="10.5471510">
	<ele>1672.20</ele>
	<time>2024-03-09T08:14:46.000Z</time>
</trkpt>
<trkpt lat="46.2524130" lon="10.5471600">
	<ele>1672.40</ele>
	<time>2024-03-09T08:14:47.000Z</time>
</trkpt>
<trkpt lat="46.2524170" lon="10.5471670">
	<ele>1672.40</ele>
	<time>2024-03-09T08:14:48.000Z</time>
</trkpt>
<trkpt lat="46.2524200" lon="10.5471790">
	<ele>1672.60</ele>
	<time>2024-03-09T08:14:49.000Z</time>
</trkpt>
<trkpt lat="46.2524200" lon="10.5471940">
	<ele>1672.80</ele>
	<time>2024-03-09T08:14:50.000Z</time>
</trkpt>
<trkpt lat="46.2524220" lon="10.5472060">
	<ele>1673.00</ele>
	<time>2024-03-09T08:14:51.000Z</time>
</trkpt>
<trkpt lat="46.2524250" lon="10.5472160">
	<ele>1673.00</ele>
	<time>2024-03-09T08:14:52.000Z</time>
</trkpt>
<trkpt lat="46.2524300" lon="10.5472300">
	<ele>1673.20</ele>
	<time>2024-03-09T08:14:53.000Z</time>
</trkpt>
<trkpt lat="46.2524330" lon="10.5472440">
	<ele>1673.20</ele>
	<time>2024-03-09T08:14:54.000Z</time>
</trkpt>
<trkpt lat="46.2524350" lon="10.5472560">
	<ele>1673.40</ele>
	<time>2024-03-09T08:14:55.000Z</time>
</trkpt>
<trkpt lat="46.2524370" lon="10.5472660">
	<ele>1673.60</ele>
	<time>2024-03-09T08:14:56.000Z</time>
</trkpt>
<trkpt lat="46.2524420" lon="10.5472770">
	<ele>1673.60</ele>
	<time>2024-03-09T08:14:57.000Z</time>
</trkpt>
<trkpt lat="46.2524440" lon="10.5472880">
	<ele>1673.80</ele>
	<time>2024-03-09T08:14:58.000Z</time>
</trkpt>
<trkpt lat="46.2524460" lon="10.5472980">
	<ele>1674.00</ele>
	<time>2024-03-09T08:14:59.000Z</time>
</trkpt>
<trkpt lat="46.2524490" lon="10.5473060">
	<ele>1674.00</ele>
	<time>2024-03-09T08:15:00.000Z</time>
</trkpt>
<trkpt lat="46.2524530" lon="10.5473180">
	<ele>1674.20</ele>
	<time>2024-03-09T08:15:01.000Z</time>
</trkpt>
<trkpt lat="46.2524550" lon="10.5473290">
	<ele>1674.40</ele>
	<time>2024-03-09T08:15:02.000Z</time>
</trkpt>
<trkpt lat="46.2524600" lon="10.5473410">
	<ele>1674.40</ele>
	<time>2024-03-09T08:15:03.000Z</time>
</trkpt>
<trkpt lat="46.2524650" lon="10.5473520">
	<ele>1674.60</ele>
	<time>2024-03-09T08:15:04.000Z</time>
</trkpt>
<trkpt lat="46.2524720" lon="10.5473630">
	<ele>1674.60</ele>
	<time>2024-03-09T08:15:05.000Z</time>
</trkpt>
<trkpt lat="46.2524790" lon="10.5473730">
	<ele>1674.60</ele>
	<time>2024-03-09T08:15:06.000Z</time>
</trkpt>
<trkpt lat="46.2524840" lon="10.5473790">
	<ele>1674.80</ele>
	<time>2024-03-09T08:15:07.000Z</time>
</trkpt>
<trkpt lat="46.2524890" lon="10.5473860">
	<ele>1674.80</ele>
	<time>2024-03-09T08:15:08.000Z</time>
</trkpt>
<trkpt lat="46.2524910" lon="10.5473990">
	<ele>1674.80</ele>
	<time>2024-03-09T08:15:09.000Z</time>
</trkpt>
<trkpt lat="46.2524960" lon="10.5474130">
	<ele>1674.80</ele>
	<time>2024-03-09T08:15:10.000Z</time>
</trkpt>
<trkpt lat="46.2525000" lon="10.5474270">
	<ele>1674.80</ele>
	<time>2024-03-09T08:15:11.000Z</time>
</trkpt>
<trkpt lat="46.2525040" lon="10.5474380">
	<ele>1674.80</ele>
	<time>2024-03-09T08:15:12.000Z</time>
</trkpt>
<trkpt lat="46.2525090" lon="10.5474460">
	<ele>1675.00</ele>
	<time>2024-03-09T08:15:13.000Z</time>
</trkpt>
<trkpt lat="46.2525140" lon="10.5474570">
	<ele>1675.00</ele>
	<time>2024-03-09T08:15:14.000Z</time>
</trkpt>
<trkpt lat="46.2525180" lon="10.5474630">
	<ele>1675.20</ele>
	<time>2024-03-09T08:15:15.000Z</time>
</trkpt>
<trkpt lat="46.2525220" lon="10.5474700">
	<ele>1675.20</ele>
	<time>2024-03-09T08:15:16.000Z</time>
</trkpt>
<trkpt lat="46.2525270" lon="10.5474800">
	<ele>1675.20</ele>
	<time>2024-03-09T08:15:17.000Z</time>
</trkpt>
<trkpt lat="46.2525340" lon="10.5474910">
	<ele>1675.40</ele>
	<time>2024-03-09T08:15:18.000Z</time>
</trkpt>
<trkpt lat="46.2525390" lon="10.5475050">
	<ele>1675.60</ele>
	<time>2024-03-09T08:15:19.000Z</time>
</trkpt>
<trkpt lat="46.2525430" lon="10.5475160">
	<ele>1675.60</ele>
	<time>2024-03-09T08:15:20.000Z</time>
</trkpt>
<trkpt lat="46.2525480" lon="10.5475260">
	<ele>1675.60</ele>
	<time>2024-03-09T08:15:21.000Z</time>
</trkpt>
<trkpt lat="46.2525500" lon="10.5475390">
	<ele>1675.60</ele>
	<time>2024-03-09T08:15:22.000Z</time>
</trkpt>
<trkpt lat="46.2525520" lon="10.5475500">
	<ele>1675.80</ele>
	<time>2024-03-09T08:15:23.000Z</time>
</trkpt>
<trkpt lat="46.2525560" lon="10.5475580">
	<ele>1676.20</ele>
	<time>2024-03-09T08:15:24.000Z</time>
</trkpt>
<trkpt lat="46.2525580" lon="10.5475690">
	<ele>1676.40</ele>
	<time>2024-03-09T08:15:25.000Z</time>
</trkpt>
<trkpt lat="46.2525610" lon="10.5475820">
	<ele>1676.40</ele>
	<time>2024-03-09T08:15:26.000Z</time>
</trkpt>
<trkpt lat="46.2525670" lon="10.5475910">
	<ele>1676.40</ele>
	<time>2024-03-09T08:15:27.000Z</time>
</trkpt>
<trkpt lat="46.2525720" lon="10.5475980">
	<ele>1676.60</ele>
	<time>2024-03-09T08:15:28.000Z</time>
</trkpt>
<trkpt lat="46.2525770" lon="10.5476090">
	<ele>1676.60</ele>
	<time>2024-03-09T08:15:29.000Z</time>
</trkpt>
<trkpt lat="46.2525800" lon="10.5476210">
	<ele>1676.60</ele>
	<time>2024-03-09T08:15:30.000Z</time>
</trkpt>
<trkpt lat="46.2525840" lon="10.5476300">
	<ele>1676.60</ele>
	<time>2024-03-09T08:15:31.000Z</time>
</trkpt>
<trkpt lat="46.2525870" lon="10.5476380">
	<ele>1676.60</ele>
	<time>2024-03-09T08:15:32.000Z</time>
</trkpt>
<trkpt lat="46.2525920" lon="10.5476470">
	<ele>1676.80</ele>
	<time>2024-03-09T08:15:33.000Z</time>
</trkpt>
<trkpt lat="46.2526000" lon="10.5476570">
	<ele>1676.80</ele>
	<time>2024-03-09T08:15:34.000Z</time>
</trkpt>
<trkpt lat="46.2526060" lon="10.5476650">
	<ele>1677.00</ele>
	<time>2024-03-09T08:15:35.000Z</time>
</trkpt>
<trkpt lat="46.2526110" lon="10.5476740">
	<ele>1677.20</ele>
	<time>2024-03-09T08:15:36.000Z</time>
</trkpt>
<trkpt lat="46.2526130" lon="10.5476860">
	<ele>1677.20</ele>
	<time>2024-03-09T08:15:37.000Z</time>
</trkpt>
<trkpt lat="46.2526180" lon="10.5476970">
	<ele>1677.20</ele>
	<time>2024-03-09T08:15:38.000Z</time>
</trkpt>
<trkpt lat="46.2526220" lon="10.5477030">
	<ele>1677.20</ele>
	<time>2024-03-09T08:15:39.000Z</time>
</trkpt>
<trkpt lat="46.2526260" lon="10.5477100">
	<ele>1677.40</ele>
	<time>2024-03-09T08:15:40.000Z</time>
</trkpt>
<trkpt lat="46.2526300" lon="10.5477230">
	<ele>1677.60</ele>
	<time>2024-03-09T08:15:41.000Z</time>
</trkpt>
<trkpt lat="46.2526330" lon="10.5477330">
	<ele>1677.60</ele>
	<time>2024-03-09T08:15:42.000Z</time>
</trkpt>
<trkpt lat="46.2526360" lon="10.5477410">
	<ele>1677.60</ele>
	<time>2024-03-09T08:15:43.000Z</time>
</trkpt>
<trkpt lat="46.2526390" lon="10.5477510">
	<ele>1677.80</ele>
	<time>2024-03-09T08:15:44.000Z</time>
</trkpt>
<trkpt lat="46.2526420" lon="10.5477630">
	<ele>1678.00</ele>
	<time>2024-03-09T08:15:45.000Z</time>
</trkpt>
<trkpt lat="46.2526470" lon="10.5477730">
	<ele>1678.00</ele>
	<time>2024-03-09T08:15:46.000Z</time>
</trkpt>
<trkpt lat="46.2526510" lon="10.5477800">
	<ele>1678.20</ele>
	<time>2024-03-09T08:15:47.000Z</time>
</trkpt>
<trkpt lat="46.2526550" lon="10.5477870">
	<ele>1678.40</ele>
	<time>2024-03-09T08:15:48.000Z</time>
</trkpt>
<trkpt lat="46.2526570" lon="10.5477950">
	<ele>1678.60</ele>
	<time>2024-03-09T08:15:49.000Z</time>
</trkpt>
<trkpt lat="46.2526590" lon="10.5478040">
	<ele>1678.80</ele>
	<time>2024-03-09T08:15:50.000Z</time>
</trkpt>
<trkpt lat="46.2526620" lon="10.5478120">
	<ele>1678.80</ele>
	<time>2024-03-09T08:15:51.000Z</time>
</trkpt>
<trkpt lat="46.2526670" lon="10.5478220">
	<ele>1678.80</ele>
	<time>2024-03-09T08:15:52.000Z</time>
</trkpt>
<trkpt lat="46.2526730" lon="10.5478330">
	<ele>1679.00</ele>
	<time>2024-03-09T08:15:53.000Z</time>
</trkpt>
<trkpt lat="46.2526780" lon="10.5478400">
	<ele>1679.00</ele>
	<time>2024-03-09T08:15:54.000Z</time>
</trkpt>
<trkpt lat="46.2526810" lon="10.5478480">
	<ele>1679.20</ele>
	<time>2024-03-09T08:15:55.000Z</time>
</trkpt>
<trkpt lat="46.2526830" lon="10.5478590">
	<ele>1679.40</ele>
	<time>2024-03-09T08:15:56.000Z</time>
</trkpt>
<trkpt lat="46.2526860" lon="10.5478710">
	<ele>1679.40</ele>
	<time>2024-03-09T08:15:57.000Z</time>
</trkpt>
<trkpt lat="46.2526900" lon="10.5478780">
	<ele>1679.60</ele>
	<time>2024-03-09T08:15:58.000Z</time>
</trkpt>
<trkpt lat="46.2526950" lon="10.5478890">
	<ele>1679.60</ele>
	<time>2024-03-09T08:15:59.000Z</time>
</trkpt>
<trkpt lat="46.2527000" lon="10.5479000">
	<ele>1679.40</ele>
	<time>2024-03-09T08:16:00.000Z</time>
</trkpt>
<trkpt lat="46.2527040" lon="10.5479110">
	<ele>1679.20</ele>
	<time>2024-03-09T08:16:01.000Z</time>
</trkpt>
<trkpt lat="46.2527070" lon="10.5479220">
	<ele>1679.40</ele>
	<time>2024-03-09T08:16:02.000Z</time>
</trkpt>
<trkpt lat="46.2527100" lon="10.5479330">
	<ele>1679.60</ele>
	<time>2024-03-09T08:16:03.000Z</time>
</trkpt>
<trkpt lat="46.2527150" lon="10.5479430">
	<ele>1679.60</ele>
	<time>2024-03-09T08:16:04.000Z</time>
</trkpt>
<trkpt lat="46.2527180" lon="10.5479480">
	<ele>1679.80</ele>
	<time>2024-03-09T08:16:05.000Z</time>
</trkpt>
<trkpt lat="46.2527240" lon="10.5479570">
	<ele>1679.80</ele>
	<time>2024-03-09T08:16:06.000Z</time>
</trkpt>
<trkpt lat="46.2527280" lon="10.5479670">
	<ele>1680.00</ele>
	<time>2024-03-09T08:16:07.000Z</time>
</trkpt>
<trkpt lat="46.2527340" lon="10.5479740">
	<ele>1680.20</ele>
	<time>2024-03-09T08:16:08.000Z</time>
</trkpt>
<trkpt lat="46.2527380" lon="10.5479800">
	<ele>1680.20</ele>
	<time>2024-03-09T08:16:09.000Z</time>
</trkpt>
<trkpt lat="46.2527440" lon="10.5479870">
	<ele>1680.20</ele>
	<time>2024-03-09T08:16:10.000Z</time>
</trkpt>
<trkpt lat="46.2527480" lon="10.5479970">
	<ele>1680.20</ele>
	<time>2024-03-09T08:16:11.000Z</time>
</trkpt>
<trkpt lat="46.2527520" lon="10.5480070">
	<ele>1680.60</ele>
	<time>2024-03-09T08:16:12.000Z</time>
</trkpt>
<trkpt lat="46.2527550" lon="10.5480150">
	<ele>1680.80</ele>
	<time>2024-03-09T08:16:13.000Z</time>
</trkpt>
<trkpt lat="46.2527590" lon="10.5480230">
	<ele>1681.00</ele>
	<time>2024-03-09T08:16:14.000Z</time>
</trkpt>
<trkpt lat="46.2527640" lon="10.5480330">
	<ele>1681.00</ele>
	<time>2024-03-09T08:16:15.000Z</time>
</trkpt>
<trkpt lat="46.2527670" lon="10.5480440">
	<ele>1681.20</ele>
	<time>2024-03-09T08:16:16.000Z</time>
</trkpt>
<trkpt lat="46.2527690" lon="10.5480560">
	<ele>1681.20</ele>
	<time>2024-03-09T08:16:17.000Z</time>
</trkpt>
<trkpt lat="46.2527710" lon="10.5480680">
	<ele>1681.20</ele>
	<time>2024-03-09T08:16:18.000Z</time>
</trkpt>
<trkpt lat="46.2527720" lon="10.5480810">
	<ele>1681.20</ele>
	<time>2024-03-09T08:16:19.000Z</time>
</trkpt>
<trkpt lat="46.2527740" lon="10.5480920">
	<ele>1681.60</ele>
	<time>2024-03-09T08:16:20.000Z</time>
</trkpt>
<trkpt lat="46.2527760" lon="10.5481000">
	<ele>1681.80</ele>
	<time>2024-03-09T08:16:21.000Z</time>
</trkpt>
<trkpt lat="46.2527820" lon="10.5481090">
	<ele>1682.00</ele>
	<time>2024-03-09T08:16:22.000Z</time>
</trkpt>
<trkpt lat="46.2527880" lon="10.5481190">
	<ele>1682.00</ele>
	<time>2024-03-09T08:16:23.000Z</time>
</trkpt>
<trkpt lat="46.2527920" lon="10.5481270">
	<ele>1682.20</ele>
	<time>2024-03-09T08:16:24.000Z</time>
</trkpt>
<trkpt lat="46.2527960" lon="10.5481370">
	<ele>1682.40</ele>
	<time>2024-03-09T08:16:25.000Z</time>
</trkpt>
<trkpt lat="46.2527990" lon="10.5481500">
	<ele>1682.40</ele>
	<time>2024-03-09T08:16:26.000Z</time>
</trkpt>
<trkpt lat="46.2528030" lon="10.5481600">
	<ele>1682.40</ele>
	<time>2024-03-09T08:16:27.000Z</time>
</trkpt>
<trkpt lat="46.2528040" lon="10.5481690">
	<ele>1682.60</ele>
	<time>2024-03-09T08:16:28.000Z</time>
</trkpt>
<trkpt lat="46.2528050" lon="10.5481770">
	<ele>1682.80</ele>
	<time>2024-03-09T08:16:29.000Z</time>
</trkpt>
<trkpt lat="46.2528060" lon="10.5481910">
	<ele>1682.80</ele>
	<time>2024-03-09T08:16:30.000Z</time>
</trkpt>
<trkpt lat="46.2528100" lon="10.5482010">
	<ele>1682.80</ele>
	<time>2024-03-09T08:16:31.000Z</time>
</trkpt>
<trkpt lat="46.2528160" lon="10.5482090">
	<ele>1683.00</ele>
	<time>2024-03-09T08:16:32.000Z</time>
</trkpt>
<trkpt lat="46.2528210" lon="10.5482170">
	<ele>1683.00</ele>
	<time>2024-03-09T08:16:33.000Z</time>
</trkpt>
<trkpt lat="46.2528230" lon="10.5482290">
	<ele>1683.20</ele>
	<time>2024-03-09T08:16:34.000Z</time>
</trkpt>
<trkpt lat="46.2528250" lon="10.5482430">
	<ele>1683.20</ele>
	<time>2024-03-09T08:16:35.000Z</time>
</trkpt>
<trkpt lat="46.2528270" lon="10.5482530">
	<ele>1683.40</ele>
	<time>2024-03-09T08:16:36.000Z</time>
</trkpt>
<trkpt lat="46.2528280" lon="10.5482640">
	<ele>1683.40</ele>
	<time>2024-03-09T08:16:37.000Z</time>
</trkpt>
<trkpt lat="46.2528300" lon="10.5482760">
	<ele>1683.60</ele>
	<time>2024-03-09T08:16:38.000Z</time>
</trkpt>
<trkpt lat="46.2528340" lon="10.5482900">
	<ele>1683.60</ele>
	<time>2024-03-09T08:16:39.000Z</time>
</trkpt>
<trkpt lat="46.2528400" lon="10.5482950">
	<ele>1683.60</ele>
	<time>2024-03-09T08:16:40.000Z</time>
</trkpt>
<trkpt lat="46.2528440" lon="10.5483020">
	<ele>1683.80</ele>
	<time>2024-03-09T08:16:41.000Z</time>
</trkpt>
<trkpt lat="46.2528470" lon="10.5483140">
	<ele>1683.80</ele>
	<time>2024-03-09T08:16:42.000Z</time>
</trkpt>
<trkpt lat="46.2528520" lon="10.5483280">
	<ele>1683.80</ele>
	<time>2024-03-09T08:16:43.000Z</time>
</trkpt>
<trkpt lat="46.2528570" lon="10.5483350">
	<ele>1684.20</ele>
	<time>2024-03-09T08:16:44.000Z</time>
</trkpt>
<trkpt lat="46.2528620" lon="10.5483420">
	<ele>1684.40</ele>
	<time>2024-03-09T08:16:45.000Z</time>
</trkpt>
<trkpt lat="46.2528640" lon="10.5483540">
	<ele>1684.40</ele>
	<time>2024-03-09T08:16:46.000Z</time>
</trkpt>
<trkpt lat="46.2528660" lon="10.5483660">
	<ele>1684.40</ele>
	<time>2024-03-09T08:16:47.000Z</time>
</trkpt>
<trkpt lat="46.2528700" lon="10.5483780">
	<ele>1684.40</ele>
	<time>2024-03-09T08:16:48.000Z</time>
</trkpt>
<trkpt lat="46.2528730" lon="10.5483890">
	<ele>1684.60</ele>
	<time>2024-03-09T08:16:49.000Z</time>
</trkpt>
<trkpt lat="46.2528750" lon="10.5484020">
	<ele>1684.60</ele>
	<time>2024-03-09T08:16:50.000Z</time>
</trkpt>
<trkpt lat="46.2528770" lon="10.5484140">
	<ele>1684.80</ele>
	<time>2024-03-09T08:16:51.000Z</time>
</trkpt>
<trkpt lat="46.2528800" lon="10.5484260">
	<ele>1684.80</ele>
	<time>2024-03-09T08:16:52.000Z</time>
</trkpt>
<trkpt lat="46.2528820" lon="10.5484360">
	<ele>1685.00</ele>
	<time>2024-03-09T08:16:53.000Z</time>
</trkpt>
<trkpt lat="46.2528850" lon="10.5484470">
	<ele>1685.00</ele>
	<time>2024-03-09T08:16:54.000Z</time>
</trkpt>
<trkpt lat="46.2528890" lon="10.5484590">
	<ele>1685.20</ele>
	<time>2024-03-09T08:16:55.000Z</time>
</trkpt>
<trkpt lat="46.2528910" lon="10.5484690">
	<ele>1685.40</ele>
	<time>2024-03-09T08:16:56.000Z</time>
</trkpt>
<trkpt lat="46.2528930" lon="10.5484770">
	<ele>1685.60</ele>
	<time>2024-03-09T08:16:57.000Z</time>
</trkpt>
<trkpt lat="46.2528960" lon="10.5484890">
	<ele>1685.60</ele>
	<time>2024-03-09T08:16:58.000Z</time>
</trkpt>
<trkpt lat="46.2528960" lon="10.5485030">
	<ele>1685.80</ele>
	<time>2024-03-09T08:16:59.000Z</time>
</trkpt>
<trkpt lat="46.2528960" lon="10.5485140">
	<ele>1685.80</ele>
	<time>2024-03-09T08:17:00.000Z</time>
</trkpt>
<trkpt lat="46.2528970" lon="10.5485220">
	<ele>1686.20</ele>
	<time>2024-03-09T08:17:01.000Z</time>
</trkpt>
<trkpt lat="46.2529000" lon="10.5485330">
	<ele>1686.20</ele>
	<time>2024-03-09T08:17:02.000Z</time>
</trkpt>
<trkpt lat="46.2529030" lon="10.5485460">
	<ele>1686.40</ele>
	<time>2024-03-09T08:17:03.000Z</time>
</trkpt>
<trkpt lat="46.2529060" lon="10.5485580">
	<ele>1686.60</ele>
	<time>2024-03-09T08:17:04.000Z</time>
</trkpt>
<trkpt lat="46.2529080" lon="10.5485660">
	<ele>1686.60</ele>
	<time>2024-03-09T08:17:05.000Z</time>
</trkpt>
<trkpt lat="46.2529070" lon="10.5485770">
	<ele>1686.80</ele>
	<time>2024-03-09T08:17:06.000Z</time>
</trkpt>
<trkpt lat="46.2529060" lon="10.5485880">
	<ele>1686.80</ele>
	<time>2024-03-09T08:17:07.000Z</time>
</trkpt>
<trkpt lat="46.2529050" lon="10.5486000">
	<ele>1686.80</ele>
	<time>2024-03-09T08:17:08.000Z</time>
</trkpt>
<trkpt lat="46.2529050" lon="10.5486100">
	<ele>1687.00</ele>
	<time>2024-03-09T08:17:09.000Z</time>
</trkpt>
<trkpt lat="46.2529080" lon="10.5486220">
	<ele>1687.00</ele>
	<time>2024-03-09T08:17:10.000Z</time>
</trkpt>
<trkpt lat="46.2529070" lon="10.5486340">
	<ele>1687.00</ele>
	<time>2024-03-09T08:17:11.000Z</time>
</trkpt>
<trkpt lat="46.2529060" lon="10.5486440">
	<ele>1687.20</ele>
	<time>2024-03-09T08:17:12.000Z</time>
</trkpt>
<trkpt lat="46.2529070" lon="10.5486550">
	<ele>1687.20</ele>
	<time>2024-03-09T08:17:13.000Z</time>
</trkpt>
<trkpt lat="46.2529070" lon="10.5486690">
	<ele>1687.20</ele>
	<time>2024-03-09T08:17:14.000Z</time>
</trkpt>
<trkpt lat="46.2529080" lon="10.5486830">
	<ele>1687.40</ele>
	<time>2024-03-09T08:17:15.000Z</time>
</trkpt>
<trkpt lat="46.2529090" lon="10.5486950">
	<ele>1687.60</ele>
	<time>2024-03-09T08:17:16.000Z</time>
</trkpt>
<trkpt lat="46.2529110" lon="10.5487070">
	<ele>1687.60</ele>
	<time>2024-03-09T08:17:17.000Z</time>
</trkpt>
<trkpt lat="46.2529120" lon="10.5487210">
	<ele>1687.60</ele>
	<time>2024-03-09T08:17:18.000Z</time>
</trkpt>
<trkpt lat="46.2529140" lon="10.5487300">
	<ele>1688.00</ele>
	<time>2024-03-09T08:17:19.000Z</time>
</trkpt>
<trkpt lat="46.2529150" lon="10.5487380">
	<ele>1688.00</ele>
	<time>2024-03-09T08:17:20.000Z</time>
</trkpt>
<trkpt lat="46.2529160" lon="10.5487520">
	<ele>1688.20</ele>
	<time>2024-03-09T08:17:21.000Z</time>
</trkpt>
<trkpt lat="46.2529140" lon="10.5487650">
	<ele>1688.20</ele>
	<time>2024-03-09T08:17:22.000Z</time>
</trkpt>
<trkpt lat="46.2529140" lon="10.5487750">
	<ele>1688.40</ele>
	<time>2024-03-09T08:17:23.000Z</time>
</trkpt>
<trkpt lat="46.2529140" lon="10.5487850">
	<ele>1688.40</ele>
	<time>2024-03-09T08:17:24.000Z</time>
</trkpt>
<trkpt lat="46.2529140" lon="10.5487980">
	<ele>1688.40</ele>
	<time>2024-03-09T08:17:25.000Z</time>
</trkpt>
<trkpt lat="46.2529120" lon="10.5488120">
	<ele>1688.60</ele>
	<time>2024-03-09T08:17:26.000Z</time>
</trkpt>
<trkpt lat="46.2529090" lon="10.5488260">
	<ele>1688.80</ele>
	<time>2024-03-09T08:17:27.000Z</time>
</trkpt>
<trkpt lat="46.2529100" lon="10.5488390">
	<ele>1688.80</ele>
	<time>2024-03-09T08:17:28.000Z</time>
</trkpt>
<trkpt lat="46.2529110" lon="10.5488500">
	<ele>1688.80</ele>
	<time>2024-03-09T08:17:29.000Z</time>
</trkpt>
<trkpt lat="46.2529130" lon="10.5488630">
	<ele>1689.00</ele>
	<time>2024-03-09T08:17:30.000Z</time>
</trkpt>
<trkpt lat="46.2529140" lon="10.5488740">
	<ele>1689.00</ele>
	<time>2024-03-09T08:17:31.000Z</time>
</trkpt>
<trkpt lat="46.2529140" lon="10.5488860">
	<ele>1689.20</ele>
	<time>2024-03-09T08:17:32.000Z</time>
</trkpt>
<trkpt lat="46.2529150" lon="10.5489000">
	<ele>1689.20</ele>
	<time>2024-03-09T08:17:33.000Z</time>
</trkpt>
<trkpt lat="46.2529160" lon="10.5489120">
	<ele>1689.20</ele>
	<time>2024-03-09T08:17:34.000Z</time>
</trkpt>
<trkpt lat="46.2529190" lon="10.5489210">
	<ele>1689.40</ele>
	<time>2024-03-09T08:17:35.000Z</time>
</trkpt>
<trkpt lat="46.2529210" lon="10.5489320">
	<ele>1689.40</ele>
	<time>2024-03-09T08:17:36.000Z</time>
</trkpt>
<trkpt lat="46.2529220" lon="10.5489410">
	<ele>1689.20</ele>
	<time>2024-03-09T08:17:37.000Z</time>
</trkpt>
<trkpt lat="46.2529210" lon="10.5489470">
	<ele>1689.20</ele>
	<time>2024-03-09T08:17:38.000Z</time>
</trkpt>
<trkpt lat="46.2529200" lon="10.5489480">
	<ele>1689.40</ele>
	<time>2024-03-09T08:17:39.000Z</time>
</trkpt>
<trkpt lat="46.2529190" lon="10.5489490">
	<ele>1689.40</ele>
	<time>2024-03-09T08:17:40.000Z</time>
</trkpt>
<trkpt lat="46.2529180" lon="10.5489490">
	<ele>1689.40</ele>
	<time>2024-03-09T08:17:41.000Z</time>
</trkpt>
<trkpt lat="46.2529180" lon="10.5489500">
	<ele>1689.20</ele>
	<time>2024-03-09T08:17:42.000Z</time>
</trkpt>
<trkpt lat="46.2529170" lon="10.5489510">
	<ele>1689.20</ele>
	<time>2024-03-09T08:17:43.000Z</time>
</trkpt>
<trkpt lat="46.2529170" lon="10.5489510">
	<ele>1689.20</ele>
	<time>2024-03-09T08:17:44.000Z</time>
</trkpt>
<trkpt lat="46.2529180" lon="10.5489510">
	<ele>1689.20</ele>
	<time>2024-03-09T08:17:45.000Z</time>
</trkpt>
<trkpt lat="46.2529170" lon="10.5489520">
	<ele>1689.20</ele>
	<time>2024-03-09T08:17:46.000Z</time>
</trkpt>
<trkpt lat="46.2529170" lon="10.5489530">
	<ele>1689.20</ele>
	<time>2024-03-09T08:17:47.000Z</time>
</trkpt>
<trkpt lat="46.2529180" lon="10.5489530">
	<ele>1689.20</ele>
	<time>2024-03-09T08:17:48.000Z</time>
</trkpt>
<trkpt lat="46.2529210" lon="10.5489510">
	<ele>1689.20</ele>
	<time>2024-03-09T08:17:49.000Z</time>
</trkpt>
<trkpt lat="46.2529210" lon="10.5489510">
	<ele>1689.20</ele>
	<time>2024-03-09T08:17:50.000Z</time>
</trkpt>
<trkpt lat="46.2529210" lon="10.5489510">
	<ele>1689.20</ele>
	<time>2024-03-09T08:17:51.000Z</time>
</trkpt>
<trkpt lat="46.2529210" lon="10.5489510">
	<ele>1689.20</ele>
	<time>2024-03-09T08:17:52.000Z</time>
</trkpt>
<trkpt lat="46.2529210" lon="10.5489510">
	<ele>1689.20</ele>
	<time>2024-03-09T08:17:53.000Z</time>
</trkpt>
<trkpt lat="46.2529210" lon="10.5489510">
	<ele>1689.40</ele>
	<time>2024-03-09T08:17:54.000Z</time>
</trkpt>
<trkpt lat="46.2529210" lon="10.5489510">
	<ele>1689.40</ele>
	<time>2024-03-09T08:17:55.000Z</time>
</trkpt>
<trkpt lat="46.2529210" lon="10.5489510">
	<ele>1689.60</ele>
	<time>2024-03-09T08:17:56.000Z</time>
</trkpt>
<trkpt lat="46.2529210" lon="10.5489510">
	<ele>1689.60</ele>
	<time>2024-03-09T08:17:57.000Z</time>
</trkpt>
<trkpt lat="46.2529210" lon="10.5489510">
	<ele>1689.80</ele>
	<time>2024-03-09T08:17:58.000Z</time>
</trkpt>
<trkpt lat="46.2529210" lon="10.5489510">
	<ele>1689.80</ele>
	<time>2024-03-09T08:17:59.000Z</time>
</trkpt>
<trkpt lat="46.2529210" lon="10.5489510">
	<ele>1689.80</ele>
	<time>2024-03-09T08:18:00.000Z</time>
</trkpt>
<trkpt lat="46.2529210" lon="10.5489510">
	<ele>1689.80</ele>
	<time>2024-03-09T08:18:01.000Z</time>
</trkpt>
<trkpt lat="46.2529210" lon="10.5489510">
	<ele>1689.80</ele>
	<time>2024-03-09T08:18:02.000Z</time>
</trkpt>
<trkpt lat="46.2529210" lon="10.5489510">
	<ele>1689.80</ele>
	<time>2024-03-09T08:18:03.000Z</time>
</trkpt>
<trkpt lat="46.2529210" lon="10.5489510">
	<ele>1689.80</ele>
	<time>2024-03-09T08:18:04.000Z</time>
</trkpt>
<trkpt lat="46.2529210" lon="10.5489510">
	<ele>1690.00</ele>
	<time>2024-03-09T08:18:05.000Z</time>
</trkpt>
<trkpt lat="46.2529210" lon="10.5489510">
	<ele>1690.00</ele>
	<time>2024-03-09T08:18:06.000Z</time>
</trkpt>
<trkpt lat="46.2529200" lon="10.5489510">
	<ele>1690.00</ele>
	<time>2024-03-09T08:18:07.000Z</time>
</trkpt>
<trkpt lat="46.2529190" lon="10.5489520">
	<ele>1689.80</ele>
	<time>2024-03-09T08:18:08.000Z</time>
</trkpt>
<trkpt lat="46.2529190" lon="10.5489520">
	<ele>1689.60</ele>
	<time>2024-03-09T08:18:09.000Z</time>
</trkpt>
<trkpt lat="46.2529190" lon="10.5489530">
	<ele>1689.40</ele>
	<time>2024-03-09T08:18:10.000Z</time>
</trkpt>
<trkpt lat="46.2529190" lon="10.5489530">
	<ele>1689.40</ele>
	<time>2024-03-09T08:18:11.000Z</time>
</trkpt>
<trkpt lat="46.2529190" lon="10.5489530">
	<ele>1689.20</ele>
	<time>2024-03-09T08:18:12.000Z</time>
</trkpt>
<trkpt lat="46.2529200" lon="10.5489530">
	<ele>1689.20</ele>
	<time>2024-03-09T08:18:13.000Z</time>
</trkpt>
<trkpt lat="46.2529200" lon="10.5489540">
	<ele>1689.00</ele>
	<time>2024-03-09T08:18:14.000Z</time>
</trkpt>
<trkpt lat="46.2529200" lon="10.5489540">
	<ele>1689.00</ele>
	<time>2024-03-09T08:18:15.000Z</time>
</trkpt>
<trkpt lat="46.2529210" lon="10.5489540">
	<ele>1689.00</ele>
	<time>2024-03-09T08:18:16.000Z</time>
</trkpt>
<trkpt lat="46.2529210" lon="10.5489550">
	<ele>1689.00</ele>
	<time>2024-03-09T08:18:17.000Z</time>
</trkpt>
<trkpt lat="46.2529210" lon="10.5489550">
	<ele>1689.00</ele>
	<time>2024-03-09T08:18:18.000Z</time>
</trkpt>
<trkpt lat="46.2529210" lon="10.5489550">
	<ele>1689.00</ele>
	<time>2024-03-09T08:18:19.000Z</time>
</trkpt>
<trkpt lat="46.2529210" lon="10.5489570">
	<ele>1689.00</ele>
	<time>2024-03-09T08:18:20.000Z</time>
</trkpt>
<trkpt lat="46.2529210" lon="10.5489570">
	<ele>1689.00</ele>
	<time>2024-03-09T08:18:21.000Z</time>
</trkpt>
<trkpt lat="46.2529210" lon="10.5489570">
	<ele>1689.00</ele>
	<time>2024-03-09T08:18:22.000Z</time>
</trkpt>
<trkpt lat="46.2529210" lon="10.5489570">
	<ele>1689.00</ele>
	<time>2024-03-09T08:18:23.000Z</time>
</trkpt>
<trkpt lat="46.2529210" lon="10.5489570">
	<ele>1689.00</ele>
	<time>2024-03-09T08:18:24.000Z</time>
</trkpt>
<trkpt lat="46.2529210" lon="10.5489580">
	<ele>1689.00</ele>
	<time>2024-03-09T08:18:25.000Z</time>
</trkpt>
<trkpt lat="46.2529210" lon="10.5489580">
	<ele>1689.20</ele>
	<time>2024-03-09T08:18:26.000Z</time>
</trkpt>
<trkpt lat="46.2529210" lon="10.5489580">
	<ele>1689.40</ele>
	<time>2024-03-09T08:18:27.000Z</time>
</trkpt>
<trkpt lat="46.2529210" lon="10.5489580">
	<ele>1689.40</ele>
	<time>2024-03-09T08:18:28.000Z</time>
</trkpt>
<trkpt lat="46.2529210" lon="10.5489580">
	<ele>1689.60</ele>
	<time>2024-03-09T08:18:29.000Z</time>
</trkpt>
<trkpt lat="46.2529210" lon="10.5489640">
	<ele>1690.00</ele>
	<time>2024-03-09T08:18:30.000Z</time>
</trkpt>
<trkpt lat="46.2529240" lon="10.5489800">
	<ele>1690.00</ele>
	<time>2024-03-09T08:18:31.000Z</time>
</trkpt>
<trkpt lat="46.2529270" lon="10.5489980">
	<ele>1690.20</ele>
	<time>2024-03-09T08:18:32.000Z</time>
</trkpt>
<trkpt lat="46.2529300" lon="10.5490160">
	<ele>1690.40</ele>
	<time>2024-03-09T08:18:33.000Z</time>
</trkpt>
<trkpt lat="46.2529290" lon="10.5490330">
	<ele>1690.40</ele>
	<time>2024-03-09T08:18:34.000Z</time>
</trkpt>
<trkpt lat="46.2529280" lon="10.5490510">
	<ele>1690.40</ele>
	<time>2024-03-09T08:18:35.000Z</time>
</trkpt>
<trkpt lat="46.2529280" lon="10.5490710">
	<ele>1690.60</ele>
	<time>2024-03-09T08:18:36.000Z</time>
</trkpt>
<trkpt lat="46.2529280" lon="10.5490910">
	<ele>1690.80</ele>
	<time>2024-03-09T08:18:37.000Z</time>
</trkpt>
<trkpt lat="46.2529260" lon="10.5491110">
	<ele>1690.80</ele>
	<time>2024-03-09T08:18:38.000Z</time>
</trkpt>
<trkpt lat="46.2529240" lon="10.5491300">
	<ele>1690.80</ele>
	<time>2024-03-09T08:18:39.000Z</time>
</trkpt>
<trkpt lat="46.2529220" lon="10.5491410">
	<ele>1690.60</ele>
	<time>2024-03-09T08:18:40.000Z</time>
</trkpt>
<trkpt lat="46.2529230" lon="10.5491490">
	<ele>1690.60</ele>
	<time>2024-03-09T08:18:41.000Z</time>
</trkpt>
<trkpt lat="46.2529260" lon="10.5491530">
	<ele>1690.60</ele>
	<time>2024-03-09T08:18:42.000Z</time>
</trkpt>
<trkpt lat="46.2529270" lon="10.5491650">
	<ele>1690.40</ele>
	<time>2024-03-09T08:18:43.000Z</time>
</trkpt>
<trkpt lat="46.2529260" lon="10.5491780">
	<ele>1690.40</ele>
	<time>2024-03-09T08:18:44.000Z</time>
</trkpt>
<trkpt lat="46.2529260" lon="10.5491910">
	<ele>1690.40</ele>
	<time>2024-03-09T08:18:45.000Z</time>
</trkpt>
<trkpt lat="46.2529250" lon="10.5492040">
	<ele>1690.60</ele>
	<time>2024-03-09T08:18:46.000Z</time>
</trkpt>
<trkpt lat="46.2529240" lon="10.5492190">
	<ele>1690.60</ele>
	<time>2024-03-09T08:18:47.000Z</time>
</trkpt>
<trkpt lat="46.2529230" lon="10.5492360">
	<ele>1690.80</ele>
	<time>2024-03-09T08:18:48.000Z</time>
</trkpt>
<trkpt lat="46.2529250" lon="10.5492460">
	<ele>1690.80</ele>
	<time>2024-03-09T08:18:49.000Z</time>
</trkpt>
<trkpt lat="46.2529240" lon="10.5492550">
	<ele>1690.80</ele>
	<time>2024-03-09T08:18:50.000Z</time>
</trkpt>
<trkpt lat="46.2529260" lon="10.5492670">
	<ele>1690.80</ele>
	<time>2024-03-09T08:18:51.000Z</time>
</trkpt>
<trkpt lat="46.2529270" lon="10.5492830">
	<ele>1690.80</ele>
	<time>2024-03-09T08:18:52.000Z</time>
</trkpt>
<trkpt lat="46.2529290" lon="10.5492950">
	<ele>1690.80</ele>
	<time>2024-03-09T08:18:53.000Z</time>
</trkpt>
<trkpt lat="46.2529300" lon="10.5493060">
	<ele>1690.80</ele>
	<time>2024-03-09T08:18:54.000Z</time>
</trkpt>
<trkpt lat="46.2529320" lon="10.5493160">
	<ele>1691.00</ele>
	<time>2024-03-09T08:18:55.000Z</time>
</trkpt>
<trkpt lat="46.2529330" lon="10.5493300">
	<ele>1691.20</ele>
	<time>2024-03-09T08:18:56.000Z</time>
</trkpt>
<trkpt lat="46.2529320" lon="10.5493470">
	<ele>1691.40</ele>
	<time>2024-03-09T08:18:57.000Z</time>
</trkpt>
<trkpt lat="46.2529330" lon="10.5493610">
	<ele>1691.40</ele>
	<time>2024-03-09T08:18:58.000Z</time>
</trkpt>
<trkpt lat="46.2529330" lon="10.5493720">
	<ele>1691.60</ele>
	<time>2024-03-09T08:18:59.000Z</time>
</trkpt>
<trkpt lat="46.2529300" lon="10.5493860">
	<ele>1691.60</ele>
	<time>2024-03-09T08:19:00.000Z</time>
</trkpt>
<trkpt lat="46.2529290" lon="10.5494020">
	<ele>1691.80</ele>
	<time>2024-03-09T08:19:01.000Z</time>
</trkpt>
<trkpt lat="46.2529280" lon="10.5494140">
	<ele>1691.80</ele>
	<time>2024-03-09T08:19:02.000Z</time>
</trkpt>
<trkpt lat="46.2529270" lon="10.5494260">
	<ele>1691.80</ele>
	<time>2024-03-09T08:19:03.000Z</time>
</trkpt>
<trkpt lat="46.2529280" lon="10.5494390">
	<ele>1691.80</ele>
	<time>2024-03-09T08:19:04.000Z</time>
</trkpt>
<trkpt lat="46.2529280" lon="10.5494550">
	<ele>1691.80</ele>
	<time>2024-03-09T08:19:05.000Z</time>
</trkpt>
<trkpt lat="46.2529280" lon="10.5494720">
	<ele>1691.80</ele>
	<time>2024-03-09T08:19:06.000Z</time>
</trkpt>
<trkpt lat="46.2529270" lon="10.5494890">
	<ele>1691.80</ele>
	<time>2024-03-09T08:19:07.000Z</time>
</trkpt>
<trkpt lat="46.2529260" lon="10.5495060">
	<ele>1691.80</ele>
	<time>2024-03-09T08:19:08.000Z</time>
</trkpt>
<trkpt lat="46.2529250" lon="10.5495200">
	<ele>1691.80</ele>
	<time>2024-03-09T08:19:09.000Z</time>
</trkpt>
<trkpt lat="46.2529250" lon="10.5495340">
	<ele>1692.00</ele>
	<time>2024-03-09T08:19:10.000Z</time>
</trkpt>
<trkpt lat="46.2529270" lon="10.5495450">
	<ele>1692.00</ele>
	<time>2024-03-09T08:19:11.000Z</time>
</trkpt>
<trkpt lat="46.2529270" lon="10.5495580">
	<ele>1692.00</ele>
	<time>2024-03-09T08:19:12.000Z</time>
</trkpt>
<trkpt lat="46.2529280" lon="10.5495670">
	<ele>1692.20</ele>
	<time>2024-03-09T08:19:13.000Z</time>
</trkpt>
<trkpt lat="46.2529300" lon="10.5495750">
	<ele>1692.40</ele>
	<time>2024-03-09T08:19:14.000Z</time>
</trkpt>
<trkpt lat="46.2529320" lon="10.5495870">
	<ele>1692.60</ele>
	<time>2024-03-09T08:19:15.000Z</time>
</trkpt>
<trkpt lat="46.2529310" lon="10.5496010">
	<ele>1692.60</ele>
	<time>2024-03-09T08:19:16.000Z</time>
</trkpt>
<trkpt lat="46.2529310" lon="10.5496140">
	<ele>1692.60</ele>
	<time>2024-03-09T08:19:17.000Z</time>
</trkpt>
<trkpt lat="46.2529310" lon="10.5496250">
	<ele>1692.60</ele>
	<time>2024-03-09T08:19:18.000Z</time>
</trkpt>
<trkpt lat="46.2529310" lon="10.5496380">
	<ele>1692.80</ele>
	<time>2024-03-09T08:19:19.000Z</time>
</trkpt>
<trkpt lat="46.2529290" lon="10.5496560">
	<ele>1692.80</ele>
	<time>2024-03-09T08:19:20.000Z</time>
</trkpt>
<trkpt lat="46.2529280" lon="10.5496740">
	<ele>1692.80</ele>
	<time>2024-03-09T08:19:21.000Z</time>
</trkpt>
<trkpt lat="46.2529290" lon="10.5496870">
	<ele>1692.80</ele>
	<time>2024-03-09T08:19:22.000Z</time>
</trkpt>
<trkpt lat="46.2529300" lon="10.5496990">
	<ele>1692.80</ele>
	<time>2024-03-09T08:19:23.000Z</time>
</trkpt>
<trkpt lat="46.2529310" lon="10.5497100">
	<ele>1693.20</ele>
	<time>2024-03-09T08:19:24.000Z</time>
</trkpt>
<trkpt lat="46.2529300" lon="10.5497250">
	<ele>1693.40</ele>
	<time>2024-03-09T08:19:25.000Z</time>
</trkpt>
<trkpt lat="46.2529300" lon="10.5497400">
	<ele>1693.40</ele>
	<time>2024-03-09T08:19:26.000Z</time>
</trkpt>
<trkpt lat="46.2529270" lon="10.5497550">
	<ele>1693.60</ele>
	<time>2024-03-09T08:19:27.000Z</time>
</trkpt>
<trkpt lat="46.2529260" lon="10.5497680">
	<ele>1693.80</ele>
	<time>2024-03-09T08:19:28.000Z</time>
</trkpt>
<trkpt lat="46.2529260" lon="10.5497840">
	<ele>1693.80</ele>
	<time>2024-03-09T08:19:29.000Z</time>
</trkpt>
<trkpt lat="46.2529260" lon="10.5497970">
	<ele>1693.80</ele>
	<time>2024-03-09T08:19:30.000Z</time>
</trkpt>
<trkpt lat="46.2529250" lon="10.5498120">
	<ele>1693.80</ele>
	<time>2024-03-09T08:19:31.000Z</time>
</trkpt>
<trkpt lat="46.2529260" lon="10.5498210">
	<ele>1694.00</ele>
	<time>2024-03-09T08:19:32.000Z</time>
</trkpt>
<trkpt lat="46.2529270" lon="10.5498330">
	<ele>1694.00</ele>
	<time>2024-03-09T08:19:33.000Z</time>
</trkpt>
<trkpt lat="46.2529280" lon="10.5498470">
	<ele>1694.20</ele>
	<time>2024-03-09T08:19:34.000Z</time>
</trkpt>
<trkpt lat="46.2529280" lon="10.5498650">
	<ele>1694.20</ele>
	<time>2024-03-09T08:19:35.000Z</time>
</trkpt>
<trkpt lat="46.2529270" lon="10.5498810">
	<ele>1694.40</ele>
	<time>2024-03-09T08:19:36.000Z</time>
</trkpt>
<trkpt lat="46.2529260" lon="10.5498930">
	<ele>1694.40</ele>
	<time>2024-03-09T08:19:37.000Z</time>
</trkpt>
<trkpt lat="46.2529250" lon="10.5499060">
	<ele>1694.60</ele>
	<time>2024-03-09T08:19:38.000Z</time>
</trkpt>
<trkpt lat="46.2529250" lon="10.5499200">
	<ele>1694.80</ele>
	<time>2024-03-09T08:19:39.000Z</time>
</trkpt>
<trkpt lat="46.2529240" lon="10.5499330">
	<ele>1694.80</ele>
	<time>2024-03-09T08:19:40.000Z</time>
</trkpt>
<trkpt lat="46.2529220" lon="10.5499460">
	<ele>1695.00</ele>
	<time>2024-03-09T08:19:41.000Z</time>
</trkpt>
<trkpt lat="46.2529220" lon="10.5499550">
	<ele>1695.00</ele>
	<time>2024-03-09T08:19:42.000Z</time>
</trkpt>
<trkpt lat="46.2529220" lon="10.5499660">
	<ele>1695.20</ele>
	<time>2024-03-09T08:19:43.000Z</time>
</trkpt>
<trkpt lat="46.2529240" lon="10.5499810">
	<ele>1695.20</ele>
	<time>2024-03-09T08:19:44.000Z</time>
</trkpt>
<trkpt lat="46.2529240" lon="10.5499970">
	<ele>1695.20</ele>
	<time>2024-03-09T08:19:45.000Z</time>
</trkpt>
<trkpt lat="46.2529250" lon="10.5500070">
	<ele>1695.20</ele>
	<time>2024-03-09T08:19:46.000Z</time>
</trkpt>
<trkpt lat="46.2529250" lon="10.5500130">
	<ele>1695.40</ele>
	<time>2024-03-09T08:19:47.000Z</time>
</trkpt>
<trkpt lat="46.2529260" lon="10.5500190">
	<ele>1695.40</ele>
	<time>2024-03-09T08:19:48.000Z</time>
</trkpt>
<trkpt lat="46.2529270" lon="10.5500280">
	<ele>1695.40</ele>
	<time>2024-03-09T08:19:49.000Z</time>
</trkpt>
<trkpt lat="46.2529300" lon="10.5500380">
	<ele>1695.40</ele>
	<time>2024-03-09T08:19:50.000Z</time>
</trkpt>
<trkpt lat="46.2529290" lon="10.5500470">
	<ele>1695.60</ele>
	<time>2024-03-09T08:19:51.000Z</time>
</trkpt>
<trkpt lat="46.2529320" lon="10.5500590">
	<ele>1695.60</ele>
	<time>2024-03-09T08:19:52.000Z</time>
</trkpt>
<trkpt lat="46.2529340" lon="10.5500700">
	<ele>1695.60</ele>
	<time>2024-03-09T08:19:53.000Z</time>
</trkpt>
<trkpt lat="46.2529350" lon="10.5500800">
	<ele>1695.60</ele>
	<time>2024-03-09T08:19:54.000Z</time>
</trkpt>
<trkpt lat="46.2529340" lon="10.5500920">
	<ele>1695.80</ele>
	<time>2024-03-09T08:19:55.000Z</time>
</trkpt>
<trkpt lat="46.2529310" lon="10.5501050">
	<ele>1695.80</ele>
	<time>2024-03-09T08:19:56.000Z</time>
</trkpt>
<trkpt lat="46.2529290" lon="10.5501180">
	<ele>1695.80</ele>
	<time>2024-03-09T08:19:57.000Z</time>
</trkpt>
<trkpt lat="46.2529270" lon="10.5501310">
	<ele>1696.00</ele>
	<time>2024-03-09T08:19:58.000Z</time>
</trkpt>
<trkpt lat="46.2529270" lon="10.5501440">
	<ele>1696.00</ele>
	<time>2024-03-09T08:19:59.000Z</time>
</trkpt>
<trkpt lat="46.2529240" lon="10.5501590">
	<ele>1696.00</ele>
	<time>2024-03-09T08:20:00.000Z</time>
</trkpt>
<trkpt lat="46.2529240" lon="10.5501710">
	<ele>1696.20</ele>
	<time>2024-03-09T08:20:01.000Z</time>
</trkpt>
<trkpt lat="46.2529240" lon="10.5501830">
	<ele>1696.20</ele>
	<time>2024-03-09T08:20:02.000Z</time>
</trkpt>
<trkpt lat="46.2529230" lon="10.5501950">
	<ele>1696.20</ele>
	<time>2024-03-09T08:20:03.000Z</time>
</trkpt>
<trkpt lat="46.2529210" lon="10.5502070">
	<ele>1696.20</ele>
	<time>2024-03-09T08:20:04.000Z</time>
</trkpt>
<trkpt lat="46.2529200" lon="10.5502190">
	<ele>1696.20</ele>
	<time>2024-03-09T08:20:05.000Z</time>
</trkpt>
<trkpt lat="46.2529210" lon="10.5502320">
	<ele>1696.40</ele>
	<time>2024-03-09T08:20:06.000Z</time>
</trkpt>
<trkpt lat="46.2529220" lon="10.5502430">
	<ele>1696.40</ele>
	<time>2024-03-09T08:20:07.000Z</time>
</trkpt>
<trkpt lat="46.2529210" lon="10.5502570">
	<ele>1696.60</ele>
	<time>2024-03-09T08:20:08.000Z</time>
</trkpt>
<trkpt lat="46.2529210" lon="10.5502710">
	<ele>1696.60</ele>
	<time>2024-03-09T08:20:09.000Z</time>
</trkpt>
<trkpt lat="46.2529190" lon="10.5502810">
	<ele>1696.60</ele>
	<time>2024-03-09T08:20:10.000Z</time>
</trkpt>
<trkpt lat="46.2529160" lon="10.5502940">
	<ele>1696.80</ele>
	<time>2024-03-09T08:20:11.000Z</time>
</trkpt>
<trkpt lat="46.2529120" lon="10.5503100">
	<ele>1696.80</ele>
	<time>2024-03-09T08:20:12.000Z</time>
</trkpt>
<trkpt lat="46.2529090" lon="10.5503250">
	<ele>1696.80</ele>
	<time>2024-03-09T08:20:13.000Z</time>
</trkpt>
<trkpt lat="46.2529100" lon="10.5503340">
	<ele>1697.00</ele>
	<time>2024-03-09T08:20:14.000Z</time>
</trkpt>
<trkpt lat="46.2529120" lon="10.5503470">
	<ele>1697.00</ele>
	<time>2024-03-09T08:20:15.000Z</time>
</trkpt>
<trkpt lat="46.2529140" lon="10.5503610">
	<ele>1697.20</ele>
	<time>2024-03-09T08:20:16.000Z</time>
</trkpt>
<trkpt lat="46.2529160" lon="10.5503740">
	<ele>1697.20</ele>
	<time>2024-03-09T08:20:17.000Z</time>
</trkpt>
<trkpt lat="46.2529170" lon="10.5503860">
	<ele>1697.20</ele>
	<time>2024-03-09T08:20:18.000Z</time>
</trkpt>
<trkpt lat="46.2529170" lon="10.5503990">
	<ele>1697.40</ele>
	<time>2024-03-09T08:20:19.000Z</time>
</trkpt>
<trkpt lat="46.2529170" lon="10.5504110">
	<ele>1697.40</ele>
	<time>2024-03-09T08:20:20.000Z</time>
</trkpt>
<trkpt lat="46.2529140" lon="10.5504250">
	<ele>1697.40</ele>
	<time>2024-03-09T08:20:21.000Z</time>
</trkpt>
<trkpt lat="46.2529100" lon="10.5504400">
	<ele>1697.60</ele>
	<time>2024-03-09T08:20:22.000Z</time>
</trkpt>
<trkpt lat="46.2529110" lon="10.5504520">
	<ele>1697.60</ele>
	<time>2024-03-09T08:20:23.000Z</time>
</trkpt>
<trkpt lat="46.2529110" lon="10.5504630">
	<ele>1697.60</ele>
	<time>2024-03-09T08:20:24.000Z</time>
</trkpt>
<trkpt lat="46.2529120" lon="10.5504760">
	<ele>1697.60</ele>
	<time>2024-03-09T08:20:25.000Z</time>
</trkpt>
<trkpt lat="46.2529110" lon="10.5504890">
	<ele>1697.80</ele>
	<time>2024-03-09T08:20:26.000Z</time>
</trkpt>
<trkpt lat="46.2529090" lon="10.5505020">
	<ele>1697.80</ele>
	<time>2024-03-09T08:20:27.000Z</time>
</trkpt>
<trkpt lat="46.2529070" lon="10.5505160">
	<ele>1697.80</ele>
	<time>2024-03-09T08:20:28.000Z</time>
</trkpt>
<trkpt lat="46.2529060" lon="10.5505280">
	<ele>1697.80</ele>
	<time>2024-03-09T08:20:29.000Z</time>
</trkpt>
<trkpt lat="46.2529080" lon="10.5505390">
	<ele>1698.00</ele>
	<time>2024-03-09T08:20:30.000Z</time>
</trkpt>
<trkpt lat="46.2529080" lon="10.5505520">
	<ele>1698.00</ele>
	<time>2024-03-09T08:20:31.000Z</time>
</trkpt>
<trkpt lat="46.2529080" lon="10.5505650">
	<ele>1698.00</ele>
	<time>2024-03-09T08:20:32.000Z</time>
</trkpt>
<trkpt lat="46.2529080" lon="10.5505780">
	<ele>1698.00</ele>
	<time>2024-03-09T08:20:33.000Z</time>
</trkpt>
<trkpt lat="46.2529070" lon="10.5505910">
	<ele>1698.20</ele>
	<time>2024-03-09T08:20:34.000Z</time>
</trkpt>
<trkpt lat="46.2529070" lon="10.5506050">
	<ele>1698.20</ele>
	<time>2024-03-09T08:20:35.000Z</time>
</trkpt>
<trkpt lat="46.2529070" lon="10.5506190">
	<ele>1698.00</ele>
	<time>2024-03-09T08:20:36.000Z</time>
</trkpt>
<trkpt lat="46.2529090" lon="10.5506320">
	<ele>1698.00</ele>
	<time>2024-03-09T08:20:37.000Z</time>
</trkpt>
<trkpt lat="46.2529080" lon="10.5506450">
	<ele>1698.20</ele>
	<time>2024-03-09T08:20:38.000Z</time>
</trkpt>
<trkpt lat="46.2529080" lon="10.5506600">
	<ele>1698.20</ele>
	<time>2024-03-09T08:20:39.000Z</time>
</trkpt>
<trkpt lat="46.2529080" lon="10.5506740">
	<ele>1698.40</ele>
	<time>2024-03-09T08:20:40.000Z</time>
</trkpt>
<trkpt lat="46.2529080" lon="10.5506850">
	<ele>1698.40</ele>
	<time>2024-03-09T08:20:41.000Z</time>
</trkpt>
<trkpt lat="46.2529070" lon="10.5506990">
	<ele>1698.60</ele>
	<time>2024-03-09T08:20:42.000Z</time>
</trkpt>
<trkpt lat="46.2529070" lon="10.5507120">
	<ele>1698.80</ele>
	<time>2024-03-09T08:20:43.000Z</time>
</trkpt>
<trkpt lat="46.2529060" lon="10.5507250">
	<ele>1698.80</ele>
	<time>2024-03-09T08:20:44.000Z</time>
</trkpt>
<trkpt lat="46.2529060" lon="10.5507370">
	<ele>1699.00</ele>
	<time>2024-03-09T08:20:45.000Z</time>
</trkpt>
<trkpt lat="46.2529050" lon="10.5507510">
	<ele>1699.00</ele>
	<time>2024-03-09T08:20:46.000Z</time>
</trkpt>
<trkpt lat="46.2529020" lon="10.5507630">
	<ele>1699.00</ele>
	<time>2024-03-09T08:20:47.000Z</time>
</trkpt>
<trkpt lat="46.2528980" lon="10.5507760">
	<ele>1699.00</ele>
	<time>2024-03-09T08:20:48.000Z</time>
</trkpt>
<trkpt lat="46.2528950" lon="10.5507890">
	<ele>1699.20</ele>
	<time>2024-03-09T08:20:49.000Z</time>
</trkpt>
<trkpt lat="46.2528910" lon="10.5508030">
	<ele>1699.20</ele>
	<time>2024-03-09T08:20:50.000Z</time>
</trkpt>
<trkpt lat="46.2528910" lon="10.5508170">
	<ele>1699.20</ele>
	<time>2024-03-09T08:20:51.000Z</time>
</trkpt>
<trkpt lat="46.2528930" lon="10.5508300">
	<ele>1699.40</ele>
	<time>2024-03-09T08:20:52.000Z</time>
</trkpt>
<trkpt lat="46.2528950" lon="10.5508390">
	<ele>1699.40</ele>
	<time>2024-03-09T08:20:53.000Z</time>
</trkpt>
<trkpt lat="46.2528950" lon="10.5508520">
	<ele>1699.40</ele>
	<time>2024-03-09T08:20:54.000Z</time>
</trkpt>
<trkpt lat="46.2528930" lon="10.5508650">
	<ele>1699.40</ele>
	<time>2024-03-09T08:20:55.000Z</time>
</trkpt>
<trkpt lat="46.2528930" lon="10.5508780">
	<ele>1699.60</ele>
	<time>2024-03-09T08:20:56.000Z</time>
</trkpt>
<trkpt lat="46.2528910" lon="10.5508930">
	<ele>1699.60</ele>
	<time>2024-03-09T08:20:57.000Z</time>
</trkpt>
<trkpt lat="46.2528940" lon="10.5509070">
	<ele>1699.60</ele>
	<time>2024-03-09T08:20:58.000Z</time>
</trkpt>
<trkpt lat="46.2528940" lon="10.5509210">
	<ele>1699.80</ele>
	<time>2024-03-09T08:20:59.000Z</time>
</trkpt>
<trkpt lat="46.2528950" lon="10.5509320">
	<ele>1700.00</ele>
	<time>2024-03-09T08:21:00.000Z</time>
</trkpt>
<trkpt lat="46.2528950" lon="10.5509460">
	<ele>1700.20</ele>
	<time>2024-03-09T08:21:01.000Z</time>
</trkpt>
<trkpt lat="46.2528950" lon="10.5509630">
	<ele>1700.20</ele>
	<time>2024-03-09T08:21:02.000Z</time>
</trkpt>
<trkpt lat="46.2528960" lon="10.5509800">
	<ele>1700.20</ele>
	<time>2024-03-09T08:21:03.000Z</time>
</trkpt>
<trkpt lat="46.2528960" lon="10.5509940">
	<ele>1700.20</ele>
	<time>2024-03-09T08:21:04.000Z</time>
</trkpt>
<trkpt lat="46.2528980" lon="10.5510070">
	<ele>1700.20</ele>
	<time>2024-03-09T08:21:05.000Z</time>
</trkpt>
<trkpt lat="46.2528970" lon="10.5510170">
	<ele>1700.20</ele>
	<time>2024-03-09T08:21:06.000Z</time>
</trkpt>
<trkpt lat="46.2528950" lon="10.5510290">
	<ele>1700.40</ele>
	<time>2024-03-09T08:21:07.000Z</time>
</trkpt>
<trkpt lat="46.2528920" lon="10.5510450">
	<ele>1700.60</ele>
	<time>2024-03-09T08:21:08.000Z</time>
</trkpt>
<trkpt lat="46.2528910" lon="10.5510600">
	<ele>1700.60</ele>
	<time>2024-03-09T08:21:09.000Z</time>
</trkpt>
<trkpt lat="46.2528910" lon="10.5510740">
	<ele>1700.60</ele>
	<time>2024-03-09T08:21:10.000Z</time>
</trkpt>
<trkpt lat="46.2528920" lon="10.5510850">
	<ele>1700.80</ele>
	<time>2024-03-09T08:21:11.000Z</time>
</trkpt>
<trkpt lat="46.2528930" lon="10.5511000">
	<ele>1700.80</ele>
	<time>2024-03-09T08:21:12.000Z</time>
</trkpt>
<trkpt lat="46.2528950" lon="10.5511160">
	<ele>1700.80</ele>
	<time>2024-03-09T08:21:13.000Z</time>
</trkpt>
<trkpt lat="46.2528960" lon="10.5511300">
	<ele>1700.60</ele>
	<time>2024-03-09T08:21:14.000Z</time>
</trkpt>
<trkpt lat="46.2528990" lon="10.5511410">
	<ele>1700.60</ele>
	<time>2024-03-09T08:21:15.000Z</time>
</trkpt>
<trkpt lat="46.2529010" lon="10.5511530">
	<ele>1700.60</ele>
	<time>2024-03-09T08:21:16.000Z</time>
</trkpt>
<trkpt lat="46.2529030" lon="10.5511660">
	<ele>1700.60</ele>
	<time>2024-03-09T08:21:17.000Z</time>
</trkpt>
<trkpt lat="46.2529030" lon="10.5511830">
	<ele>1700.60</ele>
	<time>2024-03-09T08:21:18.000Z</time>
</trkpt>
<trkpt lat="46.2529030" lon="10.5511940">
	<ele>1700.60</ele>
	<time>2024-03-09T08:21:19.000Z</time>
</trkpt>
<trkpt lat="46.2529050" lon="10.5512060">
	<ele>1700.60</ele>
	<time>2024-03-09T08:21:20.000Z</time>
</trkpt>
<trkpt lat="46.2529070" lon="10.5512160">
	<ele>1700.80</ele>
	<time>2024-03-09T08:21:21.000Z</time>
</trkpt>
<trkpt lat="46.2529110" lon="10.5512280">
	<ele>1701.00</ele>
	<time>2024-03-09T08:21:22.000Z</time>
</trkpt>
<trkpt lat="46.2529130" lon="10.5512400">
	<ele>1701.20</ele>
	<time>2024-03-09T08:21:23.000Z</time>
</trkpt>
<trkpt lat="46.2529140" lon="10.5512540">
	<ele>1701.40</ele>
	<time>2024-03-09T08:21:24.000Z</time>
</trkpt>
<trkpt lat="46.2529150" lon="10.5512690">
	<ele>1701.40</ele>
	<time>2024-03-09T08:21:25.000Z</time>
</trkpt>
<trkpt lat="46.2529160" lon="10.5512830">
	<ele>1701.40</ele>
	<time>2024-03-09T08:21:26.000Z</time>
</trkpt>
<trkpt lat="46.2529180" lon="10.5512940">
	<ele>1701.40</ele>
	<time>2024-03-09T08:21:27.000Z</time>
</trkpt>
<trkpt lat="46.2529190" lon="10.5513080">
	<ele>1701.40</ele>
	<time>2024-03-09T08:21:28.000Z</time>
</trkpt>
<trkpt lat="46.2529210" lon="10.5513230">
	<ele>1701.60</ele>
	<time>2024-03-09T08:21:29.000Z</time>
</trkpt>
<trkpt lat="46.2529240" lon="10.5513390">
	<ele>1701.40</ele>
	<time>2024-03-09T08:21:30.000Z</time>
</trkpt>
<trkpt lat="46.2529260" lon="10.5513530">
	<ele>1701.60</ele>
	<time>2024-03-09T08:21:31.000Z</time>
</trkpt>
<trkpt lat="46.2529280" lon="10.5513660">
	<ele>1701.60</ele>
	<time>2024-03-09T08:21:32.000Z</time>
</trkpt>
<trkpt lat="46.2529290" lon="10.5513770">
	<ele>1701.80</ele>
	<time>2024-03-09T08:21:33.000Z</time>
</trkpt>
<trkpt lat="46.2529290" lon="10.5513920">
	<ele>1701.80</ele>
	<time>2024-03-09T08:21:34.000Z</time>
</trkpt>
<trkpt lat="46.2529310" lon="10.5514070">
	<ele>1702.00</ele>
	<time>2024-03-09T08:21:35.000Z</time>
</trkpt>
<trkpt lat="46.2529330" lon="10.5514230">
	<ele>1702.00</ele>
	<time>2024-03-09T08:21:36.000Z</time>
</trkpt>
<trkpt lat="46.2529350" lon="10.5514380">
	<ele>1702.00</ele>
	<time>2024-03-09T08:21:37.000Z</time>
</trkpt>
<trkpt lat="46.2529380" lon="10.5514500">
	<ele>1702.00</ele>
	<time>2024-03-09T08:21:38.000Z</time>
</trkpt>
<trkpt lat="46.2529410" lon="10.5514610">
	<ele>1702.20</ele>
	<time>2024-03-09T08:21:39.000Z</time>
</trkpt>
<trkpt lat="46.2529430" lon="10.5514740">
	<ele>1702.40</ele>
	<time>2024-03-09T08:21:40.000Z</time>
</trkpt>
<trkpt lat="46.2529450" lon="10.5514860">
	<ele>1702.60</ele>
	<time>2024-03-09T08:21:41.000Z</time>
</trkpt>
<trkpt lat="46.2529480" lon="10.5515010">
	<ele>1702.60</ele>
	<time>2024-03-09T08:21:42.000Z</time>
</trkpt>
<trkpt lat="46.2529500" lon="10.5515140">
	<ele>1702.80</ele>
	<time>2024-03-09T08:21:43.000Z</time>
</trkpt>
<trkpt lat="46.2529520" lon="10.5515260">
	<ele>1702.80</ele>
	<time>2024-03-09T08:21:44.000Z</time>
</trkpt>
<trkpt lat="46.2529550" lon="10.5515380">
	<ele>1702.80</ele>
	<time>2024-03-09T08:21:45.000Z</time>
</trkpt>
<trkpt lat="46.2529580" lon="10.5515510">
	<ele>1702.80</ele>
	<time>2024-03-09T08:21:46.000Z</time>
</trkpt>
<trkpt lat="46.2529620" lon="10.5515660">
	<ele>1702.80</ele>
	<time>2024-03-09T08:21:47.000Z</time>
</trkpt>
<trkpt lat="46.2529640" lon="10.5515790">
	<ele>1702.80</ele>
	<time>2024-03-09T08:21:48.000Z</time>
</trkpt>
<trkpt lat="46.2529670" lon="10.5515910">
	<ele>1702.80</ele>
	<time>2024-03-09T08:21:49.000Z</time>
</trkpt>
<trkpt lat="46.2529690" lon="10.5516020">
	<ele>1703.00</ele>
	<time>2024-03-09T08:21:50.000Z</time>
</trkpt>
<trkpt lat="46.2529720" lon="10.5516150">
	<ele>1703.00</ele>
	<time>2024-03-09T08:21:51.000Z</time>
</trkpt>
<trkpt lat="46.2529750" lon="10.5516300">
	<ele>1703.00</ele>
	<time>2024-03-09T08:21:52.000Z</time>
</trkpt>
<trkpt lat="46.2529780" lon="10.5516420">
	<ele>1703.00</ele>
	<time>2024-03-09T08:21:53.000Z</time>
</trkpt>
<trkpt lat="46.2529810" lon="10.5516530">
	<ele>1703.00</ele>
	<time>2024-03-09T08:21:54.000Z</time>
</trkpt>
<trkpt lat="46.2529850" lon="10.5516620">
	<ele>1703.20</ele>
	<time>2024-03-09T08:21:55.000Z</time>
</trkpt>
<trkpt lat="46.2529850" lon="10.5516730">
	<ele>1703.20</ele>
	<time>2024-03-09T08:21:56.000Z</time>
</trkpt>
<trkpt lat="46.2529870" lon="10.5516840">
	<ele>1703.20</ele>
	<time>2024-03-09T08:21:57.000Z</time>
</trkpt>
<trkpt lat="46.2529880" lon="10.5516960">
	<ele>1703.40</ele>
	<time>2024-03-09T08:21:58.000Z</time>
</trkpt>
<trkpt lat="46.2529910" lon="10.5517050">
	<ele>1703.60</ele>
	<time>2024-03-09T08:21:59.000Z</time>
</trkpt>
<trkpt lat="46.2529930" lon="10.5517190">
	<ele>1703.80</ele>
	<time>2024-03-09T08:22:00.000Z</time>
</trkpt>
<trkpt lat="46.2529960" lon="10.5517320">
	<ele>1703.80</ele>
	<time>2024-03-09T08:22:01.000Z</time>
</trkpt>
<trkpt lat="46.2530010" lon="10.5517400">
	<ele>1703.80</ele>
	<time>2024-03-09T08:22:02.000Z</time>
</trkpt>
<trkpt lat="46.2530050" lon="10.5517480">
	<ele>1704.00</ele>
	<time>2024-03-09T08:22:03.000Z</time>
</trkpt>
<trkpt lat="46.2530100" lon="10.5517590">
	<ele>1704.00</ele>
	<time>2024-03-09T08:22:04.000Z</time>
</trkpt>
<trkpt lat="46.2530130" lon="10.5517710">
	<ele>1704.00</ele>
	<time>2024-03-09T08:22:05.000Z</time>
</trkpt>
<trkpt lat="46.2530160" lon="10.5517820">
	<ele>1704.00</ele>
	<time>2024-03-09T08:22:06.000Z</time>
</trkpt>
<trkpt lat="46.2530190" lon="10.5517940">
	<ele>1704.20</ele>
	<time>2024-03-09T08:22:07.000Z</time>
</trkpt>
<trkpt lat="46.2530210" lon="10.5518060">
	<ele>1704.40</ele>
	<time>2024-03-09T08:22:08.000Z</time>
</trkpt>
<trkpt lat="46.2530240" lon="10.5518190">
	<ele>1704.40</ele>
	<time>2024-03-09T08:22:09.000Z</time>
</trkpt>
<trkpt lat="46.2530300" lon="10.5518310">
	<ele>1704.20</ele>
	<time>2024-03-09T08:22:10.000Z</time>
</trkpt>
<trkpt lat="46.2530330" lon="10.5518420">
	<ele>1704.40</ele>
	<time>2024-03-09T08:22:11.000Z</time>
</trkpt>
<trkpt lat="46.2530370" lon="10.5518490">
	<ele>1704.40</ele>
	<time>2024-03-09T08:22:12.000Z</time>
</trkpt>
<trkpt lat="46.2530420" lon="10.5518580">
	<ele>1704.40</ele>
	<time>2024-03-09T08:22:13.000Z</time>
</trkpt>
<trkpt lat="46.2530460" lon="10.5518730">
	<ele>1704.60</ele>
	<time>2024-03-09T08:22:14.000Z</time>
</trkpt>
<trkpt lat="46.2530490" lon="10.5518880">
	<ele>1704.80</ele>
	<time>2024-03-09T08:22:15.000Z</time>
</trkpt>
<trkpt lat="46.2530520" lon="10.5519000">
	<ele>1704.80</ele>
	<time>2024-03-09T08:22:16.000Z</time>
</trkpt>
<trkpt lat="46.2530550" lon="10.5519110">
	<ele>1705.00</ele>
	<time>2024-03-09T08:22:17.000Z</time>
</trkpt>
<trkpt lat="46.2530580" lon="10.5519240">
	<ele>1704.80</ele>
	<time>2024-03-09T08:22:18.000Z</time>
</trkpt>
<trkpt lat="46.2530620" lon="10.5519360">
	<ele>1704.80</ele>
	<time>2024-03-09T08:22:19.000Z</time>
</trkpt>
<trkpt lat="46.2530650" lon="10.5519470">
	<ele>1704.80</ele>
	<time>2024-03-09T08:22:20.000Z</time>
</trkpt>
<trkpt lat="46.2530680" lon="10.5519580">
	<ele>1705.00</ele>
	<time>2024-03-09T08:22:21.000Z</time>
</trkpt>
<trkpt lat="46.2530700" lon="10.5519720">
	<ele>1705.20</ele>
	<time>2024-03-09T08:22:22.000Z</time>
</trkpt>
<trkpt lat="46.2530720" lon="10.5519840">
	<ele>1705.20</ele>
	<time>2024-03-09T08:22:23.000Z</time>
</trkpt>
<trkpt lat="46.2530740" lon="10.5519960">
	<ele>1705.20</ele>
	<time>2024-03-09T08:22:24.000Z</time>
</trkpt>
<trkpt lat="46.2530740" lon="10.5520080">
	<ele>1705.40</ele>
	<time>2024-03-09T08:22:25.000Z</time>
</trkpt>
<trkpt lat="46.2530750" lon="10.5520170">
	<ele>1705.40</ele>
	<time>2024-03-09T08:22:26.000Z</time>
</trkpt>
<trkpt lat="46.2530790" lon="10.5520290">
	<ele>1705.60</ele>
	<time>2024-03-09T08:22:27.000Z</time>
</trkpt>
<trkpt lat="46.2530810" lon="10.5520430">
	<ele>1705.40</ele>
	<time>2024-03-09T08:22:28.000Z</time>
</trkpt>
<trkpt lat="46.2530840" lon="10.5520570">
	<ele>1705.60</ele>
	<time>2024-03-09T08:22:29.000Z</time>
</trkpt>
<trkpt lat="46.2530870" lon="10.5520690">
	<ele>1705.60</ele>
	<time>2024-03-09T08:22:30.000Z</time>
</trkpt>
<trkpt lat="46.2530910" lon="10.5520800">
	<ele>1705.80</ele>
	<time>2024-03-09T08:22:31.000Z</time>
</trkpt>
<trkpt lat="46.2530940" lon="10.5520940">
	<ele>1705.80</ele>
	<time>2024-03-09T08:22:32.000Z</time>
</trkpt>
<trkpt lat="46.2530960" lon="10.5521090">
	<ele>1705.80</ele>
	<time>2024-03-09T08:22:33.000Z</time>
</trkpt>
<trkpt lat="46.2530980" lon="10.5521210">
	<ele>1706.00</ele>
	<time>2024-03-09T08:22:34.000Z</time>
</trkpt>
<trkpt lat="46.2531000" lon="10.5521330">
	<ele>1706.00</ele>
	<time>2024-03-09T08:22:35.000Z</time>
</trkpt>
<trkpt lat="46.2531020" lon="10.5521490">
	<ele>1706.00</ele>
	<time>2024-03-09T08:22:36.000Z</time>
</trkpt>
<trkpt lat="46.2531040" lon="10.5521620">
	<ele>1706.20</ele>
	<time>2024-03-09T08:22:37.000Z</time>
</trkpt>
<trkpt lat="46.2531060" lon="10.5521770">
	<ele>1706.20</ele>
	<time>2024-03-09T08:22:38.000Z</time>
</trkpt>
<trkpt lat="46.2531090" lon="10.5521860">
	<ele>1706.20</ele>
	<time>2024-03-09T08:22:39.000Z</time>
</trkpt>
<trkpt lat="46.2531130" lon="10.5521940">
	<ele>1706.40</ele>
	<time>2024-03-09T08:22:40.000Z</time>
</trkpt>
<trkpt lat="46.2531150" lon="10.5522070">
	<ele>1706.40</ele>
	<time>2024-03-09T08:22:41.000Z</time>
</trkpt>
<trkpt lat="46.2531180" lon="10.5522230">
	<ele>1706.60</ele>
	<time>2024-03-09T08:22:42.000Z</time>
</trkpt>
<trkpt lat="46.2531220" lon="10.5522340">
	<ele>1706.60</ele>
	<time>2024-03-09T08:22:43.000Z</time>
</trkpt>
<trkpt lat="46.2531260" lon="10.5522470">
	<ele>1706.80</ele>
	<time>2024-03-09T08:22:44.000Z</time>
</trkpt>
<trkpt lat="46.2531290" lon="10.5522600">
	<ele>1706.80</ele>
	<time>2024-03-09T08:22:45.000Z</time>
</trkpt>
<trkpt lat="46.2531320" lon="10.5522730">
	<ele>1706.80</ele>
	<time>2024-03-09T08:22:46.000Z</time>
</trkpt>
<trkpt lat="46.2531350" lon="10.5522870">
	<ele>1706.80</ele>
	<time>2024-03-09T08:22:47.000Z</time>
</trkpt>
<trkpt lat="46.2531380" lon="10.5522980">
	<ele>1706.80</ele>
	<time>2024-03-09T08:22:48.000Z</time>
</trkpt>
<trkpt lat="46.2531410" lon="10.5523110">
	<ele>1707.00</ele>
	<time>2024-03-09T08:22:49.000Z</time>
</trkpt>
<trkpt lat="46.2531440" lon="10.5523250">
	<ele>1707.00</ele>
	<time>2024-03-09T08:22:50.000Z</time>
</trkpt>
<trkpt lat="46.2531480" lon="10.5523380">
	<ele>1707.00</ele>
	<time>2024-03-09T08:22:51.000Z</time>
</trkpt>
<trkpt lat="46.2531500" lon="10.5523470">
	<ele>1707.20</ele>
	<time>2024-03-09T08:22:52.000Z</time>
</trkpt>
<trkpt lat="46.2531530" lon="10.5523560">
	<ele>1707.20</ele>
	<time>2024-03-09T08:22:53.000Z</time>
</trkpt>
<trkpt lat="46.2531560" lon="10.5523640">
	<ele>1707.40</ele>
	<time>2024-03-09T08:22:54.000Z</time>
</trkpt>
<trkpt lat="46.2531600" lon="10.5523780">
	<ele>1707.40</ele>
	<time>2024-03-09T08:22:55.000Z</time>
</trkpt>
<trkpt lat="46.2531620" lon="10.5523930">
	<ele>1707.60</ele>
	<time>2024-03-09T08:22:56.000Z</time>
</trkpt>
<trkpt lat="46.2531660" lon="10.5524050">
	<ele>1707.80</ele>
	<time>2024-03-09T08:22:57.000Z</time>
</trkpt>
<trkpt lat="46.2531700" lon="10.5524180">
	<ele>1707.80</ele>
	<time>2024-03-09T08:22:58.000Z</time>
</trkpt>
<trkpt lat="46.2531730" lon="10.5524320">
	<ele>1707.80</ele>
	<time>2024-03-09T08:22:59.000Z</time>
</trkpt>
<trkpt lat="46.2531750" lon="10.5524430">
	<ele>1707.80</ele>
	<time>2024-03-09T08:23:00.000Z</time>
</trkpt>
<trkpt lat="46.2531790" lon="10.5524540">
	<ele>1708.20</ele>
	<time>2024-03-09T08:23:01.000Z</time>
</trkpt>
<trkpt lat="46.2531810" lon="10.5524670">
	<ele>1708.40</ele>
	<time>2024-03-09T08:23:02.000Z</time>
</trkpt>
<trkpt lat="46.2531840" lon="10.5524830">
	<ele>1708.40</ele>
	<time>2024-03-09T08:23:03.000Z</time>
</trkpt>
<trkpt lat="46.2531860" lon="10.5524980">
	<ele>1708.40</ele>
	<time>2024-03-09T08:23:04.000Z</time>
</trkpt>
<trkpt lat="46.2531870" lon="10.5525080">
	<ele>1708.60</ele>
	<time>2024-03-09T08:23:05.000Z</time>
</trkpt>
<trkpt lat="46.2531900" lon="10.5525190">
	<ele>1708.80</ele>
	<time>2024-03-09T08:23:06.000Z</time>
</trkpt>
<trkpt lat="46.2531950" lon="10.5525300">
	<ele>1708.80</ele>
	<time>2024-03-09T08:23:07.000Z</time>
</trkpt>
<trkpt lat="46.2532010" lon="10.5525420">
	<ele>1708.60</ele>
	<time>2024-03-09T08:23:08.000Z</time>
</trkpt>
<trkpt lat="46.2532070" lon="10.5525490">
	<ele>1708.80</ele>
	<time>2024-03-09T08:23:09.000Z</time>
</trkpt>
<trkpt lat="46.2532100" lon="10.5525620">
	<ele>1708.80</ele>
	<time>2024-03-09T08:23:10.000Z</time>
</trkpt>
<trkpt lat="46.2532160" lon="10.5525740">
	<ele>1708.80</ele>
	<time>2024-03-09T08:23:11.000Z</time>
</trkpt>
<trkpt lat="46.2532200" lon="10.5525890">
	<ele>1708.80</ele>
	<time>2024-03-09T08:23:12.000Z</time>
</trkpt>
<trkpt lat="46.2532210" lon="10.5526020">
	<ele>1708.80</ele>
	<time>2024-03-09T08:23:13.000Z</time>
</trkpt>
<trkpt lat="46.2532220" lon="10.5526110">
	<ele>1709.00</ele>
	<time>2024-03-09T08:23:14.000Z</time>
</trkpt>
<trkpt lat="46.2532250" lon="10.5526200">
	<ele>1709.00</ele>
	<time>2024-03-09T08:23:15.000Z</time>
</trkpt>
<trkpt lat="46.2532280" lon="10.5526310">
	<ele>1709.00</ele>
	<time>2024-03-09T08:23:16.000Z</time>
</trkpt>
<trkpt lat="46.2532310" lon="10.5526430">
	<ele>1709.00</ele>
	<time>2024-03-09T08:23:17.000Z</time>
</trkpt>
<trkpt lat="46.2532330" lon="10.5526580">
	<ele>1709.00</ele>
	<time>2024-03-09T08:23:18.000Z</time>
</trkpt>
<trkpt lat="46.2532370" lon="10.5526700">
	<ele>1709.40</ele>
	<time>2024-03-09T08:23:19.000Z</time>
</trkpt>
<trkpt lat="46.2532410" lon="10.5526810">
	<ele>1709.60</ele>
	<time>2024-03-09T08:23:20.000Z</time>
</trkpt>
<trkpt lat="46.2532440" lon="10.5526940">
	<ele>1709.60</ele>
	<time>2024-03-09T08:23:21.000Z</time>
</trkpt>
<trkpt lat="46.2532470" lon="10.5527090">
	<ele>1709.60</ele>
	<time>2024-03-09T08:23:22.000Z</time>
</trkpt>
<trkpt lat="46.2532500" lon="10.5527220">
	<ele>1709.80</ele>
	<time>2024-03-09T08:23:23.000Z</time>
</trkpt>
<trkpt lat="46.2532540" lon="10.5527340">
	<ele>1709.80</ele>
	<time>2024-03-09T08:23:24.000Z</time>
</trkpt>
<trkpt lat="46.2532580" lon="10.5527420">
	<ele>1710.00</ele>
	<time>2024-03-09T08:23:25.000Z</time>
</trkpt>
<trkpt lat="46.2532620" lon="10.5527530">
	<ele>1709.80</ele>
	<time>2024-03-09T08:23:26.000Z</time>
</trkpt>
<trkpt lat="46.2532660" lon="10.5527660">
	<ele>1709.80</ele>
	<time>2024-03-09T08:23:27.000Z</time>
</trkpt>
<trkpt lat="46.2532700" lon="10.5527790">
	<ele>1710.00</ele>
	<time>2024-03-09T08:23:28.000Z</time>
</trkpt>
<trkpt lat="46.2532740" lon="10.5527890">
	<ele>1710.20</ele>
	<time>2024-03-09T08:23:29.000Z</time>
</trkpt>
<trkpt lat="46.2532790" lon="10.5528010">
	<ele>1710.40</ele>
	<time>2024-03-09T08:23:30.000Z</time>
</trkpt>
<trkpt lat="46.2532830" lon="10.5528110">
	<ele>1710.40</ele>
	<time>2024-03-09T08:23:31.000Z</time>
</trkpt>
<trkpt lat="46.2532850" lon="10.5528250">
	<ele>1710.40</ele>
	<time>2024-03-09T08:23:32.000Z</time>
</trkpt>
<trkpt lat="46.2532890" lon="10.5528370">
	<ele>1710.60</ele>
	<time>2024-03-09T08:23:33.000Z</time>
</trkpt>
<trkpt lat="46.2532940" lon="10.5528470">
	<ele>1710.60</ele>
	<time>2024-03-09T08:23:34.000Z</time>
</trkpt>
<trkpt lat="46.2532980" lon="10.5528580">
	<ele>1710.60</ele>
	<time>2024-03-09T08:23:35.000Z</time>
</trkpt>
<trkpt lat="46.2533020" lon="10.5528700">
	<ele>1710.60</ele>
	<time>2024-03-09T08:23:36.000Z</time>
</trkpt>
<trkpt lat="46.2533060" lon="10.5528820">
	<ele>1710.60</ele>
	<time>2024-03-09T08:23:37.000Z</time>
</trkpt>
<trkpt lat="46.2533090" lon="10.5528950">
	<ele>1710.80</ele>
	<time>2024-03-09T08:23:38.000Z</time>
</trkpt>
<trkpt lat="46.2533120" lon="10.5529060">
	<ele>1711.00</ele>
	<time>2024-03-09T08:23:39.000Z</time>
</trkpt>
<trkpt lat="46.2533140" lon="10.5529180">
	<ele>1711.00</ele>
	<time>2024-03-09T08:23:40.000Z</time>
</trkpt>
<trkpt lat="46.2533160" lon="10.5529330">
	<ele>1711.20</ele>
	<time>2024-03-09T08:23:41.000Z</time>
</trkpt>
<trkpt lat="46.2533180" lon="10.5529460">
	<ele>1711.20</ele>
	<time>2024-03-09T08:23:42.000Z</time>
</trkpt>
<trkpt lat="46.2533230" lon="10.5529570">
	<ele>1711.20</ele>
	<time>2024-03-09T08:23:43.000Z</time>
</trkpt>
<trkpt lat="46.2533280" lon="10.5529700">
	<ele>1711.40</ele>
	<time>2024-03-09T08:23:44.000Z</time>
</trkpt>
<trkpt lat="46.2533330" lon="10.5529830">
	<ele>1711.60</ele>
	<time>2024-03-09T08:23:45.000Z</time>
</trkpt>
<trkpt lat="46.2533370" lon="10.5529950">
	<ele>1711.60</ele>
	<time>2024-03-09T08:23:46.000Z</time>
</trkpt>
<trkpt lat="46.2533410" lon="10.5530070">
	<ele>1711.80</ele>
	<time>2024-03-09T08:23:47.000Z</time>
</trkpt>
<trkpt lat="46.2533450" lon="10.5530170">
	<ele>1712.00</ele>
	<time>2024-03-09T08:23:48.000Z</time>
</trkpt>
<trkpt lat="46.2533490" lon="10.5530270">
	<ele>1712.00</ele>
	<time>2024-03-09T08:23:49.000Z</time>
</trkpt>
<trkpt lat="46.2533520" lon="10.5530400">
	<ele>1712.00</ele>
	<time>2024-03-09T08:23:50.000Z</time>
</trkpt>
<trkpt lat="46.2533560" lon="10.5530540">
	<ele>1712.00</ele>
	<time>2024-03-09T08:23:51.000Z</time>
</trkpt>
<trkpt lat="46.2533580" lon="10.5530630">
	<ele>1712.20</ele>
	<time>2024-03-09T08:23:52.000Z</time>
</trkpt>
<trkpt lat="46.2533590" lon="10.5530740">
	<ele>1712.40</ele>
	<time>2024-03-09T08:23:53.000Z</time>
</trkpt>
<trkpt lat="46.2533630" lon="10.5530860">
	<ele>1712.40</ele>
	<time>2024-03-09T08:23:54.000Z</time>
</trkpt>
<trkpt lat="46.2533670" lon="10.5530990">
	<ele>1712.40</ele>
	<time>2024-03-09T08:23:55.000Z</time>
</trkpt>
<trkpt lat="46.2533710" lon="10.5531140">
	<ele>1712.60</ele>
	<time>2024-03-09T08:23:56.000Z</time>
</trkpt>
<trkpt lat="46.2533740" lon="10.5531320">
	<ele>1712.60</ele>
	<time>2024-03-09T08:23:57.000Z</time>
</trkpt>
<trkpt lat="46.2533770" lon="10.5531490">
	<ele>1712.60</ele>
	<time>2024-03-09T08:23:58.000Z</time>
</trkpt>
<trkpt lat="46.2533820" lon="10.5531640">
	<ele>1712.60</ele>
	<time>2024-03-09T08:23:59.000Z</time>
</trkpt>
<trkpt lat="46.2533870" lon="10.5531770">
	<ele>1712.60</ele>
	<time>2024-03-09T08:24:00.000Z</time>
</trkpt>
<trkpt lat="46.2533900" lon="10.5531920">
	<ele>1712.80</ele>
	<time>2024-03-09T08:24:01.000Z</time>
</trkpt>
<trkpt lat="46.2533940" lon="10.5532020">
	<ele>1713.00</ele>
	<time>2024-03-09T08:24:02.000Z</time>
</trkpt>
<trkpt lat="46.2533980" lon="10.5532120">
	<ele>1713.00</ele>
	<time>2024-03-09T08:24:03.000Z</time>
</trkpt>
<trkpt lat="46.2534030" lon="10.5532230">
	<ele>1713.00</ele>
	<time>2024-03-09T08:24:04.000Z</time>
</trkpt>
<trkpt lat="46.2534080" lon="10.5532340">
	<ele>1713.00</ele>
	<time>2024-03-09T08:24:05.000Z</time>
</trkpt>
<trkpt lat="46.2534110" lon="10.5532420">
	<ele>1713.20</ele>
	<time>2024-03-09T08:24:06.000Z</time>
</trkpt>
<trkpt lat="46.2534110" lon="10.5532440">
	<ele>1713.20</ele>
	<time>2024-03-09T08:24:07.000Z</time>
</trkpt>
<trkpt lat="46.2534100" lon="10.5532450">
	<ele>1713.40</ele>
	<time>2024-03-09T08:24:08.000Z</time>
</trkpt>
<trkpt lat="46.2534100" lon="10.5532500">
	<ele>1713.40</ele>
	<time>2024-03-09T08:24:09.000Z</time>
</trkpt>
<trkpt lat="46.2534120" lon="10.5532600">
	<ele>1713.40</ele>
	<time>2024-03-09T08:24:10.000Z</time>
</trkpt>
<trkpt lat="46.2534180" lon="10.5532710">
	<ele>1713.40</ele>
	<time>2024-03-09T08:24:11.000Z</time>
</trkpt>
<trkpt lat="46.2534230" lon="10.5532800">
	<ele>1713.40</ele>
	<time>2024-03-09T08:24:12.000Z</time>
</trkpt>
<trkpt lat="46.2534260" lon="10.5532910">
	<ele>1713.40</ele>
	<time>2024-03-09T08:24:13.000Z</time>
</trkpt>
<trkpt lat="46.2534300" lon="10.5533040">
	<ele>1713.60</ele>
	<time>2024-03-09T08:24:14.000Z</time>
</trkpt>
<trkpt lat="46.2534350" lon="10.5533160">
	<ele>1713.60</ele>
	<time>2024-03-09T08:24:15.000Z</time>
</trkpt>
<trkpt lat="46.2534410" lon="10.5533280">
	<ele>1713.80</ele>
	<time>2024-03-09T08:24:16.000Z</time>
</trkpt>
<trkpt lat="46.2534460" lon="10.5533380">
	<ele>1713.80</ele>
	<time>2024-03-09T08:24:17.000Z</time>
</trkpt>
<trkpt lat="46.2534510" lon="10.5533460">
	<ele>1714.00</ele>
	<time>2024-03-09T08:24:18.000Z</time>
</trkpt>
<trkpt lat="46.2534570" lon="10.5533560">
	<ele>1714.00</ele>
	<time>2024-03-09T08:24:19.000Z</time>
</trkpt>
<trkpt lat="46.2534630" lon="10.5533650">
	<ele>1714.00</ele>
	<time>2024-03-09T08:24:20.000Z</time>
</trkpt>
<trkpt lat="46.2534670" lon="10.5533750">
	<ele>1714.00</ele>
	<time>2024-03-09T08:24:21.000Z</time>
</trkpt>
<trkpt lat="46.2534720" lon="10.5533860">
	<ele>1714.00</ele>
	<time>2024-03-09T08:24:22.000Z</time>
</trkpt>
<trkpt lat="46.2534760" lon="10.5533970">
	<ele>1714.00</ele>
	<time>2024-03-09T08:24:23.000Z</time>
</trkpt>
<trkpt lat="46.2534810" lon="10.5534080">
	<ele>1714.00</ele>
	<time>2024-03-09T08:24:24.000Z</time>
</trkpt>
<trkpt lat="46.2534880" lon="10.5534160">
	<ele>1714.20</ele>
	<time>2024-03-09T08:24:25.000Z</time>
</trkpt>
<trkpt lat="46.2534950" lon="10.5534250">
	<ele>1714.20</ele>
	<time>2024-03-09T08:24:26.000Z</time>
</trkpt>
<trkpt lat="46.2534990" lon="10.5534320">
	<ele>1714.40</ele>
	<time>2024-03-09T08:24:27.000Z</time>
</trkpt>
<trkpt lat="46.2535040" lon="10.5534420">
	<ele>1714.40</ele>
	<time>2024-03-09T08:24:28.000Z</time>
</trkpt>
<trkpt lat="46.2535090" lon="10.5534540">
	<ele>1714.40</ele>
	<time>2024-03-09T08:24:29.000Z</time>
</trkpt>
<trkpt lat="46.2535130" lon="10.5534660">
	<ele>1714.40</ele>
	<time>2024-03-09T08:24:30.000Z</time>
</trkpt>
<trkpt lat="46.2535180" lon="10.5534790">
	<ele>1714.40</ele>
	<time>2024-03-09T08:24:31.000Z</time>
</trkpt>
<trkpt lat="46.2535230" lon="10.5534880">
	<ele>1714.40</ele>
	<time>2024-03-09T08:24:32.000Z</time>
</trkpt>
<trkpt lat="46.2535270" lon="10.5534980">
	<ele>1714.60</ele>
	<time>2024-03-09T08:24:33.000Z</time>
</trkpt>
<trkpt lat="46.2535320" lon="10.5535090">
	<ele>1714.60</ele>
	<time>2024-03-09T08:24:34.000Z</time>
</trkpt>
<trkpt lat="46.2535400" lon="10.5535180">
	<ele>1714.60</ele>
	<time>2024-03-09T08:24:35.000Z</time>
</trkpt>
<trkpt lat="46.2535470" lon="10.5535300">
	<ele>1714.80</ele>
	<time>2024-03-09T08:24:36.000Z</time>
</trkpt>
<trkpt lat="46.2535530" lon="10.5535410">
	<ele>1714.80</ele>
	<time>2024-03-09T08:24:37.000Z</time>
</trkpt>
<trkpt lat="46.2535580" lon="10.5535500">
	<ele>1714.80</ele>
	<time>2024-03-09T08:24:38.000Z</time>
</trkpt>
<trkpt lat="46.2535630" lon="10.5535610">
	<ele>1714.80</ele>
	<time>2024-03-09T08:24:39.000Z</time>
</trkpt>
<trkpt lat="46.2535690" lon="10.5535720">
	<ele>1714.80</ele>
	<time>2024-03-09T08:24:40.000Z</time>
</trkpt>
<trkpt lat="46.2535760" lon="10.5535850">
	<ele>1714.80</ele>
	<time>2024-03-09T08:24:41.000Z</time>
</trkpt>
<trkpt lat="46.2535810" lon="10.5536000">
	<ele>1714.80</ele>
	<time>2024-03-09T08:24:42.000Z</time>
</trkpt>
<trkpt lat="46.2535860" lon="10.5536110">
	<ele>1715.00</ele>
	<time>2024-03-09T08:24:43.000Z</time>
</trkpt>
<trkpt lat="46.2535910" lon="10.5536220">
	<ele>1715.00</ele>
	<time>2024-03-09T08:24:44.000Z</time>
</trkpt>
<trkpt lat="46.2535960" lon="10.5536340">
	<ele>1715.00</ele>
	<time>2024-03-09T08:24:45.000Z</time>
</trkpt>
<trkpt lat="46.2536030" lon="10.5536450">
	<ele>1715.20</ele>
	<time>2024-03-09T08:24:46.000Z</time>
</trkpt>
<trkpt lat="46.2536080" lon="10.5536560">
	<ele>1715.20</ele>
	<time>2024-03-09T08:24:47.000Z</time>
</trkpt>
<trkpt lat="46.2536140" lon="10.5536670">
	<ele>1715.20</ele>
	<time>2024-03-09T08:24:48.000Z</time>
</trkpt>
<trkpt lat="46.2536190" lon="10.5536760">
	<ele>1715.20</ele>
	<time>2024-03-09T08:24:49.000Z</time>
</trkpt>
<trkpt lat="46.2536240" lon="10.5536890">
	<ele>1715.40</ele>
	<time>2024-03-09T08:24:50.000Z</time>
</trkpt>
<trkpt lat="46.2536300" lon="10.5536990">
	<ele>1715.40</ele>
	<time>2024-03-09T08:24:51.000Z</time>
</trkpt>
<trkpt lat="46.2536370" lon="10.5537120">
	<ele>1715.60</ele>
	<time>2024-03-09T08:24:52.000Z</time>
</trkpt>
<trkpt lat="46.2536420" lon="10.5537220">
	<ele>1715.60</ele>
	<time>2024-03-09T08:24:53.000Z</time>
</trkpt>
<trkpt lat="46.2536490" lon="10.5537300">
	<ele>1715.60</ele>
	<time>2024-03-09T08:24:54.000Z</time>
</trkpt>
<trkpt lat="46.2536540" lon="10.5537390">
	<ele>1715.80</ele>
	<time>2024-03-09T08:24:55.000Z</time>
</trkpt>
<trkpt lat="46.2536600" lon="10.5537500">
	<ele>1715.80</ele>
	<time>2024-03-09T08:24:56.000Z</time>
</trkpt>
<trkpt lat="46.2536670" lon="10.5537610">
	<ele>1716.00</ele>
	<time>2024-03-09T08:24:57.000Z</time>
</trkpt>
<trkpt lat="46.2536720" lon="10.5537700">
	<ele>1716.00</ele>
	<time>2024-03-09T08:24:58.000Z</time>
</trkpt>
<trkpt lat="46.2536770" lon="10.5537810">
	<ele>1716.20</ele>
	<time>2024-03-09T08:24:59.000Z</time>
</trkpt>
<trkpt lat="46.2536810" lon="10.5537910">
	<ele>1716.20</ele>
	<time>2024-03-09T08:25:00.000Z</time>
</trkpt>
<trkpt lat="46.2536860" lon="10.5538020">
	<ele>1716.20</ele>
	<time>2024-03-09T08:25:01.000Z</time>
</trkpt>
<trkpt lat="46.2536920" lon="10.5538130">
	<ele>1716.40</ele>
	<time>2024-03-09T08:25:02.000Z</time>
</trkpt>
<trkpt lat="46.2536960" lon="10.5538250">
	<ele>1716.40</ele>
	<time>2024-03-09T08:25:03.000Z</time>
</trkpt>
<trkpt lat="46.2537020" lon="10.5538360">
	<ele>1716.60</ele>
	<time>2024-03-09T08:25:04.000Z</time>
</trkpt>
<trkpt lat="46.2537060" lon="10.5538450">
	<ele>1716.60</ele>
	<time>2024-03-09T08:25:05.000Z</time>
</trkpt>
<trkpt lat="46.2537110" lon="10.5538590">
	<ele>1716.80</ele>
	<time>2024-03-09T08:25:06.000Z</time>
</trkpt>
<trkpt lat="46.2537150" lon="10.5538730">
	<ele>1716.80</ele>
	<time>2024-03-09T08:25:07.000Z</time>
</trkpt>
<trkpt lat="46.2537200" lon="10.5538850">
	<ele>1716.80</ele>
	<time>2024-03-09T08:25:08.000Z</time>
</trkpt>
<trkpt lat="46.2537250" lon="10.5538930">
	<ele>1717.00</ele>
	<time>2024-03-09T08:25:09.000Z</time>
</trkpt>
<trkpt lat="46.2537340" lon="10.5539020">
	<ele>1717.00</ele>
	<time>2024-03-09T08:25:10.000Z</time>
</trkpt>
<trkpt lat="46.2537400" lon="10.5539140">
	<ele>1717.00</ele>
	<time>2024-03-09T08:25:11.000Z</time>
</trkpt>
<trkpt lat="46.2537450" lon="10.5539270">
	<ele>1717.00</ele>
	<time>2024-03-09T08:25:12.000Z</time>
</trkpt>
<trkpt lat="46.2537510" lon="10.5539400">
	<ele>1717.20</ele>
	<time>2024-03-09T08:25:13.000Z</time>
</trkpt>
<trkpt lat="46.2537580" lon="10.5539510">
	<ele>1717.20</ele>
	<time>2024-03-09T08:25:14.000Z</time>
</trkpt>
<trkpt lat="46.2537640" lon="10.5539640">
	<ele>1717.20</ele>
	<time>2024-03-09T08:25:15.000Z</time>
</trkpt>
<trkpt lat="46.2537690" lon="10.5539740">
	<ele>1717.40</ele>
	<time>2024-03-09T08:25:16.000Z</time>
</trkpt>
<trkpt lat="46.2537750" lon="10.5539840">
	<ele>1717.40</ele>
	<time>2024-03-09T08:25:17.000Z</time>
</trkpt>
<trkpt lat="46.2537830" lon="10.5539950">
	<ele>1717.60</ele>
	<time>2024-03-09T08:25:18.000Z</time>
</trkpt>
<trkpt lat="46.2537890" lon="10.5540020">
	<ele>1717.60</ele>
	<time>2024-03-09T08:25:19.000Z</time>
</trkpt>
<trkpt lat="46.2537960" lon="10.5540120">
	<ele>1717.60</ele>
	<time>2024-03-09T08:25:20.000Z</time>
</trkpt>
<trkpt lat="46.2538020" lon="10.5540220">
	<ele>1717.60</ele>
	<time>2024-03-09T08:25:21.000Z</time>
</trkpt>
<trkpt lat="46.2538050" lon="10.5540340">
	<ele>1717.60</ele>
	<time>2024-03-09T08:25:22.000Z</time>
</trkpt>
<trkpt lat="46.2538100" lon="10.5540450">
	<ele>1717.60</ele>
	<time>2024-03-09T08:25:23.000Z</time>
</trkpt>
<trkpt lat="46.2538170" lon="10.5540550">
	<ele>1717.80</ele>
	<time>2024-03-09T08:25:24.000Z</time>
</trkpt>
<trkpt lat="46.2538220" lon="10.5540710">
	<ele>1718.00</ele>
	<time>2024-03-09T08:25:25.000Z</time>
</trkpt>
<trkpt lat="46.2538280" lon="10.5540830">
	<ele>1718.00</ele>
	<time>2024-03-09T08:25:26.000Z</time>
</trkpt>
<trkpt lat="46.2538340" lon="10.5540950">
	<ele>1718.20</ele>
	<time>2024-03-09T08:25:27.000Z</time>
</trkpt>
<trkpt lat="46.2538390" lon="10.5541060">
	<ele>1718.20</ele>
	<time>2024-03-09T08:25:28.000Z</time>
</trkpt>
<trkpt lat="46.2538450" lon="10.5541180">
	<ele>1718.40</ele>
	<time>2024-03-09T08:25:29.000Z</time>
</trkpt>
<trkpt lat="46.2538510" lon="10.5541290">
	<ele>1718.40</ele>
	<time>2024-03-09T08:25:30.000Z</time>
</trkpt>
<trkpt lat="46.2538580" lon="10.5541390">
	<ele>1718.40</ele>
	<time>2024-03-09T08:25:31.000Z</time>
</trkpt>
<trkpt lat="46.2538640" lon="10.5541460">
	<ele>1718.60</ele>
	<time>2024-03-09T08:25:32.000Z</time>
</trkpt>
<trkpt lat="46.2538690" lon="10.5541570">
	<ele>1718.60</ele>
	<time>2024-03-09T08:25:33.000Z</time>
</trkpt>
<trkpt lat="46.2538730" lon="10.5541670">
	<ele>1718.60</ele>
	<time>2024-03-09T08:25:34.000Z</time>
</trkpt>
<trkpt lat="46.2538800" lon="10.5541760">
	<ele>1718.80</ele>
	<time>2024-03-09T08:25:35.000Z</time>
</trkpt>
<trkpt lat="46.2538890" lon="10.5541860">
	<ele>1719.00</ele>
	<time>2024-03-09T08:25:36.000Z</time>
</trkpt>
<trkpt lat="46.2538970" lon="10.5541950">
	<ele>1719.00</ele>
	<time>2024-03-09T08:25:37.000Z</time>
</trkpt>
<trkpt lat="46.2539040" lon="10.5542050">
	<ele>1719.00</ele>
	<time>2024-03-09T08:25:38.000Z</time>
</trkpt>
<trkpt lat="46.2539110" lon="10.5542150">
	<ele>1719.20</ele>
	<time>2024-03-09T08:25:39.000Z</time>
</trkpt>
<trkpt lat="46.2539200" lon="10.5542260">
	<ele>1719.20</ele>
	<time>2024-03-09T08:25:40.000Z</time>
</trkpt>
<trkpt lat="46.2539290" lon="10.5542330">
	<ele>1719.20</ele>
	<time>2024-03-09T08:25:41.000Z</time>
</trkpt>
<trkpt lat="46.2539380" lon="10.5542410">
	<ele>1719.20</ele>
	<time>2024-03-09T08:25:42.000Z</time>
</trkpt>
<trkpt lat="46.2539450" lon="10.5542470">
	<ele>1719.40</ele>
	<time>2024-03-09T08:25:43.000Z</time>
</trkpt>
<trkpt lat="46.2539510" lon="10.5542570">
	<ele>1719.60</ele>
	<time>2024-03-09T08:25:44.000Z</time>
</trkpt>
<trkpt lat="46.2539560" lon="10.5542700">
	<ele>1719.80</ele>
	<time>2024-03-09T08:25:45.000Z</time>
</trkpt>
<trkpt lat="46.2539620" lon="10.5542830">
	<ele>1719.80</ele>
	<time>2024-03-09T08:25:46.000Z</time>
</trkpt>
<trkpt lat="46.2539690" lon="10.5542960">
	<ele>1720.00</ele>
	<time>2024-03-09T08:25:47.000Z</time>
</trkpt>
<trkpt lat="46.2539760" lon="10.5543090">
	<ele>1720.00</ele>
	<time>2024-03-09T08:25:48.000Z</time>
</trkpt>
<trkpt lat="46.2539820" lon="10.5543190">
	<ele>1720.00</ele>
	<time>2024-03-09T08:25:49.000Z</time>
</trkpt>
<trkpt lat="46.2539880" lon="10.5543280">
	<ele>1720.00</ele>
	<time>2024-03-09T08:25:50.000Z</time>
</trkpt>
<trkpt lat="46.2539940" lon="10.5543340">
	<ele>1720.00</ele>
	<time>2024-03-09T08:25:51.000Z</time>
</trkpt>
<trkpt lat="46.2540000" lon="10.5543420">
	<ele>1720.00</ele>
	<time>2024-03-09T08:25:52.000Z</time>
</trkpt>
<trkpt lat="46.2540070" lon="10.5543480">
	<ele>1720.20</ele>
	<time>2024-03-09T08:25:53.000Z</time>
</trkpt>
<trkpt lat="46.2540130" lon="10.5543540">
	<ele>1720.20</ele>
	<time>2024-03-09T08:25:54.000Z</time>
</trkpt>
<trkpt lat="46.2540190" lon="10.5543610">
	<ele>1720.20</ele>
	<time>2024-03-09T08:25:55.000Z</time>
</trkpt>
<trkpt lat="46.2540260" lon="10.5543720">
	<ele>1720.40</ele>
	<time>2024-03-09T08:25:56.000Z</time>
</trkpt>
<trkpt lat="46.2540330" lon="10.5543840">
	<ele>1720.40</ele>
	<time>2024-03-09T08:25:57.000Z</time>
</trkpt>
<trkpt lat="46.2540410" lon="10.5543950">
	<ele>1720.40</ele>
	<time>2024-03-09T08:25:58.000Z</time>
</trkpt>
<trkpt lat="46.2540490" lon="10.5544080">
	<ele>1720.60</ele>
	<time>2024-03-09T08:25:59.000Z</time>
</trkpt>
<trkpt lat="46.2540560" lon="10.5544200">
	<ele>1720.80</ele>
	<time>2024-03-09T08:26:00.000Z</time>
</trkpt>
<trkpt lat="46.2540620" lon="10.5544290">
	<ele>1720.80</ele>
	<time>2024-03-09T08:26:01.000Z</time>
</trkpt>
<trkpt lat="46.2540700" lon="10.5544390">
	<ele>1720.80</ele>
	<time>2024-03-09T08:26:02.000Z</time>
</trkpt>
<trkpt lat="46.2540760" lon="10.5544490">
	<ele>1721.00</ele>
	<time>2024-03-09T08:26:03.000Z</time>
</trkpt>
<trkpt lat="46.2540820" lon="10.5544570">
	<ele>1721.00</ele>
	<time>2024-03-09T08:26:04.000Z</time>
</trkpt>
<trkpt lat="46.2540890" lon="10.5544680">
	<ele>1721.00</ele>
	<time>2024-03-09T08:26:05.000Z</time>
</trkpt>
<trkpt lat="46.2540960" lon="10.5544790">
	<ele>1721.20</ele>
	<time>2024-03-09T08:26:06.000Z</time>
</trkpt>
<trkpt lat="46.2541030" lon="10.5544920">
	<ele>1721.20</ele>
	<time>2024-03-09T08:26:07.000Z</time>
</trkpt>
<trkpt lat="46.2541090" lon="10.5545040">
	<ele>1721.40</ele>
	<time>2024-03-09T08:26:08.000Z</time>
</trkpt>
<trkpt lat="46.2541160" lon="10.5545140">
	<ele>1721.60</ele>
	<time>2024-03-09T08:26:09.000Z</time>
</trkpt>
<trkpt lat="46.2541230" lon="10.5545190">
	<ele>1721.60</ele>
	<time>2024-03-09T08:26:10.000Z</time>
</trkpt>
<trkpt lat="46.2541300" lon="10.5545260">
	<ele>1721.80</ele>
	<time>2024-03-09T08:26:11.000Z</time>
</trkpt>
<trkpt lat="46.2541360" lon="10.5545360">
	<ele>1721.80</ele>
	<time>2024-03-09T08:26:12.000Z</time>
</trkpt>
<trkpt lat="46.2541420" lon="10.5545480">
	<ele>1722.00</ele>
	<time>2024-03-09T08:26:13.000Z</time>
</trkpt>
<trkpt lat="46.2541470" lon="10.5545600">
	<ele>1722.00</ele>
	<time>2024-03-09T08:26:14.000Z</time>
</trkpt>
<trkpt lat="46.2541530" lon="10.5545740">
	<ele>1722.00</ele>
	<time>2024-03-09T08:26:15.000Z</time>
</trkpt>
<trkpt lat="46.2541590" lon="10.5545880">
	<ele>1722.00</ele>
	<time>2024-03-09T08:26:16.000Z</time>
</trkpt>
<trkpt lat="46.2541660" lon="10.5545990">
	<ele>1722.20</ele>
	<time>2024-03-09T08:26:17.000Z</time>
</trkpt>
<trkpt lat="46.2541730" lon="10.5546080">
	<ele>1722.40</ele>
	<time>2024-03-09T08:26:18.000Z</time>
</trkpt>
<trkpt lat="46.2541800" lon="10.5546170">
	<ele>1722.40</ele>
	<time>2024-03-09T08:26:19.000Z</time>
</trkpt>
<trkpt lat="46.2541860" lon="10.5546270">
	<ele>1722.40</ele>
	<time>2024-03-09T08:26:20.000Z</time>
</trkpt>
<trkpt lat="46.2541930" lon="10.5546390">
	<ele>1722.40</ele>
	<time>2024-03-09T08:26:21.000Z</time>
</trkpt>
<trkpt lat="46.2542000" lon="10.5546540">
	<ele>1722.40</ele>
	<time>2024-03-09T08:26:22.000Z</time>
</trkpt>
<trkpt lat="46.2542070" lon="10.5546670">
	<ele>1722.40</ele>
	<time>2024-03-09T08:26:23.000Z</time>
</trkpt>
<trkpt lat="46.2542120" lon="10.5546780">
	<ele>1722.60</ele>
	<time>2024-03-09T08:26:24.000Z</time>
</trkpt>
<trkpt lat="46.2542170" lon="10.5546860">
	<ele>1722.60</ele>
	<time>2024-03-09T08:26:25.000Z</time>
</trkpt>
<trkpt lat="46.2542230" lon="10.5546960">
	<ele>1722.60</ele>
	<time>2024-03-09T08:26:26.000Z</time>
</trkpt>
<trkpt lat="46.2542290" lon="10.5547070">
	<ele>1722.60</ele>
	<time>2024-03-09T08:26:27.000Z</time>
</trkpt>
<trkpt lat="46.2542320" lon="10.5547190">
	<ele>1722.60</ele>
	<time>2024-03-09T08:26:28.000Z</time>
</trkpt>
<trkpt lat="46.2542360" lon="10.5547310">
	<ele>1722.80</ele>
	<time>2024-03-09T08:26:29.000Z</time>
</trkpt>
<trkpt lat="46.2542400" lon="10.5547420">
	<ele>1722.80</ele>
	<time>2024-03-09T08:26:30.000Z</time>
</trkpt>
<trkpt lat="46.2542460" lon="10.5547530">
	<ele>1722.80</ele>
	<time>2024-03-09T08:26:31.000Z</time>
</trkpt>
<trkpt lat="46.2542510" lon="10.5547660">
	<ele>1722.80</ele>
	<time>2024-03-09T08:26:32.000Z</time>
</trkpt>
<trkpt lat="46.2542560" lon="10.5547790">
	<ele>1722.80</ele>
	<time>2024-03-09T08:26:33.000Z</time>
</trkpt>
<trkpt lat="46.2542610" lon="10.5547900">
	<ele>1722.80</ele>
	<time>2024-03-09T08:26:34.000Z</time>
</trkpt>
<trkpt lat="46.2542660" lon="10.5548020">
	<ele>1722.80</ele>
	<time>2024-03-09T08:26:35.000Z</time>
</trkpt>
<trkpt lat="46.2542720" lon="10.5548140">
	<ele>1722.80</ele>
	<time>2024-03-09T08:26:36.000Z</time>
</trkpt>
<trkpt lat="46.2542780" lon="10.5548280">
	<ele>1722.80</ele>
	<time>2024-03-09T08:26:37.000Z</time>
</trkpt>
<trkpt lat="46.2542840" lon="10.5548440">
	<ele>1723.00</ele>
	<time>2024-03-09T08:26:38.000Z</time>
</trkpt>
<trkpt lat="46.2542890" lon="10.5548580">
	<ele>1723.00</ele>
	<time>2024-03-09T08:26:39.000Z</time>
</trkpt>
<trkpt lat="46.2542940" lon="10.5548720">
	<ele>1723.20</ele>
	<time>2024-03-09T08:26:40.000Z</time>
</trkpt>
<trkpt lat="46.2542990" lon="10.5548840">
	<ele>1723.20</ele>
	<time>2024-03-09T08:26:41.000Z</time>
</trkpt>
<trkpt lat="46.2543030" lon="10.5548980">
	<ele>1723.40</ele>
	<time>2024-03-09T08:26:42.000Z</time>
</trkpt>
<trkpt lat="46.2543070" lon="10.5549100">
	<ele>1723.40</ele>
	<time>2024-03-09T08:26:43.000Z</time>
</trkpt>
<trkpt lat="46.2543100" lon="10.5549240">
	<ele>1723.40</ele>
	<time>2024-03-09T08:26:44.000Z</time>
</trkpt>
<trkpt lat="46.2543120" lon="10.5549380">
	<ele>1723.60</ele>
	<time>2024-03-09T08:26:45.000Z</time>
</trkpt>
<trkpt lat="46.2543140" lon="10.5549500">
	<ele>1723.60</ele>
	<time>2024-03-09T08:26:46.000Z</time>
</trkpt>
<trkpt lat="46.2543170" lon="10.5549630">
	<ele>1723.80</ele>
	<time>2024-03-09T08:26:47.000Z</time>
</trkpt>
<trkpt lat="46.2543200" lon="10.5549790">
	<ele>1723.80</ele>
	<time>2024-03-09T08:26:48.000Z</time>
</trkpt>
<trkpt lat="46.2543230" lon="10.5549930">
	<ele>1723.80</ele>
	<time>2024-03-09T08:26:49.000Z</time>
</trkpt>
<trkpt lat="46.2543270" lon="10.5550080">
	<ele>1723.80</ele>
	<time>2024-03-09T08:26:50.000Z</time>
</trkpt>
<trkpt lat="46.2543300" lon="10.5550190">
	<ele>1724.00</ele>
	<time>2024-03-09T08:26:51.000Z</time>
</trkpt>
<trkpt lat="46.2543330" lon="10.5550290">
	<ele>1724.00</ele>
	<time>2024-03-09T08:26:52.000Z</time>
</trkpt>
<trkpt lat="46.2543390" lon="10.5550410">
	<ele>1724.00</ele>
	<time>2024-03-09T08:26:53.000Z</time>
</trkpt>
<trkpt lat="46.2543430" lon="10.5550560">
	<ele>1724.00</ele>
	<time>2024-03-09T08:26:54.000Z</time>
</trkpt>
<trkpt lat="46.2543460" lon="10.5550730">
	<ele>1724.00</ele>
	<time>2024-03-09T08:26:55.000Z</time>
</trkpt>
<trkpt lat="46.2543500" lon="10.5550860">
	<ele>1724.20</ele>
	<time>2024-03-09T08:26:56.000Z</time>
</trkpt>
<trkpt lat="46.2543540" lon="10.5551000">
	<ele>1724.20</ele>
	<time>2024-03-09T08:26:57.000Z</time>
</trkpt>
<trkpt lat="46.2543580" lon="10.5551120">
	<ele>1724.20</ele>
	<time>2024-03-09T08:26:58.000Z</time>
</trkpt>
<trkpt lat="46.2543620" lon="10.5551210">
	<ele>1724.20</ele>
	<time>2024-03-09T08:26:59.000Z</time>
</trkpt>
<trkpt lat="46.2543660" lon="10.5551340">
	<ele>1724.20</ele>
	<time>2024-03-09T08:27:00.000Z</time>
</trkpt>
<trkpt lat="46.2543710" lon="10.5551470">
	<ele>1724.20</ele>
	<time>2024-03-09T08:27:01.000Z</time>
</trkpt>
<trkpt lat="46.2543750" lon="10.5551590">
	<ele>1724.40</ele>
	<time>2024-03-09T08:27:02.000Z</time>
</trkpt>
<trkpt lat="46.2543810" lon="10.5551710">
	<ele>1724.40</ele>
	<time>2024-03-09T08:27:03.000Z</time>
</trkpt>
<trkpt lat="46.2543850" lon="10.5551840">
	<ele>1724.40</ele>
	<time>2024-03-09T08:27:04.000Z</time>
</trkpt>
<trkpt lat="46.2543900" lon="10.5551950">
	<ele>1724.60</ele>
	<time>2024-03-09T08:27:05.000Z</time>
</trkpt>
<trkpt lat="46.2543940" lon="10.5552060">
	<ele>1724.60</ele>
	<time>2024-03-09T08:27:06.000Z</time>
</trkpt>
<trkpt lat="46.2543980" lon="10.5552200">
	<ele>1724.60</ele>
	<time>2024-03-09T08:27:07.000Z</time>
</trkpt>
<trkpt lat="46.2544020" lon="10.5552320">
	<ele>1724.60</ele>
	<time>2024-03-09T08:27:08.000Z</time>
</trkpt>
<trkpt lat="46.2544060" lon="10.5552440">
	<ele>1724.60</ele>
	<time>2024-03-09T08:27:09.000Z</time>
</trkpt>
<trkpt lat="46.2544110" lon="10.5552590">
	<ele>1724.60</ele>
	<time>2024-03-09T08:27:10.000Z</time>
</trkpt>
<trkpt lat="46.2544140" lon="10.5552740">
	<ele>1724.60</ele>
	<time>2024-03-09T08:27:11.000Z</time>
</trkpt>
<trkpt lat="46.2544180" lon="10.5552860">
	<ele>1724.60</ele>
	<time>2024-03-09T08:27:12.000Z</time>
</trkpt>
<trkpt lat="46.2544220" lon="10.5552980">
	<ele>1724.80</ele>
	<time>2024-03-09T08:27:13.000Z</time>
</trkpt>
<trkpt lat="46.2544250" lon="10.5553090">
	<ele>1724.80</ele>
	<time>2024-03-09T08:27:14.000Z</time>
</trkpt>
<trkpt lat="46.2544310" lon="10.5553180">
	<ele>1724.80</ele>
	<time>2024-03-09T08:27:15.000Z</time>
</trkpt>
<trkpt lat="46.2544370" lon="10.5553280">
	<ele>1724.80</ele>
	<time>2024-03-09T08:27:16.000Z</time>
</trkpt>
<trkpt lat="46.2544400" lon="10.5553410">
	<ele>1725.00</ele>
	<time>2024-03-09T08:27:17.000Z</time>
</trkpt>
<trkpt lat="46.2544430" lon="10.5553530">
	<ele>1725.00</ele>
	<time>2024-03-09T08:27:18.000Z</time>
</trkpt>
<trkpt lat="46.2544470" lon="10.5553640">
	<ele>1725.00</ele>
	<time>2024-03-09T08:27:19.000Z</time>
</trkpt>
<trkpt lat="46.2544500" lon="10.5553730">
	<ele>1725.00</ele>
	<time>2024-03-09T08:27:20.000Z</time>
</trkpt>
<trkpt lat="46.2544530" lon="10.5553860">
	<ele>1725.00</ele>
	<time>2024-03-09T08:27:21.000Z</time>
</trkpt>
<trkpt lat="46.2544570" lon="10.5554000">
	<ele>1725.20</ele>
	<time>2024-03-09T08:27:22.000Z</time>
</trkpt>
<trkpt lat="46.2544600" lon="10.5554130">
	<ele>1725.20</ele>
	<time>2024-03-09T08:27:23.000Z</time>
</trkpt>
<trkpt lat="46.2544630" lon="10.5554200">
	<ele>1725.20</ele>
	<time>2024-03-09T08:27:24.000Z</time>
</trkpt>
<trkpt lat="46.2544670" lon="10.5554300">
	<ele>1725.20</ele>
	<time>2024-03-09T08:27:25.000Z</time>
</trkpt>
<trkpt lat="46.2544720" lon="10.5554380">
	<ele>1725.40</ele>
	<time>2024-03-09T08:27:26.000Z</time>
</trkpt>
<trkpt lat="46.2544750" lon="10.5554430">
	<ele>1725.40</ele>
	<time>2024-03-09T08:27:27.000Z</time>
</trkpt>
<trkpt lat="46.2544780" lon="10.5554470">
	<ele>1725.40</ele>
	<time>2024-03-09T08:27:28.000Z</time>
</trkpt>
<trkpt lat="46.2544780" lon="10.5554490">
	<ele>1725.40</ele>
	<time>2024-03-09T08:27:29.000Z</time>
</trkpt>
<trkpt lat="46.2544790" lon="10.5554490">
	<ele>1725.40</ele>
	<time>2024-03-09T08:27:30.000Z</time>
</trkpt>
<trkpt lat="46.2544800" lon="10.5554450">
	<ele>1725.40</ele>
	<time>2024-03-09T08:27:31.000Z</time>
</trkpt>
<trkpt lat="46.2544820" lon="10.5554450">
	<ele>1725.40</ele>
	<time>2024-03-09T08:27:32.000Z</time>
</trkpt>
<trkpt lat="46.2544830" lon="10.5554440">
	<ele>1725.40</ele>
	<time>2024-03-09T08:27:33.000Z</time>
</trkpt>
<trkpt lat="46.2544820" lon="10.5554460">
	<ele>1725.40</ele>
	<time>2024-03-09T08:27:34.000Z</time>
</trkpt>
<trkpt lat="46.2544800" lon="10.5554460">
	<ele>1725.40</ele>
	<time>2024-03-09T08:27:35.000Z</time>
</trkpt>
<trkpt lat="46.2544790" lon="10.5554460">
	<ele>1725.40</ele>
	<time>2024-03-09T08:27:36.000Z</time>
</trkpt>
<trkpt lat="46.2544780" lon="10.5554460">
	<ele>1725.20</ele>
	<time>2024-03-09T08:27:37.000Z</time>
</trkpt>
<trkpt lat="46.2544770" lon="10.5554450">
	<ele>1725.20</ele>
	<time>2024-03-09T08:27:38.000Z</time>
</trkpt>
<trkpt lat="46.2544760" lon="10.5554450">
	<ele>1725.20</ele>
	<time>2024-03-09T08:27:39.000Z</time>
</trkpt>
<trkpt lat="46.2544760" lon="10.5554450">
	<ele>1725.20</ele>
	<time>2024-03-09T08:27:40.000Z</time>
</trkpt>
<trkpt lat="46.2544760" lon="10.5554450">
	<ele>1725.40</ele>
	<time>2024-03-09T08:27:41.000Z</time>
</trkpt>
<trkpt lat="46.2544760" lon="10.5554450">
	<ele>1725.40</ele>
	<time>2024-03-09T08:27:42.000Z</time>
</trkpt>
<trkpt lat="46.2544760" lon="10.5554450">
	<ele>1725.40</ele>
	<time>2024-03-09T08:27:43.000Z</time>
</trkpt>
<trkpt lat="46.2544760" lon="10.5554450">
	<ele>1725.40</ele>
	<time>2024-03-09T08:27:44.000Z</time>
</trkpt>
<trkpt lat="46.2544760" lon="10.5554450">
	<ele>1725.60</ele>
	<time>2024-03-09T08:27:45.000Z</time>
</trkpt>
<trkpt lat="46.2544760" lon="10.5554450">
	<ele>1725.60</ele>
	<time>2024-03-09T08:27:46.000Z</time>
</trkpt>
<trkpt lat="46.2544770" lon="10.5554450">
	<ele>1725.60</ele>
	<time>2024-03-09T08:27:47.000Z</time>
</trkpt>
<trkpt lat="46.2544770" lon="10.5554450">
	<ele>1725.60</ele>
	<time>2024-03-09T08:27:48.000Z</time>
</trkpt>
<trkpt lat="46.2544780" lon="10.5554450">
	<ele>1725.80</ele>
	<time>2024-03-09T08:27:49.000Z</time>
</trkpt>
<trkpt lat="46.2544790" lon="10.5554450">
	<ele>1725.80</ele>
	<time>2024-03-09T08:27:50.000Z</time>
</trkpt>
<trkpt lat="46.2544800" lon="10.5554450">
	<ele>1725.80</ele>
	<time>2024-03-09T08:27:51.000Z</time>
</trkpt>
<trkpt lat="46.2544800" lon="10.5554460">
	<ele>1725.80</ele>
	<time>2024-03-09T08:27:52.000Z</time>
</trkpt>
<trkpt lat="46.2544800" lon="10.5554460">
	<ele>1726.00</ele>
	<time>2024-03-09T08:27:53.000Z</time>
</trkpt>
<trkpt lat="46.2544810" lon="10.5554460">
	<ele>1726.00</ele>
	<time>2024-03-09T08:27:54.000Z</time>
</trkpt>
<trkpt lat="46.2544810" lon="10.5554460">
	<ele>1726.00</ele>
	<time>2024-03-09T08:27:55.000Z</time>
</trkpt>
<trkpt lat="46.2544820" lon="10.5554460">
	<ele>1726.00</ele>
	<time>2024-03-09T08:27:56.000Z</time>
</trkpt>
<trkpt lat="46.2544820" lon="10.5554460">
	<ele>1726.20</ele>
	<time>2024-03-09T08:27:57.000Z</time>
</trkpt>
<trkpt lat="46.2544820" lon="10.5554460">
	<ele>1726.20</ele>
	<time>2024-03-09T08:27:58.000Z</time>
</trkpt>
<trkpt lat="46.2544830" lon="10.5554460">
	<ele>1726.20</ele>
	<time>2024-03-09T08:27:59.000Z</time>
</trkpt>
<trkpt lat="46.2544840" lon="10.5554460">
	<ele>1726.20</ele>
	<time>2024-03-09T08:28:00.000Z</time>
</trkpt>
<trkpt lat="46.2544840" lon="10.5554460">
	<ele>1726.20</ele>
	<time>2024-03-09T08:28:01.000Z</time>
</trkpt>
<trkpt lat="46.2544860" lon="10.5554460">
	<ele>1726.20</ele>
	<time>2024-03-09T08:28:02.000Z</time>
</trkpt>
<trkpt lat="46.2544870" lon="10.5554470">
	<ele>1726.20</ele>
	<time>2024-03-09T08:28:03.000Z</time>
</trkpt>
<trkpt lat="46.2544900" lon="10.5554470">
	<ele>1726.20</ele>
	<time>2024-03-09T08:28:04.000Z</time>
</trkpt>
<trkpt lat="46.2544900" lon="10.5554470">
	<ele>1726.00</ele>
	<time>2024-03-09T08:28:05.000Z</time>
</trkpt>
<trkpt lat="46.2544910" lon="10.5554470">
	<ele>1726.00</ele>
	<time>2024-03-09T08:28:06.000Z</time>
</trkpt>
<trkpt lat="46.2544910" lon="10.5554470">
	<ele>1726.00</ele>
	<time>2024-03-09T08:28:07.000Z</time>
</trkpt>
<trkpt lat="46.2544910" lon="10.5554470">
	<ele>1726.00</ele>
	<time>2024-03-09T08:28:08.000Z</time>
</trkpt>
<trkpt lat="46.2544910" lon="10.5554470">
	<ele>1726.00</ele>
	<time>2024-03-09T08:28:09.000Z</time>
</trkpt>
<trkpt lat="46.2544910" lon="10.5554470">
	<ele>1726.00</ele>
	<time>2024-03-09T08:28:10.000Z</time>
</trkpt>
<trkpt lat="46.2544910" lon="10.5554470">
	<ele>1726.00</ele>
	<time>2024-03-09T08:28:11.000Z</time>
</trkpt>
<trkpt lat="46.2544910" lon="10.5554470">
	<ele>1725.80</ele>
	<time>2024-03-09T08:28:12.000Z</time>
</trkpt>
<trkpt lat="46.2544910" lon="10.5554470">
	<ele>1725.60</ele>
	<time>2024-03-09T08:28:13.000Z</time>
</trkpt>
<trkpt lat="46.2544910" lon="10.5554470">
	<ele>1725.60</ele>
	<time>2024-03-09T08:28:14.000Z</time>
</trkpt>
<trkpt lat="46.2544910" lon="10.5554470">
	<ele>1725.40</ele>
	<time>2024-03-09T08:28:15.000Z</time>
</trkpt>
<trkpt lat="46.2544910" lon="10.5554480">
	<ele>1725.40</ele>
	<time>2024-03-09T08:28:16.000Z</time>
</trkpt>
<trkpt lat="46.2544910" lon="10.5554480">
	<ele>1725.40</ele>
	<time>2024-03-09T08:28:17.000Z</time>
</trkpt>
<trkpt lat="46.2544910" lon="10.5554480">
	<ele>1725.60</ele>
	<time>2024-03-09T08:28:18.000Z</time>
</trkpt>
<trkpt lat="46.2544910" lon="10.5554480">
	<ele>1725.80</ele>
	<time>2024-03-09T08:28:19.000Z</time>
</trkpt>
<trkpt lat="46.2544910" lon="10.5554480">
	<ele>1725.80</ele>
	<time>2024-03-09T08:28:20.000Z</time>
</trkpt>
<trkpt lat="46.2544910" lon="10.5554480">
	<ele>1726.00</ele>
	<time>2024-03-09T08:28:21.000Z</time>
</trkpt>
<trkpt lat="46.2544910" lon="10.5554480">
	<ele>1726.00</ele>
	<time>2024-03-09T08:28:22.000Z</time>
</trkpt>
<trkpt lat="46.2544910" lon="10.5554480">
	<ele>1726.20</ele>
	<time>2024-03-09T08:28:23.000Z</time>
</trkpt>
<trkpt lat="46.2544910" lon="10.5554490">
	<ele>1726.20</ele>
	<time>2024-03-09T08:28:24.000Z</time>
</trkpt>
<trkpt lat="46.2544910" lon="10.5554510">
	<ele>1726.20</ele>
	<time>2024-03-09T08:28:25.000Z</time>
</trkpt>
<trkpt lat="46.2544910" lon="10.5554520">
	<ele>1726.20</ele>
	<time>2024-03-09T08:28:26.000Z</time>
</trkpt>
<trkpt lat="46.2544910" lon="10.5554530">
	<ele>1726.20</ele>
	<time>2024-03-09T08:28:27.000Z</time>
</trkpt>
<trkpt lat="46.2544910" lon="10.5554530">
	<ele>1726.20</ele>
	<time>2024-03-09T08:28:28.000Z</time>
</trkpt>
<trkpt lat="46.2544910" lon="10.5554530">
	<ele>1726.20</ele>
	<time>2024-03-09T08:28:29.000Z</time>
</trkpt>
<trkpt lat="46.2544910" lon="10.5554530">
	<ele>1726.00</ele>
	<time>2024-03-09T08:28:30.000Z</time>
</trkpt>
<trkpt lat="46.2544910" lon="10.5554560">
	<ele>1725.80</ele>
	<time>2024-03-09T08:28:31.000Z</time>
</trkpt>
<trkpt lat="46.2544910" lon="10.5554590">
	<ele>1725.80</ele>
	<time>2024-03-09T08:28:32.000Z</time>
</trkpt>
<trkpt lat="46.2544910" lon="10.5554600">
	<ele>1725.60</ele>
	<time>2024-03-09T08:28:33.000Z</time>
</trkpt>
<trkpt lat="46.2544910" lon="10.5554600">
	<ele>1725.60</ele>
	<time>2024-03-09T08:28:34.000Z</time>
</trkpt>
<trkpt lat="46.2544920" lon="10.5554610">
	<ele>1725.60</ele>
	<time>2024-03-09T08:28:35.000Z</time>
</trkpt>
<trkpt lat="46.2544920" lon="10.5554610">
	<ele>1725.60</ele>
	<time>2024-03-09T08:28:36.000Z</time>
</trkpt>
<trkpt lat="46.2544930" lon="10.5554610">
	<ele>1725.60</ele>
	<time>2024-03-09T08:28:37.000Z</time>
</trkpt>
<trkpt lat="46.2544940" lon="10.5554620">
	<ele>1725.60</ele>
	<time>2024-03-09T08:28:38.000Z</time>
</trkpt>
<trkpt lat="46.2544940" lon="10.5554620">
	<ele>1725.60</ele>
	<time>2024-03-09T08:28:39.000Z</time>
</trkpt>
<trkpt lat="46.2544940" lon="10.5554620">
	<ele>1725.80</ele>
	<time>2024-03-09T08:28:40.000Z</time>
</trkpt>
<trkpt lat="46.2544940" lon="10.5554630">
	<ele>1725.80</ele>
	<time>2024-03-09T08:28:41.000Z</time>
</trkpt>
<trkpt lat="46.2544940" lon="10.5554630">
	<ele>1725.80</ele>
	<time>2024-03-09T08:28:42.000Z</time>
</trkpt>
<trkpt lat="46.2544950" lon="10.5554630">
	<ele>1725.80</ele>
	<time>2024-03-09T08:28:43.000Z</time>
</trkpt>
<trkpt lat="46.2544960" lon="10.5554630">
	<ele>1725.80</ele>
	<time>2024-03-09T08:28:44.000Z</time>
</trkpt>
<trkpt lat="46.2544970" lon="10.5554640">
	<ele>1726.00</ele>
	<time>2024-03-09T08:28:45.000Z</time>
</trkpt>
<trkpt lat="46.2544970" lon="10.5554640">
	<ele>1726.00</ele>
	<time>2024-03-09T08:28:46.000Z</time>
</trkpt>
<trkpt lat="46.2544970" lon="10.5554640">
	<ele>1726.00</ele>
	<time>2024-03-09T08:28:47.000Z</time>
</trkpt>
<trkpt lat="46.2544970" lon="10.5554640">
	<ele>1726.00</ele>
	<time>2024-03-09T08:28:48.000Z</time>
</trkpt>
<trkpt lat="46.2544970" lon="10.5554640">
	<ele>1726.00</ele>
	<time>2024-03-09T08:28:49.000Z</time>
</trkpt>
<trkpt lat="46.2544970" lon="10.5554640">
	<ele>1726.00</ele>
	<time>2024-03-09T08:28:50.000Z</time>
</trkpt>
<trkpt lat="46.2544970" lon="10.5554630">
	<ele>1726.20</ele>
	<time>2024-03-09T08:28:51.000Z</time>
</trkpt>
<trkpt lat="46.2544970" lon="10.5554630">
	<ele>1726.20</ele>
	<time>2024-03-09T08:28:52.000Z</time>
</trkpt>
<trkpt lat="46.2544970" lon="10.5554630">
	<ele>1726.20</ele>
	<time>2024-03-09T08:28:53.000Z</time>
</trkpt>
<trkpt lat="46.2544970" lon="10.5554630">
	<ele>1726.20</ele>
	<time>2024-03-09T08:28:54.000Z</time>
</trkpt>
<trkpt lat="46.2544980" lon="10.5554630">
	<ele>1726.20</ele>
	<time>2024-03-09T08:28:55.000Z</time>
</trkpt>
<trkpt lat="46.2544980" lon="10.5554630">
	<ele>1726.20</ele>
	<time>2024-03-09T08:28:56.000Z</time>
</trkpt>
<trkpt lat="46.2544980" lon="10.5554630">
	<ele>1726.40</ele>
	<time>2024-03-09T08:28:57.000Z</time>
</trkpt>
<trkpt lat="46.2544980" lon="10.5554630">
	<ele>1726.80</ele>
	<time>2024-03-09T08:28:58.000Z</time>
</trkpt>
<trkpt lat="46.2544980" lon="10.5554630">
	<ele>1726.80</ele>
	<time>2024-03-09T08:28:59.000Z</time>
</trkpt>
<trkpt lat="46.2544980" lon="10.5554630">
	<ele>1727.00</ele>
	<time>2024-03-09T08:29:00.000Z</time>
</trkpt>
<trkpt lat="46.2544990" lon="10.5554630">
	<ele>1727.00</ele>
	<time>2024-03-09T08:29:01.000Z</time>
</trkpt>
<trkpt lat="46.2544990" lon="10.5554640">
	<ele>1727.20</ele>
	<time>2024-03-09T08:29:02.000Z</time>
</trkpt>
<trkpt lat="46.2545000" lon="10.5554640">
	<ele>1727.20</ele>
	<time>2024-03-09T08:29:03.000Z</time>
</trkpt>
<trkpt lat="46.2545000" lon="10.5554640">
	<ele>1727.00</ele>
	<time>2024-03-09T08:29:04.000Z</time>
</trkpt>
<trkpt lat="46.2545010" lon="10.5554650">
	<ele>1727.00</ele>
	<time>2024-03-09T08:29:05.000Z</time>
</trkpt>
<trkpt lat="46.2545010" lon="10.5554650">
	<ele>1727.00</ele>
	<time>2024-03-09T08:29:06.000Z</time>
</trkpt>
<trkpt lat="46.2545020" lon="10.5554650">
	<ele>1727.00</ele>
	<time>2024-03-09T08:29:07.000Z</time>
</trkpt>
<trkpt lat="46.2545030" lon="10.5554650">
	<ele>1727.00</ele>
	<time>2024-03-09T08:29:08.000Z</time>
</trkpt>
<trkpt lat="46.2545040" lon="10.5554680">
	<ele>1727.00</ele>
	<time>2024-03-09T08:29:09.000Z</time>
</trkpt>
<trkpt lat="46.2545040" lon="10.5554730">
	<ele>1726.80</ele>
	<time>2024-03-09T08:29:10.000Z</time>
</trkpt>
<trkpt lat="46.2545040" lon="10.5554750">
	<ele>1726.80</ele>
	<time>2024-03-09T08:29:11.000Z</time>
</trkpt>
<trkpt lat="46.2545040" lon="10.5554770">
	<ele>1726.80</ele>
	<time>2024-03-09T08:29:12.000Z</time>
</trkpt>
<trkpt lat="46.2545040" lon="10.5554770">
	<ele>1726.60</ele>
	<time>2024-03-09T08:29:13.000Z</time>
</trkpt>
<trkpt lat="46.2545040" lon="10.5554780">
	<ele>1726.60</ele>
	<time>2024-03-09T08:29:14.000Z</time>
</trkpt>
<trkpt lat="46.2545040" lon="10.5554790">
	<ele>1726.60</ele>
	<time>2024-03-09T08:29:15.000Z</time>
</trkpt>
<trkpt lat="46.2545040" lon="10.5554790">
	<ele>1726.40</ele>
	<time>2024-03-09T08:29:16.000Z</time>
</trkpt>
<trkpt lat="46.2545040" lon="10.5554800">
	<ele>1726.40</ele>
	<time>2024-03-09T08:29:17.000Z</time>
</trkpt>
<trkpt lat="46.2545040" lon="10.5554800">
	<ele>1726.20</ele>
	<time>2024-03-09T08:29:18.000Z</time>
</trkpt>
<trkpt lat="46.2545040" lon="10.5554800">
	<ele>1726.20</ele>
	<time>2024-03-09T08:29:19.000Z</time>
</trkpt>
<trkpt lat="46.2545040" lon="10.5554800">
	<ele>1726.20</ele>
	<time>2024-03-09T08:29:20.000Z</time>
</trkpt>
<trkpt lat="46.2545040" lon="10.5554800">
	<ele>1726.20</ele>
	<time>2024-03-09T08:29:21.000Z</time>
</trkpt>
<trkpt lat="46.2545040" lon="10.5554800">
	<ele>1726.20</ele>
	<time>2024-03-09T08:29:22.000Z</time>
</trkpt>
<trkpt lat="46.2545040" lon="10.5554800">
	<ele>1726.20</ele>
	<time>2024-03-09T08:29:23.000Z</time>
</trkpt>
<trkpt lat="46.2545040" lon="10.5554800">
	<ele>1726.20</ele>
	<time>2024-03-09T08:29:24.000Z</time>
</trkpt>
<trkpt lat="46.2545040" lon="10.5554800">
	<ele>1726.20</ele>
	<time>2024-03-09T08:29:25.000Z</time>
</trkpt>
<trkpt lat="46.2545040" lon="10.5554800">
	<ele>1726.00</ele>
	<time>2024-03-09T08:29:26.000Z</time>
</trkpt>
<trkpt lat="46.2545040" lon="10.5554800">
	<ele>1726.00</ele>
	<time>2024-03-09T08:29:27.000Z</time>
</trkpt>
<trkpt lat="46.2545040" lon="10.5554790">
	<ele>1726.00</ele>
	<time>2024-03-09T08:29:28.000Z</time>
</trkpt>
<trkpt lat="46.2545010" lon="10.5554790">
	<ele>1726.00</ele>
	<time>2024-03-09T08:29:29.000Z</time>
</trkpt>
<trkpt lat="46.2545000" lon="10.5554780">
	<ele>1726.00</ele>
	<time>2024-03-09T08:29:30.000Z</time>
</trkpt>
<trkpt lat="46.2544990" lon="10.5554760">
	<ele>1726.00</ele>
	<time>2024-03-09T08:29:31.000Z</time>
</trkpt>
<trkpt lat="46.2544980" lon="10.5554740">
	<ele>1726.00</ele>
	<time>2024-03-09T08:29:32.000Z</time>
</trkpt>
<trkpt lat="46.2544980" lon="10.5554720">
	<ele>1726.00</ele>
	<time>2024-03-09T08:29:33.000Z</time>
</trkpt>
<trkpt lat="46.2544970" lon="10.5554700">
	<ele>1726.00</ele>
	<time>2024-03-09T08:29:34.000Z</time>
</trkpt>
<trkpt lat="46.2544970" lon="10.5554690">
	<ele>1726.20</ele>
	<time>2024-03-09T08:29:35.000Z</time>
</trkpt>
<trkpt lat="46.2544960" lon="10.5554690">
	<ele>1726.20</ele>
	<time>2024-03-09T08:29:36.000Z</time>
</trkpt>
<trkpt lat="46.2544950" lon="10.5554680">
	<ele>1726.20</ele>
	<time>2024-03-09T08:29:37.000Z</time>
</trkpt>
<trkpt lat="46.2544950" lon="10.5554680">
	<ele>1726.20</ele>
	<time>2024-03-09T08:29:38.000Z</time>
</trkpt>
<trkpt lat="46.2544950" lon="10.5554680">
	<ele>1726.40</ele>
	<time>2024-03-09T08:29:39.000Z</time>
</trkpt>
<trkpt lat="46.2544950" lon="10.5554680">
	<ele>1726.40</ele>
	<time>2024-03-09T08:29:40.000Z</time>
</trkpt>
<trkpt lat="46.2544940" lon="10.5554680">
	<ele>1726.40</ele>
	<time>2024-03-09T08:29:41.000Z</time>
</trkpt>
<trkpt lat="46.2544940" lon="10.5554680">
	<ele>1726.60</ele>
	<time>2024-03-09T08:29:42.000Z</time>
</trkpt>
<trkpt lat="46.2544940" lon="10.5554680">
	<ele>1726.80</ele>
	<time>2024-03-09T08:29:43.000Z</time>
</trkpt>
<trkpt lat="46.2544940" lon="10.5554680">
	<ele>1726.80</ele>
	<time>2024-03-09T08:29:44.000Z</time>
</trkpt>
<trkpt lat="46.2544940" lon="10.5554680">
	<ele>1726.80</ele>
	<time>2024-03-09T08:29:45.000Z</time>
</trkpt>
<trkpt lat="46.2544940" lon="10.5554680">
	<ele>1726.80</ele>
	<time>2024-03-09T08:29:46.000Z</time>
</trkpt>
<trkpt lat="46.2544940" lon="10.5554680">
	<ele>1726.80</ele>
	<time>2024-03-09T08:29:47.000Z</time>
</trkpt>
<trkpt lat="46.2544930" lon="10.5554680">
	<ele>1726.80</ele>
	<time>2024-03-09T08:29:48.000Z</time>
</trkpt>
<trkpt lat="46.2544930" lon="10.5554700">
	<ele>1726.80</ele>
	<time>2024-03-09T08:29:49.000Z</time>
</trkpt>
<trkpt lat="46.2544930" lon="10.5554720">
	<ele>1726.80</ele>
	<time>2024-03-09T08:29:50.000Z</time>
</trkpt>
<trkpt lat="46.2544930" lon="10.5554760">
	<ele>1726.80</ele>
	<time>2024-03-09T08:29:51.000Z</time>
</trkpt>
<trkpt lat="46.2544930" lon="10.5554810">
	<ele>1726.80</ele>
	<time>2024-03-09T08:29:52.000Z</time>
</trkpt>
<trkpt lat="46.2544930" lon="10.5554840">
	<ele>1726.80</ele>
	<time>2024-03-09T08:29:53.000Z</time>
</trkpt>
<trkpt lat="46.2544920" lon="10.5554870">
	<ele>1726.80</ele>
	<time>2024-03-09T08:29:54.000Z</time>
</trkpt>
<trkpt lat="46.2544920" lon="10.5554880">
	<ele>1726.80</ele>
	<time>2024-03-09T08:29:55.000Z</time>
</trkpt>
<trkpt lat="46.2544920" lon="10.5554900">
	<ele>1726.80</ele>
	<time>2024-03-09T08:29:56.000Z</time>
</trkpt>
<trkpt lat="46.2544920" lon="10.5554900">
	<ele>1726.80</ele>
	<time>2024-03-09T08:29:57.000Z</time>
</trkpt>
<trkpt lat="46.2544920" lon="10.5554910">
	<ele>1726.80</ele>
	<time>2024-03-09T08:29:58.000Z</time>
</trkpt>
<trkpt lat="46.2544920" lon="10.5554910">
	<ele>1726.80</ele>
	<time>2024-03-09T08:29:59.000Z</time>
</trkpt>
<trkpt lat="46.2544920" lon="10.5554920">
	<ele>1726.80</ele>
	<time>2024-03-09T08:30:00.000Z</time>
</trkpt>
<trkpt lat="46.2544920" lon="10.5554920">
	<ele>1726.80</ele>
	<time>2024-03-09T08:30:01.000Z</time>
</trkpt>
<trkpt lat="46.2544920" lon="10.5554920">
	<ele>1726.80</ele>
	<time>2024-03-09T08:30:02.000Z</time>
</trkpt>
<trkpt lat="46.2544920" lon="10.5554930">
	<ele>1726.80</ele>
	<time>2024-03-09T08:30:03.000Z</time>
</trkpt>
<trkpt lat="46.2544920" lon="10.5554930">
	<ele>1726.80</ele>
	<time>2024-03-09T08:30:04.000Z</time>
</trkpt>
<trkpt lat="46.2544920" lon="10.5554930">
	<ele>1726.80</ele>
	<time>2024-03-09T08:30:05.000Z</time>
</trkpt>
<trkpt lat="46.2544920" lon="10.5554940">
	<ele>1726.80</ele>
	<time>2024-03-09T08:30:06.000Z</time>
</trkpt>
<trkpt lat="46.2544920" lon="10.5554940">
	<ele>1726.80</ele>
	<time>2024-03-09T08:30:07.000Z</time>
</trkpt>
<trkpt lat="46.2544920" lon="10.5554940">
	<ele>1726.80</ele>
	<time>2024-03-09T08:30:08.000Z</time>
</trkpt>
<trkpt lat="46.2544920" lon="10.5554950">
	<ele>1726.80</ele>
	<time>2024-03-09T08:30:09.000Z</time>
</trkpt>
<trkpt lat="46.2544920" lon="10.5554950">
	<ele>1726.80</ele>
	<time>2024-03-09T08:30:10.000Z</time>
</trkpt>
<trkpt lat="46.2544920" lon="10.5554950">
	<ele>1726.80</ele>
	<time>2024-03-09T08:30:11.000Z</time>
</trkpt>
<trkpt lat="46.2544920" lon="10.5554960">
	<ele>1726.80</ele>
	<time>2024-03-09T08:30:12.000Z</time>
</trkpt>
<trkpt lat="46.2544920" lon="10.5554960">
	<ele>1726.80</ele>
	<time>2024-03-09T08:30:13.000Z</time>
</trkpt>
<trkpt lat="46.2544920" lon="10.5554960">
	<ele>1726.80</ele>
	<time>2024-03-09T08:30:14.000Z</time>
</trkpt>
<trkpt lat="46.2544920" lon="10.5554960">
	<ele>1726.80</ele>
	<time>2024-03-09T08:30:15.000Z</time>
</trkpt>
<trkpt lat="46.2544920" lon="10.5554970">
	<ele>1726.80</ele>
	<time>2024-03-09T08:30:16.000Z</time>
</trkpt>
<trkpt lat="46.2544920" lon="10.5554970">
	<ele>1726.80</ele>
	<time>2024-03-09T08:30:17.000Z</time>
</trkpt>
<trkpt lat="46.2544920" lon="10.5554980">
	<ele>1726.80</ele>
	<time>2024-03-09T08:30:18.000Z</time>
</trkpt>
<trkpt lat="46.2544920" lon="10.5554980">
	<ele>1726.80</ele>
	<time>2024-03-09T08:30:19.000Z</time>
</trkpt>
<trkpt lat="46.2544920" lon="10.5554980">
	<ele>1726.80</ele>
	<time>2024-03-09T08:30:20.000Z</time>
</trkpt>
<trkpt lat="46.2544920" lon="10.5554980">
	<ele>1726.80</ele>
	<time>2024-03-09T08:30:21.000Z</time>
</trkpt>
<trkpt lat="46.2544920" lon="10.5554990">
	<ele>1726.80</ele>
	<time>2024-03-09T08:30:22.000Z</time>
</trkpt>
<trkpt lat="46.2544930" lon="10.5554990">
	<ele>1726.80</ele>
	<time>2024-03-09T08:30:23.000Z</time>
</trkpt>
<trkpt lat="46.2544940" lon="10.5554990">
	<ele>1726.80</ele>
	<time>2024-03-09T08:30:24.000Z</time>
</trkpt>
<trkpt lat="46.2544940" lon="10.5554990">
	<ele>1726.80</ele>
	<time>2024-03-09T08:30:25.000Z</time>
</trkpt>
<trkpt lat="46.2544950" lon="10.5554990">
	<ele>1726.80</ele>
	<time>2024-03-09T08:30:26.000Z</time>
</trkpt>
<trkpt lat="46.2544960" lon="10.5554990">
	<ele>1726.80</ele>
	<time>2024-03-09T08:30:27.000Z</time>
</trkpt>
<trkpt lat="46.2544970" lon="10.5554990">
	<ele>1726.80</ele>
	<time>2024-03-09T08:30:28.000Z</time>
</trkpt>
<trkpt lat="46.2544980" lon="10.5554990">
	<ele>1726.80</ele>
	<time>2024-03-09T08:30:29.000Z</time>
</trkpt>
<trkpt lat="46.2544990" lon="10.5554990">
	<ele>1726.80</ele>
	<time>2024-03-09T08:30:30.000Z</time>
</trkpt>
<trkpt lat="46.2545000" lon="10.5554990">
	<ele>1726.80</ele>
	<time>2024-03-09T08:30:31.000Z</time>
</trkpt>
<trkpt lat="46.2545010" lon="10.5554990">
	<ele>1726.80</ele>
	<time>2024-03-09T08:30:32.000Z</time>
</trkpt>
<trkpt lat="46.2545030" lon="10.5554990">
	<ele>1726.80</ele>
	<time>2024-03-09T08:30:33.000Z</time>
</trkpt>
<trkpt lat="46.2545040" lon="10.5554990">
	<ele>1726.80</ele>
	<time>2024-03-09T08:30:34.000Z</time>
</trkpt>
<trkpt lat="46.2545050" lon="10.5554990">
	<ele>1726.80</ele>
	<time>2024-03-09T08:30:35.000Z</time>
</trkpt>
<trkpt lat="46.2545060" lon="10.5554990">
	<ele>1726.80</ele>
	<time>2024-03-09T08:30:36.000Z</time>
</trkpt>
<trkpt lat="46.2545060" lon="10.5554990">
	<ele>1726.80</ele>
	<time>2024-03-09T08:30:37.000Z</time>
</trkpt>
<trkpt lat="46.2545080" lon="10.5554990">
	<ele>1726.80</ele>
	<time>2024-03-09T08:30:38.000Z</time>
</trkpt>
<trkpt lat="46.2545090" lon="10.5554990">
	<ele>1726.80</ele>
	<time>2024-03-09T08:30:39.000Z</time>
</trkpt>
<trkpt lat="46.2545100" lon="10.5554990">
	<ele>1726.80</ele>
	<time>2024-03-09T08:30:40.000Z</time>
</trkpt>
<trkpt lat="46.2545140" lon="10.5555080">
	<ele>1726.80</ele>
	<time>2024-03-09T08:30:41.000Z</time>
</trkpt>
<trkpt lat="46.2545190" lon="10.5555270">
	<ele>1726.80</ele>
	<time>2024-03-09T08:30:42.000Z</time>
</trkpt>
<trkpt lat="46.2545210" lon="10.5555470">
	<ele>1726.80</ele>
	<time>2024-03-09T08:30:43.000Z</time>
</trkpt>
<trkpt lat="46.2545250" lon="10.5555690">
	<ele>1726.80</ele>
	<time>2024-03-09T08:30:44.000Z</time>
</trkpt>
<trkpt lat="46.2545310" lon="10.5555900">
	<ele>1726.80</ele>
	<time>2024-03-09T08:30:45.000Z</time>
</trkpt>
<trkpt lat="46.2545400" lon="10.5556100">
	<ele>1726.80</ele>
	<time>2024-03-09T08:30:46.000Z</time>
</trkpt>
<trkpt lat="46.2545500" lon="10.5556290">
	<ele>1726.80</ele>
	<time>2024-03-09T08:30:47.000Z</time>
</trkpt>
<trkpt lat="46.2545600" lon="10.5556490">
	<ele>1726.80</ele>
	<time>2024-03-09T08:30:48.000Z</time>
</trkpt>
<trkpt lat="46.2545670" lon="10.5556660">
	<ele>1726.80</ele>
	<time>2024-03-09T08:30:49.000Z</time>
</trkpt>
<trkpt lat="46.2545760" lon="10.5556840">
	<ele>1727.00</ele>
	<time>2024-03-09T08:30:50.000Z</time>
</trkpt>
<trkpt lat="46.2545710" lon="10.5557000">
	<ele>1727.20</ele>
	<time>2024-03-09T08:30:51.000Z</time>
</trkpt>
<trkpt lat="46.2545670" lon="10.5557130">
	<ele>1727.40</ele>
	<time>2024-03-09T08:30:52.000Z</time>
</trkpt>
<trkpt lat="46.2545620" lon="10.5557270">
	<ele>1727.60</ele>
	<time>2024-03-09T08:30:53.000Z</time>
</trkpt>
<trkpt lat="46.2545600" lon="10.5557340">
	<ele>1727.60</ele>
	<time>2024-03-09T08:30:54.000Z</time>
</trkpt>
<trkpt lat="46.2545600" lon="10.5557400">
	<ele>1727.80</ele>
	<time>2024-03-09T08:30:55.000Z</time>
</trkpt>
<trkpt lat="46.2545650" lon="10.5557440">
	<ele>1727.80</ele>
	<time>2024-03-09T08:30:56.000Z</time>
</trkpt>
<trkpt lat="46.2545690" lon="10.5557520">
	<ele>1728.00</ele>
	<time>2024-03-09T08:30:57.000Z</time>
</trkpt>
<trkpt lat="46.2545720" lon="10.5557610">
	<ele>1728.00</ele>
	<time>2024-03-09T08:30:58.000Z</time>
</trkpt>
<trkpt lat="46.2545760" lon="10.5557710">
	<ele>1728.20</ele>
	<time>2024-03-09T08:30:59.000Z</time>
</trkpt>
<trkpt lat="46.2545740" lon="10.5557820">
	<ele>1728.20</ele>
	<time>2024-03-09T08:31:00.000Z</time>
</trkpt>
<trkpt lat="46.2545740" lon="10.5557940">
	<ele>1728.20</ele>
	<time>2024-03-09T08:31:01.000Z</time>
</trkpt>
<trkpt lat="46.2545730" lon="10.5558030">
	<ele>1728.20</ele>
	<time>2024-03-09T08:31:02.000Z</time>
</trkpt>
<trkpt lat="46.2545770" lon="10.5558100">
	<ele>1728.40</ele>
	<time>2024-03-09T08:31:03.000Z</time>
</trkpt>
<trkpt lat="46.2545800" lon="10.5558160">
	<ele>1728.40</ele>
	<time>2024-03-09T08:31:04.000Z</time>
</trkpt>
<trkpt lat="46.2545820" lon="10.5558250">
	<ele>1728.40</ele>
	<time>2024-03-09T08:31:05.000Z</time>
</trkpt>
<trkpt lat="46.2545830" lon="10.5558360">
	<ele>1728.40</ele>
	<time>2024-03-09T08:31:06.000Z</time>
</trkpt>
<trkpt lat="46.2545880" lon="10.5558450">
	<ele>1728.60</ele>
	<time>2024-03-09T08:31:07.000Z</time>
</trkpt>
<trkpt lat="46.2545930" lon="10.5558560">
	<ele>1728.60</ele>
	<time>2024-03-09T08:31:08.000Z</time>
</trkpt>
<trkpt lat="46.2545960" lon="10.5558660">
	<ele>1728.60</ele>
	<time>2024-03-09T08:31:09.000Z</time>
</trkpt>
<trkpt lat="46.2546000" lon="10.5558780">
	<ele>1728.80</ele>
	<time>2024-03-09T08:31:10.000Z</time>
</trkpt>
<trkpt lat="46.2546060" lon="10.5558880">
	<ele>1729.00</ele>
	<time>2024-03-09T08:31:11.000Z</time>
</trkpt>
<trkpt lat="46.2546130" lon="10.5558990">
	<ele>1729.00</ele>
	<time>2024-03-09T08:31:12.000Z</time>
</trkpt>
<trkpt lat="46.2546140" lon="10.5559100">
	<ele>1729.20</ele>
	<time>2024-03-09T08:31:13.000Z</time>
</trkpt>
<trkpt lat="46.2546150" lon="10.5559200">
	<ele>1729.40</ele>
	<time>2024-03-09T08:31:14.000Z</time>
</trkpt>
<trkpt lat="46.2546180" lon="10.5559320">
	<ele>1729.40</ele>
	<time>2024-03-09T08:31:15.000Z</time>
</trkpt>
<trkpt lat="46.2546210" lon="10.5559420">
	<ele>1729.40</ele>
	<time>2024-03-09T08:31:16.000Z</time>
</trkpt>
<trkpt lat="46.2546270" lon="10.5559560">
	<ele>1729.60</ele>
	<time>2024-03-09T08:31:17.000Z</time>
</trkpt>
<trkpt lat="46.2546300" lon="10.5559700">
	<ele>1729.60</ele>
	<time>2024-03-09T08:31:18.000Z</time>
</trkpt>
<trkpt lat="46.2546340" lon="10.5559810">
	<ele>1729.60</ele>
	<time>2024-03-09T08:31:19.000Z</time>
</trkpt>
<trkpt lat="46.2546340" lon="10.5559910">
	<ele>1729.60</ele>
	<time>2024-03-09T08:31:20.000Z</time>
</trkpt>
<trkpt lat="46.2546360" lon="10.5560000">
	<ele>1729.60</ele>
	<time>2024-03-09T08:31:21.000Z</time>
</trkpt>
<trkpt lat="46.2546380" lon="10.5560100">
	<ele>1729.80</ele>
	<time>2024-03-09T08:31:22.000Z</time>
</trkpt>
<trkpt lat="46.2546400" lon="10.5560170">
	<ele>1729.80</ele>
	<time>2024-03-09T08:31:23.000Z</time>
</trkpt>
<trkpt lat="46.2546450" lon="10.5560280">
	<ele>1729.80</ele>
	<time>2024-03-09T08:31:24.000Z</time>
</trkpt>
<trkpt lat="46.2546470" lon="10.5560390">
	<ele>1730.00</ele>
	<time>2024-03-09T08:31:25.000Z</time>
</trkpt>
<trkpt lat="46.2546480" lon="10.5560550">
	<ele>1730.00</ele>
	<time>2024-03-09T08:31:26.000Z</time>
</trkpt>
<trkpt lat="46.2546540" lon="10.5560670">
	<ele>1729.80</ele>
	<time>2024-03-09T08:31:27.000Z</time>
</trkpt>
<trkpt lat="46.2546610" lon="10.5560800">
	<ele>1730.00</ele>
	<time>2024-03-09T08:31:28.000Z</time>
</trkpt>
<trkpt lat="46.2546670" lon="10.5560910">
	<ele>1730.00</ele>
	<time>2024-03-09T08:31:29.000Z</time>
</trkpt>
<trkpt lat="46.2546740" lon="10.5561030">
	<ele>1730.00</ele>
	<time>2024-03-09T08:31:30.000Z</time>
</trkpt>
<trkpt lat="46.2546770" lon="10.5561160">
	<ele>1730.00</ele>
	<time>2024-03-09T08:31:31.000Z</time>
</trkpt>
<trkpt lat="46.2546820" lon="10.5561270">
	<ele>1730.00</ele>
	<time>2024-03-09T08:31:32.000Z</time>
</trkpt>
<trkpt lat="46.2546890" lon="10.5561380">
	<ele>1730.20</ele>
	<time>2024-03-09T08:31:33.000Z</time>
</trkpt>
<trkpt lat="46.2546970" lon="10.5561480">
	<ele>1730.20</ele>
	<time>2024-03-09T08:31:34.000Z</time>
</trkpt>
<trkpt lat="46.2547020" lon="10.5561570">
	<ele>1730.20</ele>
	<time>2024-03-09T08:31:35.000Z</time>
</trkpt>
<trkpt lat="46.2547070" lon="10.5561700">
	<ele>1730.40</ele>
	<time>2024-03-09T08:31:36.000Z</time>
</trkpt>
<trkpt lat="46.2547120" lon="10.5561830">
	<ele>1730.40</ele>
	<time>2024-03-09T08:31:37.000Z</time>
</trkpt>
<trkpt lat="46.2547210" lon="10.5561940">
	<ele>1730.40</ele>
	<time>2024-03-09T08:31:38.000Z</time>
</trkpt>
<trkpt lat="46.2547340" lon="10.5562030">
	<ele>1730.40</ele>
	<time>2024-03-09T08:31:39.000Z</time>
</trkpt>
<trkpt lat="46.2547430" lon="10.5562130">
	<ele>1730.40</ele>
	<time>2024-03-09T08:31:40.000Z</time>
</trkpt>
<trkpt lat="46.2547490" lon="10.5562270">
	<ele>1730.60</ele>
	<time>2024-03-09T08:31:41.000Z</time>
</trkpt>
<trkpt lat="46.2547380" lon="10.5562490">
	<ele>1730.60</ele>
	<time>2024-03-09T08:31:42.000Z</time>
</trkpt>
<trkpt lat="46.2547240" lon="10.5562660">
	<ele>1730.60</ele>
	<time>2024-03-09T08:31:43.000Z</time>
</trkpt>
<trkpt lat="46.2547210" lon="10.5562770">
	<ele>1730.60</ele>
	<time>2024-03-09T08:31:44.000Z</time>
</trkpt>
<trkpt lat="46.2547260" lon="10.5562890">
	<ele>1730.60</ele>
	<time>2024-03-09T08:31:45.000Z</time>
</trkpt>
<trkpt lat="46.2547320" lon="10.5563010">
	<ele>1730.60</ele>
	<time>2024-03-09T08:31:46.000Z</time>
</trkpt>
<trkpt lat="46.2547340" lon="10.5563130">
	<ele>1730.80</ele>
	<time>2024-03-09T08:31:47.000Z</time>
</trkpt>
<trkpt lat="46.2547380" lon="10.5563260">
	<ele>1730.80</ele>
	<time>2024-03-09T08:31:48.000Z</time>
</trkpt>
<trkpt lat="46.2547430" lon="10.5563380">
	<ele>1730.80</ele>
	<time>2024-03-09T08:31:49.000Z</time>
</trkpt>
<trkpt lat="46.2547520" lon="10.5563510">
	<ele>1730.80</ele>
	<time>2024-03-09T08:31:50.000Z</time>
</trkpt>
<trkpt lat="46.2547610" lon="10.5563680">
	<ele>1730.80</ele>
	<time>2024-03-09T08:31:51.000Z</time>
</trkpt>
<trkpt lat="46.2547650" lon="10.5563810">
	<ele>1730.80</ele>
	<time>2024-03-09T08:31:52.000Z</time>
</trkpt>
<trkpt lat="46.2547680" lon="10.5563900">
	<ele>1731.00</ele>
	<time>2024-03-09T08:31:53.000Z</time>
</trkpt>
<trkpt lat="46.2547700" lon="10.5564030">
	<ele>1731.00</ele>
	<time>2024-03-09T08:31:54.000Z</time>
</trkpt>
<trkpt lat="46.2547750" lon="10.5564160">
	<ele>1731.20</ele>
	<time>2024-03-09T08:31:55.000Z</time>
</trkpt>
<trkpt lat="46.2547800" lon="10.5564270">
	<ele>1731.20</ele>
	<time>2024-03-09T08:31:56.000Z</time>
</trkpt>
<trkpt lat="46.2547820" lon="10.5564390">
	<ele>1731.20</ele>
	<time>2024-03-09T08:31:57.000Z</time>
</trkpt>
<trkpt lat="46.2547830" lon="10.5564460">
	<ele>1731.40</ele>
	<time>2024-03-09T08:31:58.000Z</time>
</trkpt>
<trkpt lat="46.2547880" lon="10.5564590">
	<ele>1731.40</ele>
	<time>2024-03-09T08:31:59.000Z</time>
</trkpt>
<trkpt lat="46.2547920" lon="10.5564660">
	<ele>1731.40</ele>
	<time>2024-03-09T08:32:00.000Z</time>
</trkpt>
<trkpt lat="46.2547990" lon="10.5564770">
	<ele>1731.60</ele>
	<time>2024-03-09T08:32:01.000Z</time>
</trkpt>
<trkpt lat="46.2548050" lon="10.5564880">
	<ele>1731.60</ele>
	<time>2024-03-09T08:32:02.000Z</time>
</trkpt>
<trkpt lat="46.2548050" lon="10.5564990">
	<ele>1731.80</ele>
	<time>2024-03-09T08:32:03.000Z</time>
</trkpt>
<trkpt lat="46.2548070" lon="10.5565090">
	<ele>1731.80</ele>
	<time>2024-03-09T08:32:04.000Z</time>
</trkpt>
<trkpt lat="46.2548060" lon="10.5565260">
	<ele>1731.80</ele>
	<time>2024-03-09T08:32:05.000Z</time>
</trkpt>
<trkpt lat="46.2548100" lon="10.5565380">
	<ele>1731.80</ele>
	<time>2024-03-09T08:32:06.000Z</time>
</trkpt>
<trkpt lat="46.2548130" lon="10.5565520">
	<ele>1731.80</ele>
	<time>2024-03-09T08:32:07.000Z</time>
</trkpt>
<trkpt lat="46.2548150" lon="10.5565660">
	<ele>1732.00</ele>
	<time>2024-03-09T08:32:08.000Z</time>
</trkpt>
<trkpt lat="46.2548140" lon="10.5565740">
	<ele>1732.00</ele>
	<time>2024-03-09T08:32:09.000Z</time>
</trkpt>
<trkpt lat="46.2548170" lon="10.5565840">
	<ele>1732.20</ele>
	<time>2024-03-09T08:32:10.000Z</time>
</trkpt>
<trkpt lat="46.2548200" lon="10.5565880">
	<ele>1732.20</ele>
	<time>2024-03-09T08:32:11.000Z</time>
</trkpt>
<trkpt lat="46.2548210" lon="10.5565890">
	<ele>1732.20</ele>
	<time>2024-03-09T08:32:12.000Z</time>
</trkpt>
<trkpt lat="46.2548210" lon="10.5565870">
	<ele>1732.20</ele>
	<time>2024-03-09T08:32:13.000Z</time>
</trkpt>
<trkpt lat="46.2548210" lon="10.5565850">
	<ele>1732.20</ele>
	<time>2024-03-09T08:32:14.000Z</time>
</trkpt>
<trkpt lat="46.2548200" lon="10.5565850">
	<ele>1732.20</ele>
	<time>2024-03-09T08:32:15.000Z</time>
</trkpt>
<trkpt lat="46.2548190" lon="10.5565850">
	<ele>1732.20</ele>
	<time>2024-03-09T08:32:16.000Z</time>
</trkpt>
<trkpt lat="46.2548190" lon="10.5565850">
	<ele>1732.20</ele>
	<time>2024-03-09T08:32:17.000Z</time>
</trkpt>
<trkpt lat="46.2548190" lon="10.5565840">
	<ele>1732.20</ele>
	<time>2024-03-09T08:32:18.000Z</time>
</trkpt>
<trkpt lat="46.2548210" lon="10.5565830">
	<ele>1732.20</ele>
	<time>2024-03-09T08:32:19.000Z</time>
</trkpt>
<trkpt lat="46.2548230" lon="10.5565830">
	<ele>1732.20</ele>
	<time>2024-03-09T08:32:20.000Z</time>
</trkpt>
<trkpt lat="46.2548240" lon="10.5565830">
	<ele>1732.00</ele>
	<time>2024-03-09T08:32:21.000Z</time>
</trkpt>
<trkpt lat="46.2548220" lon="10.5565830">
	<ele>1732.00</ele>
	<time>2024-03-09T08:32:22.000Z</time>
</trkpt>
<trkpt lat="46.2548200" lon="10.5565830">
	<ele>1732.00</ele>
	<time>2024-03-09T08:32:23.000Z</time>
</trkpt>
<trkpt lat="46.2548180" lon="10.5565840">
	<ele>1732.00</ele>
	<time>2024-03-09T08:32:24.000Z</time>
</trkpt>
<trkpt lat="46.2548150" lon="10.5565850">
	<ele>1732.00</ele>
	<time>2024-03-09T08:32:25.000Z</time>
</trkpt>
<trkpt lat="46.2548130" lon="10.5565860">
	<ele>1732.00</ele>
	<time>2024-03-09T08:32:26.000Z</time>
</trkpt>
<trkpt lat="46.2548130" lon="10.5565850">
	<ele>1732.00</ele>
	<time>2024-03-09T08:32:27.000Z</time>
</trkpt>
<trkpt lat="46.2548140" lon="10.5565850">
	<ele>1732.00</ele>
	<time>2024-03-09T08:32:28.000Z</time>
</trkpt>
<trkpt lat="46.2548130" lon="10.5565850">
	<ele>1732.00</ele>
	<time>2024-03-09T08:32:29.000Z</time>
</trkpt>
<trkpt lat="46.2548130" lon="10.5565850">
	<ele>1732.00</ele>
	<time>2024-03-09T08:32:30.000Z</time>
</trkpt>
<trkpt lat="46.2548130" lon="10.5565850">
	<ele>1732.00</ele>
	<time>2024-03-09T08:32:31.000Z</time>
</trkpt>
<trkpt lat="46.2548130" lon="10.5565850">
	<ele>1732.00</ele>
	<time>2024-03-09T08:32:32.000Z</time>
</trkpt>
<trkpt lat="46.2548130" lon="10.5565850">
	<ele>1731.80</ele>
	<time>2024-03-09T08:32:33.000Z</time>
</trkpt>
<trkpt lat="46.2548130" lon="10.5565850">
	<ele>1732.00</ele>
	<time>2024-03-09T08:32:34.000Z</time>
</trkpt>
<trkpt lat="46.2548130" lon="10.5565850">
	<ele>1731.80</ele>
	<time>2024-03-09T08:32:35.000Z</time>
</trkpt>
<trkpt lat="46.2548130" lon="10.5565850">
	<ele>1731.80</ele>
	<time>2024-03-09T08:32:36.000Z</time>
</trkpt>
<trkpt lat="46.2548130" lon="10.5565850">
	<ele>1731.80</ele>
	<time>2024-03-09T08:32:37.000Z</time>
</trkpt>
<trkpt lat="46.2548130" lon="10.5565850">
	<ele>1731.80</ele>
	<time>2024-03-09T08:32:38.000Z</time>
</trkpt>
<trkpt lat="46.2548130" lon="10.5565850">
	<ele>1731.80</ele>
	<time>2024-03-09T08:32:39.000Z</time>
</trkpt>
<trkpt lat="46.2548130" lon="10.5565850">
	<ele>1731.80</ele>
	<time>2024-03-09T08:32:40.000Z</time>
</trkpt>
<trkpt lat="46.2548130" lon="10.5565850">
	<ele>1731.80</ele>
	<time>2024-03-09T08:32:41.000Z</time>
</trkpt>
<trkpt lat="46.2548130" lon="10.5565840">
	<ele>1731.80</ele>
	<time>2024-03-09T08:32:42.000Z</time>
</trkpt>
<trkpt lat="46.2548140" lon="10.5565840">
	<ele>1731.80</ele>
	<time>2024-03-09T08:32:43.000Z</time>
</trkpt>
<trkpt lat="46.2548140" lon="10.5565840">
	<ele>1731.80</ele>
	<time>2024-03-09T08:32:44.000Z</time>
</trkpt>
<trkpt lat="46.2548140" lon="10.5565840">
	<ele>1731.80</ele>
	<time>2024-03-09T08:32:45.000Z</time>
</trkpt>
<trkpt lat="46.2548140" lon="10.5565840">
	<ele>1731.80</ele>
	<time>2024-03-09T08:32:46.000Z</time>
</trkpt>
<trkpt lat="46.2548150" lon="10.5565840">
	<ele>1732.00</ele>
	<time>2024-03-09T08:32:47.000Z</time>
</trkpt>
<trkpt lat="46.2548170" lon="10.5565890">
	<ele>1732.00</ele>
	<time>2024-03-09T08:32:48.000Z</time>
</trkpt>
<trkpt lat="46.2548230" lon="10.5566040">
	<ele>1732.00</ele>
	<time>2024-03-09T08:32:49.000Z</time>
</trkpt>
<trkpt lat="46.2548310" lon="10.5566200">
	<ele>1732.00</ele>
	<time>2024-03-09T08:32:50.000Z</time>
</trkpt>
<trkpt lat="46.2548370" lon="10.5566370">
	<ele>1732.00</ele>
	<time>2024-03-09T08:32:51.000Z</time>
</trkpt>
<trkpt lat="46.2548450" lon="10.5566530">
	<ele>1732.00</ele>
	<time>2024-03-09T08:32:52.000Z</time>
</trkpt>
<trkpt lat="46.2548530" lon="10.5566680">
	<ele>1732.20</ele>
	<time>2024-03-09T08:32:53.000Z</time>
</trkpt>
<trkpt lat="46.2548600" lon="10.5566860">
	<ele>1732.20</ele>
	<time>2024-03-09T08:32:54.000Z</time>
</trkpt>
<trkpt lat="46.2548670" lon="10.5567040">
	<ele>1732.20</ele>
	<time>2024-03-09T08:32:55.000Z</time>
</trkpt>
<trkpt lat="46.2548690" lon="10.5567220">
	<ele>1732.20</ele>
	<time>2024-03-09T08:32:56.000Z</time>
</trkpt>
<trkpt lat="46.2548750" lon="10.5567370">
	<ele>1732.40</ele>
	<time>2024-03-09T08:32:57.000Z</time>
</trkpt>
<trkpt lat="46.2548800" lon="10.5567480">
	<ele>1732.40</ele>
	<time>2024-03-09T08:32:58.000Z</time>
</trkpt>
<trkpt lat="46.2548810" lon="10.5567560">
	<ele>1732.40</ele>
	<time>2024-03-09T08:32:59.000Z</time>
</trkpt>
<trkpt lat="46.2548860" lon="10.5567680">
	<ele>1732.40</ele>
	<time>2024-03-09T08:33:00.000Z</time>
</trkpt>
<trkpt lat="46.2548890" lon="10.5567780">
	<ele>1732.60</ele>
	<time>2024-03-09T08:33:01.000Z</time>
</trkpt>
<trkpt lat="46.2548920" lon="10.5567880">
	<ele>1732.60</ele>
	<time>2024-03-09T08:33:02.000Z</time>
</trkpt>
<trkpt lat="46.2548960" lon="10.5567980">
	<ele>1732.60</ele>
	<time>2024-03-09T08:33:03.000Z</time>
</trkpt>
<trkpt lat="46.2548980" lon="10.5568120">
	<ele>1732.60</ele>
	<time>2024-03-09T08:33:04.000Z</time>
</trkpt>
<trkpt lat="46.2548990" lon="10.5568190">
	<ele>1732.60</ele>
	<time>2024-03-09T08:33:05.000Z</time>
</trkpt>
<trkpt lat="46.2549030" lon="10.5568300">
	<ele>1732.80</ele>
	<time>2024-03-09T08:33:06.000Z</time>
</trkpt>
<trkpt lat="46.2549100" lon="10.5568420">
	<ele>1733.00</ele>
	<time>2024-03-09T08:33:07.000Z</time>
</trkpt>
<trkpt lat="46.2549160" lon="10.5568510">
	<ele>1733.00</ele>
	<time>2024-03-09T08:33:08.000Z</time>
</trkpt>
<trkpt lat="46.2549170" lon="10.5568640">
	<ele>1733.20</ele>
	<time>2024-03-09T08:33:09.000Z</time>
</trkpt>
<trkpt lat="46.2549200" lon="10.5568770">
	<ele>1733.20</ele>
	<time>2024-03-09T08:33:10.000Z</time>
</trkpt>
<trkpt lat="46.2549270" lon="10.5568870">
	<ele>1733.40</ele>
	<time>2024-03-09T08:33:11.000Z</time>
</trkpt>
<trkpt lat="46.2549330" lon="10.5569000">
	<ele>1733.60</ele>
	<time>2024-03-09T08:33:12.000Z</time>
</trkpt>
<trkpt lat="46.2549340" lon="10.5569130">
	<ele>1733.60</ele>
	<time>2024-03-09T08:33:13.000Z</time>
</trkpt>
<trkpt lat="46.2549350" lon="10.5569250">
	<ele>1733.60</ele>
	<time>2024-03-09T08:33:14.000Z</time>
</trkpt>
<trkpt lat="46.2549380" lon="10.5569340">
	<ele>1733.60</ele>
	<time>2024-03-09T08:33:15.000Z</time>
</trkpt>
<trkpt lat="46.2549380" lon="10.5569420">
	<ele>1733.60</ele>
	<time>2024-03-09T08:33:16.000Z</time>
</trkpt>
<trkpt lat="46.2549420" lon="10.5569530">
	<ele>1733.80</ele>
	<time>2024-03-09T08:33:17.000Z</time>
</trkpt>
<trkpt lat="46.2549470" lon="10.5569620">
	<ele>1733.80</ele>
	<time>2024-03-09T08:33:18.000Z</time>
</trkpt>
<trkpt lat="46.2549540" lon="10.5569710">
	<ele>1733.80</ele>
	<time>2024-03-09T08:33:19.000Z</time>
</trkpt>
<trkpt lat="46.2549590" lon="10.5569860">
	<ele>1733.80</ele>
	<time>2024-03-09T08:33:20.000Z</time>
</trkpt>
<trkpt lat="46.2549620" lon="10.5569970">
	<ele>1734.00</ele>
	<time>2024-03-09T08:33:21.000Z</time>
</trkpt>
<trkpt lat="46.2549620" lon="10.5570090">
	<ele>1734.20</ele>
	<time>2024-03-09T08:33:22.000Z</time>
</trkpt>
<trkpt lat="46.2549660" lon="10.5570190">
	<ele>1734.20</ele>
	<time>2024-03-09T08:33:23.000Z</time>
</trkpt>
<trkpt lat="46.2549740" lon="10.5570310">
	<ele>1734.20</ele>
	<time>2024-03-09T08:33:24.000Z</time>
</trkpt>
<trkpt lat="46.2549820" lon="10.5570390">
	<ele>1734.40</ele>
	<time>2024-03-09T08:33:25.000Z</time>
</trkpt>
<trkpt lat="46.2549890" lon="10.5570500">
	<ele>1734.40</ele>
	<time>2024-03-09T08:33:26.000Z</time>
</trkpt>
<trkpt lat="46.2549970" lon="10.5570650">
	<ele>1734.60</ele>
	<time>2024-03-09T08:33:27.000Z</time>
</trkpt>
<trkpt lat="46.2549990" lon="10.5570740">
	<ele>1734.60</ele>
	<time>2024-03-09T08:33:28.000Z</time>
</trkpt>
<trkpt lat="46.2550010" lon="10.5570840">
	<ele>1734.60</ele>
	<time>2024-03-09T08:33:29.000Z</time>
</trkpt>
<trkpt lat="46.2550030" lon="10.5570970">
	<ele>1734.60</ele>
	<time>2024-03-09T08:33:30.000Z</time>
</trkpt>
<trkpt lat="46.2550020" lon="10.5571110">
	<ele>1734.60</ele>
	<time>2024-03-09T08:33:31.000Z</time>
</trkpt>
<trkpt lat="46.2550040" lon="10.5571230">
	<ele>1734.60</ele>
	<time>2024-03-09T08:33:32.000Z</time>
</trkpt>
<trkpt lat="46.2550060" lon="10.5571320">
	<ele>1734.60</ele>
	<time>2024-03-09T08:33:33.000Z</time>
</trkpt>
<trkpt lat="46.2550080" lon="10.5571440">
	<ele>1734.60</ele>
	<time>2024-03-09T08:33:34.000Z</time>
</trkpt>
<trkpt lat="46.2550100" lon="10.5571530">
	<ele>1734.80</ele>
	<time>2024-03-09T08:33:35.000Z</time>
</trkpt>
<trkpt lat="46.2550160" lon="10.5571630">
	<ele>1734.80</ele>
	<time>2024-03-09T08:33:36.000Z</time>
</trkpt>
<trkpt lat="46.2550230" lon="10.5571720">
	<ele>1734.80</ele>
	<time>2024-03-09T08:33:37.000Z</time>
</trkpt>
<trkpt lat="46.2550270" lon="10.5571850">
	<ele>1734.80</ele>
	<time>2024-03-09T08:33:38.000Z</time>
</trkpt>
<trkpt lat="46.2550320" lon="10.5571940">
	<ele>1734.80</ele>
	<time>2024-03-09T08:33:39.000Z</time>
</trkpt>
<trkpt lat="46.2550340" lon="10.5572060">
	<ele>1734.80</ele>
	<time>2024-03-09T08:33:40.000Z</time>
</trkpt>
<trkpt lat="46.2550390" lon="10.5572170">
	<ele>1735.00</ele>
	<time>2024-03-09T08:33:41.000Z</time>
</trkpt>
<trkpt lat="46.2550410" lon="10.5572310">
	<ele>1735.00</ele>
	<time>2024-03-09T08:33:42.000Z</time>
</trkpt>
<trkpt lat="46.2550410" lon="10.5572420">
	<ele>1735.00</ele>
	<time>2024-03-09T08:33:43.000Z</time>
</trkpt>
<trkpt lat="46.2550450" lon="10.5572510">
	<ele>1735.00</ele>
	<time>2024-03-09T08:33:44.000Z</time>
</trkpt>
<trkpt lat="46.2550470" lon="10.5572610">
	<ele>1735.20</ele>
	<time>2024-03-09T08:33:45.000Z</time>
</trkpt>
<trkpt lat="46.2550510" lon="10.5572740">
	<ele>1735.20</ele>
	<time>2024-03-09T08:33:46.000Z</time>
</trkpt>
<trkpt lat="46.2550540" lon="10.5572850">
	<ele>1735.20</ele>
	<time>2024-03-09T08:33:47.000Z</time>
</trkpt>
<trkpt lat="46.2550560" lon="10.5572980">
	<ele>1735.20</ele>
	<time>2024-03-09T08:33:48.000Z</time>
</trkpt>
<trkpt lat="46.2550530" lon="10.5573130">
	<ele>1735.40</ele>
	<time>2024-03-09T08:33:49.000Z</time>
</trkpt>
<trkpt lat="46.2550560" lon="10.5573270">
	<ele>1735.60</ele>
	<time>2024-03-09T08:33:50.000Z</time>
</trkpt>
<trkpt lat="46.2550590" lon="10.5573390">
	<ele>1735.60</ele>
	<time>2024-03-09T08:33:51.000Z</time>
</trkpt>
<trkpt lat="46.2550630" lon="10.5573490">
	<ele>1735.60</ele>
	<time>2024-03-09T08:33:52.000Z</time>
</trkpt>
<trkpt lat="46.2550660" lon="10.5573590">
	<ele>1735.80</ele>
	<time>2024-03-09T08:33:53.000Z</time>
</trkpt>
<trkpt lat="46.2550720" lon="10.5573680">
	<ele>1735.80</ele>
	<time>2024-03-09T08:33:54.000Z</time>
</trkpt>
<trkpt lat="46.2550780" lon="10.5573780">
	<ele>1735.80</ele>
	<time>2024-03-09T08:33:55.000Z</time>
</trkpt>
<trkpt lat="46.2550800" lon="10.5573890">
	<ele>1736.00</ele>
	<time>2024-03-09T08:33:56.000Z</time>
</trkpt>
<trkpt lat="46.2550820" lon="10.5574010">
	<ele>1736.00</ele>
	<time>2024-03-09T08:33:57.000Z</time>
</trkpt>
<trkpt lat="46.2550870" lon="10.5574100">
	<ele>1736.00</ele>
	<time>2024-03-09T08:33:58.000Z</time>
</trkpt>
<trkpt lat="46.2550910" lon="10.5574190">
	<ele>1736.20</ele>
	<time>2024-03-09T08:33:59.000Z</time>
</trkpt>
<trkpt lat="46.2550940" lon="10.5574310">
	<ele>1736.40</ele>
	<time>2024-03-09T08:34:00.000Z</time>
</trkpt>
<trkpt lat="46.2550950" lon="10.5574430">
	<ele>1736.40</ele>
	<time>2024-03-09T08:34:01.000Z</time>
</trkpt>
<trkpt lat="46.2550990" lon="10.5574530">
	<ele>1736.60</ele>
	<time>2024-03-09T08:34:02.000Z</time>
</trkpt>
<trkpt lat="46.2551050" lon="10.5574630">
	<ele>1736.60</ele>
	<time>2024-03-09T08:34:03.000Z</time>
</trkpt>
<trkpt lat="46.2551080" lon="10.5574750">
	<ele>1736.80</ele>
	<time>2024-03-09T08:34:04.000Z</time>
</trkpt>
<trkpt lat="46.2551100" lon="10.5574930">
	<ele>1736.80</ele>
	<time>2024-03-09T08:34:05.000Z</time>
</trkpt>
<trkpt lat="46.2551120" lon="10.5575050">
	<ele>1737.00</ele>
	<time>2024-03-09T08:34:06.000Z</time>
</trkpt>
<trkpt lat="46.2551160" lon="10.5575160">
	<ele>1737.20</ele>
	<time>2024-03-09T08:34:07.000Z</time>
</trkpt>
<trkpt lat="46.2551150" lon="10.5575270">
	<ele>1737.20</ele>
	<time>2024-03-09T08:34:08.000Z</time>
</trkpt>
<trkpt lat="46.2551230" lon="10.5575420">
	<ele>1737.20</ele>
	<time>2024-03-09T08:34:09.000Z</time>
</trkpt>
<trkpt lat="46.2551390" lon="10.5575480">
	<ele>1737.40</ele>
	<time>2024-03-09T08:34:10.000Z</time>
</trkpt>
<trkpt lat="46.2551470" lon="10.5575570">
	<ele>1737.40</ele>
	<time>2024-03-09T08:34:11.000Z</time>
</trkpt>
<trkpt lat="46.2551500" lon="10.5575740">
	<ele>1737.40</ele>
	<time>2024-03-09T08:34:12.000Z</time>
</trkpt>
<trkpt lat="46.2551550" lon="10.5575790">
	<ele>1737.60</ele>
	<time>2024-03-09T08:34:13.000Z</time>
</trkpt>
<trkpt lat="46.2551580" lon="10.5575870">
	<ele>1737.60</ele>
	<time>2024-03-09T08:34:14.000Z</time>
</trkpt>
<trkpt lat="46.2551620" lon="10.5575950">
	<ele>1737.80</ele>
	<time>2024-03-09T08:34:15.000Z</time>
</trkpt>
<trkpt lat="46.2551670" lon="10.5576080">
	<ele>1737.80</ele>
	<time>2024-03-09T08:34:16.000Z</time>
</trkpt>
<trkpt lat="46.2551720" lon="10.5576170">
	<ele>1738.00</ele>
	<time>2024-03-09T08:34:17.000Z</time>
</trkpt>
<trkpt lat="46.2551750" lon="10.5576280">
	<ele>1738.20</ele>
	<time>2024-03-09T08:34:18.000Z</time>
</trkpt>
<trkpt lat="46.2551760" lon="10.5576380">
	<ele>1738.20</ele>
	<time>2024-03-09T08:34:19.000Z</time>
</trkpt>
<trkpt lat="46.2551740" lon="10.5576550">
	<ele>1738.20</ele>
	<time>2024-03-09T08:34:20.000Z</time>
</trkpt>
<trkpt lat="46.2551750" lon="10.5576670">
	<ele>1738.40</ele>
	<time>2024-03-09T08:34:21.000Z</time>
</trkpt>
<trkpt lat="46.2551760" lon="10.5576780">
	<ele>1738.40</ele>
	<time>2024-03-09T08:34:22.000Z</time>
</trkpt>
<trkpt lat="46.2551780" lon="10.5576910">
	<ele>1738.40</ele>
	<time>2024-03-09T08:34:23.000Z</time>
</trkpt>
<trkpt lat="46.2551810" lon="10.5577020">
	<ele>1738.60</ele>
	<time>2024-03-09T08:34:24.000Z</time>
</trkpt>
<trkpt lat="46.2551830" lon="10.5577130">
	<ele>1738.60</ele>
	<time>2024-03-09T08:34:25.000Z</time>
</trkpt>
<trkpt lat="46.2551850" lon="10.5577220">
	<ele>1738.80</ele>
	<time>2024-03-09T08:34:26.000Z</time>
</trkpt>
<trkpt lat="46.2551870" lon="10.5577330">
	<ele>1739.00</ele>
	<time>2024-03-09T08:34:27.000Z</time>
</trkpt>
<trkpt lat="46.2551880" lon="10.5577440">
	<ele>1739.20</ele>
	<time>2024-03-09T08:34:28.000Z</time>
</trkpt>
<trkpt lat="46.2551900" lon="10.5577540">
	<ele>1739.20</ele>
	<time>2024-03-09T08:34:29.000Z</time>
</trkpt>
<trkpt lat="46.2551890" lon="10.5577650">
	<ele>1739.20</ele>
	<time>2024-03-09T08:34:30.000Z</time>
</trkpt>
<trkpt lat="46.2551850" lon="10.5577770">
	<ele>1739.40</ele>
	<time>2024-03-09T08:34:31.000Z</time>
</trkpt>
<trkpt lat="46.2551860" lon="10.5577860">
	<ele>1739.60</ele>
	<time>2024-03-09T08:34:32.000Z</time>
</trkpt>
<trkpt lat="46.2551900" lon="10.5577960">
	<ele>1739.60</ele>
	<time>2024-03-09T08:34:33.000Z</time>
</trkpt>
<trkpt lat="46.2551890" lon="10.5578080">
	<ele>1739.80</ele>
	<time>2024-03-09T08:34:34.000Z</time>
</trkpt>
<trkpt lat="46.2551930" lon="10.5578160">
	<ele>1739.80</ele>
	<time>2024-03-09T08:34:35.000Z</time>
</trkpt>
<trkpt lat="46.2552030" lon="10.5578280">
	<ele>1740.00</ele>
	<time>2024-03-09T08:34:36.000Z</time>
</trkpt>
<trkpt lat="46.2552070" lon="10.5578420">
	<ele>1740.00</ele>
	<time>2024-03-09T08:34:37.000Z</time>
</trkpt>
<trkpt lat="46.2552110" lon="10.5578480">
	<ele>1740.20</ele>
	<time>2024-03-09T08:34:38.000Z</time>
</trkpt>
<trkpt lat="46.2552150" lon="10.5578610">
	<ele>1740.40</ele>
	<time>2024-03-09T08:34:39.000Z</time>
</trkpt>
<trkpt lat="46.2552170" lon="10.5578700">
	<ele>1740.40</ele>
	<time>2024-03-09T08:34:40.000Z</time>
</trkpt>
<trkpt lat="46.2552190" lon="10.5578790">
	<ele>1740.60</ele>
	<time>2024-03-09T08:34:41.000Z</time>
</trkpt>
<trkpt lat="46.2552220" lon="10.5578890">
	<ele>1740.60</ele>
	<time>2024-03-09T08:34:42.000Z</time>
</trkpt>
<trkpt lat="46.2552270" lon="10.5579010">
	<ele>1740.80</ele>
	<time>2024-03-09T08:34:43.000Z</time>
</trkpt>
<trkpt lat="46.2552330" lon="10.5579100">
	<ele>1741.00</ele>
	<time>2024-03-09T08:34:44.000Z</time>
</trkpt>
<trkpt lat="46.2552340" lon="10.5579230">
	<ele>1741.00</ele>
	<time>2024-03-09T08:34:45.000Z</time>
</trkpt>
<trkpt lat="46.2552340" lon="10.5579370">
	<ele>1741.20</ele>
	<time>2024-03-09T08:34:46.000Z</time>
</trkpt>
<trkpt lat="46.2552420" lon="10.5579480">
	<ele>1741.20</ele>
	<time>2024-03-09T08:34:47.000Z</time>
</trkpt>
<trkpt lat="46.2552520" lon="10.5579530">
	<ele>1741.40</ele>
	<time>2024-03-09T08:34:48.000Z</time>
</trkpt>
<trkpt lat="46.2552550" lon="10.5579610">
	<ele>1741.60</ele>
	<time>2024-03-09T08:34:49.000Z</time>
</trkpt>
<trkpt lat="46.2552550" lon="10.5579730">
	<ele>1741.60</ele>
	<time>2024-03-09T08:34:50.000Z</time>
</trkpt>
<trkpt lat="46.2552570" lon="10.5579850">
	<ele>1741.60</ele>
	<time>2024-03-09T08:34:51.000Z</time>
</trkpt>
<trkpt lat="46.2552550" lon="10.5579960">
	<ele>1741.60</ele>
	<time>2024-03-09T08:34:52.000Z</time>
</trkpt>
<trkpt lat="46.2552540" lon="10.5580080">
	<ele>1741.80</ele>
	<time>2024-03-09T08:34:53.000Z</time>
</trkpt>
<trkpt lat="46.2552540" lon="10.5580190">
	<ele>1741.80</ele>
	<time>2024-03-09T08:34:54.000Z</time>
</trkpt>
<trkpt lat="46.2552630" lon="10.5580300">
	<ele>1741.80</ele>
	<time>2024-03-09T08:34:55.000Z</time>
</trkpt>
<trkpt lat="46.2552640" lon="10.5580360">
	<ele>1742.00</ele>
	<time>2024-03-09T08:34:56.000Z</time>
</trkpt>
<trkpt lat="46.2552680" lon="10.5580440">
	<ele>1742.20</ele>
	<time>2024-03-09T08:34:57.000Z</time>
</trkpt>
<trkpt lat="46.2552750" lon="10.5580570">
	<ele>1742.40</ele>
	<time>2024-03-09T08:34:58.000Z</time>
</trkpt>
<trkpt lat="46.2552830" lon="10.5580660">
	<ele>1742.40</ele>
	<time>2024-03-09T08:34:59.000Z</time>
</trkpt>
<trkpt lat="46.2552850" lon="10.5580770">
	<ele>1742.60</ele>
	<time>2024-03-09T08:35:00.000Z</time>
</trkpt>
<trkpt lat="46.2552900" lon="10.5580880">
	<ele>1742.60</ele>
	<time>2024-03-09T08:35:01.000Z</time>
</trkpt>
<trkpt lat="46.2552950" lon="10.5580970">
	<ele>1742.80</ele>
	<time>2024-03-09T08:35:02.000Z</time>
</trkpt>
<trkpt lat="46.2552990" lon="10.5581090">
	<ele>1742.80</ele>
	<time>2024-03-09T08:35:03.000Z</time>
</trkpt>
<trkpt lat="46.2553050" lon="10.5581160">
	<ele>1743.00</ele>
	<time>2024-03-09T08:35:04.000Z</time>
</trkpt>
<trkpt lat="46.2553070" lon="10.5581270">
	<ele>1743.00</ele>
	<time>2024-03-09T08:35:05.000Z</time>
</trkpt>
<trkpt lat="46.2553100" lon="10.5581380">
	<ele>1743.20</ele>
	<time>2024-03-09T08:35:06.000Z</time>
</trkpt>
<trkpt lat="46.2553140" lon="10.5581520">
	<ele>1743.20</ele>
	<time>2024-03-09T08:35:07.000Z</time>
</trkpt>
<trkpt lat="46.2553140" lon="10.5581660">
	<ele>1743.20</ele>
	<time>2024-03-09T08:35:08.000Z</time>
</trkpt>
<trkpt lat="46.2553210" lon="10.5581810">
	<ele>1743.20</ele>
	<time>2024-03-09T08:35:09.000Z</time>
</trkpt>
<trkpt lat="46.2553270" lon="10.5581910">
	<ele>1743.40</ele>
	<time>2024-03-09T08:35:10.000Z</time>
</trkpt>
<trkpt lat="46.2553320" lon="10.5582020">
	<ele>1743.40</ele>
	<time>2024-03-09T08:35:11.000Z</time>
</trkpt>
<trkpt lat="46.2553360" lon="10.5582140">
	<ele>1743.60</ele>
	<time>2024-03-09T08:35:12.000Z</time>
</trkpt>
<trkpt lat="46.2553390" lon="10.5582210">
	<ele>1743.80</ele>
	<time>2024-03-09T08:35:13.000Z</time>
</trkpt>
<trkpt lat="46.2553420" lon="10.5582300">
	<ele>1744.00</ele>
	<time>2024-03-09T08:35:14.000Z</time>
</trkpt>
<trkpt lat="46.2553430" lon="10.5582380">
	<ele>1744.00</ele>
	<time>2024-03-09T08:35:15.000Z</time>
</trkpt>
<trkpt lat="46.2553480" lon="10.5582500">
	<ele>1744.20</ele>
	<time>2024-03-09T08:35:16.000Z</time>
</trkpt>
<trkpt lat="46.2553510" lon="10.5582660">
	<ele>1744.40</ele>
	<time>2024-03-09T08:35:17.000Z</time>
</trkpt>
<trkpt lat="46.2553540" lon="10.5582770">
	<ele>1744.40</ele>
	<time>2024-03-09T08:35:18.000Z</time>
</trkpt>
<trkpt lat="46.2553570" lon="10.5582890">
	<ele>1744.40</ele>
	<time>2024-03-09T08:35:19.000Z</time>
</trkpt>
<trkpt lat="46.2553600" lon="10.5583000">
	<ele>1744.60</ele>
	<time>2024-03-09T08:35:20.000Z</time>
</trkpt>
<trkpt lat="46.2553600" lon="10.5583070">
	<ele>1744.60</ele>
	<time>2024-03-09T08:35:21.000Z</time>
</trkpt>
<trkpt lat="46.2553620" lon="10.5583150">
	<ele>1744.80</ele>
	<time>2024-03-09T08:35:22.000Z</time>
</trkpt>
<trkpt lat="46.2553660" lon="10.5583250">
	<ele>1745.00</ele>
	<time>2024-03-09T08:35:23.000Z</time>
</trkpt>
<trkpt lat="46.2553680" lon="10.5583350">
	<ele>1745.00</ele>
	<time>2024-03-09T08:35:24.000Z</time>
</trkpt>
<trkpt lat="46.2553710" lon="10.5583420">
	<ele>1745.20</ele>
	<time>2024-03-09T08:35:25.000Z</time>
</trkpt>
<trkpt lat="46.2553790" lon="10.5583520">
	<ele>1745.20</ele>
	<time>2024-03-09T08:35:26.000Z</time>
</trkpt>
<trkpt lat="46.2553840" lon="10.5583630">
	<ele>1745.40</ele>
	<time>2024-03-09T08:35:27.000Z</time>
</trkpt>
<trkpt lat="46.2553880" lon="10.5583730">
	<ele>1745.60</ele>
	<time>2024-03-09T08:35:28.000Z</time>
</trkpt>
<trkpt lat="46.2553910" lon="10.5583800">
	<ele>1745.60</ele>
	<time>2024-03-09T08:35:29.000Z</time>
</trkpt>
<trkpt lat="46.2553930" lon="10.5583880">
	<ele>1745.80</ele>
	<time>2024-03-09T08:35:30.000Z</time>
</trkpt>
<trkpt lat="46.2553960" lon="10.5583990">
	<ele>1746.00</ele>
	<time>2024-03-09T08:35:31.000Z</time>
</trkpt>
<trkpt lat="46.2554010" lon="10.5584070">
	<ele>1746.00</ele>
	<time>2024-03-09T08:35:32.000Z</time>
</trkpt>
<trkpt lat="46.2554040" lon="10.5584140">
	<ele>1746.20</ele>
	<time>2024-03-09T08:35:33.000Z</time>
</trkpt>
<trkpt lat="46.2554060" lon="10.5584210">
	<ele>1746.40</ele>
	<time>2024-03-09T08:35:34.000Z</time>
</trkpt>
<trkpt lat="46.2554060" lon="10.5584250">
	<ele>1746.40</ele>
	<time>2024-03-09T08:35:35.000Z</time>
</trkpt>
<trkpt lat="46.2554060" lon="10.5584270">
	<ele>1746.40</ele>
	<time>2024-03-09T08:35:36.000Z</time>
</trkpt>
<trkpt lat="46.2554060" lon="10.5584270">
	<ele>1746.40</ele>
	<time>2024-03-09T08:35:37.000Z</time>
</trkpt>
<trkpt lat="46.2554090" lon="10.5584270">
	<ele>1746.40</ele>
	<time>2024-03-09T08:35:38.000Z</time>
</trkpt>
<trkpt lat="46.2554110" lon="10.5584270">
	<ele>1746.60</ele>
	<time>2024-03-09T08:35:39.000Z</time>
</trkpt>
<trkpt lat="46.2554120" lon="10.5584270">
	<ele>1746.40</ele>
	<time>2024-03-09T08:35:40.000Z</time>
</trkpt>
<trkpt lat="46.2554130" lon="10.5584280">
	<ele>1746.60</ele>
	<time>2024-03-09T08:35:41.000Z</time>
</trkpt>
<trkpt lat="46.2554130" lon="10.5584290">
	<ele>1746.60</ele>
	<time>2024-03-09T08:35:42.000Z</time>
</trkpt>
<trkpt lat="46.2554150" lon="10.5584280">
	<ele>1746.40</ele>
	<time>2024-03-09T08:35:43.000Z</time>
</trkpt>
<trkpt lat="46.2554180" lon="10.5584270">
	<ele>1746.40</ele>
	<time>2024-03-09T08:35:44.000Z</time>
</trkpt>
<trkpt lat="46.2554150" lon="10.5584290">
	<ele>1746.40</ele>
	<time>2024-03-09T08:35:45.000Z</time>
</trkpt>
<trkpt lat="46.2554150" lon="10.5584290">
	<ele>1746.40</ele>
	<time>2024-03-09T08:35:46.000Z</time>
</trkpt>
<trkpt lat="46.2554150" lon="10.5584290">
	<ele>1746.40</ele>
	<time>2024-03-09T08:35:47.000Z</time>
</trkpt>
<trkpt lat="46.2554150" lon="10.5584290">
	<ele>1746.40</ele>
	<time>2024-03-09T08:35:48.000Z</time>
</trkpt>
<trkpt lat="46.2554150" lon="10.5584290">
	<ele>1746.40</ele>
	<time>2024-03-09T08:35:49.000Z</time>
</trkpt>
<trkpt lat="46.2554150" lon="10.5584290">
	<ele>1746.40</ele>
	<time>2024-03-09T08:35:50.000Z</time>
</trkpt>
<trkpt lat="46.2554150" lon="10.5584290">
	<ele>1746.40</ele>
	<time>2024-03-09T08:35:51.000Z</time>
</trkpt>
<trkpt lat="46.2554150" lon="10.5584290">
	<ele>1746.60</ele>
	<time>2024-03-09T08:35:52.000Z</time>
</trkpt>
<trkpt lat="46.2554150" lon="10.5584290">
	<ele>1746.60</ele>
	<time>2024-03-09T08:35:53.000Z</time>
</trkpt>
<trkpt lat="46.2554150" lon="10.5584290">
	<ele>1746.80</ele>
	<time>2024-03-09T08:35:54.000Z</time>
</trkpt>
<trkpt lat="46.2554150" lon="10.5584290">
	<ele>1747.00</ele>
	<time>2024-03-09T08:35:55.000Z</time>
</trkpt>
<trkpt lat="46.2554150" lon="10.5584290">
	<ele>1747.20</ele>
	<time>2024-03-09T08:35:56.000Z</time>
</trkpt>
<trkpt lat="46.2554150" lon="10.5584290">
	<ele>1747.20</ele>
	<time>2024-03-09T08:35:57.000Z</time>
</trkpt>
<trkpt lat="46.2554150" lon="10.5584290">
	<ele>1747.40</ele>
	<time>2024-03-09T08:35:58.000Z</time>
</trkpt>
<trkpt lat="46.2554190" lon="10.5584360">
	<ele>1747.40</ele>
	<time>2024-03-09T08:35:59.000Z</time>
</trkpt>
<trkpt lat="46.2554280" lon="10.5584540">
	<ele>1747.60</ele>
	<time>2024-03-09T08:36:00.000Z</time>
</trkpt>
<trkpt lat="46.2554340" lon="10.5584690">
	<ele>1747.60</ele>
	<time>2024-03-09T08:36:01.000Z</time>
</trkpt>
<trkpt lat="46.2554390" lon="10.5584850">
	<ele>1747.80</ele>
	<time>2024-03-09T08:36:02.000Z</time>
</trkpt>
<trkpt lat="46.2554470" lon="10.5585010">
	<ele>1748.00</ele>
	<time>2024-03-09T08:36:03.000Z</time>
</trkpt>
<trkpt lat="46.2554540" lon="10.5585160">
	<ele>1748.20</ele>
	<time>2024-03-09T08:36:04.000Z</time>
</trkpt>
<trkpt lat="46.2554600" lon="10.5585350">
	<ele>1748.20</ele>
	<time>2024-03-09T08:36:05.000Z</time>
</trkpt>
<trkpt lat="46.2554650" lon="10.5585510">
	<ele>1748.40</ele>
	<time>2024-03-09T08:36:06.000Z</time>
</trkpt>
<trkpt lat="46.2554680" lon="10.5585660">
	<ele>1748.60</ele>
	<time>2024-03-09T08:36:07.000Z</time>
</trkpt>
<trkpt lat="46.2554760" lon="10.5585820">
	<ele>1748.80</ele>
	<time>2024-03-09T08:36:08.000Z</time>
</trkpt>
<trkpt lat="46.2554790" lon="10.5585900">
	<ele>1748.80</ele>
	<time>2024-03-09T08:36:09.000Z</time>
</trkpt>
<trkpt lat="46.2554840" lon="10.5585950">
	<ele>1748.80</ele>
	<time>2024-03-09T08:36:10.000Z</time>
</trkpt>
<trkpt lat="46.2554880" lon="10.5586040">
	<ele>1749.00</ele>
	<time>2024-03-09T08:36:11.000Z</time>
</trkpt>
<trkpt lat="46.2554900" lon="10.5586110">
	<ele>1749.20</ele>
	<time>2024-03-09T08:36:12.000Z</time>
</trkpt>
<trkpt lat="46.2554930" lon="10.5586180">
	<ele>1749.40</ele>
	<time>2024-03-09T08:36:13.000Z</time>
</trkpt>
<trkpt lat="46.2554980" lon="10.5586290">
	<ele>1749.40</ele>
	<time>2024-03-09T08:36:14.000Z</time>
</trkpt>
<trkpt lat="46.2554960" lon="10.5586380">
	<ele>1749.60</ele>
	<time>2024-03-09T08:36:15.000Z</time>
</trkpt>
<trkpt lat="46.2554960" lon="10.5586460">
	<ele>1749.60</ele>
	<time>2024-03-09T08:36:16.000Z</time>
</trkpt>
<trkpt lat="46.2554960" lon="10.5586590">
	<ele>1749.80</ele>
	<time>2024-03-09T08:36:17.000Z</time>
</trkpt>
<trkpt lat="46.2554990" lon="10.5586690">
	<ele>1750.00</ele>
	<time>2024-03-09T08:36:18.000Z</time>
</trkpt>
<trkpt lat="46.2555020" lon="10.5586780">
	<ele>1750.20</ele>
	<time>2024-03-09T08:36:19.000Z</time>
</trkpt>
<trkpt lat="46.2555050" lon="10.5586880">
	<ele>1750.20</ele>
	<time>2024-03-09T08:36:20.000Z</time>
</trkpt>
<trkpt lat="46.2555100" lon="10.5586960">
	<ele>1750.40</ele>
	<time>2024-03-09T08:36:21.000Z</time>
</trkpt>
<trkpt lat="46.2555140" lon="10.5587050">
	<ele>1750.40</ele>
	<time>2024-03-09T08:36:22.000Z</time>
</trkpt>
<trkpt lat="46.2555210" lon="10.5587120">
	<ele>1750.40</ele>
	<time>2024-03-09T08:36:23.000Z</time>
</trkpt>
<trkpt lat="46.2555250" lon="10.5587180">
	<ele>1750.60</ele>
	<time>2024-03-09T08:36:24.000Z</time>
</trkpt>
<trkpt lat="46.2555290" lon="10.5587260">
	<ele>1750.60</ele>
	<time>2024-03-09T08:36:25.000Z</time>
</trkpt>
<trkpt lat="46.2555370" lon="10.5587370">
	<ele>1750.80</ele>
	<time>2024-03-09T08:36:26.000Z</time>
</trkpt>
<trkpt lat="46.2555410" lon="10.5587430">
	<ele>1751.00</ele>
	<time>2024-03-09T08:36:27.000Z</time>
</trkpt>
<trkpt lat="46.2555460" lon="10.5587480">
	<ele>1751.20</ele>
	<time>2024-03-09T08:36:28.000Z</time>
</trkpt>
<trkpt lat="46.2555500" lon="10.5587560">
	<ele>1751.20</ele>
	<time>2024-03-09T08:36:29.000Z</time>
</trkpt>
<trkpt lat="46.2555550" lon="10.5587610">
	<ele>1751.40</ele>
	<time>2024-03-09T08:36:30.000Z</time>
</trkpt>
<trkpt lat="46.2555610" lon="10.5587660">
	<ele>1751.40</ele>
	<time>2024-03-09T08:36:31.000Z</time>
</trkpt>
<trkpt lat="46.2555670" lon="10.5587690">
	<ele>1751.60</ele>
	<time>2024-03-09T08:36:32.000Z</time>
</trkpt>
<trkpt lat="46.2555710" lon="10.5587740">
	<ele>1751.60</ele>
	<time>2024-03-09T08:36:33.000Z</time>
</trkpt>
<trkpt lat="46.2555740" lon="10.5587830">
	<ele>1751.80</ele>
	<time>2024-03-09T08:36:34.000Z</time>
</trkpt>
<trkpt lat="46.2555800" lon="10.5587890">
	<ele>1752.00</ele>
	<time>2024-03-09T08:36:35.000Z</time>
</trkpt>
<trkpt lat="46.2555850" lon="10.5587960">
	<ele>1752.20</ele>
	<time>2024-03-09T08:36:36.000Z</time>
</trkpt>
<trkpt lat="46.2555920" lon="10.5588040">
	<ele>1752.40</ele>
	<time>2024-03-09T08:36:37.000Z</time>
</trkpt>
<trkpt lat="46.2556000" lon="10.5588120">
	<ele>1752.40</ele>
	<time>2024-03-09T08:36:38.000Z</time>
</trkpt>
<trkpt lat="46.2556050" lon="10.5588190">
	<ele>1752.60</ele>
	<time>2024-03-09T08:36:39.000Z</time>
</trkpt>
<trkpt lat="46.2556140" lon="10.5588290">
	<ele>1752.80</ele>
	<time>2024-03-09T08:36:40.000Z</time>
</trkpt>
<trkpt lat="46.2556190" lon="10.5588330">
	<ele>1752.80</ele>
	<time>2024-03-09T08:36:41.000Z</time>
</trkpt>
<trkpt lat="46.2556260" lon="10.5588400">
	<ele>1753.00</ele>
	<time>2024-03-09T08:36:42.000Z</time>
</trkpt>
<trkpt lat="46.2556270" lon="10.5588470">
	<ele>1753.20</ele>
	<time>2024-03-09T08:36:43.000Z</time>
</trkpt>
<trkpt lat="46.2556300" lon="10.5588510">
	<ele>1753.20</ele>
	<time>2024-03-09T08:36:44.000Z</time>
</trkpt>
<trkpt lat="46.2556370" lon="10.5588550">
	<ele>1753.60</ele>
	<time>2024-03-09T08:36:45.000Z</time>
</trkpt>
<trkpt lat="46.2556450" lon="10.5588630">
	<ele>1753.60</ele>
	<time>2024-03-09T08:36:46.000Z</time>
</trkpt>
<trkpt lat="46.2556490" lon="10.5588700">
	<ele>1753.80</ele>
	<time>2024-03-09T08:36:47.000Z</time>
</trkpt>
<trkpt lat="46.2556540" lon="10.5588790">
	<ele>1753.80</ele>
	<time>2024-03-09T08:36:48.000Z</time>
</trkpt>
<trkpt lat="46.2556590" lon="10.5588870">
	<ele>1754.00</ele>
	<time>2024-03-09T08:36:49.000Z</time>
</trkpt>
<trkpt lat="46.2556630" lon="10.5588940">
	<ele>1754.20</ele>
	<time>2024-03-09T08:36:50.000Z</time>
</trkpt>
<trkpt lat="46.2556660" lon="10.5589020">
	<ele>1754.40</ele>
	<time>2024-03-09T08:36:51.000Z</time>
</trkpt>
<trkpt lat="46.2556750" lon="10.5589150">
	<ele>1754.60</ele>
	<time>2024-03-09T08:36:52.000Z</time>
</trkpt>
<trkpt lat="46.2556800" lon="10.5589200">
	<ele>1754.60</ele>
	<time>2024-03-09T08:36:53.000Z</time>
</trkpt>
<trkpt lat="46.2556820" lon="10.5589280">
	<ele>1754.60</ele>
	<time>2024-03-09T08:36:54.000Z</time>
</trkpt>
<trkpt lat="46.2556850" lon="10.5589360">
	<ele>1754.80</ele>
	<time>2024-03-09T08:36:55.000Z</time>
</trkpt>
<trkpt lat="46.2556900" lon="10.5589430">
	<ele>1755.00</ele>
	<time>2024-03-09T08:36:56.000Z</time>
</trkpt>
<trkpt lat="46.2556920" lon="10.5589520">
	<ele>1755.20</ele>
	<time>2024-03-09T08:36:57.000Z</time>
</trkpt>
<trkpt lat="46.2556950" lon="10.5589600">
	<ele>1755.40</ele>
	<time>2024-03-09T08:36:58.000Z</time>
</trkpt>
<trkpt lat="46.2557030" lon="10.5589670">
	<ele>1755.40</ele>
	<time>2024-03-09T08:36:59.000Z</time>
</trkpt>
<trkpt lat="46.2557090" lon="10.5589720">
	<ele>1755.60</ele>
	<time>2024-03-09T08:37:00.000Z</time>
</trkpt>
<trkpt lat="46.2557110" lon="10.5589830">
	<ele>1755.60</ele>
	<time>2024-03-09T08:37:01.000Z</time>
</trkpt>
<trkpt lat="46.2557150" lon="10.5589910">
	<ele>1755.80</ele>
	<time>2024-03-09T08:37:02.000Z</time>
</trkpt>
<trkpt lat="46.2557210" lon="10.5590000">
	<ele>1755.80</ele>
	<time>2024-03-09T08:37:03.000Z</time>
</trkpt>
<trkpt lat="46.2557250" lon="10.5590040">
	<ele>1756.20</ele>
	<time>2024-03-09T08:37:04.000Z</time>
</trkpt>
<trkpt lat="46.2557300" lon="10.5590130">
	<ele>1756.20</ele>
	<time>2024-03-09T08:37:05.000Z</time>
</trkpt>
<trkpt lat="46.2557390" lon="10.5590240">
	<ele>1756.40</ele>
	<time>2024-03-09T08:37:06.000Z</time>
</trkpt>
<trkpt lat="46.2557420" lon="10.5590360">
	<ele>1756.40</ele>
	<time>2024-03-09T08:37:07.000Z</time>
</trkpt>
<trkpt lat="46.2557430" lon="10.5590460">
	<ele>1756.60</ele>
	<time>2024-03-09T08:37:08.000Z</time>
</trkpt>
<trkpt lat="46.2557470" lon="10.5590550">
	<ele>1756.60</ele>
	<time>2024-03-09T08:37:09.000Z</time>
</trkpt>
<trkpt lat="46.2557510" lon="10.5590640">
	<ele>1756.60</ele>
	<time>2024-03-09T08:37:10.000Z</time>
</trkpt>
<trkpt lat="46.2557540" lon="10.5590700">
	<ele>1756.80</ele>
	<time>2024-03-09T08:37:11.000Z</time>
</trkpt>
<trkpt lat="46.2557590" lon="10.5590800">
	<ele>1757.00</ele>
	<time>2024-03-09T08:37:12.000Z</time>
</trkpt>
<trkpt lat="46.2557590" lon="10.5590900">
	<ele>1757.00</ele>
	<time>2024-03-09T08:37:13.000Z</time>
</trkpt>
<trkpt lat="46.2557580" lon="10.5591000">
	<ele>1757.00</ele>
	<time>2024-03-09T08:37:14.000Z</time>
</trkpt>
<trkpt lat="46.2557580" lon="10.5591090">
	<ele>1757.20</ele>
	<time>2024-03-09T08:37:15.000Z</time>
</trkpt>
<trkpt lat="46.2557610" lon="10.5591190">
	<ele>1757.40</ele>
	<time>2024-03-09T08:37:16.000Z</time>
</trkpt>
<trkpt lat="46.2557650" lon="10.5591250">
	<ele>1757.40</ele>
	<time>2024-03-09T08:37:17.000Z</time>
</trkpt>
<trkpt lat="46.2557720" lon="10.5591330">
	<ele>1757.60</ele>
	<time>2024-03-09T08:37:18.000Z</time>
</trkpt>
<trkpt lat="46.2557800" lon="10.5591390">
	<ele>1757.80</ele>
	<time>2024-03-09T08:37:19.000Z</time>
</trkpt>
<trkpt lat="46.2557860" lon="10.5591440">
	<ele>1758.00</ele>
	<time>2024-03-09T08:37:20.000Z</time>
</trkpt>
<trkpt lat="46.2557870" lon="10.5591540">
	<ele>1758.20</ele>
	<time>2024-03-09T08:37:21.000Z</time>
</trkpt>
<trkpt lat="46.2557910" lon="10.5591640">
	<ele>1758.20</ele>
	<time>2024-03-09T08:37:22.000Z</time>
</trkpt>
<trkpt lat="46.2557920" lon="10.5591750">
	<ele>1758.40</ele>
	<time>2024-03-09T08:37:23.000Z</time>
</trkpt>
<trkpt lat="46.2557960" lon="10.5591880">
	<ele>1758.40</ele>
	<time>2024-03-09T08:37:24.000Z</time>
</trkpt>
<trkpt lat="46.2558020" lon="10.5591950">
	<ele>1758.60</ele>
	<time>2024-03-09T08:37:25.000Z</time>
</trkpt>
<trkpt lat="46.2558100" lon="10.5591990">
	<ele>1758.60</ele>
	<time>2024-03-09T08:37:26.000Z</time>
</trkpt>
<trkpt lat="46.2558160" lon="10.5592020">
	<ele>1758.80</ele>
	<time>2024-03-09T08:37:27.000Z</time>
</trkpt>
<trkpt lat="46.2558220" lon="10.5592090">
	<ele>1759.00</ele>
	<time>2024-03-09T08:37:28.000Z</time>
</trkpt>
<trkpt lat="46.2558240" lon="10.5592160">
	<ele>1759.00</ele>
	<time>2024-03-09T08:37:29.000Z</time>
</trkpt>
<trkpt lat="46.2558280" lon="10.5592230">
	<ele>1759.20</ele>
	<time>2024-03-09T08:37:30.000Z</time>
</trkpt>
<trkpt lat="46.2558320" lon="10.5592290">
	<ele>1759.40</ele>
	<time>2024-03-09T08:37:31.000Z</time>
</trkpt>
<trkpt lat="46.2558350" lon="10.5592340">
	<ele>1759.40</ele>
	<time>2024-03-09T08:37:32.000Z</time>
</trkpt>
<trkpt lat="46.2558440" lon="10.5592400">
	<ele>1759.60</ele>
	<time>2024-03-09T08:37:33.000Z</time>
</trkpt>
<trkpt lat="46.2558530" lon="10.5592480">
	<ele>1759.80</ele>
	<time>2024-03-09T08:37:34.000Z</time>
</trkpt>
<trkpt lat="46.2558630" lon="10.5592550">
	<ele>1760.00</ele>
	<time>2024-03-09T08:37:35.000Z</time>
</trkpt>
<trkpt lat="46.2558710" lon="10.5592640">
	<ele>1760.20</ele>
	<time>2024-03-09T08:37:36.000Z</time>
</trkpt>
<trkpt lat="46.2558770" lon="10.5592730">
	<ele>1760.40</ele>
	<time>2024-03-09T08:37:37.000Z</time>
</trkpt>
<trkpt lat="46.2558820" lon="10.5592830">
	<ele>1760.40</ele>
	<time>2024-03-09T08:37:38.000Z</time>
</trkpt>
<trkpt lat="46.2558890" lon="10.5592860">
	<ele>1760.60</ele>
	<time>2024-03-09T08:37:39.000Z</time>
</trkpt>
<trkpt lat="46.2558950" lon="10.5592940">
	<ele>1760.80</ele>
	<time>2024-03-09T08:37:40.000Z</time>
</trkpt>
<trkpt lat="46.2559000" lon="10.5593010">
	<ele>1761.00</ele>
	<time>2024-03-09T08:37:41.000Z</time>
</trkpt>
<trkpt lat="46.2559010" lon="10.5593110">
	<ele>1761.20</ele>
	<time>2024-03-09T08:37:42.000Z</time>
</trkpt>
<trkpt lat="46.2559060" lon="10.5593200">
	<ele>1761.20</ele>
	<time>2024-03-09T08:37:43.000Z</time>
</trkpt>
<trkpt lat="46.2559100" lon="10.5593240">
	<ele>1761.20</ele>
	<time>2024-03-09T08:37:44.000Z</time>
</trkpt>
<trkpt lat="46.2559150" lon="10.5593330">
	<ele>1761.40</ele>
	<time>2024-03-09T08:37:45.000Z</time>
</trkpt>
<trkpt lat="46.2559200" lon="10.5593420">
	<ele>1761.60</ele>
	<time>2024-03-09T08:37:46.000Z</time>
</trkpt>
<trkpt lat="46.2559230" lon="10.5593500">
	<ele>1761.80</ele>
	<time>2024-03-09T08:37:47.000Z</time>
</trkpt>
<trkpt lat="46.2559250" lon="10.5593600">
	<ele>1761.80</ele>
	<time>2024-03-09T08:37:48.000Z</time>
</trkpt>
<trkpt lat="46.2559300" lon="10.5593700">
	<ele>1762.00</ele>
	<time>2024-03-09T08:37:49.000Z</time>
</trkpt>
<trkpt lat="46.2559340" lon="10.5593800">
	<ele>1762.00</ele>
	<time>2024-03-09T08:37:50.000Z</time>
</trkpt>
<trkpt lat="46.2559360" lon="10.5593840">
	<ele>1762.20</ele>
	<time>2024-03-09T08:37:51.000Z</time>
</trkpt>
<trkpt lat="46.2559410" lon="10.5593790">
	<ele>1762.40</ele>
	<time>2024-03-09T08:37:52.000Z</time>
</trkpt>
<trkpt lat="46.2559420" lon="10.5593790">
	<ele>1762.40</ele>
	<time>2024-03-09T08:37:53.000Z</time>
</trkpt>
<trkpt lat="46.2559400" lon="10.5593800">
	<ele>1762.40</ele>
	<time>2024-03-09T08:37:54.000Z</time>
</trkpt>
<trkpt lat="46.2559390" lon="10.5593810">
	<ele>1762.60</ele>
	<time>2024-03-09T08:37:55.000Z</time>
</trkpt>
<trkpt lat="46.2559370" lon="10.5593820">
	<ele>1762.60</ele>
	<time>2024-03-09T08:37:56.000Z</time>
</trkpt>
<trkpt lat="46.2559350" lon="10.5593850">
	<ele>1762.60</ele>
	<time>2024-03-09T08:37:57.000Z</time>
</trkpt>
<trkpt lat="46.2559350" lon="10.5593860">
	<ele>1762.40</ele>
	<time>2024-03-09T08:37:58.000Z</time>
</trkpt>
<trkpt lat="46.2559330" lon="10.5593890">
	<ele>1762.40</ele>
	<time>2024-03-09T08:37:59.000Z</time>
</trkpt>
<trkpt lat="46.2559320" lon="10.5593900">
	<ele>1762.40</ele>
	<time>2024-03-09T08:38:00.000Z</time>
</trkpt>
<trkpt lat="46.2559300" lon="10.5593890">
	<ele>1762.40</ele>
	<time>2024-03-09T08:38:01.000Z</time>
</trkpt>
<trkpt lat="46.2559300" lon="10.5593890">
	<ele>1762.40</ele>
	<time>2024-03-09T08:38:02.000Z</time>
</trkpt>
<trkpt lat="46.2559310" lon="10.5593890">
	<ele>1762.40</ele>
	<time>2024-03-09T08:38:03.000Z</time>
</trkpt>
<trkpt lat="46.2559280" lon="10.5593890">
	<ele>1762.40</ele>
	<time>2024-03-09T08:38:04.000Z</time>
</trkpt>
<trkpt lat="46.2559280" lon="10.5593890">
	<ele>1762.40</ele>
	<time>2024-03-09T08:38:05.000Z</time>
</trkpt>
<trkpt lat="46.2559280" lon="10.5593890">
	<ele>1762.40</ele>
	<time>2024-03-09T08:38:06.000Z</time>
</trkpt>
<trkpt lat="46.2559280" lon="10.5593890">
	<ele>1762.40</ele>
	<time>2024-03-09T08:38:07.000Z</time>
</trkpt>
<trkpt lat="46.2559280" lon="10.5593890">
	<ele>1762.60</ele>
	<time>2024-03-09T08:38:08.000Z</time>
</trkpt>
<trkpt lat="46.2559280" lon="10.5593890">
	<ele>1762.60</ele>
	<time>2024-03-09T08:38:09.000Z</time>
</trkpt>
<trkpt lat="46.2559280" lon="10.5593890">
	<ele>1762.80</ele>
	<time>2024-03-09T08:38:10.000Z</time>
</trkpt>
<trkpt lat="46.2559280" lon="10.5593890">
	<ele>1762.80</ele>
	<time>2024-03-09T08:38:11.000Z</time>
</trkpt>
<trkpt lat="46.2559280" lon="10.5593890">
	<ele>1763.00</ele>
	<time>2024-03-09T08:38:12.000Z</time>
</trkpt>
<trkpt lat="46.2559280" lon="10.5593890">
	<ele>1763.20</ele>
	<time>2024-03-09T08:38:13.000Z</time>
</trkpt>
<trkpt lat="46.2559280" lon="10.5593890">
	<ele>1763.20</ele>
	<time>2024-03-09T08:38:14.000Z</time>
</trkpt>
<trkpt lat="46.2559280" lon="10.5593890">
	<ele>1763.20</ele>
	<time>2024-03-09T08:38:15.000Z</time>
</trkpt>
<trkpt lat="46.2559280" lon="10.5593890">
	<ele>1763.20</ele>
	<time>2024-03-09T08:38:16.000Z</time>
</trkpt>
<trkpt lat="46.2559280" lon="10.5593890">
	<ele>1763.20</ele>
	<time>2024-03-09T08:38:17.000Z</time>
</trkpt>
<trkpt lat="46.2559280" lon="10.5593890">
	<ele>1763.00</ele>
	<time>2024-03-09T08:38:18.000Z</time>
</trkpt>
<trkpt lat="46.2559280" lon="10.5593890">
	<ele>1763.00</ele>
	<time>2024-03-09T08:38:19.000Z</time>
</trkpt>
<trkpt lat="46.2559280" lon="10.5593890">
	<ele>1762.80</ele>
	<time>2024-03-09T08:38:20.000Z</time>
</trkpt>
<trkpt lat="46.2559280" lon="10.5593890">
	<ele>1762.60</ele>
	<time>2024-03-09T08:38:21.000Z</time>
</trkpt>
<trkpt lat="46.2559280" lon="10.5593890">
	<ele>1762.60</ele>
	<time>2024-03-09T08:38:22.000Z</time>
</trkpt>
<trkpt lat="46.2559280" lon="10.5593890">
	<ele>1762.60</ele>
	<time>2024-03-09T08:38:23.000Z</time>
</trkpt>
<trkpt lat="46.2559290" lon="10.5593890">
	<ele>1762.60</ele>
	<time>2024-03-09T08:38:24.000Z</time>
</trkpt>
<trkpt lat="46.2559290" lon="10.5593890">
	<ele>1762.60</ele>
	<time>2024-03-09T08:38:25.000Z</time>
</trkpt>
<trkpt lat="46.2559300" lon="10.5593890">
	<ele>1762.60</ele>
	<time>2024-03-09T08:38:26.000Z</time>
</trkpt>
<trkpt lat="46.2559300" lon="10.5593890">
	<ele>1762.60</ele>
	<time>2024-03-09T08:38:27.000Z</time>
</trkpt>
<trkpt lat="46.2559300" lon="10.5593890">
	<ele>1762.60</ele>
	<time>2024-03-09T08:38:28.000Z</time>
</trkpt>
<trkpt lat="46.2559300" lon="10.5593890">
	<ele>1762.60</ele>
	<time>2024-03-09T08:38:29.000Z</time>
</trkpt>
<trkpt lat="46.2559300" lon="10.5593880">
	<ele>1762.60</ele>
	<time>2024-03-09T08:38:30.000Z</time>
</trkpt>
<trkpt lat="46.2559300" lon="10.5593870">
	<ele>1762.60</ele>
	<time>2024-03-09T08:38:31.000Z</time>
</trkpt>
<trkpt lat="46.2559310" lon="10.5593870">
	<ele>1762.60</ele>
	<time>2024-03-09T08:38:32.000Z</time>
</trkpt>
<trkpt lat="46.2559320" lon="10.5593850">
	<ele>1762.60</ele>
	<time>2024-03-09T08:38:33.000Z</time>
</trkpt>
<trkpt lat="46.2559320" lon="10.5593830">
	<ele>1762.80</ele>
	<time>2024-03-09T08:38:34.000Z</time>
</trkpt>
<trkpt lat="46.2559330" lon="10.5593820">
	<ele>1762.80</ele>
	<time>2024-03-09T08:38:35.000Z</time>
</trkpt>
<trkpt lat="46.2559330" lon="10.5593810">
	<ele>1762.80</ele>
	<time>2024-03-09T08:38:36.000Z</time>
</trkpt>
<trkpt lat="46.2559330" lon="10.5593800">
	<ele>1762.60</ele>
	<time>2024-03-09T08:38:37.000Z</time>
</trkpt>
<trkpt lat="46.2559340" lon="10.5593800">
	<ele>1762.60</ele>
	<time>2024-03-09T08:38:38.000Z</time>
</trkpt>
<trkpt lat="46.2559340" lon="10.5593800">
	<ele>1762.60</ele>
	<time>2024-03-09T08:38:39.000Z</time>
</trkpt>
<trkpt lat="46.2559350" lon="10.5593800">
	<ele>1762.60</ele>
	<time>2024-03-09T08:38:40.000Z</time>
</trkpt>
<trkpt lat="46.2559360" lon="10.5593800">
	<ele>1762.60</ele>
	<time>2024-03-09T08:38:41.000Z</time>
</trkpt>
<trkpt lat="46.2559360" lon="10.5593800">
	<ele>1762.60</ele>
	<time>2024-03-09T08:38:42.000Z</time>
</trkpt>
<trkpt lat="46.2559360" lon="10.5593800">
	<ele>1762.60</ele>
	<time>2024-03-09T08:38:43.000Z</time>
</trkpt>
<trkpt lat="46.2559380" lon="10.5593800">
	<ele>1762.80</ele>
	<time>2024-03-09T08:38:44.000Z</time>
</trkpt>
<trkpt lat="46.2559380" lon="10.5593800">
	<ele>1762.80</ele>
	<time>2024-03-09T08:38:45.000Z</time>
</trkpt>
<trkpt lat="46.2559380" lon="10.5593800">
	<ele>1762.80</ele>
	<time>2024-03-09T08:38:46.000Z</time>
</trkpt>
<trkpt lat="46.2559380" lon="10.5593800">
	<ele>1762.80</ele>
	<time>2024-03-09T08:38:47.000Z</time>
</trkpt>
<trkpt lat="46.2559380" lon="10.5593800">
	<ele>1762.80</ele>
	<time>2024-03-09T08:38:48.000Z</time>
</trkpt>
<trkpt lat="46.2559380" lon="10.5593800">
	<ele>1763.00</ele>
	<time>2024-03-09T08:38:49.000Z</time>
</trkpt>
<trkpt lat="46.2559390" lon="10.5593800">
	<ele>1763.20</ele>
	<time>2024-03-09T08:38:50.000Z</time>
</trkpt>
<trkpt lat="46.2559400" lon="10.5593800">
	<ele>1763.20</ele>
	<time>2024-03-09T08:38:51.000Z</time>
</trkpt>
<trkpt lat="46.2559400" lon="10.5593810">
	<ele>1763.40</ele>
	<time>2024-03-09T08:38:52.000Z</time>
</trkpt>
<trkpt lat="46.2559410" lon="10.5593820">
	<ele>1763.40</ele>
	<time>2024-03-09T08:38:53.000Z</time>
</trkpt>
<trkpt lat="46.2559430" lon="10.5593820">
	<ele>1763.60</ele>
	<time>2024-03-09T08:38:54.000Z</time>
</trkpt>
<trkpt lat="46.2559430" lon="10.5593830">
	<ele>1763.60</ele>
	<time>2024-03-09T08:38:55.000Z</time>
</trkpt>
<trkpt lat="46.2559440" lon="10.5593840">
	<ele>1763.80</ele>
	<time>2024-03-09T08:38:56.000Z</time>
</trkpt>
<trkpt lat="46.2559450" lon="10.5593840">
	<ele>1763.80</ele>
	<time>2024-03-09T08:38:57.000Z</time>
</trkpt>
<trkpt lat="46.2559460" lon="10.5593840">
	<ele>1764.00</ele>
	<time>2024-03-09T08:38:58.000Z</time>
</trkpt>
<trkpt lat="46.2559460" lon="10.5593840">
	<ele>1764.00</ele>
	<time>2024-03-09T08:38:59.000Z</time>
</trkpt>
<trkpt lat="46.2559480" lon="10.5593850">
	<ele>1764.00</ele>
	<time>2024-03-09T08:39:00.000Z</time>
</trkpt>
<trkpt lat="46.2559490" lon="10.5593860">
	<ele>1764.20</ele>
	<time>2024-03-09T08:39:01.000Z</time>
</trkpt>
<trkpt lat="46.2559490" lon="10.5593880">
	<ele>1764.20</ele>
	<time>2024-03-09T08:39:02.000Z</time>
</trkpt>
<trkpt lat="46.2559490" lon="10.5593940">
	<ele>1764.40</ele>
	<time>2024-03-09T08:39:03.000Z</time>
</trkpt>
<trkpt lat="46.2559500" lon="10.5594000">
	<ele>1764.60</ele>
	<time>2024-03-09T08:39:04.000Z</time>
</trkpt>
<trkpt lat="46.2559500" lon="10.5594060">
	<ele>1764.60</ele>
	<time>2024-03-09T08:39:05.000Z</time>
</trkpt>
<trkpt lat="46.2559540" lon="10.5594110">
	<ele>1764.80</ele>
	<time>2024-03-09T08:39:06.000Z</time>
</trkpt>
<trkpt lat="46.2559600" lon="10.5594170">
	<ele>1765.00</ele>
	<time>2024-03-09T08:39:07.000Z</time>
</trkpt>
<trkpt lat="46.2559670" lon="10.5594230">
	<ele>1765.20</ele>
	<time>2024-03-09T08:39:08.000Z</time>
</trkpt>
<trkpt lat="46.2559720" lon="10.5594340">
	<ele>1765.40</ele>
	<time>2024-03-09T08:39:09.000Z</time>
</trkpt>
<trkpt lat="46.2559790" lon="10.5594520">
	<ele>1765.40</ele>
	<time>2024-03-09T08:39:10.000Z</time>
</trkpt>
<trkpt lat="46.2559860" lon="10.5594720">
	<ele>1765.40</ele>
	<time>2024-03-09T08:39:11.000Z</time>
</trkpt>
<trkpt lat="46.2559950" lon="10.5594910">
	<ele>1765.60</ele>
	<time>2024-03-09T08:39:12.000Z</time>
</trkpt>
<trkpt lat="46.2560060" lon="10.5595080">
	<ele>1765.80</ele>
	<time>2024-03-09T08:39:13.000Z</time>
</trkpt>
<trkpt lat="46.2560170" lon="10.5595300">
	<ele>1766.00</ele>
	<time>2024-03-09T08:39:14.000Z</time>
</trkpt>
<trkpt lat="46.2560260" lon="10.5595450">
	<ele>1766.00</ele>
	<time>2024-03-09T08:39:15.000Z</time>
</trkpt>
<trkpt lat="46.2560330" lon="10.5595640">
	<ele>1766.20</ele>
	<time>2024-03-09T08:39:16.000Z</time>
</trkpt>
<trkpt lat="46.2560420" lon="10.5595830">
	<ele>1766.40</ele>
	<time>2024-03-09T08:39:17.000Z</time>
</trkpt>
<trkpt lat="46.2560500" lon="10.5596050">
	<ele>1766.80</ele>
	<time>2024-03-09T08:39:18.000Z</time>
</trkpt>
<trkpt lat="46.2560530" lon="10.5596160">
	<ele>1766.80</ele>
	<time>2024-03-09T08:39:19.000Z</time>
</trkpt>
<trkpt lat="46.2560530" lon="10.5596280">
	<ele>1767.00</ele>
	<time>2024-03-09T08:39:20.000Z</time>
</trkpt>
<trkpt lat="46.2560580" lon="10.5596400">
	<ele>1767.20</ele>
	<time>2024-03-09T08:39:21.000Z</time>
</trkpt>
<trkpt lat="46.2560640" lon="10.5596490">
	<ele>1767.40</ele>
	<time>2024-03-09T08:39:22.000Z</time>
</trkpt>
<trkpt lat="46.2560670" lon="10.5596580">
	<ele>1767.40</ele>
	<time>2024-03-09T08:39:23.000Z</time>
</trkpt>
<trkpt lat="46.2560720" lon="10.5596670">
	<ele>1767.60</ele>
	<time>2024-03-09T08:39:24.000Z</time>
</trkpt>
<trkpt lat="46.2560750" lon="10.5596770">
	<ele>1767.60</ele>
	<time>2024-03-09T08:39:25.000Z</time>
</trkpt>
<trkpt lat="46.2560780" lon="10.5596910">
	<ele>1767.60</ele>
	<time>2024-03-09T08:39:26.000Z</time>
</trkpt>
<trkpt lat="46.2560800" lon="10.5597000">
	<ele>1767.80</ele>
	<time>2024-03-09T08:39:27.000Z</time>
</trkpt>
<trkpt lat="46.2560820" lon="10.5597100">
	<ele>1768.00</ele>
	<time>2024-03-09T08:39:28.000Z</time>
</trkpt>
<trkpt lat="46.2560860" lon="10.5597190">
	<ele>1768.00</ele>
	<time>2024-03-09T08:39:29.000Z</time>
</trkpt>
<trkpt lat="46.2560890" lon="10.5597310">
	<ele>1768.20</ele>
	<time>2024-03-09T08:39:30.000Z</time>
</trkpt>
<trkpt lat="46.2560910" lon="10.5597430">
	<ele>1768.40</ele>
	<time>2024-03-09T08:39:31.000Z</time>
</trkpt>
<trkpt lat="46.2560950" lon="10.5597500">
	<ele>1768.60</ele>
	<time>2024-03-09T08:39:32.000Z</time>
</trkpt>
<trkpt lat="46.2561020" lon="10.5597610">
	<ele>1768.80</ele>
	<time>2024-03-09T08:39:33.000Z</time>
</trkpt>
<trkpt lat="46.2561060" lon="10.5597680">
	<ele>1769.00</ele>
	<time>2024-03-09T08:39:34.000Z</time>
</trkpt>
<trkpt lat="46.2561100" lon="10.5597740">
	<ele>1769.00</ele>
	<time>2024-03-09T08:39:35.000Z</time>
</trkpt>
<trkpt lat="46.2561120" lon="10.5597820">
	<ele>1769.00</ele>
	<time>2024-03-09T08:39:36.000Z</time>
</trkpt>
<trkpt lat="46.2561150" lon="10.5597890">
	<ele>1769.20</ele>
	<time>2024-03-09T08:39:37.000Z</time>
</trkpt>
<trkpt lat="46.2561200" lon="10.5598000">
	<ele>1769.40</ele>
	<time>2024-03-09T08:39:38.000Z</time>
</trkpt>
<trkpt lat="46.2561230" lon="10.5598120">
	<ele>1769.60</ele>
	<time>2024-03-09T08:39:39.000Z</time>
</trkpt>
<trkpt lat="46.2561250" lon="10.5598240">
	<ele>1769.60</ele>
	<time>2024-03-09T08:39:40.000Z</time>
</trkpt>
<trkpt lat="46.2561270" lon="10.5598360">
	<ele>1769.80</ele>
	<time>2024-03-09T08:39:41.000Z</time>
</trkpt>
<trkpt lat="46.2561310" lon="10.5598430">
	<ele>1769.80</ele>
	<time>2024-03-09T08:39:42.000Z</time>
</trkpt>
<trkpt lat="46.2561280" lon="10.5598550">
	<ele>1770.00</ele>
	<time>2024-03-09T08:39:43.000Z</time>
</trkpt>
<trkpt lat="46.2561270" lon="10.5598660">
	<ele>1770.00</ele>
	<time>2024-03-09T08:39:44.000Z</time>
</trkpt>
<trkpt lat="46.2561300" lon="10.5598760">
	<ele>1770.20</ele>
	<time>2024-03-09T08:39:45.000Z</time>
</trkpt>
<trkpt lat="46.2561380" lon="10.5598790">
	<ele>1770.20</ele>
	<time>2024-03-09T08:39:46.000Z</time>
</trkpt>
<trkpt lat="46.2561420" lon="10.5598790">
	<ele>1770.20</ele>
	<time>2024-03-09T08:39:47.000Z</time>
</trkpt>
<trkpt lat="46.2561420" lon="10.5598790">
	<ele>1770.20</ele>
	<time>2024-03-09T08:39:48.000Z</time>
</trkpt>
<trkpt lat="46.2561420" lon="10.5598860">
	<ele>1770.20</ele>
	<time>2024-03-09T08:39:49.000Z</time>
</trkpt>
<trkpt lat="46.2561420" lon="10.5598900">
	<ele>1770.20</ele>
	<time>2024-03-09T08:39:50.000Z</time>
</trkpt>
<trkpt lat="46.2561430" lon="10.5598950">
	<ele>1770.20</ele>
	<time>2024-03-09T08:39:51.000Z</time>
</trkpt>
<trkpt lat="46.2561450" lon="10.5599010">
	<ele>1770.20</ele>
	<time>2024-03-09T08:39:52.000Z</time>
</trkpt>
<trkpt lat="46.2561480" lon="10.5599090">
	<ele>1770.40</ele>
	<time>2024-03-09T08:39:53.000Z</time>
</trkpt>
<trkpt lat="46.2561520" lon="10.5599220">
	<ele>1770.40</ele>
	<time>2024-03-09T08:39:54.000Z</time>
</trkpt>
<trkpt lat="46.2561570" lon="10.5599370">
	<ele>1770.60</ele>
	<time>2024-03-09T08:39:55.000Z</time>
</trkpt>
<trkpt lat="46.2561610" lon="10.5599490">
	<ele>1770.80</ele>
	<time>2024-03-09T08:39:56.000Z</time>
</trkpt>
<trkpt lat="46.2561640" lon="10.5599570">
	<ele>1770.80</ele>
	<time>2024-03-09T08:39:57.000Z</time>
</trkpt>
<trkpt lat="46.2561700" lon="10.5599670">
	<ele>1771.00</ele>
	<time>2024-03-09T08:39:58.000Z</time>
</trkpt>
<trkpt lat="46.2561730" lon="10.5599760">
	<ele>1771.00</ele>
	<time>2024-03-09T08:39:59.000Z</time>
</trkpt>
<trkpt lat="46.2561800" lon="10.5599810">
	<ele>1771.00</ele>
	<time>2024-03-09T08:40:00.000Z</time>
</trkpt>
<trkpt lat="46.2561800" lon="10.5599870">
	<ele>1771.20</ele>
	<time>2024-03-09T08:40:01.000Z</time>
</trkpt>
<trkpt lat="46.2561830" lon="10.5599950">
	<ele>1771.40</ele>
	<time>2024-03-09T08:40:02.000Z</time>
</trkpt>
<trkpt lat="46.2561850" lon="10.5600030">
	<ele>1771.40</ele>
	<time>2024-03-09T08:40:03.000Z</time>
</trkpt>
<trkpt lat="46.2561890" lon="10.5600130">
	<ele>1771.60</ele>
	<time>2024-03-09T08:40:04.000Z</time>
</trkpt>
<trkpt lat="46.2561950" lon="10.5600180">
	<ele>1771.60</ele>
	<time>2024-03-09T08:40:05.000Z</time>
</trkpt>
<trkpt lat="46.2561960" lon="10.5600230">
	<ele>1771.80</ele>
	<time>2024-03-09T08:40:06.000Z</time>
</trkpt>
<trkpt lat="46.2561970" lon="10.5600300">
	<ele>1771.80</ele>
	<time>2024-03-09T08:40:07.000Z</time>
</trkpt>
<trkpt lat="46.2562020" lon="10.5600370">
	<ele>1772.00</ele>
	<time>2024-03-09T08:40:08.000Z</time>
</trkpt>
<trkpt lat="46.2562120" lon="10.5600430">
	<ele>1772.00</ele>
	<time>2024-03-09T08:40:09.000Z</time>
</trkpt>
<trkpt lat="46.2562160" lon="10.5600600">
	<ele>1772.20</ele>
	<time>2024-03-09T08:40:10.000Z</time>
</trkpt>
<trkpt lat="46.2562160" lon="10.5600750">
	<ele>1772.40</ele>
	<time>2024-03-09T08:40:11.000Z</time>
</trkpt>
<trkpt lat="46.2562180" lon="10.5600850">
	<ele>1772.60</ele>
	<time>2024-03-09T08:40:12.000Z</time>
</trkpt>
<trkpt lat="46.2562180" lon="10.5600930">
	<ele>1772.60</ele>
	<time>2024-03-09T08:40:13.000Z</time>
</trkpt>
<trkpt lat="46.2562240" lon="10.5601020">
	<ele>1772.80</ele>
	<time>2024-03-09T08:40:14.000Z</time>
</trkpt>
<trkpt lat="46.2562290" lon="10.5601100">
	<ele>1773.00</ele>
	<time>2024-03-09T08:40:15.000Z</time>
</trkpt>
<trkpt lat="46.2562300" lon="10.5601160">
	<ele>1773.00</ele>
	<time>2024-03-09T08:40:16.000Z</time>
</trkpt>
<trkpt lat="46.2562310" lon="10.5601270">
	<ele>1773.00</ele>
	<time>2024-03-09T08:40:17.000Z</time>
</trkpt>
<trkpt lat="46.2562350" lon="10.5601390">
	<ele>1773.20</ele>
	<time>2024-03-09T08:40:18.000Z</time>
</trkpt>
<trkpt lat="46.2562380" lon="10.5601450">
	<ele>1773.20</ele>
	<time>2024-03-09T08:40:19.000Z</time>
</trkpt>
<trkpt lat="46.2562400" lon="10.5601550">
	<ele>1773.20</ele>
	<time>2024-03-09T08:40:20.000Z</time>
</trkpt>
<trkpt lat="46.2562400" lon="10.5601660">
	<ele>1773.20</ele>
	<time>2024-03-09T08:40:21.000Z</time>
</trkpt>
<trkpt lat="46.2562420" lon="10.5601760">
	<ele>1773.40</ele>
	<time>2024-03-09T08:40:22.000Z</time>
</trkpt>
<trkpt lat="46.2562480" lon="10.5601870">
	<ele>1773.40</ele>
	<time>2024-03-09T08:40:23.000Z</time>
</trkpt>
<trkpt lat="46.2562560" lon="10.5601970">
	<ele>1773.60</ele>
	<time>2024-03-09T08:40:24.000Z</time>
</trkpt>
<trkpt lat="46.2562610" lon="10.5602090">
	<ele>1773.80</ele>
	<time>2024-03-09T08:40:25.000Z</time>
</trkpt>
<trkpt lat="46.2562650" lon="10.5602130">
	<ele>1774.00</ele>
	<time>2024-03-09T08:40:26.000Z</time>
</trkpt>
<trkpt lat="46.2562710" lon="10.5602210">
	<ele>1774.00</ele>
	<time>2024-03-09T08:40:27.000Z</time>
</trkpt>
<trkpt lat="46.2562720" lon="10.5602250">
	<ele>1774.40</ele>
	<time>2024-03-09T08:40:28.000Z</time>
</trkpt>
<trkpt lat="46.2562710" lon="10.5602340">
	<ele>1774.40</ele>
	<time>2024-03-09T08:40:29.000Z</time>
</trkpt>
<trkpt lat="46.2562740" lon="10.5602460">
	<ele>1774.60</ele>
	<time>2024-03-09T08:40:30.000Z</time>
</trkpt>
<trkpt lat="46.2562720" lon="10.5602600">
	<ele>1774.80</ele>
	<time>2024-03-09T08:40:31.000Z</time>
</trkpt>
<trkpt lat="46.2562720" lon="10.5602690">
	<ele>1775.00</ele>
	<time>2024-03-09T08:40:32.000Z</time>
</trkpt>
<trkpt lat="46.2562750" lon="10.5602780">
	<ele>1775.00</ele>
	<time>2024-03-09T08:40:33.000Z</time>
</trkpt>
<trkpt lat="46.2562780" lon="10.5602930">
	<ele>1775.20</ele>
	<time>2024-03-09T08:40:34.000Z</time>
</trkpt>
<trkpt lat="46.2562870" lon="10.5603040">
	<ele>1775.20</ele>
	<time>2024-03-09T08:40:35.000Z</time>
</trkpt>
<trkpt lat="46.2562960" lon="10.5603150">
	<ele>1775.40</ele>
	<time>2024-03-09T08:40:36.000Z</time>
</trkpt>
<trkpt lat="46.2563010" lon="10.5603250">
	<ele>1775.60</ele>
	<time>2024-03-09T08:40:37.000Z</time>
</trkpt>
<trkpt lat="46.2563010" lon="10.5603330">
	<ele>1775.60</ele>
	<time>2024-03-09T08:40:38.000Z</time>
</trkpt>
<trkpt lat="46.2563000" lon="10.5603450">
	<ele>1775.80</ele>
	<time>2024-03-09T08:40:39.000Z</time>
</trkpt>
<trkpt lat="46.2562990" lon="10.5603570">
	<ele>1776.00</ele>
	<time>2024-03-09T08:40:40.000Z</time>
</trkpt>
<trkpt lat="46.2562970" lon="10.5603660">
	<ele>1776.20</ele>
	<time>2024-03-09T08:40:41.000Z</time>
</trkpt>
<trkpt lat="46.2563020" lon="10.5603760">
	<ele>1776.40</ele>
	<time>2024-03-09T08:40:42.000Z</time>
</trkpt>
<trkpt lat="46.2563080" lon="10.5603840">
	<ele>1776.40</ele>
	<time>2024-03-09T08:40:43.000Z</time>
</trkpt>
<trkpt lat="46.2563160" lon="10.5603900">
	<ele>1776.60</ele>
	<time>2024-03-09T08:40:44.000Z</time>
</trkpt>
<trkpt lat="46.2563230" lon="10.5603970">
	<ele>1776.60</ele>
	<time>2024-03-09T08:40:45.000Z</time>
</trkpt>
<trkpt lat="46.2563250" lon="10.5604060">
	<ele>1776.80</ele>
	<time>2024-03-09T08:40:46.000Z</time>
</trkpt>
<trkpt lat="46.2563240" lon="10.5604150">
	<ele>1777.00</ele>
	<time>2024-03-09T08:40:47.000Z</time>
</trkpt>
<trkpt lat="46.2563250" lon="10.5604280">
	<ele>1777.20</ele>
	<time>2024-03-09T08:40:48.000Z</time>
</trkpt>
<trkpt lat="46.2563260" lon="10.5604410">
	<ele>1777.20</ele>
	<time>2024-03-09T08:40:49.000Z</time>
</trkpt>
<trkpt lat="46.2563290" lon="10.5604520">
	<ele>1777.40</ele>
	<time>2024-03-09T08:40:50.000Z</time>
</trkpt>
<trkpt lat="46.2563330" lon="10.5604630">
	<ele>1777.60</ele>
	<time>2024-03-09T08:40:51.000Z</time>
</trkpt>
<trkpt lat="46.2563380" lon="10.5604720">
	<ele>1777.80</ele>
	<time>2024-03-09T08:40:52.000Z</time>
</trkpt>
<trkpt lat="46.2563420" lon="10.5604780">
	<ele>1777.80</ele>
	<time>2024-03-09T08:40:53.000Z</time>
</trkpt>
<trkpt lat="46.2563410" lon="10.5604870">
	<ele>1778.00</ele>
	<time>2024-03-09T08:40:54.000Z</time>
</trkpt>
<trkpt lat="46.2563380" lon="10.5604970">
	<ele>1778.00</ele>
	<time>2024-03-09T08:40:55.000Z</time>
</trkpt>
<trkpt lat="46.2563410" lon="10.5605050">
	<ele>1778.20</ele>
	<time>2024-03-09T08:40:56.000Z</time>
</trkpt>
<trkpt lat="46.2563460" lon="10.5605130">
	<ele>1778.40</ele>
	<time>2024-03-09T08:40:57.000Z</time>
</trkpt>
<trkpt lat="46.2563500" lon="10.5605210">
	<ele>1778.60</ele>
	<time>2024-03-09T08:40:58.000Z</time>
</trkpt>
<trkpt lat="46.2563520" lon="10.5605280">
	<ele>1778.80</ele>
	<time>2024-03-09T08:40:59.000Z</time>
</trkpt>
<trkpt lat="46.2563540" lon="10.5605340">
	<ele>1778.80</ele>
	<time>2024-03-09T08:41:00.000Z</time>
</trkpt>
<trkpt lat="46.2563560" lon="10.5605410">
	<ele>1779.00</ele>
	<time>2024-03-09T08:41:01.000Z</time>
</trkpt>
<trkpt lat="46.2563620" lon="10.5605470">
	<ele>1779.20</ele>
	<time>2024-03-09T08:41:02.000Z</time>
</trkpt>
<trkpt lat="46.2563680" lon="10.5605510">
	<ele>1779.20</ele>
	<time>2024-03-09T08:41:03.000Z</time>
</trkpt>
<trkpt lat="46.2563740" lon="10.5605590">
	<ele>1779.40</ele>
	<time>2024-03-09T08:41:04.000Z</time>
</trkpt>
<trkpt lat="46.2563730" lon="10.5605680">
	<ele>1779.40</ele>
	<time>2024-03-09T08:41:05.000Z</time>
</trkpt>
<trkpt lat="46.2563730" lon="10.5605760">
	<ele>1779.60</ele>
	<time>2024-03-09T08:41:06.000Z</time>
</trkpt>
<trkpt lat="46.2563750" lon="10.5605850">
	<ele>1779.60</ele>
	<time>2024-03-09T08:41:07.000Z</time>
</trkpt>
<trkpt lat="46.2563790" lon="10.5605960">
	<ele>1779.80</ele>
	<time>2024-03-09T08:41:08.000Z</time>
</trkpt>
<trkpt lat="46.2563810" lon="10.5606060">
	<ele>1779.80</ele>
	<time>2024-03-09T08:41:09.000Z</time>
</trkpt>
<trkpt lat="46.2563810" lon="10.5606180">
	<ele>1780.00</ele>
	<time>2024-03-09T08:41:10.000Z</time>
</trkpt>
<trkpt lat="46.2563840" lon="10.5606310">
	<ele>1780.20</ele>
	<time>2024-03-09T08:41:11.000Z</time>
</trkpt>
<trkpt lat="46.2563860" lon="10.5606420">
	<ele>1780.40</ele>
	<time>2024-03-09T08:41:12.000Z</time>
</trkpt>
<trkpt lat="46.2563860" lon="10.5606520">
	<ele>1780.60</ele>
	<time>2024-03-09T08:41:13.000Z</time>
</trkpt>
<trkpt lat="46.2563860" lon="10.5606610">
	<ele>1780.60</ele>
	<time>2024-03-09T08:41:14.000Z</time>
</trkpt>
<trkpt lat="46.2563860" lon="10.5606730">
	<ele>1780.80</ele>
	<time>2024-03-09T08:41:15.000Z</time>
</trkpt>
<trkpt lat="46.2563870" lon="10.5606830">
	<ele>1781.00</ele>
	<time>2024-03-09T08:41:16.000Z</time>
</trkpt>
<trkpt lat="46.2563850" lon="10.5606940">
	<ele>1781.00</ele>
	<time>2024-03-09T08:41:17.000Z</time>
</trkpt>
<trkpt lat="46.2563850" lon="10.5607020">
	<ele>1781.20</ele>
	<time>2024-03-09T08:41:18.000Z</time>
</trkpt>
<trkpt lat="46.2563850" lon="10.5607140">
	<ele>1781.40</ele>
	<time>2024-03-09T08:41:19.000Z</time>
</trkpt>
<trkpt lat="46.2563830" lon="10.5607220">
	<ele>1781.60</ele>
	<time>2024-03-09T08:41:20.000Z</time>
</trkpt>
<trkpt lat="46.2563850" lon="10.5607300">
	<ele>1781.60</ele>
	<time>2024-03-09T08:41:21.000Z</time>
</trkpt>
<trkpt lat="46.2563870" lon="10.5607410">
	<ele>1781.60</ele>
	<time>2024-03-09T08:41:22.000Z</time>
</trkpt>
<trkpt lat="46.2563870" lon="10.5607510">
	<ele>1781.80</ele>
	<time>2024-03-09T08:41:23.000Z</time>
</trkpt>
<trkpt lat="46.2563850" lon="10.5607610">
	<ele>1782.00</ele>
	<time>2024-03-09T08:41:24.000Z</time>
</trkpt>
<trkpt lat="46.2563870" lon="10.5607690">
	<ele>1782.20</ele>
	<time>2024-03-09T08:41:25.000Z</time>
</trkpt>
<trkpt lat="46.2563870" lon="10.5607730">
	<ele>1782.20</ele>
	<time>2024-03-09T08:41:26.000Z</time>
</trkpt>
<trkpt lat="46.2563890" lon="10.5607780">
	<ele>1782.40</ele>
	<time>2024-03-09T08:41:27.000Z</time>
</trkpt>
<trkpt lat="46.2563890" lon="10.5607860">
	<ele>1782.40</ele>
	<time>2024-03-09T08:41:28.000Z</time>
</trkpt>
<trkpt lat="46.2563910" lon="10.5607920">
	<ele>1782.60</ele>
	<time>2024-03-09T08:41:29.000Z</time>
</trkpt>
<trkpt lat="46.2563910" lon="10.5607990">
	<ele>1782.60</ele>
	<time>2024-03-09T08:41:30.000Z</time>
</trkpt>
<trkpt lat="46.2563920" lon="10.5608120">
	<ele>1782.60</ele>
	<time>2024-03-09T08:41:31.000Z</time>
</trkpt>
<trkpt lat="46.2563920" lon="10.5608260">
	<ele>1782.80</ele>
	<time>2024-03-09T08:41:32.000Z</time>
</trkpt>
<trkpt lat="46.2563940" lon="10.5608390">
	<ele>1783.00</ele>
	<time>2024-03-09T08:41:33.000Z</time>
</trkpt>
<trkpt lat="46.2563970" lon="10.5608500">
	<ele>1783.00</ele>
	<time>2024-03-09T08:41:34.000Z</time>
</trkpt>
<trkpt lat="46.2563960" lon="10.5608610">
	<ele>1783.00</ele>
	<time>2024-03-09T08:41:35.000Z</time>
</trkpt>
<trkpt lat="46.2563970" lon="10.5608750">
	<ele>1783.20</ele>
	<time>2024-03-09T08:41:36.000Z</time>
</trkpt>
<trkpt lat="46.2563990" lon="10.5608870">
	<ele>1783.40</ele>
	<time>2024-03-09T08:41:37.000Z</time>
</trkpt>
<trkpt lat="46.2564000" lon="10.5608990">
	<ele>1783.80</ele>
	<time>2024-03-09T08:41:38.000Z</time>
</trkpt>
<trkpt lat="46.2564020" lon="10.5609090">
	<ele>1784.00</ele>
	<time>2024-03-09T08:41:39.000Z</time>
</trkpt>
<trkpt lat="46.2564040" lon="10.5609180">
	<ele>1784.20</ele>
	<time>2024-03-09T08:41:40.000Z</time>
</trkpt>
<trkpt lat="46.2564070" lon="10.5609310">
	<ele>1784.40</ele>
	<time>2024-03-09T08:41:41.000Z</time>
</trkpt>
<trkpt lat="46.2564060" lon="10.5609440">
	<ele>1784.40</ele>
	<time>2024-03-09T08:41:42.000Z</time>
</trkpt>
<trkpt lat="46.2564040" lon="10.5609590">
	<ele>1784.60</ele>
	<time>2024-03-09T08:41:43.000Z</time>
</trkpt>
<trkpt lat="46.2564060" lon="10.5609690">
	<ele>1784.60</ele>
	<time>2024-03-09T08:41:44.000Z</time>
</trkpt>
<trkpt lat="46.2564090" lon="10.5609790">
	<ele>1784.60</ele>
	<time>2024-03-09T08:41:45.000Z</time>
</trkpt>
<trkpt lat="46.2564110" lon="10.5609900">
	<ele>1784.80</ele>
	<time>2024-03-09T08:41:46.000Z</time>
</trkpt>
<trkpt lat="46.2564120" lon="10.5609980">
	<ele>1785.00</ele>
	<time>2024-03-09T08:41:47.000Z</time>
</trkpt>
<trkpt lat="46.2564150" lon="10.5610050">
	<ele>1785.20</ele>
	<time>2024-03-09T08:41:48.000Z</time>
</trkpt>
<trkpt lat="46.2564180" lon="10.5610040">
	<ele>1785.20</ele>
	<time>2024-03-09T08:41:49.000Z</time>
</trkpt>
<trkpt lat="46.2564270" lon="10.5610050">
	<ele>1785.40</ele>
	<time>2024-03-09T08:41:50.000Z</time>
</trkpt>
<trkpt lat="46.2564320" lon="10.5610140">
	<ele>1785.60</ele>
	<time>2024-03-09T08:41:51.000Z</time>
</trkpt>
<trkpt lat="46.2564350" lon="10.5610190">
	<ele>1785.60</ele>
	<time>2024-03-09T08:41:52.000Z</time>
</trkpt>
<trkpt lat="46.2564350" lon="10.5610290">
	<ele>1786.00</ele>
	<time>2024-03-09T08:41:53.000Z</time>
</trkpt>
<trkpt lat="46.2564340" lon="10.5610380">
	<ele>1786.00</ele>
	<time>2024-03-09T08:41:54.000Z</time>
</trkpt>
<trkpt lat="46.2564390" lon="10.5610450">
	<ele>1786.20</ele>
	<time>2024-03-09T08:41:55.000Z</time>
</trkpt>
<trkpt lat="46.2564380" lon="10.5610570">
	<ele>1786.60</ele>
	<time>2024-03-09T08:41:56.000Z</time>
</trkpt>
<trkpt lat="46.2564400" lon="10.5610650">
	<ele>1786.80</ele>
	<time>2024-03-09T08:41:57.000Z</time>
</trkpt>
<trkpt lat="46.2564400" lon="10.5610790">
	<ele>1786.80</ele>
	<time>2024-03-09T08:41:58.000Z</time>
</trkpt>
<trkpt lat="46.2564400" lon="10.5610910">
	<ele>1787.00</ele>
	<time>2024-03-09T08:41:59.000Z</time>
</trkpt>
<trkpt lat="46.2564380" lon="10.5611040">
	<ele>1787.20</ele>
	<time>2024-03-09T08:42:00.000Z</time>
</trkpt>
<trkpt lat="46.2564380" lon="10.5611140">
	<ele>1787.40</ele>
	<time>2024-03-09T08:42:01.000Z</time>
</trkpt>
<trkpt lat="46.2564390" lon="10.5611260">
	<ele>1787.60</ele>
	<time>2024-03-09T08:42:02.000Z</time>
</trkpt>
<trkpt lat="46.2564420" lon="10.5611360">
	<ele>1787.80</ele>
	<time>2024-03-09T08:42:03.000Z</time>
</trkpt>
<trkpt lat="46.2564430" lon="10.5611450">
	<ele>1787.80</ele>
	<time>2024-03-09T08:42:04.000Z</time>
</trkpt>
<trkpt lat="46.2564440" lon="10.5611520">
	<ele>1788.20</ele>
	<time>2024-03-09T08:42:05.000Z</time>
</trkpt>
<trkpt lat="46.2564470" lon="10.5611610">
	<ele>1788.40</ele>
	<time>2024-03-09T08:42:06.000Z</time>
</trkpt>
<trkpt lat="46.2564570" lon="10.5611680">
	<ele>1788.80</ele>
	<time>2024-03-09T08:42:07.000Z</time>
</trkpt>
<trkpt lat="46.2564620" lon="10.5611740">
	<ele>1789.00</ele>
	<time>2024-03-09T08:42:08.000Z</time>
</trkpt>
<trkpt lat="46.2564590" lon="10.5611810">
	<ele>1789.20</ele>
	<time>2024-03-09T08:42:09.000Z</time>
</trkpt>
<trkpt lat="46.2564560" lon="10.5611910">
	<ele>1789.40</ele>
	<time>2024-03-09T08:42:10.000Z</time>
</trkpt>
<trkpt lat="46.2564550" lon="10.5612010">
	<ele>1789.60</ele>
	<time>2024-03-09T08:42:11.000Z</time>
</trkpt>
<trkpt lat="46.2564550" lon="10.5612110">
	<ele>1789.60</ele>
	<time>2024-03-09T08:42:12.000Z</time>
</trkpt>
<trkpt lat="46.2564540" lon="10.5612240">
	<ele>1789.60</ele>
	<time>2024-03-09T08:42:13.000Z</time>
</trkpt>
<trkpt lat="46.2564570" lon="10.5612350">
	<ele>1789.80</ele>
	<time>2024-03-09T08:42:14.000Z</time>
</trkpt>
<trkpt lat="46.2564600" lon="10.5612460">
	<ele>1789.80</ele>
	<time>2024-03-09T08:42:15.000Z</time>
</trkpt>
<trkpt lat="46.2564620" lon="10.5612550">
	<ele>1790.00</ele>
	<time>2024-03-09T08:42:16.000Z</time>
</trkpt>
<trkpt lat="46.2564660" lon="10.5612640">
	<ele>1789.80</ele>
	<time>2024-03-09T08:42:17.000Z</time>
</trkpt>
<trkpt lat="46.2564680" lon="10.5612760">
	<ele>1790.00</ele>
	<time>2024-03-09T08:42:18.000Z</time>
</trkpt>
<trkpt lat="46.2564690" lon="10.5612890">
	<ele>1790.00</ele>
	<time>2024-03-09T08:42:19.000Z</time>
</trkpt>
<trkpt lat="46.2564700" lon="10.5613050">
	<ele>1790.00</ele>
	<time>2024-03-09T08:42:20.000Z</time>
</trkpt>
<trkpt lat="46.2564720" lon="10.5613190">
	<ele>1790.00</ele>
	<time>2024-03-09T08:42:21.000Z</time>
</trkpt>
<trkpt lat="46.2564720" lon="10.5613330">
	<ele>1790.00</ele>
	<time>2024-03-09T08:42:22.000Z</time>
</trkpt>
<trkpt lat="46.2564710" lon="10.5613440">
	<ele>1789.80</ele>
	<time>2024-03-09T08:42:23.000Z</time>
</trkpt>
<trkpt lat="46.2564670" lon="10.5613530">
	<ele>1789.80</ele>
	<time>2024-03-09T08:42:24.000Z</time>
</trkpt>
<trkpt lat="46.2564650" lon="10.5613600">
	<ele>1789.80</ele>
	<time>2024-03-09T08:42:25.000Z</time>
</trkpt>
<trkpt lat="46.2564650" lon="10.5613600">
	<ele>1789.80</ele>
	<time>2024-03-09T08:42:26.000Z</time>
</trkpt>
<trkpt lat="46.2564660" lon="10.5613590">
	<ele>1789.60</ele>
	<time>2024-03-09T08:42:27.000Z</time>
</trkpt>
<trkpt lat="46.2564680" lon="10.5613590">
	<ele>1789.40</ele>
	<time>2024-03-09T08:42:28.000Z</time>
</trkpt>
<trkpt lat="46.2564690" lon="10.5613590">
	<ele>1789.20</ele>
	<time>2024-03-09T08:42:29.000Z</time>
</trkpt>
<trkpt lat="46.2564700" lon="10.5613600">
	<ele>1789.20</ele>
	<time>2024-03-09T08:42:30.000Z</time>
</trkpt>
<trkpt lat="46.2564710" lon="10.5613590">
	<ele>1789.00</ele>
	<time>2024-03-09T08:42:31.000Z</time>
</trkpt>
<trkpt lat="46.2564710" lon="10.5613580">
	<ele>1789.00</ele>
	<time>2024-03-09T08:42:32.000Z</time>
</trkpt>
<trkpt lat="46.2564720" lon="10.5613580">
	<ele>1789.00</ele>
	<time>2024-03-09T08:42:33.000Z</time>
</trkpt>
<trkpt lat="46.2564700" lon="10.5613520">
	<ele>1789.00</ele>
	<time>2024-03-09T08:42:34.000Z</time>
</trkpt>
<trkpt lat="46.2564700" lon="10.5613480">
	<ele>1789.00</ele>
	<time>2024-03-09T08:42:35.000Z</time>
</trkpt>
<trkpt lat="46.2564700" lon="10.5613450">
	<ele>1789.00</ele>
	<time>2024-03-09T08:42:36.000Z</time>
</trkpt>
<trkpt lat="46.2564700" lon="10.5613430">
	<ele>1788.80</ele>
	<time>2024-03-09T08:42:37.000Z</time>
</trkpt>
<trkpt lat="46.2564700" lon="10.5613430">
	<ele>1788.80</ele>
	<time>2024-03-09T08:42:38.000Z</time>
</trkpt>
<trkpt lat="46.2564700" lon="10.5613430">
	<ele>1788.80</ele>
	<time>2024-03-09T08:42:39.000Z</time>
</trkpt>
<trkpt lat="46.2564700" lon="10.5613430">
	<ele>1789.00</ele>
	<time>2024-03-09T08:42:40.000Z</time>
</trkpt>
<trkpt lat="46.2564700" lon="10.5613430">
	<ele>1789.20</ele>
	<time>2024-03-09T08:42:41.000Z</time>
</trkpt>
<trkpt lat="46.2564700" lon="10.5613430">
	<ele>1789.20</ele>
	<time>2024-03-09T08:42:42.000Z</time>
</trkpt>
<trkpt lat="46.2564700" lon="10.5613430">
	<ele>1789.20</ele>
	<time>2024-03-09T08:42:43.000Z</time>
</trkpt>
<trkpt lat="46.2564700" lon="10.5613430">
	<ele>1789.40</ele>
	<time>2024-03-09T08:42:44.000Z</time>
</trkpt>
<trkpt lat="46.2564700" lon="10.5613430">
	<ele>1789.40</ele>
	<time>2024-03-09T08:42:45.000Z</time>
</trkpt>
<trkpt lat="46.2564700" lon="10.5613440">
	<ele>1789.40</ele>
	<time>2024-03-09T08:42:46.000Z</time>
</trkpt>
<trkpt lat="46.2564700" lon="10.5613440">
	<ele>1789.60</ele>
	<time>2024-03-09T08:42:47.000Z</time>
</trkpt>
<trkpt lat="46.2564700" lon="10.5613440">
	<ele>1789.60</ele>
	<time>2024-03-09T08:42:48.000Z</time>
</trkpt>
<trkpt lat="46.2564700" lon="10.5613440">
	<ele>1789.60</ele>
	<time>2024-03-09T08:42:49.000Z</time>
</trkpt>
<trkpt lat="46.2564700" lon="10.5613440">
	<ele>1789.60</ele>
	<time>2024-03-09T08:42:50.000Z</time>
</trkpt>
<trkpt lat="46.2564710" lon="10.5613440">
	<ele>1789.80</ele>
	<time>2024-03-09T08:42:51.000Z</time>
</trkpt>
<trkpt lat="46.2564710" lon="10.5613440">
	<ele>1790.00</ele>
	<time>2024-03-09T08:42:52.000Z</time>
</trkpt>
<trkpt lat="46.2564710" lon="10.5613440">
	<ele>1790.00</ele>
	<time>2024-03-09T08:42:53.000Z</time>
</trkpt>
<trkpt lat="46.2564710" lon="10.5613440">
	<ele>1790.20</ele>
	<time>2024-03-09T08:42:54.000Z</time>
</trkpt>
<trkpt lat="46.2564720" lon="10.5613440">
	<ele>1790.20</ele>
	<time>2024-03-09T08:42:55.000Z</time>
</trkpt>
<trkpt lat="46.2564730" lon="10.5613450">
	<ele>1790.20</ele>
	<time>2024-03-09T08:42:56.000Z</time>
</trkpt>
<trkpt lat="46.2564740" lon="10.5613450">
	<ele>1790.20</ele>
	<time>2024-03-09T08:42:57.000Z</time>
</trkpt>
<trkpt lat="46.2564750" lon="10.5613460">
	<ele>1790.20</ele>
	<time>2024-03-09T08:42:58.000Z</time>
</trkpt>
<trkpt lat="46.2564770" lon="10.5613460">
	<ele>1790.20</ele>
	<time>2024-03-09T08:42:59.000Z</time>
</trkpt>
<trkpt lat="46.2564790" lon="10.5613460">
	<ele>1790.20</ele>
	<time>2024-03-09T08:43:00.000Z</time>
</trkpt>
<trkpt lat="46.2564810" lon="10.5613460">
	<ele>1790.20</ele>
	<time>2024-03-09T08:43:01.000Z</time>
</trkpt>
<trkpt lat="46.2564820" lon="10.5613460">
	<ele>1790.20</ele>
	<time>2024-03-09T08:43:02.000Z</time>
</trkpt>
<trkpt lat="46.2564830" lon="10.5613460">
	<ele>1790.20</ele>
	<time>2024-03-09T08:43:03.000Z</time>
</trkpt>
<trkpt lat="46.2564840" lon="10.5613460">
	<ele>1790.20</ele>
	<time>2024-03-09T08:43:04.000Z</time>
</trkpt>
<trkpt lat="46.2564850" lon="10.5613460">
	<ele>1790.00</ele>
	<time>2024-03-09T08:43:05.000Z</time>
</trkpt>
<trkpt lat="46.2564850" lon="10.5613460">
	<ele>1790.00</ele>
	<time>2024-03-09T08:43:06.000Z</time>
</trkpt>
<trkpt lat="46.2564850" lon="10.5613470">
	<ele>1789.80</ele>
	<time>2024-03-09T08:43:07.000Z</time>
</trkpt>
<trkpt lat="46.2564850" lon="10.5613480">
	<ele>1789.80</ele>
	<time>2024-03-09T08:43:08.000Z</time>
</trkpt>
<trkpt lat="46.2564860" lon="10.5613490">
	<ele>1789.80</ele>
	<time>2024-03-09T08:43:09.000Z</time>
</trkpt>
<trkpt lat="46.2564870" lon="10.5613500">
	<ele>1789.80</ele>
	<time>2024-03-09T08:43:10.000Z</time>
</trkpt>
<trkpt lat="46.2564870" lon="10.5613500">
	<ele>1789.80</ele>
	<time>2024-03-09T08:43:11.000Z</time>
</trkpt>
<trkpt lat="46.2564870" lon="10.5613500">
	<ele>1789.80</ele>
	<time>2024-03-09T08:43:12.000Z</time>
</trkpt>
<trkpt lat="46.2564870" lon="10.5613500">
	<ele>1789.80</ele>
	<time>2024-03-09T08:43:13.000Z</time>
</trkpt>
<trkpt lat="46.2564880" lon="10.5613500">
	<ele>1789.80</ele>
	<time>2024-03-09T08:43:14.000Z</time>
</trkpt>
<trkpt lat="46.2564880" lon="10.5613500">
	<ele>1789.60</ele>
	<time>2024-03-09T08:43:15.000Z</time>
</trkpt>
<trkpt lat="46.2564880" lon="10.5613500">
	<ele>1789.60</ele>
	<time>2024-03-09T08:43:16.000Z</time>
</trkpt>
<trkpt lat="46.2564880" lon="10.5613500">
	<ele>1789.60</ele>
	<time>2024-03-09T08:43:17.000Z</time>
</trkpt>
<trkpt lat="46.2564880" lon="10.5613500">
	<ele>1789.60</ele>
	<time>2024-03-09T08:43:18.000Z</time>
</trkpt>
<trkpt lat="46.2564890" lon="10.5613500">
	<ele>1789.80</ele>
	<time>2024-03-09T08:43:19.000Z</time>
</trkpt>
<trkpt lat="46.2564890" lon="10.5613500">
	<ele>1789.80</ele>
	<time>2024-03-09T08:43:20.000Z</time>
</trkpt>
<trkpt lat="46.2564890" lon="10.5613500">
	<ele>1789.80</ele>
	<time>2024-03-09T08:43:21.000Z</time>
</trkpt>
<trkpt lat="46.2564890" lon="10.5613500">
	<ele>1789.80</ele>
	<time>2024-03-09T08:43:22.000Z</time>
</trkpt>
<trkpt lat="46.2564890" lon="10.5613500">
	<ele>1789.80</ele>
	<time>2024-03-09T08:43:23.000Z</time>
</trkpt>
<trkpt lat="46.2564890" lon="10.5613500">
	<ele>1789.80</ele>
	<time>2024-03-09T08:43:24.000Z</time>
</trkpt>
<trkpt lat="46.2564890" lon="10.5613500">
	<ele>1790.00</ele>
	<time>2024-03-09T08:43:25.000Z</time>
</trkpt>
<trkpt lat="46.2564900" lon="10.5613500">
	<ele>1790.00</ele>
	<time>2024-03-09T08:43:26.000Z</time>
</trkpt>
<trkpt lat="46.2564900" lon="10.5613490">
	<ele>1790.00</ele>
	<time>2024-03-09T08:43:27.000Z</time>
</trkpt>
<trkpt lat="46.2564900" lon="10.5613490">
	<ele>1790.00</ele>
	<time>2024-03-09T08:43:28.000Z</time>
</trkpt>
<trkpt lat="46.2564900" lon="10.5613490">
	<ele>1790.00</ele>
	<time>2024-03-09T08:43:29.000Z</time>
</trkpt>
<trkpt lat="46.2564900" lon="10.5613490">
	<ele>1790.00</ele>
	<time>2024-03-09T08:43:30.000Z</time>
</trkpt>
<trkpt lat="46.2564900" lon="10.5613490">
	<ele>1790.00</ele>
	<time>2024-03-09T08:43:31.000Z</time>
</trkpt>
<trkpt lat="46.2564890" lon="10.5613480">
	<ele>1790.00</ele>
	<time>2024-03-09T08:43:32.000Z</time>
</trkpt>
<trkpt lat="46.2564890" lon="10.5613470">
	<ele>1790.00</ele>
	<time>2024-03-09T08:43:33.000Z</time>
</trkpt>
<trkpt lat="46.2564890" lon="10.5613470">
	<ele>1790.00</ele>
	<time>2024-03-09T08:43:34.000Z</time>
</trkpt>
<trkpt lat="46.2564890" lon="10.5613470">
	<ele>1790.00</ele>
	<time>2024-03-09T08:43:35.000Z</time>
</trkpt>
<trkpt lat="46.2564890" lon="10.5613470">
	<ele>1790.00</ele>
	<time>2024-03-09T08:43:36.000Z</time>
</trkpt>
<trkpt lat="46.2564890" lon="10.5613470">
	<ele>1790.00</ele>
	<time>2024-03-09T08:43:37.000Z</time>
</trkpt>
<trkpt lat="46.2564890" lon="10.5613470">
	<ele>1790.00</ele>
	<time>2024-03-09T08:43:38.000Z</time>
</trkpt>
<trkpt lat="46.2564890" lon="10.5613470">
	<ele>1790.00</ele>
	<time>2024-03-09T08:43:39.000Z</time>
</trkpt>
<trkpt lat="46.2564880" lon="10.5613470">
	<ele>1790.00</ele>
	<time>2024-03-09T08:43:40.000Z</time>
</trkpt>
<trkpt lat="46.2564870" lon="10.5613470">
	<ele>1790.00</ele>
	<time>2024-03-09T08:43:41.000Z</time>
</trkpt>
<trkpt lat="46.2564870" lon="10.5613470">
	<ele>1790.00</ele>
	<time>2024-03-09T08:43:42.000Z</time>
</trkpt>
<trkpt lat="46.2564830" lon="10.5613470">
	<ele>1789.80</ele>
	<time>2024-03-09T08:43:43.000Z</time>
</trkpt>
<trkpt lat="46.2564790" lon="10.5613470">
	<ele>1789.80</ele>
	<time>2024-03-09T08:43:44.000Z</time>
</trkpt>
<trkpt lat="46.2564770" lon="10.5613470">
	<ele>1789.80</ele>
	<time>2024-03-09T08:43:45.000Z</time>
</trkpt>
<trkpt lat="46.2564740" lon="10.5613480">
	<ele>1789.80</ele>
	<time>2024-03-09T08:43:46.000Z</time>
</trkpt>
<trkpt lat="46.2564730" lon="10.5613490">
	<ele>1789.80</ele>
	<time>2024-03-09T08:43:47.000Z</time>
</trkpt>
<trkpt lat="46.2564730" lon="10.5613490">
	<ele>1789.60</ele>
	<time>2024-03-09T08:43:48.000Z</time>
</trkpt>
<trkpt lat="46.2564720" lon="10.5613510">
	<ele>1789.60</ele>
	<time>2024-03-09T08:43:49.000Z</time>
</trkpt>
<trkpt lat="46.2564700" lon="10.5613520">
	<ele>1790.00</ele>
	<time>2024-03-09T08:43:50.000Z</time>
</trkpt>
<trkpt lat="46.2564690" lon="10.5613520">
	<ele>1790.00</ele>
	<time>2024-03-09T08:43:51.000Z</time>
</trkpt>
<trkpt lat="46.2564680" lon="10.5613520">
	<ele>1790.00</ele>
	<time>2024-03-09T08:43:52.000Z</time>
</trkpt>
<trkpt lat="46.2564680" lon="10.5613530">
	<ele>1790.00</ele>
	<time>2024-03-09T08:43:53.000Z</time>
</trkpt>
<trkpt lat="46.2564670" lon="10.5613530">
	<ele>1790.00</ele>
	<time>2024-03-09T08:43:54.000Z</time>
</trkpt>
<trkpt lat="46.2564620" lon="10.5613550">
	<ele>1790.00</ele>
	<time>2024-03-09T08:43:55.000Z</time>
</trkpt>
<trkpt lat="46.2564590" lon="10.5613570">
	<ele>1790.00</ele>
	<time>2024-03-09T08:43:56.000Z</time>
</trkpt>
<trkpt lat="46.2564580" lon="10.5613580">
	<ele>1790.00</ele>
	<time>2024-03-09T08:43:57.000Z</time>
</trkpt>
<trkpt lat="46.2564580" lon="10.5613580">
	<ele>1790.00</ele>
	<time>2024-03-09T08:43:58.000Z</time>
</trkpt>
<trkpt lat="46.2564570" lon="10.5613580">
	<ele>1790.20</ele>
	<time>2024-03-09T08:43:59.000Z</time>
</trkpt>
<trkpt lat="46.2564570" lon="10.5613580">
	<ele>1790.20</ele>
	<time>2024-03-09T08:44:00.000Z</time>
</trkpt>
<trkpt lat="46.2564570" lon="10.5613590">
	<ele>1790.00</ele>
	<time>2024-03-09T08:44:01.000Z</time>
</trkpt>
<trkpt lat="46.2564570" lon="10.5613590">
	<ele>1790.00</ele>
	<time>2024-03-09T08:44:02.000Z</time>
</trkpt>
<trkpt lat="46.2564570" lon="10.5613590">
	<ele>1790.20</ele>
	<time>2024-03-09T08:44:03.000Z</time>
</trkpt>
<trkpt lat="46.2564570" lon="10.5613600">
	<ele>1790.20</ele>
	<time>2024-03-09T08:44:04.000Z</time>
</trkpt>
<trkpt lat="46.2564570" lon="10.5613600">
	<ele>1790.00</ele>
	<time>2024-03-09T08:44:05.000Z</time>
</trkpt>
<trkpt lat="46.2564580" lon="10.5613670">
	<ele>1790.20</ele>
	<time>2024-03-09T08:44:06.000Z</time>
</trkpt>
<trkpt lat="46.2564630" lon="10.5613840">
	<ele>1790.20</ele>
	<time>2024-03-09T08:44:07.000Z</time>
</trkpt>
<trkpt lat="46.2564650" lon="10.5614010">
	<ele>1790.20</ele>
	<time>2024-03-09T08:44:08.000Z</time>
</trkpt>
<trkpt lat="46.2564680" lon="10.5614200">
	<ele>1790.20</ele>
	<time>2024-03-09T08:44:09.000Z</time>
</trkpt>
<trkpt lat="46.2564710" lon="10.5614390">
	<ele>1790.20</ele>
	<time>2024-03-09T08:44:10.000Z</time>
</trkpt>
<trkpt lat="46.2564760" lon="10.5614570">
	<ele>1790.40</ele>
	<time>2024-03-09T08:44:11.000Z</time>
</trkpt>
<trkpt lat="46.2564810" lon="10.5614750">
	<ele>1790.40</ele>
	<time>2024-03-09T08:44:12.000Z</time>
</trkpt>
<trkpt lat="46.2564850" lon="10.5614950">
	<ele>1790.60</ele>
	<time>2024-03-09T08:44:13.000Z</time>
</trkpt>
<trkpt lat="46.2564890" lon="10.5615120">
	<ele>1790.60</ele>
	<time>2024-03-09T08:44:14.000Z</time>
</trkpt>
<trkpt lat="46.2564920" lon="10.5615300">
	<ele>1790.80</ele>
	<time>2024-03-09T08:44:15.000Z</time>
</trkpt>
<trkpt lat="46.2564930" lon="10.5615440">
	<ele>1790.80</ele>
	<time>2024-03-09T08:44:16.000Z</time>
</trkpt>
<trkpt lat="46.2564950" lon="10.5615540">
	<ele>1790.80</ele>
	<time>2024-03-09T08:44:17.000Z</time>
</trkpt>
<trkpt lat="46.2564950" lon="10.5615650">
	<ele>1790.80</ele>
	<time>2024-03-09T08:44:18.000Z</time>
</trkpt>
<trkpt lat="46.2564950" lon="10.5615720">
	<ele>1790.80</ele>
	<time>2024-03-09T08:44:19.000Z</time>
</trkpt>
<trkpt lat="46.2564950" lon="10.5615740">
	<ele>1790.80</ele>
	<time>2024-03-09T08:44:20.000Z</time>
</trkpt>
<trkpt lat="46.2564980" lon="10.5615760">
	<ele>1791.00</ele>
	<time>2024-03-09T08:44:21.000Z</time>
</trkpt>
<trkpt lat="46.2564980" lon="10.5615830">
	<ele>1791.20</ele>
	<time>2024-03-09T08:44:22.000Z</time>
</trkpt>
<trkpt lat="46.2564990" lon="10.5615930">
	<ele>1791.20</ele>
	<time>2024-03-09T08:44:23.000Z</time>
</trkpt>
<trkpt lat="46.2564970" lon="10.5616020">
	<ele>1791.40</ele>
	<time>2024-03-09T08:44:24.000Z</time>
</trkpt>
<trkpt lat="46.2564920" lon="10.5616160">
	<ele>1791.40</ele>
	<time>2024-03-09T08:44:25.000Z</time>
</trkpt>
<trkpt lat="46.2564890" lon="10.5616280">
	<ele>1791.60</ele>
	<time>2024-03-09T08:44:26.000Z</time>
</trkpt>
<trkpt lat="46.2564890" lon="10.5616430">
	<ele>1791.60</ele>
	<time>2024-03-09T08:44:27.000Z</time>
</trkpt>
<trkpt lat="46.2564900" lon="10.5616540">
	<ele>1791.60</ele>
	<time>2024-03-09T08:44:28.000Z</time>
</trkpt>
<trkpt lat="46.2564890" lon="10.5616660">
	<ele>1791.80</ele>
	<time>2024-03-09T08:44:29.000Z</time>
</trkpt>
<trkpt lat="46.2564890" lon="10.5616810">
	<ele>1792.00</ele>
	<time>2024-03-09T08:44:30.000Z</time>
</trkpt>
<trkpt lat="46.2564900" lon="10.5616900">
	<ele>1792.20</ele>
	<time>2024-03-09T08:44:31.000Z</time>
</trkpt>
<trkpt lat="46.2564960" lon="10.5617030">
	<ele>1792.20</ele>
	<time>2024-03-09T08:44:32.000Z</time>
</trkpt>
<trkpt lat="46.2564980" lon="10.5617100">
	<ele>1792.40</ele>
	<time>2024-03-09T08:44:33.000Z</time>
</trkpt>
<trkpt lat="46.2564980" lon="10.5617180">
	<ele>1792.40</ele>
	<time>2024-03-09T08:44:34.000Z</time>
</trkpt>
<trkpt lat="46.2564950" lon="10.5617300">
	<ele>1792.40</ele>
	<time>2024-03-09T08:44:35.000Z</time>
</trkpt>
<trkpt lat="46.2564920" lon="10.5617450">
	<ele>1792.60</ele>
	<time>2024-03-09T08:44:36.000Z</time>
</trkpt>
<trkpt lat="46.2564910" lon="10.5617600">
	<ele>1792.60</ele>
	<time>2024-03-09T08:44:37.000Z</time>
</trkpt>
<trkpt lat="46.2564940" lon="10.5617710">
	<ele>1792.80</ele>
	<time>2024-03-09T08:44:38.000Z</time>
</trkpt>
<trkpt lat="46.2564970" lon="10.5617820">
	<ele>1792.80</ele>
	<time>2024-03-09T08:44:39.000Z</time>
</trkpt>
<trkpt lat="46.2564950" lon="10.5617940">
	<ele>1793.00</ele>
	<time>2024-03-09T08:44:40.000Z</time>
</trkpt>
<trkpt lat="46.2564980" lon="10.5618040">
	<ele>1793.00</ele>
	<time>2024-03-09T08:44:41.000Z</time>
</trkpt>
<trkpt lat="46.2564990" lon="10.5618150">
	<ele>1793.20</ele>
	<time>2024-03-09T08:44:42.000Z</time>
</trkpt>
<trkpt lat="46.2564990" lon="10.5618280">
	<ele>1793.20</ele>
	<time>2024-03-09T08:44:43.000Z</time>
</trkpt>
<trkpt lat="46.2564990" lon="10.5618380">
	<ele>1793.40</ele>
	<time>2024-03-09T08:44:44.000Z</time>
</trkpt>
<trkpt lat="46.2564990" lon="10.5618490">
	<ele>1793.40</ele>
	<time>2024-03-09T08:44:45.000Z</time>
</trkpt>
<trkpt lat="46.2564990" lon="10.5618610">
	<ele>1793.40</ele>
	<time>2024-03-09T08:44:46.000Z</time>
</trkpt>
<trkpt lat="46.2564980" lon="10.5618700">
	<ele>1793.60</ele>
	<time>2024-03-09T08:44:47.000Z</time>
</trkpt>
<trkpt lat="46.2564950" lon="10.5618830">
	<ele>1793.80</ele>
	<time>2024-03-09T08:44:48.000Z</time>
</trkpt>
<trkpt lat="46.2564900" lon="10.5618960">
	<ele>1794.00</ele>
	<time>2024-03-09T08:44:49.000Z</time>
</trkpt>
<trkpt lat="46.2564910" lon="10.5619050">
	<ele>1794.20</ele>
	<time>2024-03-09T08:44:50.000Z</time>
</trkpt>
<trkpt lat="46.2564920" lon="10.5619100">
	<ele>1794.40</ele>
	<time>2024-03-09T08:44:51.000Z</time>
</trkpt>
<trkpt lat="46.2564900" lon="10.5619150">
	<ele>1794.40</ele>
	<time>2024-03-09T08:44:52.000Z</time>
</trkpt>
<trkpt lat="46.2564870" lon="10.5619270">
	<ele>1794.40</ele>
	<time>2024-03-09T08:44:53.000Z</time>
</trkpt>
<trkpt lat="46.2564840" lon="10.5619410">
	<ele>1794.60</ele>
	<time>2024-03-09T08:44:54.000Z</time>
</trkpt>
<trkpt lat="46.2564880" lon="10.5619540">
	<ele>1794.80</ele>
	<time>2024-03-09T08:44:55.000Z</time>
</trkpt>
<trkpt lat="46.2564890" lon="10.5619670">
	<ele>1794.80</ele>
	<time>2024-03-09T08:44:56.000Z</time>
</trkpt>
<trkpt lat="46.2564860" lon="10.5619810">
	<ele>1794.80</ele>
	<time>2024-03-09T08:44:57.000Z</time>
</trkpt>
<trkpt lat="46.2564850" lon="10.5619950">
	<ele>1795.00</ele>
	<time>2024-03-09T08:44:58.000Z</time>
</trkpt>
<trkpt lat="46.2564900" lon="10.5620110">
	<ele>1795.00</ele>
	<time>2024-03-09T08:44:59.000Z</time>
</trkpt>
<trkpt lat="46.2564960" lon="10.5620230">
	<ele>1795.00</ele>
	<time>2024-03-09T08:45:00.000Z</time>
</trkpt>
<trkpt lat="46.2564990" lon="10.5620340">
	<ele>1795.20</ele>
	<time>2024-03-09T08:45:01.000Z</time>
</trkpt>
<trkpt lat="46.2564960" lon="10.5620470">
	<ele>1795.40</ele>
	<time>2024-03-09T08:45:02.000Z</time>
</trkpt>
<trkpt lat="46.2564900" lon="10.5620620">
	<ele>1795.40</ele>
	<time>2024-03-09T08:45:03.000Z</time>
</trkpt>
<trkpt lat="46.2564900" lon="10.5620740">
	<ele>1795.60</ele>
	<time>2024-03-09T08:45:04.000Z</time>
</trkpt>
<trkpt lat="46.2564960" lon="10.5620850">
	<ele>1795.80</ele>
	<time>2024-03-09T08:45:05.000Z</time>
</trkpt>
<trkpt lat="46.2565020" lon="10.5620970">
	<ele>1795.80</ele>
	<time>2024-03-09T08:45:06.000Z</time>
</trkpt>
<trkpt lat="46.2565060" lon="10.5621110">
	<ele>1795.80</ele>
	<time>2024-03-09T08:45:07.000Z</time>
</trkpt>
<trkpt lat="46.2565140" lon="10.5621200">
	<ele>1796.00</ele>
	<time>2024-03-09T08:45:08.000Z</time>
</trkpt>
<trkpt lat="46.2565220" lon="10.5621260">
	<ele>1796.20</ele>
	<time>2024-03-09T08:45:09.000Z</time>
</trkpt>
<trkpt lat="46.2565240" lon="10.5621360">
	<ele>1796.20</ele>
	<time>2024-03-09T08:45:10.000Z</time>
</trkpt>
<trkpt lat="46.2565280" lon="10.5621460">
	<ele>1796.40</ele>
	<time>2024-03-09T08:45:11.000Z</time>
</trkpt>
<trkpt lat="46.2565290" lon="10.5621570">
	<ele>1796.60</ele>
	<time>2024-03-09T08:45:12.000Z</time>
</trkpt>
<trkpt lat="46.2565340" lon="10.5621660">
	<ele>1796.60</ele>
	<time>2024-03-09T08:45:13.000Z</time>
</trkpt>
<trkpt lat="46.2565360" lon="10.5621750">
	<ele>1796.80</ele>
	<time>2024-03-09T08:45:14.000Z</time>
</trkpt>
<trkpt lat="46.2565390" lon="10.5621900">
	<ele>1796.80</ele>
	<time>2024-03-09T08:45:15.000Z</time>
</trkpt>
<trkpt lat="46.2565390" lon="10.5622040">
	<ele>1796.80</ele>
	<time>2024-03-09T08:45:16.000Z</time>
</trkpt>
<trkpt lat="46.2565420" lon="10.5622150">
	<ele>1797.00</ele>
	<time>2024-03-09T08:45:17.000Z</time>
</trkpt>
<trkpt lat="46.2565450" lon="10.5622240">
	<ele>1797.00</ele>
	<time>2024-03-09T08:45:18.000Z</time>
</trkpt>
<trkpt lat="46.2565490" lon="10.5622410">
	<ele>1797.20</ele>
	<time>2024-03-09T08:45:19.000Z</time>
</trkpt>
<trkpt lat="46.2565530" lon="10.5622590">
	<ele>1797.20</ele>
	<time>2024-03-09T08:45:20.000Z</time>
</trkpt>
<trkpt lat="46.2565580" lon="10.5622690">
	<ele>1797.40</ele>
	<time>2024-03-09T08:45:21.000Z</time>
</trkpt>
<trkpt lat="46.2565620" lon="10.5622800">
	<ele>1797.40</ele>
	<time>2024-03-09T08:45:22.000Z</time>
</trkpt>
<trkpt lat="46.2565640" lon="10.5622940">
	<ele>1797.40</ele>
	<time>2024-03-09T08:45:23.000Z</time>
</trkpt>
<trkpt lat="46.2565680" lon="10.5623050">
	<ele>1797.40</ele>
	<time>2024-03-09T08:45:24.000Z</time>
</trkpt>
<trkpt lat="46.2565640" lon="10.5623150">
	<ele>1797.60</ele>
	<time>2024-03-09T08:45:25.000Z</time>
</trkpt>
<trkpt lat="46.2565580" lon="10.5623270">
	<ele>1797.60</ele>
	<time>2024-03-09T08:45:26.000Z</time>
</trkpt>
<trkpt lat="46.2565580" lon="10.5623380">
	<ele>1797.80</ele>
	<time>2024-03-09T08:45:27.000Z</time>
</trkpt>
<trkpt lat="46.2565640" lon="10.5623480">
	<ele>1798.00</ele>
	<time>2024-03-09T08:45:28.000Z</time>
</trkpt>
<trkpt lat="46.2565690" lon="10.5623590">
	<ele>1798.00</ele>
	<time>2024-03-09T08:45:29.000Z</time>
</trkpt>
<trkpt lat="46.2565710" lon="10.5623710">
	<ele>1798.20</ele>
	<time>2024-03-09T08:45:30.000Z</time>
</trkpt>
<trkpt lat="46.2565750" lon="10.5623810">
	<ele>1798.20</ele>
	<time>2024-03-09T08:45:31.000Z</time>
</trkpt>
<trkpt lat="46.2565760" lon="10.5623950">
	<ele>1798.20</ele>
	<time>2024-03-09T08:45:32.000Z</time>
</trkpt>
<trkpt lat="46.2565750" lon="10.5624150">
	<ele>1798.40</ele>
	<time>2024-03-09T08:45:33.000Z</time>
</trkpt>
<trkpt lat="46.2565750" lon="10.5624280">
	<ele>1798.40</ele>
	<time>2024-03-09T08:45:34.000Z</time>
</trkpt>
<trkpt lat="46.2565810" lon="10.5624460">
	<ele>1798.40</ele>
	<time>2024-03-09T08:45:35.000Z</time>
</trkpt>
<trkpt lat="46.2565880" lon="10.5624650">
	<ele>1798.60</ele>
	<time>2024-03-09T08:45:36.000Z</time>
</trkpt>
<trkpt lat="46.2565930" lon="10.5624720">
	<ele>1798.60</ele>
	<time>2024-03-09T08:45:37.000Z</time>
</trkpt>
<trkpt lat="46.2565990" lon="10.5624790">
	<ele>1798.60</ele>
	<time>2024-03-09T08:45:38.000Z</time>
</trkpt>
<trkpt lat="46.2566010" lon="10.5624900">
	<ele>1798.80</ele>
	<time>2024-03-09T08:45:39.000Z</time>
</trkpt>
<trkpt lat="46.2566010" lon="10.5625030">
	<ele>1798.80</ele>
	<time>2024-03-09T08:45:40.000Z</time>
</trkpt>
<trkpt lat="46.2566050" lon="10.5625180">
	<ele>1799.00</ele>
	<time>2024-03-09T08:45:41.000Z</time>
</trkpt>
<trkpt lat="46.2566080" lon="10.5625330">
	<ele>1799.00</ele>
	<time>2024-03-09T08:45:42.000Z</time>
</trkpt>
<trkpt lat="46.2566150" lon="10.5625440">
	<ele>1799.20</ele>
	<time>2024-03-09T08:45:43.000Z</time>
</trkpt>
<trkpt lat="46.2566210" lon="10.5625600">
	<ele>1799.20</ele>
	<time>2024-03-09T08:45:44.000Z</time>
</trkpt>
<trkpt lat="46.2566230" lon="10.5625720">
	<ele>1799.40</ele>
	<time>2024-03-09T08:45:45.000Z</time>
</trkpt>
<trkpt lat="46.2566240" lon="10.5625810">
	<ele>1799.60</ele>
	<time>2024-03-09T08:45:46.000Z</time>
</trkpt>
<trkpt lat="46.2566260" lon="10.5625910">
	<ele>1799.80</ele>
	<time>2024-03-09T08:45:47.000Z</time>
</trkpt>
<trkpt lat="46.2566320" lon="10.5626020">
	<ele>1799.80</ele>
	<time>2024-03-09T08:45:48.000Z</time>
</trkpt>
<trkpt lat="46.2566370" lon="10.5626140">
	<ele>1799.80</ele>
	<time>2024-03-09T08:45:49.000Z</time>
</trkpt>
<trkpt lat="46.2566450" lon="10.5626250">
	<ele>1800.00</ele>
	<time>2024-03-09T08:45:50.000Z</time>
</trkpt>
<trkpt lat="46.2566500" lon="10.5626340">
	<ele>1800.00</ele>
	<time>2024-03-09T08:45:51.000Z</time>
</trkpt>
<trkpt lat="46.2566610" lon="10.5626420">
	<ele>1800.20</ele>
	<time>2024-03-09T08:45:52.000Z</time>
</trkpt>
<trkpt lat="46.2566660" lon="10.5626500">
	<ele>1800.20</ele>
	<time>2024-03-09T08:45:53.000Z</time>
</trkpt>
<trkpt lat="46.2566700" lon="10.5626570">
	<ele>1800.40</ele>
	<time>2024-03-09T08:45:54.000Z</time>
</trkpt>
<trkpt lat="46.2566740" lon="10.5626680">
	<ele>1800.60</ele>
	<time>2024-03-09T08:45:55.000Z</time>
</trkpt>
<trkpt lat="46.2566770" lon="10.5626790">
	<ele>1800.60</ele>
	<time>2024-03-09T08:45:56.000Z</time>
</trkpt>
<trkpt lat="46.2566800" lon="10.5626950">
	<ele>1800.80</ele>
	<time>2024-03-09T08:45:57.000Z</time>
</trkpt>
<trkpt lat="46.2566840" lon="10.5627100">
	<ele>1801.00</ele>
	<time>2024-03-09T08:45:58.000Z</time>
</trkpt>
<trkpt lat="46.2566890" lon="10.5627200">
	<ele>1801.00</ele>
	<time>2024-03-09T08:45:59.000Z</time>
</trkpt>
<trkpt lat="46.2566930" lon="10.5627290">
	<ele>1801.20</ele>
	<time>2024-03-09T08:46:00.000Z</time>
</trkpt>
<trkpt lat="46.2566980" lon="10.5627380">
	<ele>1801.20</ele>
	<time>2024-03-09T08:46:01.000Z</time>
</trkpt>
<trkpt lat="46.2567050" lon="10.5627480">
	<ele>1801.20</ele>
	<time>2024-03-09T08:46:02.000Z</time>
</trkpt>
<trkpt lat="46.2567090" lon="10.5627580">
	<ele>1801.20</ele>
	<time>2024-03-09T08:46:03.000Z</time>
</trkpt>
<trkpt lat="46.2567130" lon="10.5627680">
	<ele>1801.40</ele>
	<time>2024-03-09T08:46:04.000Z</time>
</trkpt>
<trkpt lat="46.2567170" lon="10.5627790">
	<ele>1801.60</ele>
	<time>2024-03-09T08:46:05.000Z</time>
</trkpt>
<trkpt lat="46.2567220" lon="10.5627920">
	<ele>1801.60</ele>
	<time>2024-03-09T08:46:06.000Z</time>
</trkpt>
<trkpt lat="46.2567270" lon="10.5628010">
	<ele>1801.80</ele>
	<time>2024-03-09T08:46:07.000Z</time>
</trkpt>
<trkpt lat="46.2567320" lon="10.5628140">
	<ele>1801.80</ele>
	<time>2024-03-09T08:46:08.000Z</time>
</trkpt>
<trkpt lat="46.2567370" lon="10.5628240">
	<ele>1802.00</ele>
	<time>2024-03-09T08:46:09.000Z</time>
</trkpt>
<trkpt lat="46.2567420" lon="10.5628350">
	<ele>1802.00</ele>
	<time>2024-03-09T08:46:10.000Z</time>
</trkpt>
<trkpt lat="46.2567460" lon="10.5628440">
	<ele>1802.20</ele>
	<time>2024-03-09T08:46:11.000Z</time>
</trkpt>
<trkpt lat="46.2567490" lon="10.5628490">
	<ele>1802.20</ele>
	<time>2024-03-09T08:46:12.000Z</time>
</trkpt>
<trkpt lat="46.2567500" lon="10.5628550">
	<ele>1802.40</ele>
	<time>2024-03-09T08:46:13.000Z</time>
</trkpt>
<trkpt lat="46.2567500" lon="10.5628630">
	<ele>1802.40</ele>
	<time>2024-03-09T08:46:14.000Z</time>
</trkpt>
<trkpt lat="46.2567500" lon="10.5628740">
	<ele>1802.40</ele>
	<time>2024-03-09T08:46:15.000Z</time>
</trkpt>
<trkpt lat="46.2567570" lon="10.5628910">
	<ele>1802.40</ele>
	<time>2024-03-09T08:46:16.000Z</time>
</trkpt>
<trkpt lat="46.2567610" lon="10.5629050">
	<ele>1802.40</ele>
	<time>2024-03-09T08:46:17.000Z</time>
</trkpt>
<trkpt lat="46.2567650" lon="10.5629190">
	<ele>1802.40</ele>
	<time>2024-03-09T08:46:18.000Z</time>
</trkpt>
<trkpt lat="46.2567680" lon="10.5629280">
	<ele>1802.60</ele>
	<time>2024-03-09T08:46:19.000Z</time>
</trkpt>
<trkpt lat="46.2567670" lon="10.5629370">
	<ele>1802.80</ele>
	<time>2024-03-09T08:46:20.000Z</time>
</trkpt>
<trkpt lat="46.2567710" lon="10.5629490">
	<ele>1802.80</ele>
	<time>2024-03-09T08:46:21.000Z</time>
</trkpt>
<trkpt lat="46.2567750" lon="10.5629630">
	<ele>1803.00</ele>
	<time>2024-03-09T08:46:22.000Z</time>
</trkpt>
<trkpt lat="46.2567760" lon="10.5629730">
	<ele>1803.20</ele>
	<time>2024-03-09T08:46:23.000Z</time>
</trkpt>
<trkpt lat="46.2567800" lon="10.5629830">
	<ele>1803.20</ele>
	<time>2024-03-09T08:46:24.000Z</time>
</trkpt>
<trkpt lat="46.2567850" lon="10.5629950">
	<ele>1803.20</ele>
	<time>2024-03-09T08:46:25.000Z</time>
</trkpt>
<trkpt lat="46.2567890" lon="10.5630040">
	<ele>1803.40</ele>
	<time>2024-03-09T08:46:26.000Z</time>
</trkpt>
<trkpt lat="46.2567920" lon="10.5630150">
	<ele>1803.60</ele>
	<time>2024-03-09T08:46:27.000Z</time>
</trkpt>
<trkpt lat="46.2567950" lon="10.5630280">
	<ele>1803.80</ele>
	<time>2024-03-09T08:46:28.000Z</time>
</trkpt>
<trkpt lat="46.2567990" lon="10.5630400">
	<ele>1804.00</ele>
	<time>2024-03-09T08:46:29.000Z</time>
</trkpt>
<trkpt lat="46.2568040" lon="10.5630500">
	<ele>1804.00</ele>
	<time>2024-03-09T08:46:30.000Z</time>
</trkpt>
<trkpt lat="46.2568090" lon="10.5630600">
	<ele>1804.20</ele>
	<time>2024-03-09T08:46:31.000Z</time>
</trkpt>
<trkpt lat="46.2568140" lon="10.5630700">
	<ele>1804.20</ele>
	<time>2024-03-09T08:46:32.000Z</time>
</trkpt>
<trkpt lat="46.2568210" lon="10.5630850">
	<ele>1804.40</ele>
	<time>2024-03-09T08:46:33.000Z</time>
</trkpt>
<trkpt lat="46.2568240" lon="10.5630990">
	<ele>1804.40</ele>
	<time>2024-03-09T08:46:34.000Z</time>
</trkpt>
<trkpt lat="46.2568270" lon="10.5631100">
	<ele>1804.60</ele>
	<time>2024-03-09T08:46:35.000Z</time>
</trkpt>
<trkpt lat="46.2568320" lon="10.5631200">
	<ele>1804.60</ele>
	<time>2024-03-09T08:46:36.000Z</time>
</trkpt>
<trkpt lat="46.2568380" lon="10.5631330">
	<ele>1804.60</ele>
	<time>2024-03-09T08:46:37.000Z</time>
</trkpt>
<trkpt lat="46.2568420" lon="10.5631470">
	<ele>1804.80</ele>
	<time>2024-03-09T08:46:38.000Z</time>
</trkpt>
<trkpt lat="46.2568450" lon="10.5631610">
	<ele>1804.80</ele>
	<time>2024-03-09T08:46:39.000Z</time>
</trkpt>
<trkpt lat="46.2568470" lon="10.5631750">
	<ele>1805.00</ele>
	<time>2024-03-09T08:46:40.000Z</time>
</trkpt>
<trkpt lat="46.2568500" lon="10.5631920">
	<ele>1805.20</ele>
	<time>2024-03-09T08:46:41.000Z</time>
</trkpt>
<trkpt lat="46.2568490" lon="10.5632040">
	<ele>1805.20</ele>
	<time>2024-03-09T08:46:42.000Z</time>
</trkpt>
<trkpt lat="46.2568440" lon="10.5632220">
	<ele>1805.40</ele>
	<time>2024-03-09T08:46:43.000Z</time>
</trkpt>
<trkpt lat="46.2568460" lon="10.5632330">
	<ele>1805.40</ele>
	<time>2024-03-09T08:46:44.000Z</time>
</trkpt>
<trkpt lat="46.2568460" lon="10.5632450">
	<ele>1805.60</ele>
	<time>2024-03-09T08:46:45.000Z</time>
</trkpt>
<trkpt lat="46.2568440" lon="10.5632600">
	<ele>1805.60</ele>
	<time>2024-03-09T08:46:46.000Z</time>
</trkpt>
<trkpt lat="46.2568430" lon="10.5632730">
	<ele>1805.80</ele>
	<time>2024-03-09T08:46:47.000Z</time>
</trkpt>
<trkpt lat="46.2568410" lon="10.5632800">
	<ele>1805.80</ele>
	<time>2024-03-09T08:46:48.000Z</time>
</trkpt>
<trkpt lat="46.2568400" lon="10.5632910">
	<ele>1806.00</ele>
	<time>2024-03-09T08:46:49.000Z</time>
</trkpt>
<trkpt lat="46.2568380" lon="10.5633040">
	<ele>1806.00</ele>
	<time>2024-03-09T08:46:50.000Z</time>
</trkpt>
<trkpt lat="46.2568360" lon="10.5633210">
	<ele>1806.00</ele>
	<time>2024-03-09T08:46:51.000Z</time>
</trkpt>
<trkpt lat="46.2568380" lon="10.5633330">
	<ele>1806.20</ele>
	<time>2024-03-09T08:46:52.000Z</time>
</trkpt>
<trkpt lat="46.2568370" lon="10.5633470">
	<ele>1806.20</ele>
	<time>2024-03-09T08:46:53.000Z</time>
</trkpt>
<trkpt lat="46.2568380" lon="10.5633600">
	<ele>1806.20</ele>
	<time>2024-03-09T08:46:54.000Z</time>
</trkpt>
<trkpt lat="46.2568360" lon="10.5633760">
	<ele>1806.20</ele>
	<time>2024-03-09T08:46:55.000Z</time>
</trkpt>
<trkpt lat="46.2568330" lon="10.5633880">
	<ele>1806.40</ele>
	<time>2024-03-09T08:46:56.000Z</time>
</trkpt>
<trkpt lat="46.2568310" lon="10.5634020">
	<ele>1806.40</ele>
	<time>2024-03-09T08:46:57.000Z</time>
</trkpt>
<trkpt lat="46.2568270" lon="10.5634140">
	<ele>1806.40</ele>
	<time>2024-03-09T08:46:58.000Z</time>
</trkpt>
<trkpt lat="46.2568240" lon="10.5634260">
	<ele>1806.40</ele>
	<time>2024-03-09T08:46:59.000Z</time>
</trkpt>
<trkpt lat="46.2568230" lon="10.5634320">
	<ele>1806.40</ele>
	<time>2024-03-09T08:47:00.000Z</time>
</trkpt>
<trkpt lat="46.2568230" lon="10.5634360">
	<ele>1806.40</ele>
	<time>2024-03-09T08:47:01.000Z</time>
</trkpt>
<trkpt lat="46.2568230" lon="10.5634370">
	<ele>1806.40</ele>
	<time>2024-03-09T08:47:02.000Z</time>
</trkpt>
<trkpt lat="46.2568240" lon="10.5634320">
	<ele>1806.40</ele>
	<time>2024-03-09T08:47:03.000Z</time>
</trkpt>
<trkpt lat="46.2568240" lon="10.5634300">
	<ele>1806.40</ele>
	<time>2024-03-09T08:47:04.000Z</time>
</trkpt>
<trkpt lat="46.2568260" lon="10.5634300">
	<ele>1806.20</ele>
	<time>2024-03-09T08:47:05.000Z</time>
</trkpt>
<trkpt lat="46.2568270" lon="10.5634300">
	<ele>1806.20</ele>
	<time>2024-03-09T08:47:06.000Z</time>
</trkpt>
<trkpt lat="46.2568280" lon="10.5634300">
	<ele>1806.20</ele>
	<time>2024-03-09T08:47:07.000Z</time>
</trkpt>
<trkpt lat="46.2568270" lon="10.5634300">
	<ele>1806.20</ele>
	<time>2024-03-09T08:47:08.000Z</time>
</trkpt>
<trkpt lat="46.2568270" lon="10.5634300">
	<ele>1806.40</ele>
	<time>2024-03-09T08:47:09.000Z</time>
</trkpt>
<trkpt lat="46.2568260" lon="10.5634300">
	<ele>1806.40</ele>
	<time>2024-03-09T08:47:10.000Z</time>
</trkpt>
<trkpt lat="46.2568260" lon="10.5634300">
	<ele>1806.40</ele>
	<time>2024-03-09T08:47:11.000Z</time>
</trkpt>
<trkpt lat="46.2568260" lon="10.5634300">
	<ele>1806.40</ele>
	<time>2024-03-09T08:47:12.000Z</time>
</trkpt>
<trkpt lat="46.2568260" lon="10.5634300">
	<ele>1806.40</ele>
	<time>2024-03-09T08:47:13.000Z</time>
</trkpt>
<trkpt lat="46.2568260" lon="10.5634300">
	<ele>1806.40</ele>
	<time>2024-03-09T08:47:14.000Z</time>
</trkpt>
<trkpt lat="46.2568260" lon="10.5634300">
	<ele>1806.40</ele>
	<time>2024-03-09T08:47:15.000Z</time>
</trkpt>
<trkpt lat="46.2568260" lon="10.5634300">
	<ele>1806.40</ele>
	<time>2024-03-09T08:47:16.000Z</time>
</trkpt>
<trkpt lat="46.2568260" lon="10.5634300">
	<ele>1806.40</ele>
	<time>2024-03-09T08:47:17.000Z</time>
</trkpt>
<trkpt lat="46.2568260" lon="10.5634300">
	<ele>1806.40</ele>
	<time>2024-03-09T08:47:18.000Z</time>
</trkpt>
<trkpt lat="46.2568260" lon="10.5634300">
	<ele>1806.40</ele>
	<time>2024-03-09T08:47:19.000Z</time>
</trkpt>
<trkpt lat="46.2568260" lon="10.5634300">
	<ele>1806.40</ele>
	<time>2024-03-09T08:47:20.000Z</time>
</trkpt>
<trkpt lat="46.2568260" lon="10.5634300">
	<ele>1806.40</ele>
	<time>2024-03-09T08:47:21.000Z</time>
</trkpt>
<trkpt lat="46.2568260" lon="10.5634300">
	<ele>1806.40</ele>
	<time>2024-03-09T08:47:22.000Z</time>
</trkpt>
<trkpt lat="46.2568260" lon="10.5634300">
	<ele>1806.40</ele>
	<time>2024-03-09T08:47:23.000Z</time>
</trkpt>
<trkpt lat="46.2568270" lon="10.5634300">
	<ele>1806.40</ele>
	<time>2024-03-09T08:47:24.000Z</time>
</trkpt>
<trkpt lat="46.2568270" lon="10.5634300">
	<ele>1806.40</ele>
	<time>2024-03-09T08:47:25.000Z</time>
</trkpt>
<trkpt lat="46.2568270" lon="10.5634300">
	<ele>1806.40</ele>
	<time>2024-03-09T08:47:26.000Z</time>
</trkpt>
<trkpt lat="46.2568270" lon="10.5634300">
	<ele>1806.40</ele>
	<time>2024-03-09T08:47:27.000Z</time>
</trkpt>
<trkpt lat="46.2568270" lon="10.5634300">
	<ele>1806.20</ele>
	<time>2024-03-09T08:47:28.000Z</time>
</trkpt>
<trkpt lat="46.2568270" lon="10.5634300">
	<ele>1806.20</ele>
	<time>2024-03-09T08:47:29.000Z</time>
</trkpt>
<trkpt lat="46.2568270" lon="10.5634300">
	<ele>1806.20</ele>
	<time>2024-03-09T08:47:30.000Z</time>
</trkpt>
<trkpt lat="46.2568270" lon="10.5634300">
	<ele>1806.20</ele>
	<time>2024-03-09T08:47:31.000Z</time>
</trkpt>
<trkpt lat="46.2568270" lon="10.5634300">
	<ele>1806.40</ele>
	<time>2024-03-09T08:47:32.000Z</time>
</trkpt>
<trkpt lat="46.2568270" lon="10.5634300">
	<ele>1806.40</ele>
	<time>2024-03-09T08:47:33.000Z</time>
</trkpt>
<trkpt lat="46.2568270" lon="10.5634300">
	<ele>1806.20</ele>
	<time>2024-03-09T08:47:34.000Z</time>
</trkpt>
<trkpt lat="46.2568270" lon="10.5634300">
	<ele>1806.20</ele>
	<time>2024-03-09T08:47:35.000Z</time>
</trkpt>
<trkpt lat="46.2568270" lon="10.5634300">
	<ele>1806.20</ele>
	<time>2024-03-09T08:47:36.000Z</time>
</trkpt>
<trkpt lat="46.2568270" lon="10.5634300">
	<ele>1806.20</ele>
	<time>2024-03-09T08:47:37.000Z</time>
</trkpt>
<trkpt lat="46.2568270" lon="10.5634300">
	<ele>1806.20</ele>
	<time>2024-03-09T08:47:38.000Z</time>
</trkpt>
<trkpt lat="46.2568270" lon="10.5634310">
	<ele>1806.20</ele>
	<time>2024-03-09T08:47:39.000Z</time>
</trkpt>
<trkpt lat="46.2568280" lon="10.5634310">
	<ele>1806.20</ele>
	<time>2024-03-09T08:47:40.000Z</time>
</trkpt>
<trkpt lat="46.2568280" lon="10.5634310">
	<ele>1806.40</ele>
	<time>2024-03-09T08:47:41.000Z</time>
</trkpt>
<trkpt lat="46.2568280" lon="10.5634310">
	<ele>1806.40</ele>
	<time>2024-03-09T08:47:42.000Z</time>
</trkpt>
<trkpt lat="46.2568280" lon="10.5634310">
	<ele>1806.40</ele>
	<time>2024-03-09T08:47:43.000Z</time>
</trkpt>
<trkpt lat="46.2568280" lon="10.5634310">
	<ele>1806.40</ele>
	<time>2024-03-09T08:47:44.000Z</time>
</trkpt>
<trkpt lat="46.2568290" lon="10.5634310">
	<ele>1806.40</ele>
	<time>2024-03-09T08:47:45.000Z</time>
</trkpt>
<trkpt lat="46.2568310" lon="10.5634310">
	<ele>1806.60</ele>
	<time>2024-03-09T08:47:46.000Z</time>
</trkpt>
<trkpt lat="46.2568330" lon="10.5634310">
	<ele>1806.60</ele>
	<time>2024-03-09T08:47:47.000Z</time>
</trkpt>
<trkpt lat="46.2568330" lon="10.5634310">
	<ele>1806.60</ele>
	<time>2024-03-09T08:47:48.000Z</time>
</trkpt>
<trkpt lat="46.2568330" lon="10.5634380">
	<ele>1806.80</ele>
	<time>2024-03-09T08:47:49.000Z</time>
</trkpt>
<trkpt lat="46.2568310" lon="10.5634590">
	<ele>1806.80</ele>
	<time>2024-03-09T08:47:50.000Z</time>
</trkpt>
<trkpt lat="46.2568260" lon="10.5634760">
	<ele>1806.80</ele>
	<time>2024-03-09T08:47:51.000Z</time>
</trkpt>
<trkpt lat="46.2568210" lon="10.5634950">
	<ele>1806.80</ele>
	<time>2024-03-09T08:47:52.000Z</time>
</trkpt>
<trkpt lat="46.2568180" lon="10.5635180">
	<ele>1806.80</ele>
	<time>2024-03-09T08:47:53.000Z</time>
</trkpt>
<trkpt lat="46.2568140" lon="10.5635390">
	<ele>1806.80</ele>
	<time>2024-03-09T08:47:54.000Z</time>
</trkpt>
<trkpt lat="46.2568110" lon="10.5635590">
	<ele>1806.80</ele>
	<time>2024-03-09T08:47:55.000Z</time>
</trkpt>
<trkpt lat="46.2568070" lon="10.5635820">
	<ele>1806.80</ele>
	<time>2024-03-09T08:47:56.000Z</time>
</trkpt>
<trkpt lat="46.2568070" lon="10.5636010">
	<ele>1806.80</ele>
	<time>2024-03-09T08:47:57.000Z</time>
</trkpt>
<trkpt lat="46.2568050" lon="10.5636170">
	<ele>1806.80</ele>
	<time>2024-03-09T08:47:58.000Z</time>
</trkpt>
<trkpt lat="46.2568010" lon="10.5636280">
	<ele>1806.80</ele>
	<time>2024-03-09T08:47:59.000Z</time>
</trkpt>
<trkpt lat="46.2567980" lon="10.5636460">
	<ele>1807.00</ele>
	<time>2024-03-09T08:48:00.000Z</time>
</trkpt>
<trkpt lat="46.2567960" lon="10.5636570">
	<ele>1807.00</ele>
	<time>2024-03-09T08:48:01.000Z</time>
</trkpt>
<trkpt lat="46.2567940" lon="10.5636670">
	<ele>1807.00</ele>
	<time>2024-03-09T08:48:02.000Z</time>
</trkpt>
<trkpt lat="46.2567900" lon="10.5636740">
	<ele>1807.20</ele>
	<time>2024-03-09T08:48:03.000Z</time>
</trkpt>
<trkpt lat="46.2567850" lon="10.5636850">
	<ele>1807.20</ele>
	<time>2024-03-09T08:48:04.000Z</time>
</trkpt>
<trkpt lat="46.2567860" lon="10.5637020">
	<ele>1807.20</ele>
	<time>2024-03-09T08:48:05.000Z</time>
</trkpt>
<trkpt lat="46.2567810" lon="10.5637190">
	<ele>1807.20</ele>
	<time>2024-03-09T08:48:06.000Z</time>
</trkpt>
<trkpt lat="46.2567790" lon="10.5637330">
	<ele>1807.20</ele>
	<time>2024-03-09T08:48:07.000Z</time>
</trkpt>
<trkpt lat="46.2567780" lon="10.5637450">
	<ele>1807.20</ele>
	<time>2024-03-09T08:48:08.000Z</time>
</trkpt>
<trkpt lat="46.2567770" lon="10.5637580">
	<ele>1807.20</ele>
	<time>2024-03-09T08:48:09.000Z</time>
</trkpt>
<trkpt lat="46.2567730" lon="10.5637680">
	<ele>1807.40</ele>
	<time>2024-03-09T08:48:10.000Z</time>
</trkpt>
<trkpt lat="46.2567650" lon="10.5637830">
	<ele>1807.60</ele>
	<time>2024-03-09T08:48:11.000Z</time>
</trkpt>
<trkpt lat="46.2567600" lon="10.5637980">
	<ele>1807.60</ele>
	<time>2024-03-09T08:48:12.000Z</time>
</trkpt>
<trkpt lat="46.2567680" lon="10.5638140">
	<ele>1807.60</ele>
	<time>2024-03-09T08:48:13.000Z</time>
</trkpt>
<trkpt lat="46.2567680" lon="10.5638260">
	<ele>1807.60</ele>
	<time>2024-03-09T08:48:14.000Z</time>
</trkpt>
<trkpt lat="46.2567680" lon="10.5638390">
	<ele>1807.60</ele>
	<time>2024-03-09T08:48:15.000Z</time>
</trkpt>
<trkpt lat="46.2567690" lon="10.5638530">
	<ele>1807.60</ele>
	<time>2024-03-09T08:48:16.000Z</time>
</trkpt>
<trkpt lat="46.2567690" lon="10.5638650">
	<ele>1807.80</ele>
	<time>2024-03-09T08:48:17.000Z</time>
</trkpt>
<trkpt lat="46.2567690" lon="10.5638780">
	<ele>1807.80</ele>
	<time>2024-03-09T08:48:18.000Z</time>
</trkpt>
<trkpt lat="46.2567730" lon="10.5638890">
	<ele>1807.80</ele>
	<time>2024-03-09T08:48:19.000Z</time>
</trkpt>
<trkpt lat="46.2567700" lon="10.5638990">
	<ele>1808.00</ele>
	<time>2024-03-09T08:48:20.000Z</time>
</trkpt>
<trkpt lat="46.2567700" lon="10.5639130">
	<ele>1808.00</ele>
	<time>2024-03-09T08:48:21.000Z</time>
</trkpt>
<trkpt lat="46.2567720" lon="10.5639280">
	<ele>1808.20</ele>
	<time>2024-03-09T08:48:22.000Z</time>
</trkpt>
<trkpt lat="46.2567700" lon="10.5639380">
	<ele>1808.20</ele>
	<time>2024-03-09T08:48:23.000Z</time>
</trkpt>
<trkpt lat="46.2567700" lon="10.5639480">
	<ele>1808.20</ele>
	<time>2024-03-09T08:48:24.000Z</time>
</trkpt>
<trkpt lat="46.2567700" lon="10.5639590">
	<ele>1808.40</ele>
	<time>2024-03-09T08:48:25.000Z</time>
</trkpt>
<trkpt lat="46.2567690" lon="10.5639720">
	<ele>1808.40</ele>
	<time>2024-03-09T08:48:26.000Z</time>
</trkpt>
<trkpt lat="46.2567670" lon="10.5639850">
	<ele>1808.40</ele>
	<time>2024-03-09T08:48:27.000Z</time>
</trkpt>
<trkpt lat="46.2567670" lon="10.5640010">
	<ele>1808.40</ele>
	<time>2024-03-09T08:48:28.000Z</time>
</trkpt>
<trkpt lat="46.2567670" lon="10.5640090">
	<ele>1808.60</ele>
	<time>2024-03-09T08:48:29.000Z</time>
</trkpt>
<trkpt lat="46.2567640" lon="10.5640220">
	<ele>1808.60</ele>
	<time>2024-03-09T08:48:30.000Z</time>
</trkpt>
<trkpt lat="46.2567590" lon="10.5640330">
	<ele>1808.80</ele>
	<time>2024-03-09T08:48:31.000Z</time>
</trkpt>
<trkpt lat="46.2567570" lon="10.5640460">
	<ele>1808.80</ele>
	<time>2024-03-09T08:48:32.000Z</time>
</trkpt>
<trkpt lat="46.2567550" lon="10.5640600">
	<ele>1809.00</ele>
	<time>2024-03-09T08:48:33.000Z</time>
</trkpt>
<trkpt lat="46.2567580" lon="10.5640680">
	<ele>1809.00</ele>
	<time>2024-03-09T08:48:34.000Z</time>
</trkpt>
<trkpt lat="46.2567600" lon="10.5640810">
	<ele>1809.20</ele>
	<time>2024-03-09T08:48:35.000Z</time>
</trkpt>
<trkpt lat="46.2567610" lon="10.5640950">
	<ele>1809.20</ele>
	<time>2024-03-09T08:48:36.000Z</time>
</trkpt>
<trkpt lat="46.2567620" lon="10.5641100">
	<ele>1809.20</ele>
	<time>2024-03-09T08:48:37.000Z</time>
</trkpt>
<trkpt lat="46.2567640" lon="10.5641230">
	<ele>1809.20</ele>
	<time>2024-03-09T08:48:38.000Z</time>
</trkpt>
<trkpt lat="46.2567660" lon="10.5641360">
	<ele>1809.20</ele>
	<time>2024-03-09T08:48:39.000Z</time>
</trkpt>
<trkpt lat="46.2567630" lon="10.5641450">
	<ele>1809.20</ele>
	<time>2024-03-09T08:48:40.000Z</time>
</trkpt>
<trkpt lat="46.2567610" lon="10.5641570">
	<ele>1809.40</ele>
	<time>2024-03-09T08:48:41.000Z</time>
</trkpt>
<trkpt lat="46.2567600" lon="10.5641710">
	<ele>1809.40</ele>
	<time>2024-03-09T08:48:42.000Z</time>
</trkpt>
<trkpt lat="46.2567560" lon="10.5641810">
	<ele>1809.60</ele>
	<time>2024-03-09T08:48:43.000Z</time>
</trkpt>
<trkpt lat="46.2567550" lon="10.5641970">
	<ele>1809.60</ele>
	<time>2024-03-09T08:48:44.000Z</time>
</trkpt>
<trkpt lat="46.2567540" lon="10.5642110">
	<ele>1809.60</ele>
	<time>2024-03-09T08:48:45.000Z</time>
</trkpt>
<trkpt lat="46.2567560" lon="10.5642230">
	<ele>1809.80</ele>
	<time>2024-03-09T08:48:46.000Z</time>
</trkpt>
<trkpt lat="46.2567590" lon="10.5642400">
	<ele>1809.80</ele>
	<time>2024-03-09T08:48:47.000Z</time>
</trkpt>
<trkpt lat="46.2567600" lon="10.5642520">
	<ele>1809.80</ele>
	<time>2024-03-09T08:48:48.000Z</time>
</trkpt>
<trkpt lat="46.2567580" lon="10.5642660">
	<ele>1810.00</ele>
	<time>2024-03-09T08:48:49.000Z</time>
</trkpt>
<trkpt lat="46.2567560" lon="10.5642760">
	<ele>1810.00</ele>
	<time>2024-03-09T08:48:50.000Z</time>
</trkpt>
<trkpt lat="46.2567550" lon="10.5642880">
	<ele>1810.00</ele>
	<time>2024-03-09T08:48:51.000Z</time>
</trkpt>
<trkpt lat="46.2567580" lon="10.5643020">
	<ele>1810.00</ele>
	<time>2024-03-09T08:48:52.000Z</time>
</trkpt>
<trkpt lat="46.2567610" lon="10.5643120">
	<ele>1810.00</ele>
	<time>2024-03-09T08:48:53.000Z</time>
</trkpt>
<trkpt lat="46.2567650" lon="10.5643200">
	<ele>1810.20</ele>
	<time>2024-03-09T08:48:54.000Z</time>
</trkpt>
<trkpt lat="46.2567700" lon="10.5643320">
	<ele>1810.20</ele>
	<time>2024-03-09T08:48:55.000Z</time>
</trkpt>
<trkpt lat="46.2567660" lon="10.5643450">
	<ele>1810.40</ele>
	<time>2024-03-09T08:48:56.000Z</time>
</trkpt>
<trkpt lat="46.2567630" lon="10.5643550">
	<ele>1810.40</ele>
	<time>2024-03-09T08:48:57.000Z</time>
</trkpt>
<trkpt lat="46.2567620" lon="10.5643700">
	<ele>1810.60</ele>
	<time>2024-03-09T08:48:58.000Z</time>
</trkpt>
<trkpt lat="46.2567610" lon="10.5643840">
	<ele>1810.60</ele>
	<time>2024-03-09T08:48:59.000Z</time>
</trkpt>
<trkpt lat="46.2567610" lon="10.5643940">
	<ele>1810.60</ele>
	<time>2024-03-09T08:49:00.000Z</time>
</trkpt>
<trkpt lat="46.2567600" lon="10.5644060">
	<ele>1810.60</ele>
	<time>2024-03-09T08:49:01.000Z</time>
</trkpt>
<trkpt lat="46.2567630" lon="10.5644240">
	<ele>1810.60</ele>
	<time>2024-03-09T08:49:02.000Z</time>
</trkpt>
<trkpt lat="46.2567650" lon="10.5644340">
	<ele>1810.80</ele>
	<time>2024-03-09T08:49:03.000Z</time>
</trkpt>
<trkpt lat="46.2567700" lon="10.5644510">
	<ele>1810.80</ele>
	<time>2024-03-09T08:49:04.000Z</time>
</trkpt>
<trkpt lat="46.2567720" lon="10.5644640">
	<ele>1811.00</ele>
	<time>2024-03-09T08:49:05.000Z</time>
</trkpt>
<trkpt lat="46.2567690" lon="10.5644750">
	<ele>1811.00</ele>
	<time>2024-03-09T08:49:06.000Z</time>
</trkpt>
<trkpt lat="46.2567690" lon="10.5644880">
	<ele>1811.00</ele>
	<time>2024-03-09T08:49:07.000Z</time>
</trkpt>
<trkpt lat="46.2567660" lon="10.5645010">
	<ele>1811.20</ele>
	<time>2024-03-09T08:49:08.000Z</time>
</trkpt>
<trkpt lat="46.2567630" lon="10.5645100">
	<ele>1811.20</ele>
	<time>2024-03-09T08:49:09.000Z</time>
</trkpt>
<trkpt lat="46.2567590" lon="10.5645290">
	<ele>1811.20</ele>
	<time>2024-03-09T08:49:10.000Z</time>
</trkpt>
<trkpt lat="46.2567540" lon="10.5645430">
	<ele>1811.40</ele>
	<time>2024-03-09T08:49:11.000Z</time>
</trkpt>
<trkpt lat="46.2567540" lon="10.5645560">
	<ele>1811.40</ele>
	<time>2024-03-09T08:49:12.000Z</time>
</trkpt>
<trkpt lat="46.2567530" lon="10.5645700">
	<ele>1811.40</ele>
	<time>2024-03-09T08:49:13.000Z</time>
</trkpt>
<trkpt lat="46.2567510" lon="10.5645830">
	<ele>1811.40</ele>
	<time>2024-03-09T08:49:14.000Z</time>
</trkpt>
<trkpt lat="46.2567520" lon="10.5645960">
	<ele>1811.40</ele>
	<time>2024-03-09T08:49:15.000Z</time>
</trkpt>
<trkpt lat="46.2567520" lon="10.5646120">
	<ele>1811.60</ele>
	<time>2024-03-09T08:49:16.000Z</time>
</trkpt>
<trkpt lat="46.2567490" lon="10.5646260">
	<ele>1811.60</ele>
	<time>2024-03-09T08:49:17.000Z</time>
</trkpt>
<trkpt lat="46.2567540" lon="10.5646350">
	<ele>1811.80</ele>
	<time>2024-03-09T08:49:18.000Z</time>
</trkpt>
<trkpt lat="46.2567540" lon="10.5646470">
	<ele>1811.80</ele>
	<time>2024-03-09T08:49:19.000Z</time>
</trkpt>
<trkpt lat="46.2567510" lon="10.5646600">
	<ele>1811.80</ele>
	<time>2024-03-09T08:49:20.000Z</time>
</trkpt>
<trkpt lat="46.2567470" lon="10.5646750">
	<ele>1811.80</ele>
	<time>2024-03-09T08:49:21.000Z</time>
</trkpt>
<trkpt lat="46.2567470" lon="10.5646870">
	<ele>1811.80</ele>
	<time>2024-03-09T08:49:22.000Z</time>
</trkpt>
<trkpt lat="46.2567460" lon="10.5646990">
	<ele>1812.00</ele>
	<time>2024-03-09T08:49:23.000Z</time>
</trkpt>
<trkpt lat="46.2567470" lon="10.5647090">
	<ele>1812.20</ele>
	<time>2024-03-09T08:49:24.000Z</time>
</trkpt>
<trkpt lat="46.2567460" lon="10.5647220">
	<ele>1812.40</ele>
	<time>2024-03-09T08:49:25.000Z</time>
</trkpt>
<trkpt lat="46.2567490" lon="10.5647340">
	<ele>1812.40</ele>
	<time>2024-03-09T08:49:26.000Z</time>
</trkpt>
<trkpt lat="46.2567520" lon="10.5647460">
	<ele>1812.60</ele>
	<time>2024-03-09T08:49:27.000Z</time>
</trkpt>
<trkpt lat="46.2567540" lon="10.5647580">
	<ele>1812.60</ele>
	<time>2024-03-09T08:49:28.000Z</time>
</trkpt>
<trkpt lat="46.2567570" lon="10.5647730">
	<ele>1812.60</ele>
	<time>2024-03-09T08:49:29.000Z</time>
</trkpt>
<trkpt lat="46.2567600" lon="10.5647870">
	<ele>1812.60</ele>
	<time>2024-03-09T08:49:30.000Z</time>
</trkpt>
<trkpt lat="46.2567640" lon="10.5647970">
	<ele>1812.80</ele>
	<time>2024-03-09T08:49:31.000Z</time>
</trkpt>
<trkpt lat="46.2567660" lon="10.5648070">
	<ele>1812.80</ele>
	<time>2024-03-09T08:49:32.000Z</time>
</trkpt>
<trkpt lat="46.2567650" lon="10.5648170">
	<ele>1812.80</ele>
	<time>2024-03-09T08:49:33.000Z</time>
</trkpt>
<trkpt lat="46.2567670" lon="10.5648330">
	<ele>1812.80</ele>
	<time>2024-03-09T08:49:34.000Z</time>
</trkpt>
<trkpt lat="46.2567710" lon="10.5648440">
	<ele>1813.00</ele>
	<time>2024-03-09T08:49:35.000Z</time>
</trkpt>
<trkpt lat="46.2567690" lon="10.5648590">
	<ele>1813.00</ele>
	<time>2024-03-09T08:49:36.000Z</time>
</trkpt>
<trkpt lat="46.2567680" lon="10.5648750">
	<ele>1813.20</ele>
	<time>2024-03-09T08:49:37.000Z</time>
</trkpt>
<trkpt lat="46.2567700" lon="10.5648850">
	<ele>1813.20</ele>
	<time>2024-03-09T08:49:38.000Z</time>
</trkpt>
<trkpt lat="46.2567720" lon="10.5648980">
	<ele>1813.20</ele>
	<time>2024-03-09T08:49:39.000Z</time>
</trkpt>
<trkpt lat="46.2567690" lon="10.5649130">
	<ele>1813.20</ele>
	<time>2024-03-09T08:49:40.000Z</time>
</trkpt>
<trkpt lat="46.2567690" lon="10.5649250">
	<ele>1813.20</ele>
	<time>2024-03-09T08:49:41.000Z</time>
</trkpt>
<trkpt lat="46.2567720" lon="10.5649430">
	<ele>1813.40</ele>
	<time>2024-03-09T08:49:42.000Z</time>
</trkpt>
<trkpt lat="46.2567740" lon="10.5649540">
	<ele>1813.40</ele>
	<time>2024-03-09T08:49:43.000Z</time>
</trkpt>
<trkpt lat="46.2567760" lon="10.5649660">
	<ele>1813.60</ele>
	<time>2024-03-09T08:49:44.000Z</time>
</trkpt>
<trkpt lat="46.2567760" lon="10.5649760">
	<ele>1813.60</ele>
	<time>2024-03-09T08:49:45.000Z</time>
</trkpt>
<trkpt lat="46.2567770" lon="10.5649900">
	<ele>1813.80</ele>
	<time>2024-03-09T08:49:46.000Z</time>
</trkpt>
<trkpt lat="46.2567770" lon="10.5650020">
	<ele>1813.80</ele>
	<time>2024-03-09T08:49:47.000Z</time>
</trkpt>
<trkpt lat="46.2567800" lon="10.5650160">
	<ele>1813.80</ele>
	<time>2024-03-09T08:49:48.000Z</time>
</trkpt>
<trkpt lat="46.2567820" lon="10.5650330">
	<ele>1814.00</ele>
	<time>2024-03-09T08:49:49.000Z</time>
</trkpt>
<trkpt lat="46.2567820" lon="10.5650490">
	<ele>1814.00</ele>
	<time>2024-03-09T08:49:50.000Z</time>
</trkpt>
<trkpt lat="46.2567790" lon="10.5650610">
	<ele>1814.20</ele>
	<time>2024-03-09T08:49:51.000Z</time>
</trkpt>
<trkpt lat="46.2567750" lon="10.5650740">
	<ele>1814.20</ele>
	<time>2024-03-09T08:49:52.000Z</time>
</trkpt>
<trkpt lat="46.2567740" lon="10.5650870">
	<ele>1814.20</ele>
	<time>2024-03-09T08:49:53.000Z</time>
</trkpt>
<trkpt lat="46.2567740" lon="10.5651030">
	<ele>1814.20</ele>
	<time>2024-03-09T08:49:54.000Z</time>
</trkpt>
<trkpt lat="46.2567790" lon="10.5651150">
	<ele>1814.40</ele>
	<time>2024-03-09T08:49:55.000Z</time>
</trkpt>
<trkpt lat="46.2567800" lon="10.5651290">
	<ele>1814.60</ele>
	<time>2024-03-09T08:49:56.000Z</time>
</trkpt>
<trkpt lat="46.2567750" lon="10.5651480">
	<ele>1814.60</ele>
	<time>2024-03-09T08:49:57.000Z</time>
</trkpt>
<trkpt lat="46.2567740" lon="10.5651650">
	<ele>1814.60</ele>
	<time>2024-03-09T08:49:58.000Z</time>
</trkpt>
<trkpt lat="46.2567740" lon="10.5651760">
	<ele>1814.60</ele>
	<time>2024-03-09T08:49:59.000Z</time>
</trkpt>
<trkpt lat="46.2567800" lon="10.5651850">
	<ele>1814.80</ele>
	<time>2024-03-09T08:50:00.000Z</time>
</trkpt>
<trkpt lat="46.2567830" lon="10.5651940">
	<ele>1814.80</ele>
	<time>2024-03-09T08:50:01.000Z</time>
</trkpt>
<trkpt lat="46.2567840" lon="10.5652010">
	<ele>1814.80</ele>
	<time>2024-03-09T08:50:02.000Z</time>
</trkpt>
<trkpt lat="46.2567870" lon="10.5652150">
	<ele>1814.80</ele>
	<time>2024-03-09T08:50:03.000Z</time>
</trkpt>
<trkpt lat="46.2567900" lon="10.5652320">
	<ele>1815.00</ele>
	<time>2024-03-09T08:50:04.000Z</time>
</trkpt>
<trkpt lat="46.2567890" lon="10.5652380">
	<ele>1815.00</ele>
	<time>2024-03-09T08:50:05.000Z</time>
</trkpt>
<trkpt lat="46.2567920" lon="10.5652470">
	<ele>1815.20</ele>
	<time>2024-03-09T08:50:06.000Z</time>
</trkpt>
<trkpt lat="46.2567930" lon="10.5652600">
	<ele>1815.20</ele>
	<time>2024-03-09T08:50:07.000Z</time>
</trkpt>
<trkpt lat="46.2567930" lon="10.5652720">
	<ele>1815.40</ele>
	<time>2024-03-09T08:50:08.000Z</time>
</trkpt>
<trkpt lat="46.2567940" lon="10.5652840">
	<ele>1815.60</ele>
	<time>2024-03-09T08:50:09.000Z</time>
</trkpt>
<trkpt lat="46.2567930" lon="10.5652930">
	<ele>1815.60</ele>
	<time>2024-03-09T08:50:10.000Z</time>
</trkpt>
<trkpt lat="46.2567920" lon="10.5653080">
	<ele>1815.60</ele>
	<time>2024-03-09T08:50:11.000Z</time>
</trkpt>
<trkpt lat="46.2567950" lon="10.5653260">
	<ele>1815.80</ele>
	<time>2024-03-09T08:50:12.000Z</time>
</trkpt>
<trkpt lat="46.2567960" lon="10.5653390">
	<ele>1815.80</ele>
	<time>2024-03-09T08:50:13.000Z</time>
</trkpt>
<trkpt lat="46.2567980" lon="10.5653530">
	<ele>1816.00</ele>
	<time>2024-03-09T08:50:14.000Z</time>
</trkpt>
<trkpt lat="46.2567950" lon="10.5653670">
	<ele>1816.00</ele>
	<time>2024-03-09T08:50:15.000Z</time>
</trkpt>
<trkpt lat="46.2567940" lon="10.5653780">
	<ele>1816.00</ele>
	<time>2024-03-09T08:50:16.000Z</time>
</trkpt>
<trkpt lat="46.2567930" lon="10.5653910">
	<ele>1816.20</ele>
	<time>2024-03-09T08:50:17.000Z</time>
</trkpt>
<trkpt lat="46.2567920" lon="10.5654040">
	<ele>1816.20</ele>
	<time>2024-03-09T08:50:18.000Z</time>
</trkpt>
<trkpt lat="46.2567910" lon="10.5654170">
	<ele>1816.40</ele>
	<time>2024-03-09T08:50:19.000Z</time>
</trkpt>
<trkpt lat="46.2567920" lon="10.5654300">
	<ele>1816.40</ele>
	<time>2024-03-09T08:50:20.000Z</time>
</trkpt>
<trkpt lat="46.2567910" lon="10.5654460">
	<ele>1816.40</ele>
	<time>2024-03-09T08:50:21.000Z</time>
</trkpt>
<trkpt lat="46.2567920" lon="10.5654570">
	<ele>1816.60</ele>
	<time>2024-03-09T08:50:22.000Z</time>
</trkpt>
<trkpt lat="46.2567990" lon="10.5654660">
	<ele>1816.60</ele>
	<time>2024-03-09T08:50:23.000Z</time>
</trkpt>
<trkpt lat="46.2568000" lon="10.5654810">
	<ele>1816.60</ele>
	<time>2024-03-09T08:50:24.000Z</time>
</trkpt>
<trkpt lat="46.2567970" lon="10.5654930">
	<ele>1816.80</ele>
	<time>2024-03-09T08:50:25.000Z</time>
</trkpt>
<trkpt lat="46.2567930" lon="10.5655090">
	<ele>1817.00</ele>
	<time>2024-03-09T08:50:26.000Z</time>
</trkpt>
<trkpt lat="46.2567900" lon="10.5655230">
	<ele>1817.20</ele>
	<time>2024-03-09T08:50:27.000Z</time>
</trkpt>
<trkpt lat="46.2567880" lon="10.5655370">
	<ele>1817.20</ele>
	<time>2024-03-09T08:50:28.000Z</time>
</trkpt>
<trkpt lat="46.2567850" lon="10.5655520">
	<ele>1817.40</ele>
	<time>2024-03-09T08:50:29.000Z</time>
</trkpt>
<trkpt lat="46.2567820" lon="10.5655670">
	<ele>1817.40</ele>
	<time>2024-03-09T08:50:30.000Z</time>
</trkpt>
<trkpt lat="46.2567770" lon="10.5655820">
	<ele>1817.40</ele>
	<time>2024-03-09T08:50:31.000Z</time>
</trkpt>
<trkpt lat="46.2567730" lon="10.5655970">
	<ele>1817.60</ele>
	<time>2024-03-09T08:50:32.000Z</time>
</trkpt>
<trkpt lat="46.2567710" lon="10.5656120">
	<ele>1817.60</ele>
	<time>2024-03-09T08:50:33.000Z</time>
</trkpt>
<trkpt lat="46.2567700" lon="10.5656250">
	<ele>1817.60</ele>
	<time>2024-03-09T08:50:34.000Z</time>
</trkpt>
<trkpt lat="46.2567710" lon="10.5656390">
	<ele>1817.80</ele>
	<time>2024-03-09T08:50:35.000Z</time>
</trkpt>
<trkpt lat="46.2567680" lon="10.5656540">
	<ele>1817.80</ele>
	<time>2024-03-09T08:50:36.000Z</time>
</trkpt>
<trkpt lat="46.2567660" lon="10.5656680">
	<ele>1817.80</ele>
	<time>2024-03-09T08:50:37.000Z</time>
</trkpt>
<trkpt lat="46.2567610" lon="10.5656830">
	<ele>1818.00</ele>
	<time>2024-03-09T08:50:38.000Z</time>
</trkpt>
<trkpt lat="46.2567590" lon="10.5656990">
	<ele>1818.00</ele>
	<time>2024-03-09T08:50:39.000Z</time>
</trkpt>
<trkpt lat="46.2567560" lon="10.5657130">
	<ele>1818.20</ele>
	<time>2024-03-09T08:50:40.000Z</time>
</trkpt>
<trkpt lat="46.2567530" lon="10.5657250">
	<ele>1818.20</ele>
	<time>2024-03-09T08:50:41.000Z</time>
</trkpt>
<trkpt lat="46.2567540" lon="10.5657390">
	<ele>1818.20</ele>
	<time>2024-03-09T08:50:42.000Z</time>
</trkpt>
<trkpt lat="46.2567580" lon="10.5657530">
	<ele>1818.40</ele>
	<time>2024-03-09T08:50:43.000Z</time>
</trkpt>
<trkpt lat="46.2567620" lon="10.5657660">
	<ele>1818.40</ele>
	<time>2024-03-09T08:50:44.000Z</time>
</trkpt>
<trkpt lat="46.2567650" lon="10.5657780">
	<ele>1818.40</ele>
	<time>2024-03-09T08:50:45.000Z</time>
</trkpt>
<trkpt lat="46.2567680" lon="10.5657910">
	<ele>1818.40</ele>
	<time>2024-03-09T08:50:46.000Z</time>
</trkpt>
<trkpt lat="46.2567680" lon="10.5658020">
	<ele>1818.40</ele>
	<time>2024-03-09T08:50:47.000Z</time>
</trkpt>
<trkpt lat="46.2567650" lon="10.5658180">
	<ele>1818.40</ele>
	<time>2024-03-09T08:50:48.000Z</time>
</trkpt>
<trkpt lat="46.2567640" lon="10.5658350">
	<ele>1818.40</ele>
	<time>2024-03-09T08:50:49.000Z</time>
</trkpt>
<trkpt lat="46.2567640" lon="10.5658520">
	<ele>1818.40</ele>
	<time>2024-03-09T08:50:50.000Z</time>
</trkpt>
<trkpt lat="46.2567670" lon="10.5658670">
	<ele>1818.40</ele>
	<time>2024-03-09T08:50:51.000Z</time>
</trkpt>
<trkpt lat="46.2567680" lon="10.5658810">
	<ele>1818.40</ele>
	<time>2024-03-09T08:50:52.000Z</time>
</trkpt>
<trkpt lat="46.2567670" lon="10.5658940">
	<ele>1818.40</ele>
	<time>2024-03-09T08:50:53.000Z</time>
</trkpt>
<trkpt lat="46.2567670" lon="10.5659090">
	<ele>1818.40</ele>
	<time>2024-03-09T08:50:54.000Z</time>
</trkpt>
<trkpt lat="46.2567700" lon="10.5659200">
	<ele>1818.40</ele>
	<time>2024-03-09T08:50:55.000Z</time>
</trkpt>
<trkpt lat="46.2567720" lon="10.5659320">
	<ele>1818.60</ele>
	<time>2024-03-09T08:50:56.000Z</time>
</trkpt>
<trkpt lat="46.2567740" lon="10.5659460">
	<ele>1818.60</ele>
	<time>2024-03-09T08:50:57.000Z</time>
</trkpt>
<trkpt lat="46.2567770" lon="10.5659550">
	<ele>1818.60</ele>
	<time>2024-03-09T08:50:58.000Z</time>
</trkpt>
<trkpt lat="46.2567820" lon="10.5659680">
	<ele>1818.80</ele>
	<time>2024-03-09T08:50:59.000Z</time>
</trkpt>
<trkpt lat="46.2567860" lon="10.5659830">
	<ele>1819.00</ele>
	<time>2024-03-09T08:51:00.000Z</time>
</trkpt>
<trkpt lat="46.2567860" lon="10.5659990">
	<ele>1819.20</ele>
	<time>2024-03-09T08:51:01.000Z</time>
</trkpt>
<trkpt lat="46.2567830" lon="10.5660110">
	<ele>1819.40</ele>
	<time>2024-03-09T08:51:02.000Z</time>
</trkpt>
<trkpt lat="46.2567830" lon="10.5660250">
	<ele>1819.40</ele>
	<time>2024-03-09T08:51:03.000Z</time>
</trkpt>
<trkpt lat="46.2567810" lon="10.5660400">
	<ele>1819.40</ele>
	<time>2024-03-09T08:51:04.000Z</time>
</trkpt>
<trkpt lat="46.2567780" lon="10.5660530">
	<ele>1819.40</ele>
	<time>2024-03-09T08:51:05.000Z</time>
</trkpt>
<trkpt lat="46.2567740" lon="10.5660640">
	<ele>1819.60</ele>
	<time>2024-03-09T08:51:06.000Z</time>
</trkpt>
<trkpt lat="46.2567680" lon="10.5660770">
	<ele>1819.80</ele>
	<time>2024-03-09T08:51:07.000Z</time>
</trkpt>
<trkpt lat="46.2567630" lon="10.5660890">
	<ele>1819.80</ele>
	<time>2024-03-09T08:51:08.000Z</time>
</trkpt>
<trkpt lat="46.2567610" lon="10.5661000">
	<ele>1819.80</ele>
	<time>2024-03-09T08:51:09.000Z</time>
</trkpt>
<trkpt lat="46.2567580" lon="10.5661140">
	<ele>1820.00</ele>
	<time>2024-03-09T08:51:10.000Z</time>
</trkpt>
<trkpt lat="46.2567550" lon="10.5661310">
	<ele>1820.00</ele>
	<time>2024-03-09T08:51:11.000Z</time>
</trkpt>
<trkpt lat="46.2567550" lon="10.5661450">
	<ele>1820.00</ele>
	<time>2024-03-09T08:51:12.000Z</time>
</trkpt>
<trkpt lat="46.2567530" lon="10.5661570">
	<ele>1820.20</ele>
	<time>2024-03-09T08:51:13.000Z</time>
</trkpt>
<trkpt lat="46.2567540" lon="10.5661710">
	<ele>1820.00</ele>
	<time>2024-03-09T08:51:14.000Z</time>
</trkpt>
<trkpt lat="46.2567510" lon="10.5661890">
	<ele>1820.00</ele>
	<time>2024-03-09T08:51:15.000Z</time>
</trkpt>
<trkpt lat="46.2567470" lon="10.5662080">
	<ele>1820.20</ele>
	<time>2024-03-09T08:51:16.000Z</time>
</trkpt>
<trkpt lat="46.2567450" lon="10.5662230">
	<ele>1820.20</ele>
	<time>2024-03-09T08:51:17.000Z</time>
</trkpt>
<trkpt lat="46.2567420" lon="10.5662340">
	<ele>1820.20</ele>
	<time>2024-03-09T08:51:18.000Z</time>
</trkpt>
<trkpt lat="46.2567410" lon="10.5662490">
	<ele>1820.20</ele>
	<time>2024-03-09T08:51:19.000Z</time>
</trkpt>
<trkpt lat="46.2567390" lon="10.5662650">
	<ele>1820.20</ele>
	<time>2024-03-09T08:51:20.000Z</time>
</trkpt>
<trkpt lat="46.2567380" lon="10.5662820">
	<ele>1820.20</ele>
	<time>2024-03-09T08:51:21.000Z</time>
</trkpt>
<trkpt lat="46.2567390" lon="10.5662950">
	<ele>1820.20</ele>
	<time>2024-03-09T08:51:22.000Z</time>
</trkpt>
<trkpt lat="46.2567390" lon="10.5663070">
	<ele>1820.20</ele>
	<time>2024-03-09T08:51:23.000Z</time>
</trkpt>
<trkpt lat="46.2567380" lon="10.5663170">
	<ele>1820.40</ele>
	<time>2024-03-09T08:51:24.000Z</time>
</trkpt>
<trkpt lat="46.2567390" lon="10.5663230">
	<ele>1820.60</ele>
	<time>2024-03-09T08:51:25.000Z</time>
</trkpt>
<trkpt lat="46.2567420" lon="10.5663310">
	<ele>1820.80</ele>
	<time>2024-03-09T08:51:26.000Z</time>
</trkpt>
<trkpt lat="46.2567450" lon="10.5663410">
	<ele>1820.80</ele>
	<time>2024-03-09T08:51:27.000Z</time>
</trkpt>
<trkpt lat="46.2567460" lon="10.5663540">
	<ele>1821.00</ele>
	<time>2024-03-09T08:51:28.000Z</time>
</trkpt>
<trkpt lat="46.2567450" lon="10.5663740">
	<ele>1821.00</ele>
	<time>2024-03-09T08:51:29.000Z</time>
</trkpt>
<trkpt lat="46.2567420" lon="10.5663910">
	<ele>1821.20</ele>
	<time>2024-03-09T08:51:30.000Z</time>
</trkpt>
<trkpt lat="46.2567430" lon="10.5664060">
	<ele>1821.40</ele>
	<time>2024-03-09T08:51:31.000Z</time>
</trkpt>
<trkpt lat="46.2567480" lon="10.5664190">
	<ele>1821.60</ele>
	<time>2024-03-09T08:51:32.000Z</time>
</trkpt>
<trkpt lat="46.2567470" lon="10.5664290">
	<ele>1821.60</ele>
	<time>2024-03-09T08:51:33.000Z</time>
</trkpt>
<trkpt lat="46.2567460" lon="10.5664450">
	<ele>1821.80</ele>
	<time>2024-03-09T08:51:34.000Z</time>
</trkpt>
<trkpt lat="46.2567470" lon="10.5664570">
	<ele>1822.00</ele>
	<time>2024-03-09T08:51:35.000Z</time>
</trkpt>
<trkpt lat="46.2567490" lon="10.5664690">
	<ele>1822.00</ele>
	<time>2024-03-09T08:51:36.000Z</time>
</trkpt>
<trkpt lat="46.2567510" lon="10.5664800">
	<ele>1822.00</ele>
	<time>2024-03-09T08:51:37.000Z</time>
</trkpt>
<trkpt lat="46.2567520" lon="10.5664980">
	<ele>1822.00</ele>
	<time>2024-03-09T08:51:38.000Z</time>
</trkpt>
<trkpt lat="46.2567520" lon="10.5665100">
	<ele>1822.20</ele>
	<time>2024-03-09T08:51:39.000Z</time>
</trkpt>
<trkpt lat="46.2567500" lon="10.5665250">
	<ele>1822.20</ele>
	<time>2024-03-09T08:51:40.000Z</time>
</trkpt>
<trkpt lat="46.2567470" lon="10.5665410">
	<ele>1822.20</ele>
	<time>2024-03-09T08:51:41.000Z</time>
</trkpt>
<trkpt lat="46.2567510" lon="10.5665480">
	<ele>1822.20</ele>
	<time>2024-03-09T08:51:42.000Z</time>
</trkpt>
<trkpt lat="46.2567520" lon="10.5665540">
	<ele>1822.40</ele>
	<time>2024-03-09T08:51:43.000Z</time>
</trkpt>
<trkpt lat="46.2567510" lon="10.5665680">
	<ele>1822.40</ele>
	<time>2024-03-09T08:51:44.000Z</time>
</trkpt>
<trkpt lat="46.2567490" lon="10.5665820">
	<ele>1822.40</ele>
	<time>2024-03-09T08:51:45.000Z</time>
</trkpt>
<trkpt lat="46.2567450" lon="10.5665930">
	<ele>1822.60</ele>
	<time>2024-03-09T08:51:46.000Z</time>
</trkpt>
<trkpt lat="46.2567410" lon="10.5666070">
	<ele>1822.60</ele>
	<time>2024-03-09T08:51:47.000Z</time>
</trkpt>
<trkpt lat="46.2567380" lon="10.5666290">
	<ele>1822.80</ele>
	<time>2024-03-09T08:51:48.000Z</time>
</trkpt>
<trkpt lat="46.2567400" lon="10.5666400">
	<ele>1822.80</ele>
	<time>2024-03-09T08:51:49.000Z</time>
</trkpt>
<trkpt lat="46.2567410" lon="10.5666510">
	<ele>1823.00</ele>
	<time>2024-03-09T08:51:50.000Z</time>
</trkpt>
<trkpt lat="46.2567380" lon="10.5666620">
	<ele>1823.00</ele>
	<time>2024-03-09T08:51:51.000Z</time>
</trkpt>
<trkpt lat="46.2567350" lon="10.5666720">
	<ele>1823.00</ele>
	<time>2024-03-09T08:51:52.000Z</time>
</trkpt>
<trkpt lat="46.2567330" lon="10.5666780">
	<ele>1823.20</ele>
	<time>2024-03-09T08:51:53.000Z</time>
</trkpt>
<trkpt lat="46.2567320" lon="10.5666790">
	<ele>1823.20</ele>
	<time>2024-03-09T08:51:54.000Z</time>
</trkpt>
<trkpt lat="46.2567310" lon="10.5666790">
	<ele>1823.20</ele>
	<time>2024-03-09T08:51:55.000Z</time>
</trkpt>
<trkpt lat="46.2567290" lon="10.5666800">
	<ele>1823.20</ele>
	<time>2024-03-09T08:51:56.000Z</time>
</trkpt>
<trkpt lat="46.2567280" lon="10.5666800">
	<ele>1823.20</ele>
	<time>2024-03-09T08:51:57.000Z</time>
</trkpt>
<trkpt lat="46.2567300" lon="10.5666810">
	<ele>1823.20</ele>
	<time>2024-03-09T08:51:58.000Z</time>
</trkpt>
<trkpt lat="46.2567320" lon="10.5666810">
	<ele>1823.40</ele>
	<time>2024-03-09T08:51:59.000Z</time>
</trkpt>
<trkpt lat="46.2567340" lon="10.5666820">
	<ele>1823.40</ele>
	<time>2024-03-09T08:52:00.000Z</time>
</trkpt>
<trkpt lat="46.2567350" lon="10.5666830">
	<ele>1823.20</ele>
	<time>2024-03-09T08:52:01.000Z</time>
</trkpt>
<trkpt lat="46.2567370" lon="10.5666820">
	<ele>1823.20</ele>
	<time>2024-03-09T08:52:02.000Z</time>
</trkpt>
<trkpt lat="46.2567380" lon="10.5666820">
	<ele>1823.20</ele>
	<time>2024-03-09T08:52:03.000Z</time>
</trkpt>
<trkpt lat="46.2567390" lon="10.5666820">
	<ele>1823.20</ele>
	<time>2024-03-09T08:52:04.000Z</time>
</trkpt>
<trkpt lat="46.2567390" lon="10.5666820">
	<ele>1823.40</ele>
	<time>2024-03-09T08:52:05.000Z</time>
</trkpt>
<trkpt lat="46.2567400" lon="10.5666820">
	<ele>1823.40</ele>
	<time>2024-03-09T08:52:06.000Z</time>
</trkpt>
<trkpt lat="46.2567400" lon="10.5666820">
	<ele>1823.40</ele>
	<time>2024-03-09T08:52:07.000Z</time>
</trkpt>
<trkpt lat="46.2567400" lon="10.5666820">
	<ele>1823.40</ele>
	<time>2024-03-09T08:52:08.000Z</time>
</trkpt>
<trkpt lat="46.2567400" lon="10.5666820">
	<ele>1823.40</ele>
	<time>2024-03-09T08:52:09.000Z</time>
</trkpt>
<trkpt lat="46.2567400" lon="10.5666820">
	<ele>1823.20</ele>
	<time>2024-03-09T08:52:10.000Z</time>
</trkpt>
<trkpt lat="46.2567400" lon="10.5666820">
	<ele>1823.20</ele>
	<time>2024-03-09T08:52:11.000Z</time>
</trkpt>
<trkpt lat="46.2567400" lon="10.5666820">
	<ele>1823.20</ele>
	<time>2024-03-09T08:52:12.000Z</time>
</trkpt>
<trkpt lat="46.2567400" lon="10.5666820">
	<ele>1823.20</ele>
	<time>2024-03-09T08:52:13.000Z</time>
</trkpt>
<trkpt lat="46.2567400" lon="10.5666820">
	<ele>1823.20</ele>
	<time>2024-03-09T08:52:14.000Z</time>
</trkpt>
<trkpt lat="46.2567400" lon="10.5666820">
	<ele>1823.20</ele>
	<time>2024-03-09T08:52:15.000Z</time>
</trkpt>
<trkpt lat="46.2567400" lon="10.5666820">
	<ele>1823.20</ele>
	<time>2024-03-09T08:52:16.000Z</time>
</trkpt>
<trkpt lat="46.2567400" lon="10.5666820">
	<ele>1823.20</ele>
	<time>2024-03-09T08:52:17.000Z</time>
</trkpt>
<trkpt lat="46.2567400" lon="10.5666820">
	<ele>1823.20</ele>
	<time>2024-03-09T08:52:18.000Z</time>
</trkpt>
<trkpt lat="46.2567400" lon="10.5666820">
	<ele>1823.00</ele>
	<time>2024-03-09T08:52:19.000Z</time>
</trkpt>
<trkpt lat="46.2567400" lon="10.5666820">
	<ele>1823.20</ele>
	<time>2024-03-09T08:52:20.000Z</time>
</trkpt>
<trkpt lat="46.2567400" lon="10.5666820">
	<ele>1823.20</ele>
	<time>2024-03-09T08:52:21.000Z</time>
</trkpt>
<trkpt lat="46.2567400" lon="10.5666820">
	<ele>1823.20</ele>
	<time>2024-03-09T08:52:22.000Z</time>
</trkpt>
<trkpt lat="46.2567400" lon="10.5666820">
	<ele>1823.20</ele>
	<time>2024-03-09T08:52:23.000Z</time>
</trkpt>
<trkpt lat="46.2567400" lon="10.5666830">
	<ele>1823.20</ele>
	<time>2024-03-09T08:52:24.000Z</time>
</trkpt>
<trkpt lat="46.2567400" lon="10.5666830">
	<ele>1823.20</ele>
	<time>2024-03-09T08:52:25.000Z</time>
</trkpt>
<trkpt lat="46.2567410" lon="10.5666830">
	<ele>1823.20</ele>
	<time>2024-03-09T08:52:26.000Z</time>
</trkpt>
<trkpt lat="46.2567420" lon="10.5666830">
	<ele>1823.20</ele>
	<time>2024-03-09T08:52:27.000Z</time>
</trkpt>
<trkpt lat="46.2567430" lon="10.5666830">
	<ele>1823.20</ele>
	<time>2024-03-09T08:52:28.000Z</time>
</trkpt>
<trkpt lat="46.2567450" lon="10.5666830">
	<ele>1823.20</ele>
	<time>2024-03-09T08:52:29.000Z</time>
</trkpt>
<trkpt lat="46.2567470" lon="10.5666830">
	<ele>1823.20</ele>
	<time>2024-03-09T08:52:30.000Z</time>
</trkpt>
<trkpt lat="46.2567470" lon="10.5666830">
	<ele>1823.20</ele>
	<time>2024-03-09T08:52:31.000Z</time>
</trkpt>
<trkpt lat="46.2567470" lon="10.5666840">
	<ele>1823.20</ele>
	<time>2024-03-09T08:52:32.000Z</time>
</trkpt>
<trkpt lat="46.2567470" lon="10.5666840">
	<ele>1823.20</ele>
	<time>2024-03-09T08:52:33.000Z</time>
</trkpt>
<trkpt lat="46.2567470" lon="10.5666840">
	<ele>1823.20</ele>
	<time>2024-03-09T08:52:34.000Z</time>
</trkpt>
<trkpt lat="46.2567480" lon="10.5666840">
	<ele>1823.20</ele>
	<time>2024-03-09T08:52:35.000Z</time>
</trkpt>
<trkpt lat="46.2567490" lon="10.5666840">
	<ele>1823.40</ele>
	<time>2024-03-09T08:52:36.000Z</time>
</trkpt>
<trkpt lat="46.2567490" lon="10.5666840">
	<ele>1823.40</ele>
	<time>2024-03-09T08:52:37.000Z</time>
</trkpt>
<trkpt lat="46.2567490" lon="10.5666840">
	<ele>1823.40</ele>
	<time>2024-03-09T08:52:38.000Z</time>
</trkpt>
<trkpt lat="46.2567490" lon="10.5666850">
	<ele>1823.60</ele>
	<time>2024-03-09T08:52:39.000Z</time>
</trkpt>
<trkpt lat="46.2567490" lon="10.5666850">
	<ele>1823.60</ele>
	<time>2024-03-09T08:52:40.000Z</time>
</trkpt>
<trkpt lat="46.2567490" lon="10.5666850">
	<ele>1823.60</ele>
	<time>2024-03-09T08:52:41.000Z</time>
</trkpt>
<trkpt lat="46.2567490" lon="10.5666850">
	<ele>1823.40</ele>
	<time>2024-03-09T08:52:42.000Z</time>
</trkpt>
<trkpt lat="46.2567490" lon="10.5666850">
	<ele>1823.40</ele>
	<time>2024-03-09T08:52:43.000Z</time>
</trkpt>
<trkpt lat="46.2567490" lon="10.5666860">
	<ele>1823.40</ele>
	<time>2024-03-09T08:52:44.000Z</time>
</trkpt>
<trkpt lat="46.2567490" lon="10.5666870">
	<ele>1823.40</ele>
	<time>2024-03-09T08:52:45.000Z</time>
</trkpt>
<trkpt lat="46.2567480" lon="10.5666870">
	<ele>1823.40</ele>
	<time>2024-03-09T08:52:46.000Z</time>
</trkpt>
<trkpt lat="46.2567480" lon="10.5666870">
	<ele>1823.40</ele>
	<time>2024-03-09T08:52:47.000Z</time>
</trkpt>
<trkpt lat="46.2567470" lon="10.5666880">
	<ele>1823.40</ele>
	<time>2024-03-09T08:52:48.000Z</time>
</trkpt>
<trkpt lat="46.2567460" lon="10.5666940">
	<ele>1823.40</ele>
	<time>2024-03-09T08:52:49.000Z</time>
</trkpt>
<trkpt lat="46.2567450" lon="10.5667090">
	<ele>1823.40</ele>
	<time>2024-03-09T08:52:50.000Z</time>
</trkpt>
<trkpt lat="46.2567450" lon="10.5667260">
	<ele>1823.40</ele>
	<time>2024-03-09T08:52:51.000Z</time>
</trkpt>
<trkpt lat="46.2567480" lon="10.5667460">
	<ele>1823.40</ele>
	<time>2024-03-09T08:52:52.000Z</time>
</trkpt>
<trkpt lat="46.2567520" lon="10.5667650">
	<ele>1823.40</ele>
	<time>2024-03-09T08:52:53.000Z</time>
</trkpt>
<trkpt lat="46.2567540" lon="10.5667840">
	<ele>1823.60</ele>
	<time>2024-03-09T08:52:54.000Z</time>
</trkpt>
<trkpt lat="46.2567540" lon="10.5668060">
	<ele>1823.80</ele>
	<time>2024-03-09T08:52:55.000Z</time>
</trkpt>
<trkpt lat="46.2567530" lon="10.5668230">
	<ele>1823.80</ele>
	<time>2024-03-09T08:52:56.000Z</time>
</trkpt>
<trkpt lat="46.2567550" lon="10.5668410">
	<ele>1823.80</ele>
	<time>2024-03-09T08:52:57.000Z</time>
</trkpt>
<trkpt lat="46.2567490" lon="10.5668620">
	<ele>1824.00</ele>
	<time>2024-03-09T08:52:58.000Z</time>
</trkpt>
<trkpt lat="46.2567490" lon="10.5668720">
	<ele>1824.00</ele>
	<time>2024-03-09T08:52:59.000Z</time>
</trkpt>
<trkpt lat="46.2567470" lon="10.5668830">
	<ele>1824.00</ele>
	<time>2024-03-09T08:53:00.000Z</time>
</trkpt>
<trkpt lat="46.2567470" lon="10.5668950">
	<ele>1824.00</ele>
	<time>2024-03-09T08:53:01.000Z</time>
</trkpt>
<trkpt lat="46.2567460" lon="10.5669080">
	<ele>1824.20</ele>
	<time>2024-03-09T08:53:02.000Z</time>
</trkpt>
<trkpt lat="46.2567450" lon="10.5669210">
	<ele>1824.20</ele>
	<time>2024-03-09T08:53:03.000Z</time>
</trkpt>
<trkpt lat="46.2567410" lon="10.5669360">
	<ele>1824.40</ele>
	<time>2024-03-09T08:53:04.000Z</time>
</trkpt>
<trkpt lat="46.2567390" lon="10.5669520">
	<ele>1824.40</ele>
	<time>2024-03-09T08:53:05.000Z</time>
</trkpt>
<trkpt lat="46.2567360" lon="10.5669660">
	<ele>1824.40</ele>
	<time>2024-03-09T08:53:06.000Z</time>
</trkpt>
<trkpt lat="46.2567340" lon="10.5669800">
	<ele>1824.60</ele>
	<time>2024-03-09T08:53:07.000Z</time>
</trkpt>
<trkpt lat="46.2567380" lon="10.5669920">
	<ele>1824.60</ele>
	<time>2024-03-09T08:53:08.000Z</time>
</trkpt>
<trkpt lat="46.2567400" lon="10.5670050">
	<ele>1824.60</ele>
	<time>2024-03-09T08:53:09.000Z</time>
</trkpt>
<trkpt lat="46.2567410" lon="10.5670160">
	<ele>1824.60</ele>
	<time>2024-03-09T08:53:10.000Z</time>
</trkpt>
<trkpt lat="46.2567430" lon="10.5670290">
	<ele>1824.60</ele>
	<time>2024-03-09T08:53:11.000Z</time>
</trkpt>
<trkpt lat="46.2567450" lon="10.5670440">
	<ele>1824.60</ele>
	<time>2024-03-09T08:53:12.000Z</time>
</trkpt>
<trkpt lat="46.2567550" lon="10.5670560">
	<ele>1824.60</ele>
	<time>2024-03-09T08:53:13.000Z</time>
</trkpt>
<trkpt lat="46.2567620" lon="10.5670690">
	<ele>1824.60</ele>
	<time>2024-03-09T08:53:14.000Z</time>
</trkpt>
<trkpt lat="46.2567650" lon="10.5670830">
	<ele>1824.80</ele>
	<time>2024-03-09T08:53:15.000Z</time>
</trkpt>
<trkpt lat="46.2567690" lon="10.5670950">
	<ele>1825.00</ele>
	<time>2024-03-09T08:53:16.000Z</time>
</trkpt>
<trkpt lat="46.2567710" lon="10.5671050">
	<ele>1825.00</ele>
	<time>2024-03-09T08:53:17.000Z</time>
</trkpt>
<trkpt lat="46.2567670" lon="10.5671190">
	<ele>1825.20</ele>
	<time>2024-03-09T08:53:18.000Z</time>
</trkpt>
<trkpt lat="46.2567660" lon="10.5671300">
	<ele>1825.20</ele>
	<time>2024-03-09T08:53:19.000Z</time>
</trkpt>
<trkpt lat="46.2567700" lon="10.5671380">
	<ele>1825.20</ele>
	<time>2024-03-09T08:53:20.000Z</time>
</trkpt>
<trkpt lat="46.2567740" lon="10.5671500">
	<ele>1825.40</ele>
	<time>2024-03-09T08:53:21.000Z</time>
</trkpt>
<trkpt lat="46.2567780" lon="10.5671630">
	<ele>1825.40</ele>
	<time>2024-03-09T08:53:22.000Z</time>
</trkpt>
<trkpt lat="46.2567810" lon="10.5671730">
	<ele>1825.40</ele>
	<time>2024-03-09T08:53:23.000Z</time>
</trkpt>
<trkpt lat="46.2567870" lon="10.5671850">
	<ele>1825.60</ele>
	<time>2024-03-09T08:53:24.000Z</time>
</trkpt>
<trkpt lat="46.2567900" lon="10.5672010">
	<ele>1825.60</ele>
	<time>2024-03-09T08:53:25.000Z</time>
</trkpt>
<trkpt lat="46.2567940" lon="10.5672190">
	<ele>1825.80</ele>
	<time>2024-03-09T08:53:26.000Z</time>
</trkpt>
<trkpt lat="46.2567970" lon="10.5672330">
	<ele>1825.80</ele>
	<time>2024-03-09T08:53:27.000Z</time>
</trkpt>
<trkpt lat="46.2567980" lon="10.5672440">
	<ele>1825.80</ele>
	<time>2024-03-09T08:53:28.000Z</time>
</trkpt>
<trkpt lat="46.2568000" lon="10.5672540">
	<ele>1826.00</ele>
	<time>2024-03-09T08:53:29.000Z</time>
</trkpt>
<trkpt lat="46.2568050" lon="10.5672640">
	<ele>1826.00</ele>
	<time>2024-03-09T08:53:30.000Z</time>
</trkpt>
<trkpt lat="46.2568090" lon="10.5672800">
	<ele>1826.20</ele>
	<time>2024-03-09T08:53:31.000Z</time>
</trkpt>
<trkpt lat="46.2568070" lon="10.5672970">
	<ele>1826.20</ele>
	<time>2024-03-09T08:53:32.000Z</time>
</trkpt>
<trkpt lat="46.2568100" lon="10.5673070">
	<ele>1826.20</ele>
	<time>2024-03-09T08:53:33.000Z</time>
</trkpt>
<trkpt lat="46.2568140" lon="10.5673240">
	<ele>1826.40</ele>
	<time>2024-03-09T08:53:34.000Z</time>
</trkpt>
<trkpt lat="46.2568190" lon="10.5673380">
	<ele>1826.40</ele>
	<time>2024-03-09T08:53:35.000Z</time>
</trkpt>
<trkpt lat="46.2568190" lon="10.5673520">
	<ele>1826.80</ele>
	<time>2024-03-09T08:53:36.000Z</time>
</trkpt>
<trkpt lat="46.2568190" lon="10.5673670">
	<ele>1826.80</ele>
	<time>2024-03-09T08:53:37.000Z</time>
</trkpt>
<trkpt lat="46.2568200" lon="10.5673820">
	<ele>1826.80</ele>
	<time>2024-03-09T08:53:38.000Z</time>
</trkpt>
<trkpt lat="46.2568200" lon="10.5673910">
	<ele>1826.80</ele>
	<time>2024-03-09T08:53:39.000Z</time>
</trkpt>
<trkpt lat="46.2568220" lon="10.5674060">
	<ele>1826.80</ele>
	<time>2024-03-09T08:53:40.000Z</time>
</trkpt>
<trkpt lat="46.2568230" lon="10.5674150">
	<ele>1826.80</ele>
	<time>2024-03-09T08:53:41.000Z</time>
</trkpt>
<trkpt lat="46.2568240" lon="10.5674260">
	<ele>1827.00</ele>
	<time>2024-03-09T08:53:42.000Z</time>
</trkpt>
<trkpt lat="46.2568250" lon="10.5674430">
	<ele>1827.00</ele>
	<time>2024-03-09T08:53:43.000Z</time>
</trkpt>
<trkpt lat="46.2568240" lon="10.5674540">
	<ele>1827.00</ele>
	<time>2024-03-09T08:53:44.000Z</time>
</trkpt>
<trkpt lat="46.2568240" lon="10.5674690">
	<ele>1827.20</ele>
	<time>2024-03-09T08:53:45.000Z</time>
</trkpt>
<trkpt lat="46.2568240" lon="10.5674810">
	<ele>1827.40</ele>
	<time>2024-03-09T08:53:46.000Z</time>
</trkpt>
<trkpt lat="46.2568270" lon="10.5674940">
	<ele>1827.40</ele>
	<time>2024-03-09T08:53:47.000Z</time>
</trkpt>
<trkpt lat="46.2568310" lon="10.5675080">
	<ele>1827.40</ele>
	<time>2024-03-09T08:53:48.000Z</time>
</trkpt>
<trkpt lat="46.2568340" lon="10.5675200">
	<ele>1827.40</ele>
	<time>2024-03-09T08:53:49.000Z</time>
</trkpt>
<trkpt lat="46.2568350" lon="10.5675270">
	<ele>1827.60</ele>
	<time>2024-03-09T08:53:50.000Z</time>
</trkpt>
<trkpt lat="46.2568370" lon="10.5675390">
	<ele>1827.60</ele>
	<time>2024-03-09T08:53:51.000Z</time>
</trkpt>
<trkpt lat="46.2568370" lon="10.5675560">
	<ele>1827.60</ele>
	<time>2024-03-09T08:53:52.000Z</time>
</trkpt>
<trkpt lat="46.2568350" lon="10.5675660">
	<ele>1827.80</ele>
	<time>2024-03-09T08:53:53.000Z</time>
</trkpt>
<trkpt lat="46.2568350" lon="10.5675790">
	<ele>1827.80</ele>
	<time>2024-03-09T08:53:54.000Z</time>
</trkpt>
<trkpt lat="46.2568380" lon="10.5675890">
	<ele>1828.00</ele>
	<time>2024-03-09T08:53:55.000Z</time>
</trkpt>
<trkpt lat="46.2568420" lon="10.5676000">
	<ele>1828.00</ele>
	<time>2024-03-09T08:53:56.000Z</time>
</trkpt>
<trkpt lat="46.2568420" lon="10.5676150">
	<ele>1828.20</ele>
	<time>2024-03-09T08:53:57.000Z</time>
</trkpt>
<trkpt lat="46.2568440" lon="10.5676310">
	<ele>1828.20</ele>
	<time>2024-03-09T08:53:58.000Z</time>
</trkpt>
<trkpt lat="46.2568430" lon="10.5676400">
	<ele>1828.40</ele>
	<time>2024-03-09T08:53:59.000Z</time>
</trkpt>
<trkpt lat="46.2568460" lon="10.5676500">
	<ele>1828.40</ele>
	<time>2024-03-09T08:54:00.000Z</time>
</trkpt>
<trkpt lat="46.2568440" lon="10.5676620">
	<ele>1828.60</ele>
	<time>2024-03-09T08:54:01.000Z</time>
</trkpt>
<trkpt lat="46.2568400" lon="10.5676720">
	<ele>1828.60</ele>
	<time>2024-03-09T08:54:02.000Z</time>
</trkpt>
<trkpt lat="46.2568400" lon="10.5676860">
	<ele>1828.80</ele>
	<time>2024-03-09T08:54:03.000Z</time>
</trkpt>
<trkpt lat="46.2568380" lon="10.5676990">
	<ele>1828.80</ele>
	<time>2024-03-09T08:54:04.000Z</time>
</trkpt>
<trkpt lat="46.2568350" lon="10.5677130">
	<ele>1828.80</ele>
	<time>2024-03-09T08:54:05.000Z</time>
</trkpt>
<trkpt lat="46.2568340" lon="10.5677280">
	<ele>1828.80</ele>
	<time>2024-03-09T08:54:06.000Z</time>
</trkpt>
<trkpt lat="46.2568380" lon="10.5677350">
	<ele>1828.80</ele>
	<time>2024-03-09T08:54:07.000Z</time>
</trkpt>
<trkpt lat="46.2568400" lon="10.5677380">
	<ele>1828.80</ele>
	<time>2024-03-09T08:54:08.000Z</time>
</trkpt>
<trkpt lat="46.2568420" lon="10.5677400">
	<ele>1828.80</ele>
	<time>2024-03-09T08:54:09.000Z</time>
</trkpt>
<trkpt lat="46.2568430" lon="10.5677440">
	<ele>1828.80</ele>
	<time>2024-03-09T08:54:10.000Z</time>
</trkpt>
<trkpt lat="46.2568430" lon="10.5677440">
	<ele>1828.80</ele>
	<time>2024-03-09T08:54:11.000Z</time>
</trkpt>
<trkpt lat="46.2568440" lon="10.5677440">
	<ele>1828.80</ele>
	<time>2024-03-09T08:54:12.000Z</time>
</trkpt>
<trkpt lat="46.2568420" lon="10.5677460">
	<ele>1828.80</ele>
	<time>2024-03-09T08:54:13.000Z</time>
</trkpt>
<trkpt lat="46.2568460" lon="10.5677460">
	<ele>1828.80</ele>
	<time>2024-03-09T08:54:14.000Z</time>
</trkpt>
<trkpt lat="46.2568480" lon="10.5677450">
	<ele>1828.80</ele>
	<time>2024-03-09T08:54:15.000Z</time>
</trkpt>
<trkpt lat="46.2568500" lon="10.5677450">
	<ele>1828.80</ele>
	<time>2024-03-09T08:54:16.000Z</time>
</trkpt>
<trkpt lat="46.2568520" lon="10.5677440">
	<ele>1828.80</ele>
	<time>2024-03-09T08:54:17.000Z</time>
</trkpt>
<trkpt lat="46.2568520" lon="10.5677420">
	<ele>1828.80</ele>
	<time>2024-03-09T08:54:18.000Z</time>
</trkpt>
<trkpt lat="46.2568510" lon="10.5677420">
	<ele>1828.80</ele>
	<time>2024-03-09T08:54:19.000Z</time>
</trkpt>
<trkpt lat="46.2568500" lon="10.5677420">
	<ele>1828.80</ele>
	<time>2024-03-09T08:54:20.000Z</time>
</trkpt>
<trkpt lat="46.2568510" lon="10.5677420">
	<ele>1828.80</ele>
	<time>2024-03-09T08:54:21.000Z</time>
</trkpt>
<trkpt lat="46.2568520" lon="10.5677420">
	<ele>1828.80</ele>
	<time>2024-03-09T08:54:22.000Z</time>
</trkpt>
<trkpt lat="46.2568530" lon="10.5677430">
	<ele>1828.80</ele>
	<time>2024-03-09T08:54:23.000Z</time>
</trkpt>
<trkpt lat="46.2568530" lon="10.5677460">
	<ele>1828.80</ele>
	<time>2024-03-09T08:54:24.000Z</time>
</trkpt>
<trkpt lat="46.2568540" lon="10.5677550">
	<ele>1828.80</ele>
	<time>2024-03-09T08:54:25.000Z</time>
</trkpt>
<trkpt lat="46.2568530" lon="10.5677660">
	<ele>1828.80</ele>
	<time>2024-03-09T08:54:26.000Z</time>
</trkpt>
<trkpt lat="46.2568520" lon="10.5677780">
	<ele>1828.80</ele>
	<time>2024-03-09T08:54:27.000Z</time>
</trkpt>
<trkpt lat="46.2568500" lon="10.5677920">
	<ele>1829.00</ele>
	<time>2024-03-09T08:54:28.000Z</time>
</trkpt>
<trkpt lat="46.2568470" lon="10.5678040">
	<ele>1829.00</ele>
	<time>2024-03-09T08:54:29.000Z</time>
</trkpt>
<trkpt lat="46.2568450" lon="10.5678130">
	<ele>1829.00</ele>
	<time>2024-03-09T08:54:30.000Z</time>
</trkpt>
<trkpt lat="46.2568410" lon="10.5678260">
	<ele>1829.00</ele>
	<time>2024-03-09T08:54:31.000Z</time>
</trkpt>
<trkpt lat="46.2568400" lon="10.5678350">
	<ele>1829.20</ele>
	<time>2024-03-09T08:54:32.000Z</time>
</trkpt>
<trkpt lat="46.2568350" lon="10.5678440">
	<ele>1829.20</ele>
	<time>2024-03-09T08:54:33.000Z</time>
</trkpt>
<trkpt lat="46.2568360" lon="10.5678560">
	<ele>1829.20</ele>
	<time>2024-03-09T08:54:34.000Z</time>
</trkpt>
<trkpt lat="46.2568380" lon="10.5678660">
	<ele>1829.20</ele>
	<time>2024-03-09T08:54:35.000Z</time>
</trkpt>
<trkpt lat="46.2568340" lon="10.5678760">
	<ele>1829.20</ele>
	<time>2024-03-09T08:54:36.000Z</time>
</trkpt>
<trkpt lat="46.2568340" lon="10.5678880">
	<ele>1829.40</ele>
	<time>2024-03-09T08:54:37.000Z</time>
</trkpt>
<trkpt lat="46.2568360" lon="10.5679020">
	<ele>1829.40</ele>
	<time>2024-03-09T08:54:38.000Z</time>
</trkpt>
<trkpt lat="46.2568370" lon="10.5679100">
	<ele>1829.40</ele>
	<time>2024-03-09T08:54:39.000Z</time>
</trkpt>
<trkpt lat="46.2568410" lon="10.5679200">
	<ele>1829.40</ele>
	<time>2024-03-09T08:54:40.000Z</time>
</trkpt>
<trkpt lat="46.2568460" lon="10.5679310">
	<ele>1829.60</ele>
	<time>2024-03-09T08:54:41.000Z</time>
</trkpt>
<trkpt lat="46.2568490" lon="10.5679450">
	<ele>1829.60</ele>
	<time>2024-03-09T08:54:42.000Z</time>
</trkpt>
<trkpt lat="46.2568540" lon="10.5679600">
	<ele>1829.80</ele>
	<time>2024-03-09T08:54:43.000Z</time>
</trkpt>
<trkpt lat="46.2568570" lon="10.5679750">
	<ele>1830.00</ele>
	<time>2024-03-09T08:54:44.000Z</time>
</trkpt>
<trkpt lat="46.2568600" lon="10.5679850">
	<ele>1830.00</ele>
	<time>2024-03-09T08:54:45.000Z</time>
</trkpt>
<trkpt lat="46.2568600" lon="10.5679970">
	<ele>1830.00</ele>
	<time>2024-03-09T08:54:46.000Z</time>
</trkpt>
<trkpt lat="46.2568620" lon="10.5680090">
	<ele>1830.20</ele>
	<time>2024-03-09T08:54:47.000Z</time>
</trkpt>
<trkpt lat="46.2568640" lon="10.5680190">
	<ele>1830.40</ele>
	<time>2024-03-09T08:54:48.000Z</time>
</trkpt>
<trkpt lat="46.2568660" lon="10.5680300">
	<ele>1830.40</ele>
	<time>2024-03-09T08:54:49.000Z</time>
</trkpt>
<trkpt lat="46.2568700" lon="10.5680460">
	<ele>1830.40</ele>
	<time>2024-03-09T08:54:50.000Z</time>
</trkpt>
<trkpt lat="46.2568680" lon="10.5680600">
	<ele>1830.40</ele>
	<time>2024-03-09T08:54:51.000Z</time>
</trkpt>
<trkpt lat="46.2568670" lon="10.5680680">
	<ele>1830.60</ele>
	<time>2024-03-09T08:54:52.000Z</time>
</trkpt>
<trkpt lat="46.2568700" lon="10.5680800">
	<ele>1830.60</ele>
	<time>2024-03-09T08:54:53.000Z</time>
</trkpt>
<trkpt lat="46.2568770" lon="10.5680910">
	<ele>1830.60</ele>
	<time>2024-03-09T08:54:54.000Z</time>
</trkpt>
<trkpt lat="46.2568790" lon="10.5681040">
	<ele>1830.60</ele>
	<time>2024-03-09T08:54:55.000Z</time>
</trkpt>
<trkpt lat="46.2568770" lon="10.5681160">
	<ele>1830.80</ele>
	<time>2024-03-09T08:54:56.000Z</time>
</trkpt>
<trkpt lat="46.2568790" lon="10.5681260">
	<ele>1830.80</ele>
	<time>2024-03-09T08:54:57.000Z</time>
</trkpt>
<trkpt lat="46.2568810" lon="10.5681370">
	<ele>1831.00</ele>
	<time>2024-03-09T08:54:58.000Z</time>
</trkpt>
<trkpt lat="46.2568820" lon="10.5681550">
	<ele>1831.00</ele>
	<time>2024-03-09T08:54:59.000Z</time>
</trkpt>
<trkpt lat="46.2568820" lon="10.5681660">
	<ele>1831.20</ele>
	<time>2024-03-09T08:55:00.000Z</time>
</trkpt>
<trkpt lat="46.2568830" lon="10.5681800">
	<ele>1831.20</ele>
	<time>2024-03-09T08:55:01.000Z</time>
</trkpt>
<trkpt lat="46.2568860" lon="10.5681910">
	<ele>1831.20</ele>
	<time>2024-03-09T08:55:02.000Z</time>
</trkpt>
<trkpt lat="46.2568880" lon="10.5682040">
	<ele>1831.40</ele>
	<time>2024-03-09T08:55:03.000Z</time>
</trkpt>
<trkpt lat="46.2568970" lon="10.5682150">
	<ele>1831.40</ele>
	<time>2024-03-09T08:55:04.000Z</time>
</trkpt>
<trkpt lat="46.2569030" lon="10.5682240">
	<ele>1831.40</ele>
	<time>2024-03-09T08:55:05.000Z</time>
</trkpt>
<trkpt lat="46.2569090" lon="10.5682340">
	<ele>1831.40</ele>
	<time>2024-03-09T08:55:06.000Z</time>
</trkpt>
<trkpt lat="46.2569140" lon="10.5682440">
	<ele>1831.60</ele>
	<time>2024-03-09T08:55:07.000Z</time>
</trkpt>
<trkpt lat="46.2569170" lon="10.5682510">
	<ele>1831.60</ele>
	<time>2024-03-09T08:55:08.000Z</time>
</trkpt>
<trkpt lat="46.2569190" lon="10.5682630">
	<ele>1831.60</ele>
	<time>2024-03-09T08:55:09.000Z</time>
</trkpt>
<trkpt lat="46.2569210" lon="10.5682750">
	<ele>1831.80</ele>
	<time>2024-03-09T08:55:10.000Z</time>
</trkpt>
<trkpt lat="46.2569240" lon="10.5682850">
	<ele>1831.80</ele>
	<time>2024-03-09T08:55:11.000Z</time>
</trkpt>
<trkpt lat="46.2569280" lon="10.5682960">
	<ele>1831.80</ele>
	<time>2024-03-09T08:55:12.000Z</time>
</trkpt>
<trkpt lat="46.2569310" lon="10.5683110">
	<ele>1831.80</ele>
	<time>2024-03-09T08:55:13.000Z</time>
</trkpt>
<trkpt lat="46.2569350" lon="10.5683260">
	<ele>1832.00</ele>
	<time>2024-03-09T08:55:14.000Z</time>
</trkpt>
<trkpt lat="46.2569400" lon="10.5683390">
	<ele>1832.00</ele>
	<time>2024-03-09T08:55:15.000Z</time>
</trkpt>
<trkpt lat="46.2569420" lon="10.5683520">
	<ele>1832.00</ele>
	<time>2024-03-09T08:55:16.000Z</time>
</trkpt>
<trkpt lat="46.2569430" lon="10.5683620">
	<ele>1832.00</ele>
	<time>2024-03-09T08:55:17.000Z</time>
</trkpt>
<trkpt lat="46.2569460" lon="10.5683750">
	<ele>1832.00</ele>
	<time>2024-03-09T08:55:18.000Z</time>
</trkpt>
<trkpt lat="46.2569450" lon="10.5683900">
	<ele>1832.20</ele>
	<time>2024-03-09T08:55:19.000Z</time>
</trkpt>
<trkpt lat="46.2569450" lon="10.5684050">
	<ele>1832.20</ele>
	<time>2024-03-09T08:55:20.000Z</time>
</trkpt>
<trkpt lat="46.2569470" lon="10.5684170">
	<ele>1832.40</ele>
	<time>2024-03-09T08:55:21.000Z</time>
</trkpt>
<trkpt lat="46.2569510" lon="10.5684270">
	<ele>1832.40</ele>
	<time>2024-03-09T08:55:22.000Z</time>
</trkpt>
<trkpt lat="46.2569530" lon="10.5684380">
	<ele>1832.60</ele>
	<time>2024-03-09T08:55:23.000Z</time>
</trkpt>
<trkpt lat="46.2569550" lon="10.5684470">
	<ele>1832.60</ele>
	<time>2024-03-09T08:55:24.000Z</time>
</trkpt>
<trkpt lat="46.2569580" lon="10.5684550">
	<ele>1832.60</ele>
	<time>2024-03-09T08:55:25.000Z</time>
</trkpt>
<trkpt lat="46.2569560" lon="10.5684690">
	<ele>1832.80</ele>
	<time>2024-03-09T08:55:26.000Z</time>
</trkpt>
<trkpt lat="46.2569560" lon="10.5684830">
	<ele>1832.80</ele>
	<time>2024-03-09T08:55:27.000Z</time>
</trkpt>
<trkpt lat="46.2569590" lon="10.5684940">
	<ele>1833.00</ele>
	<time>2024-03-09T08:55:28.000Z</time>
</trkpt>
<trkpt lat="46.2569630" lon="10.5685050">
	<ele>1833.00</ele>
	<time>2024-03-09T08:55:29.000Z</time>
</trkpt>
<trkpt lat="46.2569660" lon="10.5685160">
	<ele>1833.00</ele>
	<time>2024-03-09T08:55:30.000Z</time>
</trkpt>
<trkpt lat="46.2569690" lon="10.5685260">
	<ele>1833.00</ele>
	<time>2024-03-09T08:55:31.000Z</time>
</trkpt>
<trkpt lat="46.2569730" lon="10.5685380">
	<ele>1833.00</ele>
	<time>2024-03-09T08:55:32.000Z</time>
</trkpt>
<trkpt lat="46.2569760" lon="10.5685520">
	<ele>1833.20</ele>
	<time>2024-03-09T08:55:33.000Z</time>
</trkpt>
<trkpt lat="46.2569780" lon="10.5685640">
	<ele>1833.20</ele>
	<time>2024-03-09T08:55:34.000Z</time>
</trkpt>
<trkpt lat="46.2569820" lon="10.5685750">
	<ele>1833.40</ele>
	<time>2024-03-09T08:55:35.000Z</time>
</trkpt>
<trkpt lat="46.2569800" lon="10.5685860">
	<ele>1833.60</ele>
	<time>2024-03-09T08:55:36.000Z</time>
</trkpt>
<trkpt lat="46.2569800" lon="10.5685970">
	<ele>1833.60</ele>
	<time>2024-03-09T08:55:37.000Z</time>
</trkpt>
<trkpt lat="46.2569830" lon="10.5686090">
	<ele>1833.60</ele>
	<time>2024-03-09T08:55:38.000Z</time>
</trkpt>
<trkpt lat="46.2569840" lon="10.5686210">
	<ele>1833.80</ele>
	<time>2024-03-09T08:55:39.000Z</time>
</trkpt>
<trkpt lat="46.2569830" lon="10.5686340">
	<ele>1833.80</ele>
	<time>2024-03-09T08:55:40.000Z</time>
</trkpt>
<trkpt lat="46.2569810" lon="10.5686470">
	<ele>1833.80</ele>
	<time>2024-03-09T08:55:41.000Z</time>
</trkpt>
<trkpt lat="46.2569810" lon="10.5686580">
	<ele>1833.80</ele>
	<time>2024-03-09T08:55:42.000Z</time>
</trkpt>
<trkpt lat="46.2569870" lon="10.5686700">
	<ele>1833.80</ele>
	<time>2024-03-09T08:55:43.000Z</time>
</trkpt>
<trkpt lat="46.2569900" lon="10.5686800">
	<ele>1834.20</ele>
	<time>2024-03-09T08:55:44.000Z</time>
</trkpt>
<trkpt lat="46.2569930" lon="10.5686880">
	<ele>1834.20</ele>
	<time>2024-03-09T08:55:45.000Z</time>
</trkpt>
<trkpt lat="46.2569960" lon="10.5686980">
	<ele>1834.40</ele>
	<time>2024-03-09T08:55:46.000Z</time>
</trkpt>
<trkpt lat="46.2569970" lon="10.5687070">
	<ele>1834.40</ele>
	<time>2024-03-09T08:55:47.000Z</time>
</trkpt>
<trkpt lat="46.2569970" lon="10.5687190">
	<ele>1834.60</ele>
	<time>2024-03-09T08:55:48.000Z</time>
</trkpt>
<trkpt lat="46.2569990" lon="10.5687310">
	<ele>1834.60</ele>
	<time>2024-03-09T08:55:49.000Z</time>
</trkpt>
<trkpt lat="46.2570020" lon="10.5687390">
	<ele>1834.80</ele>
	<time>2024-03-09T08:55:50.000Z</time>
</trkpt>
<trkpt lat="46.2570030" lon="10.5687510">
	<ele>1835.00</ele>
	<time>2024-03-09T08:55:51.000Z</time>
</trkpt>
<trkpt lat="46.2570030" lon="10.5687630">
	<ele>1835.00</ele>
	<time>2024-03-09T08:55:52.000Z</time>
</trkpt>
<trkpt lat="46.2570050" lon="10.5687760">
	<ele>1835.20</ele>
	<time>2024-03-09T08:55:53.000Z</time>
</trkpt>
<trkpt lat="46.2570070" lon="10.5687860">
	<ele>1835.20</ele>
	<time>2024-03-09T08:55:54.000Z</time>
</trkpt>
<trkpt lat="46.2570110" lon="10.5687940">
	<ele>1835.40</ele>
	<time>2024-03-09T08:55:55.000Z</time>
</trkpt>
<trkpt lat="46.2570110" lon="10.5688080">
	<ele>1835.40</ele>
	<time>2024-03-09T08:55:56.000Z</time>
</trkpt>
<trkpt lat="46.2570120" lon="10.5688200">
	<ele>1835.40</ele>
	<time>2024-03-09T08:55:57.000Z</time>
</trkpt>
<trkpt lat="46.2570130" lon="10.5688290">
	<ele>1835.60</ele>
	<time>2024-03-09T08:55:58.000Z</time>
</trkpt>
<trkpt lat="46.2570160" lon="10.5688400">
	<ele>1835.60</ele>
	<time>2024-03-09T08:55:59.000Z</time>
</trkpt>
<trkpt lat="46.2570190" lon="10.5688460">
	<ele>1835.60</ele>
	<time>2024-03-09T08:56:00.000Z</time>
</trkpt>
<trkpt lat="46.2570230" lon="10.5688520">
	<ele>1835.80</ele>
	<time>2024-03-09T08:56:01.000Z</time>
</trkpt>
<trkpt lat="46.2570260" lon="10.5688600">
	<ele>1835.80</ele>
	<time>2024-03-09T08:56:02.000Z</time>
</trkpt>
<trkpt lat="46.2570290" lon="10.5688650">
	<ele>1836.00</ele>
	<time>2024-03-09T08:56:03.000Z</time>
</trkpt>
<trkpt lat="46.2570310" lon="10.5688710">
	<ele>1836.00</ele>
	<time>2024-03-09T08:56:04.000Z</time>
</trkpt>
<trkpt lat="46.2570320" lon="10.5688760">
	<ele>1836.00</ele>
	<time>2024-03-09T08:56:05.000Z</time>
</trkpt>
<trkpt lat="46.2570330" lon="10.5688790">
	<ele>1836.00</ele>
	<time>2024-03-09T08:56:06.000Z</time>
</trkpt>
<trkpt lat="46.2570360" lon="10.5688830">
	<ele>1836.00</ele>
	<time>2024-03-09T08:56:07.000Z</time>
</trkpt>
<trkpt lat="46.2570370" lon="10.5688900">
	<ele>1836.00</ele>
	<time>2024-03-09T08:56:08.000Z</time>
</trkpt>
<trkpt lat="46.2570360" lon="10.5688990">
	<ele>1836.00</ele>
	<time>2024-03-09T08:56:09.000Z</time>
</trkpt>
<trkpt lat="46.2570370" lon="10.5689060">
	<ele>1836.00</ele>
	<time>2024-03-09T08:56:10.000Z</time>
</trkpt>
<trkpt lat="46.2570380" lon="10.5689140">
	<ele>1836.00</ele>
	<time>2024-03-09T08:56:11.000Z</time>
</trkpt>
<trkpt lat="46.2570370" lon="10.5689210">
	<ele>1836.20</ele>
	<time>2024-03-09T08:56:12.000Z</time>
</trkpt>
<trkpt lat="46.2570360" lon="10.5689320">
	<ele>1836.40</ele>
	<time>2024-03-09T08:56:13.000Z</time>
</trkpt>
<trkpt lat="46.2570350" lon="10.5689390">
	<ele>1836.40</ele>
	<time>2024-03-09T08:56:14.000Z</time>
</trkpt>
<trkpt lat="46.2570390" lon="10.5689460">
	<ele>1836.40</ele>
	<time>2024-03-09T08:56:15.000Z</time>
</trkpt>
<trkpt lat="46.2570440" lon="10.5689570">
	<ele>1836.40</ele>
	<time>2024-03-09T08:56:16.000Z</time>
</trkpt>
<trkpt lat="46.2570460" lon="10.5689650">
	<ele>1836.60</ele>
	<time>2024-03-09T08:56:17.000Z</time>
</trkpt>
<trkpt lat="46.2570540" lon="10.5689740">
	<ele>1836.60</ele>
	<time>2024-03-09T08:56:18.000Z</time>
</trkpt>
<trkpt lat="46.2570610" lon="10.5689840">
	<ele>1836.60</ele>
	<time>2024-03-09T08:56:19.000Z</time>
</trkpt>
<trkpt lat="46.2570700" lon="10.5689960">
	<ele>1836.60</ele>
	<time>2024-03-09T08:56:20.000Z</time>
</trkpt>
<trkpt lat="46.2570750" lon="10.5690100">
	<ele>1836.60</ele>
	<time>2024-03-09T08:56:21.000Z</time>
</trkpt>
<trkpt lat="46.2570800" lon="10.5690200">
	<ele>1836.80</ele>
	<time>2024-03-09T08:56:22.000Z</time>
</trkpt>
<trkpt lat="46.2570850" lon="10.5690300">
	<ele>1836.80</ele>
	<time>2024-03-09T08:56:23.000Z</time>
</trkpt>
<trkpt lat="46.2570870" lon="10.5690410">
	<ele>1836.80</ele>
	<time>2024-03-09T08:56:24.000Z</time>
</trkpt>
<trkpt lat="46.2570900" lon="10.5690530">
	<ele>1836.80</ele>
	<time>2024-03-09T08:56:25.000Z</time>
</trkpt>
<trkpt lat="46.2570920" lon="10.5690630">
	<ele>1837.00</ele>
	<time>2024-03-09T08:56:26.000Z</time>
</trkpt>
<trkpt lat="46.2570980" lon="10.5690730">
	<ele>1837.00</ele>
	<time>2024-03-09T08:56:27.000Z</time>
</trkpt>
<trkpt lat="46.2571040" lon="10.5690830">
	<ele>1837.00</ele>
	<time>2024-03-09T08:56:28.000Z</time>
</trkpt>
<trkpt lat="46.2571050" lon="10.5690930">
	<ele>1837.20</ele>
	<time>2024-03-09T08:56:29.000Z</time>
</trkpt>
<trkpt lat="46.2571070" lon="10.5691010">
	<ele>1837.20</ele>
	<time>2024-03-09T08:56:30.000Z</time>
</trkpt>
<trkpt lat="46.2571100" lon="10.5691120">
	<ele>1837.20</ele>
	<time>2024-03-09T08:56:31.000Z</time>
</trkpt>
<trkpt lat="46.2571120" lon="10.5691210">
	<ele>1837.20</ele>
	<time>2024-03-09T08:56:32.000Z</time>
</trkpt>
<trkpt lat="46.2571100" lon="10.5691330">
	<ele>1837.40</ele>
	<time>2024-03-09T08:56:33.000Z</time>
</trkpt>
<trkpt lat="46.2571100" lon="10.5691480">
	<ele>1837.40</ele>
	<time>2024-03-09T08:56:34.000Z</time>
</trkpt>
<trkpt lat="46.2571110" lon="10.5691640">
	<ele>1837.60</ele>
	<time>2024-03-09T08:56:35.000Z</time>
</trkpt>
<trkpt lat="46.2571150" lon="10.5691760">
	<ele>1837.80</ele>
	<time>2024-03-09T08:56:36.000Z</time>
</trkpt>
<trkpt lat="46.2571200" lon="10.5691870">
	<ele>1837.80</ele>
	<time>2024-03-09T08:56:37.000Z</time>
</trkpt>
<trkpt lat="46.2571200" lon="10.5691990">
	<ele>1838.00</ele>
	<time>2024-03-09T08:56:38.000Z</time>
</trkpt>
<trkpt lat="46.2571210" lon="10.5692090">
	<ele>1838.00</ele>
	<time>2024-03-09T08:56:39.000Z</time>
</trkpt>
<trkpt lat="46.2571190" lon="10.5692220">
	<ele>1838.20</ele>
	<time>2024-03-09T08:56:40.000Z</time>
</trkpt>
<trkpt lat="46.2571200" lon="10.5692300">
	<ele>1838.20</ele>
	<time>2024-03-09T08:56:41.000Z</time>
</trkpt>
<trkpt lat="46.2571230" lon="10.5692370">
	<ele>1838.20</ele>
	<time>2024-03-09T08:56:42.000Z</time>
</trkpt>
<trkpt lat="46.2571250" lon="10.5692480">
	<ele>1838.40</ele>
	<time>2024-03-09T08:56:43.000Z</time>
</trkpt>
<trkpt lat="46.2571290" lon="10.5692580">
	<ele>1838.40</ele>
	<time>2024-03-09T08:56:44.000Z</time>
</trkpt>
<trkpt lat="46.2571360" lon="10.5692680">
	<ele>1838.40</ele>
	<time>2024-03-09T08:56:45.000Z</time>
</trkpt>
<trkpt lat="46.2571410" lon="10.5692810">
	<ele>1838.40</ele>
	<time>2024-03-09T08:56:46.000Z</time>
</trkpt>
<trkpt lat="46.2571440" lon="10.5692960">
	<ele>1838.60</ele>
	<time>2024-03-09T08:56:47.000Z</time>
</trkpt>
<trkpt lat="46.2571470" lon="10.5693070">
	<ele>1838.60</ele>
	<time>2024-03-09T08:56:48.000Z</time>
</trkpt>
<trkpt lat="46.2571490" lon="10.5693130">
	<ele>1838.60</ele>
	<time>2024-03-09T08:56:49.000Z</time>
</trkpt>
<trkpt lat="46.2571490" lon="10.5693140">
	<ele>1838.60</ele>
	<time>2024-03-09T08:56:50.000Z</time>
</trkpt>
<trkpt lat="46.2571490" lon="10.5693150">
	<ele>1838.60</ele>
	<time>2024-03-09T08:56:51.000Z</time>
</trkpt>
<trkpt lat="46.2571500" lon="10.5693170">
	<ele>1838.60</ele>
	<time>2024-03-09T08:56:52.000Z</time>
</trkpt>
<trkpt lat="46.2571520" lon="10.5693180">
	<ele>1838.60</ele>
	<time>2024-03-09T08:56:53.000Z</time>
</trkpt>
<trkpt lat="46.2571510" lon="10.5693180">
	<ele>1838.60</ele>
	<time>2024-03-09T08:56:54.000Z</time>
</trkpt>
<trkpt lat="46.2571510" lon="10.5693180">
	<ele>1838.60</ele>
	<time>2024-03-09T08:56:55.000Z</time>
</trkpt>
<trkpt lat="46.2571520" lon="10.5693190">
	<ele>1838.60</ele>
	<time>2024-03-09T08:56:56.000Z</time>
</trkpt>
<trkpt lat="46.2571520" lon="10.5693210">
	<ele>1838.60</ele>
	<time>2024-03-09T08:56:57.000Z</time>
</trkpt>
<trkpt lat="46.2571520" lon="10.5693260">
	<ele>1838.60</ele>
	<time>2024-03-09T08:56:58.000Z</time>
</trkpt>
<trkpt lat="46.2571560" lon="10.5693300">
	<ele>1838.60</ele>
	<time>2024-03-09T08:56:59.000Z</time>
</trkpt>
<trkpt lat="46.2571580" lon="10.5693370">
	<ele>1838.60</ele>
	<time>2024-03-09T08:57:00.000Z</time>
</trkpt>
<trkpt lat="46.2571590" lon="10.5693480">
	<ele>1838.80</ele>
	<time>2024-03-09T08:57:01.000Z</time>
</trkpt>
<trkpt lat="46.2571620" lon="10.5693540">
	<ele>1838.80</ele>
	<time>2024-03-09T08:57:02.000Z</time>
</trkpt>
<trkpt lat="46.2571650" lon="10.5693620">
	<ele>1838.80</ele>
	<time>2024-03-09T08:57:03.000Z</time>
</trkpt>
<trkpt lat="46.2571720" lon="10.5693700">
	<ele>1839.00</ele>
	<time>2024-03-09T08:57:04.000Z</time>
</trkpt>
<trkpt lat="46.2571760" lon="10.5693760">
	<ele>1839.00</ele>
	<time>2024-03-09T08:57:05.000Z</time>
</trkpt>
<trkpt lat="46.2571820" lon="10.5693830">
	<ele>1839.00</ele>
	<time>2024-03-09T08:57:06.000Z</time>
</trkpt>
<trkpt lat="46.2571860" lon="10.5693920">
	<ele>1839.00</ele>
	<time>2024-03-09T08:57:07.000Z</time>
</trkpt>
<trkpt lat="46.2571870" lon="10.5694040">
	<ele>1839.20</ele>
	<time>2024-03-09T08:57:08.000Z</time>
</trkpt>
<trkpt lat="46.2571910" lon="10.5694170">
	<ele>1839.40</ele>
	<time>2024-03-09T08:57:09.000Z</time>
</trkpt>
<trkpt lat="46.2571930" lon="10.5694260">
	<ele>1839.40</ele>
	<time>2024-03-09T08:57:10.000Z</time>
</trkpt>
<trkpt lat="46.2571940" lon="10.5694360">
	<ele>1839.60</ele>
	<time>2024-03-09T08:57:11.000Z</time>
</trkpt>
<trkpt lat="46.2571960" lon="10.5694490">
	<ele>1839.60</ele>
	<time>2024-03-09T08:57:12.000Z</time>
</trkpt>
<trkpt lat="46.2571940" lon="10.5694600">
	<ele>1839.80</ele>
	<time>2024-03-09T08:57:13.000Z</time>
</trkpt>
<trkpt lat="46.2571940" lon="10.5694760">
	<ele>1839.80</ele>
	<time>2024-03-09T08:57:14.000Z</time>
</trkpt>
<trkpt lat="46.2571940" lon="10.5694850">
	<ele>1839.80</ele>
	<time>2024-03-09T08:57:15.000Z</time>
</trkpt>
<trkpt lat="46.2571940" lon="10.5694910">
	<ele>1839.80</ele>
	<time>2024-03-09T08:57:16.000Z</time>
</trkpt>
<trkpt lat="46.2572000" lon="10.5695000">
	<ele>1840.00</ele>
	<time>2024-03-09T08:57:17.000Z</time>
</trkpt>
<trkpt lat="46.2572030" lon="10.5695130">
	<ele>1840.00</ele>
	<time>2024-03-09T08:57:18.000Z</time>
</trkpt>
<trkpt lat="46.2572030" lon="10.5695230">
	<ele>1840.20</ele>
	<time>2024-03-09T08:57:19.000Z</time>
</trkpt>
<trkpt lat="46.2572070" lon="10.5695320">
	<ele>1840.20</ele>
	<time>2024-03-09T08:57:20.000Z</time>
</trkpt>
<trkpt lat="46.2572150" lon="10.5695450">
	<ele>1840.20</ele>
	<time>2024-03-09T08:57:21.000Z</time>
</trkpt>
<trkpt lat="46.2572180" lon="10.5695550">
	<ele>1840.40</ele>
	<time>2024-03-09T08:57:22.000Z</time>
</trkpt>
<trkpt lat="46.2572180" lon="10.5695620">
	<ele>1840.40</ele>
	<time>2024-03-09T08:57:23.000Z</time>
</trkpt>
<trkpt lat="46.2572200" lon="10.5695720">
	<ele>1840.60</ele>
	<time>2024-03-09T08:57:24.000Z</time>
</trkpt>
<trkpt lat="46.2572230" lon="10.5695810">
	<ele>1840.80</ele>
	<time>2024-03-09T08:57:25.000Z</time>
</trkpt>
<trkpt lat="46.2572230" lon="10.5695920">
	<ele>1841.00</ele>
	<time>2024-03-09T08:57:26.000Z</time>
</trkpt>
<trkpt lat="46.2572230" lon="10.5695990">
	<ele>1841.00</ele>
	<time>2024-03-09T08:57:27.000Z</time>
</trkpt>
<trkpt lat="46.2572250" lon="10.5696110">
	<ele>1841.20</ele>
	<time>2024-03-09T08:57:28.000Z</time>
</trkpt>
<trkpt lat="46.2572250" lon="10.5696230">
	<ele>1841.20</ele>
	<time>2024-03-09T08:57:29.000Z</time>
</trkpt>
<trkpt lat="46.2572260" lon="10.5696310">
	<ele>1841.40</ele>
	<time>2024-03-09T08:57:30.000Z</time>
</trkpt>
<trkpt lat="46.2572270" lon="10.5696420">
	<ele>1841.60</ele>
	<time>2024-03-09T08:57:31.000Z</time>
</trkpt>
<trkpt lat="46.2572290" lon="10.5696540">
	<ele>1841.60</ele>
	<time>2024-03-09T08:57:32.000Z</time>
</trkpt>
<trkpt lat="46.2572310" lon="10.5696640">
	<ele>1841.80</ele>
	<time>2024-03-09T08:57:33.000Z</time>
</trkpt>
<trkpt lat="46.2572360" lon="10.5696750">
	<ele>1842.00</ele>
	<time>2024-03-09T08:57:34.000Z</time>
</trkpt>
<trkpt lat="46.2572430" lon="10.5696860">
	<ele>1842.20</ele>
	<time>2024-03-09T08:57:35.000Z</time>
</trkpt>
<trkpt lat="46.2572460" lon="10.5696960">
	<ele>1842.20</ele>
	<time>2024-03-09T08:57:36.000Z</time>
</trkpt>
<trkpt lat="46.2572490" lon="10.5697030">
	<ele>1842.40</ele>
	<time>2024-03-09T08:57:37.000Z</time>
</trkpt>
<trkpt lat="46.2572520" lon="10.5697130">
	<ele>1842.60</ele>
	<time>2024-03-09T08:57:38.000Z</time>
</trkpt>
<trkpt lat="46.2572550" lon="10.5697210">
	<ele>1842.80</ele>
	<time>2024-03-09T08:57:39.000Z</time>
</trkpt>
<trkpt lat="46.2572560" lon="10.5697290">
	<ele>1842.80</ele>
	<time>2024-03-09T08:57:40.000Z</time>
</trkpt>
<trkpt lat="46.2572540" lon="10.5697400">
	<ele>1843.00</ele>
	<time>2024-03-09T08:57:41.000Z</time>
</trkpt>
<trkpt lat="46.2572580" lon="10.5697500">
	<ele>1843.00</ele>
	<time>2024-03-09T08:57:42.000Z</time>
</trkpt>
<trkpt lat="46.2572600" lon="10.5697600">
	<ele>1843.20</ele>
	<time>2024-03-09T08:57:43.000Z</time>
</trkpt>
<trkpt lat="46.2572620" lon="10.5697720">
	<ele>1843.40</ele>
	<time>2024-03-09T08:57:44.000Z</time>
</trkpt>
<trkpt lat="46.2572620" lon="10.5697870">
	<ele>1843.40</ele>
	<time>2024-03-09T08:57:45.000Z</time>
</trkpt>
<trkpt lat="46.2572630" lon="10.5697990">
	<ele>1843.60</ele>
	<time>2024-03-09T08:57:46.000Z</time>
</trkpt>
<trkpt lat="46.2572650" lon="10.5698080">
	<ele>1843.80</ele>
	<time>2024-03-09T08:57:47.000Z</time>
</trkpt>
<trkpt lat="46.2572690" lon="10.5698170">
	<ele>1843.80</ele>
	<time>2024-03-09T08:57:48.000Z</time>
</trkpt>
<trkpt lat="46.2572740" lon="10.5698260">
	<ele>1844.00</ele>
	<time>2024-03-09T08:57:49.000Z</time>
</trkpt>
<trkpt lat="46.2572790" lon="10.5698380">
	<ele>1844.00</ele>
	<time>2024-03-09T08:57:50.000Z</time>
</trkpt>
<trkpt lat="46.2572820" lon="10.5698510">
	<ele>1844.20</ele>
	<time>2024-03-09T08:57:51.000Z</time>
</trkpt>
<trkpt lat="46.2572870" lon="10.5698600">
	<ele>1844.40</ele>
	<time>2024-03-09T08:57:52.000Z</time>
</trkpt>
<trkpt lat="46.2572910" lon="10.5698690">
	<ele>1844.60</ele>
	<time>2024-03-09T08:57:53.000Z</time>
</trkpt>
<trkpt lat="46.2572920" lon="10.5698820">
	<ele>1844.80</ele>
	<time>2024-03-09T08:57:54.000Z</time>
</trkpt>
<trkpt lat="46.2572960" lon="10.5698930">
	<ele>1845.00</ele>
	<time>2024-03-09T08:57:55.000Z</time>
</trkpt>
<trkpt lat="46.2572990" lon="10.5699040">
	<ele>1845.20</ele>
	<time>2024-03-09T08:57:56.000Z</time>
</trkpt>
<trkpt lat="46.2573020" lon="10.5699130">
	<ele>1845.20</ele>
	<time>2024-03-09T08:57:57.000Z</time>
</trkpt>
<trkpt lat="46.2573100" lon="10.5699250">
	<ele>1845.40</ele>
	<time>2024-03-09T08:57:58.000Z</time>
</trkpt>
<trkpt lat="46.2573150" lon="10.5699360">
	<ele>1845.60</ele>
	<time>2024-03-09T08:57:59.000Z</time>
</trkpt>
<trkpt lat="46.2573160" lon="10.5699490">
	<ele>1845.60</ele>
	<time>2024-03-09T08:58:00.000Z</time>
</trkpt>
<trkpt lat="46.2573200" lon="10.5699560">
	<ele>1845.80</ele>
	<time>2024-03-09T08:58:01.000Z</time>
</trkpt>
<trkpt lat="46.2573230" lon="10.5699630">
	<ele>1846.00</ele>
	<time>2024-03-09T08:58:02.000Z</time>
</trkpt>
<trkpt lat="46.2573240" lon="10.5699740">
	<ele>1846.00</ele>
	<time>2024-03-09T08:58:03.000Z</time>
</trkpt>
<trkpt lat="46.2573280" lon="10.5699830">
	<ele>1846.20</ele>
	<time>2024-03-09T08:58:04.000Z</time>
</trkpt>
<trkpt lat="46.2573320" lon="10.5699940">
	<ele>1846.20</ele>
	<time>2024-03-09T08:58:05.000Z</time>
</trkpt>
<trkpt lat="46.2573380" lon="10.5700060">
	<ele>1846.40</ele>
	<time>2024-03-09T08:58:06.000Z</time>
</trkpt>
<trkpt lat="46.2573440" lon="10.5700170">
	<ele>1846.40</ele>
	<time>2024-03-09T08:58:07.000Z</time>
</trkpt>
<trkpt lat="46.2573510" lon="10.5700270">
	<ele>1846.40</ele>
	<time>2024-03-09T08:58:08.000Z</time>
</trkpt>
<trkpt lat="46.2573540" lon="10.5700360">
	<ele>1846.40</ele>
	<time>2024-03-09T08:58:09.000Z</time>
</trkpt>
<trkpt lat="46.2573560" lon="10.5700470">
	<ele>1846.40</ele>
	<time>2024-03-09T08:58:10.000Z</time>
</trkpt>
<trkpt lat="46.2573580" lon="10.5700570">
	<ele>1846.40</ele>
	<time>2024-03-09T08:58:11.000Z</time>
</trkpt>
<trkpt lat="46.2573600" lon="10.5700700">
	<ele>1846.40</ele>
	<time>2024-03-09T08:58:12.000Z</time>
</trkpt>
<trkpt lat="46.2573630" lon="10.5700820">
	<ele>1846.40</ele>
	<time>2024-03-09T08:58:13.000Z</time>
</trkpt>
<trkpt lat="46.2573660" lon="10.5700910">
	<ele>1846.60</ele>
	<time>2024-03-09T08:58:14.000Z</time>
</trkpt>
<trkpt lat="46.2573720" lon="10.5700980">
	<ele>1846.60</ele>
	<time>2024-03-09T08:58:15.000Z</time>
</trkpt>
<trkpt lat="46.2573740" lon="10.5701080">
	<ele>1846.60</ele>
	<time>2024-03-09T08:58:16.000Z</time>
</trkpt>
<trkpt lat="46.2573800" lon="10.5701160">
	<ele>1846.80</ele>
	<time>2024-03-09T08:58:17.000Z</time>
</trkpt>
<trkpt lat="46.2573870" lon="10.5701270">
	<ele>1846.80</ele>
	<time>2024-03-09T08:58:18.000Z</time>
</trkpt>
<trkpt lat="46.2573930" lon="10.5701400">
	<ele>1847.00</ele>
	<time>2024-03-09T08:58:19.000Z</time>
</trkpt>
<trkpt lat="46.2573960" lon="10.5701500">
	<ele>1847.20</ele>
	<time>2024-03-09T08:58:20.000Z</time>
</trkpt>
<trkpt lat="46.2573980" lon="10.5701600">
	<ele>1847.20</ele>
	<time>2024-03-09T08:58:21.000Z</time>
</trkpt>
<trkpt lat="46.2574040" lon="10.5701700">
	<ele>1847.20</ele>
	<time>2024-03-09T08:58:22.000Z</time>
</trkpt>
<trkpt lat="46.2574080" lon="10.5701780">
	<ele>1847.40</ele>
	<time>2024-03-09T08:58:23.000Z</time>
</trkpt>
<trkpt lat="46.2574070" lon="10.5701850">
	<ele>1847.40</ele>
	<time>2024-03-09T08:58:24.000Z</time>
</trkpt>
<trkpt lat="46.2574070" lon="10.5701930">
	<ele>1847.60</ele>
	<time>2024-03-09T08:58:25.000Z</time>
</trkpt>
<trkpt lat="46.2574070" lon="10.5702030">
	<ele>1847.80</ele>
	<time>2024-03-09T08:58:26.000Z</time>
</trkpt>
<trkpt lat="46.2574110" lon="10.5702160">
	<ele>1847.80</ele>
	<time>2024-03-09T08:58:27.000Z</time>
</trkpt>
<trkpt lat="46.2574100" lon="10.5702280">
	<ele>1848.00</ele>
	<time>2024-03-09T08:58:28.000Z</time>
</trkpt>
<trkpt lat="46.2574080" lon="10.5702490">
	<ele>1848.20</ele>
	<time>2024-03-09T08:58:29.000Z</time>
</trkpt>
<trkpt lat="46.2574100" lon="10.5702590">
	<ele>1848.40</ele>
	<time>2024-03-09T08:58:30.000Z</time>
</trkpt>
<trkpt lat="46.2574120" lon="10.5702690">
	<ele>1848.60</ele>
	<time>2024-03-09T08:58:31.000Z</time>
</trkpt>
<trkpt lat="46.2574150" lon="10.5702820">
	<ele>1848.60</ele>
	<time>2024-03-09T08:58:32.000Z</time>
</trkpt>
<trkpt lat="46.2574220" lon="10.5702900">
	<ele>1848.60</ele>
	<time>2024-03-09T08:58:33.000Z</time>
</trkpt>
<trkpt lat="46.2574260" lon="10.5702990">
	<ele>1848.80</ele>
	<time>2024-03-09T08:58:34.000Z</time>
</trkpt>
<trkpt lat="46.2574280" lon="10.5703070">
	<ele>1848.80</ele>
	<time>2024-03-09T08:58:35.000Z</time>
</trkpt>
<trkpt lat="46.2574330" lon="10.5703170">
	<ele>1848.80</ele>
	<time>2024-03-09T08:58:36.000Z</time>
</trkpt>
<trkpt lat="46.2574340" lon="10.5703240">
	<ele>1848.80</ele>
	<time>2024-03-09T08:58:37.000Z</time>
</trkpt>
<trkpt lat="46.2574360" lon="10.5703340">
	<ele>1848.80</ele>
	<time>2024-03-09T08:58:38.000Z</time>
</trkpt>
<trkpt lat="46.2574390" lon="10.5703470">
	<ele>1848.80</ele>
	<time>2024-03-09T08:58:39.000Z</time>
</trkpt>
<trkpt lat="46.2574420" lon="10.5703590">
	<ele>1849.00</ele>
	<time>2024-03-09T08:58:40.000Z</time>
</trkpt>
<trkpt lat="46.2574490" lon="10.5703640">
	<ele>1849.00</ele>
	<time>2024-03-09T08:58:41.000Z</time>
</trkpt>
<trkpt lat="46.2574540" lon="10.5703720">
	<ele>1849.00</ele>
	<time>2024-03-09T08:58:42.000Z</time>
</trkpt>
<trkpt lat="46.2574570" lon="10.5703820">
	<ele>1849.00</ele>
	<time>2024-03-09T08:58:43.000Z</time>
</trkpt>
<trkpt lat="46.2574560" lon="10.5703920">
	<ele>1849.00</ele>
	<time>2024-03-09T08:58:44.000Z</time>
</trkpt>
<trkpt lat="46.2574540" lon="10.5704060">
	<ele>1849.00</ele>
	<time>2024-03-09T08:58:45.000Z</time>
</trkpt>
<trkpt lat="46.2574530" lon="10.5704190">
	<ele>1849.20</ele>
	<time>2024-03-09T08:58:46.000Z</time>
</trkpt>
<trkpt lat="46.2574530" lon="10.5704290">
	<ele>1849.20</ele>
	<time>2024-03-09T08:58:47.000Z</time>
</trkpt>
<trkpt lat="46.2574550" lon="10.5704400">
	<ele>1849.40</ele>
	<time>2024-03-09T08:58:48.000Z</time>
</trkpt>
<trkpt lat="46.2574560" lon="10.5704510">
	<ele>1849.40</ele>
	<time>2024-03-09T08:58:49.000Z</time>
</trkpt>
<trkpt lat="46.2574580" lon="10.5704620">
	<ele>1849.40</ele>
	<time>2024-03-09T08:58:50.000Z</time>
</trkpt>
<trkpt lat="46.2574560" lon="10.5704750">
	<ele>1849.40</ele>
	<time>2024-03-09T08:58:51.000Z</time>
</trkpt>
<trkpt lat="46.2574560" lon="10.5704890">
	<ele>1849.60</ele>
	<time>2024-03-09T08:58:52.000Z</time>
</trkpt>
<trkpt lat="46.2574590" lon="10.5704980">
	<ele>1849.60</ele>
	<time>2024-03-09T08:58:53.000Z</time>
</trkpt>
<trkpt lat="46.2574610" lon="10.5705090">
	<ele>1849.60</ele>
	<time>2024-03-09T08:58:54.000Z</time>
</trkpt>
<trkpt lat="46.2574660" lon="10.5705190">
	<ele>1849.60</ele>
	<time>2024-03-09T08:58:55.000Z</time>
</trkpt>
<trkpt lat="46.2574690" lon="10.5705300">
	<ele>1849.80</ele>
	<time>2024-03-09T08:58:56.000Z</time>
</trkpt>
<trkpt lat="46.2574700" lon="10.5705410">
	<ele>1850.00</ele>
	<time>2024-03-09T08:58:57.000Z</time>
</trkpt>
<trkpt lat="46.2574730" lon="10.5705530">
	<ele>1850.00</ele>
	<time>2024-03-09T08:58:58.000Z</time>
</trkpt>
<trkpt lat="46.2574740" lon="10.5705650">
	<ele>1850.00</ele>
	<time>2024-03-09T08:58:59.000Z</time>
</trkpt>
<trkpt lat="46.2574740" lon="10.5705770">
	<ele>1850.20</ele>
	<time>2024-03-09T08:59:00.000Z</time>
</trkpt>
<trkpt lat="46.2574720" lon="10.5705880">
	<ele>1850.20</ele>
	<time>2024-03-09T08:59:01.000Z</time>
</trkpt>
<trkpt lat="46.2574740" lon="10.5705940">
	<ele>1850.20</ele>
	<time>2024-03-09T08:59:02.000Z</time>
</trkpt>
<trkpt lat="46.2574790" lon="10.5706040">
	<ele>1850.40</ele>
	<time>2024-03-09T08:59:03.000Z</time>
</trkpt>
<trkpt lat="46.2574820" lon="10.5706140">
	<ele>1850.40</ele>
	<time>2024-03-09T08:59:04.000Z</time>
</trkpt>
<trkpt lat="46.2574840" lon="10.5706230">
	<ele>1850.60</ele>
	<time>2024-03-09T08:59:05.000Z</time>
</trkpt>
<trkpt lat="46.2574860" lon="10.5706340">
	<ele>1850.60</ele>
	<time>2024-03-09T08:59:06.000Z</time>
</trkpt>
<trkpt lat="46.2574830" lon="10.5706470">
	<ele>1850.80</ele>
	<time>2024-03-09T08:59:07.000Z</time>
</trkpt>
<trkpt lat="46.2574900" lon="10.5706570">
	<ele>1850.80</ele>
	<time>2024-03-09T08:59:08.000Z</time>
</trkpt>
<trkpt lat="46.2574950" lon="10.5706690">
	<ele>1850.80</ele>
	<time>2024-03-09T08:59:09.000Z</time>
</trkpt>
<trkpt lat="46.2574980" lon="10.5706830">
	<ele>1851.00</ele>
	<time>2024-03-09T08:59:10.000Z</time>
</trkpt>
<trkpt lat="46.2575000" lon="10.5706930">
	<ele>1851.00</ele>
	<time>2024-03-09T08:59:11.000Z</time>
</trkpt>
<trkpt lat="46.2575010" lon="10.5707030">
	<ele>1851.00</ele>
	<time>2024-03-09T08:59:12.000Z</time>
</trkpt>
<trkpt lat="46.2575020" lon="10.5707150">
	<ele>1851.00</ele>
	<time>2024-03-09T08:59:13.000Z</time>
</trkpt>
<trkpt lat="46.2575010" lon="10.5707290">
	<ele>1851.20</ele>
	<time>2024-03-09T08:59:14.000Z</time>
</trkpt>
<trkpt lat="46.2575000" lon="10.5707410">
	<ele>1851.40</ele>
	<time>2024-03-09T08:59:15.000Z</time>
</trkpt>
<trkpt lat="46.2574980" lon="10.5707540">
	<ele>1851.40</ele>
	<time>2024-03-09T08:59:16.000Z</time>
</trkpt>
<trkpt lat="46.2574980" lon="10.5707680">
	<ele>1851.60</ele>
	<time>2024-03-09T08:59:17.000Z</time>
</trkpt>
<trkpt lat="46.2575020" lon="10.5707810">
	<ele>1851.60</ele>
	<time>2024-03-09T08:59:18.000Z</time>
</trkpt>
<trkpt lat="46.2575050" lon="10.5707920">
	<ele>1851.60</ele>
	<time>2024-03-09T08:59:19.000Z</time>
</trkpt>
<trkpt lat="46.2575060" lon="10.5708010">
	<ele>1851.80</ele>
	<time>2024-03-09T08:59:20.000Z</time>
</trkpt>
<trkpt lat="46.2575070" lon="10.5708130">
	<ele>1851.80</ele>
	<time>2024-03-09T08:59:21.000Z</time>
</trkpt>
<trkpt lat="46.2575080" lon="10.5708230">
	<ele>1852.00</ele>
	<time>2024-03-09T08:59:22.000Z</time>
</trkpt>
<trkpt lat="46.2575130" lon="10.5708340">
	<ele>1852.00</ele>
	<time>2024-03-09T08:59:23.000Z</time>
</trkpt>
<trkpt lat="46.2575190" lon="10.5708460">
	<ele>1852.00</ele>
	<time>2024-03-09T08:59:24.000Z</time>
</trkpt>
<trkpt lat="46.2575250" lon="10.5708560">
	<ele>1852.20</ele>
	<time>2024-03-09T08:59:25.000Z</time>
</trkpt>
<trkpt lat="46.2575280" lon="10.5708670">
	<ele>1852.40</ele>
	<time>2024-03-09T08:59:26.000Z</time>
</trkpt>
<trkpt lat="46.2575290" lon="10.5708760">
	<ele>1852.40</ele>
	<time>2024-03-09T08:59:27.000Z</time>
</trkpt>
<trkpt lat="46.2575270" lon="10.5708910">
	<ele>1852.60</ele>
	<time>2024-03-09T08:59:28.000Z</time>
</trkpt>
<trkpt lat="46.2575250" lon="10.5709040">
	<ele>1852.60</ele>
	<time>2024-03-09T08:59:29.000Z</time>
</trkpt>
<trkpt lat="46.2575240" lon="10.5709120">
	<ele>1852.80</ele>
	<time>2024-03-09T08:59:30.000Z</time>
</trkpt>
<trkpt lat="46.2575250" lon="10.5709230">
	<ele>1852.80</ele>
	<time>2024-03-09T08:59:31.000Z</time>
</trkpt>
<trkpt lat="46.2575290" lon="10.5709310">
	<ele>1852.80</ele>
	<time>2024-03-09T08:59:32.000Z</time>
</trkpt>
<trkpt lat="46.2575290" lon="10.5709420">
	<ele>1852.80</ele>
	<time>2024-03-09T08:59:33.000Z</time>
</trkpt>
<trkpt lat="46.2575350" lon="10.5709510">
	<ele>1852.80</ele>
	<time>2024-03-09T08:59:34.000Z</time>
</trkpt>
<trkpt lat="46.2575390" lon="10.5709620">
	<ele>1852.80</ele>
	<time>2024-03-09T08:59:35.000Z</time>
</trkpt>
<trkpt lat="46.2575420" lon="10.5709730">
	<ele>1852.80</ele>
	<time>2024-03-09T08:59:36.000Z</time>
</trkpt>
<trkpt lat="46.2575440" lon="10.5709840">
	<ele>1853.00</ele>
	<time>2024-03-09T08:59:37.000Z</time>
</trkpt>
<trkpt lat="46.2575440" lon="10.5709940">
	<ele>1853.00</ele>
	<time>2024-03-09T08:59:38.000Z</time>
</trkpt>
<trkpt lat="46.2575460" lon="10.5710010">
	<ele>1853.20</ele>
	<time>2024-03-09T08:59:39.000Z</time>
</trkpt>
<trkpt lat="46.2575520" lon="10.5710100">
	<ele>1853.20</ele>
	<time>2024-03-09T08:59:40.000Z</time>
</trkpt>
<trkpt lat="46.2575540" lon="10.5710210">
	<ele>1853.20</ele>
	<time>2024-03-09T08:59:41.000Z</time>
</trkpt>
<trkpt lat="46.2575570" lon="10.5710280">
	<ele>1853.40</ele>
	<time>2024-03-09T08:59:42.000Z</time>
</trkpt>
<trkpt lat="46.2575580" lon="10.5710400">
	<ele>1853.40</ele>
	<time>2024-03-09T08:59:43.000Z</time>
</trkpt>
<trkpt lat="46.2575620" lon="10.5710530">
	<ele>1853.60</ele>
	<time>2024-03-09T08:59:44.000Z</time>
</trkpt>
<trkpt lat="46.2575660" lon="10.5710650">
	<ele>1853.60</ele>
	<time>2024-03-09T08:59:45.000Z</time>
</trkpt>
<trkpt lat="46.2575670" lon="10.5710770">
	<ele>1853.60</ele>
	<time>2024-03-09T08:59:46.000Z</time>
</trkpt>
<trkpt lat="46.2575680" lon="10.5710890">
	<ele>1853.80</ele>
	<time>2024-03-09T08:59:47.000Z</time>
</trkpt>
<trkpt lat="46.2575720" lon="10.5710970">
	<ele>1853.80</ele>
	<time>2024-03-09T08:59:48.000Z</time>
</trkpt>
<trkpt lat="46.2575760" lon="10.5711090">
	<ele>1854.00</ele>
	<time>2024-03-09T08:59:49.000Z</time>
</trkpt>
<trkpt lat="46.2575800" lon="10.5711210">
	<ele>1854.00</ele>
	<time>2024-03-09T08:59:50.000Z</time>
</trkpt>
<trkpt lat="46.2575830" lon="10.5711310">
	<ele>1854.00</ele>
	<time>2024-03-09T08:59:51.000Z</time>
</trkpt>
<trkpt lat="46.2575860" lon="10.5711410">
	<ele>1854.00</ele>
	<time>2024-03-09T08:59:52.000Z</time>
</trkpt>
<trkpt lat="46.2575900" lon="10.5711520">
	<ele>1854.20</ele>
	<time>2024-03-09T08:59:53.000Z</time>
</trkpt>
<trkpt lat="46.2575930" lon="10.5711570">
	<ele>1854.20</ele>
	<time>2024-03-09T08:59:54.000Z</time>
</trkpt>
<trkpt lat="46.2575960" lon="10.5711660">
	<ele>1854.40</ele>
	<time>2024-03-09T08:59:55.000Z</time>
</trkpt>
<trkpt lat="46.2575970" lon="10.5711790">
	<ele>1854.40</ele>
	<time>2024-03-09T08:59:56.000Z</time>
</trkpt>
<trkpt lat="46.2576020" lon="10.5711880">
	<ele>1854.40</ele>
	<time>2024-03-09T08:59:57.000Z</time>
</trkpt>
<trkpt lat="46.2576070" lon="10.5712000">
	<ele>1854.60</ele>
	<time>2024-03-09T08:59:58.000Z</time>
</trkpt>
<trkpt lat="46.2576100" lon="10.5712110">
	<ele>1854.60</ele>
	<time>2024-03-09T08:59:59.000Z</time>
</trkpt>
<trkpt lat="46.2576140" lon="10.5712210">
	<ele>1854.80</ele>
	<time>2024-03-09T09:00:00.000Z</time>
</trkpt>
<trkpt lat="46.2576180" lon="10.5712340">
	<ele>1854.80</ele>
	<time>2024-03-09T09:00:01.000Z</time>
</trkpt>
<trkpt lat="46.2576210" lon="10.5712490">
	<ele>1854.80</ele>
	<time>2024-03-09T09:00:02.000Z</time>
</trkpt>
<trkpt lat="46.2576230" lon="10.5712580">
	<ele>1854.80</ele>
	<time>2024-03-09T09:00:03.000Z</time>
</trkpt>
<trkpt lat="46.2576230" lon="10.5712690">
	<ele>1855.00</ele>
	<time>2024-03-09T09:00:04.000Z</time>
</trkpt>
<trkpt lat="46.2576240" lon="10.5712810">
	<ele>1855.00</ele>
	<time>2024-03-09T09:00:05.000Z</time>
</trkpt>
<trkpt lat="46.2576220" lon="10.5712930">
	<ele>1855.00</ele>
	<time>2024-03-09T09:00:06.000Z</time>
</trkpt>
<trkpt lat="46.2576220" lon="10.5713020">
	<ele>1855.20</ele>
	<time>2024-03-09T09:00:07.000Z</time>
</trkpt>
<trkpt lat="46.2576260" lon="10.5713130">
	<ele>1855.20</ele>
	<time>2024-03-09T09:00:08.000Z</time>
</trkpt>
<trkpt lat="46.2576270" lon="10.5713230">
	<ele>1855.20</ele>
	<time>2024-03-09T09:00:09.000Z</time>
</trkpt>
<trkpt lat="46.2576310" lon="10.5713310">
	<ele>1855.20</ele>
	<time>2024-03-09T09:00:10.000Z</time>
</trkpt>
<trkpt lat="46.2576350" lon="10.5713370">
	<ele>1855.20</ele>
	<time>2024-03-09T09:00:11.000Z</time>
</trkpt>
<trkpt lat="46.2576370" lon="10.5713430">
	<ele>1855.40</ele>
	<time>2024-03-09T09:00:12.000Z</time>
</trkpt>
<trkpt lat="46.2576420" lon="10.5713490">
	<ele>1855.40</ele>
	<time>2024-03-09T09:00:13.000Z</time>
</trkpt>
<trkpt lat="46.2576440" lon="10.5713550">
	<ele>1855.60</ele>
	<time>2024-03-09T09:00:14.000Z</time>
</trkpt>
<trkpt lat="46.2576430" lon="10.5713590">
	<ele>1855.60</ele>
	<time>2024-03-09T09:00:15.000Z</time>
</trkpt>
<trkpt lat="46.2576450" lon="10.5713630">
	<ele>1855.80</ele>
	<time>2024-03-09T09:00:16.000Z</time>
</trkpt>
<trkpt lat="46.2576460" lon="10.5713640">
	<ele>1855.60</ele>
	<time>2024-03-09T09:00:17.000Z</time>
</trkpt>
<trkpt lat="46.2576480" lon="10.5713650">
	<ele>1855.80</ele>
	<time>2024-03-09T09:00:18.000Z</time>
</trkpt>
<trkpt lat="46.2576470" lon="10.5713650">
	<ele>1855.80</ele>
	<time>2024-03-09T09:00:19.000Z</time>
</trkpt>
<trkpt lat="46.2576460" lon="10.5713670">
	<ele>1855.80</ele>
	<time>2024-03-09T09:00:20.000Z</time>
</trkpt>
<trkpt lat="46.2576470" lon="10.5713680">
	<ele>1855.80</ele>
	<time>2024-03-09T09:00:21.000Z</time>
</trkpt>
<trkpt lat="46.2576480" lon="10.5713700">
	<ele>1855.80</ele>
	<time>2024-03-09T09:00:22.000Z</time>
</trkpt>
<trkpt lat="46.2576490" lon="10.5713730">
	<ele>1855.80</ele>
	<time>2024-03-09T09:00:23.000Z</time>
</trkpt>
<trkpt lat="46.2576490" lon="10.5713740">
	<ele>1855.80</ele>
	<time>2024-03-09T09:00:24.000Z</time>
</trkpt>
<trkpt lat="46.2576480" lon="10.5713740">
	<ele>1855.80</ele>
	<time>2024-03-09T09:00:25.000Z</time>
</trkpt>
<trkpt lat="46.2576480" lon="10.5713740">
	<ele>1855.60</ele>
	<time>2024-03-09T09:00:26.000Z</time>
</trkpt>
<trkpt lat="46.2576480" lon="10.5713740">
	<ele>1855.60</ele>
	<time>2024-03-09T09:00:27.000Z</time>
</trkpt>
<trkpt lat="46.2576480" lon="10.5713740">
	<ele>1855.60</ele>
	<time>2024-03-09T09:00:28.000Z</time>
</trkpt>
<trkpt lat="46.2576480" lon="10.5713740">
	<ele>1855.60</ele>
	<time>2024-03-09T09:00:29.000Z</time>
</trkpt>
<trkpt lat="46.2576480" lon="10.5713740">
	<ele>1855.60</ele>
	<time>2024-03-09T09:00:30.000Z</time>
</trkpt>
<trkpt lat="46.2576480" lon="10.5713740">
	<ele>1855.60</ele>
	<time>2024-03-09T09:00:31.000Z</time>
</trkpt>
<trkpt lat="46.2576480" lon="10.5713740">
	<ele>1855.60</ele>
	<time>2024-03-09T09:00:32.000Z</time>
</trkpt>
<trkpt lat="46.2576480" lon="10.5713740">
	<ele>1855.60</ele>
	<time>2024-03-09T09:00:33.000Z</time>
</trkpt>
<trkpt lat="46.2576480" lon="10.5713740">
	<ele>1855.60</ele>
	<time>2024-03-09T09:00:34.000Z</time>
</trkpt>
<trkpt lat="46.2576480" lon="10.5713740">
	<ele>1855.60</ele>
	<time>2024-03-09T09:00:35.000Z</time>
</trkpt>
<trkpt lat="46.2576480" lon="10.5713740">
	<ele>1855.60</ele>
	<time>2024-03-09T09:00:36.000Z</time>
</trkpt>
<trkpt lat="46.2576480" lon="10.5713740">
	<ele>1855.60</ele>
	<time>2024-03-09T09:00:37.000Z</time>
</trkpt>
<trkpt lat="46.2576480" lon="10.5713740">
	<ele>1855.60</ele>
	<time>2024-03-09T09:00:38.000Z</time>
</trkpt>
<trkpt lat="46.2576480" lon="10.5713740">
	<ele>1855.60</ele>
	<time>2024-03-09T09:00:39.000Z</time>
</trkpt>
<trkpt lat="46.2576480" lon="10.5713740">
	<ele>1855.60</ele>
	<time>2024-03-09T09:00:40.000Z</time>
</trkpt>
<trkpt lat="46.2576480" lon="10.5713740">
	<ele>1855.60</ele>
	<time>2024-03-09T09:00:41.000Z</time>
</trkpt>
<trkpt lat="46.2576480" lon="10.5713740">
	<ele>1855.40</ele>
	<time>2024-03-09T09:00:42.000Z</time>
</trkpt>
<trkpt lat="46.2576480" lon="10.5713760">
	<ele>1855.40</ele>
	<time>2024-03-09T09:00:43.000Z</time>
</trkpt>
<trkpt lat="46.2576480" lon="10.5713770">
	<ele>1855.60</ele>
	<time>2024-03-09T09:00:44.000Z</time>
</trkpt>
<trkpt lat="46.2576480" lon="10.5713770">
	<ele>1855.60</ele>
	<time>2024-03-09T09:00:45.000Z</time>
</trkpt>
<trkpt lat="46.2576480" lon="10.5713770">
	<ele>1855.60</ele>
	<time>2024-03-09T09:00:46.000Z</time>
</trkpt>
<trkpt lat="46.2576480" lon="10.5713770">
	<ele>1855.60</ele>
	<time>2024-03-09T09:00:47.000Z</time>
</trkpt>
<trkpt lat="46.2576470" lon="10.5713770">
	<ele>1855.60</ele>
	<time>2024-03-09T09:00:48.000Z</time>
</trkpt>
<trkpt lat="46.2576470" lon="10.5713780">
	<ele>1855.60</ele>
	<time>2024-03-09T09:00:49.000Z</time>
</trkpt>
<trkpt lat="46.2576470" lon="10.5713780">
	<ele>1855.60</ele>
	<time>2024-03-09T09:00:50.000Z</time>
</trkpt>
<trkpt lat="46.2576470" lon="10.5713780">
	<ele>1855.60</ele>
	<time>2024-03-09T09:00:51.000Z</time>
</trkpt>
<trkpt lat="46.2576470" lon="10.5713780">
	<ele>1855.60</ele>
	<time>2024-03-09T09:00:52.000Z</time>
</trkpt>
<trkpt lat="46.2576470" lon="10.5713780">
	<ele>1855.80</ele>
	<time>2024-03-09T09:00:53.000Z</time>
</trkpt>
<trkpt lat="46.2576470" lon="10.5713780">
	<ele>1855.80</ele>
	<time>2024-03-09T09:00:54.000Z</time>
</trkpt>
<trkpt lat="46.2576470" lon="10.5713780">
	<ele>1856.00</ele>
	<time>2024-03-09T09:00:55.000Z</time>
</trkpt>
<trkpt lat="46.2576470" lon="10.5713780">
	<ele>1856.00</ele>
	<time>2024-03-09T09:00:56.000Z</time>
</trkpt>
<trkpt lat="46.2576480" lon="10.5713780">
	<ele>1856.00</ele>
	<time>2024-03-09T09:00:57.000Z</time>
</trkpt>
<trkpt lat="46.2576490" lon="10.5713790">
	<ele>1856.20</ele>
	<time>2024-03-09T09:00:58.000Z</time>
</trkpt>
<trkpt lat="46.2576510" lon="10.5713880">
	<ele>1856.40</ele>
	<time>2024-03-09T09:00:59.000Z</time>
</trkpt>
<trkpt lat="46.2576560" lon="10.5714080">
	<ele>1856.40</ele>
	<time>2024-03-09T09:01:00.000Z</time>
</trkpt>
<trkpt lat="46.2576600" lon="10.5714290">
	<ele>1856.40</ele>
	<time>2024-03-09T09:01:01.000Z</time>
</trkpt>
<trkpt lat="46.2576640" lon="10.5714460">
	<ele>1856.40</ele>
	<time>2024-03-09T09:01:02.000Z</time>
</trkpt>
<trkpt lat="46.2576680" lon="10.5714640">
	<ele>1856.40</ele>
	<time>2024-03-09T09:01:03.000Z</time>
</trkpt>
<trkpt lat="46.2576730" lon="10.5714830">
	<ele>1856.40</ele>
	<time>2024-03-09T09:01:04.000Z</time>
</trkpt>
<trkpt lat="46.2576780" lon="10.5715030">
	<ele>1856.60</ele>
	<time>2024-03-09T09:01:05.000Z</time>
</trkpt>
<trkpt lat="46.2576800" lon="10.5715220">
	<ele>1856.60</ele>
	<time>2024-03-09T09:01:06.000Z</time>
</trkpt>
<trkpt lat="46.2576840" lon="10.5715420">
	<ele>1856.60</ele>
	<time>2024-03-09T09:01:07.000Z</time>
</trkpt>
<trkpt lat="46.2576910" lon="10.5715600">
	<ele>1856.80</ele>
	<time>2024-03-09T09:01:08.000Z</time>
</trkpt>
<trkpt lat="46.2576900" lon="10.5715690">
	<ele>1856.80</ele>
	<time>2024-03-09T09:01:09.000Z</time>
</trkpt>
<trkpt lat="46.2576950" lon="10.5715780">
	<ele>1856.80</ele>
	<time>2024-03-09T09:01:10.000Z</time>
</trkpt>
<trkpt lat="46.2576970" lon="10.5715880">
	<ele>1857.00</ele>
	<time>2024-03-09T09:01:11.000Z</time>
</trkpt>
<trkpt lat="46.2577000" lon="10.5715970">
	<ele>1857.00</ele>
	<time>2024-03-09T09:01:12.000Z</time>
</trkpt>
<trkpt lat="46.2577030" lon="10.5716070">
	<ele>1857.00</ele>
	<time>2024-03-09T09:01:13.000Z</time>
</trkpt>
<trkpt lat="46.2577080" lon="10.5716130">
	<ele>1857.20</ele>
	<time>2024-03-09T09:01:14.000Z</time>
</trkpt>
<trkpt lat="46.2577110" lon="10.5716270">
	<ele>1857.20</ele>
	<time>2024-03-09T09:01:15.000Z</time>
</trkpt>
<trkpt lat="46.2577160" lon="10.5716340">
	<ele>1857.20</ele>
	<time>2024-03-09T09:01:16.000Z</time>
</trkpt>
<trkpt lat="46.2577240" lon="10.5716430">
	<ele>1857.20</ele>
	<time>2024-03-09T09:01:17.000Z</time>
</trkpt>
<trkpt lat="46.2577340" lon="10.5716490">
	<ele>1857.20</ele>
	<time>2024-03-09T09:01:18.000Z</time>
</trkpt>
<trkpt lat="46.2577400" lon="10.5716560">
	<ele>1857.40</ele>
	<time>2024-03-09T09:01:19.000Z</time>
</trkpt>
<trkpt lat="46.2577480" lon="10.5716650">
	<ele>1857.40</ele>
	<time>2024-03-09T09:01:20.000Z</time>
</trkpt>
<trkpt lat="46.2577530" lon="10.5716750">
	<ele>1857.60</ele>
	<time>2024-03-09T09:01:21.000Z</time>
</trkpt>
<trkpt lat="46.2577560" lon="10.5716840">
	<ele>1857.80</ele>
	<time>2024-03-09T09:01:22.000Z</time>
</trkpt>
<trkpt lat="46.2577650" lon="10.5716930">
	<ele>1857.80</ele>
	<time>2024-03-09T09:01:23.000Z</time>
</trkpt>
<trkpt lat="46.2577710" lon="10.5717050">
	<ele>1857.80</ele>
	<time>2024-03-09T09:01:24.000Z</time>
</trkpt>
<trkpt lat="46.2577750" lon="10.5717150">
	<ele>1857.80</ele>
	<time>2024-03-09T09:01:25.000Z</time>
</trkpt>
<trkpt lat="46.2577820" lon="10.5717270">
	<ele>1858.00</ele>
	<time>2024-03-09T09:01:26.000Z</time>
</trkpt>
<trkpt lat="46.2577880" lon="10.5717400">
	<ele>1858.00</ele>
	<time>2024-03-09T09:01:27.000Z</time>
</trkpt>
<trkpt lat="46.2577920" lon="10.5717520">
	<ele>1858.00</ele>
	<time>2024-03-09T09:01:28.000Z</time>
</trkpt>
<trkpt lat="46.2578000" lon="10.5717640">
	<ele>1858.00</ele>
	<time>2024-03-09T09:01:29.000Z</time>
</trkpt>
<trkpt lat="46.2578070" lon="10.5717650">
	<ele>1858.20</ele>
	<time>2024-03-09T09:01:30.000Z</time>
</trkpt>
<trkpt lat="46.2578140" lon="10.5717770">
	<ele>1858.20</ele>
	<time>2024-03-09T09:01:31.000Z</time>
</trkpt>
<trkpt lat="46.2578180" lon="10.5717850">
	<ele>1858.20</ele>
	<time>2024-03-09T09:01:32.000Z</time>
</trkpt>
<trkpt lat="46.2578180" lon="10.5717980">
	<ele>1858.40</ele>
	<time>2024-03-09T09:01:33.000Z</time>
</trkpt>
<trkpt lat="46.2578190" lon="10.5718090">
	<ele>1858.40</ele>
	<time>2024-03-09T09:01:34.000Z</time>
</trkpt>
<trkpt lat="46.2578170" lon="10.5718190">
	<ele>1858.40</ele>
	<time>2024-03-09T09:01:35.000Z</time>
</trkpt>
<trkpt lat="46.2578170" lon="10.5718290">
	<ele>1858.40</ele>
	<time>2024-03-09T09:01:36.000Z</time>
</trkpt>
<trkpt lat="46.2578190" lon="10.5718420">
	<ele>1858.40</ele>
	<time>2024-03-09T09:01:37.000Z</time>
</trkpt>
<trkpt lat="46.2578200" lon="10.5718540">
	<ele>1858.40</ele>
	<time>2024-03-09T09:01:38.000Z</time>
</trkpt>
<trkpt lat="46.2578240" lon="10.5718620">
	<ele>1858.60</ele>
	<time>2024-03-09T09:01:39.000Z</time>
</trkpt>
<trkpt lat="46.2578290" lon="10.5718740">
	<ele>1858.60</ele>
	<time>2024-03-09T09:01:40.000Z</time>
</trkpt>
<trkpt lat="46.2578340" lon="10.5718830">
	<ele>1858.60</ele>
	<time>2024-03-09T09:01:41.000Z</time>
</trkpt>
<trkpt lat="46.2578400" lon="10.5718950">
	<ele>1858.60</ele>
	<time>2024-03-09T09:01:42.000Z</time>
</trkpt>
<trkpt lat="46.2578490" lon="10.5719090">
	<ele>1858.80</ele>
	<time>2024-03-09T09:01:43.000Z</time>
</trkpt>
<trkpt lat="46.2578580" lon="10.5719200">
	<ele>1858.80</ele>
	<time>2024-03-09T09:01:44.000Z</time>
</trkpt>
<trkpt lat="46.2578680" lon="10.5719300">
	<ele>1858.80</ele>
	<time>2024-03-09T09:01:45.000Z</time>
</trkpt>
<trkpt lat="46.2578760" lon="10.5719400">
	<ele>1858.80</ele>
	<time>2024-03-09T09:01:46.000Z</time>
</trkpt>
<trkpt lat="46.2578810" lon="10.5719510">
	<ele>1858.80</ele>
	<time>2024-03-09T09:01:47.000Z</time>
</trkpt>
<trkpt lat="46.2578840" lon="10.5719640">
	<ele>1858.80</ele>
	<time>2024-03-09T09:01:48.000Z</time>
</trkpt>
<trkpt lat="46.2578880" lon="10.5719720">
	<ele>1859.00</ele>
	<time>2024-03-09T09:01:49.000Z</time>
</trkpt>
<trkpt lat="46.2578860" lon="10.5719830">
	<ele>1859.00</ele>
	<time>2024-03-09T09:01:50.000Z</time>
</trkpt>
<trkpt lat="46.2578840" lon="10.5719920">
	<ele>1859.20</ele>
	<time>2024-03-09T09:01:51.000Z</time>
</trkpt>
<trkpt lat="46.2578840" lon="10.5720010">
	<ele>1859.20</ele>
	<time>2024-03-09T09:01:52.000Z</time>
</trkpt>
<trkpt lat="46.2578840" lon="10.5720130">
	<ele>1859.20</ele>
	<time>2024-03-09T09:01:53.000Z</time>
</trkpt>
<trkpt lat="46.2578870" lon="10.5720240">
	<ele>1859.20</ele>
	<time>2024-03-09T09:01:54.000Z</time>
</trkpt>
<trkpt lat="46.2578900" lon="10.5720310">
	<ele>1859.40</ele>
	<time>2024-03-09T09:01:55.000Z</time>
</trkpt>
<trkpt lat="46.2578920" lon="10.5720430">
	<ele>1859.60</ele>
	<time>2024-03-09T09:01:56.000Z</time>
</trkpt>
<trkpt lat="46.2578900" lon="10.5720530">
	<ele>1859.60</ele>
	<time>2024-03-09T09:01:57.000Z</time>
</trkpt>
<trkpt lat="46.2578940" lon="10.5720630">
	<ele>1859.80</ele>
	<time>2024-03-09T09:01:58.000Z</time>
</trkpt>
<trkpt lat="46.2578970" lon="10.5720730">
	<ele>1860.00</ele>
	<time>2024-03-09T09:01:59.000Z</time>
</trkpt>
<trkpt lat="46.2579020" lon="10.5720840">
	<ele>1860.20</ele>
	<time>2024-03-09T09:02:00.000Z</time>
</trkpt>
<trkpt lat="46.2579070" lon="10.5720950">
	<ele>1860.40</ele>
	<time>2024-03-09T09:02:01.000Z</time>
</trkpt>
<trkpt lat="46.2579100" lon="10.5721050">
	<ele>1860.40</ele>
	<time>2024-03-09T09:02:02.000Z</time>
</trkpt>
<trkpt lat="46.2579130" lon="10.5721200">
	<ele>1860.60</ele>
	<time>2024-03-09T09:02:03.000Z</time>
</trkpt>
<trkpt lat="46.2579160" lon="10.5721250">
	<ele>1860.60</ele>
	<time>2024-03-09T09:02:04.000Z</time>
</trkpt>
<trkpt lat="46.2579190" lon="10.5721340">
	<ele>1860.60</ele>
	<time>2024-03-09T09:02:05.000Z</time>
</trkpt>
<trkpt lat="46.2579190" lon="10.5721450">
	<ele>1860.80</ele>
	<time>2024-03-09T09:02:06.000Z</time>
</trkpt>
<trkpt lat="46.2579210" lon="10.5721540">
	<ele>1860.80</ele>
	<time>2024-03-09T09:02:07.000Z</time>
</trkpt>
<trkpt lat="46.2579250" lon="10.5721630">
	<ele>1861.00</ele>
	<time>2024-03-09T09:02:08.000Z</time>
</trkpt>
<trkpt lat="46.2579270" lon="10.5721750">
	<ele>1861.20</ele>
	<time>2024-03-09T09:02:09.000Z</time>
</trkpt>
<trkpt lat="46.2579270" lon="10.5721870">
	<ele>1861.20</ele>
	<time>2024-03-09T09:02:10.000Z</time>
</trkpt>
<trkpt lat="46.2579290" lon="10.5721990">
	<ele>1861.20</ele>
	<time>2024-03-09T09:02:11.000Z</time>
</trkpt>
<trkpt lat="46.2579260" lon="10.5722110">
	<ele>1861.40</ele>
	<time>2024-03-09T09:02:12.000Z</time>
</trkpt>
<trkpt lat="46.2579260" lon="10.5722190">
	<ele>1861.40</ele>
	<time>2024-03-09T09:02:13.000Z</time>
</trkpt>
<trkpt lat="46.2579260" lon="10.5722290">
	<ele>1861.60</ele>
	<time>2024-03-09T09:02:14.000Z</time>
</trkpt>
<trkpt lat="46.2579240" lon="10.5722410">
	<ele>1861.60</ele>
	<time>2024-03-09T09:02:15.000Z</time>
</trkpt>
<trkpt lat="46.2579210" lon="10.5722500">
	<ele>1861.80</ele>
	<time>2024-03-09T09:02:16.000Z</time>
</trkpt>
<trkpt lat="46.2579240" lon="10.5722580">
	<ele>1861.80</ele>
	<time>2024-03-09T09:02:17.000Z</time>
</trkpt>
<trkpt lat="46.2579250" lon="10.5722690">
	<ele>1861.80</ele>
	<time>2024-03-09T09:02:18.000Z</time>
</trkpt>
<trkpt lat="46.2579280" lon="10.5722800">
	<ele>1861.80</ele>
	<time>2024-03-09T09:02:19.000Z</time>
</trkpt>
<trkpt lat="46.2579300" lon="10.5722900">
	<ele>1862.00</ele>
	<time>2024-03-09T09:02:20.000Z</time>
</trkpt>
<trkpt lat="46.2579320" lon="10.5722970">
	<ele>1862.00</ele>
	<time>2024-03-09T09:02:21.000Z</time>
</trkpt>
<trkpt lat="46.2579330" lon="10.5723080">
	<ele>1862.00</ele>
	<time>2024-03-09T09:02:22.000Z</time>
</trkpt>
<trkpt lat="46.2579350" lon="10.5723200">
	<ele>1862.20</ele>
	<time>2024-03-09T09:02:23.000Z</time>
</trkpt>
<trkpt lat="46.2579360" lon="10.5723300">
	<ele>1862.40</ele>
	<time>2024-03-09T09:02:24.000Z</time>
</trkpt>
<trkpt lat="46.2579360" lon="10.5723410">
	<ele>1862.60</ele>
	<time>2024-03-09T09:02:25.000Z</time>
</trkpt>
<trkpt lat="46.2579360" lon="10.5723510">
	<ele>1862.60</ele>
	<time>2024-03-09T09:02:26.000Z</time>
</trkpt>
<trkpt lat="46.2579390" lon="10.5723600">
	<ele>1862.80</ele>
	<time>2024-03-09T09:02:27.000Z</time>
</trkpt>
<trkpt lat="46.2579390" lon="10.5723680">
	<ele>1862.80</ele>
	<time>2024-03-09T09:02:28.000Z</time>
</trkpt>
<trkpt lat="46.2579390" lon="10.5723750">
	<ele>1863.00</ele>
	<time>2024-03-09T09:02:29.000Z</time>
</trkpt>
<trkpt lat="46.2579410" lon="10.5723840">
	<ele>1863.00</ele>
	<time>2024-03-09T09:02:30.000Z</time>
</trkpt>
<trkpt lat="46.2579470" lon="10.5723960">
	<ele>1863.20</ele>
	<time>2024-03-09T09:02:31.000Z</time>
</trkpt>
<trkpt lat="46.2579520" lon="10.5724070">
	<ele>1863.40</ele>
	<time>2024-03-09T09:02:32.000Z</time>
</trkpt>
<trkpt lat="46.2579540" lon="10.5724170">
	<ele>1863.60</ele>
	<time>2024-03-09T09:02:33.000Z</time>
</trkpt>
<trkpt lat="46.2579560" lon="10.5724260">
	<ele>1863.80</ele>
	<time>2024-03-09T09:02:34.000Z</time>
</trkpt>
<trkpt lat="46.2579570" lon="10.5724360">
	<ele>1864.00</ele>
	<time>2024-03-09T09:02:35.000Z</time>
</trkpt>
<trkpt lat="46.2579600" lon="10.5724460">
	<ele>1864.00</ele>
	<time>2024-03-09T09:02:36.000Z</time>
</trkpt>
<trkpt lat="46.2579630" lon="10.5724520">
	<ele>1864.20</ele>
	<time>2024-03-09T09:02:37.000Z</time>
</trkpt>
<trkpt lat="46.2579600" lon="10.5724650">
	<ele>1864.40</ele>
	<time>2024-03-09T09:02:38.000Z</time>
</trkpt>
<trkpt lat="46.2579600" lon="10.5724700">
	<ele>1864.40</ele>
	<time>2024-03-09T09:02:39.000Z</time>
</trkpt>
<trkpt lat="46.2579600" lon="10.5724800">
	<ele>1864.60</ele>
	<time>2024-03-09T09:02:40.000Z</time>
</trkpt>
<trkpt lat="46.2579580" lon="10.5724890">
	<ele>1864.80</ele>
	<time>2024-03-09T09:02:41.000Z</time>
</trkpt>
<trkpt lat="46.2579600" lon="10.5725020">
	<ele>1864.80</ele>
	<time>2024-03-09T09:02:42.000Z</time>
</trkpt>
<trkpt lat="46.2579590" lon="10.5725110">
	<ele>1865.00</ele>
	<time>2024-03-09T09:02:43.000Z</time>
</trkpt>
<trkpt lat="46.2579630" lon="10.5725190">
	<ele>1865.00</ele>
	<time>2024-03-09T09:02:44.000Z</time>
</trkpt>
<trkpt lat="46.2579640" lon="10.5725260">
	<ele>1865.20</ele>
	<time>2024-03-09T09:02:45.000Z</time>
</trkpt>
<trkpt lat="46.2579660" lon="10.5725300">
	<ele>1865.40</ele>
	<time>2024-03-09T09:02:46.000Z</time>
</trkpt>
<trkpt lat="46.2579680" lon="10.5725320">
	<ele>1865.60</ele>
	<time>2024-03-09T09:02:47.000Z</time>
</trkpt>
<trkpt lat="46.2579700" lon="10.5725340">
	<ele>1865.80</ele>
	<time>2024-03-09T09:02:48.000Z</time>
</trkpt>
<trkpt lat="46.2579710" lon="10.5725360">
	<ele>1865.80</ele>
	<time>2024-03-09T09:02:49.000Z</time>
</trkpt>
<trkpt lat="46.2579730" lon="10.5725340">
	<ele>1866.00</ele>
	<time>2024-03-09T09:02:50.000Z</time>
</trkpt>
<trkpt lat="46.2579750" lon="10.5725340">
	<ele>1866.00</ele>
	<time>2024-03-09T09:02:51.000Z</time>
</trkpt>
<trkpt lat="46.2579760" lon="10.5725350">
	<ele>1866.00</ele>
	<time>2024-03-09T09:02:52.000Z</time>
</trkpt>
<trkpt lat="46.2579780" lon="10.5725350">
	<ele>1866.00</ele>
	<time>2024-03-09T09:02:53.000Z</time>
</trkpt>
<trkpt lat="46.2579780" lon="10.5725370">
	<ele>1866.00</ele>
	<time>2024-03-09T09:02:54.000Z</time>
</trkpt>
<trkpt lat="46.2579790" lon="10.5725380">
	<ele>1865.80</ele>
	<time>2024-03-09T09:02:55.000Z</time>
</trkpt>
<trkpt lat="46.2579790" lon="10.5725410">
	<ele>1865.80</ele>
	<time>2024-03-09T09:02:56.000Z</time>
</trkpt>
<trkpt lat="46.2579790" lon="10.5725430">
	<ele>1865.80</ele>
	<time>2024-03-09T09:02:57.000Z</time>
</trkpt>
<trkpt lat="46.2579800" lon="10.5725480">
	<ele>1865.80</ele>
	<time>2024-03-09T09:02:58.000Z</time>
</trkpt>
<trkpt lat="46.2579800" lon="10.5725530">
	<ele>1865.80</ele>
	<time>2024-03-09T09:02:59.000Z</time>
</trkpt>
<trkpt lat="46.2579800" lon="10.5725580">
	<ele>1865.80</ele>
	<time>2024-03-09T09:03:00.000Z</time>
</trkpt>
<trkpt lat="46.2579760" lon="10.5725660">
	<ele>1865.60</ele>
	<time>2024-03-09T09:03:01.000Z</time>
</trkpt>
<trkpt lat="46.2579730" lon="10.5725720">
	<ele>1865.60</ele>
	<time>2024-03-09T09:03:02.000Z</time>
</trkpt>
<trkpt lat="46.2579720" lon="10.5725800">
	<ele>1865.60</ele>
	<time>2024-03-09T09:03:03.000Z</time>
</trkpt>
<trkpt lat="46.2579690" lon="10.5725910">
	<ele>1865.60</ele>
	<time>2024-03-09T09:03:04.000Z</time>
</trkpt>
<trkpt lat="46.2579660" lon="10.5726030">
	<ele>1865.60</ele>
	<time>2024-03-09T09:03:05.000Z</time>
</trkpt>
<trkpt lat="46.2579640" lon="10.5726110">
	<ele>1865.80</ele>
	<time>2024-03-09T09:03:06.000Z</time>
</trkpt>
<trkpt lat="46.2579630" lon="10.5726270">
	<ele>1865.80</ele>
	<time>2024-03-09T09:03:07.000Z</time>
</trkpt>
<trkpt lat="46.2579640" lon="10.5726350">
	<ele>1866.00</ele>
	<time>2024-03-09T09:03:08.000Z</time>
</trkpt>
<trkpt lat="46.2579630" lon="10.5726440">
	<ele>1866.00</ele>
	<time>2024-03-09T09:03:09.000Z</time>
</trkpt>
<trkpt lat="46.2579610" lon="10.5726540">
	<ele>1866.00</ele>
	<time>2024-03-09T09:03:10.000Z</time>
</trkpt>
<trkpt lat="46.2579600" lon="10.5726630">
	<ele>1866.20</ele>
	<time>2024-03-09T09:03:11.000Z</time>
</trkpt>
<trkpt lat="46.2579610" lon="10.5726720">
	<ele>1866.20</ele>
	<time>2024-03-09T09:03:12.000Z</time>
</trkpt>
<trkpt lat="46.2579570" lon="10.5726790">
	<ele>1866.40</ele>
	<time>2024-03-09T09:03:13.000Z</time>
</trkpt>
<trkpt lat="46.2579540" lon="10.5726850">
	<ele>1866.60</ele>
	<time>2024-03-09T09:03:14.000Z</time>
</trkpt>
<trkpt lat="46.2579490" lon="10.5726930">
	<ele>1866.60</ele>
	<time>2024-03-09T09:03:15.000Z</time>
</trkpt>
<trkpt lat="46.2579440" lon="10.5727000">
	<ele>1866.80</ele>
	<time>2024-03-09T09:03:16.000Z</time>
</trkpt>
<trkpt lat="46.2579400" lon="10.5727040">
	<ele>1867.00</ele>
	<time>2024-03-09T09:03:17.000Z</time>
</trkpt>
<trkpt lat="46.2579400" lon="10.5727110">
	<ele>1867.00</ele>
	<time>2024-03-09T09:03:18.000Z</time>
</trkpt>
<trkpt lat="46.2579390" lon="10.5727170">
	<ele>1867.00</ele>
	<time>2024-03-09T09:03:19.000Z</time>
</trkpt>
<trkpt lat="46.2579360" lon="10.5727260">
	<ele>1867.00</ele>
	<time>2024-03-09T09:03:20.000Z</time>
</trkpt>
<trkpt lat="46.2579320" lon="10.5727340">
	<ele>1867.00</ele>
	<time>2024-03-09T09:03:21.000Z</time>
</trkpt>
<trkpt lat="46.2579270" lon="10.5727470">
	<ele>1867.20</ele>
	<time>2024-03-09T09:03:22.000Z</time>
</trkpt>
<trkpt lat="46.2579220" lon="10.5727580">
	<ele>1867.20</ele>
	<time>2024-03-09T09:03:23.000Z</time>
</trkpt>
<trkpt lat="46.2579220" lon="10.5727720">
	<ele>1867.40</ele>
	<time>2024-03-09T09:03:24.000Z</time>
</trkpt>
<trkpt lat="46.2579240" lon="10.5727870">
	<ele>1867.40</ele>
	<time>2024-03-09T09:03:25.000Z</time>
</trkpt>
<trkpt lat="46.2579280" lon="10.5727980">
	<ele>1867.40</ele>
	<time>2024-03-09T09:03:26.000Z</time>
</trkpt>
<trkpt lat="46.2579310" lon="10.5728100">
	<ele>1867.40</ele>
	<time>2024-03-09T09:03:27.000Z</time>
</trkpt>
<trkpt lat="46.2579320" lon="10.5728230">
	<ele>1867.40</ele>
	<time>2024-03-09T09:03:28.000Z</time>
</trkpt>
<trkpt lat="46.2579320" lon="10.5728350">
	<ele>1867.60</ele>
	<time>2024-03-09T09:03:29.000Z</time>
</trkpt>
<trkpt lat="46.2579330" lon="10.5728460">
	<ele>1867.60</ele>
	<time>2024-03-09T09:03:30.000Z</time>
</trkpt>
<trkpt lat="46.2579310" lon="10.5728570">
	<ele>1867.60</ele>
	<time>2024-03-09T09:03:31.000Z</time>
</trkpt>
<trkpt lat="46.2579290" lon="10.5728690">
	<ele>1867.80</ele>
	<time>2024-03-09T09:03:32.000Z</time>
</trkpt>
<trkpt lat="46.2579320" lon="10.5728790">
	<ele>1867.80</ele>
	<time>2024-03-09T09:03:33.000Z</time>
</trkpt>
<trkpt lat="46.2579280" lon="10.5728870">
	<ele>1867.80</ele>
	<time>2024-03-09T09:03:34.000Z</time>
</trkpt>
<trkpt lat="46.2579270" lon="10.5728970">
	<ele>1868.00</ele>
	<time>2024-03-09T09:03:35.000Z</time>
</trkpt>
<trkpt lat="46.2579240" lon="10.5729050">
	<ele>1868.00</ele>
	<time>2024-03-09T09:03:36.000Z</time>
</trkpt>
<trkpt lat="46.2579210" lon="10.5729140">
	<ele>1868.20</ele>
	<time>2024-03-09T09:03:37.000Z</time>
</trkpt>
<trkpt lat="46.2579200" lon="10.5729270">
	<ele>1868.20</ele>
	<time>2024-03-09T09:03:38.000Z</time>
</trkpt>
<trkpt lat="46.2579230" lon="10.5729350">
	<ele>1868.40</ele>
	<time>2024-03-09T09:03:39.000Z</time>
</trkpt>
<trkpt lat="46.2579280" lon="10.5729460">
	<ele>1868.40</ele>
	<time>2024-03-09T09:03:40.000Z</time>
</trkpt>
<trkpt lat="46.2579330" lon="10.5729580">
	<ele>1868.40</ele>
	<time>2024-03-09T09:03:41.000Z</time>
</trkpt>
<trkpt lat="46.2579330" lon="10.5729700">
	<ele>1868.40</ele>
	<time>2024-03-09T09:03:42.000Z</time>
</trkpt>
<trkpt lat="46.2579330" lon="10.5729800">
	<ele>1868.60</ele>
	<time>2024-03-09T09:03:43.000Z</time>
</trkpt>
<trkpt lat="46.2579340" lon="10.5729890">
	<ele>1868.60</ele>
	<time>2024-03-09T09:03:44.000Z</time>
</trkpt>
<trkpt lat="46.2579360" lon="10.5729990">
	<ele>1868.60</ele>
	<time>2024-03-09T09:03:45.000Z</time>
</trkpt>
<trkpt lat="46.2579380" lon="10.5730110">
	<ele>1868.80</ele>
	<time>2024-03-09T09:03:46.000Z</time>
</trkpt>
<trkpt lat="46.2579380" lon="10.5730230">
	<ele>1869.00</ele>
	<time>2024-03-09T09:03:47.000Z</time>
</trkpt>
<trkpt lat="46.2579400" lon="10.5730360">
	<ele>1869.00</ele>
	<time>2024-03-09T09:03:48.000Z</time>
</trkpt>
<trkpt lat="46.2579350" lon="10.5730430">
	<ele>1869.20</ele>
	<time>2024-03-09T09:03:49.000Z</time>
</trkpt>
<trkpt lat="46.2579350" lon="10.5730480">
	<ele>1869.20</ele>
	<time>2024-03-09T09:03:50.000Z</time>
</trkpt>
<trkpt lat="46.2579410" lon="10.5730500">
	<ele>1869.40</ele>
	<time>2024-03-09T09:03:51.000Z</time>
</trkpt>
<trkpt lat="46.2579450" lon="10.5730590">
	<ele>1869.40</ele>
	<time>2024-03-09T09:03:52.000Z</time>
</trkpt>
<trkpt lat="46.2579500" lon="10.5730710">
	<ele>1869.40</ele>
	<time>2024-03-09T09:03:53.000Z</time>
</trkpt>
<trkpt lat="46.2579530" lon="10.5730790">
	<ele>1869.40</ele>
	<time>2024-03-09T09:03:54.000Z</time>
</trkpt>
<trkpt lat="46.2579500" lon="10.5730890">
	<ele>1869.60</ele>
	<time>2024-03-09T09:03:55.000Z</time>
</trkpt>
<trkpt lat="46.2579490" lon="10.5731010">
	<ele>1869.60</ele>
	<time>2024-03-09T09:03:56.000Z</time>
</trkpt>
<trkpt lat="46.2579510" lon="10.5731070">
	<ele>1869.60</ele>
	<time>2024-03-09T09:03:57.000Z</time>
</trkpt>
<trkpt lat="46.2579520" lon="10.5731120">
	<ele>1869.80</ele>
	<time>2024-03-09T09:03:58.000Z</time>
</trkpt>
<trkpt lat="46.2579520" lon="10.5731200">
	<ele>1870.00</ele>
	<time>2024-03-09T09:03:59.000Z</time>
</trkpt>
<trkpt lat="46.2579540" lon="10.5731310">
	<ele>1870.00</ele>
	<time>2024-03-09T09:04:00.000Z</time>
</trkpt>
<trkpt lat="46.2579550" lon="10.5731390">
	<ele>1870.20</ele>
	<time>2024-03-09T09:04:01.000Z</time>
</trkpt>
<trkpt lat="46.2579510" lon="10.5731510">
	<ele>1870.20</ele>
	<time>2024-03-09T09:04:02.000Z</time>
</trkpt>
<trkpt lat="46.2579520" lon="10.5731570">
	<ele>1870.40</ele>
	<time>2024-03-09T09:04:03.000Z</time>
</trkpt>
<trkpt lat="46.2579560" lon="10.5731660">
	<ele>1870.40</ele>
	<time>2024-03-09T09:04:04.000Z</time>
</trkpt>
<trkpt lat="46.2579560" lon="10.5731740">
	<ele>1870.40</ele>
	<time>2024-03-09T09:04:05.000Z</time>
</trkpt>
<trkpt lat="46.2579570" lon="10.5731780">
	<ele>1870.60</ele>
	<time>2024-03-09T09:04:06.000Z</time>
</trkpt>
<trkpt lat="46.2579590" lon="10.5731860">
	<ele>1870.80</ele>
	<time>2024-03-09T09:04:07.000Z</time>
</trkpt>
<trkpt lat="46.2579640" lon="10.5731920">
	<ele>1870.80</ele>
	<time>2024-03-09T09:04:08.000Z</time>
</trkpt>
<trkpt lat="46.2579650" lon="10.5731990">
	<ele>1871.00</ele>
	<time>2024-03-09T09:04:09.000Z</time>
</trkpt>
<trkpt lat="46.2579670" lon="10.5732050">
	<ele>1871.20</ele>
	<time>2024-03-09T09:04:10.000Z</time>
</trkpt>
<trkpt lat="46.2579670" lon="10.5732120">
	<ele>1871.40</ele>
	<time>2024-03-09T09:04:11.000Z</time>
</trkpt>
<trkpt lat="46.2579670" lon="10.5732210">
	<ele>1871.40</ele>
	<time>2024-03-09T09:04:12.000Z</time>
</trkpt>
<trkpt lat="46.2579690" lon="10.5732280">
	<ele>1871.60</ele>
	<time>2024-03-09T09:04:13.000Z</time>
</trkpt>
<trkpt lat="46.2579720" lon="10.5732370">
	<ele>1871.80</ele>
	<time>2024-03-09T09:04:14.000Z</time>
</trkpt>
<trkpt lat="46.2579730" lon="10.5732440">
	<ele>1872.00</ele>
	<time>2024-03-09T09:04:15.000Z</time>
</trkpt>
<trkpt lat="46.2579720" lon="10.5732540">
	<ele>1872.00</ele>
	<time>2024-03-09T09:04:16.000Z</time>
</trkpt>
<trkpt lat="46.2579730" lon="10.5732610">
	<ele>1872.20</ele>
	<time>2024-03-09T09:04:17.000Z</time>
</trkpt>
<trkpt lat="46.2579740" lon="10.5732640">
	<ele>1872.40</ele>
	<time>2024-03-09T09:04:18.000Z</time>
</trkpt>
<trkpt lat="46.2579780" lon="10.5732700">
	<ele>1872.60</ele>
	<time>2024-03-09T09:04:19.000Z</time>
</trkpt>
<trkpt lat="46.2579810" lon="10.5732740">
	<ele>1872.80</ele>
	<time>2024-03-09T09:04:20.000Z</time>
</trkpt>
<trkpt lat="46.2579810" lon="10.5732820">
	<ele>1872.80</ele>
	<time>2024-03-09T09:04:21.000Z</time>
</trkpt>
<trkpt lat="46.2579820" lon="10.5732900">
	<ele>1872.80</ele>
	<time>2024-03-09T09:04:22.000Z</time>
</trkpt>
<trkpt lat="46.2579850" lon="10.5732970">
	<ele>1873.00</ele>
	<time>2024-03-09T09:04:23.000Z</time>
</trkpt>
<trkpt lat="46.2579870" lon="10.5733030">
	<ele>1873.20</ele>
	<time>2024-03-09T09:04:24.000Z</time>
</trkpt>
<trkpt lat="46.2579850" lon="10.5733070">
	<ele>1873.60</ele>
	<time>2024-03-09T09:04:25.000Z</time>
</trkpt>
<trkpt lat="46.2579870" lon="10.5733160">
	<ele>1873.60</ele>
	<time>2024-03-09T09:04:26.000Z</time>
</trkpt>
<trkpt lat="46.2579880" lon="10.5733200">
	<ele>1873.80</ele>
	<time>2024-03-09T09:04:27.000Z</time>
</trkpt>
<trkpt lat="46.2579890" lon="10.5733290">
	<ele>1873.80</ele>
	<time>2024-03-09T09:04:28.000Z</time>
</trkpt>
<trkpt lat="46.2579880" lon="10.5733340">
	<ele>1874.00</ele>
	<time>2024-03-09T09:04:29.000Z</time>
</trkpt>
<trkpt lat="46.2579890" lon="10.5733390">
	<ele>1874.20</ele>
	<time>2024-03-09T09:04:30.000Z</time>
</trkpt>
<trkpt lat="46.2579900" lon="10.5733450">
	<ele>1874.40</ele>
	<time>2024-03-09T09:04:31.000Z</time>
</trkpt>
<trkpt lat="46.2579920" lon="10.5733520">
	<ele>1874.60</ele>
	<time>2024-03-09T09:04:32.000Z</time>
</trkpt>
<trkpt lat="46.2579960" lon="10.5733550">
	<ele>1874.60</ele>
	<time>2024-03-09T09:04:33.000Z</time>
</trkpt>
<trkpt lat="46.2579950" lon="10.5733610">
	<ele>1874.80</ele>
	<time>2024-03-09T09:04:34.000Z</time>
</trkpt>
<trkpt lat="46.2580010" lon="10.5733690">
	<ele>1875.00</ele>
	<time>2024-03-09T09:04:35.000Z</time>
</trkpt>
<trkpt lat="46.2580050" lon="10.5733780">
	<ele>1875.00</ele>
	<time>2024-03-09T09:04:36.000Z</time>
</trkpt>
<trkpt lat="46.2580100" lon="10.5733850">
	<ele>1875.20</ele>
	<time>2024-03-09T09:04:37.000Z</time>
</trkpt>
<trkpt lat="46.2580120" lon="10.5733980">
	<ele>1875.40</ele>
	<time>2024-03-09T09:04:38.000Z</time>
</trkpt>
<trkpt lat="46.2580120" lon="10.5734080">
	<ele>1875.40</ele>
	<time>2024-03-09T09:04:39.000Z</time>
</trkpt>
<trkpt lat="46.2580140" lon="10.5734220">
	<ele>1875.60</ele>
	<time>2024-03-09T09:04:40.000Z</time>
</trkpt>
<trkpt lat="46.2580180" lon="10.5734350">
	<ele>1875.80</ele>
	<time>2024-03-09T09:04:41.000Z</time>
</trkpt>
<trkpt lat="46.2580250" lon="10.5734420">
	<ele>1875.80</ele>
	<time>2024-03-09T09:04:42.000Z</time>
</trkpt>
<trkpt lat="46.2580310" lon="10.5734440">
	<ele>1876.00</ele>
	<time>2024-03-09T09:04:43.000Z</time>
</trkpt>
<trkpt lat="46.2580290" lon="10.5734540">
	<ele>1876.20</ele>
	<time>2024-03-09T09:04:44.000Z</time>
</trkpt>
<trkpt lat="46.2580260" lon="10.5734690">
	<ele>1876.40</ele>
	<time>2024-03-09T09:04:45.000Z</time>
</trkpt>
<trkpt lat="46.2580260" lon="10.5734700">
	<ele>1876.40</ele>
	<time>2024-03-09T09:04:46.000Z</time>
</trkpt>
<trkpt lat="46.2580290" lon="10.5734780">
	<ele>1876.60</ele>
	<time>2024-03-09T09:04:47.000Z</time>
</trkpt>
<trkpt lat="46.2580340" lon="10.5734870">
	<ele>1876.60</ele>
	<time>2024-03-09T09:04:48.000Z</time>
</trkpt>
<trkpt lat="46.2580390" lon="10.5734950">
	<ele>1876.80</ele>
	<time>2024-03-09T09:04:49.000Z</time>
</trkpt>
<trkpt lat="46.2580460" lon="10.5735060">
	<ele>1877.00</ele>
	<time>2024-03-09T09:04:50.000Z</time>
</trkpt>
<trkpt lat="46.2580420" lon="10.5735170">
	<ele>1877.00</ele>
	<time>2024-03-09T09:04:51.000Z</time>
</trkpt>
<trkpt lat="46.2580380" lon="10.5735240">
	<ele>1877.20</ele>
	<time>2024-03-09T09:04:52.000Z</time>
</trkpt>
<trkpt lat="46.2580380" lon="10.5735330">
	<ele>1877.40</ele>
	<time>2024-03-09T09:04:53.000Z</time>
</trkpt>
<trkpt lat="46.2580360" lon="10.5735440">
	<ele>1877.60</ele>
	<time>2024-03-09T09:04:54.000Z</time>
</trkpt>
<trkpt lat="46.2580380" lon="10.5735550">
	<ele>1877.60</ele>
	<time>2024-03-09T09:04:55.000Z</time>
</trkpt>
<trkpt lat="46.2580390" lon="10.5735650">
	<ele>1877.60</ele>
	<time>2024-03-09T09:04:56.000Z</time>
</trkpt>
<trkpt lat="46.2580380" lon="10.5735690">
	<ele>1877.80</ele>
	<time>2024-03-09T09:04:57.000Z</time>
</trkpt>
<trkpt lat="46.2580340" lon="10.5735810">
	<ele>1878.00</ele>
	<time>2024-03-09T09:04:58.000Z</time>
</trkpt>
<trkpt lat="46.2580350" lon="10.5735880">
	<ele>1878.20</ele>
	<time>2024-03-09T09:04:59.000Z</time>
</trkpt>
<trkpt lat="46.2580400" lon="10.5735920">
	<ele>1878.40</ele>
	<time>2024-03-09T09:05:00.000Z</time>
</trkpt>
<trkpt lat="46.2580430" lon="10.5735990">
	<ele>1878.60</ele>
	<time>2024-03-09T09:05:01.000Z</time>
</trkpt>
<trkpt lat="46.2580420" lon="10.5736110">
	<ele>1878.80</ele>
	<time>2024-03-09T09:05:02.000Z</time>
</trkpt>
<trkpt lat="46.2580440" lon="10.5736190">
	<ele>1878.80</ele>
	<time>2024-03-09T09:05:03.000Z</time>
</trkpt>
<trkpt lat="46.2580440" lon="10.5736230">
	<ele>1879.00</ele>
	<time>2024-03-09T09:05:04.000Z</time>
</trkpt>
<trkpt lat="46.2580480" lon="10.5736310">
	<ele>1879.00</ele>
	<time>2024-03-09T09:05:05.000Z</time>
</trkpt>
<trkpt lat="46.2580470" lon="10.5736410">
	<ele>1879.20</ele>
	<time>2024-03-09T09:05:06.000Z</time>
</trkpt>
<trkpt lat="46.2580420" lon="10.5736550">
	<ele>1879.40</ele>
	<time>2024-03-09T09:05:07.000Z</time>
</trkpt>
<trkpt lat="46.2580410" lon="10.5736640">
	<ele>1879.40</ele>
	<time>2024-03-09T09:05:08.000Z</time>
</trkpt>
<trkpt lat="46.2580410" lon="10.5736730">
	<ele>1879.60</ele>
	<time>2024-03-09T09:05:09.000Z</time>
</trkpt>
<trkpt lat="46.2580400" lon="10.5736790">
	<ele>1879.80</ele>
	<time>2024-03-09T09:05:10.000Z</time>
</trkpt>
<trkpt lat="46.2580400" lon="10.5736870">
	<ele>1879.80</ele>
	<time>2024-03-09T09:05:11.000Z</time>
</trkpt>
<trkpt lat="46.2580390" lon="10.5736970">
	<ele>1880.00</ele>
	<time>2024-03-09T09:05:12.000Z</time>
</trkpt>
<trkpt lat="46.2580380" lon="10.5737070">
	<ele>1880.00</ele>
	<time>2024-03-09T09:05:13.000Z</time>
</trkpt>
<trkpt lat="46.2580400" lon="10.5737160">
	<ele>1880.20</ele>
	<time>2024-03-09T09:05:14.000Z</time>
</trkpt>
<trkpt lat="46.2580420" lon="10.5737260">
	<ele>1880.40</ele>
	<time>2024-03-09T09:05:15.000Z</time>
</trkpt>
<trkpt lat="46.2580430" lon="10.5737380">
	<ele>1880.40</ele>
	<time>2024-03-09T09:05:16.000Z</time>
</trkpt>
<trkpt lat="46.2580420" lon="10.5737480">
	<ele>1880.60</ele>
	<time>2024-03-09T09:05:17.000Z</time>
</trkpt>
<trkpt lat="46.2580440" lon="10.5737620">
	<ele>1880.60</ele>
	<time>2024-03-09T09:05:18.000Z</time>
</trkpt>
<trkpt lat="46.2580480" lon="10.5737740">
	<ele>1881.00</ele>
	<time>2024-03-09T09:05:19.000Z</time>
</trkpt>
<trkpt lat="46.2580480" lon="10.5737850">
	<ele>1881.20</ele>
	<time>2024-03-09T09:05:20.000Z</time>
</trkpt>
<trkpt lat="46.2580460" lon="10.5737970">
	<ele>1881.20</ele>
	<time>2024-03-09T09:05:21.000Z</time>
</trkpt>
<trkpt lat="46.2580540" lon="10.5738070">
	<ele>1881.40</ele>
	<time>2024-03-09T09:05:22.000Z</time>
</trkpt>
<trkpt lat="46.2580580" lon="10.5738170">
	<ele>1881.40</ele>
	<time>2024-03-09T09:05:23.000Z</time>
</trkpt>
<trkpt lat="46.2580620" lon="10.5738280">
	<ele>1881.60</ele>
	<time>2024-03-09T09:05:24.000Z</time>
</trkpt>
<trkpt lat="46.2580640" lon="10.5738340">
	<ele>1881.80</ele>
	<time>2024-03-09T09:05:25.000Z</time>
</trkpt>
<trkpt lat="46.2580680" lon="10.5738470">
	<ele>1881.80</ele>
	<time>2024-03-09T09:05:26.000Z</time>
</trkpt>
<trkpt lat="46.2580740" lon="10.5738570">
	<ele>1882.20</ele>
	<time>2024-03-09T09:05:27.000Z</time>
</trkpt>
<trkpt lat="46.2580780" lon="10.5738650">
	<ele>1882.40</ele>
	<time>2024-03-09T09:05:28.000Z</time>
</trkpt>
<trkpt lat="46.2580790" lon="10.5738760">
	<ele>1882.40</ele>
	<time>2024-03-09T09:05:29.000Z</time>
</trkpt>
<trkpt lat="46.2580800" lon="10.5738800">
	<ele>1882.60</ele>
	<time>2024-03-09T09:05:30.000Z</time>
</trkpt>
<trkpt lat="46.2580800" lon="10.5738890">
	<ele>1882.60</ele>
	<time>2024-03-09T09:05:31.000Z</time>
</trkpt>
<trkpt lat="46.2580810" lon="10.5738960">
	<ele>1882.80</ele>
	<time>2024-03-09T09:05:32.000Z</time>
</trkpt>
<trkpt lat="46.2580810" lon="10.5739040">
	<ele>1883.00</ele>
	<time>2024-03-09T09:05:33.000Z</time>
</trkpt>
<trkpt lat="46.2580790" lon="10.5739120">
	<ele>1883.20</ele>
	<time>2024-03-09T09:05:34.000Z</time>
</trkpt>
<trkpt lat="46.2580840" lon="10.5739200">
	<ele>1883.20</ele>
	<time>2024-03-09T09:05:35.000Z</time>
</trkpt>
<trkpt lat="46.2580890" lon="10.5739310">
	<ele>1883.60</ele>
	<time>2024-03-09T09:05:36.000Z</time>
</trkpt>
<trkpt lat="46.2580910" lon="10.5739400">
	<ele>1883.60</ele>
	<time>2024-03-09T09:05:37.000Z</time>
</trkpt>
<trkpt lat="46.2580930" lon="10.5739480">
	<ele>1883.80</ele>
	<time>2024-03-09T09:05:38.000Z</time>
</trkpt>
<trkpt lat="46.2580940" lon="10.5739610">
	<ele>1883.80</ele>
	<time>2024-03-09T09:05:39.000Z</time>
</trkpt>
<trkpt lat="46.2580930" lon="10.5739710">
	<ele>1883.80</ele>
	<time>2024-03-09T09:05:40.000Z</time>
</trkpt>
<trkpt lat="46.2580930" lon="10.5739780">
	<ele>1884.00</ele>
	<time>2024-03-09T09:05:41.000Z</time>
</trkpt>
<trkpt lat="46.2580930" lon="10.5739840">
	<ele>1884.20</ele>
	<time>2024-03-09T09:05:42.000Z</time>
</trkpt>
<trkpt lat="46.2580980" lon="10.5739910">
	<ele>1884.20</ele>
	<time>2024-03-09T09:05:43.000Z</time>
</trkpt>
<trkpt lat="46.2581010" lon="10.5740010">
	<ele>1884.40</ele>
	<time>2024-03-09T09:05:44.000Z</time>
</trkpt>
<trkpt lat="46.2581060" lon="10.5740080">
	<ele>1884.60</ele>
	<time>2024-03-09T09:05:45.000Z</time>
</trkpt>
<trkpt lat="46.2581110" lon="10.5740170">
	<ele>1884.60</ele>
	<time>2024-03-09T09:05:46.000Z</time>
</trkpt>
<trkpt lat="46.2581150" lon="10.5740290">
	<ele>1884.80</ele>
	<time>2024-03-09T09:05:47.000Z</time>
</trkpt>
<trkpt lat="46.2581150" lon="10.5740380">
	<ele>1884.80</ele>
	<time>2024-03-09T09:05:48.000Z</time>
</trkpt>
<trkpt lat="46.2581140" lon="10.5740470">
	<ele>1885.00</ele>
	<time>2024-03-09T09:05:49.000Z</time>
</trkpt>
<trkpt lat="46.2581140" lon="10.5740540">
	<ele>1885.20</ele>
	<time>2024-03-09T09:05:50.000Z</time>
</trkpt>
<trkpt lat="46.2581140" lon="10.5740640">
	<ele>1885.20</ele>
	<time>2024-03-09T09:05:51.000Z</time>
</trkpt>
<trkpt lat="46.2581170" lon="10.5740770">
	<ele>1885.40</ele>
	<time>2024-03-09T09:05:52.000Z</time>
</trkpt>
<trkpt lat="46.2581200" lon="10.5740860">
	<ele>1885.40</ele>
	<time>2024-03-09T09:05:53.000Z</time>
</trkpt>
<trkpt lat="46.2581260" lon="10.5740940">
	<ele>1885.60</ele>
	<time>2024-03-09T09:05:54.000Z</time>
</trkpt>
<trkpt lat="46.2581300" lon="10.5741030">
	<ele>1885.60</ele>
	<time>2024-03-09T09:05:55.000Z</time>
</trkpt>
<trkpt lat="46.2581270" lon="10.5741140">
	<ele>1885.80</ele>
	<time>2024-03-09T09:05:56.000Z</time>
</trkpt>
<trkpt lat="46.2581310" lon="10.5741240">
	<ele>1885.80</ele>
	<time>2024-03-09T09:05:57.000Z</time>
</trkpt>
<trkpt lat="46.2581340" lon="10.5741390">
	<ele>1885.80</ele>
	<time>2024-03-09T09:05:58.000Z</time>
</trkpt>
<trkpt lat="46.2581390" lon="10.5741460">
	<ele>1886.00</ele>
	<time>2024-03-09T09:05:59.000Z</time>
</trkpt>
<trkpt lat="46.2581430" lon="10.5741520">
	<ele>1886.00</ele>
	<time>2024-03-09T09:06:00.000Z</time>
</trkpt>
<trkpt lat="46.2581440" lon="10.5741580">
	<ele>1886.00</ele>
	<time>2024-03-09T09:06:01.000Z</time>
</trkpt>
<trkpt lat="46.2581430" lon="10.5741600">
	<ele>1886.00</ele>
	<time>2024-03-09T09:06:02.000Z</time>
</trkpt>
<trkpt lat="46.2581470" lon="10.5741660">
	<ele>1886.20</ele>
	<time>2024-03-09T09:06:03.000Z</time>
</trkpt>
<trkpt lat="46.2581500" lon="10.5741730">
	<ele>1886.20</ele>
	<time>2024-03-09T09:06:04.000Z</time>
</trkpt>
<trkpt lat="46.2581500" lon="10.5741850">
	<ele>1886.40</ele>
	<time>2024-03-09T09:06:05.000Z</time>
</trkpt>
<trkpt lat="46.2581510" lon="10.5741940">
	<ele>1886.40</ele>
	<time>2024-03-09T09:06:06.000Z</time>
</trkpt>
<trkpt lat="46.2581530" lon="10.5742060">
	<ele>1886.60</ele>
	<time>2024-03-09T09:06:07.000Z</time>
</trkpt>
<trkpt lat="46.2581610" lon="10.5742150">
	<ele>1886.80</ele>
	<time>2024-03-09T09:06:08.000Z</time>
</trkpt>
<trkpt lat="46.2581720" lon="10.5742260">
	<ele>1886.80</ele>
	<time>2024-03-09T09:06:09.000Z</time>
</trkpt>
<trkpt lat="46.2581790" lon="10.5742370">
	<ele>1886.80</ele>
	<time>2024-03-09T09:06:10.000Z</time>
</trkpt>
<trkpt lat="46.2581850" lon="10.5742470">
	<ele>1886.80</ele>
	<time>2024-03-09T09:06:11.000Z</time>
</trkpt>
<trkpt lat="46.2581920" lon="10.5742520">
	<ele>1887.00</ele>
	<time>2024-03-09T09:06:12.000Z</time>
</trkpt>
<trkpt lat="46.2581970" lon="10.5742610">
	<ele>1887.00</ele>
	<time>2024-03-09T09:06:13.000Z</time>
</trkpt>
<trkpt lat="46.2582020" lon="10.5742700">
	<ele>1887.20</ele>
	<time>2024-03-09T09:06:14.000Z</time>
</trkpt>
<trkpt lat="46.2582050" lon="10.5742800">
	<ele>1887.20</ele>
	<time>2024-03-09T09:06:15.000Z</time>
</trkpt>
<trkpt lat="46.2582090" lon="10.5742880">
	<ele>1887.20</ele>
	<time>2024-03-09T09:06:16.000Z</time>
</trkpt>
<trkpt lat="46.2582140" lon="10.5742960">
	<ele>1887.40</ele>
	<time>2024-03-09T09:06:17.000Z</time>
</trkpt>
<trkpt lat="46.2582180" lon="10.5742980">
	<ele>1887.40</ele>
	<time>2024-03-09T09:06:18.000Z</time>
</trkpt>
<trkpt lat="46.2582250" lon="10.5743040">
	<ele>1887.40</ele>
	<time>2024-03-09T09:06:19.000Z</time>
</trkpt>
<trkpt lat="46.2582270" lon="10.5743100">
	<ele>1887.60</ele>
	<time>2024-03-09T09:06:20.000Z</time>
</trkpt>
<trkpt lat="46.2582340" lon="10.5743190">
	<ele>1887.60</ele>
	<time>2024-03-09T09:06:21.000Z</time>
</trkpt>
<trkpt lat="46.2582390" lon="10.5743270">
	<ele>1887.60</ele>
	<time>2024-03-09T09:06:22.000Z</time>
</trkpt>
<trkpt lat="46.2582440" lon="10.5743360">
	<ele>1887.60</ele>
	<time>2024-03-09T09:06:23.000Z</time>
</trkpt>
<trkpt lat="46.2582500" lon="10.5743440">
	<ele>1887.80</ele>
	<time>2024-03-09T09:06:24.000Z</time>
</trkpt>
<trkpt lat="46.2582570" lon="10.5743530">
	<ele>1888.00</ele>
	<time>2024-03-09T09:06:25.000Z</time>
</trkpt>
<trkpt lat="46.2582600" lon="10.5743580">
	<ele>1888.00</ele>
	<time>2024-03-09T09:06:26.000Z</time>
</trkpt>
<trkpt lat="46.2582610" lon="10.5743620">
	<ele>1888.20</ele>
	<time>2024-03-09T09:06:27.000Z</time>
</trkpt>
<trkpt lat="46.2582620" lon="10.5743630">
	<ele>1888.20</ele>
	<time>2024-03-09T09:06:28.000Z</time>
</trkpt>
<trkpt lat="46.2582630" lon="10.5743610">
	<ele>1888.20</ele>
	<time>2024-03-09T09:06:29.000Z</time>
</trkpt>
<trkpt lat="46.2582610" lon="10.5743590">
	<ele>1888.20</ele>
	<time>2024-03-09T09:06:30.000Z</time>
</trkpt>
<trkpt lat="46.2582600" lon="10.5743570">
	<ele>1888.20</ele>
	<time>2024-03-09T09:06:31.000Z</time>
</trkpt>
<trkpt lat="46.2582650" lon="10.5743580">
	<ele>1888.20</ele>
	<time>2024-03-09T09:06:32.000Z</time>
</trkpt>
<trkpt lat="46.2582680" lon="10.5743600">
	<ele>1888.20</ele>
	<time>2024-03-09T09:06:33.000Z</time>
</trkpt>
<trkpt lat="46.2582690" lon="10.5743600">
	<ele>1888.20</ele>
	<time>2024-03-09T09:06:34.000Z</time>
</trkpt>
<trkpt lat="46.2582700" lon="10.5743600">
	<ele>1888.20</ele>
	<time>2024-03-09T09:06:35.000Z</time>
</trkpt>
<trkpt lat="46.2582710" lon="10.5743610">
	<ele>1888.20</ele>
	<time>2024-03-09T09:06:36.000Z</time>
</trkpt>
<trkpt lat="46.2582710" lon="10.5743610">
	<ele>1888.20</ele>
	<time>2024-03-09T09:06:37.000Z</time>
</trkpt>
<trkpt lat="46.2582710" lon="10.5743610">
	<ele>1888.20</ele>
	<time>2024-03-09T09:06:38.000Z</time>
</trkpt>
<trkpt lat="46.2582710" lon="10.5743610">
	<ele>1888.20</ele>
	<time>2024-03-09T09:06:39.000Z</time>
</trkpt>
<trkpt lat="46.2582710" lon="10.5743610">
	<ele>1888.20</ele>
	<time>2024-03-09T09:06:40.000Z</time>
</trkpt>
<trkpt lat="46.2582710" lon="10.5743610">
	<ele>1888.20</ele>
	<time>2024-03-09T09:06:41.000Z</time>
</trkpt>
<trkpt lat="46.2582710" lon="10.5743610">
	<ele>1888.20</ele>
	<time>2024-03-09T09:06:42.000Z</time>
</trkpt>
<trkpt lat="46.2582710" lon="10.5743610">
	<ele>1888.20</ele>
	<time>2024-03-09T09:06:43.000Z</time>
</trkpt>
<trkpt lat="46.2582710" lon="10.5743610">
	<ele>1888.20</ele>
	<time>2024-03-09T09:06:44.000Z</time>
</trkpt>
<trkpt lat="46.2582700" lon="10.5743610">
	<ele>1888.20</ele>
	<time>2024-03-09T09:06:45.000Z</time>
</trkpt>
<trkpt lat="46.2582700" lon="10.5743610">
	<ele>1888.20</ele>
	<time>2024-03-09T09:06:46.000Z</time>
</trkpt>
<trkpt lat="46.2582690" lon="10.5743610">
	<ele>1888.20</ele>
	<time>2024-03-09T09:06:47.000Z</time>
</trkpt>
<trkpt lat="46.2582680" lon="10.5743600">
	<ele>1888.20</ele>
	<time>2024-03-09T09:06:48.000Z</time>
</trkpt>
<trkpt lat="46.2582670" lon="10.5743600">
	<ele>1888.20</ele>
	<time>2024-03-09T09:06:49.000Z</time>
</trkpt>
<trkpt lat="46.2582660" lon="10.5743600">
	<ele>1888.20</ele>
	<time>2024-03-09T09:06:50.000Z</time>
</trkpt>
<trkpt lat="46.2582650" lon="10.5743600">
	<ele>1888.20</ele>
	<time>2024-03-09T09:06:51.000Z</time>
</trkpt>
<trkpt lat="46.2582640" lon="10.5743600">
	<ele>1888.20</ele>
	<time>2024-03-09T09:06:52.000Z</time>
</trkpt>
<trkpt lat="46.2582630" lon="10.5743600">
	<ele>1888.20</ele>
	<time>2024-03-09T09:06:53.000Z</time>
</trkpt>
<trkpt lat="46.2582630" lon="10.5743600">
	<ele>1888.20</ele>
	<time>2024-03-09T09:06:54.000Z</time>
</trkpt>
<trkpt lat="46.2582630" lon="10.5743600">
	<ele>1888.20</ele>
	<time>2024-03-09T09:06:55.000Z</time>
</trkpt>
<trkpt lat="46.2582630" lon="10.5743600">
	<ele>1888.20</ele>
	<time>2024-03-09T09:06:56.000Z</time>
</trkpt>
<trkpt lat="46.2582620" lon="10.5743600">
	<ele>1888.20</ele>
	<time>2024-03-09T09:06:57.000Z</time>
</trkpt>
<trkpt lat="46.2582610" lon="10.5743600">
	<ele>1888.20</ele>
	<time>2024-03-09T09:06:58.000Z</time>
</trkpt>
<trkpt lat="46.2582610" lon="10.5743600">
	<ele>1888.20</ele>
	<time>2024-03-09T09:06:59.000Z</time>
</trkpt>
<trkpt lat="46.2582600" lon="10.5743600">
	<ele>1888.20</ele>
	<time>2024-03-09T09:07:00.000Z</time>
</trkpt>
<trkpt lat="46.2582590" lon="10.5743600">
	<ele>1888.20</ele>
	<time>2024-03-09T09:07:01.000Z</time>
</trkpt>
<trkpt lat="46.2582590" lon="10.5743610">
	<ele>1888.20</ele>
	<time>2024-03-09T09:07:02.000Z</time>
</trkpt>
<trkpt lat="46.2582580" lon="10.5743610">
	<ele>1888.40</ele>
	<time>2024-03-09T09:07:03.000Z</time>
</trkpt>
<trkpt lat="46.2582580" lon="10.5743610">
	<ele>1888.20</ele>
	<time>2024-03-09T09:07:04.000Z</time>
</trkpt>
<trkpt lat="46.2582580" lon="10.5743610">
	<ele>1888.20</ele>
	<time>2024-03-09T09:07:05.000Z</time>
</trkpt>
<trkpt lat="46.2582570" lon="10.5743630">
	<ele>1888.20</ele>
	<time>2024-03-09T09:07:06.000Z</time>
</trkpt>
<trkpt lat="46.2582570" lon="10.5743640">
	<ele>1888.20</ele>
	<time>2024-03-09T09:07:07.000Z</time>
</trkpt>
<trkpt lat="46.2582560" lon="10.5743650">
	<ele>1888.20</ele>
	<time>2024-03-09T09:07:08.000Z</time>
</trkpt>
<trkpt lat="46.2582550" lon="10.5743660">
	<ele>1888.20</ele>
	<time>2024-03-09T09:07:09.000Z</time>
</trkpt>
<trkpt lat="46.2582550" lon="10.5743670">
	<ele>1888.20</ele>
	<time>2024-03-09T09:07:10.000Z</time>
</trkpt>
<trkpt lat="46.2582550" lon="10.5743670">
	<ele>1888.40</ele>
	<time>2024-03-09T09:07:11.000Z</time>
</trkpt>
<trkpt lat="46.2582540" lon="10.5743670">
	<ele>1888.40</ele>
	<time>2024-03-09T09:07:12.000Z</time>
</trkpt>
<trkpt lat="46.2582540" lon="10.5743680">
	<ele>1888.40</ele>
	<time>2024-03-09T09:07:13.000Z</time>
</trkpt>
<trkpt lat="46.2582530" lon="10.5743680">
	<ele>1888.40</ele>
	<time>2024-03-09T09:07:14.000Z</time>
</trkpt>
<trkpt lat="46.2582530" lon="10.5743680">
	<ele>1888.40</ele>
	<time>2024-03-09T09:07:15.000Z</time>
</trkpt>
<trkpt lat="46.2582530" lon="10.5743690">
	<ele>1888.60</ele>
	<time>2024-03-09T09:07:16.000Z</time>
</trkpt>
<trkpt lat="46.2582530" lon="10.5743690">
	<ele>1888.60</ele>
	<time>2024-03-09T09:07:17.000Z</time>
</trkpt>
<trkpt lat="46.2582530" lon="10.5743700">
	<ele>1888.60</ele>
	<time>2024-03-09T09:07:18.000Z</time>
</trkpt>
<trkpt lat="46.2582530" lon="10.5743700">
	<ele>1888.60</ele>
	<time>2024-03-09T09:07:19.000Z</time>
</trkpt>
<trkpt lat="46.2582530" lon="10.5743710">
	<ele>1888.60</ele>
	<time>2024-03-09T09:07:20.000Z</time>
</trkpt>
<trkpt lat="46.2582530" lon="10.5743710">
	<ele>1888.60</ele>
	<time>2024-03-09T09:07:21.000Z</time>
</trkpt>
<trkpt lat="46.2582530" lon="10.5743720">
	<ele>1888.60</ele>
	<time>2024-03-09T09:07:22.000Z</time>
</trkpt>
<trkpt lat="46.2582530" lon="10.5743720">
	<ele>1888.40</ele>
	<time>2024-03-09T09:07:23.000Z</time>
</trkpt>
<trkpt lat="46.2582530" lon="10.5743720">
	<ele>1888.20</ele>
	<time>2024-03-09T09:07:24.000Z</time>
</trkpt>
<trkpt lat="46.2582540" lon="10.5743720">
	<ele>1888.00</ele>
	<time>2024-03-09T09:07:25.000Z</time>
</trkpt>
<trkpt lat="46.2582540" lon="10.5743720">
	<ele>1888.00</ele>
	<time>2024-03-09T09:07:26.000Z</time>
</trkpt>
<trkpt lat="46.2582540" lon="10.5743720">
	<ele>1888.00</ele>
	<time>2024-03-09T09:07:27.000Z</time>
</trkpt>
<trkpt lat="46.2582540" lon="10.5743720">
	<ele>1887.80</ele>
	<time>2024-03-09T09:07:28.000Z</time>
</trkpt>
<trkpt lat="46.2582550" lon="10.5743720">
	<ele>1887.80</ele>
	<time>2024-03-09T09:07:29.000Z</time>
</trkpt>
<trkpt lat="46.2582560" lon="10.5743720">
	<ele>1887.80</ele>
	<time>2024-03-09T09:07:30.000Z</time>
</trkpt>
<trkpt lat="46.2582590" lon="10.5743720">
	<ele>1887.80</ele>
	<time>2024-03-09T09:07:31.000Z</time>
</trkpt>
<trkpt lat="46.2582610" lon="10.5743720">
	<ele>1887.80</ele>
	<time>2024-03-09T09:07:32.000Z</time>
</trkpt>
<trkpt lat="46.2582630" lon="10.5743720">
	<ele>1887.80</ele>
	<time>2024-03-09T09:07:33.000Z</time>
</trkpt>
<trkpt lat="46.2582660" lon="10.5743720">
	<ele>1887.80</ele>
	<time>2024-03-09T09:07:34.000Z</time>
</trkpt>
<trkpt lat="46.2582680" lon="10.5743720">
	<ele>1887.80</ele>
	<time>2024-03-09T09:07:35.000Z</time>
</trkpt>
<trkpt lat="46.2582710" lon="10.5743720">
	<ele>1887.80</ele>
	<time>2024-03-09T09:07:36.000Z</time>
</trkpt>
<trkpt lat="46.2582740" lon="10.5743720">
	<ele>1887.80</ele>
	<time>2024-03-09T09:07:37.000Z</time>
</trkpt>
<trkpt lat="46.2582760" lon="10.5743720">
	<ele>1887.80</ele>
	<time>2024-03-09T09:07:38.000Z</time>
</trkpt>
<trkpt lat="46.2582770" lon="10.5743710">
	<ele>1887.80</ele>
	<time>2024-03-09T09:07:39.000Z</time>
</trkpt>
<trkpt lat="46.2582780" lon="10.5743710">
	<ele>1887.60</ele>
	<time>2024-03-09T09:07:40.000Z</time>
</trkpt>
<trkpt lat="46.2582780" lon="10.5743710">
	<ele>1887.80</ele>
	<time>2024-03-09T09:07:41.000Z</time>
</trkpt>
<trkpt lat="46.2582780" lon="10.5743710">
	<ele>1887.80</ele>
	<time>2024-03-09T09:07:42.000Z</time>
</trkpt>
<trkpt lat="46.2582780" lon="10.5743710">
	<ele>1887.80</ele>
	<time>2024-03-09T09:07:43.000Z</time>
</trkpt>
<trkpt lat="46.2582790" lon="10.5743710">
	<ele>1887.80</ele>
	<time>2024-03-09T09:07:44.000Z</time>
</trkpt>
<trkpt lat="46.2582790" lon="10.5743710">
	<ele>1887.80</ele>
	<time>2024-03-09T09:07:45.000Z</time>
</trkpt>
<trkpt lat="46.2582800" lon="10.5743710">
	<ele>1887.80</ele>
	<time>2024-03-09T09:07:46.000Z</time>
</trkpt>
<trkpt lat="46.2582800" lon="10.5743710">
	<ele>1887.80</ele>
	<time>2024-03-09T09:07:47.000Z</time>
</trkpt>
<trkpt lat="46.2582810" lon="10.5743710">
	<ele>1887.80</ele>
	<time>2024-03-09T09:07:48.000Z</time>
</trkpt>
<trkpt lat="46.2582810" lon="10.5743710">
	<ele>1887.80</ele>
	<time>2024-03-09T09:07:49.000Z</time>
</trkpt>
<trkpt lat="46.2582810" lon="10.5743710">
	<ele>1887.80</ele>
	<time>2024-03-09T09:07:50.000Z</time>
</trkpt>
<trkpt lat="46.2582810" lon="10.5743710">
	<ele>1887.80</ele>
	<time>2024-03-09T09:07:51.000Z</time>
</trkpt>
<trkpt lat="46.2582810" lon="10.5743720">
	<ele>1887.80</ele>
	<time>2024-03-09T09:07:52.000Z</time>
</trkpt>
<trkpt lat="46.2582810" lon="10.5743720">
	<ele>1887.80</ele>
	<time>2024-03-09T09:07:53.000Z</time>
</trkpt>
<trkpt lat="46.2582810" lon="10.5743770">
	<ele>1887.80</ele>
	<time>2024-03-09T09:07:54.000Z</time>
</trkpt>
<trkpt lat="46.2582810" lon="10.5743840">
	<ele>1887.80</ele>
	<time>2024-03-09T09:07:55.000Z</time>
</trkpt>
<trkpt lat="46.2582810" lon="10.5743890">
	<ele>1887.80</ele>
	<time>2024-03-09T09:07:56.000Z</time>
</trkpt>
<trkpt lat="46.2582840" lon="10.5743930">
	<ele>1887.80</ele>
	<time>2024-03-09T09:07:57.000Z</time>
</trkpt>
<trkpt lat="46.2582880" lon="10.5744010">
	<ele>1887.80</ele>
	<time>2024-03-09T09:07:58.000Z</time>
</trkpt>
<trkpt lat="46.2582970" lon="10.5744150">
	<ele>1887.80</ele>
	<time>2024-03-09T09:07:59.000Z</time>
</trkpt>
<trkpt lat="46.2583060" lon="10.5744270">
	<ele>1887.80</ele>
	<time>2024-03-09T09:08:00.000Z</time>
</trkpt>
<trkpt lat="46.2583120" lon="10.5744370">
	<ele>1887.80</ele>
	<time>2024-03-09T09:08:01.000Z</time>
</trkpt>
<trkpt lat="46.2583200" lon="10.5744460">
	<ele>1887.80</ele>
	<time>2024-03-09T09:08:02.000Z</time>
</trkpt>
<trkpt lat="46.2583260" lon="10.5744580">
	<ele>1887.80</ele>
	<time>2024-03-09T09:08:03.000Z</time>
</trkpt>
<trkpt lat="46.2583310" lon="10.5744680">
	<ele>1887.80</ele>
	<time>2024-03-09T09:08:04.000Z</time>
</trkpt>
<trkpt lat="46.2583390" lon="10.5744790">
	<ele>1887.80</ele>
	<time>2024-03-09T09:08:05.000Z</time>
</trkpt>
<trkpt lat="46.2583470" lon="10.5744960">
	<ele>1887.80</ele>
	<time>2024-03-09T09:08:06.000Z</time>
</trkpt>
<trkpt lat="46.2583490" lon="10.5745070">
	<ele>1887.80</ele>
	<time>2024-03-09T09:08:07.000Z</time>
</trkpt>
<trkpt lat="46.2583570" lon="10.5745160">
	<ele>1887.80</ele>
	<time>2024-03-09T09:08:08.000Z</time>
</trkpt>
<trkpt lat="46.2583610" lon="10.5745270">
	<ele>1887.80</ele>
	<time>2024-03-09T09:08:09.000Z</time>
</trkpt>
<trkpt lat="46.2583640" lon="10.5745330">
	<ele>1887.80</ele>
	<time>2024-03-09T09:08:10.000Z</time>
</trkpt>
<trkpt lat="46.2583720" lon="10.5745380">
	<ele>1887.80</ele>
	<time>2024-03-09T09:08:11.000Z</time>
</trkpt>
<trkpt lat="46.2583810" lon="10.5745470">
	<ele>1887.80</ele>
	<time>2024-03-09T09:08:12.000Z</time>
</trkpt>
<trkpt lat="46.2583880" lon="10.5745530">
	<ele>1887.80</ele>
	<time>2024-03-09T09:08:13.000Z</time>
</trkpt>
<trkpt lat="46.2583900" lon="10.5745640">
	<ele>1887.80</ele>
	<time>2024-03-09T09:08:14.000Z</time>
</trkpt>
<trkpt lat="46.2583940" lon="10.5745720">
	<ele>1887.80</ele>
	<time>2024-03-09T09:08:15.000Z</time>
</trkpt>
<trkpt lat="46.2583930" lon="10.5745750">
	<ele>1887.80</ele>
	<time>2024-03-09T09:08:16.000Z</time>
</trkpt>
<trkpt lat="46.2583920" lon="10.5745780">
	<ele>1887.80</ele>
	<time>2024-03-09T09:08:17.000Z</time>
</trkpt>
<trkpt lat="46.2583910" lon="10.5745800">
	<ele>1887.80</ele>
	<time>2024-03-09T09:08:18.000Z</time>
</trkpt>
<trkpt lat="46.2583920" lon="10.5745820">
	<ele>1887.80</ele>
	<time>2024-03-09T09:08:19.000Z</time>
</trkpt>
<trkpt lat="46.2583920" lon="10.5745830">
	<ele>1887.80</ele>
	<time>2024-03-09T09:08:20.000Z</time>
</trkpt>
<trkpt lat="46.2583920" lon="10.5745820">
	<ele>1887.80</ele>
	<time>2024-03-09T09:08:21.000Z</time>
</trkpt>
<trkpt lat="46.2583930" lon="10.5745840">
	<ele>1887.80</ele>
	<time>2024-03-09T09:08:22.000Z</time>
</trkpt>
<trkpt lat="46.2583940" lon="10.5745870">
	<ele>1887.80</ele>
	<time>2024-03-09T09:08:23.000Z</time>
</trkpt>
<trkpt lat="46.2583940" lon="10.5745870">
	<ele>1887.80</ele>
	<time>2024-03-09T09:08:24.000Z</time>
</trkpt>
<trkpt lat="46.2583950" lon="10.5745890">
	<ele>1887.80</ele>
	<time>2024-03-09T09:08:25.000Z</time>
</trkpt>
<trkpt lat="46.2583970" lon="10.5745890">
	<ele>1887.80</ele>
	<time>2024-03-09T09:08:26.000Z</time>
</trkpt>
<trkpt lat="46.2583980" lon="10.5745900">
	<ele>1887.80</ele>
	<time>2024-03-09T09:08:27.000Z</time>
</trkpt>
<trkpt lat="46.2583980" lon="10.5745900">
	<ele>1887.80</ele>
	<time>2024-03-09T09:08:28.000Z</time>
</trkpt>
<trkpt lat="46.2583980" lon="10.5745900">
	<ele>1887.80</ele>
	<time>2024-03-09T09:08:29.000Z</time>
</trkpt>
<trkpt lat="46.2583980" lon="10.5745900">
	<ele>1887.80</ele>
	<time>2024-03-09T09:08:30.000Z</time>
</trkpt>
<trkpt lat="46.2583980" lon="10.5745900">
	<ele>1887.80</ele>
	<time>2024-03-09T09:08:31.000Z</time>
</trkpt>
<trkpt lat="46.2583980" lon="10.5745900">
	<ele>1887.80</ele>
	<time>2024-03-09T09:08:32.000Z</time>
</trkpt>
<trkpt lat="46.2583980" lon="10.5745900">
	<ele>1887.80</ele>
	<time>2024-03-09T09:08:33.000Z</time>
</trkpt>
<trkpt lat="46.2583980" lon="10.5745900">
	<ele>1887.80</ele>
	<time>2024-03-09T09:08:34.000Z</time>
</trkpt>
<trkpt lat="46.2583980" lon="10.5745900">
	<ele>1887.80</ele>
	<time>2024-03-09T09:08:35.000Z</time>
</trkpt>
<trkpt lat="46.2583970" lon="10.5745900">
	<ele>1887.80</ele>
	<time>2024-03-09T09:08:36.000Z</time>
</trkpt>
<trkpt lat="46.2583950" lon="10.5745900">
	<ele>1887.80</ele>
	<time>2024-03-09T09:08:37.000Z</time>
</trkpt>
<trkpt lat="46.2583950" lon="10.5745900">
	<ele>1887.80</ele>
	<time>2024-03-09T09:08:38.000Z</time>
</trkpt>
<trkpt lat="46.2583940" lon="10.5745890">
	<ele>1887.80</ele>
	<time>2024-03-09T09:08:39.000Z</time>
</trkpt>
<trkpt lat="46.2583940" lon="10.5745890">
	<ele>1887.80</ele>
	<time>2024-03-09T09:08:40.000Z</time>
</trkpt>
<trkpt lat="46.2583940" lon="10.5745890">
	<ele>1887.80</ele>
	<time>2024-03-09T09:08:41.000Z</time>
</trkpt>
<trkpt lat="46.2583930" lon="10.5745880">
	<ele>1887.80</ele>
	<time>2024-03-09T09:08:42.000Z</time>
</trkpt>
<trkpt lat="46.2583930" lon="10.5745870">
	<ele>1887.80</ele>
	<time>2024-03-09T09:08:43.000Z</time>
</trkpt>
<trkpt lat="46.2583920" lon="10.5745870">
	<ele>1887.80</ele>
	<time>2024-03-09T09:08:44.000Z</time>
</trkpt>
<trkpt lat="46.2583920" lon="10.5745860">
	<ele>1887.80</ele>
	<time>2024-03-09T09:08:45.000Z</time>
</trkpt>
<trkpt lat="46.2583920" lon="10.5745860">
	<ele>1887.80</ele>
	<time>2024-03-09T09:08:46.000Z</time>
</trkpt>
<trkpt lat="46.2583920" lon="10.5745850">
	<ele>1887.80</ele>
	<time>2024-03-09T09:08:47.000Z</time>
</trkpt>
<trkpt lat="46.2583920" lon="10.5745850">
	<ele>1887.80</ele>
	<time>2024-03-09T09:08:48.000Z</time>
</trkpt>
<trkpt lat="46.2583910" lon="10.5745850">
	<ele>1887.80</ele>
	<time>2024-03-09T09:08:49.000Z</time>
</trkpt>
<trkpt lat="46.2583910" lon="10.5745850">
	<ele>1887.80</ele>
	<time>2024-03-09T09:08:50.000Z</time>
</trkpt>
<trkpt lat="46.2583900" lon="10.5745850">
	<ele>1887.80</ele>
	<time>2024-03-09T09:08:51.000Z</time>
</trkpt>
<trkpt lat="46.2583900" lon="10.5745850">
	<ele>1887.80</ele>
	<time>2024-03-09T09:08:52.000Z</time>
</trkpt>
<trkpt lat="46.2583900" lon="10.5745850">
	<ele>1887.80</ele>
	<time>2024-03-09T09:08:53.000Z</time>
</trkpt>
<trkpt lat="46.2583900" lon="10.5745850">
	<ele>1887.80</ele>
	<time>2024-03-09T09:08:54.000Z</time>
</trkpt>
<trkpt lat="46.2583900" lon="10.5745840">
	<ele>1887.80</ele>
	<time>2024-03-09T09:08:55.000Z</time>
</trkpt>
<trkpt lat="46.2583900" lon="10.5745830">
	<ele>1887.80</ele>
	<time>2024-03-09T09:08:56.000Z</time>
</trkpt>
<trkpt lat="46.2583890" lon="10.5745820">
	<ele>1887.80</ele>
	<time>2024-03-09T09:08:57.000Z</time>
</trkpt>
<trkpt lat="46.2583890" lon="10.5745810">
	<ele>1887.80</ele>
	<time>2024-03-09T09:08:58.000Z</time>
</trkpt>
<trkpt lat="46.2583890" lon="10.5745800">
	<ele>1887.80</ele>
	<time>2024-03-09T09:08:59.000Z</time>
</trkpt>
<trkpt lat="46.2583890" lon="10.5745800">
	<ele>1887.80</ele>
	<time>2024-03-09T09:09:00.000Z</time>
</trkpt>
<trkpt lat="46.2583890" lon="10.5745790">
	<ele>1887.80</ele>
	<time>2024-03-09T09:09:01.000Z</time>
</trkpt>
<trkpt lat="46.2583880" lon="10.5745790">
	<ele>1887.80</ele>
	<time>2024-03-09T09:09:02.000Z</time>
</trkpt>
<trkpt lat="46.2583880" lon="10.5745780">
	<ele>1887.80</ele>
	<time>2024-03-09T09:09:03.000Z</time>
</trkpt>
<trkpt lat="46.2583880" lon="10.5745780">
	<ele>1887.80</ele>
	<time>2024-03-09T09:09:04.000Z</time>
</trkpt>
<trkpt lat="46.2583870" lon="10.5745780">
	<ele>1887.80</ele>
	<time>2024-03-09T09:09:05.000Z</time>
</trkpt>
<trkpt lat="46.2583860" lon="10.5745780">
	<ele>1887.80</ele>
	<time>2024-03-09T09:09:06.000Z</time>
</trkpt>
<trkpt lat="46.2583860" lon="10.5745770">
	<ele>1887.80</ele>
	<time>2024-03-09T09:09:07.000Z</time>
</trkpt>
<trkpt lat="46.2583850" lon="10.5745770">
	<ele>1887.80</ele>
	<time>2024-03-09T09:09:08.000Z</time>
</trkpt>
<trkpt lat="46.2583840" lon="10.5745760">
	<ele>1887.80</ele>
	<time>2024-03-09T09:09:09.000Z</time>
</trkpt>
<trkpt lat="46.2583840" lon="10.5745760">
	<ele>1887.80</ele>
	<time>2024-03-09T09:09:10.000Z</time>
</trkpt>
<trkpt lat="46.2583840" lon="10.5745750">
	<ele>1887.80</ele>
	<time>2024-03-09T09:09:11.000Z</time>
</trkpt>
<trkpt lat="46.2583840" lon="10.5745740">
	<ele>1887.80</ele>
	<time>2024-03-09T09:09:12.000Z</time>
</trkpt>
<trkpt lat="46.2583810" lon="10.5745710">
	<ele>1887.80</ele>
	<time>2024-03-09T09:09:13.000Z</time>
</trkpt>
<trkpt lat="46.2583790" lon="10.5745690">
	<ele>1887.80</ele>
	<time>2024-03-09T09:09:14.000Z</time>
</trkpt>
<trkpt lat="46.2583780" lon="10.5745670">
	<ele>1887.80</ele>
	<time>2024-03-09T09:09:15.000Z</time>
</trkpt>
<trkpt lat="46.2583780" lon="10.5745650">
	<ele>1887.80</ele>
	<time>2024-03-09T09:09:16.000Z</time>
</trkpt>
<trkpt lat="46.2583770" lon="10.5745640">
	<ele>1887.80</ele>
	<time>2024-03-09T09:09:17.000Z</time>
</trkpt>
<trkpt lat="46.2583770" lon="10.5745630">
	<ele>1887.80</ele>
	<time>2024-03-09T09:09:18.000Z</time>
</trkpt>
<trkpt lat="46.2583760" lon="10.5745620">
	<ele>1887.80</ele>
	<time>2024-03-09T09:09:19.000Z</time>
</trkpt>
<trkpt lat="46.2583760" lon="10.5745610">
	<ele>1887.80</ele>
	<time>2024-03-09T09:09:20.000Z</time>
</trkpt>
<trkpt lat="46.2583760" lon="10.5745590">
	<ele>1887.80</ele>
	<time>2024-03-09T09:09:21.000Z</time>
</trkpt>
<trkpt lat="46.2583760" lon="10.5745580">
	<ele>1887.80</ele>
	<time>2024-03-09T09:09:22.000Z</time>
</trkpt>
<trkpt lat="46.2583760" lon="10.5745560">
	<ele>1887.80</ele>
	<time>2024-03-09T09:09:23.000Z</time>
</trkpt>
<trkpt lat="46.2583760" lon="10.5745560">
	<ele>1887.80</ele>
	<time>2024-03-09T09:09:24.000Z</time>
</trkpt>
<trkpt lat="46.2583760" lon="10.5745550">
	<ele>1887.80</ele>
	<time>2024-03-09T09:09:25.000Z</time>
</trkpt>
<trkpt lat="46.2583760" lon="10.5745550">
	<ele>1887.80</ele>
	<time>2024-03-09T09:09:26.000Z</time>
</trkpt>
<trkpt lat="46.2583760" lon="10.5745550">
	<ele>1887.80</ele>
	<time>2024-03-09T09:09:27.000Z</time>
</trkpt>
<trkpt lat="46.2583750" lon="10.5745530">
	<ele>1887.80</ele>
	<time>2024-03-09T09:09:28.000Z</time>
</trkpt>
<trkpt lat="46.2583740" lon="10.5745520">
	<ele>1887.80</ele>
	<time>2024-03-09T09:09:29.000Z</time>
</trkpt>
<trkpt lat="46.2583740" lon="10.5745510">
	<ele>1887.80</ele>
	<time>2024-03-09T09:09:30.000Z</time>
</trkpt>
<trkpt lat="46.2583740" lon="10.5745500">
	<ele>1887.80</ele>
	<time>2024-03-09T09:09:31.000Z</time>
</trkpt>
<trkpt lat="46.2583740" lon="10.5745490">
	<ele>1887.80</ele>
	<time>2024-03-09T09:09:32.000Z</time>
</trkpt>
<trkpt lat="46.2583740" lon="10.5745480">
	<ele>1887.80</ele>
	<time>2024-03-09T09:09:33.000Z</time>
</trkpt>
<trkpt lat="46.2583740" lon="10.5745480">
	<ele>1887.80</ele>
	<time>2024-03-09T09:09:34.000Z</time>
</trkpt>
<trkpt lat="46.2583740" lon="10.5745480">
	<ele>1887.80</ele>
	<time>2024-03-09T09:09:35.000Z</time>
</trkpt>
<trkpt lat="46.2583740" lon="10.5745470">
	<ele>1887.80</ele>
	<time>2024-03-09T09:09:36.000Z</time>
</trkpt>
<trkpt lat="46.2583740" lon="10.5745450">
	<ele>1887.80</ele>
	<time>2024-03-09T09:09:37.000Z</time>
</trkpt>
<trkpt lat="46.2583740" lon="10.5745400">
	<ele>1887.80</ele>
	<time>2024-03-09T09:09:38.000Z</time>
</trkpt>
<trkpt lat="46.2583740" lon="10.5745370">
	<ele>1887.80</ele>
	<time>2024-03-09T09:09:39.000Z</time>
</trkpt>
<trkpt lat="46.2583740" lon="10.5745350">
	<ele>1887.80</ele>
	<time>2024-03-09T09:09:40.000Z</time>
</trkpt>
<trkpt lat="46.2583730" lon="10.5745320">
	<ele>1887.80</ele>
	<time>2024-03-09T09:09:41.000Z</time>
</trkpt>
<trkpt lat="46.2583730" lon="10.5745310">
	<ele>1887.80</ele>
	<time>2024-03-09T09:09:42.000Z</time>
</trkpt>
<trkpt lat="46.2583720" lon="10.5745280">
	<ele>1887.80</ele>
	<time>2024-03-09T09:09:43.000Z</time>
</trkpt>
<trkpt lat="46.2583720" lon="10.5745280">
	<ele>1887.80</ele>
	<time>2024-03-09T09:09:44.000Z</time>
</trkpt>
<trkpt lat="46.2583710" lon="10.5745270">
	<ele>1887.80</ele>
	<time>2024-03-09T09:09:45.000Z</time>
</trkpt>
<trkpt lat="46.2583710" lon="10.5745260">
	<ele>1887.80</ele>
	<time>2024-03-09T09:09:46.000Z</time>
</trkpt>
<trkpt lat="46.2583710" lon="10.5745250">
	<ele>1887.80</ele>
	<time>2024-03-09T09:09:47.000Z</time>
</trkpt>
<trkpt lat="46.2583710" lon="10.5745240">
	<ele>1887.80</ele>
	<time>2024-03-09T09:09:48.000Z</time>
</trkpt>
<trkpt lat="46.2583710" lon="10.5745240">
	<ele>1887.80</ele>
	<time>2024-03-09T09:09:49.000Z</time>
</trkpt>
<trkpt lat="46.2583710" lon="10.5745230">
	<ele>1887.80</ele>
	<time>2024-03-09T09:09:50.000Z</time>
</trkpt>
<trkpt lat="46.2583710" lon="10.5745230">
	<ele>1887.80</ele>
	<time>2024-03-09T09:09:51.000Z</time>
</trkpt>
<trkpt lat="46.2583700" lon="10.5745230">
	<ele>1887.80</ele>
	<time>2024-03-09T09:09:52.000Z</time>
</trkpt>
<trkpt lat="46.2583700" lon="10.5745230">
	<ele>1887.80</ele>
	<time>2024-03-09T09:09:53.000Z</time>
</trkpt>
<trkpt lat="46.2583700" lon="10.5745230">
	<ele>1887.80</ele>
	<time>2024-03-09T09:09:54.000Z</time>
</trkpt>
<trkpt lat="46.2583700" lon="10.5745230">
	<ele>1887.80</ele>
	<time>2024-03-09T09:09:55.000Z</time>
</trkpt>
<trkpt lat="46.2583700" lon="10.5745230">
	<ele>1887.80</ele>
	<time>2024-03-09T09:09:56.000Z</time>
</trkpt>
<trkpt lat="46.2583700" lon="10.5745230">
	<ele>1887.80</ele>
	<time>2024-03-09T09:09:57.000Z</time>
</trkpt>
<trkpt lat="46.2583700" lon="10.5745230">
	<ele>1887.80</ele>
	<time>2024-03-09T09:09:58.000Z</time>
</trkpt>
<trkpt lat="46.2583700" lon="10.5745230">
	<ele>1887.80</ele>
	<time>2024-03-09T09:09:59.000Z</time>
</trkpt>
<trkpt lat="46.2583700" lon="10.5745230">
	<ele>1887.80</ele>
	<time>2024-03-09T09:10:00.000Z</time>
</trkpt>
<trkpt lat="46.2583710" lon="10.5745230">
	<ele>1887.80</ele>
	<time>2024-03-09T09:10:01.000Z</time>
</trkpt>
<trkpt lat="46.2583710" lon="10.5745230">
	<ele>1887.80</ele>
	<time>2024-03-09T09:10:02.000Z</time>
</trkpt>
<trkpt lat="46.2583710" lon="10.5745230">
	<ele>1887.80</ele>
	<time>2024-03-09T09:10:03.000Z</time>
</trkpt>
<trkpt lat="46.2583710" lon="10.5745230">
	<ele>1887.80</ele>
	<time>2024-03-09T09:10:04.000Z</time>
</trkpt>
<trkpt lat="46.2583710" lon="10.5745230">
	<ele>1887.80</ele>
	<time>2024-03-09T09:10:05.000Z</time>
</trkpt>
<trkpt lat="46.2583710" lon="10.5745230">
	<ele>1887.80</ele>
	<time>2024-03-09T09:10:06.000Z</time>
</trkpt>
<trkpt lat="46.2583720" lon="10.5745230">
	<ele>1887.80</ele>
	<time>2024-03-09T09:10:07.000Z</time>
</trkpt>
<trkpt lat="46.2583720" lon="10.5745230">
	<ele>1887.80</ele>
	<time>2024-03-09T09:10:08.000Z</time>
</trkpt>
<trkpt lat="46.2583730" lon="10.5745240">
	<ele>1887.80</ele>
	<time>2024-03-09T09:10:09.000Z</time>
</trkpt>
<trkpt lat="46.2583740" lon="10.5745260">
	<ele>1887.80</ele>
	<time>2024-03-09T09:10:10.000Z</time>
</trkpt>
<trkpt lat="46.2583750" lon="10.5745280">
	<ele>1887.80</ele>
	<time>2024-03-09T09:10:11.000Z</time>
</trkpt>
<trkpt lat="46.2583760" lon="10.5745290">
	<ele>1887.80</ele>
	<time>2024-03-09T09:10:12.000Z</time>
</trkpt>
<trkpt lat="46.2583770" lon="10.5745300">
	<ele>1887.80</ele>
	<time>2024-03-09T09:10:13.000Z</time>
</trkpt>
<trkpt lat="46.2583770" lon="10.5745310">
	<ele>1887.80</ele>
	<time>2024-03-09T09:10:14.000Z</time>
</trkpt>
<trkpt lat="46.2583780" lon="10.5745310">
	<ele>1887.80</ele>
	<time>2024-03-09T09:10:15.000Z</time>
</trkpt>
<trkpt lat="46.2583780" lon="10.5745320">
	<ele>1887.80</ele>
	<time>2024-03-09T09:10:16.000Z</time>
</trkpt>
<trkpt lat="46.2583780" lon="10.5745320">
	<ele>1887.80</ele>
	<time>2024-03-09T09:10:17.000Z</time>
</trkpt>
<trkpt lat="46.2583790" lon="10.5745320">
	<ele>1887.80</ele>
	<time>2024-03-09T09:10:18.000Z</time>
</trkpt>
<trkpt lat="46.2583790" lon="10.5745320">
	<ele>1887.80</ele>
	<time>2024-03-09T09:10:19.000Z</time>
</trkpt>
<trkpt lat="46.2583790" lon="10.5745320">
	<ele>1887.80</ele>
	<time>2024-03-09T09:10:20.000Z</time>
</trkpt>
<trkpt lat="46.2583800" lon="10.5745320">
	<ele>1887.80</ele>
	<time>2024-03-09T09:10:21.000Z</time>
</trkpt>
<trkpt lat="46.2583810" lon="10.5745330">
	<ele>1887.80</ele>
	<time>2024-03-09T09:10:22.000Z</time>
</trkpt>
<trkpt lat="46.2583810" lon="10.5745330">
	<ele>1887.80</ele>
	<time>2024-03-09T09:10:23.000Z</time>
</trkpt>
<trkpt lat="46.2583820" lon="10.5745330">
	<ele>1887.80</ele>
	<time>2024-03-09T09:10:24.000Z</time>
</trkpt>
<trkpt lat="46.2583820" lon="10.5745330">
	<ele>1887.80</ele>
	<time>2024-03-09T09:10:25.000Z</time>
</trkpt>
<trkpt lat="46.2583830" lon="10.5745340">
	<ele>1887.80</ele>
	<time>2024-03-09T09:10:26.000Z</time>
</trkpt>
<trkpt lat="46.2583830" lon="10.5745340">
	<ele>1887.80</ele>
	<time>2024-03-09T09:10:27.000Z</time>
</trkpt>
<trkpt lat="46.2583830" lon="10.5745350">
	<ele>1887.80</ele>
	<time>2024-03-09T09:10:28.000Z</time>
</trkpt>
<trkpt lat="46.2583830" lon="10.5745360">
	<ele>1887.80</ele>
	<time>2024-03-09T09:10:29.000Z</time>
</trkpt>
<trkpt lat="46.2583830" lon="10.5745360">
	<ele>1887.80</ele>
	<time>2024-03-09T09:10:30.000Z</time>
</trkpt>
<trkpt lat="46.2583840" lon="10.5745370">
	<ele>1887.80</ele>
	<time>2024-03-09T09:10:31.000Z</time>
</trkpt>
<trkpt lat="46.2583840" lon="10.5745370">
	<ele>1887.80</ele>
	<time>2024-03-09T09:10:32.000Z</time>
</trkpt>
<trkpt lat="46.2583840" lon="10.5745380">
	<ele>1887.80</ele>
	<time>2024-03-09T09:10:33.000Z</time>
</trkpt>
<trkpt lat="46.2583840" lon="10.5745380">
	<ele>1887.80</ele>
	<time>2024-03-09T09:10:34.000Z</time>
</trkpt>
<trkpt lat="46.2583840" lon="10.5745390">
	<ele>1887.80</ele>
	<time>2024-03-09T09:10:35.000Z</time>
</trkpt>
<trkpt lat="46.2583850" lon="10.5745410">
	<ele>1887.80</ele>
	<time>2024-03-09T09:10:36.000Z</time>
</trkpt>
<trkpt lat="46.2583850" lon="10.5745420">
	<ele>1887.80</ele>
	<time>2024-03-09T09:10:37.000Z</time>
</trkpt>
<trkpt lat="46.2583860" lon="10.5745430">
	<ele>1887.80</ele>
	<time>2024-03-09T09:10:38.000Z</time>
</trkpt>
<trkpt lat="46.2583880" lon="10.5745430">
	<ele>1887.80</ele>
	<time>2024-03-09T09:10:39.000Z</time>
</trkpt>
<trkpt lat="46.2583890" lon="10.5745440">
	<ele>1887.80</ele>
	<time>2024-03-09T09:10:40.000Z</time>
</trkpt>
<trkpt lat="46.2583900" lon="10.5745440">
	<ele>1887.80</ele>
	<time>2024-03-09T09:10:41.000Z</time>
</trkpt>
<trkpt lat="46.2583910" lon="10.5745440">
	<ele>1887.80</ele>
	<time>2024-03-09T09:10:42.000Z</time>
</trkpt>
<trkpt lat="46.2583910" lon="10.5745450">
	<ele>1887.80</ele>
	<time>2024-03-09T09:10:43.000Z</time>
</trkpt>
<trkpt lat="46.2583920" lon="10.5745450">
	<ele>1887.80</ele>
	<time>2024-03-09T09:10:44.000Z</time>
</trkpt>
<trkpt lat="46.2583920" lon="10.5745450">
	<ele>1887.80</ele>
	<time>2024-03-09T09:10:45.000Z</time>
</trkpt>
<trkpt lat="46.2583920" lon="10.5745450">
	<ele>1887.80</ele>
	<time>2024-03-09T09:10:46.000Z</time>
</trkpt>
<trkpt lat="46.2583920" lon="10.5745450">
	<ele>1887.80</ele>
	<time>2024-03-09T09:10:47.000Z</time>
</trkpt>
<trkpt lat="46.2583930" lon="10.5745450">
	<ele>1887.80</ele>
	<time>2024-03-09T09:10:48.000Z</time>
</trkpt>
<trkpt lat="46.2583930" lon="10.5745450">
	<ele>1887.80</ele>
	<time>2024-03-09T09:10:49.000Z</time>
</trkpt>
<trkpt lat="46.2583940" lon="10.5745450">
	<ele>1887.80</ele>
	<time>2024-03-09T09:10:50.000Z</time>
</trkpt>
<trkpt lat="46.2583950" lon="10.5745450">
	<ele>1887.80</ele>
	<time>2024-03-09T09:10:51.000Z</time>
</trkpt>
<trkpt lat="46.2583950" lon="10.5745450">
	<ele>1887.80</ele>
	<time>2024-03-09T09:10:52.000Z</time>
</trkpt>
<trkpt lat="46.2583960" lon="10.5745450">
	<ele>1887.80</ele>
	<time>2024-03-09T09:10:53.000Z</time>
</trkpt>
<trkpt lat="46.2583960" lon="10.5745450">
	<ele>1887.80</ele>
	<time>2024-03-09T09:10:54.000Z</time>
</trkpt>
<trkpt lat="46.2583970" lon="10.5745450">
	<ele>1887.80</ele>
	<time>2024-03-09T09:10:55.000Z</time>
</trkpt>
<trkpt lat="46.2583970" lon="10.5745450">
	<ele>1887.80</ele>
	<time>2024-03-09T09:10:56.000Z</time>
</trkpt>
<trkpt lat="46.2583980" lon="10.5745450">
	<ele>1887.80</ele>
	<time>2024-03-09T09:10:57.000Z</time>
</trkpt>
<trkpt lat="46.2583990" lon="10.5745450">
	<ele>1887.80</ele>
	<time>2024-03-09T09:10:58.000Z</time>
</trkpt>
<trkpt lat="46.2583990" lon="10.5745450">
	<ele>1887.80</ele>
	<time>2024-03-09T09:10:59.000Z</time>
</trkpt>
<trkpt lat="46.2584000" lon="10.5745450">
	<ele>1887.80</ele>
	<time>2024-03-09T09:11:00.000Z</time>
</trkpt>
<trkpt lat="46.2584000" lon="10.5745440">
	<ele>1887.80</ele>
	<time>2024-03-09T09:11:01.000Z</time>
</trkpt>
<trkpt lat="46.2584010" lon="10.5745440">
	<ele>1887.80</ele>
	<time>2024-03-09T09:11:02.000Z</time>
</trkpt>
<trkpt lat="46.2584010" lon="10.5745440">
	<ele>1887.80</ele>
	<time>2024-03-09T09:11:03.000Z</time>
</trkpt>
<trkpt lat="46.2584020" lon="10.5745440">
	<ele>1887.80</ele>
	<time>2024-03-09T09:11:04.000Z</time>
</trkpt>
<trkpt lat="46.2584020" lon="10.5745430">
	<ele>1887.80</ele>
	<time>2024-03-09T09:11:05.000Z</time>
</trkpt>
<trkpt lat="46.2584020" lon="10.5745430">
	<ele>1887.80</ele>
	<time>2024-03-09T09:11:06.000Z</time>
</trkpt>
<trkpt lat="46.2584020" lon="10.5745430">
	<ele>1887.80</ele>
	<time>2024-03-09T09:11:07.000Z</time>
</trkpt>
<trkpt lat="46.2584030" lon="10.5745430">
	<ele>1887.80</ele>
	<time>2024-03-09T09:11:08.000Z</time>
</trkpt>
<trkpt lat="46.2584030" lon="10.5745420">
	<ele>1887.80</ele>
	<time>2024-03-09T09:11:09.000Z</time>
</trkpt>
<trkpt lat="46.2584030" lon="10.5745420">
	<ele>1887.80</ele>
	<time>2024-03-09T09:11:10.000Z</time>
</trkpt>
<trkpt lat="46.2584040" lon="10.5745420">
	<ele>1887.80</ele>
	<time>2024-03-09T09:11:11.000Z</time>
</trkpt>
<trkpt lat="46.2584040" lon="10.5745410">
	<ele>1887.80</ele>
	<time>2024-03-09T09:11:12.000Z</time>
</trkpt>
<trkpt lat="46.2584040" lon="10.5745400">
	<ele>1887.80</ele>
	<time>2024-03-09T09:11:13.000Z</time>
</trkpt>
<trkpt lat="46.2584040" lon="10.5745390">
	<ele>1887.80</ele>
	<time>2024-03-09T09:11:14.000Z</time>
</trkpt>
<trkpt lat="46.2584040" lon="10.5745390">
	<ele>1887.80</ele>
	<time>2024-03-09T09:11:15.000Z</time>
</trkpt>
<trkpt lat="46.2584040" lon="10.5745380">
	<ele>1887.80</ele>
	<time>2024-03-09T09:11:16.000Z</time>
</trkpt>
<trkpt lat="46.2584040" lon="10.5745380">
	<ele>1887.80</ele>
	<time>2024-03-09T09:11:17.000Z</time>
</trkpt>
<trkpt lat="46.2584040" lon="10.5745370">
	<ele>1887.80</ele>
	<time>2024-03-09T09:11:18.000Z</time>
</trkpt>
<trkpt lat="46.2584040" lon="10.5745370">
	<ele>1887.80</ele>
	<time>2024-03-09T09:11:19.000Z</time>
</trkpt>
<trkpt lat="46.2584040" lon="10.5745360">
	<ele>1887.80</ele>
	<time>2024-03-09T09:11:20.000Z</time>
</trkpt>
<trkpt lat="46.2584040" lon="10.5745360">
	<ele>1887.80</ele>
	<time>2024-03-09T09:11:21.000Z</time>
</trkpt>
<trkpt lat="46.2584040" lon="10.5745360">
	<ele>1887.80</ele>
	<time>2024-03-09T09:11:22.000Z</time>
</trkpt>
<trkpt lat="46.2584040" lon="10.5745360">
	<ele>1887.80</ele>
	<time>2024-03-09T09:11:23.000Z</time>
</trkpt>
<trkpt lat="46.2584040" lon="10.5745350">
	<ele>1887.80</ele>
	<time>2024-03-09T09:11:24.000Z</time>
</trkpt>
<trkpt lat="46.2584040" lon="10.5745350">
	<ele>1887.80</ele>
	<time>2024-03-09T09:11:25.000Z</time>
</trkpt>
<trkpt lat="46.2584030" lon="10.5745350">
	<ele>1887.80</ele>
	<time>2024-03-09T09:11:26.000Z</time>
</trkpt>
<trkpt lat="46.2584030" lon="10.5745350">
	<ele>1887.80</ele>
	<time>2024-03-09T09:11:27.000Z</time>
</trkpt>
<trkpt lat="46.2584020" lon="10.5745350">
	<ele>1887.80</ele>
	<time>2024-03-09T09:11:28.000Z</time>
</trkpt>
<trkpt lat="46.2584020" lon="10.5745350">
	<ele>1887.80</ele>
	<time>2024-03-09T09:11:29.000Z</time>
</trkpt>
<trkpt lat="46.2584010" lon="10.5745350">
	<ele>1887.80</ele>
	<time>2024-03-09T09:11:30.000Z</time>
</trkpt>
<trkpt lat="46.2584010" lon="10.5745340">
	<ele>1887.80</ele>
	<time>2024-03-09T09:11:31.000Z</time>
</trkpt>
<trkpt lat="46.2584000" lon="10.5745340">
	<ele>1887.80</ele>
	<time>2024-03-09T09:11:32.000Z</time>
</trkpt>
<trkpt lat="46.2584000" lon="10.5745340">
	<ele>1887.80</ele>
	<time>2024-03-09T09:11:33.000Z</time>
</trkpt>
<trkpt lat="46.2584000" lon="10.5745340">
	<ele>1887.80</ele>
	<time>2024-03-09T09:11:34.000Z</time>
</trkpt>
<trkpt lat="46.2583990" lon="10.5745340">
	<ele>1887.80</ele>
	<time>2024-03-09T09:11:35.000Z</time>
</trkpt>
<trkpt lat="46.2583990" lon="10.5745350">
	<ele>1887.80</ele>
	<time>2024-03-09T09:11:36.000Z</time>
</trkpt>
<trkpt lat="46.2583990" lon="10.5745350">
	<ele>1887.80</ele>
	<time>2024-03-09T09:11:37.000Z</time>
</trkpt>
<trkpt lat="46.2583990" lon="10.5745350">
	<ele>1887.80</ele>
	<time>2024-03-09T09:11:38.000Z</time>
</trkpt>
<trkpt lat="46.2583980" lon="10.5745350">
	<ele>1887.80</ele>
	<time>2024-03-09T09:11:39.000Z</time>
</trkpt>
<trkpt lat="46.2583980" lon="10.5745350">
	<ele>1887.80</ele>
	<time>2024-03-09T09:11:40.000Z</time>
</trkpt>
<trkpt lat="46.2583980" lon="10.5745350">
	<ele>1887.80</ele>
	<time>2024-03-09T09:11:41.000Z</time>
</trkpt>
<trkpt lat="46.2583980" lon="10.5745350">
	<ele>1887.80</ele>
	<time>2024-03-09T09:11:42.000Z</time>
</trkpt>
<trkpt lat="46.2583980" lon="10.5745350">
	<ele>1887.80</ele>
	<time>2024-03-09T09:11:43.000Z</time>
</trkpt>
<trkpt lat="46.2583980" lon="10.5745350">
	<ele>1887.80</ele>
	<time>2024-03-09T09:11:44.000Z</time>
</trkpt>
<trkpt lat="46.2583980" lon="10.5745350">
	<ele>1887.80</ele>
	<time>2024-03-09T09:11:45.000Z</time>
</trkpt>
<trkpt lat="46.2583970" lon="10.5745350">
	<ele>1887.80</ele>
	<time>2024-03-09T09:11:46.000Z</time>
</trkpt>
<trkpt lat="46.2583970" lon="10.5745350">
	<ele>1887.80</ele>
	<time>2024-03-09T09:11:47.000Z</time>
</trkpt>
<trkpt lat="46.2583970" lon="10.5745350">
	<ele>1887.80</ele>
	<time>2024-03-09T09:11:48.000Z</time>
</trkpt>
<trkpt lat="46.2583970" lon="10.5745350">
	<ele>1887.80</ele>
	<time>2024-03-09T09:11:49.000Z</time>
</trkpt>
<trkpt lat="46.2583970" lon="10.5745350">
	<ele>1887.80</ele>
	<time>2024-03-09T09:11:50.000Z</time>
</trkpt>
<trkpt lat="46.2583970" lon="10.5745350">
	<ele>1887.80</ele>
	<time>2024-03-09T09:11:51.000Z</time>
</trkpt>
<trkpt lat="46.2583970" lon="10.5745350">
	<ele>1887.80</ele>
	<time>2024-03-09T09:11:52.000Z</time>
</trkpt>
<trkpt lat="46.2583970" lon="10.5745360">
	<ele>1887.80</ele>
	<time>2024-03-09T09:11:53.000Z</time>
</trkpt>
<trkpt lat="46.2583970" lon="10.5745360">
	<ele>1887.80</ele>
	<time>2024-03-09T09:11:54.000Z</time>
</trkpt>
<trkpt lat="46.2583960" lon="10.5745360">
	<ele>1887.80</ele>
	<time>2024-03-09T09:11:55.000Z</time>
</trkpt>
<trkpt lat="46.2583960" lon="10.5745360">
	<ele>1887.80</ele>
	<time>2024-03-09T09:11:56.000Z</time>
</trkpt>
<trkpt lat="46.2583960" lon="10.5745360">
	<ele>1887.80</ele>
	<time>2024-03-09T09:11:57.000Z</time>
</trkpt>
<trkpt lat="46.2583960" lon="10.5745360">
	<ele>1887.80</ele>
	<time>2024-03-09T09:11:58.000Z</time>
</trkpt>
<trkpt lat="46.2583960" lon="10.5745360">
	<ele>1887.80</ele>
	<time>2024-03-09T09:11:59.000Z</time>
</trkpt>
<trkpt lat="46.2583960" lon="10.5745360">
	<ele>1887.80</ele>
	<time>2024-03-09T09:12:00.000Z</time>
</trkpt>
<trkpt lat="46.2583960" lon="10.5745360">
	<ele>1887.80</ele>
	<time>2024-03-09T09:12:01.000Z</time>
</trkpt>
<trkpt lat="46.2583960" lon="10.5745360">
	<ele>1887.80</ele>
	<time>2024-03-09T09:12:02.000Z</time>
</trkpt>
<trkpt lat="46.2583960" lon="10.5745360">
	<ele>1887.80</ele>
	<time>2024-03-09T09:12:03.000Z</time>
</trkpt>
<trkpt lat="46.2583960" lon="10.5745360">
	<ele>1887.80</ele>
	<time>2024-03-09T09:12:04.000Z</time>
</trkpt>
<trkpt lat="46.2583960" lon="10.5745360">
	<ele>1887.80</ele>
	<time>2024-03-09T09:12:05.000Z</time>
</trkpt>
<trkpt lat="46.2583950" lon="10.5745360">
	<ele>1887.80</ele>
	<time>2024-03-09T09:12:06.000Z</time>
</trkpt>
<trkpt lat="46.2583950" lon="10.5745360">
	<ele>1887.80</ele>
	<time>2024-03-09T09:12:07.000Z</time>
</trkpt>
<trkpt lat="46.2583950" lon="10.5745360">
	<ele>1887.80</ele>
	<time>2024-03-09T09:12:08.000Z</time>
</trkpt>
<trkpt lat="46.2583950" lon="10.5745360">
	<ele>1887.80</ele>
	<time>2024-03-09T09:12:09.000Z</time>
</trkpt>
<trkpt lat="46.2583950" lon="10.5745360">
	<ele>1887.80</ele>
	<time>2024-03-09T09:12:10.000Z</time>
</trkpt>
<trkpt lat="46.2583950" lon="10.5745360">
	<ele>1887.80</ele>
	<time>2024-03-09T09:12:11.000Z</time>
</trkpt>
<trkpt lat="46.2583950" lon="10.5745360">
	<ele>1887.80</ele>
	<time>2024-03-09T09:12:12.000Z</time>
</trkpt>
<trkpt lat="46.2583950" lon="10.5745360">
	<ele>1887.80</ele>
	<time>2024-03-09T09:12:13.000Z</time>
</trkpt>
<trkpt lat="46.2583950" lon="10.5745350">
	<ele>1887.80</ele>
	<time>2024-03-09T09:12:14.000Z</time>
</trkpt>
<trkpt lat="46.2583950" lon="10.5745350">
	<ele>1887.80</ele>
	<time>2024-03-09T09:12:15.000Z</time>
</trkpt>
<trkpt lat="46.2583950" lon="10.5745350">
	<ele>1887.80</ele>
	<time>2024-03-09T09:12:16.000Z</time>
</trkpt>
<trkpt lat="46.2583950" lon="10.5745350">
	<ele>1887.80</ele>
	<time>2024-03-09T09:12:17.000Z</time>
</trkpt>
<trkpt lat="46.2583950" lon="10.5745350">
	<ele>1887.80</ele>
	<time>2024-03-09T09:12:18.000Z</time>
</trkpt>
<trkpt lat="46.2583950" lon="10.5745350">
	<ele>1887.80</ele>
	<time>2024-03-09T09:12:19.000Z</time>
</trkpt>
<trkpt lat="46.2583950" lon="10.5745350">
	<ele>1887.80</ele>
	<time>2024-03-09T09:12:20.000Z</time>
</trkpt>
<trkpt lat="46.2583950" lon="10.5745350">
	<ele>1887.80</ele>
	<time>2024-03-09T09:12:21.000Z</time>
</trkpt>
<trkpt lat="46.2583950" lon="10.5745350">
	<ele>1887.80</ele>
	<time>2024-03-09T09:12:22.000Z</time>
</trkpt>
<trkpt lat="46.2583950" lon="10.5745350">
	<ele>1887.80</ele>
	<time>2024-03-09T09:12:23.000Z</time>
</trkpt>
<trkpt lat="46.2583950" lon="10.5745350">
	<ele>1887.80</ele>
	<time>2024-03-09T09:12:24.000Z</time>
</trkpt>
<trkpt lat="46.2583950" lon="10.5745350">
	<ele>1887.80</ele>
	<time>2024-03-09T09:12:25.000Z</time>
</trkpt>
<trkpt lat="46.2583950" lon="10.5745350">
	<ele>1887.80</ele>
	<time>2024-03-09T09:12:26.000Z</time>
</trkpt>
<trkpt lat="46.2583950" lon="10.5745350">
	<ele>1887.80</ele>
	<time>2024-03-09T09:12:27.000Z</time>
</trkpt>
<trkpt lat="46.2583950" lon="10.5745350">
	<ele>1887.80</ele>
	<time>2024-03-09T09:12:28.000Z</time>
</trkpt>
<trkpt lat="46.2583950" lon="10.5745350">
	<ele>1887.80</ele>
	<time>2024-03-09T09:12:29.000Z</time>
</trkpt>
<trkpt lat="46.2583940" lon="10.5745350">
	<ele>1887.80</ele>
	<time>2024-03-09T09:12:30.000Z</time>
</trkpt>
<trkpt lat="46.2583940" lon="10.5745350">
	<ele>1887.80</ele>
	<time>2024-03-09T09:12:31.000Z</time>
</trkpt>
<trkpt lat="46.2583940" lon="10.5745350">
	<ele>1887.80</ele>
	<time>2024-03-09T09:12:32.000Z</time>
</trkpt>
<trkpt lat="46.2583940" lon="10.5745350">
	<ele>1887.80</ele>
	<time>2024-03-09T09:12:33.000Z</time>
</trkpt>
<trkpt lat="46.2583940" lon="10.5745350">
	<ele>1887.80</ele>
	<time>2024-03-09T09:12:34.000Z</time>
</trkpt>
<trkpt lat="46.2583940" lon="10.5745350">
	<ele>1887.80</ele>
	<time>2024-03-09T09:12:35.000Z</time>
</trkpt>
<trkpt lat="46.2583940" lon="10.5745350">
	<ele>1887.80</ele>
	<time>2024-03-09T09:12:36.000Z</time>
</trkpt>
<trkpt lat="46.2583940" lon="10.5745350">
	<ele>1887.80</ele>
	<time>2024-03-09T09:12:37.000Z</time>
</trkpt>
<trkpt lat="46.2583940" lon="10.5745350">
	<ele>1887.80</ele>
	<time>2024-03-09T09:12:38.000Z</time>
</trkpt>
<trkpt lat="46.2583940" lon="10.5745350">
	<ele>1887.80</ele>
	<time>2024-03-09T09:12:39.000Z</time>
</trkpt>
<trkpt lat="46.2583940" lon="10.5745350">
	<ele>1887.80</ele>
	<time>2024-03-09T09:12:40.000Z</time>
</trkpt>
<trkpt lat="46.2583940" lon="10.5745350">
	<ele>1887.80</ele>
	<time>2024-03-09T09:12:41.000Z</time>
</trkpt>
<trkpt lat="46.2583940" lon="10.5745350">
	<ele>1887.80</ele>
	<time>2024-03-09T09:12:42.000Z</time>
</trkpt>
<trkpt lat="46.2583940" lon="10.5745350">
	<ele>1887.80</ele>
	<time>2024-03-09T09:12:43.000Z</time>
</trkpt>
<trkpt lat="46.2583940" lon="10.5745350">
	<ele>1887.80</ele>
	<time>2024-03-09T09:12:44.000Z</time>
</trkpt>
<trkpt lat="46.2583940" lon="10.5745350">
	<ele>1887.80</ele>
	<time>2024-03-09T09:12:45.000Z</time>
</trkpt>
<trkpt lat="46.2583940" lon="10.5745350">
	<ele>1887.80</ele>
	<time>2024-03-09T09:12:46.000Z</time>
</trkpt>
<trkpt lat="46.2583940" lon="10.5745350">
	<ele>1887.80</ele>
	<time>2024-03-09T09:12:47.000Z</time>
</trkpt>
<trkpt lat="46.2583940" lon="10.5745350">
	<ele>1887.80</ele>
	<time>2024-03-09T09:12:48.000Z</time>
</trkpt>
<trkpt lat="46.2583940" lon="10.5745350">
	<ele>1887.80</ele>
	<time>2024-03-09T09:12:49.000Z</time>
</trkpt>
<trkpt lat="46.2583940" lon="10.5745350">
	<ele>1887.80</ele>
	<time>2024-03-09T09:12:50.000Z</time>
</trkpt>
<trkpt lat="46.2583940" lon="10.5745350">
	<ele>1887.80</ele>
	<time>2024-03-09T09:12:51.000Z</time>
</trkpt>
<trkpt lat="46.2583940" lon="10.5745350">
	<ele>1887.80</ele>
	<time>2024-03-09T09:12:52.000Z</time>
</trkpt>
<trkpt lat="46.2583940" lon="10.5745350">
	<ele>1887.80</ele>
	<time>2024-03-09T09:12:53.000Z</time>
</trkpt>
<trkpt lat="46.2583940" lon="10.5745350">
	<ele>1887.80</ele>
	<time>2024-03-09T09:12:54.000Z</time>
</trkpt>
<trkpt lat="46.2583940" lon="10.5745350">
	<ele>1887.80</ele>
	<time>2024-03-09T09:12:55.000Z</time>
</trkpt>
<trkpt lat="46.2583940" lon="10.5745350">
	<ele>1887.80</ele>
	<time>2024-03-09T09:12:56.000Z</time>
</trkpt>
<trkpt lat="46.2583940" lon="10.5745350">
	<ele>1887.80</ele>
	<time>2024-03-09T09:12:57.000Z</time>
</trkpt>
<trkpt lat="46.2583940" lon="10.5745350">
	<ele>1887.80</ele>
	<time>2024-03-09T09:12:58.000Z</time>
</trkpt>
<trkpt lat="46.2583940" lon="10.5745350">
	<ele>1887.80</ele>
	<time>2024-03-09T09:12:59.000Z</time>
</trkpt>
<trkpt lat="46.2583940" lon="10.5745350">
	<ele>1887.80</ele>
	<time>2024-03-09T09:13:00.000Z</time>
</trkpt>
<trkpt lat="46.2583940" lon="10.5745350">
	<ele>1887.80</ele>
	<time>2024-03-09T09:13:01.000Z</time>
</trkpt>
<trkpt lat="46.2583940" lon="10.5745350">
	<ele>1887.80</ele>
	<time>2024-03-09T09:13:02.000Z</time>
</trkpt>
<trkpt lat="46.2583940" lon="10.5745350">
	<ele>1887.80</ele>
	<time>2024-03-09T09:13:03.000Z</time>
</trkpt>
<trkpt lat="46.2583940" lon="10.5745350">
	<ele>1887.80</ele>
	<time>2024-03-09T09:13:04.000Z</time>
</trkpt>
<trkpt lat="46.2583940" lon="10.5745350">
	<ele>1887.80</ele>
	<time>2024-03-09T09:13:05.000Z</time>
</trkpt>
<trkpt lat="46.2583940" lon="10.5745350">
	<ele>1887.80</ele>
	<time>2024-03-09T09:13:06.000Z</time>
</trkpt>
<trkpt lat="46.2583930" lon="10.5745350">
	<ele>1887.80</ele>
	<time>2024-03-09T09:13:07.000Z</time>
</trkpt>
<trkpt lat="46.2583930" lon="10.5745350">
	<ele>1887.80</ele>
	<time>2024-03-09T09:13:08.000Z</time>
</trkpt>
<trkpt lat="46.2583930" lon="10.5745350">
	<ele>1887.80</ele>
	<time>2024-03-09T09:13:09.000Z</time>
</trkpt>
<trkpt lat="46.2583930" lon="10.5745350">
	<ele>1887.80</ele>
	<time>2024-03-09T09:13:10.000Z</time>
</trkpt>
<trkpt lat="46.2583930" lon="10.5745350">
	<ele>1887.80</ele>
	<time>2024-03-09T09:13:11.000Z</time>
</trkpt>
<trkpt lat="46.2583930" lon="10.5745350">
	<ele>1887.80</ele>
	<time>2024-03-09T09:13:12.000Z</time>
</trkpt>
<trkpt lat="46.2583930" lon="10.5745350">
	<ele>1887.80</ele>
	<time>2024-03-09T09:13:13.000Z</time>
</trkpt>
<trkpt lat="46.2583930" lon="10.5745350">
	<ele>1887.80</ele>
	<time>2024-03-09T09:13:14.000Z</time>
</trkpt>
<trkpt lat="46.2583930" lon="10.5745350">
	<ele>1887.80</ele>
	<time>2024-03-09T09:13:15.000Z</time>
</trkpt>
<trkpt lat="46.2583930" lon="10.5745350">
	<ele>1887.80</ele>
	<time>2024-03-09T09:13:16.000Z</time>
</trkpt>
<trkpt lat="46.2583930" lon="10.5745350">
	<ele>1887.80</ele>
	<time>2024-03-09T09:13:17.000Z</time>
</trkpt>
<trkpt lat="46.2583930" lon="10.5745350">
	<ele>1887.80</ele>
	<time>2024-03-09T09:13:18.000Z</time>
</trkpt>
<trkpt lat="46.2583930" lon="10.5745350">
	<ele>1887.80</ele>
	<time>2024-03-09T09:13:19.000Z</time>
</trkpt>
<trkpt lat="46.2583930" lon="10.5745350">
	<ele>1887.80</ele>
	<time>2024-03-09T09:13:20.000Z</time>
</trkpt>
<trkpt lat="46.2583930" lon="10.5745350">
	<ele>1887.80</ele>
	<time>2024-03-09T09:13:21.000Z</time>
</trkpt>
<trkpt lat="46.2583930" lon="10.5745350">
	<ele>1887.80</ele>
	<time>2024-03-09T09:13:22.000Z</time>
</trkpt>
<trkpt lat="46.2583930" lon="10.5745350">
	<ele>1887.80</ele>
	<time>2024-03-09T09:13:23.000Z</time>
</trkpt>
<trkpt lat="46.2583930" lon="10.5745350">
	<ele>1887.80</ele>
	<time>2024-03-09T09:13:24.000Z</time>
</trkpt>
<trkpt lat="46.2583930" lon="10.5745350">
	<ele>1887.80</ele>
	<time>2024-03-09T09:13:25.000Z</time>
</trkpt>
<trkpt lat="46.2583930" lon="10.5745350">
	<ele>1887.80</ele>
	<time>2024-03-09T09:13:26.000Z</time>
</trkpt>
<trkpt lat="46.2583930" lon="10.5745350">
	<ele>1887.80</ele>
	<time>2024-03-09T09:13:27.000Z</time>
</trkpt>
<trkpt lat="46.2583930" lon="10.5745350">
	<ele>1887.80</ele>
	<time>2024-03-09T09:13:28.000Z</time>
</trkpt>
<trkpt lat="46.2583930" lon="10.5745350">
	<ele>1887.80</ele>
	<time>2024-03-09T09:13:29.000Z</time>
</trkpt>
<trkpt lat="46.2583930" lon="10.5745350">
	<ele>1887.80</ele>
	<time>2024-03-09T09:13:30.000Z</time>
</trkpt>
<trkpt lat="46.2583930" lon="10.5745350">
	<ele>1887.80</ele>
	<time>2024-03-09T09:13:31.000Z</time>
</trkpt>
<trkpt lat="46.2583930" lon="10.5745350">
	<ele>1887.80</ele>
	<time>2024-03-09T09:13:32.000Z</time>
</trkpt>
<trkpt lat="46.2583930" lon="10.5745350">
	<ele>1887.80</ele>
	<time>2024-03-09T09:13:33.000Z</time>
</trkpt>
<trkpt lat="46.2583930" lon="10.5745350">
	<ele>1887.80</ele>
	<time>2024-03-09T09:13:34.000Z</time>
</trkpt>
<trkpt lat="46.2583930" lon="10.5745350">
	<ele>1887.80</ele>
	<time>2024-03-09T09:13:35.000Z</time>
</trkpt>
<trkpt lat="46.2583930" lon="10.5745350">
	<ele>1887.80</ele>
	<time>2024-03-09T09:13:36.000Z</time>
</trkpt>
<trkpt lat="46.2583940" lon="10.5745350">
	<ele>1887.80</ele>
	<time>2024-03-09T09:13:37.000Z</time>
</trkpt>
<trkpt lat="46.2583930" lon="10.5745360">
	<ele>1887.80</ele>
	<time>2024-03-09T09:13:38.000Z</time>
</trkpt>
<trkpt lat="46.2583930" lon="10.5745360">
	<ele>1887.80</ele>
	<time>2024-03-09T09:13:39.000Z</time>
</trkpt>
<trkpt lat="46.2583930" lon="10.5745360">
	<ele>1887.80</ele>
	<time>2024-03-09T09:13:40.000Z</time>
</trkpt>
<trkpt lat="46.2583930" lon="10.5745360">
	<ele>1887.80</ele>
	<time>2024-03-09T09:13:41.000Z</time>
</trkpt>
<trkpt lat="46.2583930" lon="10.5745350">
	<ele>1887.80</ele>
	<time>2024-03-09T09:13:42.000Z</time>
</trkpt>
<trkpt lat="46.2583930" lon="10.5745350">
	<ele>1887.80</ele>
	<time>2024-03-09T09:13:43.000Z</time>
</trkpt>
<trkpt lat="46.2583930" lon="10.5745350">
	<ele>1887.80</ele>
	<time>2024-03-09T09:13:44.000Z</time>
</trkpt>
<trkpt lat="46.2583930" lon="10.5745350">
	<ele>1887.80</ele>
	<time>2024-03-09T09:13:45.000Z</time>
</trkpt>
<trkpt lat="46.2583930" lon="10.5745350">
	<ele>1887.80</ele>
	<time>2024-03-09T09:13:46.000Z</time>
</trkpt>
<trkpt lat="46.2583930" lon="10.5745350">
	<ele>1887.80</ele>
	<time>2024-03-09T09:13:47.000Z</time>
</trkpt>
<trkpt lat="46.2583930" lon="10.5745360">
	<ele>1887.80</ele>
	<time>2024-03-09T09:13:48.000Z</time>
</trkpt>
<trkpt lat="46.2583930" lon="10.5745360">
	<ele>1887.80</ele>
	<time>2024-03-09T09:13:49.000Z</time>
</trkpt>
<trkpt lat="46.2583930" lon="10.5745360">
	<ele>1887.80</ele>
	<time>2024-03-09T09:13:50.000Z</time>
</trkpt>
<trkpt lat="46.2583930" lon="10.5745360">
	<ele>1887.80</ele>
	<time>2024-03-09T09:13:51.000Z</time>
</trkpt>
<trkpt lat="46.2583930" lon="10.5745360">
	<ele>1887.80</ele>
	<time>2024-03-09T09:13:52.000Z</time>
</trkpt>
<trkpt lat="46.2583930" lon="10.5745360">
	<ele>1887.80</ele>
	<time>2024-03-09T09:13:53.000Z</time>
</trkpt>
<trkpt lat="46.2583930" lon="10.5745360">
	<ele>1887.80</ele>
	<time>2024-03-09T09:13:54.000Z</time>
</trkpt>
<trkpt lat="46.2583930" lon="10.5745360">
	<ele>1887.80</ele>
	<time>2024-03-09T09:13:55.000Z</time>
</trkpt>
<trkpt lat="46.2583930" lon="10.5745360">
	<ele>1887.80</ele>
	<time>2024-03-09T09:13:56.000Z</time>
</trkpt>
<trkpt lat="46.2583930" lon="10.5745360">
	<ele>1887.80</ele>
	<time>2024-03-09T09:13:57.000Z</time>
</trkpt>
<trkpt lat="46.2583930" lon="10.5745360">
	<ele>1887.80</ele>
	<time>2024-03-09T09:13:58.000Z</time>
</trkpt>
<trkpt lat="46.2583930" lon="10.5745360">
	<ele>1887.80</ele>
	<time>2024-03-09T09:13:59.000Z</time>
</trkpt>
<trkpt lat="46.2583930" lon="10.5745360">
	<ele>1887.80</ele>
	<time>2024-03-09T09:14:00.000Z</time>
</trkpt>
<trkpt lat="46.2583930" lon="10.5745350">
	<ele>1887.80</ele>
	<time>2024-03-09T09:14:01.000Z</time>
</trkpt>
<trkpt lat="46.2583930" lon="10.5745360">
	<ele>1887.80</ele>
	<time>2024-03-09T09:14:02.000Z</time>
</trkpt>
<trkpt lat="46.2583930" lon="10.5745360">
	<ele>1887.80</ele>
	<time>2024-03-09T09:14:03.000Z</time>
</trkpt>
<trkpt lat="46.2583930" lon="10.5745360">
	<ele>1887.80</ele>
	<time>2024-03-09T09:14:04.000Z</time>
</trkpt>
<trkpt lat="46.2583930" lon="10.5745360">
	<ele>1887.80</ele>
	<time>2024-03-09T09:14:05.000Z</time>
</trkpt>
<trkpt lat="46.2583930" lon="10.5745360">
	<ele>1887.80</ele>
	<time>2024-03-09T09:14:06.000Z</time>
</trkpt>
<trkpt lat="46.2583930" lon="10.5745360">
	<ele>1887.80</ele>
	<time>2024-03-09T09:14:07.000Z</time>
</trkpt>
<trkpt lat="46.2583930" lon="10.5745360">
	<ele>1887.80</ele>
	<time>2024-03-09T09:14:08.000Z</time>
</trkpt>
<trkpt lat="46.2583930" lon="10.5745360">
	<ele>1887.80</ele>
	<time>2024-03-09T09:14:09.000Z</time>
</trkpt>
<trkpt lat="46.2583930" lon="10.5745360">
	<ele>1887.80</ele>
	<time>2024-03-09T09:14:10.000Z</time>
</trkpt>
<trkpt lat="46.2583930" lon="10.5745350">
	<ele>1887.80</ele>
	<time>2024-03-09T09:14:11.000Z</time>
</trkpt>
<trkpt lat="46.2583930" lon="10.5745350">
	<ele>1887.80</ele>
	<time>2024-03-09T09:14:12.000Z</time>
</trkpt>
<trkpt lat="46.2583920" lon="10.5745350">
	<ele>1887.80</ele>
	<time>2024-03-09T09:14:13.000Z</time>
</trkpt>
<trkpt lat="46.2583920" lon="10.5745350">
	<ele>1887.80</ele>
	<time>2024-03-09T09:14:14.000Z</time>
</trkpt>
<trkpt lat="46.2583920" lon="10.5745350">
	<ele>1887.80</ele>
	<time>2024-03-09T09:14:15.000Z</time>
</trkpt>
<trkpt lat="46.2583920" lon="10.5745350">
	<ele>1887.80</ele>
	<time>2024-03-09T09:14:16.000Z</time>
</trkpt>
<trkpt lat="46.2583920" lon="10.5745350">
	<ele>1887.80</ele>
	<time>2024-03-09T09:14:17.000Z</time>
</trkpt>
<trkpt lat="46.2583920" lon="10.5745350">
	<ele>1887.80</ele>
	<time>2024-03-09T09:14:18.000Z</time>
</trkpt>
<trkpt lat="46.2583920" lon="10.5745350">
	<ele>1887.80</ele>
	<time>2024-03-09T09:14:19.000Z</time>
</trkpt>
<trkpt lat="46.2583920" lon="10.5745350">
	<ele>1887.80</ele>
	<time>2024-03-09T09:14:20.000Z</time>
</trkpt>
<trkpt lat="46.2583920" lon="10.5745350">
	<ele>1887.80</ele>
	<time>2024-03-09T09:14:21.000Z</time>
</trkpt>
<trkpt lat="46.2583920" lon="10.5745350">
	<ele>1887.80</ele>
	<time>2024-03-09T09:14:22.000Z</time>
</trkpt>
<trkpt lat="46.2583920" lon="10.5745350">
	<ele>1887.80</ele>
	<time>2024-03-09T09:14:23.000Z</time>
</trkpt>
<trkpt lat="46.2583920" lon="10.5745350">
	<ele>1887.80</ele>
	<time>2024-03-09T09:14:24.000Z</time>
</trkpt>
<trkpt lat="46.2583920" lon="10.5745350">
	<ele>1887.80</ele>
	<time>2024-03-09T09:14:25.000Z</time>
</trkpt>
<trkpt lat="46.2583920" lon="10.5745350">
	<ele>1887.80</ele>
	<time>2024-03-09T09:14:26.000Z</time>
</trkpt>
<trkpt lat="46.2583920" lon="10.5745350">
	<ele>1887.80</ele>
	<time>2024-03-09T09:14:27.000Z</time>
</trkpt>
<trkpt lat="46.2583920" lon="10.5745350">
	<ele>1887.80</ele>
	<time>2024-03-09T09:14:28.000Z</time>
</trkpt>
<trkpt lat="46.2583920" lon="10.5745350">
	<ele>1887.80</ele>
	<time>2024-03-09T09:14:29.000Z</time>
</trkpt>
<trkpt lat="46.2583910" lon="10.5745350">
	<ele>1887.80</ele>
	<time>2024-03-09T09:14:30.000Z</time>
</trkpt>
<trkpt lat="46.2583910" lon="10.5745350">
	<ele>1887.80</ele>
	<time>2024-03-09T09:14:31.000Z</time>
</trkpt>
<trkpt lat="46.2583910" lon="10.5745350">
	<ele>1887.80</ele>
	<time>2024-03-09T09:14:32.000Z</time>
</trkpt>
<trkpt lat="46.2583910" lon="10.5745350">
	<ele>1887.80</ele>
	<time>2024-03-09T09:14:33.000Z</time>
</trkpt>
<trkpt lat="46.2583910" lon="10.5745350">
	<ele>1887.80</ele>
	<time>2024-03-09T09:14:34.000Z</time>
</trkpt>
<trkpt lat="46.2583910" lon="10.5745350">
	<ele>1887.80</ele>
	<time>2024-03-09T09:14:35.000Z</time>
</trkpt>
<trkpt lat="46.2583910" lon="10.5745350">
	<ele>1887.80</ele>
	<time>2024-03-09T09:14:36.000Z</time>
</trkpt>
<trkpt lat="46.2583910" lon="10.5745350">
	<ele>1887.80</ele>
	<time>2024-03-09T09:14:37.000Z</time>
</trkpt>
<trkpt lat="46.2583910" lon="10.5745350">
	<ele>1887.80</ele>
	<time>2024-03-09T09:14:38.000Z</time>
</trkpt>
<trkpt lat="46.2583910" lon="10.5745350">
	<ele>1887.80</ele>
	<time>2024-03-09T09:14:39.000Z</time>
</trkpt>
<trkpt lat="46.2583910" lon="10.5745350">
	<ele>1887.80</ele>
	<time>2024-03-09T09:14:40.000Z</time>
</trkpt>
<trkpt lat="46.2583910" lon="10.5745350">
	<ele>1887.80</ele>
	<time>2024-03-09T09:14:41.000Z</time>
</trkpt>
<trkpt lat="46.2583910" lon="10.5745350">
	<ele>1887.80</ele>
	<time>2024-03-09T09:14:42.000Z</time>
</trkpt>
<trkpt lat="46.2583910" lon="10.5745350">
	<ele>1887.80</ele>
	<time>2024-03-09T09:14:43.000Z</time>
</trkpt>
<trkpt lat="46.2583910" lon="10.5745350">
	<ele>1887.80</ele>
	<time>2024-03-09T09:14:44.000Z</time>
</trkpt>
<trkpt lat="46.2583910" lon="10.5745350">
	<ele>1887.80</ele>
	<time>2024-03-09T09:14:45.000Z</time>
</trkpt>
<trkpt lat="46.2583910" lon="10.5745350">
	<ele>1887.80</ele>
	<time>2024-03-09T09:14:46.000Z</time>
</trkpt>
<trkpt lat="46.2583910" lon="10.5745350">
	<ele>1887.80</ele>
	<time>2024-03-09T09:14:47.000Z</time>
</trkpt>
<trkpt lat="46.2583910" lon="10.5745350">
	<ele>1887.80</ele>
	<time>2024-03-09T09:14:48.000Z</time>
</trkpt>
<trkpt lat="46.2583910" lon="10.5745350">
	<ele>1887.80</ele>
	<time>2024-03-09T09:14:49.000Z</time>
</trkpt>
<trkpt lat="46.2583910" lon="10.5745350">
	<ele>1887.80</ele>
	<time>2024-03-09T09:14:50.000Z</time>
</trkpt>
<trkpt lat="46.2583910" lon="10.5745350">
	<ele>1887.80</ele>
	<time>2024-03-09T09:14:51.000Z</time>
</trkpt>
<trkpt lat="46.2583910" lon="10.5745350">
	<ele>1887.80</ele>
	<time>2024-03-09T09:14:52.000Z</time>
</trkpt>
<trkpt lat="46.2583910" lon="10.5745350">
	<ele>1887.80</ele>
	<time>2024-03-09T09:14:53.000Z</time>
</trkpt>
<trkpt lat="46.2583910" lon="10.5745350">
	<ele>1887.80</ele>
	<time>2024-03-09T09:14:54.000Z</time>
</trkpt>
<trkpt lat="46.2583910" lon="10.5745350">
	<ele>1887.80</ele>
	<time>2024-03-09T09:14:55.000Z</time>
</trkpt>
<trkpt lat="46.2583900" lon="10.5745350">
	<ele>1887.80</ele>
	<time>2024-03-09T09:14:56.000Z</time>
</trkpt>
<trkpt lat="46.2583900" lon="10.5745350">
	<ele>1887.80</ele>
	<time>2024-03-09T09:14:57.000Z</time>
</trkpt>
<trkpt lat="46.2583900" lon="10.5745350">
	<ele>1887.80</ele>
	<time>2024-03-09T09:14:58.000Z</time>
</trkpt>
<trkpt lat="46.2583900" lon="10.5745350">
	<ele>1887.80</ele>
	<time>2024-03-09T09:14:59.000Z</time>
</trkpt>
<trkpt lat="46.2583900" lon="10.5745350">
	<ele>1887.80</ele>
	<time>2024-03-09T09:15:00.000Z</time>
</trkpt>
<trkpt lat="46.2583900" lon="10.5745350">
	<ele>1887.80</ele>
	<time>2024-03-09T09:15:01.000Z</time>
</trkpt>
<trkpt lat="46.2583900" lon="10.5745350">
	<ele>1887.80</ele>
	<time>2024-03-09T09:15:02.000Z</time>
</trkpt>
<trkpt lat="46.2583900" lon="10.5745350">
	<ele>1887.80</ele>
	<time>2024-03-09T09:15:03.000Z</time>
</trkpt>
<trkpt lat="46.2583900" lon="10.5745350">
	<ele>1887.80</ele>
	<time>2024-03-09T09:15:04.000Z</time>
</trkpt>
<trkpt lat="46.2583900" lon="10.5745350">
	<ele>1887.80</ele>
	<time>2024-03-09T09:15:05.000Z</time>
</trkpt>
<trkpt lat="46.2583900" lon="10.5745350">
	<ele>1887.80</ele>
	<time>2024-03-09T09:15:06.000Z</time>
</trkpt>
<trkpt lat="46.2583900" lon="10.5745350">
	<ele>1887.80</ele>
	<time>2024-03-09T09:15:07.000Z</time>
</trkpt>
<trkpt lat="46.2583900" lon="10.5745350">
	<ele>1887.80</ele>
	<time>2024-03-09T09:15:08.000Z</time>
</trkpt>
<trkpt lat="46.2583900" lon="10.5745350">
	<ele>1887.80</ele>
	<time>2024-03-09T09:15:09.000Z</time>
</trkpt>
<trkpt lat="46.2583900" lon="10.5745350">
	<ele>1887.80</ele>
	<time>2024-03-09T09:15:10.000Z</time>
</trkpt>
<trkpt lat="46.2583900" lon="10.5745350">
	<ele>1887.80</ele>
	<time>2024-03-09T09:15:11.000Z</time>
</trkpt>
<trkpt lat="46.2583900" lon="10.5745350">
	<ele>1887.80</ele>
	<time>2024-03-09T09:15:12.000Z</time>
</trkpt>
<trkpt lat="46.2583900" lon="10.5745350">
	<ele>1887.80</ele>
	<time>2024-03-09T09:15:13.000Z</time>
</trkpt>
<trkpt lat="46.2583900" lon="10.5745350">
	<ele>1887.80</ele>
	<time>2024-03-09T09:15:14.000Z</time>
</trkpt>
<trkpt lat="46.2583900" lon="10.5745350">
	<ele>1887.80</ele>
	<time>2024-03-09T09:15:15.000Z</time>
</trkpt>
<trkpt lat="46.2583900" lon="10.5745350">
	<ele>1887.80</ele>
	<time>2024-03-09T09:15:16.000Z</time>
</trkpt>
<trkpt lat="46.2583900" lon="10.5745340">
	<ele>1887.80</ele>
	<time>2024-03-09T09:15:17.000Z</time>
</trkpt>
<trkpt lat="46.2583900" lon="10.5745340">
	<ele>1887.80</ele>
	<time>2024-03-09T09:15:18.000Z</time>
</trkpt>
<trkpt lat="46.2583900" lon="10.5745340">
	<ele>1887.80</ele>
	<time>2024-03-09T09:15:19.000Z</time>
</trkpt>
<trkpt lat="46.2583900" lon="10.5745340">
	<ele>1887.80</ele>
	<time>2024-03-09T09:15:20.000Z</time>
</trkpt>
<trkpt lat="46.2583900" lon="10.5745340">
	<ele>1887.80</ele>
	<time>2024-03-09T09:15:21.000Z</time>
</trkpt>
<trkpt lat="46.2583900" lon="10.5745340">
	<ele>1887.80</ele>
	<time>2024-03-09T09:15:22.000Z</time>
</trkpt>
<trkpt lat="46.2583900" lon="10.5745340">
	<ele>1887.80</ele>
	<time>2024-03-09T09:15:23.000Z</time>
</trkpt>
<trkpt lat="46.2583900" lon="10.5745340">
	<ele>1887.80</ele>
	<time>2024-03-09T09:15:24.000Z</time>
</trkpt>
<trkpt lat="46.2583900" lon="10.5745340">
	<ele>1887.80</ele>
	<time>2024-03-09T09:15:25.000Z</time>
</trkpt>
<trkpt lat="46.2583900" lon="10.5745340">
	<ele>1887.80</ele>
	<time>2024-03-09T09:15:26.000Z</time>
</trkpt>
<trkpt lat="46.2583900" lon="10.5745340">
	<ele>1887.80</ele>
	<time>2024-03-09T09:15:27.000Z</time>
</trkpt>
<trkpt lat="46.2583900" lon="10.5745340">
	<ele>1887.80</ele>
	<time>2024-03-09T09:15:28.000Z</time>
</trkpt>
<trkpt lat="46.2583900" lon="10.5745340">
	<ele>1887.80</ele>
	<time>2024-03-09T09:15:29.000Z</time>
</trkpt>
<trkpt lat="46.2583900" lon="10.5745340">
	<ele>1887.80</ele>
	<time>2024-03-09T09:15:30.000Z</time>
</trkpt>
<trkpt lat="46.2583900" lon="10.5745340">
	<ele>1887.80</ele>
	<time>2024-03-09T09:15:31.000Z</time>
</trkpt>
<trkpt lat="46.2583900" lon="10.5745340">
	<ele>1887.80</ele>
	<time>2024-03-09T09:15:32.000Z</time>
</trkpt>
<trkpt lat="46.2583900" lon="10.5745340">
	<ele>1887.80</ele>
	<time>2024-03-09T09:15:33.000Z</time>
</trkpt>
<trkpt lat="46.2583900" lon="10.5745340">
	<ele>1887.80</ele>
	<time>2024-03-09T09:15:34.000Z</time>
</trkpt>
<trkpt lat="46.2583900" lon="10.5745340">
	<ele>1887.80</ele>
	<time>2024-03-09T09:15:35.000Z</time>
</trkpt>
<trkpt lat="46.2583900" lon="10.5745340">
	<ele>1887.80</ele>
	<time>2024-03-09T09:15:36.000Z</time>
</trkpt>
<trkpt lat="46.2583900" lon="10.5745340">
	<ele>1887.80</ele>
	<time>2024-03-09T09:15:37.000Z</time>
</trkpt>
<trkpt lat="46.2583900" lon="10.5745340">
	<ele>1887.80</ele>
	<time>2024-03-09T09:15:38.000Z</time>
</trkpt>
<trkpt lat="46.2583900" lon="10.5745340">
	<ele>1887.80</ele>
	<time>2024-03-09T09:15:39.000Z</time>
</trkpt>
<trkpt lat="46.2583900" lon="10.5745340">
	<ele>1887.80</ele>
	<time>2024-03-09T09:15:40.000Z</time>
</trkpt>
<trkpt lat="46.2583900" lon="10.5745340">
	<ele>1887.80</ele>
	<time>2024-03-09T09:15:41.000Z</time>
</trkpt>
<trkpt lat="46.2583900" lon="10.5745340">
	<ele>1887.80</ele>
	<time>2024-03-09T09:15:42.000Z</time>
</trkpt>
<trkpt lat="46.2583900" lon="10.5745340">
	<ele>1887.80</ele>
	<time>2024-03-09T09:15:43.000Z</time>
</trkpt>
<trkpt lat="46.2583900" lon="10.5745340">
	<ele>1887.80</ele>
	<time>2024-03-09T09:15:44.000Z</time>
</trkpt>
<trkpt lat="46.2583900" lon="10.5745340">
	<ele>1887.80</ele>
	<time>2024-03-09T09:15:45.000Z</time>
</trkpt>
<trkpt lat="46.2583900" lon="10.5745340">
	<ele>1887.80</ele>
	<time>2024-03-09T09:15:46.000Z</time>
</trkpt>
<trkpt lat="46.2583900" lon="10.5745340">
	<ele>1887.80</ele>
	<time>2024-03-09T09:15:47.000Z</time>
</trkpt>
<trkpt lat="46.2583900" lon="10.5745340">
	<ele>1887.80</ele>
	<time>2024-03-09T09:15:48.000Z</time>
</trkpt>
<trkpt lat="46.2583900" lon="10.5745340">
	<ele>1887.80</ele>
	<time>2024-03-09T09:15:49.000Z</time>
</trkpt>
<trkpt lat="46.2583900" lon="10.5745340">
	<ele>1887.80</ele>
	<time>2024-03-09T09:15:50.000Z</time>
</trkpt>
<trkpt lat="46.2583900" lon="10.5745340">
	<ele>1887.80</ele>
	<time>2024-03-09T09:15:51.000Z</time>
</trkpt>
<trkpt lat="46.2583900" lon="10.5745340">
	<ele>1887.80</ele>
	<time>2024-03-09T09:15:52.000Z</time>
</trkpt>
<trkpt lat="46.2583900" lon="10.5745340">
	<ele>1887.80</ele>
	<time>2024-03-09T09:15:53.000Z</time>
</trkpt>
<trkpt lat="46.2583900" lon="10.5745340">
	<ele>1887.80</ele>
	<time>2024-03-09T09:15:54.000Z</time>
</trkpt>
<trkpt lat="46.2583900" lon="10.5745340">
	<ele>1887.80</ele>
	<time>2024-03-09T09:15:55.000Z</time>
</trkpt>
<trkpt lat="46.2583890" lon="10.5745340">
	<ele>1887.80</ele>
	<time>2024-03-09T09:15:56.000Z</time>
</trkpt>
<trkpt lat="46.2583890" lon="10.5745340">
	<ele>1887.80</ele>
	<time>2024-03-09T09:15:57.000Z</time>
</trkpt>
<trkpt lat="46.2583890" lon="10.5745340">
	<ele>1887.80</ele>
	<time>2024-03-09T09:15:58.000Z</time>
</trkpt>
<trkpt lat="46.2583890" lon="10.5745340">
	<ele>1887.80</ele>
	<time>2024-03-09T09:15:59.000Z</time>
</trkpt>
<trkpt lat="46.2583890" lon="10.5745340">
	<ele>1887.80</ele>
	<time>2024-03-09T09:16:00.000Z</time>
</trkpt>
<trkpt lat="46.2583890" lon="10.5745340">
	<ele>1887.80</ele>
	<time>2024-03-09T09:16:01.000Z</time>
</trkpt>
<trkpt lat="46.2583890" lon="10.5745340">
	<ele>1887.80</ele>
	<time>2024-03-09T09:16:02.000Z</time>
</trkpt>
<trkpt lat="46.2583890" lon="10.5745340">
	<ele>1887.80</ele>
	<time>2024-03-09T09:16:03.000Z</time>
</trkpt>
<trkpt lat="46.2583890" lon="10.5745340">
	<ele>1887.80</ele>
	<time>2024-03-09T09:16:04.000Z</time>
</trkpt>
<trkpt lat="46.2583890" lon="10.5745340">
	<ele>1887.80</ele>
	<time>2024-03-09T09:16:05.000Z</time>
</trkpt>
<trkpt lat="46.2583890" lon="10.5745340">
	<ele>1887.80</ele>
	<time>2024-03-09T09:16:06.000Z</time>
</trkpt>
<trkpt lat="46.2583890" lon="10.5745340">
	<ele>1887.80</ele>
	<time>2024-03-09T09:16:07.000Z</time>
</trkpt>
<trkpt lat="46.2583890" lon="10.5745340">
	<ele>1887.80</ele>
	<time>2024-03-09T09:16:08.000Z</time>
</trkpt>
<trkpt lat="46.2583890" lon="10.5745340">
	<ele>1887.80</ele>
	<time>2024-03-09T09:16:09.000Z</time>
</trkpt>
<trkpt lat="46.2583890" lon="10.5745340">
	<ele>1887.80</ele>
	<time>2024-03-09T09:16:10.000Z</time>
</trkpt>
<trkpt lat="46.2583890" lon="10.5745340">
	<ele>1887.80</ele>
	<time>2024-03-09T09:16:11.000Z</time>
</trkpt>
<trkpt lat="46.2583890" lon="10.5745340">
	<ele>1887.80</ele>
	<time>2024-03-09T09:16:12.000Z</time>
</trkpt>
<trkpt lat="46.2583890" lon="10.5745340">
	<ele>1887.80</ele>
	<time>2024-03-09T09:16:13.000Z</time>
</trkpt>
<trkpt lat="46.2583890" lon="10.5745340">
	<ele>1887.80</ele>
	<time>2024-03-09T09:16:14.000Z</time>
</trkpt>
<trkpt lat="46.2583890" lon="10.5745340">
	<ele>1887.80</ele>
	<time>2024-03-09T09:16:15.000Z</time>
</trkpt>
<trkpt lat="46.2583890" lon="10.5745340">
	<ele>1887.80</ele>
	<time>2024-03-09T09:16:16.000Z</time>
</trkpt>
<trkpt lat="46.2583890" lon="10.5745340">
	<ele>1887.80</ele>
	<time>2024-03-09T09:16:17.000Z</time>
</trkpt>
<trkpt lat="46.2583890" lon="10.5745340">
	<ele>1887.80</ele>
	<time>2024-03-09T09:16:18.000Z</time>
</trkpt>
<trkpt lat="46.2583890" lon="10.5745340">
	<ele>1887.80</ele>
	<time>2024-03-09T09:16:19.000Z</time>
</trkpt>
<trkpt lat="46.2583890" lon="10.5745340">
	<ele>1887.80</ele>
	<time>2024-03-09T09:16:20.000Z</time>
</trkpt>
<trkpt lat="46.2583890" lon="10.5745340">
	<ele>1887.80</ele>
	<time>2024-03-09T09:16:21.000Z</time>
</trkpt>
<trkpt lat="46.2583890" lon="10.5745340">
	<ele>1887.80</ele>
	<time>2024-03-09T09:16:22.000Z</time>
</trkpt>
<trkpt lat="46.2583890" lon="10.5745340">
	<ele>1887.80</ele>
	<time>2024-03-09T09:16:23.000Z</time>
</trkpt>
<trkpt lat="46.2583890" lon="10.5745340">
	<ele>1887.80</ele>
	<time>2024-03-09T09:16:24.000Z</time>
</trkpt>
<trkpt lat="46.2583890" lon="10.5745340">
	<ele>1887.80</ele>
	<time>2024-03-09T09:16:25.000Z</time>
</trkpt>
<trkpt lat="46.2583890" lon="10.5745340">
	<ele>1887.80</ele>
	<time>2024-03-09T09:16:26.000Z</time>
</trkpt>
<trkpt lat="46.2583890" lon="10.5745340">
	<ele>1887.80</ele>
	<time>2024-03-09T09:16:27.000Z</time>
</trkpt>
<trkpt lat="46.2583890" lon="10.5745340">
	<ele>1887.80</ele>
	<time>2024-03-09T09:16:28.000Z</time>
</trkpt>
<trkpt lat="46.2583890" lon="10.5745340">
	<ele>1887.80</ele>
	<time>2024-03-09T09:16:29.000Z</time>
</trkpt>
<trkpt lat="46.2583880" lon="10.5745340">
	<ele>1887.80</ele>
	<time>2024-03-09T09:16:30.000Z</time>
</trkpt>
<trkpt lat="46.2583880" lon="10.5745340">
	<ele>1887.80</ele>
	<time>2024-03-09T09:16:31.000Z</time>
</trkpt>
<trkpt lat="46.2583890" lon="10.5745340">
	<ele>1887.80</ele>
	<time>2024-03-09T09:16:32.000Z</time>
</trkpt>
<trkpt lat="46.2583890" lon="10.5745340">
	<ele>1887.80</ele>
	<time>2024-03-09T09:16:33.000Z</time>
</trkpt>
<trkpt lat="46.2583890" lon="10.5745340">
	<ele>1887.80</ele>
	<time>2024-03-09T09:16:34.000Z</time>
</trkpt>
<trkpt lat="46.2583890" lon="10.5745340">
	<ele>1887.80</ele>
	<time>2024-03-09T09:16:35.000Z</time>
</trkpt>
<trkpt lat="46.2583890" lon="10.5745340">
	<ele>1887.80</ele>
	<time>2024-03-09T09:16:36.000Z</time>
</trkpt>
<trkpt lat="46.2583880" lon="10.5745340">
	<ele>1887.80</ele>
	<time>2024-03-09T09:16:37.000Z</time>
</trkpt>
<trkpt lat="46.2583880" lon="10.5745340">
	<ele>1887.80</ele>
	<time>2024-03-09T09:16:38.000Z</time>
</trkpt>
<trkpt lat="46.2583890" lon="10.5745340">
	<ele>1887.80</ele>
	<time>2024-03-09T09:16:39.000Z</time>
</trkpt>
<trkpt lat="46.2583890" lon="10.5745340">
	<ele>1887.80</ele>
	<time>2024-03-09T09:16:40.000Z</time>
</trkpt>
<trkpt lat="46.2583890" lon="10.5745340">
	<ele>1887.80</ele>
	<time>2024-03-09T09:16:41.000Z</time>
</trkpt>
<trkpt lat="46.2583890" lon="10.5745340">
	<ele>1887.80</ele>
	<time>2024-03-09T09:16:42.000Z</time>
</trkpt>
<trkpt lat="46.2583890" lon="10.5745340">
	<ele>1887.80</ele>
	<time>2024-03-09T09:16:43.000Z</time>
</trkpt>
<trkpt lat="46.2583890" lon="10.5745340">
	<ele>1887.80</ele>
	<time>2024-03-09T09:16:44.000Z</time>
</trkpt>
<trkpt lat="46.2583890" lon="10.5745340">
	<ele>1887.80</ele>
	<time>2024-03-09T09:16:45.000Z</time>
</trkpt>
<trkpt lat="46.2583880" lon="10.5745340">
	<ele>1887.80</ele>
	<time>2024-03-09T09:16:46.000Z</time>
</trkpt>
<trkpt lat="46.2583880" lon="10.5745340">
	<ele>1887.80</ele>
	<time>2024-03-09T09:16:47.000Z</time>
</trkpt>
<trkpt lat="46.2583880" lon="10.5745340">
	<ele>1887.80</ele>
	<time>2024-03-09T09:16:48.000Z</time>
</trkpt>
<trkpt lat="46.2583880" lon="10.5745340">
	<ele>1887.80</ele>
	<time>2024-03-09T09:16:49.000Z</time>
</trkpt>
<trkpt lat="46.2583880" lon="10.5745340">
	<ele>1887.80</ele>
	<time>2024-03-09T09:16:50.000Z</time>
</trkpt>
<trkpt lat="46.2583880" lon="10.5745340">
	<ele>1887.80</ele>
	<time>2024-03-09T09:16:51.000Z</time>
</trkpt>
<trkpt lat="46.2583880" lon="10.5745340">
	<ele>1887.80</ele>
	<time>2024-03-09T09:16:52.000Z</time>
</trkpt>
<trkpt lat="46.2583880" lon="10.5745340">
	<ele>1887.80</ele>
	<time>2024-03-09T09:16:53.000Z</time>
</trkpt>
<trkpt lat="46.2583880" lon="10.5745340">
	<ele>1887.80</ele>
	<time>2024-03-09T09:16:54.000Z</time>
</trkpt>
<trkpt lat="46.2583880" lon="10.5745340">
	<ele>1887.80</ele>
	<time>2024-03-09T09:16:55.000Z</time>
</trkpt>
<trkpt lat="46.2583880" lon="10.5745340">
	<ele>1887.80</ele>
	<time>2024-03-09T09:16:56.000Z</time>
</trkpt>
<trkpt lat="46.2583880" lon="10.5745340">
	<ele>1887.80</ele>
	<time>2024-03-09T09:16:57.000Z</time>
</trkpt>
<trkpt lat="46.2583880" lon="10.5745340">
	<ele>1887.80</ele>
	<time>2024-03-09T09:16:58.000Z</time>
</trkpt>
<trkpt lat="46.2583880" lon="10.5745340">
	<ele>1887.80</ele>
	<time>2024-03-09T09:16:59.000Z</time>
</trkpt>
<trkpt lat="46.2583880" lon="10.5745340">
	<ele>1887.80</ele>
	<time>2024-03-09T09:17:00.000Z</time>
</trkpt>
<trkpt lat="46.2583880" lon="10.5745340">
	<ele>1887.80</ele>
	<time>2024-03-09T09:17:01.000Z</time>
</trkpt>
<trkpt lat="46.2583880" lon="10.5745340">
	<ele>1887.80</ele>
	<time>2024-03-09T09:17:02.000Z</time>
</trkpt>
<trkpt lat="46.2583880" lon="10.5745340">
	<ele>1887.80</ele>
	<time>2024-03-09T09:17:03.000Z</time>
</trkpt>
<trkpt lat="46.2583880" lon="10.5745340">
	<ele>1887.80</ele>
	<time>2024-03-09T09:17:04.000Z</time>
</trkpt>
<trkpt lat="46.2583880" lon="10.5745340">
	<ele>1887.80</ele>
	<time>2024-03-09T09:17:05.000Z</time>
</trkpt>
<trkpt lat="46.2583880" lon="10.5745340">
	<ele>1887.80</ele>
	<time>2024-03-09T09:17:06.000Z</time>
</trkpt>
<trkpt lat="46.2583880" lon="10.5745340">
	<ele>1887.80</ele>
	<time>2024-03-09T09:17:07.000Z</time>
</trkpt>
<trkpt lat="46.2583880" lon="10.5745340">
	<ele>1887.80</ele>
	<time>2024-03-09T09:17:08.000Z</time>
</trkpt>
<trkpt lat="46.2583880" lon="10.5745340">
	<ele>1887.80</ele>
	<time>2024-03-09T09:17:09.000Z</time>
</trkpt>
<trkpt lat="46.2583880" lon="10.5745340">
	<ele>1887.80</ele>
	<time>2024-03-09T09:17:10.000Z</time>
</trkpt>
<trkpt lat="46.2583880" lon="10.5745340">
	<ele>1887.80</ele>
	<time>2024-03-09T09:17:11.000Z</time>
</trkpt>
<trkpt lat="46.2583880" lon="10.5745340">
	<ele>1887.80</ele>
	<time>2024-03-09T09:17:12.000Z</time>
</trkpt>
<trkpt lat="46.2583880" lon="10.5745340">
	<ele>1887.80</ele>
	<time>2024-03-09T09:17:13.000Z</time>
</trkpt>
<trkpt lat="46.2583880" lon="10.5745340">
	<ele>1887.80</ele>
	<time>2024-03-09T09:17:14.000Z</time>
</trkpt>
<trkpt lat="46.2583880" lon="10.5745340">
	<ele>1887.80</ele>
	<time>2024-03-09T09:17:15.000Z</time>
</trkpt>
<trkpt lat="46.2583880" lon="10.5745340">
	<ele>1887.80</ele>
	<time>2024-03-09T09:17:16.000Z</time>
</trkpt>
<trkpt lat="46.2583880" lon="10.5745340">
	<ele>1887.80</ele>
	<time>2024-03-09T09:17:17.000Z</time>
</trkpt>
<trkpt lat="46.2583880" lon="10.5745340">
	<ele>1887.80</ele>
	<time>2024-03-09T09:17:18.000Z</time>
</trkpt>
<trkpt lat="46.2583880" lon="10.5745340">
	<ele>1887.80</ele>
	<time>2024-03-09T09:17:19.000Z</time>
</trkpt>
<trkpt lat="46.2583880" lon="10.5745340">
	<ele>1887.80</ele>
	<time>2024-03-09T09:17:20.000Z</time>
</trkpt>
<trkpt lat="46.2583880" lon="10.5745340">
	<ele>1887.80</ele>
	<time>2024-03-09T09:17:21.000Z</time>
</trkpt>
<trkpt lat="46.2583880" lon="10.5745340">
	<ele>1887.80</ele>
	<time>2024-03-09T09:17:22.000Z</time>
</trkpt>
<trkpt lat="46.2583880" lon="10.5745340">
	<ele>1887.80</ele>
	<time>2024-03-09T09:17:23.000Z</time>
</trkpt>
<trkpt lat="46.2583880" lon="10.5745340">
	<ele>1887.80</ele>
	<time>2024-03-09T09:17:24.000Z</time>
</trkpt>
<trkpt lat="46.2583880" lon="10.5745340">
	<ele>1887.80</ele>
	<time>2024-03-09T09:17:25.000Z</time>
</trkpt>
<trkpt lat="46.2583880" lon="10.5745340">
	<ele>1887.80</ele>
	<time>2024-03-09T09:17:26.000Z</time>
</trkpt>
<trkpt lat="46.2583880" lon="10.5745340">
	<ele>1887.80</ele>
	<time>2024-03-09T09:17:27.000Z</time>
</trkpt>
<trkpt lat="46.2583880" lon="10.5745330">
	<ele>1887.80</ele>
	<time>2024-03-09T09:17:28.000Z</time>
</trkpt>
<trkpt lat="46.2583880" lon="10.5745330">
	<ele>1887.80</ele>
	<time>2024-03-09T09:17:29.000Z</time>
</trkpt>
<trkpt lat="46.2583880" lon="10.5745330">
	<ele>1887.80</ele>
	<time>2024-03-09T09:17:30.000Z</time>
</trkpt>
<trkpt lat="46.2583880" lon="10.5745340">
	<ele>1887.80</ele>
	<time>2024-03-09T09:17:31.000Z</time>
</trkpt>
<trkpt lat="46.2583870" lon="10.5745330">
	<ele>1887.80</ele>
	<time>2024-03-09T09:17:32.000Z</time>
</trkpt>
<trkpt lat="46.2583870" lon="10.5745330">
	<ele>1887.80</ele>
	<time>2024-03-09T09:17:33.000Z</time>
</trkpt>
<trkpt lat="46.2583870" lon="10.5745330">
	<ele>1887.80</ele>
	<time>2024-03-09T09:17:34.000Z</time>
</trkpt>
<trkpt lat="46.2583870" lon="10.5745330">
	<ele>1887.80</ele>
	<time>2024-03-09T09:17:35.000Z</time>
</trkpt>
<trkpt lat="46.2583870" lon="10.5745340">
	<ele>1887.80</ele>
	<time>2024-03-09T09:17:36.000Z</time>
</trkpt>
<trkpt lat="46.2583870" lon="10.5745340">
	<ele>1887.80</ele>
	<time>2024-03-09T09:17:37.000Z</time>
</trkpt>
<trkpt lat="46.2583870" lon="10.5745340">
	<ele>1887.80</ele>
	<time>2024-03-09T09:17:38.000Z</time>
</trkpt>
<trkpt lat="46.2583870" lon="10.5745340">
	<ele>1887.80</ele>
	<time>2024-03-09T09:17:39.000Z</time>
</trkpt>
<trkpt lat="46.2583870" lon="10.5745340">
	<ele>1887.80</ele>
	<time>2024-03-09T09:17:40.000Z</time>
</trkpt>
<trkpt lat="46.2583870" lon="10.5745340">
	<ele>1887.80</ele>
	<time>2024-03-09T09:17:41.000Z</time>
</trkpt>
<trkpt lat="46.2583870" lon="10.5745340">
	<ele>1887.80</ele>
	<time>2024-03-09T09:17:42.000Z</time>
</trkpt>
<trkpt lat="46.2583870" lon="10.5745340">
	<ele>1887.80</ele>
	<time>2024-03-09T09:17:43.000Z</time>
</trkpt>
<trkpt lat="46.2583870" lon="10.5745340">
	<ele>1887.80</ele>
	<time>2024-03-09T09:17:44.000Z</time>
</trkpt>
<trkpt lat="46.2583870" lon="10.5745340">
	<ele>1887.80</ele>
	<time>2024-03-09T09:17:45.000Z</time>
</trkpt>
<trkpt lat="46.2583870" lon="10.5745340">
	<ele>1887.80</ele>
	<time>2024-03-09T09:17:46.000Z</time>
</trkpt>
<trkpt lat="46.2583870" lon="10.5745340">
	<ele>1887.80</ele>
	<time>2024-03-09T09:17:47.000Z</time>
</trkpt>
<trkpt lat="46.2583870" lon="10.5745340">
	<ele>1887.80</ele>
	<time>2024-03-09T09:17:48.000Z</time>
</trkpt>
<trkpt lat="46.2583870" lon="10.5745340">
	<ele>1887.80</ele>
	<time>2024-03-09T09:17:49.000Z</time>
</trkpt>
<trkpt lat="46.2583870" lon="10.5745330">
	<ele>1887.80</ele>
	<time>2024-03-09T09:17:50.000Z</time>
</trkpt>
<trkpt lat="46.2583870" lon="10.5745330">
	<ele>1887.80</ele>
	<time>2024-03-09T09:17:51.000Z</time>
</trkpt>
<trkpt lat="46.2583870" lon="10.5745330">
	<ele>1887.80</ele>
	<time>2024-03-09T09:17:52.000Z</time>
</trkpt>
<trkpt lat="46.2583870" lon="10.5745330">
	<ele>1887.80</ele>
	<time>2024-03-09T09:17:53.000Z</time>
</trkpt>
<trkpt lat="46.2583870" lon="10.5745330">
	<ele>1887.80</ele>
	<time>2024-03-09T09:17:54.000Z</time>
</trkpt>
<trkpt lat="46.2583870" lon="10.5745330">
	<ele>1887.80</ele>
	<time>2024-03-09T09:17:55.000Z</time>
</trkpt>
<trkpt lat="46.2583870" lon="10.5745330">
	<ele>1887.80</ele>
	<time>2024-03-09T09:17:56.000Z</time>
</trkpt>
<trkpt lat="46.2583870" lon="10.5745330">
	<ele>1887.80</ele>
	<time>2024-03-09T09:17:57.000Z</time>
</trkpt>
<trkpt lat="46.2583870" lon="10.5745330">
	<ele>1887.80</ele>
	<time>2024-03-09T09:17:58.000Z</time>
</trkpt>
<trkpt lat="46.2583870" lon="10.5745330">
	<ele>1887.80</ele>
	<time>2024-03-09T09:17:59.000Z</time>
</trkpt>
<trkpt lat="46.2583870" lon="10.5745330">
	<ele>1887.80</ele>
	<time>2024-03-09T09:18:00.000Z</time>
</trkpt>
<trkpt lat="46.2583870" lon="10.5745330">
	<ele>1887.80</ele>
	<time>2024-03-09T09:18:01.000Z</time>
</trkpt>
<trkpt lat="46.2583870" lon="10.5745330">
	<ele>1887.80</ele>
	<time>2024-03-09T09:18:02.000Z</time>
</trkpt>
<trkpt lat="46.2583870" lon="10.5745330">
	<ele>1887.80</ele>
	<time>2024-03-09T09:18:03.000Z</time>
</trkpt>
<trkpt lat="46.2583870" lon="10.5745330">
	<ele>1887.80</ele>
	<time>2024-03-09T09:18:04.000Z</time>
</trkpt>
<trkpt lat="46.2583870" lon="10.5745330">
	<ele>1887.80</ele>
	<time>2024-03-09T09:18:05.000Z</time>
</trkpt>
<trkpt lat="46.2583870" lon="10.5745330">
	<ele>1887.80</ele>
	<time>2024-03-09T09:18:06.000Z</time>
</trkpt>
<trkpt lat="46.2583870" lon="10.5745330">
	<ele>1887.80</ele>
	<time>2024-03-09T09:18:07.000Z</time>
</trkpt>
<trkpt lat="46.2583870" lon="10.5745330">
	<ele>1887.80</ele>
	<time>2024-03-09T09:18:08.000Z</time>
</trkpt>
<trkpt lat="46.2583870" lon="10.5745330">
	<ele>1887.80</ele>
	<time>2024-03-09T09:18:09.000Z</time>
</trkpt>
<trkpt lat="46.2583870" lon="10.5745330">
	<ele>1887.80</ele>
	<time>2024-03-09T09:18:10.000Z</time>
</trkpt>
<trkpt lat="46.2583870" lon="10.5745330">
	<ele>1887.80</ele>
	<time>2024-03-09T09:18:11.000Z</time>
</trkpt>
<trkpt lat="46.2583870" lon="10.5745330">
	<ele>1887.80</ele>
	<time>2024-03-09T09:18:12.000Z</time>
</trkpt>
<trkpt lat="46.2583870" lon="10.5745330">
	<ele>1887.80</ele>
	<time>2024-03-09T09:18:13.000Z</time>
</trkpt>
<trkpt lat="46.2583870" lon="10.5745330">
	<ele>1887.80</ele>
	<time>2024-03-09T09:18:14.000Z</time>
</trkpt>
<trkpt lat="46.2583870" lon="10.5745330">
	<ele>1887.80</ele>
	<time>2024-03-09T09:18:15.000Z</time>
</trkpt>
<trkpt lat="46.2583870" lon="10.5745330">
	<ele>1887.80</ele>
	<time>2024-03-09T09:18:16.000Z</time>
</trkpt>
<trkpt lat="46.2583870" lon="10.5745330">
	<ele>1887.80</ele>
	<time>2024-03-09T09:18:17.000Z</time>
</trkpt>
<trkpt lat="46.2583870" lon="10.5745330">
	<ele>1887.80</ele>
	<time>2024-03-09T09:18:18.000Z</time>
</trkpt>
<trkpt lat="46.2583870" lon="10.5745330">
	<ele>1887.80</ele>
	<time>2024-03-09T09:18:19.000Z</time>
</trkpt>
<trkpt lat="46.2583860" lon="10.5745330">
	<ele>1887.80</ele>
	<time>2024-03-09T09:18:20.000Z</time>
</trkpt>
<trkpt lat="46.2583860" lon="10.5745330">
	<ele>1887.80</ele>
	<time>2024-03-09T09:18:21.000Z</time>
</trkpt>
<trkpt lat="46.2583860" lon="10.5745330">
	<ele>1887.80</ele>
	<time>2024-03-09T09:18:22.000Z</time>
</trkpt>
<trkpt lat="46.2583860" lon="10.5745330">
	<ele>1887.80</ele>
	<time>2024-03-09T09:18:23.000Z</time>
</trkpt>
<trkpt lat="46.2583860" lon="10.5745330">
	<ele>1887.80</ele>
	<time>2024-03-09T09:18:24.000Z</time>
</trkpt>
<trkpt lat="46.2583860" lon="10.5745330">
	<ele>1887.80</ele>
	<time>2024-03-09T09:18:25.000Z</time>
</trkpt>
<trkpt lat="46.2583860" lon="10.5745330">
	<ele>1887.80</ele>
	<time>2024-03-09T09:18:26.000Z</time>
</trkpt>
<trkpt lat="46.2583860" lon="10.5745330">
	<ele>1887.80</ele>
	<time>2024-03-09T09:18:27.000Z</time>
</trkpt>
<trkpt lat="46.2583860" lon="10.5745330">
	<ele>1887.80</ele>
	<time>2024-03-09T09:18:28.000Z</time>
</trkpt>
<trkpt lat="46.2583860" lon="10.5745330">
	<ele>1887.80</ele>
	<time>2024-03-09T09:18:29.000Z</time>
</trkpt>
<trkpt lat="46.2583860" lon="10.5745320">
	<ele>1887.80</ele>
	<time>2024-03-09T09:18:30.000Z</time>
</trkpt>
<trkpt lat="46.2583860" lon="10.5745330">
	<ele>1887.80</ele>
	<time>2024-03-09T09:18:31.000Z</time>
</trkpt>
<trkpt lat="46.2583860" lon="10.5745330">
	<ele>1887.80</ele>
	<time>2024-03-09T09:18:32.000Z</time>
</trkpt>
<trkpt lat="46.2583860" lon="10.5745330">
	<ele>1887.80</ele>
	<time>2024-03-09T09:18:33.000Z</time>
</trkpt>
<trkpt lat="46.2583860" lon="10.5745330">
	<ele>1887.80</ele>
	<time>2024-03-09T09:18:34.000Z</time>
</trkpt>
<trkpt lat="46.2583860" lon="10.5745320">
	<ele>1887.80</ele>
	<time>2024-03-09T09:18:35.000Z</time>
</trkpt>
<trkpt lat="46.2583860" lon="10.5745330">
	<ele>1887.80</ele>
	<time>2024-03-09T09:18:36.000Z</time>
</trkpt>
<trkpt lat="46.2583860" lon="10.5745320">
	<ele>1887.80</ele>
	<time>2024-03-09T09:18:37.000Z</time>
</trkpt>
<trkpt lat="46.2583860" lon="10.5745320">
	<ele>1887.80</ele>
	<time>2024-03-09T09:18:38.000Z</time>
</trkpt>
<trkpt lat="46.2583860" lon="10.5745320">
	<ele>1887.80</ele>
	<time>2024-03-09T09:18:39.000Z</time>
</trkpt>
<trkpt lat="46.2583860" lon="10.5745320">
	<ele>1887.80</ele>
	<time>2024-03-09T09:18:40.000Z</time>
</trkpt>
<trkpt lat="46.2583860" lon="10.5745320">
	<ele>1887.80</ele>
	<time>2024-03-09T09:18:41.000Z</time>
</trkpt>
<trkpt lat="46.2583860" lon="10.5745320">
	<ele>1887.80</ele>
	<time>2024-03-09T09:18:42.000Z</time>
</trkpt>
<trkpt lat="46.2583860" lon="10.5745320">
	<ele>1887.80</ele>
	<time>2024-03-09T09:18:43.000Z</time>
</trkpt>
<trkpt lat="46.2583860" lon="10.5745320">
	<ele>1887.80</ele>
	<time>2024-03-09T09:18:44.000Z</time>
</trkpt>
<trkpt lat="46.2583860" lon="10.5745320">
	<ele>1887.80</ele>
	<time>2024-03-09T09:18:45.000Z</time>
</trkpt>
<trkpt lat="46.2583860" lon="10.5745320">
	<ele>1887.80</ele>
	<time>2024-03-09T09:18:46.000Z</time>
</trkpt>
<trkpt lat="46.2583860" lon="10.5745320">
	<ele>1887.80</ele>
	<time>2024-03-09T09:18:47.000Z</time>
</trkpt>
<trkpt lat="46.2583860" lon="10.5745320">
	<ele>1887.80</ele>
	<time>2024-03-09T09:18:48.000Z</time>
</trkpt>
<trkpt lat="46.2583860" lon="10.5745320">
	<ele>1887.80</ele>
	<time>2024-03-09T09:18:49.000Z</time>
</trkpt>
<trkpt lat="46.2583860" lon="10.5745320">
	<ele>1887.80</ele>
	<time>2024-03-09T09:18:50.000Z</time>
</trkpt>
<trkpt lat="46.2583860" lon="10.5745320">
	<ele>1887.80</ele>
	<time>2024-03-09T09:18:51.000Z</time>
</trkpt>
<trkpt lat="46.2583860" lon="10.5745320">
	<ele>1887.80</ele>
	<time>2024-03-09T09:18:52.000Z</time>
</trkpt>
<trkpt lat="46.2583860" lon="10.5745320">
	<ele>1887.80</ele>
	<time>2024-03-09T09:18:53.000Z</time>
</trkpt>
<trkpt lat="46.2583860" lon="10.5745320">
	<ele>1887.80</ele>
	<time>2024-03-09T09:18:54.000Z</time>
</trkpt>
<trkpt lat="46.2583860" lon="10.5745320">
	<ele>1887.80</ele>
	<time>2024-03-09T09:18:55.000Z</time>
</trkpt>
<trkpt lat="46.2583860" lon="10.5745320">
	<ele>1887.80</ele>
	<time>2024-03-09T09:18:56.000Z</time>
</trkpt>
<trkpt lat="46.2583860" lon="10.5745320">
	<ele>1887.80</ele>
	<time>2024-03-09T09:18:57.000Z</time>
</trkpt>
<trkpt lat="46.2583860" lon="10.5745320">
	<ele>1887.80</ele>
	<time>2024-03-09T09:18:58.000Z</time>
</trkpt>
<trkpt lat="46.2583860" lon="10.5745320">
	<ele>1887.80</ele>
	<time>2024-03-09T09:18:59.000Z</time>
</trkpt>
<trkpt lat="46.2583860" lon="10.5745320">
	<ele>1887.80</ele>
	<time>2024-03-09T09:19:00.000Z</time>
</trkpt>
<trkpt lat="46.2583860" lon="10.5745320">
	<ele>1887.80</ele>
	<time>2024-03-09T09:19:01.000Z</time>
</trkpt>
<trkpt lat="46.2583860" lon="10.5745320">
	<ele>1887.80</ele>
	<time>2024-03-09T09:19:02.000Z</time>
</trkpt>
<trkpt lat="46.2583860" lon="10.5745320">
	<ele>1887.80</ele>
	<time>2024-03-09T09:19:03.000Z</time>
</trkpt>
<trkpt lat="46.2583860" lon="10.5745320">
	<ele>1887.80</ele>
	<time>2024-03-09T09:19:04.000Z</time>
</trkpt>
<trkpt lat="46.2583860" lon="10.5745320">
	<ele>1887.80</ele>
	<time>2024-03-09T09:19:05.000Z</time>
</trkpt>
<trkpt lat="46.2583860" lon="10.5745320">
	<ele>1887.80</ele>
	<time>2024-03-09T09:19:06.000Z</time>
</trkpt>
<trkpt lat="46.2583860" lon="10.5745320">
	<ele>1887.80</ele>
	<time>2024-03-09T09:19:07.000Z</time>
</trkpt>
<trkpt lat="46.2583860" lon="10.5745320">
	<ele>1887.80</ele>
	<time>2024-03-09T09:19:08.000Z</time>
</trkpt>
<trkpt lat="46.2583860" lon="10.5745320">
	<ele>1887.80</ele>
	<time>2024-03-09T09:19:09.000Z</time>
</trkpt>
<trkpt lat="46.2583860" lon="10.5745320">
	<ele>1887.80</ele>
	<time>2024-03-09T09:19:10.000Z</time>
</trkpt>
<trkpt lat="46.2583860" lon="10.5745320">
	<ele>1887.80</ele>
	<time>2024-03-09T09:19:11.000Z</time>
</trkpt>
<trkpt lat="46.2583860" lon="10.5745320">
	<ele>1887.80</ele>
	<time>2024-03-09T09:19:12.000Z</time>
</trkpt>
<trkpt lat="46.2583860" lon="10.5745320">
	<ele>1887.80</ele>
	<time>2024-03-09T09:19:13.000Z</time>
</trkpt>
<trkpt lat="46.2583860" lon="10.5745320">
	<ele>1887.80</ele>
	<time>2024-03-09T09:19:14.000Z</time>
</trkpt>
<trkpt lat="46.2583860" lon="10.5745320">
	<ele>1887.80</ele>
	<time>2024-03-09T09:19:15.000Z</time>
</trkpt>
<trkpt lat="46.2583860" lon="10.5745320">
	<ele>1887.80</ele>
	<time>2024-03-09T09:19:16.000Z</time>
</trkpt>
<trkpt lat="46.2583860" lon="10.5745320">
	<ele>1887.80</ele>
	<time>2024-03-09T09:19:17.000Z</time>
</trkpt>
<trkpt lat="46.2583860" lon="10.5745320">
	<ele>1887.80</ele>
	<time>2024-03-09T09:19:18.000Z</time>
</trkpt>
<trkpt lat="46.2583860" lon="10.5745320">
	<ele>1887.80</ele>
	<time>2024-03-09T09:19:19.000Z</time>
</trkpt>
<trkpt lat="46.2583860" lon="10.5745320">
	<ele>1887.80</ele>
	<time>2024-03-09T09:19:20.000Z</time>
</trkpt>
<trkpt lat="46.2583860" lon="10.5745320">
	<ele>1887.80</ele>
	<time>2024-03-09T09:19:21.000Z</time>
</trkpt>
<trkpt lat="46.2583860" lon="10.5745320">
	<ele>1887.80</ele>
	<time>2024-03-09T09:19:22.000Z</time>
</trkpt>
<trkpt lat="46.2583860" lon="10.5745320">
	<ele>1887.80</ele>
	<time>2024-03-09T09:19:23.000Z</time>
</trkpt>
<trkpt lat="46.2583860" lon="10.5745320">
	<ele>1887.80</ele>
	<time>2024-03-09T09:19:24.000Z</time>
</trkpt>
<trkpt lat="46.2583860" lon="10.5745320">
	<ele>1887.80</ele>
	<time>2024-03-09T09:19:25.000Z</time>
</trkpt>
<trkpt lat="46.2583850" lon="10.5745320">
	<ele>1887.80</ele>
	<time>2024-03-09T09:19:26.000Z</time>
</trkpt>
<trkpt lat="46.2583850" lon="10.5745320">
	<ele>1887.80</ele>
	<time>2024-03-09T09:19:27.000Z</time>
</trkpt>
<trkpt lat="46.2583850" lon="10.5745320">
	<ele>1887.80</ele>
	<time>2024-03-09T09:19:28.000Z</time>
</trkpt>
<trkpt lat="46.2583860" lon="10.5745320">
	<ele>1887.80</ele>
	<time>2024-03-09T09:19:29.000Z</time>
</trkpt>
<trkpt lat="46.2583860" lon="10.5745320">
	<ele>1887.80</ele>
	<time>2024-03-09T09:19:30.000Z</time>
</trkpt>
<trkpt lat="46.2583860" lon="10.5745320">
	<ele>1887.80</ele>
	<time>2024-03-09T09:19:31.000Z</time>
</trkpt>
<trkpt lat="46.2583850" lon="10.5745320">
	<ele>1887.80</ele>
	<time>2024-03-09T09:19:32.000Z</time>
</trkpt>
<trkpt lat="46.2583850" lon="10.5745320">
	<ele>1887.80</ele>
	<time>2024-03-09T09:19:33.000Z</time>
</trkpt>
<trkpt lat="46.2583850" lon="10.5745320">
	<ele>1887.80</ele>
	<time>2024-03-09T09:19:34.000Z</time>
</trkpt>
<trkpt lat="46.2583850" lon="10.5745320">
	<ele>1887.80</ele>
	<time>2024-03-09T09:19:35.000Z</time>
</trkpt>
<trkpt lat="46.2583860" lon="10.5745320">
	<ele>1887.80</ele>
	<time>2024-03-09T09:19:36.000Z</time>
</trkpt>
<trkpt lat="46.2583860" lon="10.5745320">
	<ele>1887.80</ele>
	<time>2024-03-09T09:19:37.000Z</time>
</trkpt>
<trkpt lat="46.2583860" lon="10.5745320">
	<ele>1887.80</ele>
	<time>2024-03-09T09:19:38.000Z</time>
</trkpt>
<trkpt lat="46.2583860" lon="10.5745320">
	<ele>1887.80</ele>
	<time>2024-03-09T09:19:39.000Z</time>
</trkpt>
<trkpt lat="46.2583860" lon="10.5745320">
	<ele>1887.80</ele>
	<time>2024-03-09T09:19:40.000Z</time>
</trkpt>
<trkpt lat="46.2583860" lon="10.5745320">
	<ele>1887.80</ele>
	<time>2024-03-09T09:19:41.000Z</time>
</trkpt>
<trkpt lat="46.2583860" lon="10.5745320">
	<ele>1887.80</ele>
	<time>2024-03-09T09:19:42.000Z</time>
</trkpt>
<trkpt lat="46.2583860" lon="10.5745320">
	<ele>1887.80</ele>
	<time>2024-03-09T09:19:43.000Z</time>
</trkpt>
<trkpt lat="46.2583860" lon="10.5745320">
	<ele>1887.80</ele>
	<time>2024-03-09T09:19:44.000Z</time>
</trkpt>
<trkpt lat="46.2583860" lon="10.5745310">
	<ele>1887.80</ele>
	<time>2024-03-09T09:19:45.000Z</time>
</trkpt>
<trkpt lat="46.2583860" lon="10.5745310">
	<ele>1887.80</ele>
	<time>2024-03-09T09:19:46.000Z</time>
</trkpt>
<trkpt lat="46.2583860" lon="10.5745310">
	<ele>1887.80</ele>
	<time>2024-03-09T09:19:47.000Z</time>
</trkpt>
<trkpt lat="46.2583860" lon="10.5745310">
	<ele>1887.80</ele>
	<time>2024-03-09T09:19:48.000Z</time>
</trkpt>
<trkpt lat="46.2583860" lon="10.5745310">
	<ele>1887.80</ele>
	<time>2024-03-09T09:19:49.000Z</time>
</trkpt>
<trkpt lat="46.2583860" lon="10.5745310">
	<ele>1887.80</ele>
	<time>2024-03-09T09:19:50.000Z</time>
</trkpt>
<trkpt lat="46.2583860" lon="10.5745310">
	<ele>1887.80</ele>
	<time>2024-03-09T09:19:51.000Z</time>
</trkpt>
<trkpt lat="46.2583860" lon="10.5745310">
	<ele>1887.80</ele>
	<time>2024-03-09T09:19:52.000Z</time>
</trkpt>
<trkpt lat="46.2583860" lon="10.5745310">
	<ele>1887.80</ele>
	<time>2024-03-09T09:19:53.000Z</time>
</trkpt>
<trkpt lat="46.2583860" lon="10.5745310">
	<ele>1887.80</ele>
	<time>2024-03-09T09:19:54.000Z</time>
</trkpt>
<trkpt lat="46.2583860" lon="10.5745310">
	<ele>1887.80</ele>
	<time>2024-03-09T09:19:55.000Z</time>
</trkpt>
<trkpt lat="46.2583860" lon="10.5745310">
	<ele>1887.80</ele>
	<time>2024-03-09T09:19:56.000Z</time>
</trkpt>
<trkpt lat="46.2583860" lon="10.5745310">
	<ele>1887.80</ele>
	<time>2024-03-09T09:19:57.000Z</time>
</trkpt>
<trkpt lat="46.2583860" lon="10.5745310">
	<ele>1887.80</ele>
	<time>2024-03-09T09:19:58.000Z</time>
</trkpt>
<trkpt lat="46.2583860" lon="10.5745310">
	<ele>1887.80</ele>
	<time>2024-03-09T09:19:59.000Z</time>
</trkpt>
<trkpt lat="46.2583860" lon="10.5745310">
	<ele>1887.80</ele>
	<time>2024-03-09T09:20:00.000Z</time>
</trkpt>
<trkpt lat="46.2583860" lon="10.5745310">
	<ele>1887.80</ele>
	<time>2024-03-09T09:20:01.000Z</time>
</trkpt>
<trkpt lat="46.2583860" lon="10.5745310">
	<ele>1887.80</ele>
	<time>2024-03-09T09:20:02.000Z</time>
</trkpt>
<trkpt lat="46.2583860" lon="10.5745310">
	<ele>1887.80</ele>
	<time>2024-03-09T09:20:03.000Z</time>
</trkpt>
<trkpt lat="46.2583860" lon="10.5745310">
	<ele>1887.80</ele>
	<time>2024-03-09T09:20:04.000Z</time>
</trkpt>
<trkpt lat="46.2583860" lon="10.5745310">
	<ele>1887.80</ele>
	<time>2024-03-09T09:20:05.000Z</time>
</trkpt>
<trkpt lat="46.2583860" lon="10.5745310">
	<ele>1887.80</ele>
	<time>2024-03-09T09:20:06.000Z</time>
</trkpt>
<trkpt lat="46.2583860" lon="10.5745310">
	<ele>1887.80</ele>
	<time>2024-03-09T09:20:07.000Z</time>
</trkpt>
<trkpt lat="46.2583860" lon="10.5745310">
	<ele>1887.80</ele>
	<time>2024-03-09T09:20:08.000Z</time>
</trkpt>
<trkpt lat="46.2583860" lon="10.5745310">
	<ele>1887.80</ele>
	<time>2024-03-09T09:20:09.000Z</time>
</trkpt>
<trkpt lat="46.2583860" lon="10.5745310">
	<ele>1887.80</ele>
	<time>2024-03-09T09:20:10.000Z</time>
</trkpt>
<trkpt lat="46.2583860" lon="10.5745310">
	<ele>1887.80</ele>
	<time>2024-03-09T09:20:11.000Z</time>
</trkpt>
<trkpt lat="46.2583860" lon="10.5745310">
	<ele>1887.80</ele>
	<time>2024-03-09T09:20:12.000Z</time>
</trkpt>
<trkpt lat="46.2583860" lon="10.5745310">
	<ele>1887.80</ele>
	<time>2024-03-09T09:20:13.000Z</time>
</trkpt>
<trkpt lat="46.2583860" lon="10.5745310">
	<ele>1887.80</ele>
	<time>2024-03-09T09:20:14.000Z</time>
</trkpt>
<trkpt lat="46.2583860" lon="10.5745310">
	<ele>1887.80</ele>
	<time>2024-03-09T09:20:15.000Z</time>
</trkpt>
<trkpt lat="46.2583860" lon="10.5745310">
	<ele>1887.80</ele>
	<time>2024-03-09T09:20:16.000Z</time>
</trkpt>
<trkpt lat="46.2583860" lon="10.5745310">
	<ele>1887.80</ele>
	<time>2024-03-09T09:20:17.000Z</time>
</trkpt>
<trkpt lat="46.2583860" lon="10.5745310">
	<ele>1887.80</ele>
	<time>2024-03-09T09:20:18.000Z</time>
</trkpt>
<trkpt lat="46.2583860" lon="10.5745310">
	<ele>1887.80</ele>
	<time>2024-03-09T09:20:19.000Z</time>
</trkpt>
<trkpt lat="46.2583860" lon="10.5745310">
	<ele>1887.80</ele>
	<time>2024-03-09T09:20:20.000Z</time>
</trkpt>
<trkpt lat="46.2583860" lon="10.5745310">
	<ele>1887.80</ele>
	<time>2024-03-09T09:20:21.000Z</time>
</trkpt>
<trkpt lat="46.2583860" lon="10.5745310">
	<ele>1887.80</ele>
	<time>2024-03-09T09:20:22.000Z</time>
</trkpt>
<trkpt lat="46.2583860" lon="10.5745310">
	<ele>1887.80</ele>
	<time>2024-03-09T09:20:23.000Z</time>
</trkpt>
<trkpt lat="46.2583860" lon="10.5745310">
	<ele>1887.80</ele>
	<time>2024-03-09T09:20:24.000Z</time>
</trkpt>
<trkpt lat="46.2583860" lon="10.5745300">
	<ele>1887.80</ele>
	<time>2024-03-09T09:20:25.000Z</time>
</trkpt>
<trkpt lat="46.2583860" lon="10.5745300">
	<ele>1887.80</ele>
	<time>2024-03-09T09:20:26.000Z</time>
</trkpt>
<trkpt lat="46.2583860" lon="10.5745300">
	<ele>1887.80</ele>
	<time>2024-03-09T09:20:27.000Z</time>
</trkpt>
<trkpt lat="46.2583860" lon="10.5745300">
	<ele>1887.80</ele>
	<time>2024-03-09T09:20:28.000Z</time>
</trkpt>
<trkpt lat="46.2583860" lon="10.5745300">
	<ele>1887.80</ele>
	<time>2024-03-09T09:20:29.000Z</time>
</trkpt>
<trkpt lat="46.2583860" lon="10.5745300">
	<ele>1887.80</ele>
	<time>2024-03-09T09:20:30.000Z</time>
</trkpt>
<trkpt lat="46.2583860" lon="10.5745300">
	<ele>1887.80</ele>
	<time>2024-03-09T09:20:31.000Z</time>
</trkpt>
<trkpt lat="46.2583860" lon="10.5745300">
	<ele>1887.80</ele>
	<time>2024-03-09T09:20:32.000Z</time>
</trkpt>
<trkpt lat="46.2583860" lon="10.5745310">
	<ele>1887.80</ele>
	<time>2024-03-09T09:20:33.000Z</time>
</trkpt>
<trkpt lat="46.2583860" lon="10.5745310">
	<ele>1887.80</ele>
	<time>2024-03-09T09:20:34.000Z</time>
</trkpt>
<trkpt lat="46.2583860" lon="10.5745300">
	<ele>1887.80</ele>
	<time>2024-03-09T09:20:35.000Z</time>
</trkpt>
<trkpt lat="46.2583860" lon="10.5745300">
	<ele>1887.80</ele>
	<time>2024-03-09T09:20:36.000Z</time>
</trkpt>
<trkpt lat="46.2583860" lon="10.5745300">
	<ele>1887.80</ele>
	<time>2024-03-09T09:20:37.000Z</time>
</trkpt>
<trkpt lat="46.2583860" lon="10.5745300">
	<ele>1887.80</ele>
	<time>2024-03-09T09:20:38.000Z</time>
</trkpt>
<trkpt lat="46.2583860" lon="10.5745300">
	<ele>1887.80</ele>
	<time>2024-03-09T09:20:39.000Z</time>
</trkpt>
<trkpt lat="46.2583850" lon="10.5745300">
	<ele>1887.80</ele>
	<time>2024-03-09T09:20:40.000Z</time>
</trkpt>
<trkpt lat="46.2583850" lon="10.5745300">
	<ele>1887.80</ele>
	<time>2024-03-09T09:20:41.000Z</time>
</trkpt>
<trkpt lat="46.2583850" lon="10.5745300">
	<ele>1887.80</ele>
	<time>2024-03-09T09:20:42.000Z</time>
</trkpt>
<trkpt lat="46.2583850" lon="10.5745300">
	<ele>1887.80</ele>
	<time>2024-03-09T09:20:43.000Z</time>
</trkpt>
<trkpt lat="46.2583850" lon="10.5745300">
	<ele>1887.80</ele>
	<time>2024-03-09T09:20:44.000Z</time>
</trkpt>
<trkpt lat="46.2583850" lon="10.5745300">
	<ele>1887.80</ele>
	<time>2024-03-09T09:20:45.000Z</time>
</trkpt>
<trkpt lat="46.2583850" lon="10.5745300">
	<ele>1887.80</ele>
	<time>2024-03-09T09:20:46.000Z</time>
</trkpt>
<trkpt lat="46.2583850" lon="10.5745300">
	<ele>1887.80</ele>
	<time>2024-03-09T09:20:47.000Z</time>
</trkpt>
<trkpt lat="46.2583850" lon="10.5745300">
	<ele>1887.80</ele>
	<time>2024-03-09T09:20:48.000Z</time>
</trkpt>
<trkpt lat="46.2583850" lon="10.5745300">
	<ele>1887.80</ele>
	<time>2024-03-09T09:20:49.000Z</time>
</trkpt>
<trkpt lat="46.2583850" lon="10.5745300">
	<ele>1887.80</ele>
	<time>2024-03-09T09:20:50.000Z</time>
</trkpt>
<trkpt lat="46.2583850" lon="10.5745300">
	<ele>1887.80</ele>
	<time>2024-03-09T09:20:51.000Z</time>
</trkpt>
<trkpt lat="46.2583850" lon="10.5745300">
	<ele>1887.80</ele>
	<time>2024-03-09T09:20:52.000Z</time>
</trkpt>
<trkpt lat="46.2583850" lon="10.5745300">
	<ele>1887.80</ele>
	<time>2024-03-09T09:20:53.000Z</time>
</trkpt>
<trkpt lat="46.2583850" lon="10.5745300">
	<ele>1887.80</ele>
	<time>2024-03-09T09:20:54.000Z</time>
</trkpt>
<trkpt lat="46.2583850" lon="10.5745300">
	<ele>1887.80</ele>
	<time>2024-03-09T09:20:55.000Z</time>
</trkpt>
<trkpt lat="46.2583850" lon="10.5745300">
	<ele>1887.80</ele>
	<time>2024-03-09T09:20:56.000Z</time>
</trkpt>
<trkpt lat="46.2583850" lon="10.5745300">
	<ele>1887.80</ele>
	<time>2024-03-09T09:20:57.000Z</time>
</trkpt>
<trkpt lat="46.2583850" lon="10.5745300">
	<ele>1887.80</ele>
	<time>2024-03-09T09:20:58.000Z</time>
</trkpt>
<trkpt lat="46.2583850" lon="10.5745300">
	<ele>1887.80</ele>
	<time>2024-03-09T09:20:59.000Z</time>
</trkpt>
<trkpt lat="46.2583850" lon="10.5745300">
	<ele>1887.80</ele>
	<time>2024-03-09T09:21:00.000Z</time>
</trkpt>
<trkpt lat="46.2583850" lon="10.5745300">
	<ele>1887.80</ele>
	<time>2024-03-09T09:21:01.000Z</time>
</trkpt>
<trkpt lat="46.2583850" lon="10.5745300">
	<ele>1887.80</ele>
	<time>2024-03-09T09:21:02.000Z</time>
</trkpt>
<trkpt lat="46.2583850" lon="10.5745300">
	<ele>1887.80</ele>
	<time>2024-03-09T09:21:03.000Z</time>
</trkpt>
<trkpt lat="46.2583850" lon="10.5745290">
	<ele>1887.80</ele>
	<time>2024-03-09T09:21:04.000Z</time>
</trkpt>
<trkpt lat="46.2583850" lon="10.5745290">
	<ele>1887.80</ele>
	<time>2024-03-09T09:21:05.000Z</time>
</trkpt>
<trkpt lat="46.2583850" lon="10.5745290">
	<ele>1887.80</ele>
	<time>2024-03-09T09:21:06.000Z</time>
</trkpt>
<trkpt lat="46.2583850" lon="10.5745290">
	<ele>1887.80</ele>
	<time>2024-03-09T09:21:07.000Z</time>
</trkpt>
<trkpt lat="46.2583850" lon="10.5745290">
	<ele>1887.80</ele>
	<time>2024-03-09T09:21:08.000Z</time>
</trkpt>
<trkpt lat="46.2583850" lon="10.5745290">
	<ele>1887.80</ele>
	<time>2024-03-09T09:21:09.000Z</time>
</trkpt>
<trkpt lat="46.2583850" lon="10.5745290">
	<ele>1887.80</ele>
	<time>2024-03-09T09:21:10.000Z</time>
</trkpt>
<trkpt lat="46.2583850" lon="10.5745290">
	<ele>1887.80</ele>
	<time>2024-03-09T09:21:11.000Z</time>
</trkpt>
<trkpt lat="46.2583850" lon="10.5745290">
	<ele>1887.80</ele>
	<time>2024-03-09T09:21:12.000Z</time>
</trkpt>
<trkpt lat="46.2583850" lon="10.5745290">
	<ele>1887.80</ele>
	<time>2024-03-09T09:21:13.000Z</time>
</trkpt>
<trkpt lat="46.2583850" lon="10.5745290">
	<ele>1887.80</ele>
	<time>2024-03-09T09:21:14.000Z</time>
</trkpt>
<trkpt lat="46.2583850" lon="10.5745290">
	<ele>1887.80</ele>
	<time>2024-03-09T09:21:15.000Z</time>
</trkpt>
<trkpt lat="46.2583840" lon="10.5745290">
	<ele>1887.80</ele>
	<time>2024-03-09T09:21:16.000Z</time>
</trkpt>
<trkpt lat="46.2583840" lon="10.5745290">
	<ele>1887.80</ele>
	<time>2024-03-09T09:21:17.000Z</time>
</trkpt>
<trkpt lat="46.2583840" lon="10.5745290">
	<ele>1887.80</ele>
	<time>2024-03-09T09:21:18.000Z</time>
</trkpt>
<trkpt lat="46.2583840" lon="10.5745290">
	<ele>1887.80</ele>
	<time>2024-03-09T09:21:19.000Z</time>
</trkpt>
<trkpt lat="46.2583840" lon="10.5745290">
	<ele>1887.80</ele>
	<time>2024-03-09T09:21:20.000Z</time>
</trkpt>
<trkpt lat="46.2583840" lon="10.5745290">
	<ele>1887.80</ele>
	<time>2024-03-09T09:21:21.000Z</time>
</trkpt>
<trkpt lat="46.2583840" lon="10.5745290">
	<ele>1887.80</ele>
	<time>2024-03-09T09:21:22.000Z</time>
</trkpt>
<trkpt lat="46.2583840" lon="10.5745280">
	<ele>1887.80</ele>
	<time>2024-03-09T09:21:23.000Z</time>
</trkpt>
<trkpt lat="46.2583840" lon="10.5745280">
	<ele>1887.80</ele>
	<time>2024-03-09T09:21:24.000Z</time>
</trkpt>
<trkpt lat="46.2583840" lon="10.5745280">
	<ele>1887.80</ele>
	<time>2024-03-09T09:21:25.000Z</time>
</trkpt>
<trkpt lat="46.2583840" lon="10.5745280">
	<ele>1887.80</ele>
	<time>2024-03-09T09:21:26.000Z</time>
</trkpt>
<trkpt lat="46.2583840" lon="10.5745280">
	<ele>1887.80</ele>
	<time>2024-03-09T09:21:27.000Z</time>
</trkpt>
<trkpt lat="46.2583840" lon="10.5745280">
	<ele>1887.80</ele>
	<time>2024-03-09T09:21:28.000Z</time>
</trkpt>
<trkpt lat="46.2583840" lon="10.5745280">
	<ele>1887.80</ele>
	<time>2024-03-09T09:21:29.000Z</time>
</trkpt>
<trkpt lat="46.2583840" lon="10.5745280">
	<ele>1887.80</ele>
	<time>2024-03-09T09:21:30.000Z</time>
</trkpt>
<trkpt lat="46.2583840" lon="10.5745280">
	<ele>1887.80</ele>
	<time>2024-03-09T09:21:31.000Z</time>
</trkpt>
<trkpt lat="46.2583840" lon="10.5745280">
	<ele>1887.80</ele>
	<time>2024-03-09T09:21:32.000Z</time>
</trkpt>
<trkpt lat="46.2583840" lon="10.5745280">
	<ele>1887.80</ele>
	<time>2024-03-09T09:21:33.000Z</time>
</trkpt>
<trkpt lat="46.2583830" lon="10.5745280">
	<ele>1887.80</ele>
	<time>2024-03-09T09:21:34.000Z</time>
</trkpt>
<trkpt lat="46.2583830" lon="10.5745280">
	<ele>1887.80</ele>
	<time>2024-03-09T09:21:35.000Z</time>
</trkpt>
<trkpt lat="46.2583830" lon="10.5745280">
	<ele>1887.80</ele>
	<time>2024-03-09T09:21:36.000Z</time>
</trkpt>
<trkpt lat="46.2583830" lon="10.5745280">
	<ele>1887.80</ele>
	<time>2024-03-09T09:21:37.000Z</time>
</trkpt>
<trkpt lat="46.2583830" lon="10.5745270">
	<ele>1887.80</ele>
	<time>2024-03-09T09:21:38.000Z</time>
</trkpt>
<trkpt lat="46.2583830" lon="10.5745270">
	<ele>1887.80</ele>
	<time>2024-03-09T09:21:39.000Z</time>
</trkpt>
<trkpt lat="46.2583830" lon="10.5745270">
	<ele>1887.80</ele>
	<time>2024-03-09T09:21:40.000Z</time>
</trkpt>
<trkpt lat="46.2583830" lon="10.5745270">
	<ele>1887.80</ele>
	<time>2024-03-09T09:21:41.000Z</time>
</trkpt>
<trkpt lat="46.2583830" lon="10.5745270">
	<ele>1887.80</ele>
	<time>2024-03-09T09:21:42.000Z</time>
</trkpt>
<trkpt lat="46.2583830" lon="10.5745270">
	<ele>1887.80</ele>
	<time>2024-03-09T09:21:43.000Z</time>
</trkpt>
<trkpt lat="46.2583830" lon="10.5745270">
	<ele>1887.80</ele>
	<time>2024-03-09T09:21:44.000Z</time>
</trkpt>
<trkpt lat="46.2583830" lon="10.5745270">
	<ele>1887.80</ele>
	<time>2024-03-09T09:21:45.000Z</time>
</trkpt>
<trkpt lat="46.2583760" lon="10.5745120">
	<ele>1887.80</ele>
	<time>2024-03-09T09:21:46.000Z</time>
</trkpt>
<trkpt lat="46.2583610" lon="10.5744880">
	<ele>1887.80</ele>
	<time>2024-03-09T09:21:47.000Z</time>
</trkpt>
<trkpt lat="46.2583480" lon="10.5744650">
	<ele>1887.80</ele>
	<time>2024-03-09T09:21:48.000Z</time>
</trkpt>
<trkpt lat="46.2583310" lon="10.5744390">
	<ele>1887.80</ele>
	<time>2024-03-09T09:21:49.000Z</time>
</trkpt>
<trkpt lat="46.2583190" lon="10.5744150">
	<ele>1887.80</ele>
	<time>2024-03-09T09:21:50.000Z</time>
</trkpt>
<trkpt lat="46.2583090" lon="10.5743920">
	<ele>1887.80</ele>
	<time>2024-03-09T09:21:51.000Z</time>
</trkpt>
<trkpt lat="46.2583030" lon="10.5743720">
	<ele>1887.80</ele>
	<time>2024-03-09T09:21:52.000Z</time>
</trkpt>
<trkpt lat="46.2582980" lon="10.5743540">
	<ele>1887.80</ele>
	<time>2024-03-09T09:21:53.000Z</time>
</trkpt>
<trkpt lat="46.2582900" lon="10.5743340">
	<ele>1887.80</ele>
	<time>2024-03-09T09:21:54.000Z</time>
</trkpt>
<trkpt lat="46.2582840" lon="10.5743150">
	<ele>1887.80</ele>
	<time>2024-03-09T09:21:55.000Z</time>
</trkpt>
<trkpt lat="46.2582840" lon="10.5743130">
	<ele>1887.80</ele>
	<time>2024-03-09T09:21:56.000Z</time>
</trkpt>
<trkpt lat="46.2582840" lon="10.5743130">
	<ele>1887.80</ele>
	<time>2024-03-09T09:21:57.000Z</time>
</trkpt>
<trkpt lat="46.2582830" lon="10.5743130">
	<ele>1887.80</ele>
	<time>2024-03-09T09:21:58.000Z</time>
</trkpt>
<trkpt lat="46.2582830" lon="10.5743120">
	<ele>1887.80</ele>
	<time>2024-03-09T09:21:59.000Z</time>
</trkpt>
<trkpt lat="46.2582770" lon="10.5743130">
	<ele>1887.80</ele>
	<time>2024-03-09T09:22:00.000Z</time>
</trkpt>
<trkpt lat="46.2582760" lon="10.5743110">
	<ele>1887.80</ele>
	<time>2024-03-09T09:22:01.000Z</time>
</trkpt>
<trkpt lat="46.2582790" lon="10.5743120">
	<ele>1887.80</ele>
	<time>2024-03-09T09:22:02.000Z</time>
</trkpt>
<trkpt lat="46.2582820" lon="10.5743120">
	<ele>1887.80</ele>
	<time>2024-03-09T09:22:03.000Z</time>
</trkpt>
<trkpt lat="46.2582850" lon="10.5743100">
	<ele>1887.80</ele>
	<time>2024-03-09T09:22:04.000Z</time>
</trkpt>
<trkpt lat="46.2582860" lon="10.5743100">
	<ele>1887.80</ele>
	<time>2024-03-09T09:22:05.000Z</time>
</trkpt>
<trkpt lat="46.2582860" lon="10.5743100">
	<ele>1887.80</ele>
	<time>2024-03-09T09:22:06.000Z</time>
</trkpt>
<trkpt lat="46.2582860" lon="10.5743100">
	<ele>1887.80</ele>
	<time>2024-03-09T09:22:07.000Z</time>
</trkpt>
<trkpt lat="46.2582860" lon="10.5743100">
	<ele>1887.80</ele>
	<time>2024-03-09T09:22:08.000Z</time>
</trkpt>
<trkpt lat="46.2582860" lon="10.5743100">
	<ele>1887.80</ele>
	<time>2024-03-09T09:22:09.000Z</time>
</trkpt>
<trkpt lat="46.2582860" lon="10.5743100">
	<ele>1887.80</ele>
	<time>2024-03-09T09:22:10.000Z</time>
</trkpt>
<trkpt lat="46.2582860" lon="10.5743100">
	<ele>1887.80</ele>
	<time>2024-03-09T09:22:11.000Z</time>
</trkpt>
<trkpt lat="46.2582860" lon="10.5743100">
	<ele>1887.80</ele>
	<time>2024-03-09T09:22:12.000Z</time>
</trkpt>
<trkpt lat="46.2582860" lon="10.5743100">
	<ele>1887.80</ele>
	<time>2024-03-09T09:22:13.000Z</time>
</trkpt>
<trkpt lat="46.2582860" lon="10.5743100">
	<ele>1887.80</ele>
	<time>2024-03-09T09:22:14.000Z</time>
</trkpt>
<trkpt lat="46.2582860" lon="10.5743110">
	<ele>1887.80</ele>
	<time>2024-03-09T09:22:15.000Z</time>
</trkpt>
<trkpt lat="46.2582860" lon="10.5743110">
	<ele>1887.80</ele>
	<time>2024-03-09T09:22:16.000Z</time>
</trkpt>
<trkpt lat="46.2582860" lon="10.5743110">
	<ele>1887.80</ele>
	<time>2024-03-09T09:22:17.000Z</time>
</trkpt>
<trkpt lat="46.2582860" lon="10.5743110">
	<ele>1887.80</ele>
	<time>2024-03-09T09:22:18.000Z</time>
</trkpt>
<trkpt lat="46.2582860" lon="10.5743110">
	<ele>1887.80</ele>
	<time>2024-03-09T09:22:19.000Z</time>
</trkpt>
<trkpt lat="46.2582860" lon="10.5743110">
	<ele>1887.80</ele>
	<time>2024-03-09T09:22:20.000Z</time>
</trkpt>
<trkpt lat="46.2582860" lon="10.5743110">
	<ele>1887.80</ele>
	<time>2024-03-09T09:22:21.000Z</time>
</trkpt>
<trkpt lat="46.2582860" lon="10.5743110">
	<ele>1887.80</ele>
	<time>2024-03-09T09:22:22.000Z</time>
</trkpt>
<trkpt lat="46.2582870" lon="10.5743110">
	<ele>1887.80</ele>
	<time>2024-03-09T09:22:23.000Z</time>
</trkpt>
<trkpt lat="46.2582880" lon="10.5743110">
	<ele>1887.80</ele>
	<time>2024-03-09T09:22:24.000Z</time>
</trkpt>
<trkpt lat="46.2582880" lon="10.5743110">
	<ele>1887.80</ele>
	<time>2024-03-09T09:22:25.000Z</time>
</trkpt>
<trkpt lat="46.2582890" lon="10.5743110">
	<ele>1887.80</ele>
	<time>2024-03-09T09:22:26.000Z</time>
</trkpt>
<trkpt lat="46.2582900" lon="10.5743100">
	<ele>1887.80</ele>
	<time>2024-03-09T09:22:27.000Z</time>
</trkpt>
<trkpt lat="46.2582900" lon="10.5743100">
	<ele>1887.80</ele>
	<time>2024-03-09T09:22:28.000Z</time>
</trkpt>
<trkpt lat="46.2582910" lon="10.5743090">
	<ele>1887.80</ele>
	<time>2024-03-09T09:22:29.000Z</time>
</trkpt>
<trkpt lat="46.2582910" lon="10.5743080">
	<ele>1887.80</ele>
	<time>2024-03-09T09:22:30.000Z</time>
</trkpt>
<trkpt lat="46.2582910" lon="10.5743070">
	<ele>1887.80</ele>
	<time>2024-03-09T09:22:31.000Z</time>
</trkpt>
<trkpt lat="46.2582910" lon="10.5743070">
	<ele>1887.80</ele>
	<time>2024-03-09T09:22:32.000Z</time>
</trkpt>
<trkpt lat="46.2582930" lon="10.5743070">
	<ele>1887.80</ele>
	<time>2024-03-09T09:22:33.000Z</time>
</trkpt>
<trkpt lat="46.2582930" lon="10.5743070">
	<ele>1887.80</ele>
	<time>2024-03-09T09:22:34.000Z</time>
</trkpt>
<trkpt lat="46.2582940" lon="10.5743060">
	<ele>1887.80</ele>
	<time>2024-03-09T09:22:35.000Z</time>
</trkpt>
<trkpt lat="46.2582940" lon="10.5743060">
	<ele>1887.80</ele>
	<time>2024-03-09T09:22:36.000Z</time>
</trkpt>
<trkpt lat="46.2582940" lon="10.5743060">
	<ele>1887.80</ele>
	<time>2024-03-09T09:22:37.000Z</time>
</trkpt>
<trkpt lat="46.2582940" lon="10.5743060">
	<ele>1887.80</ele>
	<time>2024-03-09T09:22:38.000Z</time>
</trkpt>
<trkpt lat="46.2582940" lon="10.5743050">
	<ele>1887.80</ele>
	<time>2024-03-09T09:22:39.000Z</time>
</trkpt>
<trkpt lat="46.2582940" lon="10.5743050">
	<ele>1887.80</ele>
	<time>2024-03-09T09:22:40.000Z</time>
</trkpt>
<trkpt lat="46.2582940" lon="10.5743050">
	<ele>1887.80</ele>
	<time>2024-03-09T09:22:41.000Z</time>
</trkpt>
<trkpt lat="46.2582940" lon="10.5743040">
	<ele>1887.80</ele>
	<time>2024-03-09T09:22:42.000Z</time>
</trkpt>
<trkpt lat="46.2582950" lon="10.5743040">
	<ele>1887.80</ele>
	<time>2024-03-09T09:22:43.000Z</time>
</trkpt>
<trkpt lat="46.2582950" lon="10.5743030">
	<ele>1887.80</ele>
	<time>2024-03-09T09:22:44.000Z</time>
</trkpt>
<trkpt lat="46.2582950" lon="10.5743030">
	<ele>1887.80</ele>
	<time>2024-03-09T09:22:45.000Z</time>
</trkpt>
<trkpt lat="46.2582950" lon="10.5743030">
	<ele>1887.80</ele>
	<time>2024-03-09T09:22:46.000Z</time>
</trkpt>
<trkpt lat="46.2582960" lon="10.5743030">
	<ele>1887.80</ele>
	<time>2024-03-09T09:22:47.000Z</time>
</trkpt>
<trkpt lat="46.2582960" lon="10.5743030">
	<ele>1887.80</ele>
	<time>2024-03-09T09:22:48.000Z</time>
</trkpt>
<trkpt lat="46.2582960" lon="10.5743030">
	<ele>1887.80</ele>
	<time>2024-03-09T09:22:49.000Z</time>
</trkpt>
<trkpt lat="46.2582960" lon="10.5743030">
	<ele>1887.80</ele>
	<time>2024-03-09T09:22:50.000Z</time>
</trkpt>
<trkpt lat="46.2582960" lon="10.5743020">
	<ele>1887.80</ele>
	<time>2024-03-09T09:22:51.000Z</time>
</trkpt>
<trkpt lat="46.2582960" lon="10.5743020">
	<ele>1887.80</ele>
	<time>2024-03-09T09:22:52.000Z</time>
</trkpt>
<trkpt lat="46.2582960" lon="10.5743020">
	<ele>1887.80</ele>
	<time>2024-03-09T09:22:53.000Z</time>
</trkpt>
<trkpt lat="46.2582970" lon="10.5743020">
	<ele>1887.80</ele>
	<time>2024-03-09T09:22:54.000Z</time>
</trkpt>
<trkpt lat="46.2582980" lon="10.5743020">
	<ele>1887.80</ele>
	<time>2024-03-09T09:22:55.000Z</time>
</trkpt>
<trkpt lat="46.2582980" lon="10.5743020">
	<ele>1887.80</ele>
	<time>2024-03-09T09:22:56.000Z</time>
</trkpt>
<trkpt lat="46.2582980" lon="10.5743020">
	<ele>1887.80</ele>
	<time>2024-03-09T09:22:57.000Z</time>
</trkpt>
<trkpt lat="46.2582980" lon="10.5743010">
	<ele>1887.80</ele>
	<time>2024-03-09T09:22:58.000Z</time>
</trkpt>
<trkpt lat="46.2582980" lon="10.5743010">
	<ele>1887.80</ele>
	<time>2024-03-09T09:22:59.000Z</time>
</trkpt>
<trkpt lat="46.2582980" lon="10.5743010">
	<ele>1887.80</ele>
	<time>2024-03-09T09:23:00.000Z</time>
</trkpt>
<trkpt lat="46.2582940" lon="10.5742950">
	<ele>1887.80</ele>
	<time>2024-03-09T09:23:01.000Z</time>
</trkpt>
<trkpt lat="46.2582850" lon="10.5742830">
	<ele>1887.80</ele>
	<time>2024-03-09T09:23:02.000Z</time>
</trkpt>
<trkpt lat="46.2582730" lon="10.5742700">
	<ele>1887.80</ele>
	<time>2024-03-09T09:23:03.000Z</time>
</trkpt>
<trkpt lat="46.2582630" lon="10.5742560">
	<ele>1887.80</ele>
	<time>2024-03-09T09:23:04.000Z</time>
</trkpt>
<trkpt lat="46.2582540" lon="10.5742410">
	<ele>1887.80</ele>
	<time>2024-03-09T09:23:05.000Z</time>
</trkpt>
<trkpt lat="46.2582450" lon="10.5742250">
	<ele>1887.80</ele>
	<time>2024-03-09T09:23:06.000Z</time>
</trkpt>
<trkpt lat="46.2582330" lon="10.5742060">
	<ele>1887.80</ele>
	<time>2024-03-09T09:23:07.000Z</time>
</trkpt>
<trkpt lat="46.2582230" lon="10.5741850">
	<ele>1887.80</ele>
	<time>2024-03-09T09:23:08.000Z</time>
</trkpt>
<trkpt lat="46.2582130" lon="10.5741700">
	<ele>1887.80</ele>
	<time>2024-03-09T09:23:09.000Z</time>
</trkpt>
<trkpt lat="46.2582050" lon="10.5741550">
	<ele>1887.80</ele>
	<time>2024-03-09T09:23:10.000Z</time>
</trkpt>
<trkpt lat="46.2582010" lon="10.5741490">
	<ele>1887.80</ele>
	<time>2024-03-09T09:23:11.000Z</time>
</trkpt>
<trkpt lat="46.2581970" lon="10.5741420">
	<ele>1887.80</ele>
	<time>2024-03-09T09:23:12.000Z</time>
</trkpt>
<trkpt lat="46.2581940" lon="10.5741330">
	<ele>1887.80</ele>
	<time>2024-03-09T09:23:13.000Z</time>
</trkpt>
<trkpt lat="46.2581910" lon="10.5741250">
	<ele>1887.80</ele>
	<time>2024-03-09T09:23:14.000Z</time>
</trkpt>
<trkpt lat="46.2581890" lon="10.5741180">
	<ele>1887.80</ele>
	<time>2024-03-09T09:23:15.000Z</time>
</trkpt>
<trkpt lat="46.2581870" lon="10.5741100">
	<ele>1887.80</ele>
	<time>2024-03-09T09:23:16.000Z</time>
</trkpt>
<trkpt lat="46.2581820" lon="10.5741000">
	<ele>1887.80</ele>
	<time>2024-03-09T09:23:17.000Z</time>
</trkpt>
<trkpt lat="46.2581780" lon="10.5740880">
	<ele>1887.80</ele>
	<time>2024-03-09T09:23:18.000Z</time>
</trkpt>
<trkpt lat="46.2581750" lon="10.5740810">
	<ele>1887.80</ele>
	<time>2024-03-09T09:23:19.000Z</time>
</trkpt>
<trkpt lat="46.2581710" lon="10.5740710">
	<ele>1887.80</ele>
	<time>2024-03-09T09:23:20.000Z</time>
</trkpt>
<trkpt lat="46.2581680" lon="10.5740590">
	<ele>1887.80</ele>
	<time>2024-03-09T09:23:21.000Z</time>
</trkpt>
<trkpt lat="46.2581650" lon="10.5740510">
	<ele>1887.80</ele>
	<time>2024-03-09T09:23:22.000Z</time>
</trkpt>
<trkpt lat="46.2581630" lon="10.5740400">
	<ele>1887.80</ele>
	<time>2024-03-09T09:23:23.000Z</time>
</trkpt>
<trkpt lat="46.2581620" lon="10.5740300">
	<ele>1887.80</ele>
	<time>2024-03-09T09:23:24.000Z</time>
</trkpt>
<trkpt lat="46.2581590" lon="10.5740190">
	<ele>1887.80</ele>
	<time>2024-03-09T09:23:25.000Z</time>
</trkpt>
<trkpt lat="46.2581550" lon="10.5740110">
	<ele>1887.80</ele>
	<time>2024-03-09T09:23:26.000Z</time>
</trkpt>
<trkpt lat="46.2581510" lon="10.5740050">
	<ele>1887.80</ele>
	<time>2024-03-09T09:23:27.000Z</time>
</trkpt>
<trkpt lat="46.2581500" lon="10.5739990">
	<ele>1887.80</ele>
	<time>2024-03-09T09:23:28.000Z</time>
</trkpt>
<trkpt lat="46.2581460" lon="10.5739900">
	<ele>1887.80</ele>
	<time>2024-03-09T09:23:29.000Z</time>
</trkpt>
<trkpt lat="46.2581390" lon="10.5739770">
	<ele>1887.80</ele>
	<time>2024-03-09T09:23:30.000Z</time>
</trkpt>
<trkpt lat="46.2581340" lon="10.5739650">
	<ele>1887.80</ele>
	<time>2024-03-09T09:23:31.000Z</time>
</trkpt>
<trkpt lat="46.2581300" lon="10.5739490">
	<ele>1887.80</ele>
	<time>2024-03-09T09:23:32.000Z</time>
</trkpt>
<trkpt lat="46.2581260" lon="10.5739340">
	<ele>1887.80</ele>
	<time>2024-03-09T09:23:33.000Z</time>
</trkpt>
<trkpt lat="46.2581200" lon="10.5739190">
	<ele>1887.80</ele>
	<time>2024-03-09T09:23:34.000Z</time>
</trkpt>
<trkpt lat="46.2581160" lon="10.5739050">
	<ele>1887.80</ele>
	<time>2024-03-09T09:23:35.000Z</time>
</trkpt>
<trkpt lat="46.2581140" lon="10.5738890">
	<ele>1887.80</ele>
	<time>2024-03-09T09:23:36.000Z</time>
</trkpt>
<trkpt lat="46.2581150" lon="10.5738770">
	<ele>1887.80</ele>
	<time>2024-03-09T09:23:37.000Z</time>
</trkpt>
<trkpt lat="46.2581130" lon="10.5738710">
	<ele>1887.80</ele>
	<time>2024-03-09T09:23:38.000Z</time>
</trkpt>
<trkpt lat="46.2581120" lon="10.5738680">
	<ele>1887.80</ele>
	<time>2024-03-09T09:23:39.000Z</time>
</trkpt>
<trkpt lat="46.2581110" lon="10.5738660">
	<ele>1887.80</ele>
	<time>2024-03-09T09:23:40.000Z</time>
</trkpt>
<trkpt lat="46.2581120" lon="10.5738660">
	<ele>1887.80</ele>
	<time>2024-03-09T09:23:41.000Z</time>
</trkpt>
<trkpt lat="46.2581140" lon="10.5738670">
	<ele>1887.80</ele>
	<time>2024-03-09T09:23:42.000Z</time>
</trkpt>
<trkpt lat="46.2581150" lon="10.5738670">
	<ele>1887.80</ele>
	<time>2024-03-09T09:23:43.000Z</time>
</trkpt>
<trkpt lat="46.2581140" lon="10.5738660">
	<ele>1887.80</ele>
	<time>2024-03-09T09:23:44.000Z</time>
</trkpt>
<trkpt lat="46.2581140" lon="10.5738660">
	<ele>1887.80</ele>
	<time>2024-03-09T09:23:45.000Z</time>
</trkpt>
<trkpt lat="46.2581130" lon="10.5738650">
	<ele>1887.80</ele>
	<time>2024-03-09T09:23:46.000Z</time>
</trkpt>
<trkpt lat="46.2581130" lon="10.5738650">
	<ele>1887.80</ele>
	<time>2024-03-09T09:23:47.000Z</time>
</trkpt>
<trkpt lat="46.2581140" lon="10.5738650">
	<ele>1887.80</ele>
	<time>2024-03-09T09:23:48.000Z</time>
</trkpt>
<trkpt lat="46.2581160" lon="10.5738660">
	<ele>1887.80</ele>
	<time>2024-03-09T09:23:49.000Z</time>
</trkpt>
<trkpt lat="46.2581180" lon="10.5738670">
	<ele>1887.80</ele>
	<time>2024-03-09T09:23:50.000Z</time>
</trkpt>
<trkpt lat="46.2581190" lon="10.5738680">
	<ele>1887.80</ele>
	<time>2024-03-09T09:23:51.000Z</time>
</trkpt>
<trkpt lat="46.2581190" lon="10.5738690">
	<ele>1887.80</ele>
	<time>2024-03-09T09:23:52.000Z</time>
</trkpt>
<trkpt lat="46.2581190" lon="10.5738690">
	<ele>1887.80</ele>
	<time>2024-03-09T09:23:53.000Z</time>
</trkpt>
<trkpt lat="46.2581190" lon="10.5738690">
	<ele>1887.80</ele>
	<time>2024-03-09T09:23:54.000Z</time>
</trkpt>
<trkpt lat="46.2581190" lon="10.5738690">
	<ele>1887.80</ele>
	<time>2024-03-09T09:23:55.000Z</time>
</trkpt>
<trkpt lat="46.2581190" lon="10.5738690">
	<ele>1887.80</ele>
	<time>2024-03-09T09:23:56.000Z</time>
</trkpt>
<trkpt lat="46.2581190" lon="10.5738690">
	<ele>1887.80</ele>
	<time>2024-03-09T09:23:57.000Z</time>
</trkpt>
<trkpt lat="46.2581190" lon="10.5738690">
	<ele>1887.80</ele>
	<time>2024-03-09T09:23:58.000Z</time>
</trkpt>
<trkpt lat="46.2581190" lon="10.5738690">
	<ele>1887.80</ele>
	<time>2024-03-09T09:23:59.000Z</time>
</trkpt>
<trkpt lat="46.2581190" lon="10.5738680">
	<ele>1881.40</ele>
	<time>2024-03-09T09:24:00.000Z</time>
</trkpt>
<trkpt lat="46.2581190" lon="10.5738680">
	<ele>1881.40</ele>
	<time>2024-03-09T09:24:01.000Z</time>
</trkpt>
<trkpt lat="46.2581190" lon="10.5738680">
	<ele>1881.40</ele>
	<time>2024-03-09T09:24:02.000Z</time>
</trkpt>
<trkpt lat="46.2581190" lon="10.5738670">
	<ele>1881.40</ele>
	<time>2024-03-09T09:24:03.000Z</time>
</trkpt>
<trkpt lat="46.2581190" lon="10.5738670">
	<ele>1881.40</ele>
	<time>2024-03-09T09:24:04.000Z</time>
</trkpt>
<trkpt lat="46.2581190" lon="10.5738670">
	<ele>1881.40</ele>
	<time>2024-03-09T09:24:05.000Z</time>
</trkpt>
<trkpt lat="46.2581190" lon="10.5738670">
	<ele>1881.20</ele>
	<time>2024-03-09T09:24:06.000Z</time>
</trkpt>
<trkpt lat="46.2581190" lon="10.5738670">
	<ele>1881.20</ele>
	<time>2024-03-09T09:24:07.000Z</time>
</trkpt>
<trkpt lat="46.2581200" lon="10.5738670">
	<ele>1881.20</ele>
	<time>2024-03-09T09:24:08.000Z</time>
</trkpt>
<trkpt lat="46.2581220" lon="10.5738660">
	<ele>1881.20</ele>
	<time>2024-03-09T09:24:09.000Z</time>
</trkpt>
<trkpt lat="46.2581240" lon="10.5738660">
	<ele>1881.20</ele>
	<time>2024-03-09T09:24:10.000Z</time>
</trkpt>
<trkpt lat="46.2581240" lon="10.5738660">
	<ele>1881.20</ele>
	<time>2024-03-09T09:24:11.000Z</time>
</trkpt>
<trkpt lat="46.2581260" lon="10.5738660">
	<ele>1881.20</ele>
	<time>2024-03-09T09:24:12.000Z</time>
</trkpt>
<trkpt lat="46.2581270" lon="10.5738660">
	<ele>1881.40</ele>
	<time>2024-03-09T09:24:13.000Z</time>
</trkpt>
<trkpt lat="46.2581280" lon="10.5738660">
	<ele>1881.40</ele>
	<time>2024-03-09T09:24:14.000Z</time>
</trkpt>
<trkpt lat="46.2581290" lon="10.5738670">
	<ele>1881.60</ele>
	<time>2024-03-09T09:24:15.000Z</time>
</trkpt>
<trkpt lat="46.2581300" lon="10.5738670">
	<ele>1881.60</ele>
	<time>2024-03-09T09:24:16.000Z</time>
</trkpt>
<trkpt lat="46.2581300" lon="10.5738670">
	<ele>1881.60</ele>
	<time>2024-03-09T09:24:17.000Z</time>
</trkpt>
<trkpt lat="46.2581310" lon="10.5738670">
	<ele>1881.60</ele>
	<time>2024-03-09T09:24:18.000Z</time>
</trkpt>
<trkpt lat="46.2581310" lon="10.5738670">
	<ele>1881.60</ele>
	<time>2024-03-09T09:24:19.000Z</time>
</trkpt>
<trkpt lat="46.2581310" lon="10.5738670">
	<ele>1881.60</ele>
	<time>2024-03-09T09:24:20.000Z</time>
</trkpt>
<trkpt lat="46.2581310" lon="10.5738670">
	<ele>1881.60</ele>
	<time>2024-03-09T09:24:21.000Z</time>
</trkpt>
<trkpt lat="46.2581310" lon="10.5738670">
	<ele>1881.60</ele>
	<time>2024-03-09T09:24:22.000Z</time>
</trkpt>
<trkpt lat="46.2581320" lon="10.5738670">
	<ele>1881.60</ele>
	<time>2024-03-09T09:24:23.000Z</time>
</trkpt>
<trkpt lat="46.2581330" lon="10.5738670">
	<ele>1881.60</ele>
	<time>2024-03-09T09:24:24.000Z</time>
</trkpt>
<trkpt lat="46.2581350" lon="10.5738670">
	<ele>1881.60</ele>
	<time>2024-03-09T09:24:25.000Z</time>
</trkpt>
<trkpt lat="46.2581400" lon="10.5738700">
	<ele>1881.60</ele>
	<time>2024-03-09T09:24:26.000Z</time>
</trkpt>
<trkpt lat="46.2581430" lon="10.5738740">
	<ele>1881.60</ele>
	<time>2024-03-09T09:24:27.000Z</time>
</trkpt>
<trkpt lat="46.2581440" lon="10.5738770">
	<ele>1881.60</ele>
	<time>2024-03-09T09:24:28.000Z</time>
</trkpt>
<trkpt lat="46.2581440" lon="10.5738780">
	<ele>1881.60</ele>
	<time>2024-03-09T09:24:29.000Z</time>
</trkpt>
<trkpt lat="46.2581440" lon="10.5738790">
	<ele>1881.60</ele>
	<time>2024-03-09T09:24:30.000Z</time>
</trkpt>
<trkpt lat="46.2581440" lon="10.5738790">
	<ele>1881.60</ele>
	<time>2024-03-09T09:24:31.000Z</time>
</trkpt>
<trkpt lat="46.2581440" lon="10.5738790">
	<ele>1881.60</ele>
	<time>2024-03-09T09:24:32.000Z</time>
</trkpt>
<trkpt lat="46.2581440" lon="10.5738790">
	<ele>1881.60</ele>
	<time>2024-03-09T09:24:33.000Z</time>
</trkpt>
<trkpt lat="46.2581440" lon="10.5738800">
	<ele>1881.60</ele>
	<time>2024-03-09T09:24:34.000Z</time>
</trkpt>
<trkpt lat="46.2581440" lon="10.5738810">
	<ele>1881.80</ele>
	<time>2024-03-09T09:24:35.000Z</time>
</trkpt>
<trkpt lat="46.2581440" lon="10.5738830">
	<ele>1881.80</ele>
	<time>2024-03-09T09:24:36.000Z</time>
</trkpt>
<trkpt lat="46.2581440" lon="10.5738840">
	<ele>1881.80</ele>
	<time>2024-03-09T09:24:37.000Z</time>
</trkpt>
<trkpt lat="46.2581440" lon="10.5738840">
	<ele>1881.80</ele>
	<time>2024-03-09T09:24:38.000Z</time>
</trkpt>
<trkpt lat="46.2581440" lon="10.5738840">
	<ele>1881.80</ele>
	<time>2024-03-09T09:24:39.000Z</time>
</trkpt>
<trkpt lat="46.2581440" lon="10.5738840">
	<ele>1881.80</ele>
	<time>2024-03-09T09:24:40.000Z</time>
</trkpt>
<trkpt lat="46.2581440" lon="10.5738840">
	<ele>1881.80</ele>
	<time>2024-03-09T09:24:41.000Z</time>
</trkpt>
<trkpt lat="46.2581440" lon="10.5738840">
	<ele>1881.80</ele>
	<time>2024-03-09T09:24:42.000Z</time>
</trkpt>
<trkpt lat="46.2581420" lon="10.5738840">
	<ele>1881.60</ele>
	<time>2024-03-09T09:24:43.000Z</time>
</trkpt>
<trkpt lat="46.2581420" lon="10.5738840">
	<ele>1881.60</ele>
	<time>2024-03-09T09:24:44.000Z</time>
</trkpt>
<trkpt lat="46.2581410" lon="10.5738840">
	<ele>1881.60</ele>
	<time>2024-03-09T09:24:45.000Z</time>
</trkpt>
<trkpt lat="46.2581410" lon="10.5738840">
	<ele>1881.60</ele>
	<time>2024-03-09T09:24:46.000Z</time>
</trkpt>
<trkpt lat="46.2581410" lon="10.5738840">
	<ele>1881.60</ele>
	<time>2024-03-09T09:24:47.000Z</time>
</trkpt>
<trkpt lat="46.2581410" lon="10.5738840">
	<ele>1881.60</ele>
	<time>2024-03-09T09:24:48.000Z</time>
</trkpt>
<trkpt lat="46.2581410" lon="10.5738840">
	<ele>1881.60</ele>
	<time>2024-03-09T09:24:49.000Z</time>
</trkpt>
<trkpt lat="46.2581410" lon="10.5738840">
	<ele>1881.60</ele>
	<time>2024-03-09T09:24:50.000Z</time>
</trkpt>
<trkpt lat="46.2581410" lon="10.5738850">
	<ele>1881.60</ele>
	<time>2024-03-09T09:24:51.000Z</time>
</trkpt>
<trkpt lat="46.2581410" lon="10.5738850">
	<ele>1881.60</ele>
	<time>2024-03-09T09:24:52.000Z</time>
</trkpt>
<trkpt lat="46.2581410" lon="10.5738850">
	<ele>1881.60</ele>
	<time>2024-03-09T09:24:53.000Z</time>
</trkpt>
<trkpt lat="46.2581410" lon="10.5738850">
	<ele>1881.60</ele>
	<time>2024-03-09T09:24:54.000Z</time>
</trkpt>
<trkpt lat="46.2581400" lon="10.5738850">
	<ele>1881.60</ele>
	<time>2024-03-09T09:24:55.000Z</time>
</trkpt>
<trkpt lat="46.2581400" lon="10.5738850">
	<ele>1881.60</ele>
	<time>2024-03-09T09:24:56.000Z</time>
</trkpt>
<trkpt lat="46.2581400" lon="10.5738850">
	<ele>1881.60</ele>
	<time>2024-03-09T09:24:57.000Z</time>
</trkpt>
<trkpt lat="46.2581400" lon="10.5738850">
	<ele>1881.60</ele>
	<time>2024-03-09T09:24:58.000Z</time>
</trkpt>
<trkpt lat="46.2581400" lon="10.5738850">
	<ele>1881.60</ele>
	<time>2024-03-09T09:24:59.000Z</time>
</trkpt>
<trkpt lat="46.2581400" lon="10.5738850">
	<ele>1881.60</ele>
	<time>2024-03-09T09:25:00.000Z</time>
</trkpt>
<trkpt lat="46.2581400" lon="10.5738850">
	<ele>1881.60</ele>
	<time>2024-03-09T09:25:01.000Z</time>
</trkpt>
<trkpt lat="46.2581400" lon="10.5738850">
	<ele>1881.60</ele>
	<time>2024-03-09T09:25:02.000Z</time>
</trkpt>
<trkpt lat="46.2581400" lon="10.5738850">
	<ele>1881.60</ele>
	<time>2024-03-09T09:25:03.000Z</time>
</trkpt>
<trkpt lat="46.2581400" lon="10.5738840">
	<ele>1881.60</ele>
	<time>2024-03-09T09:25:04.000Z</time>
</trkpt>
<trkpt lat="46.2581400" lon="10.5738840">
	<ele>1881.60</ele>
	<time>2024-03-09T09:25:05.000Z</time>
</trkpt>
<trkpt lat="46.2581400" lon="10.5738840">
	<ele>1881.60</ele>
	<time>2024-03-09T09:25:06.000Z</time>
</trkpt>
<trkpt lat="46.2581400" lon="10.5738840">
	<ele>1881.60</ele>
	<time>2024-03-09T09:25:07.000Z</time>
</trkpt>
<trkpt lat="46.2581400" lon="10.5738830">
	<ele>1881.60</ele>
	<time>2024-03-09T09:25:08.000Z</time>
</trkpt>
<trkpt lat="46.2581400" lon="10.5738830">
	<ele>1881.60</ele>
	<time>2024-03-09T09:25:09.000Z</time>
</trkpt>
<trkpt lat="46.2581400" lon="10.5738830">
	<ele>1881.60</ele>
	<time>2024-03-09T09:25:10.000Z</time>
</trkpt>
<trkpt lat="46.2581410" lon="10.5738830">
	<ele>1881.60</ele>
	<time>2024-03-09T09:25:11.000Z</time>
</trkpt>
<trkpt lat="46.2581410" lon="10.5738830">
	<ele>1881.60</ele>
	<time>2024-03-09T09:25:12.000Z</time>
</trkpt>
<trkpt lat="46.2581410" lon="10.5738830">
	<ele>1881.60</ele>
	<time>2024-03-09T09:25:13.000Z</time>
</trkpt>
<trkpt lat="46.2581410" lon="10.5738830">
	<ele>1881.60</ele>
	<time>2024-03-09T09:25:14.000Z</time>
</trkpt>
<trkpt lat="46.2581410" lon="10.5738830">
	<ele>1881.60</ele>
	<time>2024-03-09T09:25:15.000Z</time>
</trkpt>
<trkpt lat="46.2581420" lon="10.5738830">
	<ele>1881.60</ele>
	<time>2024-03-09T09:25:16.000Z</time>
</trkpt>
<trkpt lat="46.2581420" lon="10.5738830">
	<ele>1881.60</ele>
	<time>2024-03-09T09:25:17.000Z</time>
</trkpt>
<trkpt lat="46.2581430" lon="10.5738830">
	<ele>1881.60</ele>
	<time>2024-03-09T09:25:18.000Z</time>
</trkpt>
<trkpt lat="46.2581430" lon="10.5738820">
	<ele>1881.60</ele>
	<time>2024-03-09T09:25:19.000Z</time>
</trkpt>
<trkpt lat="46.2581440" lon="10.5738820">
	<ele>1881.60</ele>
	<time>2024-03-09T09:25:20.000Z</time>
</trkpt>
<trkpt lat="46.2581440" lon="10.5738810">
	<ele>1881.60</ele>
	<time>2024-03-09T09:25:21.000Z</time>
</trkpt>
<trkpt lat="46.2581440" lon="10.5738800">
	<ele>1881.60</ele>
	<time>2024-03-09T09:25:22.000Z</time>
</trkpt>
<trkpt lat="46.2581450" lon="10.5738800">
	<ele>1881.60</ele>
	<time>2024-03-09T09:25:23.000Z</time>
</trkpt>
<trkpt lat="46.2581450" lon="10.5738790">
	<ele>1881.60</ele>
	<time>2024-03-09T09:25:24.000Z</time>
</trkpt>
<trkpt lat="46.2581450" lon="10.5738790">
	<ele>1881.60</ele>
	<time>2024-03-09T09:25:25.000Z</time>
</trkpt>
<trkpt lat="46.2581450" lon="10.5738790">
	<ele>1881.60</ele>
	<time>2024-03-09T09:25:26.000Z</time>
</trkpt>
<trkpt lat="46.2581450" lon="10.5738780">
	<ele>1881.60</ele>
	<time>2024-03-09T09:25:27.000Z</time>
</trkpt>
<trkpt lat="46.2581450" lon="10.5738780">
	<ele>1881.60</ele>
	<time>2024-03-09T09:25:28.000Z</time>
</trkpt>
<trkpt lat="46.2581450" lon="10.5738780">
	<ele>1881.60</ele>
	<time>2024-03-09T09:25:29.000Z</time>
</trkpt>
<trkpt lat="46.2581450" lon="10.5738770">
	<ele>1881.60</ele>
	<time>2024-03-09T09:25:30.000Z</time>
</trkpt>
<trkpt lat="46.2581450" lon="10.5738770">
	<ele>1881.60</ele>
	<time>2024-03-09T09:25:31.000Z</time>
</trkpt>
<trkpt lat="46.2581460" lon="10.5738760">
	<ele>1881.60</ele>
	<time>2024-03-09T09:25:32.000Z</time>
</trkpt>
<trkpt lat="46.2581460" lon="10.5738760">
	<ele>1881.60</ele>
	<time>2024-03-09T09:25:33.000Z</time>
</trkpt>
<trkpt lat="46.2581460" lon="10.5738760">
	<ele>1881.60</ele>
	<time>2024-03-09T09:25:34.000Z</time>
</trkpt>
<trkpt lat="46.2581460" lon="10.5738750">
	<ele>1881.60</ele>
	<time>2024-03-09T09:25:35.000Z</time>
</trkpt>
<trkpt lat="46.2581460" lon="10.5738750">
	<ele>1881.60</ele>
	<time>2024-03-09T09:25:36.000Z</time>
</trkpt>
<trkpt lat="46.2581460" lon="10.5738750">
	<ele>1881.60</ele>
	<time>2024-03-09T09:25:37.000Z</time>
</trkpt>
<trkpt lat="46.2581460" lon="10.5738750">
	<ele>1881.60</ele>
	<time>2024-03-09T09:25:38.000Z</time>
</trkpt>
<trkpt lat="46.2581460" lon="10.5738740">
	<ele>1881.60</ele>
	<time>2024-03-09T09:25:39.000Z</time>
</trkpt>
<trkpt lat="46.2581460" lon="10.5738740">
	<ele>1881.60</ele>
	<time>2024-03-09T09:25:40.000Z</time>
</trkpt>
<trkpt lat="46.2581460" lon="10.5738740">
	<ele>1881.60</ele>
	<time>2024-03-09T09:25:41.000Z</time>
</trkpt>
<trkpt lat="46.2581450" lon="10.5738740">
	<ele>1881.60</ele>
	<time>2024-03-09T09:25:42.000Z</time>
</trkpt>
<trkpt lat="46.2581450" lon="10.5738740">
	<ele>1881.60</ele>
	<time>2024-03-09T09:25:43.000Z</time>
</trkpt>
<trkpt lat="46.2581450" lon="10.5738730">
	<ele>1881.60</ele>
	<time>2024-03-09T09:25:44.000Z</time>
</trkpt>
<trkpt lat="46.2581450" lon="10.5738730">
	<ele>1881.60</ele>
	<time>2024-03-09T09:25:45.000Z</time>
</trkpt>
<trkpt lat="46.2581450" lon="10.5738730">
	<ele>1881.60</ele>
	<time>2024-03-09T09:25:46.000Z</time>
</trkpt>
<trkpt lat="46.2581450" lon="10.5738730">
	<ele>1881.60</ele>
	<time>2024-03-09T09:25:47.000Z</time>
</trkpt>
<trkpt lat="46.2581450" lon="10.5738720">
	<ele>1881.60</ele>
	<time>2024-03-09T09:25:48.000Z</time>
</trkpt>
<trkpt lat="46.2581440" lon="10.5738720">
	<ele>1881.60</ele>
	<time>2024-03-09T09:25:49.000Z</time>
</trkpt>
<trkpt lat="46.2581440" lon="10.5738710">
	<ele>1881.60</ele>
	<time>2024-03-09T09:25:50.000Z</time>
</trkpt>
<trkpt lat="46.2581430" lon="10.5738690">
	<ele>1881.60</ele>
	<time>2024-03-09T09:25:51.000Z</time>
</trkpt>
<trkpt lat="46.2581420" lon="10.5738640">
	<ele>1881.60</ele>
	<time>2024-03-09T09:25:52.000Z</time>
</trkpt>
<trkpt lat="46.2581410" lon="10.5738440">
	<ele>1881.60</ele>
	<time>2024-03-09T09:25:53.000Z</time>
</trkpt>
<trkpt lat="46.2581380" lon="10.5738250">
	<ele>1881.60</ele>
	<time>2024-03-09T09:25:54.000Z</time>
</trkpt>
<trkpt lat="46.2581360" lon="10.5738060">
	<ele>1881.60</ele>
	<time>2024-03-09T09:25:55.000Z</time>
</trkpt>
<trkpt lat="46.2581330" lon="10.5737910">
	<ele>1881.60</ele>
	<time>2024-03-09T09:25:56.000Z</time>
</trkpt>
<trkpt lat="46.2581300" lon="10.5737760">
	<ele>1881.60</ele>
	<time>2024-03-09T09:25:57.000Z</time>
</trkpt>
<trkpt lat="46.2581260" lon="10.5737640">
	<ele>1881.60</ele>
	<time>2024-03-09T09:25:58.000Z</time>
</trkpt>
<trkpt lat="46.2581220" lon="10.5737550">
	<ele>1881.60</ele>
	<time>2024-03-09T09:25:59.000Z</time>
</trkpt>
<trkpt lat="46.2581190" lon="10.5737490">
	<ele>1881.60</ele>
	<time>2024-03-09T09:26:00.000Z</time>
</trkpt>
<trkpt lat="46.2581160" lon="10.5737450">
	<ele>1881.60</ele>
	<time>2024-03-09T09:26:01.000Z</time>
</trkpt>
<trkpt lat="46.2581150" lon="10.5737450">
	<ele>1881.60</ele>
	<time>2024-03-09T09:26:02.000Z</time>
</trkpt>
<trkpt lat="46.2581160" lon="10.5737450">
	<ele>1881.60</ele>
	<time>2024-03-09T09:26:03.000Z</time>
</trkpt>
<trkpt lat="46.2581160" lon="10.5737460">
	<ele>1881.60</ele>
	<time>2024-03-09T09:26:04.000Z</time>
</trkpt>
<trkpt lat="46.2581160" lon="10.5737450">
	<ele>1881.60</ele>
	<time>2024-03-09T09:26:05.000Z</time>
</trkpt>
<trkpt lat="46.2581160" lon="10.5737440">
	<ele>1881.60</ele>
	<time>2024-03-09T09:26:06.000Z</time>
</trkpt>
<trkpt lat="46.2581170" lon="10.5737430">
	<ele>1881.60</ele>
	<time>2024-03-09T09:26:07.000Z</time>
</trkpt>
<trkpt lat="46.2581180" lon="10.5737490">
	<ele>1881.60</ele>
	<time>2024-03-09T09:26:08.000Z</time>
</trkpt>
<trkpt lat="46.2581190" lon="10.5737480">
	<ele>1881.60</ele>
	<time>2024-03-09T09:26:09.000Z</time>
</trkpt>
<trkpt lat="46.2581190" lon="10.5737480">
	<ele>1881.60</ele>
	<time>2024-03-09T09:26:10.000Z</time>
</trkpt>
<trkpt lat="46.2581190" lon="10.5737480">
	<ele>1881.60</ele>
	<time>2024-03-09T09:26:11.000Z</time>
</trkpt>
<trkpt lat="46.2581190" lon="10.5737480">
	<ele>1881.60</ele>
	<time>2024-03-09T09:26:12.000Z</time>
</trkpt>
<trkpt lat="46.2581190" lon="10.5737480">
	<ele>1881.60</ele>
	<time>2024-03-09T09:26:13.000Z</time>
</trkpt>
<trkpt lat="46.2581190" lon="10.5737480">
	<ele>1881.60</ele>
	<time>2024-03-09T09:26:14.000Z</time>
</trkpt>
<trkpt lat="46.2581190" lon="10.5737480">
	<ele>1881.60</ele>
	<time>2024-03-09T09:26:15.000Z</time>
</trkpt>
<trkpt lat="46.2581190" lon="10.5737480">
	<ele>1881.60</ele>
	<time>2024-03-09T09:26:16.000Z</time>
</trkpt>
<trkpt lat="46.2581190" lon="10.5737480">
	<ele>1881.60</ele>
	<time>2024-03-09T09:26:17.000Z</time>
</trkpt>
<trkpt lat="46.2581190" lon="10.5737480">
	<ele>1881.60</ele>
	<time>2024-03-09T09:26:18.000Z</time>
</trkpt>
<trkpt lat="46.2581190" lon="10.5737480">
	<ele>1881.60</ele>
	<time>2024-03-09T09:26:19.000Z</time>
</trkpt>
<trkpt lat="46.2581190" lon="10.5737470">
	<ele>1881.60</ele>
	<time>2024-03-09T09:26:20.000Z</time>
</trkpt>
<trkpt lat="46.2581190" lon="10.5737470">
	<ele>1881.60</ele>
	<time>2024-03-09T09:26:21.000Z</time>
</trkpt>
<trkpt lat="46.2581190" lon="10.5737470">
	<ele>1881.60</ele>
	<time>2024-03-09T09:26:22.000Z</time>
</trkpt>
<trkpt lat="46.2581190" lon="10.5737460">
	<ele>1881.60</ele>
	<time>2024-03-09T09:26:23.000Z</time>
</trkpt>
<trkpt lat="46.2581190" lon="10.5737460">
	<ele>1881.60</ele>
	<time>2024-03-09T09:26:24.000Z</time>
</trkpt>
<trkpt lat="46.2581190" lon="10.5737460">
	<ele>1881.60</ele>
	<time>2024-03-09T09:26:25.000Z</time>
</trkpt>
<trkpt lat="46.2581190" lon="10.5737460">
	<ele>1881.60</ele>
	<time>2024-03-09T09:26:26.000Z</time>
</trkpt>
<trkpt lat="46.2581190" lon="10.5737460">
	<ele>1881.60</ele>
	<time>2024-03-09T09:26:27.000Z</time>
</trkpt>
<trkpt lat="46.2581190" lon="10.5737460">
	<ele>1881.60</ele>
	<time>2024-03-09T09:26:28.000Z</time>
</trkpt>
<trkpt lat="46.2581190" lon="10.5737450">
	<ele>1881.60</ele>
	<time>2024-03-09T09:26:29.000Z</time>
</trkpt>
<trkpt lat="46.2581190" lon="10.5737450">
	<ele>1881.60</ele>
	<time>2024-03-09T09:26:30.000Z</time>
</trkpt>
<trkpt lat="46.2581180" lon="10.5737450">
	<ele>1881.60</ele>
	<time>2024-03-09T09:26:31.000Z</time>
</trkpt>
<trkpt lat="46.2581180" lon="10.5737450">
	<ele>1881.60</ele>
	<time>2024-03-09T09:26:32.000Z</time>
</trkpt>
<trkpt lat="46.2581180" lon="10.5737440">
	<ele>1881.60</ele>
	<time>2024-03-09T09:26:33.000Z</time>
</trkpt>
<trkpt lat="46.2581180" lon="10.5737440">
	<ele>1881.60</ele>
	<time>2024-03-09T09:26:34.000Z</time>
</trkpt>
<trkpt lat="46.2581180" lon="10.5737430">
	<ele>1881.60</ele>
	<time>2024-03-09T09:26:35.000Z</time>
</trkpt>
<trkpt lat="46.2581180" lon="10.5737430">
	<ele>1881.60</ele>
	<time>2024-03-09T09:26:36.000Z</time>
</trkpt>
<trkpt lat="46.2581180" lon="10.5737420">
	<ele>1881.60</ele>
	<time>2024-03-09T09:26:37.000Z</time>
</trkpt>
<trkpt lat="46.2581180" lon="10.5737420">
	<ele>1881.60</ele>
	<time>2024-03-09T09:26:38.000Z</time>
</trkpt>
<trkpt lat="46.2581180" lon="10.5737420">
	<ele>1881.60</ele>
	<time>2024-03-09T09:26:39.000Z</time>
</trkpt>
<trkpt lat="46.2581180" lon="10.5737410">
	<ele>1881.60</ele>
	<time>2024-03-09T09:26:40.000Z</time>
</trkpt>
<trkpt lat="46.2581180" lon="10.5737400">
	<ele>1881.60</ele>
	<time>2024-03-09T09:26:41.000Z</time>
</trkpt>
<trkpt lat="46.2581180" lon="10.5737380">
	<ele>1881.60</ele>
	<time>2024-03-09T09:26:42.000Z</time>
</trkpt>
<trkpt lat="46.2581180" lon="10.5737370">
	<ele>1881.60</ele>
	<time>2024-03-09T09:26:43.000Z</time>
</trkpt>
<trkpt lat="46.2581170" lon="10.5737350">
	<ele>1881.60</ele>
	<time>2024-03-09T09:26:44.000Z</time>
</trkpt>
<trkpt lat="46.2581160" lon="10.5737330">
	<ele>1881.60</ele>
	<time>2024-03-09T09:26:45.000Z</time>
</trkpt>
<trkpt lat="46.2581160" lon="10.5737320">
	<ele>1881.60</ele>
	<time>2024-03-09T09:26:46.000Z</time>
</trkpt>
<trkpt lat="46.2581130" lon="10.5737270">
	<ele>1881.60</ele>
	<time>2024-03-09T09:26:47.000Z</time>
</trkpt>
<trkpt lat="46.2581110" lon="10.5737240">
	<ele>1881.60</ele>
	<time>2024-03-09T09:26:48.000Z</time>
</trkpt>
<trkpt lat="46.2581100" lon="10.5737210">
	<ele>1881.60</ele>
	<time>2024-03-09T09:26:49.000Z</time>
</trkpt>
<trkpt lat="46.2581090" lon="10.5737200">
	<ele>1881.60</ele>
	<time>2024-03-09T09:26:50.000Z</time>
</trkpt>
<trkpt lat="46.2581060" lon="10.5737150">
	<ele>1881.60</ele>
	<time>2024-03-09T09:26:51.000Z</time>
</trkpt>
<trkpt lat="46.2581010" lon="10.5736990">
	<ele>1881.60</ele>
	<time>2024-03-09T09:26:52.000Z</time>
</trkpt>
<trkpt lat="46.2580960" lon="10.5736820">
	<ele>1881.60</ele>
	<time>2024-03-09T09:26:53.000Z</time>
</trkpt>
<trkpt lat="46.2580920" lon="10.5736660">
	<ele>1881.60</ele>
	<time>2024-03-09T09:26:54.000Z</time>
</trkpt>
<trkpt lat="46.2580900" lon="10.5736390">
	<ele>1881.60</ele>
	<time>2024-03-09T09:26:55.000Z</time>
</trkpt>
<trkpt lat="46.2580860" lon="10.5736180">
	<ele>1881.60</ele>
	<time>2024-03-09T09:26:56.000Z</time>
</trkpt>
<trkpt lat="46.2580820" lon="10.5736020">
	<ele>1881.60</ele>
	<time>2024-03-09T09:26:57.000Z</time>
</trkpt>
<trkpt lat="46.2580780" lon="10.5735880">
	<ele>1881.60</ele>
	<time>2024-03-09T09:26:58.000Z</time>
</trkpt>
<trkpt lat="46.2580750" lon="10.5735810">
	<ele>1881.60</ele>
	<time>2024-03-09T09:26:59.000Z</time>
</trkpt>
<trkpt lat="46.2580720" lon="10.5735750">
	<ele>1881.60</ele>
	<time>2024-03-09T09:27:00.000Z</time>
</trkpt>
<trkpt lat="46.2580730" lon="10.5735750">
	<ele>1881.60</ele>
	<time>2024-03-09T09:27:01.000Z</time>
</trkpt>
<trkpt lat="46.2580740" lon="10.5735750">
	<ele>1881.60</ele>
	<time>2024-03-09T09:27:02.000Z</time>
</trkpt>
<trkpt lat="46.2580740" lon="10.5735740">
	<ele>1877.00</ele>
	<time>2024-03-09T09:27:03.000Z</time>
</trkpt>
<trkpt lat="46.2580760" lon="10.5735730">
	<ele>1877.00</ele>
	<time>2024-03-09T09:27:04.000Z</time>
</trkpt>
<trkpt lat="46.2580770" lon="10.5735730">
	<ele>1877.00</ele>
	<time>2024-03-09T09:27:05.000Z</time>
</trkpt>
<trkpt lat="46.2580780" lon="10.5735710">
	<ele>1877.00</ele>
	<time>2024-03-09T09:27:06.000Z</time>
</trkpt>
<trkpt lat="46.2580760" lon="10.5735720">
	<ele>1877.00</ele>
	<time>2024-03-09T09:27:07.000Z</time>
</trkpt>
<trkpt lat="46.2580750" lon="10.5735730">
	<ele>1877.00</ele>
	<time>2024-03-09T09:27:08.000Z</time>
</trkpt>
<trkpt lat="46.2580750" lon="10.5735730">
	<ele>1877.00</ele>
	<time>2024-03-09T09:27:09.000Z</time>
</trkpt>
<trkpt lat="46.2580750" lon="10.5735730">
	<ele>1877.00</ele>
	<time>2024-03-09T09:27:10.000Z</time>
</trkpt>
<trkpt lat="46.2580750" lon="10.5735730">
	<ele>1877.00</ele>
	<time>2024-03-09T09:27:11.000Z</time>
</trkpt>
<trkpt lat="46.2580750" lon="10.5735730">
	<ele>1877.20</ele>
	<time>2024-03-09T09:27:12.000Z</time>
</trkpt>
<trkpt lat="46.2580750" lon="10.5735730">
	<ele>1877.20</ele>
	<time>2024-03-09T09:27:13.000Z</time>
</trkpt>
<trkpt lat="46.2580750" lon="10.5735730">
	<ele>1877.20</ele>
	<time>2024-03-09T09:27:14.000Z</time>
</trkpt>
<trkpt lat="46.2580750" lon="10.5735730">
	<ele>1877.20</ele>
	<time>2024-03-09T09:27:15.000Z</time>
</trkpt>
<trkpt lat="46.2580750" lon="10.5735730">
	<ele>1877.20</ele>
	<time>2024-03-09T09:27:16.000Z</time>
</trkpt>
<trkpt lat="46.2580750" lon="10.5735730">
	<ele>1877.00</ele>
	<time>2024-03-09T09:27:17.000Z</time>
</trkpt>
<trkpt lat="46.2580750" lon="10.5735730">
	<ele>1877.00</ele>
	<time>2024-03-09T09:27:18.000Z</time>
</trkpt>
<trkpt lat="46.2580750" lon="10.5735730">
	<ele>1877.00</ele>
	<time>2024-03-09T09:27:19.000Z</time>
</trkpt>
<trkpt lat="46.2580750" lon="10.5735680">
	<ele>1876.80</ele>
	<time>2024-03-09T09:27:20.000Z</time>
</trkpt>
<trkpt lat="46.2580730" lon="10.5735460">
	<ele>1876.80</ele>
	<time>2024-03-09T09:27:21.000Z</time>
</trkpt>
<trkpt lat="46.2580730" lon="10.5735220">
	<ele>1876.60</ele>
	<time>2024-03-09T09:27:22.000Z</time>
</trkpt>
<trkpt lat="46.2580720" lon="10.5734970">
	<ele>1876.20</ele>
	<time>2024-03-09T09:27:23.000Z</time>
</trkpt>
<trkpt lat="46.2580740" lon="10.5734640">
	<ele>1876.00</ele>
	<time>2024-03-09T09:27:24.000Z</time>
</trkpt>
<trkpt lat="46.2580740" lon="10.5734420">
	<ele>1875.60</ele>
	<time>2024-03-09T09:27:25.000Z</time>
</trkpt>
<trkpt lat="46.2580720" lon="10.5734180">
	<ele>1875.40</ele>
	<time>2024-03-09T09:27:26.000Z</time>
</trkpt>
<trkpt lat="46.2580720" lon="10.5733920">
	<ele>1875.00</ele>
	<time>2024-03-09T09:27:27.000Z</time>
</trkpt>
<trkpt lat="46.2580730" lon="10.5733640">
	<ele>1874.60</ele>
	<time>2024-03-09T09:27:28.000Z</time>
</trkpt>
<trkpt lat="46.2580710" lon="10.5733370">
	<ele>1874.20</ele>
	<time>2024-03-09T09:27:29.000Z</time>
</trkpt>
<trkpt lat="46.2580670" lon="10.5733140">
	<ele>1873.80</ele>
	<time>2024-03-09T09:27:30.000Z</time>
</trkpt>
<trkpt lat="46.2580620" lon="10.5732890">
	<ele>1873.40</ele>
	<time>2024-03-09T09:27:31.000Z</time>
</trkpt>
<trkpt lat="46.2580600" lon="10.5732610">
	<ele>1873.00</ele>
	<time>2024-03-09T09:27:32.000Z</time>
</trkpt>
<trkpt lat="46.2580590" lon="10.5732280">
	<ele>1872.60</ele>
	<time>2024-03-09T09:27:33.000Z</time>
</trkpt>
<trkpt lat="46.2580580" lon="10.5731840">
	<ele>1872.00</ele>
	<time>2024-03-09T09:27:34.000Z</time>
</trkpt>
<trkpt lat="46.2580560" lon="10.5731440">
	<ele>1871.60</ele>
	<time>2024-03-09T09:27:35.000Z</time>
</trkpt>
<trkpt lat="46.2580520" lon="10.5731120">
	<ele>1871.00</ele>
	<time>2024-03-09T09:27:36.000Z</time>
</trkpt>
<trkpt lat="46.2580500" lon="10.5730800">
	<ele>1870.60</ele>
	<time>2024-03-09T09:27:37.000Z</time>
</trkpt>
<trkpt lat="46.2580500" lon="10.5730510">
	<ele>1870.00</ele>
	<time>2024-03-09T09:27:38.000Z</time>
</trkpt>
<trkpt lat="46.2580510" lon="10.5730240">
	<ele>1869.60</ele>
	<time>2024-03-09T09:27:39.000Z</time>
</trkpt>
<trkpt lat="46.2580520" lon="10.5730020">
	<ele>1869.20</ele>
	<time>2024-03-09T09:27:40.000Z</time>
</trkpt>
<trkpt lat="46.2580500" lon="10.5729750">
	<ele>1869.00</ele>
	<time>2024-03-09T09:27:41.000Z</time>
</trkpt>
<trkpt lat="46.2580440" lon="10.5729430">
	<ele>1868.40</ele>
	<time>2024-03-09T09:27:42.000Z</time>
</trkpt>
<trkpt lat="46.2580360" lon="10.5729200">
	<ele>1868.00</ele>
	<time>2024-03-09T09:27:43.000Z</time>
</trkpt>
<trkpt lat="46.2580270" lon="10.5729010">
	<ele>1867.80</ele>
	<time>2024-03-09T09:27:44.000Z</time>
</trkpt>
<trkpt lat="46.2580190" lon="10.5728740">
	<ele>1867.40</ele>
	<time>2024-03-09T09:27:45.000Z</time>
</trkpt>
<trkpt lat="46.2580140" lon="10.5728580">
	<ele>1867.20</ele>
	<time>2024-03-09T09:27:46.000Z</time>
</trkpt>
<trkpt lat="46.2580120" lon="10.5728490">
	<ele>1867.00</ele>
	<time>2024-03-09T09:27:47.000Z</time>
</trkpt>
<trkpt lat="46.2580110" lon="10.5728450">
	<ele>1866.80</ele>
	<time>2024-03-09T09:27:48.000Z</time>
</trkpt>
<trkpt lat="46.2580120" lon="10.5728440">
	<ele>1866.60</ele>
	<time>2024-03-09T09:27:49.000Z</time>
</trkpt>
<trkpt lat="46.2580110" lon="10.5728430">
	<ele>1866.40</ele>
	<time>2024-03-09T09:27:50.000Z</time>
</trkpt>
<trkpt lat="46.2580110" lon="10.5728420">
	<ele>1866.20</ele>
	<time>2024-03-09T09:27:51.000Z</time>
</trkpt>
<trkpt lat="46.2580110" lon="10.5728420">
	<ele>1866.20</ele>
	<time>2024-03-09T09:27:52.000Z</time>
</trkpt>
<trkpt lat="46.2580110" lon="10.5728430">
	<ele>1866.00</ele>
	<time>2024-03-09T09:27:53.000Z</time>
</trkpt>
<trkpt lat="46.2580110" lon="10.5728450">
	<ele>1866.00</ele>
	<time>2024-03-09T09:27:54.000Z</time>
</trkpt>
<trkpt lat="46.2580110" lon="10.5728460">
	<ele>1866.00</ele>
	<time>2024-03-09T09:27:55.000Z</time>
</trkpt>
<trkpt lat="46.2580100" lon="10.5728470">
	<ele>1866.00</ele>
	<time>2024-03-09T09:27:56.000Z</time>
</trkpt>
<trkpt lat="46.2580120" lon="10.5728490">
	<ele>1866.00</ele>
	<time>2024-03-09T09:27:57.000Z</time>
</trkpt>
<trkpt lat="46.2580150" lon="10.5728500">
	<ele>1866.00</ele>
	<time>2024-03-09T09:27:58.000Z</time>
</trkpt>
<trkpt lat="46.2580150" lon="10.5728500">
	<ele>1866.00</ele>
	<time>2024-03-09T09:27:59.000Z</time>
</trkpt>
<trkpt lat="46.2580150" lon="10.5728500">
	<ele>1866.00</ele>
	<time>2024-03-09T09:28:00.000Z</time>
</trkpt>
<trkpt lat="46.2580150" lon="10.5728500">
	<ele>1866.00</ele>
	<time>2024-03-09T09:28:01.000Z</time>
</trkpt>
<trkpt lat="46.2580150" lon="10.5728500">
	<ele>1866.00</ele>
	<time>2024-03-09T09:28:02.000Z</time>
</trkpt>
<trkpt lat="46.2580150" lon="10.5728500">
	<ele>1866.20</ele>
	<time>2024-03-09T09:28:03.000Z</time>
</trkpt>
<trkpt lat="46.2580150" lon="10.5728500">
	<ele>1866.40</ele>
	<time>2024-03-09T09:28:04.000Z</time>
</trkpt>
<trkpt lat="46.2580150" lon="10.5728500">
	<ele>1866.40</ele>
	<time>2024-03-09T09:28:05.000Z</time>
</trkpt>
<trkpt lat="46.2580150" lon="10.5728500">
	<ele>1866.40</ele>
	<time>2024-03-09T09:28:06.000Z</time>
</trkpt>
<trkpt lat="46.2580150" lon="10.5728500">
	<ele>1866.40</ele>
	<time>2024-03-09T09:28:07.000Z</time>
</trkpt>
<trkpt lat="46.2580150" lon="10.5728490">
	<ele>1866.40</ele>
	<time>2024-03-09T09:28:08.000Z</time>
</trkpt>
<trkpt lat="46.2580140" lon="10.5728490">
	<ele>1866.20</ele>
	<time>2024-03-09T09:28:09.000Z</time>
</trkpt>
<trkpt lat="46.2580140" lon="10.5728470">
	<ele>1866.20</ele>
	<time>2024-03-09T09:28:10.000Z</time>
</trkpt>
<trkpt lat="46.2580140" lon="10.5728470">
	<ele>1866.20</ele>
	<time>2024-03-09T09:28:11.000Z</time>
</trkpt>
<trkpt lat="46.2580130" lon="10.5728460">
	<ele>1866.20</ele>
	<time>2024-03-09T09:28:12.000Z</time>
</trkpt>
<trkpt lat="46.2580140" lon="10.5728410">
	<ele>1866.00</ele>
	<time>2024-03-09T09:28:13.000Z</time>
</trkpt>
<trkpt lat="46.2580150" lon="10.5728090">
	<ele>1866.00</ele>
	<time>2024-03-09T09:28:14.000Z</time>
</trkpt>
<trkpt lat="46.2580170" lon="10.5727740">
	<ele>1865.80</ele>
	<time>2024-03-09T09:28:15.000Z</time>
</trkpt>
<trkpt lat="46.2580170" lon="10.5727420">
	<ele>1865.60</ele>
	<time>2024-03-09T09:28:16.000Z</time>
</trkpt>
<trkpt lat="46.2580120" lon="10.5727150">
	<ele>1865.60</ele>
	<time>2024-03-09T09:28:17.000Z</time>
</trkpt>
<trkpt lat="46.2580080" lon="10.5726900">
	<ele>1865.40</ele>
	<time>2024-03-09T09:28:18.000Z</time>
</trkpt>
<trkpt lat="46.2580080" lon="10.5726650">
	<ele>1865.20</ele>
	<time>2024-03-09T09:28:19.000Z</time>
</trkpt>
<trkpt lat="46.2580070" lon="10.5726390">
	<ele>1865.00</ele>
	<time>2024-03-09T09:28:20.000Z</time>
</trkpt>
<trkpt lat="46.2580060" lon="10.5726180">
	<ele>1865.00</ele>
	<time>2024-03-09T09:28:21.000Z</time>
</trkpt>
<trkpt lat="46.2580060" lon="10.5726000">
	<ele>1864.80</ele>
	<time>2024-03-09T09:28:22.000Z</time>
</trkpt>
<trkpt lat="46.2580050" lon="10.5725830">
	<ele>1864.60</ele>
	<time>2024-03-09T09:28:23.000Z</time>
</trkpt>
<trkpt lat="46.2580010" lon="10.5725580">
	<ele>1864.40</ele>
	<time>2024-03-09T09:28:24.000Z</time>
</trkpt>
<trkpt lat="46.2579960" lon="10.5725350">
	<ele>1866.00</ele>
	<time>2024-03-09T09:28:25.000Z</time>
</trkpt>
<trkpt lat="46.2579910" lon="10.5725150">
	<ele>1866.00</ele>
	<time>2024-03-09T09:28:26.000Z</time>
</trkpt>
<trkpt lat="46.2579870" lon="10.5725030">
	<ele>1866.00</ele>
	<time>2024-03-09T09:28:27.000Z</time>
</trkpt>
<trkpt lat="46.2579850" lon="10.5724980">
	<ele>1865.80</ele>
	<time>2024-03-09T09:28:28.000Z</time>
</trkpt>
<trkpt lat="46.2579830" lon="10.5724980">
	<ele>1865.60</ele>
	<time>2024-03-09T09:28:29.000Z</time>
</trkpt>
<trkpt lat="46.2579830" lon="10.5724980">
	<ele>1865.40</ele>
	<time>2024-03-09T09:28:30.000Z</time>
</trkpt>
<trkpt lat="46.2579820" lon="10.5724980">
	<ele>1865.40</ele>
	<time>2024-03-09T09:28:31.000Z</time>
</trkpt>
<trkpt lat="46.2579820" lon="10.5724980">
	<ele>1865.40</ele>
	<time>2024-03-09T09:28:32.000Z</time>
</trkpt>
<trkpt lat="46.2579820" lon="10.5724980">
	<ele>1865.40</ele>
	<time>2024-03-09T09:28:33.000Z</time>
</trkpt>
<trkpt lat="46.2579820" lon="10.5724980">
	<ele>1865.40</ele>
	<time>2024-03-09T09:28:34.000Z</time>
</trkpt>
<trkpt lat="46.2579830" lon="10.5724980">
	<ele>1865.40</ele>
	<time>2024-03-09T09:28:35.000Z</time>
</trkpt>
<trkpt lat="46.2579820" lon="10.5724970">
	<ele>1865.40</ele>
	<time>2024-03-09T09:28:36.000Z</time>
</trkpt>
<trkpt lat="46.2579820" lon="10.5724960">
	<ele>1865.40</ele>
	<time>2024-03-09T09:28:37.000Z</time>
</trkpt>
<trkpt lat="46.2579820" lon="10.5724960">
	<ele>1865.40</ele>
	<time>2024-03-09T09:28:38.000Z</time>
</trkpt>
<trkpt lat="46.2579820" lon="10.5724970">
	<ele>1865.40</ele>
	<time>2024-03-09T09:28:39.000Z</time>
</trkpt>
<trkpt lat="46.2579820" lon="10.5724970">
	<ele>1865.40</ele>
	<time>2024-03-09T09:28:40.000Z</time>
</trkpt>
<trkpt lat="46.2579820" lon="10.5724970">
	<ele>1865.40</ele>
	<time>2024-03-09T09:28:41.000Z</time>
</trkpt>
<trkpt lat="46.2579820" lon="10.5724970">
	<ele>1865.40</ele>
	<time>2024-03-09T09:28:42.000Z</time>
</trkpt>
<trkpt lat="46.2579820" lon="10.5724970">
	<ele>1865.40</ele>
	<time>2024-03-09T09:28:43.000Z</time>
</trkpt>
<trkpt lat="46.2579820" lon="10.5724970">
	<ele>1865.40</ele>
	<time>2024-03-09T09:28:44.000Z</time>
</trkpt>
<trkpt lat="46.2579820" lon="10.5724970">
	<ele>1865.20</ele>
	<time>2024-03-09T09:28:45.000Z</time>
</trkpt>
<trkpt lat="46.2579820" lon="10.5724970">
	<ele>1865.20</ele>
	<time>2024-03-09T09:28:46.000Z</time>
</trkpt>
<trkpt lat="46.2579820" lon="10.5724970">
	<ele>1865.20</ele>
	<time>2024-03-09T09:28:47.000Z</time>
</trkpt>
<trkpt lat="46.2579820" lon="10.5724970">
	<ele>1865.20</ele>
	<time>2024-03-09T09:28:48.000Z</time>
</trkpt>
<trkpt lat="46.2579820" lon="10.5724970">
	<ele>1865.20</ele>
	<time>2024-03-09T09:28:49.000Z</time>
</trkpt>
<trkpt lat="46.2579810" lon="10.5724910">
	<ele>1865.00</ele>
	<time>2024-03-09T09:28:50.000Z</time>
</trkpt>
<trkpt lat="46.2579770" lon="10.5724670">
	<ele>1864.80</ele>
	<time>2024-03-09T09:28:51.000Z</time>
</trkpt>
<trkpt lat="46.2579730" lon="10.5724490">
	<ele>1864.80</ele>
	<time>2024-03-09T09:28:52.000Z</time>
</trkpt>
<trkpt lat="46.2579680" lon="10.5724240">
	<ele>1864.80</ele>
	<time>2024-03-09T09:28:53.000Z</time>
</trkpt>
<trkpt lat="46.2579620" lon="10.5723970">
	<ele>1864.40</ele>
	<time>2024-03-09T09:28:54.000Z</time>
</trkpt>
<trkpt lat="46.2579560" lon="10.5723680">
	<ele>1864.20</ele>
	<time>2024-03-09T09:28:55.000Z</time>
</trkpt>
<trkpt lat="46.2579490" lon="10.5723420">
	<ele>1864.00</ele>
	<time>2024-03-09T09:28:56.000Z</time>
</trkpt>
<trkpt lat="46.2579430" lon="10.5723190">
	<ele>1863.60</ele>
	<time>2024-03-09T09:28:57.000Z</time>
</trkpt>
<trkpt lat="46.2579360" lon="10.5722980">
	<ele>1863.40</ele>
	<time>2024-03-09T09:28:58.000Z</time>
</trkpt>
<trkpt lat="46.2579280" lon="10.5722730">
	<ele>1863.20</ele>
	<time>2024-03-09T09:28:59.000Z</time>
</trkpt>
<trkpt lat="46.2579230" lon="10.5722570">
	<ele>1862.80</ele>
	<time>2024-03-09T09:29:00.000Z</time>
</trkpt>
<trkpt lat="46.2579190" lon="10.5722420">
	<ele>1862.60</ele>
	<time>2024-03-09T09:29:01.000Z</time>
</trkpt>
<trkpt lat="46.2579140" lon="10.5722240">
	<ele>1862.40</ele>
	<time>2024-03-09T09:29:02.000Z</time>
</trkpt>
<trkpt lat="46.2579110" lon="10.5722020">
	<ele>1862.40</ele>
	<time>2024-03-09T09:29:03.000Z</time>
</trkpt>
<trkpt lat="46.2579050" lon="10.5721790">
	<ele>1862.20</ele>
	<time>2024-03-09T09:29:04.000Z</time>
</trkpt>
<trkpt lat="46.2579000" lon="10.5721550">
	<ele>1861.80</ele>
	<time>2024-03-09T09:29:05.000Z</time>
</trkpt>
<trkpt lat="46.2579000" lon="10.5721390">
	<ele>1861.80</ele>
	<time>2024-03-09T09:29:06.000Z</time>
</trkpt>
<trkpt lat="46.2578980" lon="10.5721190">
	<ele>1861.40</ele>
	<time>2024-03-09T09:29:07.000Z</time>
</trkpt>
<trkpt lat="46.2578940" lon="10.5720960">
	<ele>1861.20</ele>
	<time>2024-03-09T09:29:08.000Z</time>
</trkpt>
<trkpt lat="46.2578910" lon="10.5720760">
	<ele>1861.00</ele>
	<time>2024-03-09T09:29:09.000Z</time>
</trkpt>
<trkpt lat="46.2578890" lon="10.5720590">
	<ele>1860.80</ele>
	<time>2024-03-09T09:29:10.000Z</time>
</trkpt>
<trkpt lat="46.2578850" lon="10.5720310">
	<ele>1860.60</ele>
	<time>2024-03-09T09:29:11.000Z</time>
</trkpt>
<trkpt lat="46.2578810" lon="10.5720060">
	<ele>1859.00</ele>
	<time>2024-03-09T09:29:12.000Z</time>
</trkpt>
<trkpt lat="46.2578740" lon="10.5719830">
	<ele>1859.00</ele>
	<time>2024-03-09T09:29:13.000Z</time>
</trkpt>
<trkpt lat="46.2578670" lon="10.5719630">
	<ele>1859.00</ele>
	<time>2024-03-09T09:29:14.000Z</time>
</trkpt>
<trkpt lat="46.2578590" lon="10.5719470">
	<ele>1859.00</ele>
	<time>2024-03-09T09:29:15.000Z</time>
</trkpt>
<trkpt lat="46.2578530" lon="10.5719360">
	<ele>1859.00</ele>
	<time>2024-03-09T09:29:16.000Z</time>
</trkpt>
<trkpt lat="46.2578460" lon="10.5719190">
	<ele>1858.80</ele>
	<time>2024-03-09T09:29:17.000Z</time>
</trkpt>
<trkpt lat="46.2578440" lon="10.5719070">
	<ele>1858.80</ele>
	<time>2024-03-09T09:29:18.000Z</time>
</trkpt>
<trkpt lat="46.2578420" lon="10.5718990">
	<ele>1858.80</ele>
	<time>2024-03-09T09:29:19.000Z</time>
</trkpt>
<trkpt lat="46.2578400" lon="10.5718920">
	<ele>1858.60</ele>
	<time>2024-03-09T09:29:20.000Z</time>
</trkpt>
<trkpt lat="46.2578380" lon="10.5718850">
	<ele>1858.60</ele>
	<time>2024-03-09T09:29:21.000Z</time>
</trkpt>
<trkpt lat="46.2578380" lon="10.5718780">
	<ele>1858.60</ele>
	<time>2024-03-09T09:29:22.000Z</time>
</trkpt>
<trkpt lat="46.2578350" lon="10.5718670">
	<ele>1858.60</ele>
	<time>2024-03-09T09:29:23.000Z</time>
</trkpt>
<trkpt lat="46.2578320" lon="10.5718570">
	<ele>1858.60</ele>
	<time>2024-03-09T09:29:24.000Z</time>
</trkpt>
<trkpt lat="46.2578270" lon="10.5718400">
	<ele>1858.60</ele>
	<time>2024-03-09T09:29:25.000Z</time>
</trkpt>
<trkpt lat="46.2578260" lon="10.5718260">
	<ele>1858.60</ele>
	<time>2024-03-09T09:29:26.000Z</time>
</trkpt>
<trkpt lat="46.2578250" lon="10.5718120">
	<ele>1858.40</ele>
	<time>2024-03-09T09:29:27.000Z</time>
</trkpt>
<trkpt lat="46.2578200" lon="10.5718010">
	<ele>1858.40</ele>
	<time>2024-03-09T09:29:28.000Z</time>
</trkpt>
<trkpt lat="46.2578150" lon="10.5717840">
	<ele>1858.40</ele>
	<time>2024-03-09T09:29:29.000Z</time>
</trkpt>
<trkpt lat="46.2578090" lon="10.5717750">
	<ele>1858.40</ele>
	<time>2024-03-09T09:29:30.000Z</time>
</trkpt>
<trkpt lat="46.2578030" lon="10.5717660">
	<ele>1858.40</ele>
	<time>2024-03-09T09:29:31.000Z</time>
</trkpt>
<trkpt lat="46.2577990" lon="10.5717580">
	<ele>1858.40</ele>
	<time>2024-03-09T09:29:32.000Z</time>
</trkpt>
<trkpt lat="46.2577970" lon="10.5717480">
	<ele>1858.20</ele>
	<time>2024-03-09T09:29:33.000Z</time>
</trkpt>
<trkpt lat="46.2577970" lon="10.5717390">
	<ele>1858.20</ele>
	<time>2024-03-09T09:29:34.000Z</time>
</trkpt>
<trkpt lat="46.2577980" lon="10.5717280">
	<ele>1858.20</ele>
	<time>2024-03-09T09:29:35.000Z</time>
</trkpt>
<trkpt lat="46.2577990" lon="10.5717220">
	<ele>1858.20</ele>
	<time>2024-03-09T09:29:36.000Z</time>
</trkpt>
<trkpt lat="46.2577980" lon="10.5717140">
	<ele>1858.20</ele>
	<time>2024-03-09T09:29:37.000Z</time>
</trkpt>
<trkpt lat="46.2577990" lon="10.5716990">
	<ele>1858.00</ele>
	<time>2024-03-09T09:29:38.000Z</time>
</trkpt>
<trkpt lat="46.2577970" lon="10.5716870">
	<ele>1858.00</ele>
	<time>2024-03-09T09:29:39.000Z</time>
</trkpt>
<trkpt lat="46.2577940" lon="10.5716720">
	<ele>1858.00</ele>
	<time>2024-03-09T09:29:40.000Z</time>
</trkpt>
<trkpt lat="46.2577920" lon="10.5716570">
	<ele>1857.80</ele>
	<time>2024-03-09T09:29:41.000Z</time>
</trkpt>
<trkpt lat="46.2577890" lon="10.5716370">
	<ele>1857.60</ele>
	<time>2024-03-09T09:29:42.000Z</time>
</trkpt>
<trkpt lat="46.2577840" lon="10.5716170">
	<ele>1857.40</ele>
	<time>2024-03-09T09:29:43.000Z</time>
</trkpt>
<trkpt lat="46.2577780" lon="10.5715970">
	<ele>1857.40</ele>
	<time>2024-03-09T09:29:44.000Z</time>
</trkpt>
<trkpt lat="46.2577680" lon="10.5715780">
	<ele>1857.20</ele>
	<time>2024-03-09T09:29:45.000Z</time>
</trkpt>
<trkpt lat="46.2577580" lon="10.5715600">
	<ele>1857.00</ele>
	<time>2024-03-09T09:29:46.000Z</time>
</trkpt>
<trkpt lat="46.2577490" lon="10.5715450">
	<ele>1857.00</ele>
	<time>2024-03-09T09:29:47.000Z</time>
</trkpt>
<trkpt lat="46.2577420" lon="10.5715280">
	<ele>1856.80</ele>
	<time>2024-03-09T09:29:48.000Z</time>
</trkpt>
<trkpt lat="46.2577310" lon="10.5715120">
	<ele>1856.80</ele>
	<time>2024-03-09T09:29:49.000Z</time>
</trkpt>
<trkpt lat="46.2577170" lon="10.5715010">
	<ele>1856.60</ele>
	<time>2024-03-09T09:29:50.000Z</time>
</trkpt>
<trkpt lat="46.2577120" lon="10.5714840">
	<ele>1856.40</ele>
	<time>2024-03-09T09:29:51.000Z</time>
</trkpt>
<trkpt lat="46.2577110" lon="10.5714640">
	<ele>1856.40</ele>
	<time>2024-03-09T09:29:52.000Z</time>
</trkpt>
<trkpt lat="46.2577080" lon="10.5714430">
	<ele>1856.20</ele>
	<time>2024-03-09T09:29:53.000Z</time>
</trkpt>
<trkpt lat="46.2577040" lon="10.5714180">
	<ele>1856.20</ele>
	<time>2024-03-09T09:29:54.000Z</time>
</trkpt>
<trkpt lat="46.2577000" lon="10.5713990">
	<ele>1856.20</ele>
	<time>2024-03-09T09:29:55.000Z</time>
</trkpt>
<trkpt lat="46.2576920" lon="10.5713780">
	<ele>1856.00</ele>
	<time>2024-03-09T09:29:56.000Z</time>
</trkpt>
<trkpt lat="46.2576810" lon="10.5713540">
	<ele>1856.00</ele>
	<time>2024-03-09T09:29:57.000Z</time>
</trkpt>
<trkpt lat="46.2576740" lon="10.5713340">
	<ele>1855.80</ele>
	<time>2024-03-09T09:29:58.000Z</time>
</trkpt>
<trkpt lat="46.2576730" lon="10.5713190">
	<ele>1855.60</ele>
	<time>2024-03-09T09:29:59.000Z</time>
</trkpt>
<trkpt lat="46.2576700" lon="10.5712970">
	<ele>1855.60</ele>
	<time>2024-03-09T09:30:00.000Z</time>
</trkpt>
<trkpt lat="46.2576700" lon="10.5712810">
	<ele>1855.40</ele>
	<time>2024-03-09T09:30:01.000Z</time>
</trkpt>
<trkpt lat="46.2576700" lon="10.5712630">
	<ele>1855.20</ele>
	<time>2024-03-09T09:30:02.000Z</time>
</trkpt>
<trkpt lat="46.2576670" lon="10.5712470">
	<ele>1855.00</ele>
	<time>2024-03-09T09:30:03.000Z</time>
</trkpt>
<trkpt lat="46.2576610" lon="10.5712320">
	<ele>1854.80</ele>
	<time>2024-03-09T09:30:04.000Z</time>
</trkpt>
<trkpt lat="46.2576530" lon="10.5712220">
	<ele>1854.80</ele>
	<time>2024-03-09T09:30:05.000Z</time>
</trkpt>
<trkpt lat="46.2576490" lon="10.5712110">
	<ele>1854.60</ele>
	<time>2024-03-09T09:30:06.000Z</time>
</trkpt>
<trkpt lat="46.2576430" lon="10.5711900">
	<ele>1854.60</ele>
	<time>2024-03-09T09:30:07.000Z</time>
</trkpt>
<trkpt lat="46.2576350" lon="10.5711740">
	<ele>1854.40</ele>
	<time>2024-03-09T09:30:08.000Z</time>
</trkpt>
<trkpt lat="46.2576260" lon="10.5711610">
	<ele>1854.20</ele>
	<time>2024-03-09T09:30:09.000Z</time>
</trkpt>
<trkpt lat="46.2576160" lon="10.5711510">
	<ele>1854.20</ele>
	<time>2024-03-09T09:30:10.000Z</time>
</trkpt>
<trkpt lat="46.2576050" lon="10.5711300">
	<ele>1854.00</ele>
	<time>2024-03-09T09:30:11.000Z</time>
</trkpt>
<trkpt lat="46.2575960" lon="10.5711100">
	<ele>1853.80</ele>
	<time>2024-03-09T09:30:12.000Z</time>
</trkpt>
<trkpt lat="46.2575860" lon="10.5710880">
	<ele>1853.60</ele>
	<time>2024-03-09T09:30:13.000Z</time>
</trkpt>
<trkpt lat="46.2575790" lon="10.5710670">
	<ele>1853.40</ele>
	<time>2024-03-09T09:30:14.000Z</time>
</trkpt>
<trkpt lat="46.2575720" lon="10.5710430">
	<ele>1853.20</ele>
	<time>2024-03-09T09:30:15.000Z</time>
</trkpt>
<trkpt lat="46.2575660" lon="10.5710200">
	<ele>1853.00</ele>
	<time>2024-03-09T09:30:16.000Z</time>
</trkpt>
<trkpt lat="46.2575630" lon="10.5709950">
	<ele>1852.80</ele>
	<time>2024-03-09T09:30:17.000Z</time>
</trkpt>
<trkpt lat="46.2575600" lon="10.5709680">
	<ele>1852.60</ele>
	<time>2024-03-09T09:30:18.000Z</time>
</trkpt>
<trkpt lat="46.2575570" lon="10.5709410">
	<ele>1852.40</ele>
	<time>2024-03-09T09:30:19.000Z</time>
</trkpt>
<trkpt lat="46.2575530" lon="10.5709150">
	<ele>1852.20</ele>
	<time>2024-03-09T09:30:20.000Z</time>
</trkpt>
<trkpt lat="46.2575470" lon="10.5708950">
	<ele>1852.00</ele>
	<time>2024-03-09T09:30:21.000Z</time>
</trkpt>
<trkpt lat="46.2575390" lon="10.5708630">
	<ele>1851.80</ele>
	<time>2024-03-09T09:30:22.000Z</time>
</trkpt>
<trkpt lat="46.2575320" lon="10.5708390">
	<ele>1851.60</ele>
	<time>2024-03-09T09:30:23.000Z</time>
</trkpt>
<trkpt lat="46.2575280" lon="10.5708180">
	<ele>1851.40</ele>
	<time>2024-03-09T09:30:24.000Z</time>
</trkpt>
<trkpt lat="46.2575250" lon="10.5707970">
	<ele>1851.40</ele>
	<time>2024-03-09T09:30:25.000Z</time>
</trkpt>
<trkpt lat="46.2575250" lon="10.5707750">
	<ele>1851.40</ele>
	<time>2024-03-09T09:30:26.000Z</time>
</trkpt>
<trkpt lat="46.2575190" lon="10.5707420">
	<ele>1851.20</ele>
	<time>2024-03-09T09:30:27.000Z</time>
</trkpt>
<trkpt lat="46.2575100" lon="10.5707170">
	<ele>1851.00</ele>
	<time>2024-03-09T09:30:28.000Z</time>
</trkpt>
<trkpt lat="46.2575030" lon="10.5707000">
	<ele>1850.80</ele>
	<time>2024-03-09T09:30:29.000Z</time>
</trkpt>
<trkpt lat="46.2574960" lon="10.5706710">
	<ele>1850.60</ele>
	<time>2024-03-09T09:30:30.000Z</time>
</trkpt>
<trkpt lat="46.2574930" lon="10.5706480">
	<ele>1850.40</ele>
	<time>2024-03-09T09:30:31.000Z</time>
</trkpt>
<trkpt lat="46.2574910" lon="10.5706070">
	<ele>1850.20</ele>
	<time>2024-03-09T09:30:32.000Z</time>
</trkpt>
<trkpt lat="46.2574860" lon="10.5705710">
	<ele>1850.00</ele>
	<time>2024-03-09T09:30:33.000Z</time>
</trkpt>
<trkpt lat="46.2574750" lon="10.5705390">
	<ele>1849.80</ele>
	<time>2024-03-09T09:30:34.000Z</time>
</trkpt>
<trkpt lat="46.2574630" lon="10.5705120">
	<ele>1849.40</ele>
	<time>2024-03-09T09:30:35.000Z</time>
</trkpt>
<trkpt lat="46.2574510" lon="10.5704850">
	<ele>1849.20</ele>
	<time>2024-03-09T09:30:36.000Z</time>
</trkpt>
<trkpt lat="46.2574440" lon="10.5704600">
	<ele>1849.00</ele>
	<time>2024-03-09T09:30:37.000Z</time>
</trkpt>
<trkpt lat="46.2574420" lon="10.5704400">
	<ele>1848.80</ele>
	<time>2024-03-09T09:30:38.000Z</time>
</trkpt>
<trkpt lat="46.2574360" lon="10.5704150">
	<ele>1848.60</ele>
	<time>2024-03-09T09:30:39.000Z</time>
</trkpt>
<trkpt lat="46.2574310" lon="10.5704000">
	<ele>1848.40</ele>
	<time>2024-03-09T09:30:40.000Z</time>
</trkpt>
<trkpt lat="46.2574230" lon="10.5703930">
	<ele>1848.20</ele>
	<time>2024-03-09T09:30:41.000Z</time>
</trkpt>
<trkpt lat="46.2574170" lon="10.5703900">
	<ele>1848.20</ele>
	<time>2024-03-09T09:30:42.000Z</time>
</trkpt>
<trkpt lat="46.2574140" lon="10.5703850">
	<ele>1848.20</ele>
	<time>2024-03-09T09:30:43.000Z</time>
</trkpt>
<trkpt lat="46.2574120" lon="10.5703850">
	<ele>1848.00</ele>
	<time>2024-03-09T09:30:44.000Z</time>
</trkpt>
<trkpt lat="46.2574120" lon="10.5703860">
	<ele>1847.80</ele>
	<time>2024-03-09T09:30:45.000Z</time>
</trkpt>
<trkpt lat="46.2574130" lon="10.5703860">
	<ele>1847.80</ele>
	<time>2024-03-09T09:30:46.000Z</time>
</trkpt>
<trkpt lat="46.2574130" lon="10.5703860">
	<ele>1847.80</ele>
	<time>2024-03-09T09:30:47.000Z</time>
</trkpt>
<trkpt lat="46.2574130" lon="10.5703870">
	<ele>1847.80</ele>
	<time>2024-03-09T09:30:48.000Z</time>
</trkpt>
<trkpt lat="46.2574130" lon="10.5703870">
	<ele>1847.80</ele>
	<time>2024-03-09T09:30:49.000Z</time>
</trkpt>
<trkpt lat="46.2574140" lon="10.5703860">
	<ele>1847.80</ele>
	<time>2024-03-09T09:30:50.000Z</time>
</trkpt>
<trkpt lat="46.2574140" lon="10.5703860">
	<ele>1847.80</ele>
	<time>2024-03-09T09:30:51.000Z</time>
</trkpt>
<trkpt lat="46.2574140" lon="10.5703870">
	<ele>1847.80</ele>
	<time>2024-03-09T09:30:52.000Z</time>
</trkpt>
<trkpt lat="46.2574140" lon="10.5703860">
	<ele>1847.80</ele>
	<time>2024-03-09T09:30:53.000Z</time>
</trkpt>
<trkpt lat="46.2574140" lon="10.5703860">
	<ele>1848.00</ele>
	<time>2024-03-09T09:30:54.000Z</time>
</trkpt>
<trkpt lat="46.2574140" lon="10.5703860">
	<ele>1848.00</ele>
	<time>2024-03-09T09:30:55.000Z</time>
</trkpt>
<trkpt lat="46.2574140" lon="10.5703860">
	<ele>1848.00</ele>
	<time>2024-03-09T09:30:56.000Z</time>
</trkpt>
<trkpt lat="46.2574140" lon="10.5703860">
	<ele>1848.00</ele>
	<time>2024-03-09T09:30:57.000Z</time>
</trkpt>
<trkpt lat="46.2574140" lon="10.5703860">
	<ele>1848.00</ele>
	<time>2024-03-09T09:30:58.000Z</time>
</trkpt>
<trkpt lat="46.2574140" lon="10.5703860">
	<ele>1848.20</ele>
	<time>2024-03-09T09:30:59.000Z</time>
</trkpt>
<trkpt lat="46.2574140" lon="10.5703860">
	<ele>1848.20</ele>
	<time>2024-03-09T09:31:00.000Z</time>
</trkpt>
<trkpt lat="46.2574150" lon="10.5703790">
	<ele>1848.00</ele>
	<time>2024-03-09T09:31:01.000Z</time>
</trkpt>
<trkpt lat="46.2574130" lon="10.5703520">
	<ele>1848.00</ele>
	<time>2024-03-09T09:31:02.000Z</time>
</trkpt>
<trkpt lat="46.2574100" lon="10.5703300">
	<ele>1847.80</ele>
	<time>2024-03-09T09:31:03.000Z</time>
</trkpt>
<trkpt lat="46.2574070" lon="10.5703070">
	<ele>1847.80</ele>
	<time>2024-03-09T09:31:04.000Z</time>
</trkpt>
<trkpt lat="46.2574040" lon="10.5702870">
	<ele>1847.60</ele>
	<time>2024-03-09T09:31:05.000Z</time>
</trkpt>
<trkpt lat="46.2574020" lon="10.5702650">
	<ele>1847.60</ele>
	<time>2024-03-09T09:31:06.000Z</time>
</trkpt>
<trkpt lat="46.2573970" lon="10.5702470">
	<ele>1847.40</ele>
	<time>2024-03-09T09:31:07.000Z</time>
</trkpt>
<trkpt lat="46.2573930" lon="10.5702270">
	<ele>1847.20</ele>
	<time>2024-03-09T09:31:08.000Z</time>
</trkpt>
<trkpt lat="46.2573880" lon="10.5702080">
	<ele>1847.20</ele>
	<time>2024-03-09T09:31:09.000Z</time>
</trkpt>
<trkpt lat="46.2573840" lon="10.5701880">
	<ele>1847.20</ele>
	<time>2024-03-09T09:31:10.000Z</time>
</trkpt>
<trkpt lat="46.2573800" lon="10.5701770">
	<ele>1847.00</ele>
	<time>2024-03-09T09:31:11.000Z</time>
</trkpt>
<trkpt lat="46.2573790" lon="10.5701590">
	<ele>1847.00</ele>
	<time>2024-03-09T09:31:12.000Z</time>
</trkpt>
<trkpt lat="46.2573790" lon="10.5701440">
	<ele>1846.80</ele>
	<time>2024-03-09T09:31:13.000Z</time>
</trkpt>
<trkpt lat="46.2573790" lon="10.5701310">
	<ele>1846.60</ele>
	<time>2024-03-09T09:31:14.000Z</time>
</trkpt>
<trkpt lat="46.2573790" lon="10.5701120">
	<ele>1846.60</ele>
	<time>2024-03-09T09:31:15.000Z</time>
</trkpt>
<trkpt lat="46.2573760" lon="10.5700920">
	<ele>1846.40</ele>
	<time>2024-03-09T09:31:16.000Z</time>
</trkpt>
<trkpt lat="46.2573730" lon="10.5700710">
	<ele>1846.20</ele>
	<time>2024-03-09T09:31:17.000Z</time>
</trkpt>
<trkpt lat="46.2573710" lon="10.5700570">
	<ele>1846.00</ele>
	<time>2024-03-09T09:31:18.000Z</time>
</trkpt>
<trkpt lat="46.2573700" lon="10.5700450">
	<ele>1846.00</ele>
	<time>2024-03-09T09:31:19.000Z</time>
</trkpt>
<trkpt lat="46.2573680" lon="10.5700330">
	<ele>1845.80</ele>
	<time>2024-03-09T09:31:20.000Z</time>
</trkpt>
<trkpt lat="46.2573670" lon="10.5700180">
	<ele>1845.80</ele>
	<time>2024-03-09T09:31:21.000Z</time>
</trkpt>
<trkpt lat="46.2573660" lon="10.5700060">
	<ele>1845.60</ele>
	<time>2024-03-09T09:31:22.000Z</time>
</trkpt>
<trkpt lat="46.2573630" lon="10.5699890">
	<ele>1845.40</ele>
	<time>2024-03-09T09:31:23.000Z</time>
</trkpt>
<trkpt lat="46.2573600" lon="10.5699800">
	<ele>1845.40</ele>
	<time>2024-03-09T09:31:24.000Z</time>
</trkpt>
<trkpt lat="46.2573570" lon="10.5699770">
	<ele>1845.20</ele>
	<time>2024-03-09T09:31:25.000Z</time>
</trkpt>
<trkpt lat="46.2573540" lon="10.5699760">
	<ele>1845.20</ele>
	<time>2024-03-09T09:31:26.000Z</time>
</trkpt>
<trkpt lat="46.2573530" lon="10.5699740">
	<ele>1845.00</ele>
	<time>2024-03-09T09:31:27.000Z</time>
</trkpt>
<trkpt lat="46.2573520" lon="10.5699720">
	<ele>1845.00</ele>
	<time>2024-03-09T09:31:28.000Z</time>
</trkpt>
<trkpt lat="46.2573520" lon="10.5699720">
	<ele>1845.20</ele>
	<time>2024-03-09T09:31:29.000Z</time>
</trkpt>
<trkpt lat="46.2573500" lon="10.5699710">
	<ele>1845.20</ele>
	<time>2024-03-09T09:31:30.000Z</time>
</trkpt>
<trkpt lat="46.2573490" lon="10.5699710">
	<ele>1845.20</ele>
	<time>2024-03-09T09:31:31.000Z</time>
</trkpt>
<trkpt lat="46.2573510" lon="10.5699720">
	<ele>1845.20</ele>
	<time>2024-03-09T09:31:32.000Z</time>
</trkpt>
<trkpt lat="46.2573530" lon="10.5699720">
	<ele>1845.20</ele>
	<time>2024-03-09T09:31:33.000Z</time>
</trkpt>
<trkpt lat="46.2573520" lon="10.5699720">
	<ele>1845.20</ele>
	<time>2024-03-09T09:31:34.000Z</time>
</trkpt>
<trkpt lat="46.2573530" lon="10.5699710">
	<ele>1845.40</ele>
	<time>2024-03-09T09:31:35.000Z</time>
</trkpt>
<trkpt lat="46.2573530" lon="10.5699690">
	<ele>1845.40</ele>
	<time>2024-03-09T09:31:36.000Z</time>
</trkpt>
<trkpt lat="46.2573540" lon="10.5699690">
	<ele>1845.40</ele>
	<time>2024-03-09T09:31:37.000Z</time>
</trkpt>
<trkpt lat="46.2573540" lon="10.5699690">
	<ele>1845.40</ele>
	<time>2024-03-09T09:31:38.000Z</time>
</trkpt>
<trkpt lat="46.2573540" lon="10.5699690">
	<ele>1845.40</ele>
	<time>2024-03-09T09:31:39.000Z</time>
</trkpt>
<trkpt lat="46.2573540" lon="10.5699690">
	<ele>1845.40</ele>
	<time>2024-03-09T09:31:40.000Z</time>
</trkpt>
<trkpt lat="46.2573540" lon="10.5699690">
	<ele>1845.40</ele>
	<time>2024-03-09T09:31:41.000Z</time>
</trkpt>
<trkpt lat="46.2573540" lon="10.5699690">
	<ele>1845.40</ele>
	<time>2024-03-09T09:31:42.000Z</time>
</trkpt>
<trkpt lat="46.2573540" lon="10.5699690">
	<ele>1845.40</ele>
	<time>2024-03-09T09:31:43.000Z</time>
</trkpt>
<trkpt lat="46.2573540" lon="10.5699690">
	<ele>1845.40</ele>
	<time>2024-03-09T09:31:44.000Z</time>
</trkpt>
<trkpt lat="46.2573540" lon="10.5699640">
	<ele>1845.20</ele>
	<time>2024-03-09T09:31:45.000Z</time>
</trkpt>
<trkpt lat="46.2573510" lon="10.5699360">
	<ele>1845.00</ele>
	<time>2024-03-09T09:31:46.000Z</time>
</trkpt>
<trkpt lat="46.2573480" lon="10.5699060">
	<ele>1844.80</ele>
	<time>2024-03-09T09:31:47.000Z</time>
</trkpt>
<trkpt lat="46.2573420" lon="10.5698730">
	<ele>1844.60</ele>
	<time>2024-03-09T09:31:48.000Z</time>
</trkpt>
<trkpt lat="46.2573340" lon="10.5698410">
	<ele>1844.40</ele>
	<time>2024-03-09T09:31:49.000Z</time>
</trkpt>
<trkpt lat="46.2573240" lon="10.5698050">
	<ele>1844.00</ele>
	<time>2024-03-09T09:31:50.000Z</time>
</trkpt>
<trkpt lat="46.2573130" lon="10.5697660">
	<ele>1843.60</ele>
	<time>2024-03-09T09:31:51.000Z</time>
</trkpt>
<trkpt lat="46.2573000" lon="10.5697290">
	<ele>1843.20</ele>
	<time>2024-03-09T09:31:52.000Z</time>
</trkpt>
<trkpt lat="46.2572880" lon="10.5696920">
	<ele>1842.60</ele>
	<time>2024-03-09T09:31:53.000Z</time>
</trkpt>
<trkpt lat="46.2572770" lon="10.5696520">
	<ele>1842.20</ele>
	<time>2024-03-09T09:31:54.000Z</time>
</trkpt>
<trkpt lat="46.2572640" lon="10.5696060">
	<ele>1841.60</ele>
	<time>2024-03-09T09:31:55.000Z</time>
</trkpt>
<trkpt lat="46.2572540" lon="10.5695710">
	<ele>1841.20</ele>
	<time>2024-03-09T09:31:56.000Z</time>
</trkpt>
<trkpt lat="46.2572370" lon="10.5695190">
	<ele>1840.60</ele>
	<time>2024-03-09T09:31:57.000Z</time>
</trkpt>
<trkpt lat="46.2572220" lon="10.5694740">
	<ele>1840.00</ele>
	<time>2024-03-09T09:31:58.000Z</time>
</trkpt>
<trkpt lat="46.2572080" lon="10.5694250">
	<ele>1839.80</ele>
	<time>2024-03-09T09:31:59.000Z</time>
</trkpt>
<trkpt lat="46.2571910" lon="10.5693930">
	<ele>1839.60</ele>
	<time>2024-03-09T09:32:00.000Z</time>
</trkpt>
<trkpt lat="46.2571650" lon="10.5693530">
	<ele>1839.20</ele>
	<time>2024-03-09T09:32:01.000Z</time>
</trkpt>
<trkpt lat="46.2571510" lon="10.5693190">
	<ele>1838.80</ele>
	<time>2024-03-09T09:32:02.000Z</time>
</trkpt>
<trkpt lat="46.2571440" lon="10.5692760">
	<ele>1838.40</ele>
	<time>2024-03-09T09:32:03.000Z</time>
</trkpt>
<trkpt lat="46.2571360" lon="10.5692340">
	<ele>1838.20</ele>
	<time>2024-03-09T09:32:04.000Z</time>
</trkpt>
<trkpt lat="46.2571270" lon="10.5692020">
	<ele>1837.80</ele>
	<time>2024-03-09T09:32:05.000Z</time>
</trkpt>
<trkpt lat="46.2571090" lon="10.5691610">
	<ele>1837.60</ele>
	<time>2024-03-09T09:32:06.000Z</time>
</trkpt>
<trkpt lat="46.2570940" lon="10.5691280">
	<ele>1837.20</ele>
	<time>2024-03-09T09:32:07.000Z</time>
</trkpt>
<trkpt lat="46.2570830" lon="10.5690980">
	<ele>1837.00</ele>
	<time>2024-03-09T09:32:08.000Z</time>
</trkpt>
<trkpt lat="46.2570700" lon="10.5690570">
	<ele>1836.60</ele>
	<time>2024-03-09T09:32:09.000Z</time>
</trkpt>
<trkpt lat="46.2570610" lon="10.5690190">
	<ele>1836.40</ele>
	<time>2024-03-09T09:32:10.000Z</time>
</trkpt>
<trkpt lat="46.2570550" lon="10.5689880">
	<ele>1836.20</ele>
	<time>2024-03-09T09:32:11.000Z</time>
</trkpt>
<trkpt lat="46.2570460" lon="10.5689540">
	<ele>1836.00</ele>
	<time>2024-03-09T09:32:12.000Z</time>
</trkpt>
<trkpt lat="46.2570390" lon="10.5689170">
	<ele>1835.80</ele>
	<time>2024-03-09T09:32:13.000Z</time>
</trkpt>
<trkpt lat="46.2570320" lon="10.5688830">
	<ele>1835.60</ele>
	<time>2024-03-09T09:32:14.000Z</time>
</trkpt>
<trkpt lat="46.2570240" lon="10.5688530">
	<ele>1835.40</ele>
	<time>2024-03-09T09:32:15.000Z</time>
</trkpt>
<trkpt lat="46.2570160" lon="10.5688190">
	<ele>1835.20</ele>
	<time>2024-03-09T09:32:16.000Z</time>
</trkpt>
<trkpt lat="46.2570090" lon="10.5687870">
	<ele>1834.80</ele>
	<time>2024-03-09T09:32:17.000Z</time>
</trkpt>
<trkpt lat="46.2570030" lon="10.5687600">
	<ele>1834.60</ele>
	<time>2024-03-09T09:32:18.000Z</time>
</trkpt>
<trkpt lat="46.2569980" lon="10.5687330">
	<ele>1834.40</ele>
	<time>2024-03-09T09:32:19.000Z</time>
</trkpt>
<trkpt lat="46.2569960" lon="10.5687020">
	<ele>1834.00</ele>
	<time>2024-03-09T09:32:20.000Z</time>
</trkpt>
<trkpt lat="46.2569980" lon="10.5686690">
	<ele>1833.80</ele>
	<time>2024-03-09T09:32:21.000Z</time>
</trkpt>
<trkpt lat="46.2569940" lon="10.5686250">
	<ele>1833.40</ele>
	<time>2024-03-09T09:32:22.000Z</time>
</trkpt>
<trkpt lat="46.2569870" lon="10.5685830">
	<ele>1833.20</ele>
	<time>2024-03-09T09:32:23.000Z</time>
</trkpt>
<trkpt lat="46.2569760" lon="10.5685410">
	<ele>1833.00</ele>
	<time>2024-03-09T09:32:24.000Z</time>
</trkpt>
<trkpt lat="46.2569680" lon="10.5684960">
	<ele>1832.80</ele>
	<time>2024-03-09T09:32:25.000Z</time>
</trkpt>
<trkpt lat="46.2569630" lon="10.5684510">
	<ele>1832.40</ele>
	<time>2024-03-09T09:32:26.000Z</time>
</trkpt>
<trkpt lat="46.2569560" lon="10.5684010">
	<ele>1832.20</ele>
	<time>2024-03-09T09:32:27.000Z</time>
</trkpt>
<trkpt lat="46.2569520" lon="10.5683520">
	<ele>1832.00</ele>
	<time>2024-03-09T09:32:28.000Z</time>
</trkpt>
<trkpt lat="46.2569450" lon="10.5683030">
	<ele>1831.60</ele>
	<time>2024-03-09T09:32:29.000Z</time>
</trkpt>
<trkpt lat="46.2569390" lon="10.5682720">
	<ele>1831.40</ele>
	<time>2024-03-09T09:32:30.000Z</time>
</trkpt>
<trkpt lat="46.2569340" lon="10.5682460">
	<ele>1831.00</ele>
	<time>2024-03-09T09:32:31.000Z</time>
</trkpt>
<trkpt lat="46.2569290" lon="10.5682260">
	<ele>1830.80</ele>
	<time>2024-03-09T09:32:32.000Z</time>
</trkpt>
<trkpt lat="46.2569260" lon="10.5682070">
	<ele>1830.80</ele>
	<time>2024-03-09T09:32:33.000Z</time>
</trkpt>
<trkpt lat="46.2569240" lon="10.5681930">
	<ele>1830.60</ele>
	<time>2024-03-09T09:32:34.000Z</time>
</trkpt>
<trkpt lat="46.2569190" lon="10.5681740">
	<ele>1830.40</ele>
	<time>2024-03-09T09:32:35.000Z</time>
</trkpt>
<trkpt lat="46.2569170" lon="10.5681680">
	<ele>1830.20</ele>
	<time>2024-03-09T09:32:36.000Z</time>
</trkpt>
<trkpt lat="46.2569150" lon="10.5681660">
	<ele>1830.00</ele>
	<time>2024-03-09T09:32:37.000Z</time>
</trkpt>
<trkpt lat="46.2569160" lon="10.5681640">
	<ele>1830.00</ele>
	<time>2024-03-09T09:32:38.000Z</time>
</trkpt>
<trkpt lat="46.2569160" lon="10.5681630">
	<ele>1830.00</ele>
	<time>2024-03-09T09:32:39.000Z</time>
</trkpt>
<trkpt lat="46.2569160" lon="10.5681630">
	<ele>1830.00</ele>
	<time>2024-03-09T09:32:40.000Z</time>
</trkpt>
<trkpt lat="46.2569160" lon="10.5681620">
	<ele>1830.00</ele>
	<time>2024-03-09T09:32:41.000Z</time>
</trkpt>
<trkpt lat="46.2569160" lon="10.5681600">
	<ele>1830.20</ele>
	<time>2024-03-09T09:32:42.000Z</time>
</trkpt>
<trkpt lat="46.2569170" lon="10.5681600">
	<ele>1830.20</ele>
	<time>2024-03-09T09:32:43.000Z</time>
</trkpt>
<trkpt lat="46.2569200" lon="10.5681610">
	<ele>1830.20</ele>
	<time>2024-03-09T09:32:44.000Z</time>
</trkpt>
<trkpt lat="46.2569220" lon="10.5681600">
	<ele>1830.20</ele>
	<time>2024-03-09T09:32:45.000Z</time>
</trkpt>
<trkpt lat="46.2569220" lon="10.5681590">
	<ele>1830.20</ele>
	<time>2024-03-09T09:32:46.000Z</time>
</trkpt>
<trkpt lat="46.2569220" lon="10.5681580">
	<ele>1830.20</ele>
	<time>2024-03-09T09:32:47.000Z</time>
</trkpt>
<trkpt lat="46.2569220" lon="10.5681580">
	<ele>1830.20</ele>
	<time>2024-03-09T09:32:48.000Z</time>
</trkpt>
<trkpt lat="46.2569220" lon="10.5681580">
	<ele>1830.20</ele>
	<time>2024-03-09T09:32:49.000Z</time>
</trkpt>
<trkpt lat="46.2569220" lon="10.5681580">
	<ele>1830.20</ele>
	<time>2024-03-09T09:32:50.000Z</time>
</trkpt>
<trkpt lat="46.2569220" lon="10.5681580">
	<ele>1830.20</ele>
	<time>2024-03-09T09:32:51.000Z</time>
</trkpt>
<trkpt lat="46.2569220" lon="10.5681580">
	<ele>1830.20</ele>
	<time>2024-03-09T09:32:52.000Z</time>
</trkpt>
<trkpt lat="46.2569220" lon="10.5681580">
	<ele>1830.00</ele>
	<time>2024-03-09T09:32:53.000Z</time>
</trkpt>
<trkpt lat="46.2569220" lon="10.5681580">
	<ele>1830.00</ele>
	<time>2024-03-09T09:32:54.000Z</time>
</trkpt>
<trkpt lat="46.2569220" lon="10.5681590">
	<ele>1829.80</ele>
	<time>2024-03-09T09:32:55.000Z</time>
</trkpt>
<trkpt lat="46.2569220" lon="10.5681600">
	<ele>1829.80</ele>
	<time>2024-03-09T09:32:56.000Z</time>
</trkpt>
<trkpt lat="46.2569220" lon="10.5681600">
	<ele>1829.80</ele>
	<time>2024-03-09T09:32:57.000Z</time>
</trkpt>
<trkpt lat="46.2569220" lon="10.5681600">
	<ele>1829.80</ele>
	<time>2024-03-09T09:32:58.000Z</time>
</trkpt>
<trkpt lat="46.2569220" lon="10.5681610">
	<ele>1829.80</ele>
	<time>2024-03-09T09:32:59.000Z</time>
</trkpt>
<trkpt lat="46.2569220" lon="10.5681610">
	<ele>1829.80</ele>
	<time>2024-03-09T09:33:00.000Z</time>
</trkpt>
<trkpt lat="46.2569220" lon="10.5681620">
	<ele>1829.80</ele>
	<time>2024-03-09T09:33:01.000Z</time>
</trkpt>
<trkpt lat="46.2569220" lon="10.5681630">
	<ele>1829.80</ele>
	<time>2024-03-09T09:33:02.000Z</time>
</trkpt>
<trkpt lat="46.2569220" lon="10.5681630">
	<ele>1830.00</ele>
	<time>2024-03-09T09:33:03.000Z</time>
</trkpt>
<trkpt lat="46.2569230" lon="10.5681630">
	<ele>1830.00</ele>
	<time>2024-03-09T09:33:04.000Z</time>
</trkpt>
<trkpt lat="46.2569230" lon="10.5681640">
	<ele>1830.20</ele>
	<time>2024-03-09T09:33:05.000Z</time>
</trkpt>
<trkpt lat="46.2569230" lon="10.5681650">
	<ele>1830.20</ele>
	<time>2024-03-09T09:33:06.000Z</time>
</trkpt>
<trkpt lat="46.2569230" lon="10.5681650">
	<ele>1830.20</ele>
	<time>2024-03-09T09:33:07.000Z</time>
</trkpt>
<trkpt lat="46.2569230" lon="10.5681650">
	<ele>1830.20</ele>
	<time>2024-03-09T09:33:08.000Z</time>
</trkpt>
<trkpt lat="46.2569230" lon="10.5681660">
	<ele>1830.20</ele>
	<time>2024-03-09T09:33:09.000Z</time>
</trkpt>
<trkpt lat="46.2569230" lon="10.5681660">
	<ele>1830.20</ele>
	<time>2024-03-09T09:33:10.000Z</time>
</trkpt>
<trkpt lat="46.2569230" lon="10.5681660">
	<ele>1830.20</ele>
	<time>2024-03-09T09:33:11.000Z</time>
</trkpt>
<trkpt lat="46.2569230" lon="10.5681660">
	<ele>1830.40</ele>
	<time>2024-03-09T09:33:12.000Z</time>
</trkpt>
<trkpt lat="46.2569230" lon="10.5681660">
	<ele>1830.40</ele>
	<time>2024-03-09T09:33:13.000Z</time>
</trkpt>
<trkpt lat="46.2569230" lon="10.5681660">
	<ele>1830.40</ele>
	<time>2024-03-09T09:33:14.000Z</time>
</trkpt>
<trkpt lat="46.2569230" lon="10.5681660">
	<ele>1830.40</ele>
	<time>2024-03-09T09:33:15.000Z</time>
</trkpt>
<trkpt lat="46.2569230" lon="10.5681660">
	<ele>1830.20</ele>
	<time>2024-03-09T09:33:16.000Z</time>
</trkpt>
<trkpt lat="46.2569230" lon="10.5681660">
	<ele>1830.20</ele>
	<time>2024-03-09T09:33:17.000Z</time>
</trkpt>
<trkpt lat="46.2569230" lon="10.5681660">
	<ele>1830.20</ele>
	<time>2024-03-09T09:33:18.000Z</time>
</trkpt>
<trkpt lat="46.2569230" lon="10.5681660">
	<ele>1830.20</ele>
	<time>2024-03-09T09:33:19.000Z</time>
</trkpt>
<trkpt lat="46.2569220" lon="10.5681660">
	<ele>1830.40</ele>
	<time>2024-03-09T09:33:20.000Z</time>
</trkpt>
<trkpt lat="46.2569210" lon="10.5681660">
	<ele>1830.40</ele>
	<time>2024-03-09T09:33:21.000Z</time>
</trkpt>
<trkpt lat="46.2569210" lon="10.5681660">
	<ele>1830.60</ele>
	<time>2024-03-09T09:33:22.000Z</time>
</trkpt>
<trkpt lat="46.2569210" lon="10.5681660">
	<ele>1830.60</ele>
	<time>2024-03-09T09:33:23.000Z</time>
</trkpt>
<trkpt lat="46.2569210" lon="10.5681660">
	<ele>1830.80</ele>
	<time>2024-03-09T09:33:24.000Z</time>
</trkpt>
<trkpt lat="46.2569210" lon="10.5681660">
	<ele>1830.80</ele>
	<time>2024-03-09T09:33:25.000Z</time>
</trkpt>
<trkpt lat="46.2569210" lon="10.5681660">
	<ele>1830.80</ele>
	<time>2024-03-09T09:33:26.000Z</time>
</trkpt>
<trkpt lat="46.2569210" lon="10.5681660">
	<ele>1830.80</ele>
	<time>2024-03-09T09:33:27.000Z</time>
</trkpt>
<trkpt lat="46.2569210" lon="10.5681660">
	<ele>1830.80</ele>
	<time>2024-03-09T09:33:28.000Z</time>
</trkpt>
<trkpt lat="46.2569200" lon="10.5681660">
	<ele>1830.80</ele>
	<time>2024-03-09T09:33:29.000Z</time>
</trkpt>
<trkpt lat="46.2569200" lon="10.5681660">
	<ele>1830.80</ele>
	<time>2024-03-09T09:33:30.000Z</time>
</trkpt>
<trkpt lat="46.2569190" lon="10.5681650">
	<ele>1830.80</ele>
	<time>2024-03-09T09:33:31.000Z</time>
</trkpt>
<trkpt lat="46.2569190" lon="10.5681650">
	<ele>1830.80</ele>
	<time>2024-03-09T09:33:32.000Z</time>
</trkpt>
<trkpt lat="46.2569190" lon="10.5681650">
	<ele>1830.80</ele>
	<time>2024-03-09T09:33:33.000Z</time>
</trkpt>
<trkpt lat="46.2569190" lon="10.5681630">
	<ele>1830.80</ele>
	<time>2024-03-09T09:33:34.000Z</time>
</trkpt>
<trkpt lat="46.2569190" lon="10.5681630">
	<ele>1830.80</ele>
	<time>2024-03-09T09:33:35.000Z</time>
</trkpt>
<trkpt lat="46.2569190" lon="10.5681620">
	<ele>1830.60</ele>
	<time>2024-03-09T09:33:36.000Z</time>
</trkpt>
<trkpt lat="46.2569190" lon="10.5681620">
	<ele>1830.40</ele>
	<time>2024-03-09T09:33:37.000Z</time>
</trkpt>
<trkpt lat="46.2569190" lon="10.5681620">
	<ele>1830.40</ele>
	<time>2024-03-09T09:33:38.000Z</time>
</trkpt>
<trkpt lat="46.2569200" lon="10.5681610">
	<ele>1830.20</ele>
	<time>2024-03-09T09:33:39.000Z</time>
</trkpt>
<trkpt lat="46.2569200" lon="10.5681610">
	<ele>1830.20</ele>
	<time>2024-03-09T09:33:40.000Z</time>
</trkpt>
<trkpt lat="46.2569200" lon="10.5681610">
	<ele>1830.20</ele>
	<time>2024-03-09T09:33:41.000Z</time>
</trkpt>
<trkpt lat="46.2569210" lon="10.5681610">
	<ele>1830.20</ele>
	<time>2024-03-09T09:33:42.000Z</time>
</trkpt>
<trkpt lat="46.2569210" lon="10.5681610">
	<ele>1830.40</ele>
	<time>2024-03-09T09:33:43.000Z</time>
</trkpt>
<trkpt lat="46.2569220" lon="10.5681610">
	<ele>1830.40</ele>
	<time>2024-03-09T09:33:44.000Z</time>
</trkpt>
<trkpt lat="46.2569220" lon="10.5681600">
	<ele>1830.40</ele>
	<time>2024-03-09T09:33:45.000Z</time>
</trkpt>
<trkpt lat="46.2569230" lon="10.5681600">
	<ele>1830.40</ele>
	<time>2024-03-09T09:33:46.000Z</time>
</trkpt>
<trkpt lat="46.2569230" lon="10.5681600">
	<ele>1830.40</ele>
	<time>2024-03-09T09:33:47.000Z</time>
</trkpt>
<trkpt lat="46.2569240" lon="10.5681600">
	<ele>1830.60</ele>
	<time>2024-03-09T09:33:48.000Z</time>
</trkpt>
<trkpt lat="46.2569250" lon="10.5681590">
	<ele>1830.60</ele>
	<time>2024-03-09T09:33:49.000Z</time>
</trkpt>
<trkpt lat="46.2569260" lon="10.5681590">
	<ele>1830.60</ele>
	<time>2024-03-09T09:33:50.000Z</time>
</trkpt>
<trkpt lat="46.2569260" lon="10.5681590">
	<ele>1830.60</ele>
	<time>2024-03-09T09:33:51.000Z</time>
</trkpt>
<trkpt lat="46.2569270" lon="10.5681580">
	<ele>1830.80</ele>
	<time>2024-03-09T09:33:52.000Z</time>
</trkpt>
<trkpt lat="46.2569270" lon="10.5681550">
	<ele>1830.60</ele>
	<time>2024-03-09T09:33:53.000Z</time>
</trkpt>
<trkpt lat="46.2569270" lon="10.5681510">
	<ele>1830.60</ele>
	<time>2024-03-09T09:33:54.000Z</time>
</trkpt>
<trkpt lat="46.2569270" lon="10.5681440">
	<ele>1830.60</ele>
	<time>2024-03-09T09:33:55.000Z</time>
</trkpt>
<trkpt lat="46.2569210" lon="10.5681230">
	<ele>1830.20</ele>
	<time>2024-03-09T09:33:56.000Z</time>
</trkpt>
<trkpt lat="46.2569170" lon="10.5680980">
	<ele>1830.00</ele>
	<time>2024-03-09T09:33:57.000Z</time>
</trkpt>
<trkpt lat="46.2569120" lon="10.5680750">
	<ele>1830.00</ele>
	<time>2024-03-09T09:33:58.000Z</time>
</trkpt>
<trkpt lat="46.2569080" lon="10.5680480">
	<ele>1829.80</ele>
	<time>2024-03-09T09:33:59.000Z</time>
</trkpt>
<trkpt lat="46.2569050" lon="10.5680170">
	<ele>1829.80</ele>
	<time>2024-03-09T09:34:00.000Z</time>
</trkpt>
<trkpt lat="46.2569000" lon="10.5679840">
	<ele>1829.60</ele>
	<time>2024-03-09T09:34:01.000Z</time>
</trkpt>
<trkpt lat="46.2568980" lon="10.5679420">
	<ele>1829.40</ele>
	<time>2024-03-09T09:34:02.000Z</time>
</trkpt>
<trkpt lat="46.2568900" lon="10.5679070">
	<ele>1829.20</ele>
	<time>2024-03-09T09:34:03.000Z</time>
</trkpt>
<trkpt lat="46.2568850" lon="10.5678550">
	<ele>1829.20</ele>
	<time>2024-03-09T09:34:04.000Z</time>
</trkpt>
<trkpt lat="46.2568810" lon="10.5678130">
	<ele>1829.00</ele>
	<time>2024-03-09T09:34:05.000Z</time>
</trkpt>
<trkpt lat="46.2568760" lon="10.5677730">
	<ele>1829.00</ele>
	<time>2024-03-09T09:34:06.000Z</time>
</trkpt>
<trkpt lat="46.2568720" lon="10.5677360">
	<ele>1828.80</ele>
	<time>2024-03-09T09:34:07.000Z</time>
</trkpt>
<trkpt lat="46.2568690" lon="10.5677100">
	<ele>1828.60</ele>
	<time>2024-03-09T09:34:08.000Z</time>
</trkpt>
<trkpt lat="46.2568650" lon="10.5676780">
	<ele>1828.60</ele>
	<time>2024-03-09T09:34:09.000Z</time>
</trkpt>
<trkpt lat="46.2568630" lon="10.5676490">
	<ele>1828.60</ele>
	<time>2024-03-09T09:34:10.000Z</time>
</trkpt>
<trkpt lat="46.2568630" lon="10.5676200">
	<ele>1828.20</ele>
	<time>2024-03-09T09:34:11.000Z</time>
</trkpt>
<trkpt lat="46.2568610" lon="10.5675880">
	<ele>1828.20</ele>
	<time>2024-03-09T09:34:12.000Z</time>
</trkpt>
<trkpt lat="46.2568640" lon="10.5675580">
	<ele>1828.00</ele>
	<time>2024-03-09T09:34:13.000Z</time>
</trkpt>
<trkpt lat="46.2568620" lon="10.5675260">
	<ele>1827.80</ele>
	<time>2024-03-09T09:34:14.000Z</time>
</trkpt>
<trkpt lat="46.2568570" lon="10.5674930">
	<ele>1827.60</ele>
	<time>2024-03-09T09:34:15.000Z</time>
</trkpt>
<trkpt lat="46.2568510" lon="10.5674590">
	<ele>1827.40</ele>
	<time>2024-03-09T09:34:16.000Z</time>
</trkpt>
<trkpt lat="46.2568430" lon="10.5674270">
	<ele>1827.40</ele>
	<time>2024-03-09T09:34:17.000Z</time>
</trkpt>
<trkpt lat="46.2568340" lon="10.5673850">
	<ele>1827.20</ele>
	<time>2024-03-09T09:34:18.000Z</time>
</trkpt>
<trkpt lat="46.2568280" lon="10.5673500">
	<ele>1827.00</ele>
	<time>2024-03-09T09:34:19.000Z</time>
</trkpt>
<trkpt lat="46.2568210" lon="10.5673140">
	<ele>1826.80</ele>
	<time>2024-03-09T09:34:20.000Z</time>
</trkpt>
<trkpt lat="46.2568170" lon="10.5672800">
	<ele>1826.60</ele>
	<time>2024-03-09T09:34:21.000Z</time>
</trkpt>
<trkpt lat="46.2568120" lon="10.5672490">
	<ele>1826.40</ele>
	<time>2024-03-09T09:34:22.000Z</time>
</trkpt>
<trkpt lat="46.2568120" lon="10.5672140">
	<ele>1826.00</ele>
	<time>2024-03-09T09:34:23.000Z</time>
</trkpt>
<trkpt lat="46.2568120" lon="10.5671770">
	<ele>1825.80</ele>
	<time>2024-03-09T09:34:24.000Z</time>
</trkpt>
<trkpt lat="46.2568140" lon="10.5671440">
	<ele>1825.60</ele>
	<time>2024-03-09T09:34:25.000Z</time>
</trkpt>
<trkpt lat="46.2568140" lon="10.5671170">
	<ele>1825.60</ele>
	<time>2024-03-09T09:34:26.000Z</time>
</trkpt>
<trkpt lat="46.2568130" lon="10.5670840">
	<ele>1825.40</ele>
	<time>2024-03-09T09:34:27.000Z</time>
</trkpt>
<trkpt lat="46.2568110" lon="10.5670530">
	<ele>1825.20</ele>
	<time>2024-03-09T09:34:28.000Z</time>
</trkpt>
<trkpt lat="46.2568070" lon="10.5670220">
	<ele>1825.00</ele>
	<time>2024-03-09T09:34:29.000Z</time>
</trkpt>
<trkpt lat="46.2568020" lon="10.5669910">
	<ele>1824.80</ele>
	<time>2024-03-09T09:34:30.000Z</time>
</trkpt>
<trkpt lat="46.2568010" lon="10.5669600">
	<ele>1824.60</ele>
	<time>2024-03-09T09:34:31.000Z</time>
</trkpt>
<trkpt lat="46.2568000" lon="10.5669280">
	<ele>1824.60</ele>
	<time>2024-03-09T09:34:32.000Z</time>
</trkpt>
<trkpt lat="46.2567990" lon="10.5668990">
	<ele>1824.40</ele>
	<time>2024-03-09T09:34:33.000Z</time>
</trkpt>
<trkpt lat="46.2567970" lon="10.5668690">
	<ele>1824.20</ele>
	<time>2024-03-09T09:34:34.000Z</time>
</trkpt>
<trkpt lat="46.2567970" lon="10.5668380">
	<ele>1824.20</ele>
	<time>2024-03-09T09:34:35.000Z</time>
</trkpt>
<trkpt lat="46.2567960" lon="10.5668090">
	<ele>1824.00</ele>
	<time>2024-03-09T09:34:36.000Z</time>
</trkpt>
<trkpt lat="46.2567980" lon="10.5667710">
	<ele>1824.00</ele>
	<time>2024-03-09T09:34:37.000Z</time>
</trkpt>
<trkpt lat="46.2567980" lon="10.5667410">
	<ele>1823.80</ele>
	<time>2024-03-09T09:34:38.000Z</time>
</trkpt>
<trkpt lat="46.2567990" lon="10.5667180">
	<ele>1823.60</ele>
	<time>2024-03-09T09:34:39.000Z</time>
</trkpt>
<trkpt lat="46.2567980" lon="10.5666840">
	<ele>1823.40</ele>
	<time>2024-03-09T09:34:40.000Z</time>
</trkpt>
<trkpt lat="46.2567990" lon="10.5666610">
	<ele>1823.20</ele>
	<time>2024-03-09T09:34:41.000Z</time>
</trkpt>
<trkpt lat="46.2568000" lon="10.5666300">
	<ele>1823.20</ele>
	<time>2024-03-09T09:34:42.000Z</time>
</trkpt>
<trkpt lat="46.2568010" lon="10.5665980">
	<ele>1823.00</ele>
	<time>2024-03-09T09:34:43.000Z</time>
</trkpt>
<trkpt lat="46.2568060" lon="10.5665630">
	<ele>1822.80</ele>
	<time>2024-03-09T09:34:44.000Z</time>
</trkpt>
<trkpt lat="46.2568070" lon="10.5665240">
	<ele>1822.60</ele>
	<time>2024-03-09T09:34:45.000Z</time>
</trkpt>
<trkpt lat="46.2568080" lon="10.5664850">
	<ele>1822.20</ele>
	<time>2024-03-09T09:34:46.000Z</time>
</trkpt>
<trkpt lat="46.2568080" lon="10.5664420">
	<ele>1822.00</ele>
	<time>2024-03-09T09:34:47.000Z</time>
</trkpt>
<trkpt lat="46.2568020" lon="10.5663990">
	<ele>1821.60</ele>
	<time>2024-03-09T09:34:48.000Z</time>
</trkpt>
<trkpt lat="46.2567970" lon="10.5663500">
	<ele>1821.40</ele>
	<time>2024-03-09T09:34:49.000Z</time>
</trkpt>
<trkpt lat="46.2567900" lon="10.5662890">
	<ele>1821.20</ele>
	<time>2024-03-09T09:34:50.000Z</time>
</trkpt>
<trkpt lat="46.2567900" lon="10.5662360">
	<ele>1820.80</ele>
	<time>2024-03-09T09:34:51.000Z</time>
</trkpt>
<trkpt lat="46.2567910" lon="10.5661840">
	<ele>1820.60</ele>
	<time>2024-03-09T09:34:52.000Z</time>
</trkpt>
<trkpt lat="46.2567880" lon="10.5661370">
	<ele>1820.20</ele>
	<time>2024-03-09T09:34:53.000Z</time>
</trkpt>
<trkpt lat="46.2567830" lon="10.5660890">
	<ele>1819.80</ele>
	<time>2024-03-09T09:34:54.000Z</time>
</trkpt>
<trkpt lat="46.2567810" lon="10.5660580">
	<ele>1819.60</ele>
	<time>2024-03-09T09:34:55.000Z</time>
</trkpt>
<trkpt lat="46.2567810" lon="10.5660070">
	<ele>1819.40</ele>
	<time>2024-03-09T09:34:56.000Z</time>
</trkpt>
<trkpt lat="46.2567840" lon="10.5659720">
	<ele>1819.20</ele>
	<time>2024-03-09T09:34:57.000Z</time>
</trkpt>
<trkpt lat="46.2567850" lon="10.5659170">
	<ele>1819.00</ele>
	<time>2024-03-09T09:34:58.000Z</time>
</trkpt>
<trkpt lat="46.2567820" lon="10.5658800">
	<ele>1818.80</ele>
	<time>2024-03-09T09:34:59.000Z</time>
</trkpt>
<trkpt lat="46.2567840" lon="10.5658310">
	<ele>1818.60</ele>
	<time>2024-03-09T09:35:00.000Z</time>
</trkpt>
<trkpt lat="46.2567850" lon="10.5657840">
	<ele>1818.40</ele>
	<time>2024-03-09T09:35:01.000Z</time>
</trkpt>
<trkpt lat="46.2567840" lon="10.5657310">
	<ele>1818.20</ele>
	<time>2024-03-09T09:35:02.000Z</time>
</trkpt>
<trkpt lat="46.2567770" lon="10.5657020">
	<ele>1818.00</ele>
	<time>2024-03-09T09:35:03.000Z</time>
</trkpt>
<trkpt lat="46.2567770" lon="10.5656630">
	<ele>1817.80</ele>
	<time>2024-03-09T09:35:04.000Z</time>
</trkpt>
<trkpt lat="46.2567720" lon="10.5656150">
	<ele>1817.60</ele>
	<time>2024-03-09T09:35:05.000Z</time>
</trkpt>
<trkpt lat="46.2567680" lon="10.5655730">
	<ele>1817.40</ele>
	<time>2024-03-09T09:35:06.000Z</time>
</trkpt>
<trkpt lat="46.2567640" lon="10.5655400">
	<ele>1817.40</ele>
	<time>2024-03-09T09:35:07.000Z</time>
</trkpt>
<trkpt lat="46.2567610" lon="10.5655000">
	<ele>1817.20</ele>
	<time>2024-03-09T09:35:08.000Z</time>
</trkpt>
<trkpt lat="46.2567600" lon="10.5654560">
	<ele>1817.00</ele>
	<time>2024-03-09T09:35:09.000Z</time>
</trkpt>
<trkpt lat="46.2567610" lon="10.5654040">
	<ele>1816.80</ele>
	<time>2024-03-09T09:35:10.000Z</time>
</trkpt>
<trkpt lat="46.2567630" lon="10.5653530">
	<ele>1816.40</ele>
	<time>2024-03-09T09:35:11.000Z</time>
</trkpt>
<trkpt lat="46.2567710" lon="10.5653040">
	<ele>1816.00</ele>
	<time>2024-03-09T09:35:12.000Z</time>
</trkpt>
<trkpt lat="46.2567780" lon="10.5652470">
	<ele>1815.80</ele>
	<time>2024-03-09T09:35:13.000Z</time>
</trkpt>
<trkpt lat="46.2567840" lon="10.5651950">
	<ele>1815.60</ele>
	<time>2024-03-09T09:35:14.000Z</time>
</trkpt>
<trkpt lat="46.2567870" lon="10.5651590">
	<ele>1815.20</ele>
	<time>2024-03-09T09:35:15.000Z</time>
</trkpt>
<trkpt lat="46.2567920" lon="10.5651040">
	<ele>1815.00</ele>
	<time>2024-03-09T09:35:16.000Z</time>
</trkpt>
<trkpt lat="46.2567960" lon="10.5650710">
	<ele>1814.60</ele>
	<time>2024-03-09T09:35:17.000Z</time>
</trkpt>
<trkpt lat="46.2567940" lon="10.5650290">
	<ele>1814.40</ele>
	<time>2024-03-09T09:35:18.000Z</time>
</trkpt>
<trkpt lat="46.2567940" lon="10.5649900">
	<ele>1814.20</ele>
	<time>2024-03-09T09:35:19.000Z</time>
</trkpt>
<trkpt lat="46.2567910" lon="10.5649500">
	<ele>1814.00</ele>
	<time>2024-03-09T09:35:20.000Z</time>
</trkpt>
<trkpt lat="46.2567880" lon="10.5649070">
	<ele>1813.60</ele>
	<time>2024-03-09T09:35:21.000Z</time>
</trkpt>
<trkpt lat="46.2567840" lon="10.5648710">
	<ele>1813.20</ele>
	<time>2024-03-09T09:35:22.000Z</time>
</trkpt>
<trkpt lat="46.2567800" lon="10.5648270">
	<ele>1813.00</ele>
	<time>2024-03-09T09:35:23.000Z</time>
</trkpt>
<trkpt lat="46.2567760" lon="10.5647770">
	<ele>1812.80</ele>
	<time>2024-03-09T09:35:24.000Z</time>
</trkpt>
<trkpt lat="46.2567760" lon="10.5647330">
	<ele>1812.60</ele>
	<time>2024-03-09T09:35:25.000Z</time>
</trkpt>
<trkpt lat="46.2567760" lon="10.5646930">
	<ele>1812.40</ele>
	<time>2024-03-09T09:35:26.000Z</time>
</trkpt>
<trkpt lat="46.2567720" lon="10.5646580">
	<ele>1812.00</ele>
	<time>2024-03-09T09:35:27.000Z</time>
</trkpt>
<trkpt lat="46.2567690" lon="10.5646140">
	<ele>1811.80</ele>
	<time>2024-03-09T09:35:28.000Z</time>
</trkpt>
<trkpt lat="46.2567690" lon="10.5645690">
	<ele>1811.40</ele>
	<time>2024-03-09T09:35:29.000Z</time>
</trkpt>
<trkpt lat="46.2567710" lon="10.5645260">
	<ele>1811.20</ele>
	<time>2024-03-09T09:35:30.000Z</time>
</trkpt>
<trkpt lat="46.2567720" lon="10.5644760">
	<ele>1811.20</ele>
	<time>2024-03-09T09:35:31.000Z</time>
</trkpt>
<trkpt lat="46.2567710" lon="10.5644390">
	<ele>1811.00</ele>
	<time>2024-03-09T09:35:32.000Z</time>
</trkpt>
<trkpt lat="46.2567700" lon="10.5643980">
	<ele>1810.60</ele>
	<time>2024-03-09T09:35:33.000Z</time>
</trkpt>
<trkpt lat="46.2567730" lon="10.5643610">
	<ele>1810.40</ele>
	<time>2024-03-09T09:35:34.000Z</time>
</trkpt>
<trkpt lat="46.2567770" lon="10.5643260">
	<ele>1810.20</ele>
	<time>2024-03-09T09:35:35.000Z</time>
</trkpt>
<trkpt lat="46.2567780" lon="10.5642890">
	<ele>1809.80</ele>
	<time>2024-03-09T09:35:36.000Z</time>
</trkpt>
<trkpt lat="46.2567780" lon="10.5642470">
	<ele>1809.60</ele>
	<time>2024-03-09T09:35:37.000Z</time>
</trkpt>
<trkpt lat="46.2567780" lon="10.5642080">
	<ele>1809.40</ele>
	<time>2024-03-09T09:35:38.000Z</time>
</trkpt>
<trkpt lat="46.2567800" lon="10.5641820">
	<ele>1809.20</ele>
	<time>2024-03-09T09:35:39.000Z</time>
</trkpt>
<trkpt lat="46.2567840" lon="10.5641510">
	<ele>1809.00</ele>
	<time>2024-03-09T09:35:40.000Z</time>
</trkpt>
<trkpt lat="46.2567880" lon="10.5641250">
	<ele>1808.60</ele>
	<time>2024-03-09T09:35:41.000Z</time>
</trkpt>
<trkpt lat="46.2567900" lon="10.5640970">
	<ele>1808.40</ele>
	<time>2024-03-09T09:35:42.000Z</time>
</trkpt>
<trkpt lat="46.2567930" lon="10.5640630">
	<ele>1808.20</ele>
	<time>2024-03-09T09:35:43.000Z</time>
</trkpt>
<trkpt lat="46.2568000" lon="10.5640260">
	<ele>1808.20</ele>
	<time>2024-03-09T09:35:44.000Z</time>
</trkpt>
<trkpt lat="46.2568050" lon="10.5639900">
	<ele>1808.20</ele>
	<time>2024-03-09T09:35:45.000Z</time>
</trkpt>
<trkpt lat="46.2568040" lon="10.5639540">
	<ele>1808.00</ele>
	<time>2024-03-09T09:35:46.000Z</time>
</trkpt>
<trkpt lat="46.2568120" lon="10.5639150">
	<ele>1807.80</ele>
	<time>2024-03-09T09:35:47.000Z</time>
</trkpt>
<trkpt lat="46.2568170" lon="10.5638730">
	<ele>1807.40</ele>
	<time>2024-03-09T09:35:48.000Z</time>
</trkpt>
<trkpt lat="46.2568200" lon="10.5638310">
	<ele>1807.20</ele>
	<time>2024-03-09T09:35:49.000Z</time>
</trkpt>
<trkpt lat="46.2568280" lon="10.5637810">
	<ele>1807.00</ele>
	<time>2024-03-09T09:35:50.000Z</time>
</trkpt>
<trkpt lat="46.2568350" lon="10.5637490">
	<ele>1806.80</ele>
	<time>2024-03-09T09:35:51.000Z</time>
</trkpt>
<trkpt lat="46.2568390" lon="10.5637100">
	<ele>1806.60</ele>
	<time>2024-03-09T09:35:52.000Z</time>
</trkpt>
<trkpt lat="46.2568410" lon="10.5636820">
	<ele>1806.40</ele>
	<time>2024-03-09T09:35:53.000Z</time>
</trkpt>
<trkpt lat="46.2568430" lon="10.5636500">
	<ele>1806.40</ele>
	<time>2024-03-09T09:35:54.000Z</time>
</trkpt>
<trkpt lat="46.2568440" lon="10.5636180">
	<ele>1806.20</ele>
	<time>2024-03-09T09:35:55.000Z</time>
</trkpt>
<trkpt lat="46.2568430" lon="10.5635890">
	<ele>1806.20</ele>
	<time>2024-03-09T09:35:56.000Z</time>
</trkpt>
<trkpt lat="46.2568440" lon="10.5635620">
	<ele>1806.00</ele>
	<time>2024-03-09T09:35:57.000Z</time>
</trkpt>
<trkpt lat="46.2568450" lon="10.5635360">
	<ele>1805.80</ele>
	<time>2024-03-09T09:35:58.000Z</time>
</trkpt>
<trkpt lat="46.2568470" lon="10.5635100">
	<ele>1805.60</ele>
	<time>2024-03-09T09:35:59.000Z</time>
</trkpt>
<trkpt lat="46.2568480" lon="10.5634860">
	<ele>1805.60</ele>
	<time>2024-03-09T09:36:00.000Z</time>
</trkpt>
<trkpt lat="46.2568500" lon="10.5634620">
	<ele>1805.40</ele>
	<time>2024-03-09T09:36:01.000Z</time>
</trkpt>
<trkpt lat="46.2568520" lon="10.5634390">
	<ele>1805.40</ele>
	<time>2024-03-09T09:36:02.000Z</time>
</trkpt>
<trkpt lat="46.2568540" lon="10.5634150">
	<ele>1805.40</ele>
	<time>2024-03-09T09:36:03.000Z</time>
</trkpt>
<trkpt lat="46.2568580" lon="10.5633900">
	<ele>1805.20</ele>
	<time>2024-03-09T09:36:04.000Z</time>
</trkpt>
<trkpt lat="46.2568580" lon="10.5633710">
	<ele>1805.20</ele>
	<time>2024-03-09T09:36:05.000Z</time>
</trkpt>
<trkpt lat="46.2568600" lon="10.5633440">
	<ele>1805.20</ele>
	<time>2024-03-09T09:36:06.000Z</time>
</trkpt>
<trkpt lat="46.2568610" lon="10.5633220">
	<ele>1805.00</ele>
	<time>2024-03-09T09:36:07.000Z</time>
</trkpt>
<trkpt lat="46.2568610" lon="10.5633010">
	<ele>1805.00</ele>
	<time>2024-03-09T09:36:08.000Z</time>
</trkpt>
<trkpt lat="46.2568630" lon="10.5632780">
	<ele>1805.00</ele>
	<time>2024-03-09T09:36:09.000Z</time>
</trkpt>
<trkpt lat="46.2568630" lon="10.5632530">
	<ele>1804.80</ele>
	<time>2024-03-09T09:36:10.000Z</time>
</trkpt>
<trkpt lat="46.2568670" lon="10.5632220">
	<ele>1804.80</ele>
	<time>2024-03-09T09:36:11.000Z</time>
</trkpt>
<trkpt lat="46.2568690" lon="10.5631900">
	<ele>1804.60</ele>
	<time>2024-03-09T09:36:12.000Z</time>
</trkpt>
<trkpt lat="46.2568700" lon="10.5631630">
	<ele>1804.40</ele>
	<time>2024-03-09T09:36:13.000Z</time>
</trkpt>
<trkpt lat="46.2568700" lon="10.5631310">
	<ele>1804.20</ele>
	<time>2024-03-09T09:36:14.000Z</time>
</trkpt>
<trkpt lat="46.2568670" lon="10.5630990">
	<ele>1804.00</ele>
	<time>2024-03-09T09:36:15.000Z</time>
</trkpt>
<trkpt lat="46.2568630" lon="10.5630690">
	<ele>1804.00</ele>
	<time>2024-03-09T09:36:16.000Z</time>
</trkpt>
<trkpt lat="46.2568560" lon="10.5630400">
	<ele>1803.80</ele>
	<time>2024-03-09T09:36:17.000Z</time>
</trkpt>
<trkpt lat="46.2568460" lon="10.5630120">
	<ele>1803.60</ele>
	<time>2024-03-09T09:36:18.000Z</time>
</trkpt>
<trkpt lat="46.2568330" lon="10.5629800">
	<ele>1803.40</ele>
	<time>2024-03-09T09:36:19.000Z</time>
</trkpt>
<trkpt lat="46.2568190" lon="10.5629430">
	<ele>1803.00</ele>
	<time>2024-03-09T09:36:20.000Z</time>
</trkpt>
<trkpt lat="46.2568060" lon="10.5629030">
	<ele>1802.60</ele>
	<time>2024-03-09T09:36:21.000Z</time>
</trkpt>
<trkpt lat="46.2567910" lon="10.5628590">
	<ele>1802.40</ele>
	<time>2024-03-09T09:36:22.000Z</time>
</trkpt>
<trkpt lat="46.2567780" lon="10.5628170">
	<ele>1802.00</ele>
	<time>2024-03-09T09:36:23.000Z</time>
</trkpt>
<trkpt lat="46.2567650" lon="10.5627760">
	<ele>1801.60</ele>
	<time>2024-03-09T09:36:24.000Z</time>
</trkpt>
<trkpt lat="46.2567530" lon="10.5627400">
	<ele>1801.20</ele>
	<time>2024-03-09T09:36:25.000Z</time>
</trkpt>
<trkpt lat="46.2567400" lon="10.5627060">
	<ele>1800.80</ele>
	<time>2024-03-09T09:36:26.000Z</time>
</trkpt>
<trkpt lat="46.2567270" lon="10.5626720">
	<ele>1800.60</ele>
	<time>2024-03-09T09:36:27.000Z</time>
</trkpt>
<trkpt lat="46.2567130" lon="10.5626390">
	<ele>1800.20</ele>
	<time>2024-03-09T09:36:28.000Z</time>
</trkpt>
<trkpt lat="46.2566960" lon="10.5626030">
	<ele>1799.80</ele>
	<time>2024-03-09T09:36:29.000Z</time>
</trkpt>
<trkpt lat="46.2566810" lon="10.5625670">
	<ele>1799.60</ele>
	<time>2024-03-09T09:36:30.000Z</time>
</trkpt>
<trkpt lat="46.2566640" lon="10.5625280">
	<ele>1799.20</ele>
	<time>2024-03-09T09:36:31.000Z</time>
</trkpt>
<trkpt lat="46.2566480" lon="10.5624880">
	<ele>1799.00</ele>
	<time>2024-03-09T09:36:32.000Z</time>
</trkpt>
<trkpt lat="46.2566280" lon="10.5624430">
	<ele>1798.80</ele>
	<time>2024-03-09T09:36:33.000Z</time>
</trkpt>
<trkpt lat="46.2566120" lon="10.5624080">
	<ele>1798.20</ele>
	<time>2024-03-09T09:36:34.000Z</time>
</trkpt>
<trkpt lat="46.2565990" lon="10.5623730">
	<ele>1797.80</ele>
	<time>2024-03-09T09:36:35.000Z</time>
</trkpt>
<trkpt lat="46.2565880" lon="10.5623370">
	<ele>1797.60</ele>
	<time>2024-03-09T09:36:36.000Z</time>
</trkpt>
<trkpt lat="46.2565790" lon="10.5623010">
	<ele>1797.40</ele>
	<time>2024-03-09T09:36:37.000Z</time>
</trkpt>
<trkpt lat="46.2565710" lon="10.5622600">
	<ele>1797.00</ele>
	<time>2024-03-09T09:36:38.000Z</time>
</trkpt>
<trkpt lat="46.2565660" lon="10.5622190">
	<ele>1796.60</ele>
	<time>2024-03-09T09:36:39.000Z</time>
</trkpt>
<trkpt lat="46.2565640" lon="10.5621780">
	<ele>1796.20</ele>
	<time>2024-03-09T09:36:40.000Z</time>
</trkpt>
<trkpt lat="46.2565630" lon="10.5621300">
	<ele>1796.00</ele>
	<time>2024-03-09T09:36:41.000Z</time>
</trkpt>
<trkpt lat="46.2565590" lon="10.5620840">
	<ele>1795.80</ele>
	<time>2024-03-09T09:36:42.000Z</time>
</trkpt>
<trkpt lat="46.2565550" lon="10.5620380">
	<ele>1795.60</ele>
	<time>2024-03-09T09:36:43.000Z</time>
</trkpt>
<trkpt lat="46.2565480" lon="10.5619960">
	<ele>1795.20</ele>
	<time>2024-03-09T09:36:44.000Z</time>
</trkpt>
<trkpt lat="46.2565450" lon="10.5619520">
	<ele>1794.80</ele>
	<time>2024-03-09T09:36:45.000Z</time>
</trkpt>
<trkpt lat="46.2565480" lon="10.5619090">
	<ele>1794.20</ele>
	<time>2024-03-09T09:36:46.000Z</time>
</trkpt>
<trkpt lat="46.2565510" lon="10.5618650">
	<ele>1794.00</ele>
	<time>2024-03-09T09:36:47.000Z</time>
</trkpt>
<trkpt lat="46.2565510" lon="10.5618240">
	<ele>1793.60</ele>
	<time>2024-03-09T09:36:48.000Z</time>
</trkpt>
<trkpt lat="46.2565460" lon="10.5617820">
	<ele>1793.00</ele>
	<time>2024-03-09T09:36:49.000Z</time>
</trkpt>
<trkpt lat="46.2565460" lon="10.5617360">
	<ele>1792.60</ele>
	<time>2024-03-09T09:36:50.000Z</time>
</trkpt>
<trkpt lat="46.2565440" lon="10.5616910">
	<ele>1792.20</ele>
	<time>2024-03-09T09:36:51.000Z</time>
</trkpt>
<trkpt lat="46.2565390" lon="10.5616400">
	<ele>1791.80</ele>
	<time>2024-03-09T09:36:52.000Z</time>
</trkpt>
<trkpt lat="46.2565340" lon="10.5615890">
	<ele>1791.40</ele>
	<time>2024-03-09T09:36:53.000Z</time>
</trkpt>
<trkpt lat="46.2565300" lon="10.5615480">
	<ele>1791.00</ele>
	<time>2024-03-09T09:36:54.000Z</time>
</trkpt>
<trkpt lat="46.2565250" lon="10.5614870">
	<ele>1790.80</ele>
	<time>2024-03-09T09:36:55.000Z</time>
</trkpt>
<trkpt lat="46.2565200" lon="10.5614400">
	<ele>1790.20</ele>
	<time>2024-03-09T09:36:56.000Z</time>
</trkpt>
<trkpt lat="46.2565150" lon="10.5613970">
	<ele>1790.00</ele>
	<time>2024-03-09T09:36:57.000Z</time>
</trkpt>
<trkpt lat="46.2565110" lon="10.5613570">
	<ele>1789.40</ele>
	<time>2024-03-09T09:36:58.000Z</time>
</trkpt>
<trkpt lat="46.2565060" lon="10.5613230">
	<ele>1789.00</ele>
	<time>2024-03-09T09:36:59.000Z</time>
</trkpt>
<trkpt lat="46.2565010" lon="10.5612970">
	<ele>1788.80</ele>
	<time>2024-03-09T09:37:00.000Z</time>
</trkpt>
<trkpt lat="46.2564980" lon="10.5612770">
	<ele>1788.60</ele>
	<time>2024-03-09T09:37:01.000Z</time>
</trkpt>
<trkpt lat="46.2564990" lon="10.5612590">
	<ele>1788.60</ele>
	<time>2024-03-09T09:37:02.000Z</time>
</trkpt>
<trkpt lat="46.2565010" lon="10.5612410">
	<ele>1788.40</ele>
	<time>2024-03-09T09:37:03.000Z</time>
</trkpt>
<trkpt lat="46.2565030" lon="10.5612180">
	<ele>1788.40</ele>
	<time>2024-03-09T09:37:04.000Z</time>
</trkpt>
<trkpt lat="46.2565030" lon="10.5611960">
	<ele>1788.40</ele>
	<time>2024-03-09T09:37:05.000Z</time>
</trkpt>
<trkpt lat="46.2565020" lon="10.5611730">
	<ele>1788.20</ele>
	<time>2024-03-09T09:37:06.000Z</time>
</trkpt>
<trkpt lat="46.2565010" lon="10.5611450">
	<ele>1788.20</ele>
	<time>2024-03-09T09:37:07.000Z</time>
</trkpt>
<trkpt lat="46.2565000" lon="10.5611150">
	<ele>1788.20</ele>
	<time>2024-03-09T09:37:08.000Z</time>
</trkpt>
<trkpt lat="46.2564980" lon="10.5610800">
	<ele>1788.00</ele>
	<time>2024-03-09T09:37:09.000Z</time>
</trkpt>
<trkpt lat="46.2564960" lon="10.5610390">
	<ele>1787.80</ele>
	<time>2024-03-09T09:37:10.000Z</time>
</trkpt>
<trkpt lat="46.2564940" lon="10.5609940">
	<ele>1786.80</ele>
	<time>2024-03-09T09:37:11.000Z</time>
</trkpt>
<trkpt lat="46.2564920" lon="10.5609460">
	<ele>1786.20</ele>
	<time>2024-03-09T09:37:12.000Z</time>
</trkpt>
<trkpt lat="46.2564880" lon="10.5608990">
	<ele>1785.40</ele>
	<time>2024-03-09T09:37:13.000Z</time>
</trkpt>
<trkpt lat="46.2564830" lon="10.5608490">
	<ele>1784.60</ele>
	<time>2024-03-09T09:37:14.000Z</time>
</trkpt>
<trkpt lat="46.2564760" lon="10.5608010">
	<ele>1784.00</ele>
	<time>2024-03-09T09:37:15.000Z</time>
</trkpt>
<trkpt lat="46.2564710" lon="10.5607580">
	<ele>1783.20</ele>
	<time>2024-03-09T09:37:16.000Z</time>
</trkpt>
<trkpt lat="46.2564630" lon="10.5607190">
	<ele>1782.60</ele>
	<time>2024-03-09T09:37:17.000Z</time>
</trkpt>
<trkpt lat="46.2564530" lon="10.5606780">
	<ele>1781.80</ele>
	<time>2024-03-09T09:37:18.000Z</time>
</trkpt>
<trkpt lat="46.2564460" lon="10.5606370">
	<ele>1781.20</ele>
	<time>2024-03-09T09:37:19.000Z</time>
</trkpt>
<trkpt lat="46.2564410" lon="10.5605970">
	<ele>1780.80</ele>
	<time>2024-03-09T09:37:20.000Z</time>
</trkpt>
<trkpt lat="46.2564360" lon="10.5605550">
	<ele>1780.20</ele>
	<time>2024-03-09T09:37:21.000Z</time>
</trkpt>
<trkpt lat="46.2564320" lon="10.5605140">
	<ele>1779.60</ele>
	<time>2024-03-09T09:37:22.000Z</time>
</trkpt>
<trkpt lat="46.2564270" lon="10.5604740">
	<ele>1779.00</ele>
	<time>2024-03-09T09:37:23.000Z</time>
</trkpt>
<trkpt lat="46.2564220" lon="10.5604340">
	<ele>1778.60</ele>
	<time>2024-03-09T09:37:24.000Z</time>
</trkpt>
<trkpt lat="46.2564160" lon="10.5603940">
	<ele>1778.00</ele>
	<time>2024-03-09T09:37:25.000Z</time>
</trkpt>
<trkpt lat="46.2564090" lon="10.5603560">
	<ele>1777.60</ele>
	<time>2024-03-09T09:37:26.000Z</time>
</trkpt>
<trkpt lat="46.2564020" lon="10.5603180">
	<ele>1777.00</ele>
	<time>2024-03-09T09:37:27.000Z</time>
</trkpt>
<trkpt lat="46.2563920" lon="10.5602810">
	<ele>1776.80</ele>
	<time>2024-03-09T09:37:28.000Z</time>
</trkpt>
<trkpt lat="46.2563820" lon="10.5602440">
	<ele>1776.20</ele>
	<time>2024-03-09T09:37:29.000Z</time>
</trkpt>
<trkpt lat="46.2563700" lon="10.5602060">
	<ele>1775.60</ele>
	<time>2024-03-09T09:37:30.000Z</time>
</trkpt>
<trkpt lat="46.2563580" lon="10.5601700">
	<ele>1775.20</ele>
	<time>2024-03-09T09:37:31.000Z</time>
</trkpt>
<trkpt lat="46.2563500" lon="10.5601320">
	<ele>1774.60</ele>
	<time>2024-03-09T09:37:32.000Z</time>
</trkpt>
<trkpt lat="46.2563410" lon="10.5600930">
	<ele>1774.00</ele>
	<time>2024-03-09T09:37:33.000Z</time>
</trkpt>
<trkpt lat="46.2563350" lon="10.5600570">
	<ele>1773.60</ele>
	<time>2024-03-09T09:37:34.000Z</time>
</trkpt>
<trkpt lat="46.2563240" lon="10.5600270">
	<ele>1773.00</ele>
	<time>2024-03-09T09:37:35.000Z</time>
</trkpt>
<trkpt lat="46.2563120" lon="10.5600050">
	<ele>1772.80</ele>
	<time>2024-03-09T09:37:36.000Z</time>
</trkpt>
<trkpt lat="46.2563010" lon="10.5599830">
	<ele>1772.40</ele>
	<time>2024-03-09T09:37:37.000Z</time>
</trkpt>
<trkpt lat="46.2562940" lon="10.5599680">
	<ele>1772.00</ele>
	<time>2024-03-09T09:37:38.000Z</time>
</trkpt>
<trkpt lat="46.2562830" lon="10.5599540">
	<ele>1771.60</ele>
	<time>2024-03-09T09:37:39.000Z</time>
</trkpt>
<trkpt lat="46.2562710" lon="10.5599370">
	<ele>1771.40</ele>
	<time>2024-03-09T09:37:40.000Z</time>
</trkpt>
<trkpt lat="46.2562560" lon="10.5599240">
	<ele>1771.40</ele>
	<time>2024-03-09T09:37:41.000Z</time>
</trkpt>
<trkpt lat="46.2562400" lon="10.5599100">
	<ele>1771.20</ele>
	<time>2024-03-09T09:37:42.000Z</time>
</trkpt>
<trkpt lat="46.2562270" lon="10.5598950">
	<ele>1771.00</ele>
	<time>2024-03-09T09:37:43.000Z</time>
</trkpt>
<trkpt lat="46.2562140" lon="10.5598850">
	<ele>1770.80</ele>
	<time>2024-03-09T09:37:44.000Z</time>
</trkpt>
<trkpt lat="46.2562070" lon="10.5598760">
	<ele>1770.40</ele>
	<time>2024-03-09T09:37:45.000Z</time>
</trkpt>
<trkpt lat="46.2562030" lon="10.5598680">
	<ele>1770.00</ele>
	<time>2024-03-09T09:37:46.000Z</time>
</trkpt>
<trkpt lat="46.2562020" lon="10.5598630">
	<ele>1770.00</ele>
	<time>2024-03-09T09:37:47.000Z</time>
</trkpt>
<trkpt lat="46.2562010" lon="10.5598590">
	<ele>1769.80</ele>
	<time>2024-03-09T09:37:48.000Z</time>
</trkpt>
<trkpt lat="46.2562000" lon="10.5598580">
	<ele>1769.80</ele>
	<time>2024-03-09T09:37:49.000Z</time>
</trkpt>
<trkpt lat="46.2562000" lon="10.5598600">
	<ele>1769.80</ele>
	<time>2024-03-09T09:37:50.000Z</time>
</trkpt>
<trkpt lat="46.2562010" lon="10.5598610">
	<ele>1769.80</ele>
	<time>2024-03-09T09:37:51.000Z</time>
</trkpt>
<trkpt lat="46.2562020" lon="10.5598630">
	<ele>1769.80</ele>
	<time>2024-03-09T09:37:52.000Z</time>
</trkpt>
<trkpt lat="46.2562030" lon="10.5598660">
	<ele>1769.60</ele>
	<time>2024-03-09T09:37:53.000Z</time>
</trkpt>
<trkpt lat="46.2562040" lon="10.5598670">
	<ele>1769.80</ele>
	<time>2024-03-09T09:37:54.000Z</time>
</trkpt>
<trkpt lat="46.2562040" lon="10.5598670">
	<ele>1769.80</ele>
	<time>2024-03-09T09:37:55.000Z</time>
</trkpt>
<trkpt lat="46.2562030" lon="10.5598670">
	<ele>1769.80</ele>
	<time>2024-03-09T09:37:56.000Z</time>
</trkpt>
<trkpt lat="46.2562030" lon="10.5598660">
	<ele>1769.80</ele>
	<time>2024-03-09T09:37:57.000Z</time>
</trkpt>
<trkpt lat="46.2562030" lon="10.5598660">
	<ele>1769.80</ele>
	<time>2024-03-09T09:37:58.000Z</time>
</trkpt>
<trkpt lat="46.2562030" lon="10.5598660">
	<ele>1769.80</ele>
	<time>2024-03-09T09:37:59.000Z</time>
</trkpt>
<trkpt lat="46.2562030" lon="10.5598660">
	<ele>1769.80</ele>
	<time>2024-03-09T09:38:00.000Z</time>
</trkpt>
<trkpt lat="46.2562030" lon="10.5598660">
	<ele>1769.60</ele>
	<time>2024-03-09T09:38:01.000Z</time>
</trkpt>
<trkpt lat="46.2562030" lon="10.5598660">
	<ele>1769.60</ele>
	<time>2024-03-09T09:38:02.000Z</time>
</trkpt>
<trkpt lat="46.2562030" lon="10.5598660">
	<ele>1769.60</ele>
	<time>2024-03-09T09:38:03.000Z</time>
</trkpt>
<trkpt lat="46.2562030" lon="10.5598660">
	<ele>1769.60</ele>
	<time>2024-03-09T09:38:04.000Z</time>
</trkpt>
<trkpt lat="46.2562010" lon="10.5598630">
	<ele>1769.40</ele>
	<time>2024-03-09T09:38:05.000Z</time>
</trkpt>
<trkpt lat="46.2561950" lon="10.5598320">
	<ele>1769.20</ele>
	<time>2024-03-09T09:38:06.000Z</time>
</trkpt>
<trkpt lat="46.2561890" lon="10.5598010">
	<ele>1769.00</ele>
	<time>2024-03-09T09:38:07.000Z</time>
</trkpt>
<trkpt lat="46.2561830" lon="10.5597650">
	<ele>1768.80</ele>
	<time>2024-03-09T09:38:08.000Z</time>
</trkpt>
<trkpt lat="46.2561770" lon="10.5597240">
	<ele>1768.60</ele>
	<time>2024-03-09T09:38:09.000Z</time>
</trkpt>
<trkpt lat="46.2561700" lon="10.5596860">
	<ele>1768.20</ele>
	<time>2024-03-09T09:38:10.000Z</time>
</trkpt>
<trkpt lat="46.2561610" lon="10.5596410">
	<ele>1768.00</ele>
	<time>2024-03-09T09:38:11.000Z</time>
</trkpt>
<trkpt lat="46.2561490" lon="10.5595940">
	<ele>1767.40</ele>
	<time>2024-03-09T09:38:12.000Z</time>
</trkpt>
<trkpt lat="46.2561350" lon="10.5595480">
	<ele>1766.80</ele>
	<time>2024-03-09T09:38:13.000Z</time>
</trkpt>
<trkpt lat="46.2561190" lon="10.5595030">
	<ele>1766.20</ele>
	<time>2024-03-09T09:38:14.000Z</time>
</trkpt>
<trkpt lat="46.2561030" lon="10.5594630">
	<ele>1765.60</ele>
	<time>2024-03-09T09:38:15.000Z</time>
</trkpt>
<trkpt lat="46.2560900" lon="10.5594200">
	<ele>1765.20</ele>
	<time>2024-03-09T09:38:16.000Z</time>
</trkpt>
<trkpt lat="46.2560780" lon="10.5593790">
	<ele>1764.60</ele>
	<time>2024-03-09T09:38:17.000Z</time>
</trkpt>
<trkpt lat="46.2560650" lon="10.5593420">
	<ele>1764.20</ele>
	<time>2024-03-09T09:38:18.000Z</time>
</trkpt>
<trkpt lat="46.2560480" lon="10.5593050">
	<ele>1763.40</ele>
	<time>2024-03-09T09:38:19.000Z</time>
</trkpt>
<trkpt lat="46.2560290" lon="10.5592710">
	<ele>1763.00</ele>
	<time>2024-03-09T09:38:20.000Z</time>
</trkpt>
<trkpt lat="46.2560090" lon="10.5592370">
	<ele>1762.60</ele>
	<time>2024-03-09T09:38:21.000Z</time>
</trkpt>
<trkpt lat="46.2559930" lon="10.5592000">
	<ele>1762.00</ele>
	<time>2024-03-09T09:38:22.000Z</time>
</trkpt>
<trkpt lat="46.2559750" lon="10.5591620">
	<ele>1761.40</ele>
	<time>2024-03-09T09:38:23.000Z</time>
</trkpt>
<trkpt lat="46.2559610" lon="10.5591220">
	<ele>1760.60</ele>
	<time>2024-03-09T09:38:24.000Z</time>
</trkpt>
<trkpt lat="46.2559430" lon="10.5590830">
	<ele>1760.20</ele>
	<time>2024-03-09T09:38:25.000Z</time>
</trkpt>
<trkpt lat="46.2559210" lon="10.5590530">
	<ele>1759.40</ele>
	<time>2024-03-09T09:38:26.000Z</time>
</trkpt>
<trkpt lat="46.2559000" lon="10.5590280">
	<ele>1758.80</ele>
	<time>2024-03-09T09:38:27.000Z</time>
</trkpt>
<trkpt lat="46.2558810" lon="10.5590040">
	<ele>1758.00</ele>
	<time>2024-03-09T09:38:28.000Z</time>
</trkpt>
<trkpt lat="46.2558640" lon="10.5589800">
	<ele>1757.60</ele>
	<time>2024-03-09T09:38:29.000Z</time>
</trkpt>
<trkpt lat="46.2558460" lon="10.5589630">
	<ele>1757.20</ele>
	<time>2024-03-09T09:38:30.000Z</time>
</trkpt>
<trkpt lat="46.2558360" lon="10.5589530">
	<ele>1757.00</ele>
	<time>2024-03-09T09:38:31.000Z</time>
</trkpt>
<trkpt lat="46.2558320" lon="10.5589510">
	<ele>1756.60</ele>
	<time>2024-03-09T09:38:32.000Z</time>
</trkpt>
<trkpt lat="46.2558290" lon="10.5589520">
	<ele>1756.40</ele>
	<time>2024-03-09T09:38:33.000Z</time>
</trkpt>
<trkpt lat="46.2558300" lon="10.5589520">
	<ele>1756.40</ele>
	<time>2024-03-09T09:38:34.000Z</time>
</trkpt>
<trkpt lat="46.2558320" lon="10.5589530">
	<ele>1756.20</ele>
	<time>2024-03-09T09:38:35.000Z</time>
</trkpt>
<trkpt lat="46.2558330" lon="10.5589540">
	<ele>1756.20</ele>
	<time>2024-03-09T09:38:36.000Z</time>
</trkpt>
<trkpt lat="46.2558330" lon="10.5589530">
	<ele>1756.20</ele>
	<time>2024-03-09T09:38:37.000Z</time>
</trkpt>
<trkpt lat="46.2558330" lon="10.5589530">
	<ele>1756.20</ele>
	<time>2024-03-09T09:38:38.000Z</time>
</trkpt>
<trkpt lat="46.2558320" lon="10.5589550">
	<ele>1756.20</ele>
	<time>2024-03-09T09:38:39.000Z</time>
</trkpt>
<trkpt lat="46.2558310" lon="10.5589560">
	<ele>1756.00</ele>
	<time>2024-03-09T09:38:40.000Z</time>
</trkpt>
<trkpt lat="46.2558300" lon="10.5589530">
	<ele>1756.00</ele>
	<time>2024-03-09T09:38:41.000Z</time>
</trkpt>
<trkpt lat="46.2558300" lon="10.5589520">
	<ele>1756.00</ele>
	<time>2024-03-09T09:38:42.000Z</time>
</trkpt>
<trkpt lat="46.2558310" lon="10.5589530">
	<ele>1756.00</ele>
	<time>2024-03-09T09:38:43.000Z</time>
</trkpt>
<trkpt lat="46.2558310" lon="10.5589520">
	<ele>1756.00</ele>
	<time>2024-03-09T09:38:44.000Z</time>
</trkpt>
<trkpt lat="46.2558300" lon="10.5589490">
	<ele>1756.00</ele>
	<time>2024-03-09T09:38:45.000Z</time>
</trkpt>
<trkpt lat="46.2558280" lon="10.5589490">
	<ele>1756.00</ele>
	<time>2024-03-09T09:38:46.000Z</time>
</trkpt>
<trkpt lat="46.2558300" lon="10.5589500">
	<ele>1756.00</ele>
	<time>2024-03-09T09:38:47.000Z</time>
</trkpt>
<trkpt lat="46.2558320" lon="10.5589510">
	<ele>1756.00</ele>
	<time>2024-03-09T09:38:48.000Z</time>
</trkpt>
<trkpt lat="46.2558340" lon="10.5589500">
	<ele>1756.00</ele>
	<time>2024-03-09T09:38:49.000Z</time>
</trkpt>
<trkpt lat="46.2558340" lon="10.5589480">
	<ele>1756.00</ele>
	<time>2024-03-09T09:38:50.000Z</time>
</trkpt>
<trkpt lat="46.2558330" lon="10.5589450">
	<ele>1756.00</ele>
	<time>2024-03-09T09:38:51.000Z</time>
</trkpt>
<trkpt lat="46.2558330" lon="10.5589440">
	<ele>1756.00</ele>
	<time>2024-03-09T09:38:52.000Z</time>
</trkpt>
<trkpt lat="46.2558350" lon="10.5589440">
	<ele>1756.00</ele>
	<time>2024-03-09T09:38:53.000Z</time>
</trkpt>
<trkpt lat="46.2558360" lon="10.5589460">
	<ele>1756.00</ele>
	<time>2024-03-09T09:38:54.000Z</time>
</trkpt>
<trkpt lat="46.2558380" lon="10.5589480">
	<ele>1756.00</ele>
	<time>2024-03-09T09:38:55.000Z</time>
</trkpt>
<trkpt lat="46.2558400" lon="10.5589480">
	<ele>1756.00</ele>
	<time>2024-03-09T09:38:56.000Z</time>
</trkpt>
<trkpt lat="46.2558420" lon="10.5589460">
	<ele>1756.00</ele>
	<time>2024-03-09T09:38:57.000Z</time>
</trkpt>
<trkpt lat="46.2558420" lon="10.5589460">
	<ele>1756.20</ele>
	<time>2024-03-09T09:38:58.000Z</time>
</trkpt>
<trkpt lat="46.2558390" lon="10.5589500">
	<ele>1756.20</ele>
	<time>2024-03-09T09:38:59.000Z</time>
</trkpt>
<trkpt lat="46.2558350" lon="10.5589470">
	<ele>1756.00</ele>
	<time>2024-03-09T09:39:00.000Z</time>
</trkpt>
<trkpt lat="46.2558320" lon="10.5589410">
	<ele>1756.00</ele>
	<time>2024-03-09T09:39:01.000Z</time>
</trkpt>
<trkpt lat="46.2558250" lon="10.5589300">
	<ele>1756.00</ele>
	<time>2024-03-09T09:39:02.000Z</time>
</trkpt>
<trkpt lat="46.2558170" lon="10.5589200">
	<ele>1756.00</ele>
	<time>2024-03-09T09:39:03.000Z</time>
</trkpt>
<trkpt lat="46.2558050" lon="10.5589060">
	<ele>1755.80</ele>
	<time>2024-03-09T09:39:04.000Z</time>
</trkpt>
<trkpt lat="46.2557930" lon="10.5588940">
	<ele>1755.60</ele>
	<time>2024-03-09T09:39:05.000Z</time>
</trkpt>
<trkpt lat="46.2557790" lon="10.5588730">
	<ele>1755.40</ele>
	<time>2024-03-09T09:39:06.000Z</time>
</trkpt>
<trkpt lat="46.2557730" lon="10.5588590">
	<ele>1755.20</ele>
	<time>2024-03-09T09:39:07.000Z</time>
</trkpt>
<trkpt lat="46.2557650" lon="10.5588440">
	<ele>1755.00</ele>
	<time>2024-03-09T09:39:08.000Z</time>
</trkpt>
<trkpt lat="46.2557510" lon="10.5588310">
	<ele>1754.60</ele>
	<time>2024-03-09T09:39:09.000Z</time>
</trkpt>
<trkpt lat="46.2557430" lon="10.5588160">
	<ele>1754.40</ele>
	<time>2024-03-09T09:39:10.000Z</time>
</trkpt>
<trkpt lat="46.2557360" lon="10.5587990">
	<ele>1754.20</ele>
	<time>2024-03-09T09:39:11.000Z</time>
</trkpt>
<trkpt lat="46.2557300" lon="10.5587770">
	<ele>1753.80</ele>
	<time>2024-03-09T09:39:12.000Z</time>
</trkpt>
<trkpt lat="46.2557230" lon="10.5587500">
	<ele>1753.40</ele>
	<time>2024-03-09T09:39:13.000Z</time>
</trkpt>
<trkpt lat="46.2557110" lon="10.5587240">
	<ele>1753.00</ele>
	<time>2024-03-09T09:39:14.000Z</time>
</trkpt>
<trkpt lat="46.2556990" lon="10.5587020">
	<ele>1752.80</ele>
	<time>2024-03-09T09:39:15.000Z</time>
</trkpt>
<trkpt lat="46.2556860" lon="10.5586850">
	<ele>1752.60</ele>
	<time>2024-03-09T09:39:16.000Z</time>
</trkpt>
<trkpt lat="46.2556740" lon="10.5586700">
	<ele>1752.40</ele>
	<time>2024-03-09T09:39:17.000Z</time>
</trkpt>
<trkpt lat="46.2556630" lon="10.5586550">
	<ele>1752.20</ele>
	<time>2024-03-09T09:39:18.000Z</time>
</trkpt>
<trkpt lat="46.2556490" lon="10.5586380">
	<ele>1751.80</ele>
	<time>2024-03-09T09:39:19.000Z</time>
</trkpt>
<trkpt lat="46.2556310" lon="10.5586200">
	<ele>1751.40</ele>
	<time>2024-03-09T09:39:20.000Z</time>
</trkpt>
<trkpt lat="46.2556130" lon="10.5585990">
	<ele>1751.20</ele>
	<time>2024-03-09T09:39:21.000Z</time>
</trkpt>
<trkpt lat="46.2556000" lon="10.5585740">
	<ele>1751.00</ele>
	<time>2024-03-09T09:39:22.000Z</time>
</trkpt>
<trkpt lat="46.2555900" lon="10.5585510">
	<ele>1751.00</ele>
	<time>2024-03-09T09:39:23.000Z</time>
</trkpt>
<trkpt lat="46.2555840" lon="10.5585250">
	<ele>1750.60</ele>
	<time>2024-03-09T09:39:24.000Z</time>
</trkpt>
<trkpt lat="46.2555770" lon="10.5584980">
	<ele>1750.40</ele>
	<time>2024-03-09T09:39:25.000Z</time>
</trkpt>
<trkpt lat="46.2555660" lon="10.5584780">
	<ele>1749.40</ele>
	<time>2024-03-09T09:39:26.000Z</time>
</trkpt>
<trkpt lat="46.2555500" lon="10.5584530">
	<ele>1749.00</ele>
	<time>2024-03-09T09:39:27.000Z</time>
</trkpt>
<trkpt lat="46.2555370" lon="10.5584230">
	<ele>1748.40</ele>
	<time>2024-03-09T09:39:28.000Z</time>
</trkpt>
<trkpt lat="46.2555240" lon="10.5583910">
	<ele>1748.00</ele>
	<time>2024-03-09T09:39:29.000Z</time>
</trkpt>
<trkpt lat="46.2555100" lon="10.5583610">
	<ele>1747.40</ele>
	<time>2024-03-09T09:39:30.000Z</time>
</trkpt>
<trkpt lat="46.2554960" lon="10.5583330">
	<ele>1747.00</ele>
	<time>2024-03-09T09:39:31.000Z</time>
</trkpt>
<trkpt lat="46.2554820" lon="10.5583060">
	<ele>1746.60</ele>
	<time>2024-03-09T09:39:32.000Z</time>
</trkpt>
<trkpt lat="46.2554660" lon="10.5582790">
	<ele>1746.20</ele>
	<time>2024-03-09T09:39:33.000Z</time>
</trkpt>
<trkpt lat="46.2554510" lon="10.5582510">
	<ele>1745.60</ele>
	<time>2024-03-09T09:39:34.000Z</time>
</trkpt>
<trkpt lat="46.2554370" lon="10.5582250">
	<ele>1745.00</ele>
	<time>2024-03-09T09:39:35.000Z</time>
</trkpt>
<trkpt lat="46.2554240" lon="10.5581990">
	<ele>1744.60</ele>
	<time>2024-03-09T09:39:36.000Z</time>
</trkpt>
<trkpt lat="46.2554060" lon="10.5581840">
	<ele>1744.20</ele>
	<time>2024-03-09T09:39:37.000Z</time>
</trkpt>
<trkpt lat="46.2553870" lon="10.5581710">
	<ele>1743.80</ele>
	<time>2024-03-09T09:39:38.000Z</time>
</trkpt>
<trkpt lat="46.2553690" lon="10.5581580">
	<ele>1743.40</ele>
	<time>2024-03-09T09:39:39.000Z</time>
</trkpt>
<trkpt lat="46.2553500" lon="10.5581490">
	<ele>1743.20</ele>
	<time>2024-03-09T09:39:40.000Z</time>
</trkpt>
<trkpt lat="46.2553350" lon="10.5581390">
	<ele>1743.00</ele>
	<time>2024-03-09T09:39:41.000Z</time>
</trkpt>
<trkpt lat="46.2553300" lon="10.5581240">
	<ele>1742.60</ele>
	<time>2024-03-09T09:39:42.000Z</time>
</trkpt>
<trkpt lat="46.2553300" lon="10.5581070">
	<ele>1742.40</ele>
	<time>2024-03-09T09:39:43.000Z</time>
</trkpt>
<trkpt lat="46.2553310" lon="10.5580860">
	<ele>1742.20</ele>
	<time>2024-03-09T09:39:44.000Z</time>
</trkpt>
<trkpt lat="46.2553310" lon="10.5580600">
	<ele>1742.00</ele>
	<time>2024-03-09T09:39:45.000Z</time>
</trkpt>
<trkpt lat="46.2553310" lon="10.5580330">
	<ele>1741.80</ele>
	<time>2024-03-09T09:39:46.000Z</time>
</trkpt>
<trkpt lat="46.2553330" lon="10.5579990">
	<ele>1741.60</ele>
	<time>2024-03-09T09:39:47.000Z</time>
</trkpt>
<trkpt lat="46.2553350" lon="10.5579680">
	<ele>1741.20</ele>
	<time>2024-03-09T09:39:48.000Z</time>
</trkpt>
<trkpt lat="46.2553330" lon="10.5579420">
	<ele>1741.20</ele>
	<time>2024-03-09T09:39:49.000Z</time>
</trkpt>
<trkpt lat="46.2553310" lon="10.5579010">
	<ele>1740.80</ele>
	<time>2024-03-09T09:39:50.000Z</time>
</trkpt>
<trkpt lat="46.2553240" lon="10.5578660">
	<ele>1740.60</ele>
	<time>2024-03-09T09:39:51.000Z</time>
</trkpt>
<trkpt lat="46.2553110" lon="10.5578360">
	<ele>1740.40</ele>
	<time>2024-03-09T09:39:52.000Z</time>
</trkpt>
<trkpt lat="46.2552950" lon="10.5578120">
	<ele>1740.20</ele>
	<time>2024-03-09T09:39:53.000Z</time>
</trkpt>
<trkpt lat="46.2552790" lon="10.5577940">
	<ele>1740.00</ele>
	<time>2024-03-09T09:39:54.000Z</time>
</trkpt>
<trkpt lat="46.2552590" lon="10.5577630">
	<ele>1739.80</ele>
	<time>2024-03-09T09:39:55.000Z</time>
</trkpt>
<trkpt lat="46.2552490" lon="10.5577250">
	<ele>1739.40</ele>
	<time>2024-03-09T09:39:56.000Z</time>
</trkpt>
<trkpt lat="46.2552490" lon="10.5576890">
	<ele>1738.80</ele>
	<time>2024-03-09T09:39:57.000Z</time>
</trkpt>
<trkpt lat="46.2552510" lon="10.5576560">
	<ele>1738.40</ele>
	<time>2024-03-09T09:39:58.000Z</time>
</trkpt>
<trkpt lat="46.2552540" lon="10.5576240">
	<ele>1738.00</ele>
	<time>2024-03-09T09:39:59.000Z</time>
</trkpt>
<trkpt lat="46.2552510" lon="10.5575970">
	<ele>1737.80</ele>
	<time>2024-03-09T09:40:00.000Z</time>
</trkpt>
<trkpt lat="46.2552450" lon="10.5575730">
	<ele>1737.60</ele>
	<time>2024-03-09T09:40:01.000Z</time>
</trkpt>
<trkpt lat="46.2552340" lon="10.5575490">
	<ele>1737.20</ele>
	<time>2024-03-09T09:40:02.000Z</time>
</trkpt>
<trkpt lat="46.2552180" lon="10.5575230">
	<ele>1737.00</ele>
	<time>2024-03-09T09:40:03.000Z</time>
</trkpt>
<trkpt lat="46.2552070" lon="10.5574910">
	<ele>1736.80</ele>
	<time>2024-03-09T09:40:04.000Z</time>
</trkpt>
<trkpt lat="46.2552000" lon="10.5574620">
	<ele>1736.60</ele>
	<time>2024-03-09T09:40:05.000Z</time>
</trkpt>
<trkpt lat="46.2551910" lon="10.5574240">
	<ele>1736.40</ele>
	<time>2024-03-09T09:40:06.000Z</time>
</trkpt>
<trkpt lat="46.2551830" lon="10.5573780">
	<ele>1736.40</ele>
	<time>2024-03-09T09:40:07.000Z</time>
</trkpt>
<trkpt lat="46.2551800" lon="10.5573330">
	<ele>1736.00</ele>
	<time>2024-03-09T09:40:08.000Z</time>
</trkpt>
<trkpt lat="46.2551740" lon="10.5572910">
	<ele>1735.60</ele>
	<time>2024-03-09T09:40:09.000Z</time>
</trkpt>
<trkpt lat="46.2551650" lon="10.5572490">
	<ele>1735.20</ele>
	<time>2024-03-09T09:40:10.000Z</time>
</trkpt>
<trkpt lat="46.2551580" lon="10.5572260">
	<ele>1735.00</ele>
	<time>2024-03-09T09:40:11.000Z</time>
</trkpt>
<trkpt lat="46.2551490" lon="10.5571940">
	<ele>1734.80</ele>
	<time>2024-03-09T09:40:12.000Z</time>
</trkpt>
<trkpt lat="46.2551460" lon="10.5571740">
	<ele>1734.60</ele>
	<time>2024-03-09T09:40:13.000Z</time>
</trkpt>
<trkpt lat="46.2551410" lon="10.5571430">
	<ele>1734.20</ele>
	<time>2024-03-09T09:40:14.000Z</time>
</trkpt>
<trkpt lat="46.2551390" lon="10.5571180">
	<ele>1734.00</ele>
	<time>2024-03-09T09:40:15.000Z</time>
</trkpt>
<trkpt lat="46.2551360" lon="10.5570920">
	<ele>1734.00</ele>
	<time>2024-03-09T09:40:16.000Z</time>
</trkpt>
<trkpt lat="46.2551340" lon="10.5570660">
	<ele>1733.80</ele>
	<time>2024-03-09T09:40:17.000Z</time>
</trkpt>
<trkpt lat="46.2551320" lon="10.5570410">
	<ele>1733.60</ele>
	<time>2024-03-09T09:40:18.000Z</time>
</trkpt>
<trkpt lat="46.2551320" lon="10.5570200">
	<ele>1733.40</ele>
	<time>2024-03-09T09:40:19.000Z</time>
</trkpt>
<trkpt lat="46.2551270" lon="10.5569910">
	<ele>1733.40</ele>
	<time>2024-03-09T09:40:20.000Z</time>
</trkpt>
<trkpt lat="46.2551210" lon="10.5569760">
	<ele>1733.40</ele>
	<time>2024-03-09T09:40:21.000Z</time>
</trkpt>
<trkpt lat="46.2551110" lon="10.5569550">
	<ele>1733.40</ele>
	<time>2024-03-09T09:40:22.000Z</time>
</trkpt>
<trkpt lat="46.2551020" lon="10.5569340">
	<ele>1733.20</ele>
	<time>2024-03-09T09:40:23.000Z</time>
</trkpt>
<trkpt lat="46.2550910" lon="10.5569130">
	<ele>1733.00</ele>
	<time>2024-03-09T09:40:24.000Z</time>
</trkpt>
<trkpt lat="46.2550770" lon="10.5568910">
	<ele>1733.00</ele>
	<time>2024-03-09T09:40:25.000Z</time>
</trkpt>
<trkpt lat="46.2550670" lon="10.5568730">
	<ele>1732.80</ele>
	<time>2024-03-09T09:40:26.000Z</time>
</trkpt>
<trkpt lat="46.2550560" lon="10.5568530">
	<ele>1732.60</ele>
	<time>2024-03-09T09:40:27.000Z</time>
</trkpt>
<trkpt lat="46.2550440" lon="10.5568350">
	<ele>1732.40</ele>
	<time>2024-03-09T09:40:28.000Z</time>
</trkpt>
<trkpt lat="46.2550330" lon="10.5568180">
	<ele>1732.20</ele>
	<time>2024-03-09T09:40:29.000Z</time>
</trkpt>
<trkpt lat="46.2550200" lon="10.5568030">
	<ele>1732.20</ele>
	<time>2024-03-09T09:40:30.000Z</time>
</trkpt>
<trkpt lat="46.2550130" lon="10.5567890">
	<ele>1732.00</ele>
	<time>2024-03-09T09:40:31.000Z</time>
</trkpt>
<trkpt lat="46.2550040" lon="10.5567700">
	<ele>1731.80</ele>
	<time>2024-03-09T09:40:32.000Z</time>
</trkpt>
<trkpt lat="46.2549940" lon="10.5567540">
	<ele>1731.80</ele>
	<time>2024-03-09T09:40:33.000Z</time>
</trkpt>
<trkpt lat="46.2549850" lon="10.5567390">
	<ele>1731.80</ele>
	<time>2024-03-09T09:40:34.000Z</time>
</trkpt>
<trkpt lat="46.2549730" lon="10.5567180">
	<ele>1731.60</ele>
	<time>2024-03-09T09:40:35.000Z</time>
</trkpt>
<trkpt lat="46.2549600" lon="10.5566960">
	<ele>1731.60</ele>
	<time>2024-03-09T09:40:36.000Z</time>
</trkpt>
<trkpt lat="46.2549510" lon="10.5566670">
	<ele>1731.40</ele>
	<time>2024-03-09T09:40:37.000Z</time>
</trkpt>
<trkpt lat="46.2549460" lon="10.5566480">
	<ele>1731.20</ele>
	<time>2024-03-09T09:40:38.000Z</time>
</trkpt>
<trkpt lat="46.2549420" lon="10.5566380">
	<ele>1731.00</ele>
	<time>2024-03-09T09:40:39.000Z</time>
</trkpt>
<trkpt lat="46.2549380" lon="10.5566280">
	<ele>1731.00</ele>
	<time>2024-03-09T09:40:40.000Z</time>
</trkpt>
<trkpt lat="46.2549370" lon="10.5566240">
	<ele>1731.00</ele>
	<time>2024-03-09T09:40:41.000Z</time>
</trkpt>
<trkpt lat="46.2549360" lon="10.5566230">
	<ele>1730.80</ele>
	<time>2024-03-09T09:40:42.000Z</time>
</trkpt>
<trkpt lat="46.2549360" lon="10.5566250">
	<ele>1730.80</ele>
	<time>2024-03-09T09:40:43.000Z</time>
</trkpt>
<trkpt lat="46.2549360" lon="10.5566240">
	<ele>1730.80</ele>
	<time>2024-03-09T09:40:44.000Z</time>
</trkpt>
<trkpt lat="46.2549360" lon="10.5566230">
	<ele>1730.80</ele>
	<time>2024-03-09T09:40:45.000Z</time>
</trkpt>
<trkpt lat="46.2549360" lon="10.5566220">
	<ele>1730.80</ele>
	<time>2024-03-09T09:40:46.000Z</time>
</trkpt>
<trkpt lat="46.2549390" lon="10.5566210">
	<ele>1730.80</ele>
	<time>2024-03-09T09:40:47.000Z</time>
</trkpt>
<trkpt lat="46.2549430" lon="10.5566200">
	<ele>1730.80</ele>
	<time>2024-03-09T09:40:48.000Z</time>
</trkpt>
<trkpt lat="46.2549440" lon="10.5566180">
	<ele>1730.80</ele>
	<time>2024-03-09T09:40:49.000Z</time>
</trkpt>
<trkpt lat="46.2549440" lon="10.5566170">
	<ele>1730.80</ele>
	<time>2024-03-09T09:40:50.000Z</time>
</trkpt>
<trkpt lat="46.2549440" lon="10.5566160">
	<ele>1730.80</ele>
	<time>2024-03-09T09:40:51.000Z</time>
</trkpt>
<trkpt lat="46.2549440" lon="10.5566160">
	<ele>1730.80</ele>
	<time>2024-03-09T09:40:52.000Z</time>
</trkpt>
<trkpt lat="46.2549440" lon="10.5566160">
	<ele>1730.80</ele>
	<time>2024-03-09T09:40:53.000Z</time>
</trkpt>
<trkpt lat="46.2549440" lon="10.5566160">
	<ele>1730.80</ele>
	<time>2024-03-09T09:40:54.000Z</time>
</trkpt>
<trkpt lat="46.2549440" lon="10.5566160">
	<ele>1730.80</ele>
	<time>2024-03-09T09:40:55.000Z</time>
</trkpt>
<trkpt lat="46.2549440" lon="10.5566160">
	<ele>1730.80</ele>
	<time>2024-03-09T09:40:56.000Z</time>
</trkpt>
<trkpt lat="46.2549440" lon="10.5566160">
	<ele>1730.80</ele>
	<time>2024-03-09T09:40:57.000Z</time>
</trkpt>
<trkpt lat="46.2549440" lon="10.5566160">
	<ele>1731.00</ele>
	<time>2024-03-09T09:40:58.000Z</time>
</trkpt>
<trkpt lat="46.2549440" lon="10.5566160">
	<ele>1730.80</ele>
	<time>2024-03-09T09:40:59.000Z</time>
</trkpt>
<trkpt lat="46.2549440" lon="10.5566160">
	<ele>1730.80</ele>
	<time>2024-03-09T09:41:00.000Z</time>
</trkpt>
<trkpt lat="46.2549440" lon="10.5566160">
	<ele>1730.80</ele>
	<time>2024-03-09T09:41:01.000Z</time>
</trkpt>
<trkpt lat="46.2549420" lon="10.5566100">
	<ele>1730.80</ele>
	<time>2024-03-09T09:41:02.000Z</time>
</trkpt>
<trkpt lat="46.2549270" lon="10.5565880">
	<ele>1730.60</ele>
	<time>2024-03-09T09:41:03.000Z</time>
</trkpt>
<trkpt lat="46.2549090" lon="10.5565640">
	<ele>1730.60</ele>
	<time>2024-03-09T09:41:04.000Z</time>
</trkpt>
<trkpt lat="46.2548950" lon="10.5565410">
	<ele>1730.40</ele>
	<time>2024-03-09T09:41:05.000Z</time>
</trkpt>
<trkpt lat="46.2548800" lon="10.5565140">
	<ele>1730.20</ele>
	<time>2024-03-09T09:41:06.000Z</time>
</trkpt>
<trkpt lat="46.2548670" lon="10.5564820">
	<ele>1730.20</ele>
	<time>2024-03-09T09:41:07.000Z</time>
</trkpt>
<trkpt lat="46.2548530" lon="10.5564450">
	<ele>1730.00</ele>
	<time>2024-03-09T09:41:08.000Z</time>
</trkpt>
<trkpt lat="46.2548400" lon="10.5564110">
	<ele>1729.80</ele>
	<time>2024-03-09T09:41:09.000Z</time>
</trkpt>
<trkpt lat="46.2548270" lon="10.5563780">
	<ele>1729.40</ele>
	<time>2024-03-09T09:41:10.000Z</time>
</trkpt>
<trkpt lat="46.2548140" lon="10.5563460">
	<ele>1729.40</ele>
	<time>2024-03-09T09:41:11.000Z</time>
</trkpt>
<trkpt lat="46.2548060" lon="10.5563180">
	<ele>1729.20</ele>
	<time>2024-03-09T09:41:12.000Z</time>
</trkpt>
<trkpt lat="46.2547970" lon="10.5562910">
	<ele>1729.00</ele>
	<time>2024-03-09T09:41:13.000Z</time>
</trkpt>
<trkpt lat="46.2547880" lon="10.5562710">
	<ele>1729.00</ele>
	<time>2024-03-09T09:41:14.000Z</time>
</trkpt>
<trkpt lat="46.2547770" lon="10.5562480">
	<ele>1728.80</ele>
	<time>2024-03-09T09:41:15.000Z</time>
</trkpt>
<trkpt lat="46.2547660" lon="10.5562260">
	<ele>1728.80</ele>
	<time>2024-03-09T09:41:16.000Z</time>
</trkpt>
<trkpt lat="46.2547560" lon="10.5562010">
	<ele>1728.60</ele>
	<time>2024-03-09T09:41:17.000Z</time>
</trkpt>
<trkpt lat="46.2547460" lon="10.5561750">
	<ele>1728.40</ele>
	<time>2024-03-09T09:41:18.000Z</time>
</trkpt>
<trkpt lat="46.2547370" lon="10.5561490">
	<ele>1728.20</ele>
	<time>2024-03-09T09:41:19.000Z</time>
</trkpt>
<trkpt lat="46.2547270" lon="10.5561250">
	<ele>1728.20</ele>
	<time>2024-03-09T09:41:20.000Z</time>
</trkpt>
<trkpt lat="46.2547160" lon="10.5561010">
	<ele>1728.00</ele>
	<time>2024-03-09T09:41:21.000Z</time>
</trkpt>
<trkpt lat="46.2547090" lon="10.5560730">
	<ele>1728.00</ele>
	<time>2024-03-09T09:41:22.000Z</time>
</trkpt>
<trkpt lat="46.2546990" lon="10.5560480">
	<ele>1728.00</ele>
	<time>2024-03-09T09:41:23.000Z</time>
</trkpt>
<trkpt lat="46.2546870" lon="10.5560270">
	<ele>1727.80</ele>
	<time>2024-03-09T09:41:24.000Z</time>
</trkpt>
<trkpt lat="46.2546760" lon="10.5560040">
	<ele>1727.60</ele>
	<time>2024-03-09T09:41:25.000Z</time>
</trkpt>
<trkpt lat="46.2546720" lon="10.5559850">
	<ele>1727.60</ele>
	<time>2024-03-09T09:41:26.000Z</time>
</trkpt>
<trkpt lat="46.2546700" lon="10.5559710">
	<ele>1727.40</ele>
	<time>2024-03-09T09:41:27.000Z</time>
</trkpt>
<trkpt lat="46.2546730" lon="10.5559460">
	<ele>1727.20</ele>
	<time>2024-03-09T09:41:28.000Z</time>
</trkpt>
<trkpt lat="46.2546730" lon="10.5559260">
	<ele>1727.00</ele>
	<time>2024-03-09T09:41:29.000Z</time>
</trkpt>
<trkpt lat="46.2546750" lon="10.5559040">
	<ele>1727.00</ele>
	<time>2024-03-09T09:41:30.000Z</time>
</trkpt>
<trkpt lat="46.2546760" lon="10.5558770">
	<ele>1726.80</ele>
	<time>2024-03-09T09:41:31.000Z</time>
</trkpt>
<trkpt lat="46.2546730" lon="10.5558530">
	<ele>1726.60</ele>
	<time>2024-03-09T09:41:32.000Z</time>
</trkpt>
<trkpt lat="46.2546700" lon="10.5558270">
	<ele>1726.60</ele>
	<time>2024-03-09T09:41:33.000Z</time>
</trkpt>
<trkpt lat="46.2546640" lon="10.5557980">
	<ele>1726.60</ele>
	<time>2024-03-09T09:41:34.000Z</time>
</trkpt>
<trkpt lat="46.2546570" lon="10.5557680">
	<ele>1726.40</ele>
	<time>2024-03-09T09:41:35.000Z</time>
</trkpt>
<trkpt lat="46.2546490" lon="10.5557360">
	<ele>1726.20</ele>
	<time>2024-03-09T09:41:36.000Z</time>
</trkpt>
<trkpt lat="46.2546410" lon="10.5557060">
	<ele>1726.20</ele>
	<time>2024-03-09T09:41:37.000Z</time>
</trkpt>
<trkpt lat="46.2546340" lon="10.5556740">
	<ele>1726.00</ele>
	<time>2024-03-09T09:41:38.000Z</time>
</trkpt>
<trkpt lat="46.2546270" lon="10.5556440">
	<ele>1725.80</ele>
	<time>2024-03-09T09:41:39.000Z</time>
</trkpt>
<trkpt lat="46.2546200" lon="10.5556100">
	<ele>1725.60</ele>
	<time>2024-03-09T09:41:40.000Z</time>
</trkpt>
<trkpt lat="46.2546130" lon="10.5555760">
	<ele>1725.40</ele>
	<time>2024-03-09T09:41:41.000Z</time>
</trkpt>
<trkpt lat="46.2546120" lon="10.5555430">
	<ele>1725.40</ele>
	<time>2024-03-09T09:41:42.000Z</time>
</trkpt>
<trkpt lat="46.2546140" lon="10.5555100">
	<ele>1725.20</ele>
	<time>2024-03-09T09:41:43.000Z</time>
</trkpt>
<trkpt lat="46.2546120" lon="10.5554780">
	<ele>1725.00</ele>
	<time>2024-03-09T09:41:44.000Z</time>
</trkpt>
<trkpt lat="46.2546080" lon="10.5554530">
	<ele>1725.00</ele>
	<time>2024-03-09T09:41:45.000Z</time>
</trkpt>
<trkpt lat="46.2546000" lon="10.5554240">
	<ele>1724.80</ele>
	<time>2024-03-09T09:41:46.000Z</time>
</trkpt>
<trkpt lat="46.2545940" lon="10.5554000">
	<ele>1724.60</ele>
	<time>2024-03-09T09:41:47.000Z</time>
</trkpt>
<trkpt lat="46.2545840" lon="10.5553720">
	<ele>1724.40</ele>
	<time>2024-03-09T09:41:48.000Z</time>
</trkpt>
<trkpt lat="46.2545720" lon="10.5553500">
	<ele>1724.40</ele>
	<time>2024-03-09T09:41:49.000Z</time>
</trkpt>
<trkpt lat="46.2545570" lon="10.5553270">
	<ele>1724.20</ele>
	<time>2024-03-09T09:41:50.000Z</time>
</trkpt>
<trkpt lat="46.2545390" lon="10.5553030">
	<ele>1724.00</ele>
	<time>2024-03-09T09:41:51.000Z</time>
</trkpt>
<trkpt lat="46.2545210" lon="10.5552760">
	<ele>1723.80</ele>
	<time>2024-03-09T09:41:52.000Z</time>
</trkpt>
<trkpt lat="46.2545050" lon="10.5552480">
	<ele>1723.40</ele>
	<time>2024-03-09T09:41:53.000Z</time>
</trkpt>
<trkpt lat="46.2544940" lon="10.5552180">
	<ele>1723.40</ele>
	<time>2024-03-09T09:41:54.000Z</time>
</trkpt>
<trkpt lat="46.2544880" lon="10.5551960">
	<ele>1723.00</ele>
	<time>2024-03-09T09:41:55.000Z</time>
</trkpt>
<trkpt lat="46.2544800" lon="10.5551610">
	<ele>1723.00</ele>
	<time>2024-03-09T09:41:56.000Z</time>
</trkpt>
<trkpt lat="46.2544690" lon="10.5551350">
	<ele>1722.80</ele>
	<time>2024-03-09T09:41:57.000Z</time>
</trkpt>
<trkpt lat="46.2544610" lon="10.5551100">
	<ele>1722.80</ele>
	<time>2024-03-09T09:41:58.000Z</time>
</trkpt>
<trkpt lat="46.2544500" lon="10.5550860">
	<ele>1722.60</ele>
	<time>2024-03-09T09:41:59.000Z</time>
</trkpt>
<trkpt lat="46.2544390" lon="10.5550630">
	<ele>1722.40</ele>
	<time>2024-03-09T09:42:00.000Z</time>
</trkpt>
<trkpt lat="46.2544270" lon="10.5550350">
	<ele>1722.20</ele>
	<time>2024-03-09T09:42:01.000Z</time>
</trkpt>
<trkpt lat="46.2544150" lon="10.5550070">
	<ele>1722.20</ele>
	<time>2024-03-09T09:42:02.000Z</time>
</trkpt>
<trkpt lat="46.2544020" lon="10.5549790">
	<ele>1722.00</ele>
	<time>2024-03-09T09:42:03.000Z</time>
</trkpt>
<trkpt lat="46.2543880" lon="10.5549490">
	<ele>1722.00</ele>
	<time>2024-03-09T09:42:04.000Z</time>
</trkpt>
<trkpt lat="46.2543790" lon="10.5549190">
	<ele>1721.80</ele>
	<time>2024-03-09T09:42:05.000Z</time>
</trkpt>
<trkpt lat="46.2543710" lon="10.5548880">
	<ele>1721.60</ele>
	<time>2024-03-09T09:42:06.000Z</time>
</trkpt>
<trkpt lat="46.2543620" lon="10.5548560">
	<ele>1721.40</ele>
	<time>2024-03-09T09:42:07.000Z</time>
</trkpt>
<trkpt lat="46.2543520" lon="10.5548220">
	<ele>1721.40</ele>
	<time>2024-03-09T09:42:08.000Z</time>
</trkpt>
<trkpt lat="46.2543410" lon="10.5547830">
	<ele>1721.00</ele>
	<time>2024-03-09T09:42:09.000Z</time>
</trkpt>
<trkpt lat="46.2543290" lon="10.5547430">
	<ele>1720.80</ele>
	<time>2024-03-09T09:42:10.000Z</time>
</trkpt>
<trkpt lat="46.2543130" lon="10.5547040">
	<ele>1720.60</ele>
	<time>2024-03-09T09:42:11.000Z</time>
</trkpt>
<trkpt lat="46.2542950" lon="10.5546660">
	<ele>1720.40</ele>
	<time>2024-03-09T09:42:12.000Z</time>
</trkpt>
<trkpt lat="46.2542760" lon="10.5546260">
	<ele>1720.20</ele>
	<time>2024-03-09T09:42:13.000Z</time>
</trkpt>
<trkpt lat="46.2542550" lon="10.5545840">
	<ele>1720.00</ele>
	<time>2024-03-09T09:42:14.000Z</time>
</trkpt>
<trkpt lat="46.2542370" lon="10.5545400">
	<ele>1719.80</ele>
	<time>2024-03-09T09:42:15.000Z</time>
</trkpt>
<trkpt lat="46.2542220" lon="10.5545050">
	<ele>1719.60</ele>
	<time>2024-03-09T09:42:16.000Z</time>
</trkpt>
<trkpt lat="46.2541990" lon="10.5544540">
	<ele>1719.40</ele>
	<time>2024-03-09T09:42:17.000Z</time>
</trkpt>
<trkpt lat="46.2541780" lon="10.5544140">
	<ele>1719.00</ele>
	<time>2024-03-09T09:42:18.000Z</time>
</trkpt>
<trkpt lat="46.2541550" lon="10.5543760">
	<ele>1718.60</ele>
	<time>2024-03-09T09:42:19.000Z</time>
</trkpt>
<trkpt lat="46.2541290" lon="10.5543400">
	<ele>1718.40</ele>
	<time>2024-03-09T09:42:20.000Z</time>
</trkpt>
<trkpt lat="46.2541090" lon="10.5543120">
	<ele>1718.20</ele>
	<time>2024-03-09T09:42:21.000Z</time>
</trkpt>
<trkpt lat="46.2540780" lon="10.5542720">
	<ele>1718.00</ele>
	<time>2024-03-09T09:42:22.000Z</time>
</trkpt>
<trkpt lat="46.2540540" lon="10.5542370">
	<ele>1717.60</ele>
	<time>2024-03-09T09:42:23.000Z</time>
</trkpt>
<trkpt lat="46.2540290" lon="10.5542040">
	<ele>1717.40</ele>
	<time>2024-03-09T09:42:24.000Z</time>
</trkpt>
<trkpt lat="46.2540070" lon="10.5541710">
	<ele>1717.00</ele>
	<time>2024-03-09T09:42:25.000Z</time>
</trkpt>
<trkpt lat="46.2539880" lon="10.5541370">
	<ele>1716.80</ele>
	<time>2024-03-09T09:42:26.000Z</time>
</trkpt>
<trkpt lat="46.2539740" lon="10.5541010">
	<ele>1716.60</ele>
	<time>2024-03-09T09:42:27.000Z</time>
</trkpt>
<trkpt lat="46.2539620" lon="10.5540630">
	<ele>1716.40</ele>
	<time>2024-03-09T09:42:28.000Z</time>
</trkpt>
<trkpt lat="46.2539490" lon="10.5540260">
	<ele>1716.20</ele>
	<time>2024-03-09T09:42:29.000Z</time>
</trkpt>
<trkpt lat="46.2539320" lon="10.5539900">
	<ele>1715.80</ele>
	<time>2024-03-09T09:42:30.000Z</time>
</trkpt>
<trkpt lat="46.2539150" lon="10.5539520">
	<ele>1715.40</ele>
	<time>2024-03-09T09:42:31.000Z</time>
</trkpt>
<trkpt lat="46.2538960" lon="10.5539180">
	<ele>1715.20</ele>
	<time>2024-03-09T09:42:32.000Z</time>
</trkpt>
<trkpt lat="46.2538750" lon="10.5538880">
	<ele>1714.60</ele>
	<time>2024-03-09T09:42:33.000Z</time>
</trkpt>
<trkpt lat="46.2538570" lon="10.5538590">
	<ele>1714.40</ele>
	<time>2024-03-09T09:42:34.000Z</time>
</trkpt>
<trkpt lat="46.2538400" lon="10.5538330">
	<ele>1714.00</ele>
	<time>2024-03-09T09:42:35.000Z</time>
</trkpt>
<trkpt lat="46.2538250" lon="10.5538110">
	<ele>1714.00</ele>
	<time>2024-03-09T09:42:36.000Z</time>
</trkpt>
<trkpt lat="46.2538070" lon="10.5537860">
	<ele>1713.60</ele>
	<time>2024-03-09T09:42:37.000Z</time>
</trkpt>
<trkpt lat="46.2537880" lon="10.5537600">
	<ele>1713.40</ele>
	<time>2024-03-09T09:42:38.000Z</time>
</trkpt>
<trkpt lat="46.2537710" lon="10.5537390">
	<ele>1713.00</ele>
	<time>2024-03-09T09:42:39.000Z</time>
</trkpt>
<trkpt lat="46.2537530" lon="10.5537210">
	<ele>1712.80</ele>
	<time>2024-03-09T09:42:40.000Z</time>
</trkpt>
<trkpt lat="46.2537360" lon="10.5537090">
	<ele>1712.60</ele>
	<time>2024-03-09T09:42:41.000Z</time>
</trkpt>
<trkpt lat="46.2537200" lon="10.5536950">
	<ele>1712.40</ele>
	<time>2024-03-09T09:42:42.000Z</time>
</trkpt>
<trkpt lat="46.2537060" lon="10.5536780">
	<ele>1712.20</ele>
	<time>2024-03-09T09:42:43.000Z</time>
</trkpt>
<trkpt lat="46.2536900" lon="10.5536610">
	<ele>1712.00</ele>
	<time>2024-03-09T09:42:44.000Z</time>
</trkpt>
<trkpt lat="46.2536750" lon="10.5536440">
	<ele>1711.80</ele>
	<time>2024-03-09T09:42:45.000Z</time>
</trkpt>
<trkpt lat="46.2536630" lon="10.5536230">
	<ele>1711.60</ele>
	<time>2024-03-09T09:42:46.000Z</time>
</trkpt>
<trkpt lat="46.2536510" lon="10.5535960">
	<ele>1711.60</ele>
	<time>2024-03-09T09:42:47.000Z</time>
</trkpt>
<trkpt lat="46.2536380" lon="10.5535680">
	<ele>1711.40</ele>
	<time>2024-03-09T09:42:48.000Z</time>
</trkpt>
<trkpt lat="46.2536240" lon="10.5535400">
	<ele>1711.20</ele>
	<time>2024-03-09T09:42:49.000Z</time>
</trkpt>
<trkpt lat="46.2536120" lon="10.5535100">
	<ele>1711.20</ele>
	<time>2024-03-09T09:42:50.000Z</time>
</trkpt>
<trkpt lat="46.2536020" lon="10.5534820">
	<ele>1711.00</ele>
	<time>2024-03-09T09:42:51.000Z</time>
</trkpt>
<trkpt lat="46.2535900" lon="10.5534550">
	<ele>1710.80</ele>
	<time>2024-03-09T09:42:52.000Z</time>
</trkpt>
<trkpt lat="46.2535760" lon="10.5534300">
	<ele>1710.60</ele>
	<time>2024-03-09T09:42:53.000Z</time>
</trkpt>
<trkpt lat="46.2535620" lon="10.5534110">
	<ele>1710.60</ele>
	<time>2024-03-09T09:42:54.000Z</time>
</trkpt>
<trkpt lat="46.2535440" lon="10.5533840">
	<ele>1710.40</ele>
	<time>2024-03-09T09:42:55.000Z</time>
</trkpt>
<trkpt lat="46.2535270" lon="10.5533590">
	<ele>1710.20</ele>
	<time>2024-03-09T09:42:56.000Z</time>
</trkpt>
<trkpt lat="46.2535150" lon="10.5533310">
	<ele>1710.00</ele>
	<time>2024-03-09T09:42:57.000Z</time>
</trkpt>
<trkpt lat="46.2535030" lon="10.5533000">
	<ele>1709.80</ele>
	<time>2024-03-09T09:42:58.000Z</time>
</trkpt>
<trkpt lat="46.2534930" lon="10.5532710">
	<ele>1709.60</ele>
	<time>2024-03-09T09:42:59.000Z</time>
</trkpt>
<trkpt lat="46.2534800" lon="10.5532460">
	<ele>1709.60</ele>
	<time>2024-03-09T09:43:00.000Z</time>
</trkpt>
<trkpt lat="46.2534670" lon="10.5532250">
	<ele>1709.40</ele>
	<time>2024-03-09T09:43:01.000Z</time>
</trkpt>
<trkpt lat="46.2534550" lon="10.5532040">
	<ele>1709.20</ele>
	<time>2024-03-09T09:43:02.000Z</time>
</trkpt>
<trkpt lat="46.2534440" lon="10.5531820">
	<ele>1709.20</ele>
	<time>2024-03-09T09:43:03.000Z</time>
</trkpt>
<trkpt lat="46.2534400" lon="10.5531560">
	<ele>1709.00</ele>
	<time>2024-03-09T09:43:04.000Z</time>
</trkpt>
<trkpt lat="46.2534410" lon="10.5531310">
	<ele>1708.80</ele>
	<time>2024-03-09T09:43:05.000Z</time>
</trkpt>
<trkpt lat="46.2534430" lon="10.5531070">
	<ele>1708.80</ele>
	<time>2024-03-09T09:43:06.000Z</time>
</trkpt>
<trkpt lat="46.2534440" lon="10.5530870">
	<ele>1708.60</ele>
	<time>2024-03-09T09:43:07.000Z</time>
</trkpt>
<trkpt lat="46.2534450" lon="10.5530680">
	<ele>1708.60</ele>
	<time>2024-03-09T09:43:08.000Z</time>
</trkpt>
<trkpt lat="46.2534450" lon="10.5530440">
	<ele>1708.60</ele>
	<time>2024-03-09T09:43:09.000Z</time>
</trkpt>
<trkpt lat="46.2534430" lon="10.5530180">
	<ele>1708.40</ele>
	<time>2024-03-09T09:43:10.000Z</time>
</trkpt>
<trkpt lat="46.2534350" lon="10.5529890">
	<ele>1708.20</ele>
	<time>2024-03-09T09:43:11.000Z</time>
</trkpt>
<trkpt lat="46.2534170" lon="10.5529590">
	<ele>1707.80</ele>
	<time>2024-03-09T09:43:12.000Z</time>
</trkpt>
<trkpt lat="46.2533960" lon="10.5529410">
	<ele>1707.60</ele>
	<time>2024-03-09T09:43:13.000Z</time>
</trkpt>
<trkpt lat="46.2533700" lon="10.5529230">
	<ele>1707.40</ele>
	<time>2024-03-09T09:43:14.000Z</time>
</trkpt>
<trkpt lat="46.2533440" lon="10.5528970">
	<ele>1707.20</ele>
	<time>2024-03-09T09:43:15.000Z</time>
</trkpt>
<trkpt lat="46.2533320" lon="10.5528590">
	<ele>1706.80</ele>
	<time>2024-03-09T09:43:16.000Z</time>
</trkpt>
<trkpt lat="46.2533280" lon="10.5528160">
	<ele>1706.40</ele>
	<time>2024-03-09T09:43:17.000Z</time>
</trkpt>
<trkpt lat="46.2533240" lon="10.5527730">
	<ele>1706.00</ele>
	<time>2024-03-09T09:43:18.000Z</time>
</trkpt>
<trkpt lat="46.2533150" lon="10.5527320">
	<ele>1705.60</ele>
	<time>2024-03-09T09:43:19.000Z</time>
</trkpt>
<trkpt lat="46.2532990" lon="10.5527010">
	<ele>1705.40</ele>
	<time>2024-03-09T09:43:20.000Z</time>
</trkpt>
<trkpt lat="46.2532810" lon="10.5526820">
	<ele>1705.20</ele>
	<time>2024-03-09T09:43:21.000Z</time>
</trkpt>
<trkpt lat="46.2532660" lon="10.5526650">
	<ele>1705.00</ele>
	<time>2024-03-09T09:43:22.000Z</time>
</trkpt>
<trkpt lat="46.2532490" lon="10.5526370">
	<ele>1704.80</ele>
	<time>2024-03-09T09:43:23.000Z</time>
</trkpt>
<trkpt lat="46.2532410" lon="10.5526040">
	<ele>1704.60</ele>
	<time>2024-03-09T09:43:24.000Z</time>
</trkpt>
<trkpt lat="46.2532380" lon="10.5525720">
	<ele>1704.40</ele>
	<time>2024-03-09T09:43:25.000Z</time>
</trkpt>
<trkpt lat="46.2532380" lon="10.5525440">
	<ele>1704.00</ele>
	<time>2024-03-09T09:43:26.000Z</time>
</trkpt>
<trkpt lat="46.2532380" lon="10.5525100">
	<ele>1703.80</ele>
	<time>2024-03-09T09:43:27.000Z</time>
</trkpt>
<trkpt lat="46.2532340" lon="10.5524760">
	<ele>1703.60</ele>
	<time>2024-03-09T09:43:28.000Z</time>
</trkpt>
<trkpt lat="46.2532260" lon="10.5524430">
	<ele>1703.60</ele>
	<time>2024-03-09T09:43:29.000Z</time>
</trkpt>
<trkpt lat="46.2532200" lon="10.5524090">
	<ele>1703.20</ele>
	<time>2024-03-09T09:43:30.000Z</time>
</trkpt>
<trkpt lat="46.2532130" lon="10.5523720">
	<ele>1703.00</ele>
	<time>2024-03-09T09:43:31.000Z</time>
</trkpt>
<trkpt lat="46.2532090" lon="10.5523360">
	<ele>1702.60</ele>
	<time>2024-03-09T09:43:32.000Z</time>
</trkpt>
<trkpt lat="46.2532060" lon="10.5523000">
	<ele>1702.40</ele>
	<time>2024-03-09T09:43:33.000Z</time>
</trkpt>
<trkpt lat="46.2532060" lon="10.5522610">
	<ele>1702.20</ele>
	<time>2024-03-09T09:43:34.000Z</time>
</trkpt>
<trkpt lat="46.2532040" lon="10.5522210">
	<ele>1702.00</ele>
	<time>2024-03-09T09:43:35.000Z</time>
</trkpt>
<trkpt lat="46.2531990" lon="10.5521790">
	<ele>1701.80</ele>
	<time>2024-03-09T09:43:36.000Z</time>
</trkpt>
<trkpt lat="46.2531930" lon="10.5521360">
	<ele>1701.60</ele>
	<time>2024-03-09T09:43:37.000Z</time>
</trkpt>
<trkpt lat="46.2531870" lon="10.5520940">
	<ele>1701.20</ele>
	<time>2024-03-09T09:43:38.000Z</time>
</trkpt>
<trkpt lat="46.2531770" lon="10.5520570">
	<ele>1700.80</ele>
	<time>2024-03-09T09:43:39.000Z</time>
</trkpt>
<trkpt lat="46.2531650" lon="10.5520250">
	<ele>1700.60</ele>
	<time>2024-03-09T09:43:40.000Z</time>
</trkpt>
<trkpt lat="46.2531510" lon="10.5519900">
	<ele>1700.40</ele>
	<time>2024-03-09T09:43:41.000Z</time>
</trkpt>
<trkpt lat="46.2531370" lon="10.5519570">
	<ele>1700.00</ele>
	<time>2024-03-09T09:43:42.000Z</time>
</trkpt>
<trkpt lat="46.2531230" lon="10.5519230">
	<ele>1699.80</ele>
	<time>2024-03-09T09:43:43.000Z</time>
</trkpt>
<trkpt lat="46.2531060" lon="10.5518890">
	<ele>1699.60</ele>
	<time>2024-03-09T09:43:44.000Z</time>
</trkpt>
<trkpt lat="46.2530890" lon="10.5518540">
	<ele>1699.20</ele>
	<time>2024-03-09T09:43:45.000Z</time>
</trkpt>
<trkpt lat="46.2530720" lon="10.5518180">
	<ele>1699.00</ele>
	<time>2024-03-09T09:43:46.000Z</time>
</trkpt>
<trkpt lat="46.2530550" lon="10.5517690">
	<ele>1698.60</ele>
	<time>2024-03-09T09:43:47.000Z</time>
</trkpt>
<trkpt lat="46.2530440" lon="10.5517230">
	<ele>1698.40</ele>
	<time>2024-03-09T09:43:48.000Z</time>
</trkpt>
<trkpt lat="46.2530320" lon="10.5516730">
	<ele>1697.80</ele>
	<time>2024-03-09T09:43:49.000Z</time>
</trkpt>
<trkpt lat="46.2530250" lon="10.5516310">
	<ele>1697.40</ele>
	<time>2024-03-09T09:43:50.000Z</time>
</trkpt>
<trkpt lat="46.2530150" lon="10.5515790">
	<ele>1697.20</ele>
	<time>2024-03-09T09:43:51.000Z</time>
</trkpt>
<trkpt lat="46.2530080" lon="10.5515300">
	<ele>1696.80</ele>
	<time>2024-03-09T09:43:52.000Z</time>
</trkpt>
<trkpt lat="46.2529970" lon="10.5514720">
	<ele>1696.40</ele>
	<time>2024-03-09T09:43:53.000Z</time>
</trkpt>
<trkpt lat="46.2529900" lon="10.5514360">
	<ele>1696.20</ele>
	<time>2024-03-09T09:43:54.000Z</time>
</trkpt>
<trkpt lat="46.2529830" lon="10.5513920">
	<ele>1696.00</ele>
	<time>2024-03-09T09:43:55.000Z</time>
</trkpt>
<trkpt lat="46.2529700" lon="10.5513410">
	<ele>1695.60</ele>
	<time>2024-03-09T09:43:56.000Z</time>
</trkpt>
<trkpt lat="46.2529650" lon="10.5513050">
	<ele>1695.40</ele>
	<time>2024-03-09T09:43:57.000Z</time>
</trkpt>
<trkpt lat="46.2529580" lon="10.5512620">
	<ele>1695.20</ele>
	<time>2024-03-09T09:43:58.000Z</time>
</trkpt>
<trkpt lat="46.2529540" lon="10.5512170">
	<ele>1695.00</ele>
	<time>2024-03-09T09:43:59.000Z</time>
</trkpt>
<trkpt lat="46.2529540" lon="10.5511710">
	<ele>1695.00</ele>
	<time>2024-03-09T09:44:00.000Z</time>
</trkpt>
<trkpt lat="46.2529570" lon="10.5511270">
	<ele>1694.60</ele>
	<time>2024-03-09T09:44:01.000Z</time>
</trkpt>
<trkpt lat="46.2529600" lon="10.5510810">
	<ele>1694.40</ele>
	<time>2024-03-09T09:44:02.000Z</time>
</trkpt>
<trkpt lat="46.2529620" lon="10.5510360">
	<ele>1694.20</ele>
	<time>2024-03-09T09:44:03.000Z</time>
</trkpt>
<trkpt lat="46.2529560" lon="10.5509910">
	<ele>1694.00</ele>
	<time>2024-03-09T09:44:04.000Z</time>
</trkpt>
<trkpt lat="46.2529470" lon="10.5509370">
	<ele>1693.80</ele>
	<time>2024-03-09T09:44:05.000Z</time>
</trkpt>
<trkpt lat="46.2529380" lon="10.5508880">
	<ele>1693.60</ele>
	<time>2024-03-09T09:44:06.000Z</time>
</trkpt>
<trkpt lat="46.2529340" lon="10.5508480">
	<ele>1693.20</ele>
	<time>2024-03-09T09:44:07.000Z</time>
</trkpt>
<trkpt lat="46.2529370" lon="10.5507950">
	<ele>1693.00</ele>
	<time>2024-03-09T09:44:08.000Z</time>
</trkpt>
<trkpt lat="46.2529420" lon="10.5507390">
	<ele>1692.80</ele>
	<time>2024-03-09T09:44:09.000Z</time>
</trkpt>
<trkpt lat="46.2529420" lon="10.5506740">
	<ele>1692.40</ele>
	<time>2024-03-09T09:44:10.000Z</time>
</trkpt>
<trkpt lat="46.2529380" lon="10.5506330">
	<ele>1692.00</ele>
	<time>2024-03-09T09:44:11.000Z</time>
</trkpt>
<trkpt lat="46.2529310" lon="10.5505860">
	<ele>1691.60</ele>
	<time>2024-03-09T09:44:12.000Z</time>
</trkpt>
<trkpt lat="46.2529220" lon="10.5505410">
	<ele>1691.40</ele>
	<time>2024-03-09T09:44:13.000Z</time>
</trkpt>
<trkpt lat="46.2529140" lon="10.5505010">
	<ele>1691.20</ele>
	<time>2024-03-09T09:44:14.000Z</time>
</trkpt>
<trkpt lat="46.2529120" lon="10.5504580">
	<ele>1691.00</ele>
	<time>2024-03-09T09:44:15.000Z</time>
</trkpt>
<trkpt lat="46.2529100" lon="10.5504330">
	<ele>1690.60</ele>
	<time>2024-03-09T09:44:16.000Z</time>
</trkpt>
<trkpt lat="46.2529090" lon="10.5504010">
	<ele>1690.40</ele>
	<time>2024-03-09T09:44:17.000Z</time>
</trkpt>
<trkpt lat="46.2529090" lon="10.5503660">
	<ele>1690.20</ele>
	<time>2024-03-09T09:44:18.000Z</time>
</trkpt>
<trkpt lat="46.2529120" lon="10.5503400">
	<ele>1690.00</ele>
	<time>2024-03-09T09:44:19.000Z</time>
</trkpt>
<trkpt lat="46.2529160" lon="10.5503170">
	<ele>1689.80</ele>
	<time>2024-03-09T09:44:20.000Z</time>
</trkpt>
<trkpt lat="46.2529220" lon="10.5502990">
	<ele>1689.80</ele>
	<time>2024-03-09T09:44:21.000Z</time>
</trkpt>
<trkpt lat="46.2529290" lon="10.5502710">
	<ele>1689.60</ele>
	<time>2024-03-09T09:44:22.000Z</time>
</trkpt>
<trkpt lat="46.2529340" lon="10.5502520">
	<ele>1689.60</ele>
	<time>2024-03-09T09:44:23.000Z</time>
</trkpt>
<trkpt lat="46.2529390" lon="10.5502250">
	<ele>1689.40</ele>
	<time>2024-03-09T09:44:24.000Z</time>
</trkpt>
<trkpt lat="46.2529460" lon="10.5501960">
	<ele>1689.20</ele>
	<time>2024-03-09T09:44:25.000Z</time>
</trkpt>
<trkpt lat="46.2529540" lon="10.5501650">
	<ele>1689.00</ele>
	<time>2024-03-09T09:44:26.000Z</time>
</trkpt>
<trkpt lat="46.2529640" lon="10.5501280">
	<ele>1688.80</ele>
	<time>2024-03-09T09:44:27.000Z</time>
</trkpt>
<trkpt lat="46.2529720" lon="10.5501050">
	<ele>1688.80</ele>
	<time>2024-03-09T09:44:28.000Z</time>
</trkpt>
<trkpt lat="46.2529810" lon="10.5500730">
	<ele>1688.60</ele>
	<time>2024-03-09T09:44:29.000Z</time>
</trkpt>
<trkpt lat="46.2529910" lon="10.5500410">
	<ele>1688.40</ele>
	<time>2024-03-09T09:44:30.000Z</time>
</trkpt>
<trkpt lat="46.2529990" lon="10.5500020">
	<ele>1688.40</ele>
	<time>2024-03-09T09:44:31.000Z</time>
</trkpt>
<trkpt lat="46.2529990" lon="10.5499680">
	<ele>1688.20</ele>
	<time>2024-03-09T09:44:32.000Z</time>
</trkpt>
<trkpt lat="46.2529960" lon="10.5499350">
	<ele>1688.00</ele>
	<time>2024-03-09T09:44:33.000Z</time>
</trkpt>
<trkpt lat="46.2529860" lon="10.5499030">
	<ele>1687.60</ele>
	<time>2024-03-09T09:44:34.000Z</time>
</trkpt>
<trkpt lat="46.2529730" lon="10.5498710">
	<ele>1687.60</ele>
	<time>2024-03-09T09:44:35.000Z</time>
</trkpt>
<trkpt lat="46.2529610" lon="10.5498420">
	<ele>1687.20</ele>
	<time>2024-03-09T09:44:36.000Z</time>
</trkpt>
<trkpt lat="46.2529510" lon="10.5498140">
	<ele>1687.00</ele>
	<time>2024-03-09T09:44:37.000Z</time>
</trkpt>
<trkpt lat="46.2529440" lon="10.5497860">
	<ele>1686.80</ele>
	<time>2024-03-09T09:44:38.000Z</time>
</trkpt>
<trkpt lat="46.2529440" lon="10.5497600">
	<ele>1686.60</ele>
	<time>2024-03-09T09:44:39.000Z</time>
</trkpt>
<trkpt lat="46.2529470" lon="10.5497400">
	<ele>1686.40</ele>
	<time>2024-03-09T09:44:40.000Z</time>
</trkpt>
<trkpt lat="46.2529560" lon="10.5497280">
	<ele>1686.20</ele>
	<time>2024-03-09T09:44:41.000Z</time>
</trkpt>
<trkpt lat="46.2529680" lon="10.5497180">
	<ele>1686.20</ele>
	<time>2024-03-09T09:44:42.000Z</time>
</trkpt>
<trkpt lat="46.2529800" lon="10.5497070">
	<ele>1686.00</ele>
	<time>2024-03-09T09:44:43.000Z</time>
</trkpt>
<trkpt lat="46.2529920" lon="10.5496920">
	<ele>1686.00</ele>
	<time>2024-03-09T09:44:44.000Z</time>
</trkpt>
<trkpt lat="46.2529980" lon="10.5496620">
	<ele>1685.80</ele>
	<time>2024-03-09T09:44:45.000Z</time>
</trkpt>
<trkpt lat="46.2529940" lon="10.5496410">
	<ele>1685.80</ele>
	<time>2024-03-09T09:44:46.000Z</time>
</trkpt>
<trkpt lat="46.2529830" lon="10.5496120">
	<ele>1685.60</ele>
	<time>2024-03-09T09:44:47.000Z</time>
</trkpt>
<trkpt lat="46.2529730" lon="10.5495940">
	<ele>1685.40</ele>
	<time>2024-03-09T09:44:48.000Z</time>
</trkpt>
<trkpt lat="46.2529630" lon="10.5495830">
	<ele>1685.40</ele>
	<time>2024-03-09T09:44:49.000Z</time>
</trkpt>
<trkpt lat="46.2529500" lon="10.5495720">
	<ele>1685.20</ele>
	<time>2024-03-09T09:44:50.000Z</time>
</trkpt>
<trkpt lat="46.2529420" lon="10.5495580">
	<ele>1685.00</ele>
	<time>2024-03-09T09:44:51.000Z</time>
</trkpt>
<trkpt lat="46.2529360" lon="10.5495400">
	<ele>1685.00</ele>
	<time>2024-03-09T09:44:52.000Z</time>
</trkpt>
<trkpt lat="46.2529370" lon="10.5495200">
	<ele>1684.80</ele>
	<time>2024-03-09T09:44:53.000Z</time>
</trkpt>
<trkpt lat="46.2529440" lon="10.5495050">
	<ele>1684.80</ele>
	<time>2024-03-09T09:44:54.000Z</time>
</trkpt>
<trkpt lat="46.2529520" lon="10.5494990">
	<ele>1684.60</ele>
	<time>2024-03-09T09:44:55.000Z</time>
</trkpt>
<trkpt lat="46.2529540" lon="10.5494980">
	<ele>1684.60</ele>
	<time>2024-03-09T09:44:56.000Z</time>
</trkpt>
<trkpt lat="46.2529550" lon="10.5494980">
	<ele>1684.60</ele>
	<time>2024-03-09T09:44:57.000Z</time>
</trkpt>
<trkpt lat="46.2529550" lon="10.5494970">
	<ele>1684.60</ele>
	<time>2024-03-09T09:44:58.000Z</time>
</trkpt>
<trkpt lat="46.2529550" lon="10.5494980">
	<ele>1684.60</ele>
	<time>2024-03-09T09:44:59.000Z</time>
</trkpt>
<trkpt lat="46.2529560" lon="10.5494980">
	<ele>1684.60</ele>
	<time>2024-03-09T09:45:00.000Z</time>
</trkpt>
<trkpt lat="46.2529570" lon="10.5494980">
	<ele>1684.60</ele>
	<time>2024-03-09T09:45:01.000Z</time>
</trkpt>
<trkpt lat="46.2529590" lon="10.5494980">
	<ele>1684.60</ele>
	<time>2024-03-09T09:45:02.000Z</time>
</trkpt>
<trkpt lat="46.2529600" lon="10.5494960">
	<ele>1684.60</ele>
	<time>2024-03-09T09:45:03.000Z</time>
</trkpt>
<trkpt lat="46.2529660" lon="10.5494920">
	<ele>1684.60</ele>
	<time>2024-03-09T09:45:04.000Z</time>
</trkpt>
<trkpt lat="46.2529710" lon="10.5494870">
	<ele>1684.60</ele>
	<time>2024-03-09T09:45:05.000Z</time>
</trkpt>
<trkpt lat="46.2529740" lon="10.5494740">
	<ele>1684.60</ele>
	<time>2024-03-09T09:45:06.000Z</time>
</trkpt>
<trkpt lat="46.2529760" lon="10.5494530">
	<ele>1684.60</ele>
	<time>2024-03-09T09:45:07.000Z</time>
</trkpt>
<trkpt lat="46.2529750" lon="10.5494250">
	<ele>1684.40</ele>
	<time>2024-03-09T09:45:08.000Z</time>
</trkpt>
<trkpt lat="46.2529720" lon="10.5493930">
	<ele>1684.20</ele>
	<time>2024-03-09T09:45:09.000Z</time>
</trkpt>
<trkpt lat="46.2529690" lon="10.5493630">
	<ele>1684.20</ele>
	<time>2024-03-09T09:45:10.000Z</time>
</trkpt>
<trkpt lat="46.2529650" lon="10.5493310">
	<ele>1684.00</ele>
	<time>2024-03-09T09:45:11.000Z</time>
</trkpt>
<trkpt lat="46.2529610" lon="10.5492940">
	<ele>1684.00</ele>
	<time>2024-03-09T09:45:12.000Z</time>
</trkpt>
<trkpt lat="46.2529570" lon="10.5492540">
	<ele>1683.80</ele>
	<time>2024-03-09T09:45:13.000Z</time>
</trkpt>
<trkpt lat="46.2529550" lon="10.5492150">
	<ele>1683.40</ele>
	<time>2024-03-09T09:45:14.000Z</time>
</trkpt>
<trkpt lat="46.2529520" lon="10.5491770">
	<ele>1683.20</ele>
	<time>2024-03-09T09:45:15.000Z</time>
</trkpt>
<trkpt lat="46.2529510" lon="10.5491410">
	<ele>1683.00</ele>
	<time>2024-03-09T09:45:16.000Z</time>
</trkpt>
<trkpt lat="46.2529510" lon="10.5491050">
	<ele>1682.80</ele>
	<time>2024-03-09T09:45:17.000Z</time>
</trkpt>
<trkpt lat="46.2529510" lon="10.5490690">
	<ele>1682.80</ele>
	<time>2024-03-09T09:45:18.000Z</time>
</trkpt>
<trkpt lat="46.2529510" lon="10.5490350">
	<ele>1682.60</ele>
	<time>2024-03-09T09:45:19.000Z</time>
</trkpt>
<trkpt lat="46.2529530" lon="10.5490000">
	<ele>1682.60</ele>
	<time>2024-03-09T09:45:20.000Z</time>
</trkpt>
<trkpt lat="46.2529530" lon="10.5489670">
	<ele>1682.60</ele>
	<time>2024-03-09T09:45:21.000Z</time>
</trkpt>
<trkpt lat="46.2529540" lon="10.5489350">
	<ele>1682.40</ele>
	<time>2024-03-09T09:45:22.000Z</time>
</trkpt>
<trkpt lat="46.2529540" lon="10.5489020">
	<ele>1682.20</ele>
	<time>2024-03-09T09:45:23.000Z</time>
</trkpt>
<trkpt lat="46.2529530" lon="10.5488690">
	<ele>1681.80</ele>
	<time>2024-03-09T09:45:24.000Z</time>
</trkpt>
<trkpt lat="46.2529530" lon="10.5488350">
	<ele>1681.60</ele>
	<time>2024-03-09T09:45:25.000Z</time>
</trkpt>
<trkpt lat="46.2529540" lon="10.5488010">
	<ele>1681.40</ele>
	<time>2024-03-09T09:45:26.000Z</time>
</trkpt>
<trkpt lat="46.2529550" lon="10.5487670">
	<ele>1681.20</ele>
	<time>2024-03-09T09:45:27.000Z</time>
</trkpt>
<trkpt lat="46.2529570" lon="10.5487310">
	<ele>1681.20</ele>
	<time>2024-03-09T09:45:28.000Z</time>
</trkpt>
<trkpt lat="46.2529560" lon="10.5486920">
	<ele>1681.00</ele>
	<time>2024-03-09T09:45:29.000Z</time>
</trkpt>
<trkpt lat="46.2529520" lon="10.5486510">
	<ele>1680.80</ele>
	<time>2024-03-09T09:45:30.000Z</time>
</trkpt>
<trkpt lat="46.2529460" lon="10.5486070">
	<ele>1680.40</ele>
	<time>2024-03-09T09:45:31.000Z</time>
</trkpt>
<trkpt lat="46.2529360" lon="10.5485680">
	<ele>1680.20</ele>
	<time>2024-03-09T09:45:32.000Z</time>
</trkpt>
<trkpt lat="46.2529250" lon="10.5485210">
	<ele>1679.80</ele>
	<time>2024-03-09T09:45:33.000Z</time>
</trkpt>
<trkpt lat="46.2529210" lon="10.5484750">
	<ele>1679.60</ele>
	<time>2024-03-09T09:45:34.000Z</time>
</trkpt>
<trkpt lat="46.2529140" lon="10.5484250">
	<ele>1679.20</ele>
	<time>2024-03-09T09:45:35.000Z</time>
</trkpt>
<trkpt lat="46.2528960" lon="10.5483820">
	<ele>1678.60</ele>
	<time>2024-03-09T09:45:36.000Z</time>
</trkpt>
<trkpt lat="46.2528750" lon="10.5483470">
	<ele>1678.00</ele>
	<time>2024-03-09T09:45:37.000Z</time>
</trkpt>
<trkpt lat="46.2528630" lon="10.5483110">
	<ele>1677.60</ele>
	<time>2024-03-09T09:45:38.000Z</time>
</trkpt>
<trkpt lat="46.2528600" lon="10.5482750">
	<ele>1677.20</ele>
	<time>2024-03-09T09:45:39.000Z</time>
</trkpt>
<trkpt lat="46.2528500" lon="10.5482210">
	<ele>1677.00</ele>
	<time>2024-03-09T09:45:40.000Z</time>
</trkpt>
<trkpt lat="46.2528380" lon="10.5481790">
	<ele>1676.60</ele>
	<time>2024-03-09T09:45:41.000Z</time>
</trkpt>
<trkpt lat="46.2528320" lon="10.5481480">
	<ele>1676.20</ele>
	<time>2024-03-09T09:45:42.000Z</time>
</trkpt>
<trkpt lat="46.2528250" lon="10.5481020">
	<ele>1675.60</ele>
	<time>2024-03-09T09:45:43.000Z</time>
</trkpt>
<trkpt lat="46.2528110" lon="10.5480530">
	<ele>1675.20</ele>
	<time>2024-03-09T09:45:44.000Z</time>
</trkpt>
<trkpt lat="46.2527900" lon="10.5480120">
	<ele>1674.80</ele>
	<time>2024-03-09T09:45:45.000Z</time>
</trkpt>
<trkpt lat="46.2527620" lon="10.5479690">
	<ele>1674.40</ele>
	<time>2024-03-09T09:45:46.000Z</time>
</trkpt>
<trkpt lat="46.2527470" lon="10.5479370">
	<ele>1673.80</ele>
	<time>2024-03-09T09:45:47.000Z</time>
</trkpt>
<trkpt lat="46.2527400" lon="10.5478880">
	<ele>1673.40</ele>
	<time>2024-03-09T09:45:48.000Z</time>
</trkpt>
<trkpt lat="46.2527350" lon="10.5478320">
	<ele>1673.20</ele>
	<time>2024-03-09T09:45:49.000Z</time>
</trkpt>
<trkpt lat="46.2527200" lon="10.5477820">
	<ele>1672.60</ele>
	<time>2024-03-09T09:45:50.000Z</time>
</trkpt>
<trkpt lat="46.2526940" lon="10.5477380">
	<ele>1671.80</ele>
	<time>2024-03-09T09:45:51.000Z</time>
</trkpt>
<trkpt lat="46.2526680" lon="10.5476810">
	<ele>1671.40</ele>
	<time>2024-03-09T09:45:52.000Z</time>
</trkpt>
<trkpt lat="46.2526660" lon="10.5476280">
	<ele>1671.00</ele>
	<time>2024-03-09T09:45:53.000Z</time>
</trkpt>
<trkpt lat="46.2526620" lon="10.5475720">
	<ele>1670.60</ele>
	<time>2024-03-09T09:45:54.000Z</time>
</trkpt>
<trkpt lat="46.2526490" lon="10.5475370">
	<ele>1670.00</ele>
	<time>2024-03-09T09:45:55.000Z</time>
</trkpt>
<trkpt lat="46.2526200" lon="10.5474970">
	<ele>1669.60</ele>
	<time>2024-03-09T09:45:56.000Z</time>
</trkpt>
<trkpt lat="46.2525980" lon="10.5474660">
	<ele>1669.20</ele>
	<time>2024-03-09T09:45:57.000Z</time>
</trkpt>
<trkpt lat="46.2525870" lon="10.5474280">
	<ele>1669.00</ele>
	<time>2024-03-09T09:45:58.000Z</time>
</trkpt>
<trkpt lat="46.2525760" lon="10.5473880">
	<ele>1668.40</ele>
	<time>2024-03-09T09:45:59.000Z</time>
</trkpt>
<trkpt lat="46.2525620" lon="10.5473540">
	<ele>1668.20</ele>
	<time>2024-03-09T09:46:00.000Z</time>
</trkpt>
<trkpt lat="46.2525530" lon="10.5473210">
	<ele>1667.80</ele>
	<time>2024-03-09T09:46:01.000Z</time>
</trkpt>
<trkpt lat="46.2525470" lon="10.5472820">
	<ele>1667.60</ele>
	<time>2024-03-09T09:46:02.000Z</time>
</trkpt>
<trkpt lat="46.2525430" lon="10.5472470">
	<ele>1667.20</ele>
	<time>2024-03-09T09:46:03.000Z</time>
</trkpt>
<trkpt lat="46.2525350" lon="10.5471930">
	<ele>1667.20</ele>
	<time>2024-03-09T09:46:04.000Z</time>
</trkpt>
<trkpt lat="46.2525190" lon="10.5471510">
	<ele>1666.80</ele>
	<time>2024-03-09T09:46:05.000Z</time>
</trkpt>
<trkpt lat="46.2525120" lon="10.5471050">
	<ele>1666.40</ele>
	<time>2024-03-09T09:46:06.000Z</time>
</trkpt>
<trkpt lat="46.2525070" lon="10.5470570">
	<ele>1666.20</ele>
	<time>2024-03-09T09:46:07.000Z</time>
</trkpt>
<trkpt lat="46.2524960" lon="10.5470160">
	<ele>1666.00</ele>
	<time>2024-03-09T09:46:08.000Z</time>
</trkpt>
<trkpt lat="46.2524830" lon="10.5469750">
	<ele>1665.60</ele>
	<time>2024-03-09T09:46:09.000Z</time>
</trkpt>
<trkpt lat="46.2524710" lon="10.5469310">
	<ele>1665.20</ele>
	<time>2024-03-09T09:46:10.000Z</time>
</trkpt>
<trkpt lat="46.2524640" lon="10.5468820">
	<ele>1665.00</ele>
	<time>2024-03-09T09:46:11.000Z</time>
</trkpt>
<trkpt lat="46.2524520" lon="10.5468340">
	<ele>1664.80</ele>
	<time>2024-03-09T09:46:12.000Z</time>
</trkpt>
<trkpt lat="46.2524300" lon="10.5467920">
	<ele>1664.20</ele>
	<time>2024-03-09T09:46:13.000Z</time>
</trkpt>
<trkpt lat="46.2524110" lon="10.5467480">
	<ele>1664.00</ele>
	<time>2024-03-09T09:46:14.000Z</time>
</trkpt>
<trkpt lat="46.2524020" lon="10.5466980">
	<ele>1663.40</ele>
	<time>2024-03-09T09:46:15.000Z</time>
</trkpt>
<trkpt lat="46.2523940" lon="10.5466570">
	<ele>1663.20</ele>
	<time>2024-03-09T09:46:16.000Z</time>
</trkpt>
<trkpt lat="46.2523760" lon="10.5466130">
	<ele>1662.60</ele>
	<time>2024-03-09T09:46:17.000Z</time>
</trkpt>
<trkpt lat="46.2523560" lon="10.5465630">
	<ele>1662.20</ele>
	<time>2024-03-09T09:46:18.000Z</time>
</trkpt>
<trkpt lat="46.2523420" lon="10.5465230">
	<ele>1661.80</ele>
	<time>2024-03-09T09:46:19.000Z</time>
</trkpt>
<trkpt lat="46.2523260" lon="10.5464890">
	<ele>1661.60</ele>
	<time>2024-03-09T09:46:20.000Z</time>
</trkpt>
<trkpt lat="46.2523070" lon="10.5464590">
	<ele>1661.20</ele>
	<time>2024-03-09T09:46:21.000Z</time>
</trkpt>
<trkpt lat="46.2522910" lon="10.5464220">
	<ele>1660.80</ele>
	<time>2024-03-09T09:46:22.000Z</time>
</trkpt>
<trkpt lat="46.2522790" lon="10.5463840">
	<ele>1660.40</ele>
	<time>2024-03-09T09:46:23.000Z</time>
</trkpt>
<trkpt lat="46.2522690" lon="10.5463450">
	<ele>1660.00</ele>
	<time>2024-03-09T09:46:24.000Z</time>
</trkpt>
<trkpt lat="46.2522590" lon="10.5463120">
	<ele>1659.80</ele>
	<time>2024-03-09T09:46:25.000Z</time>
</trkpt>
<trkpt lat="46.2522470" lon="10.5462810">
	<ele>1659.60</ele>
	<time>2024-03-09T09:46:26.000Z</time>
</trkpt>
<trkpt lat="46.2522320" lon="10.5462520">
	<ele>1659.40</ele>
	<time>2024-03-09T09:46:27.000Z</time>
</trkpt>
<trkpt lat="46.2522150" lon="10.5462240">
	<ele>1659.20</ele>
	<time>2024-03-09T09:46:28.000Z</time>
</trkpt>
<trkpt lat="46.2521980" lon="10.5461940">
	<ele>1659.00</ele>
	<time>2024-03-09T09:46:29.000Z</time>
</trkpt>
<trkpt lat="46.2521850" lon="10.5461690">
	<ele>1658.60</ele>
	<time>2024-03-09T09:46:30.000Z</time>
</trkpt>
<trkpt lat="46.2521660" lon="10.5461300">
	<ele>1658.40</ele>
	<time>2024-03-09T09:46:31.000Z</time>
</trkpt>
<trkpt lat="46.2521530" lon="10.5460980">
	<ele>1658.20</ele>
	<time>2024-03-09T09:46:32.000Z</time>
</trkpt>
<trkpt lat="46.2521390" lon="10.5460670">
	<ele>1658.00</ele>
	<time>2024-03-09T09:46:33.000Z</time>
</trkpt>
<trkpt lat="46.2521240" lon="10.5460370">
	<ele>1658.00</ele>
	<time>2024-03-09T09:46:34.000Z</time>
</trkpt>
<trkpt lat="46.2521080" lon="10.5460040">
	<ele>1657.80</ele>
	<time>2024-03-09T09:46:35.000Z</time>
</trkpt>
<trkpt lat="46.2520930" lon="10.5459720">
	<ele>1657.60</ele>
	<time>2024-03-09T09:46:36.000Z</time>
</trkpt>
<trkpt lat="46.2520790" lon="10.5459410">
	<ele>1657.40</ele>
	<time>2024-03-09T09:46:37.000Z</time>
</trkpt>
<trkpt lat="46.2520640" lon="10.5459150">
	<ele>1657.20</ele>
	<time>2024-03-09T09:46:38.000Z</time>
</trkpt>
<trkpt lat="46.2520470" lon="10.5458900">
	<ele>1657.00</ele>
	<time>2024-03-09T09:46:39.000Z</time>
</trkpt>
<trkpt lat="46.2520360" lon="10.5458680">
	<ele>1657.00</ele>
	<time>2024-03-09T09:46:40.000Z</time>
</trkpt>
<trkpt lat="46.2520140" lon="10.5458360">
	<ele>1656.80</ele>
	<time>2024-03-09T09:46:41.000Z</time>
</trkpt>
<trkpt lat="46.2519990" lon="10.5458020">
	<ele>1656.80</ele>
	<time>2024-03-09T09:46:42.000Z</time>
</trkpt>
<trkpt lat="46.2519820" lon="10.5457660">
	<ele>1656.80</ele>
	<time>2024-03-09T09:46:43.000Z</time>
</trkpt>
<trkpt lat="46.2519670" lon="10.5457310">
	<ele>1656.60</ele>
	<time>2024-03-09T09:46:44.000Z</time>
</trkpt>
<trkpt lat="46.2519550" lon="10.5457000">
	<ele>1656.40</ele>
	<time>2024-03-09T09:46:45.000Z</time>
</trkpt>
<trkpt lat="46.2519440" lon="10.5456720">
	<ele>1656.40</ele>
	<time>2024-03-09T09:46:46.000Z</time>
</trkpt>
<trkpt lat="46.2519300" lon="10.5456460">
	<ele>1656.20</ele>
	<time>2024-03-09T09:46:47.000Z</time>
</trkpt>
<trkpt lat="46.2519190" lon="10.5456210">
	<ele>1656.40</ele>
	<time>2024-03-09T09:46:48.000Z</time>
</trkpt>
<trkpt lat="46.2519130" lon="10.5455930">
	<ele>1656.20</ele>
	<time>2024-03-09T09:46:49.000Z</time>
</trkpt>
<trkpt lat="46.2519100" lon="10.5455620">
	<ele>1656.20</ele>
	<time>2024-03-09T09:46:50.000Z</time>
</trkpt>
<trkpt lat="46.2519060" lon="10.5455300">
	<ele>1656.20</ele>
	<time>2024-03-09T09:46:51.000Z</time>
</trkpt>
<trkpt lat="46.2519010" lon="10.5454930">
	<ele>1655.80</ele>
	<time>2024-03-09T09:46:52.000Z</time>
</trkpt>
<trkpt lat="46.2518970" lon="10.5454630">
	<ele>1655.60</ele>
	<time>2024-03-09T09:46:53.000Z</time>
</trkpt>
<trkpt lat="46.2518910" lon="10.5454220">
	<ele>1655.40</ele>
	<time>2024-03-09T09:46:54.000Z</time>
</trkpt>
<trkpt lat="46.2518910" lon="10.5453910">
	<ele>1655.20</ele>
	<time>2024-03-09T09:46:55.000Z</time>
</trkpt>
<trkpt lat="46.2519000" lon="10.5453660">
	<ele>1655.20</ele>
	<time>2024-03-09T09:46:56.000Z</time>
</trkpt>
<trkpt lat="46.2519110" lon="10.5453190">
	<ele>1655.00</ele>
	<time>2024-03-09T09:46:57.000Z</time>
</trkpt>
<trkpt lat="46.2519200" lon="10.5452760">
	<ele>1654.60</ele>
	<time>2024-03-09T09:46:58.000Z</time>
</trkpt>
<trkpt lat="46.2519280" lon="10.5452390">
	<ele>1654.40</ele>
	<time>2024-03-09T09:46:59.000Z</time>
</trkpt>
<trkpt lat="46.2519390" lon="10.5451830">
	<ele>1654.00</ele>
	<time>2024-03-09T09:47:00.000Z</time>
</trkpt>
<trkpt lat="46.2519480" lon="10.5451380">
	<ele>1653.40</ele>
	<time>2024-03-09T09:47:01.000Z</time>
</trkpt>
<trkpt lat="46.2519570" lon="10.5450930">
	<ele>1652.60</ele>
	<time>2024-03-09T09:47:02.000Z</time>
</trkpt>
<trkpt lat="46.2519620" lon="10.5450540">
	<ele>1652.20</ele>
	<time>2024-03-09T09:47:03.000Z</time>
</trkpt>
<trkpt lat="46.2519680" lon="10.5450060">
	<ele>1651.60</ele>
	<time>2024-03-09T09:47:04.000Z</time>
</trkpt>
<trkpt lat="46.2519710" lon="10.5449570">
	<ele>1651.20</ele>
	<time>2024-03-09T09:47:05.000Z</time>
</trkpt>
<trkpt lat="46.2519710" lon="10.5449120">
	<ele>1650.60</ele>
	<time>2024-03-09T09:47:06.000Z</time>
</trkpt>
<trkpt lat="46.2519700" lon="10.5448700">
	<ele>1650.20</ele>
	<time>2024-03-09T09:47:07.000Z</time>
</trkpt>
<trkpt lat="46.2519690" lon="10.5448330">
	<ele>1649.80</ele>
	<time>2024-03-09T09:47:08.000Z</time>
</trkpt>
<trkpt lat="46.2519640" lon="10.5447980">
	<ele>1649.60</ele>
	<time>2024-03-09T09:47:09.000Z</time>
</trkpt>
<trkpt lat="46.2519570" lon="10.5447650">
	<ele>1649.40</ele>
	<time>2024-03-09T09:47:10.000Z</time>
</trkpt>
<trkpt lat="46.2519530" lon="10.5447310">
	<ele>1649.20</ele>
	<time>2024-03-09T09:47:11.000Z</time>
</trkpt>
<trkpt lat="46.2519490" lon="10.5446990">
	<ele>1649.00</ele>
	<time>2024-03-09T09:47:12.000Z</time>
</trkpt>
<trkpt lat="46.2519470" lon="10.5446690">
	<ele>1648.80</ele>
	<time>2024-03-09T09:47:13.000Z</time>
</trkpt>
<trkpt lat="46.2519400" lon="10.5446420">
	<ele>1648.80</ele>
	<time>2024-03-09T09:47:14.000Z</time>
</trkpt>
<trkpt lat="46.2519340" lon="10.5446180">
	<ele>1648.80</ele>
	<time>2024-03-09T09:47:15.000Z</time>
</trkpt>
<trkpt lat="46.2519320" lon="10.5445940">
	<ele>1648.80</ele>
	<time>2024-03-09T09:47:16.000Z</time>
</trkpt>
<trkpt lat="46.2519300" lon="10.5445770">
	<ele>1648.80</ele>
	<time>2024-03-09T09:47:17.000Z</time>
</trkpt>
<trkpt lat="46.2519290" lon="10.5445630">
	<ele>1648.80</ele>
	<time>2024-03-09T09:47:18.000Z</time>
</trkpt>
<trkpt lat="46.2519290" lon="10.5445490">
	<ele>1648.60</ele>
	<time>2024-03-09T09:47:19.000Z</time>
</trkpt>
<trkpt lat="46.2519310" lon="10.5445390">
	<ele>1648.60</ele>
	<time>2024-03-09T09:47:20.000Z</time>
</trkpt>
<trkpt lat="46.2519310" lon="10.5445270">
	<ele>1648.80</ele>
	<time>2024-03-09T09:47:21.000Z</time>
</trkpt>
<trkpt lat="46.2519290" lon="10.5445210">
	<ele>1648.60</ele>
	<time>2024-03-09T09:47:22.000Z</time>
</trkpt>
<trkpt lat="46.2519270" lon="10.5445150">
	<ele>1648.60</ele>
	<time>2024-03-09T09:47:23.000Z</time>
</trkpt>
<trkpt lat="46.2519270" lon="10.5445120">
	<ele>1648.60</ele>
	<time>2024-03-09T09:47:24.000Z</time>
</trkpt>
<trkpt lat="46.2519270" lon="10.5445130">
	<ele>1648.80</ele>
	<time>2024-03-09T09:47:25.000Z</time>
</trkpt>
<trkpt lat="46.2519230" lon="10.5445140">
	<ele>1648.80</ele>
	<time>2024-03-09T09:47:26.000Z</time>
</trkpt>
<trkpt lat="46.2519240" lon="10.5445140">
	<ele>1648.80</ele>
	<time>2024-03-09T09:47:27.000Z</time>
</trkpt>
<trkpt lat="46.2519230" lon="10.5445130">
	<ele>1648.80</ele>
	<time>2024-03-09T09:47:28.000Z</time>
</trkpt>
<trkpt lat="46.2519230" lon="10.5445150">
	<ele>1648.80</ele>
	<time>2024-03-09T09:47:29.000Z</time>
</trkpt>
<trkpt lat="46.2519220" lon="10.5445160">
	<ele>1649.00</ele>
	<time>2024-03-09T09:47:30.000Z</time>
</trkpt>
<trkpt lat="46.2519210" lon="10.5445180">
	<ele>1649.00</ele>
	<time>2024-03-09T09:47:31.000Z</time>
</trkpt>
<trkpt lat="46.2519210" lon="10.5445180">
	<ele>1649.00</ele>
	<time>2024-03-09T09:47:32.000Z</time>
</trkpt>
<trkpt lat="46.2519210" lon="10.5445170">
	<ele>1649.00</ele>
	<time>2024-03-09T09:47:33.000Z</time>
</trkpt>
<trkpt lat="46.2519210" lon="10.5445170">
	<ele>1649.00</ele>
	<time>2024-03-09T09:47:34.000Z</time>
</trkpt>
<trkpt lat="46.2519210" lon="10.5445170">
	<ele>1649.00</ele>
	<time>2024-03-09T09:47:35.000Z</time>
</trkpt>
<trkpt lat="46.2519210" lon="10.5445170">
	<ele>1649.00</ele>
	<time>2024-03-09T09:47:36.000Z</time>
</trkpt>
<trkpt lat="46.2519210" lon="10.5445170">
	<ele>1649.00</ele>
	<time>2024-03-09T09:47:37.000Z</time>
</trkpt>
<trkpt lat="46.2519210" lon="10.5445170">
	<ele>1649.00</ele>
	<time>2024-03-09T09:47:38.000Z</time>
</trkpt>
<trkpt lat="46.2519210" lon="10.5445170">
	<ele>1649.00</ele>
	<time>2024-03-09T09:47:39.000Z</time>
</trkpt>
<trkpt lat="46.2519210" lon="10.5445170">
	<ele>1649.00</ele>
	<time>2024-03-09T09:47:40.000Z</time>
</trkpt>
<trkpt lat="46.2519210" lon="10.5445170">
	<ele>1649.00</ele>
	<time>2024-03-09T09:47:41.000Z</time>
</trkpt>
<trkpt lat="46.2519200" lon="10.5445100">
	<ele>1648.80</ele>
	<time>2024-03-09T09:47:42.000Z</time>
</trkpt>
<trkpt lat="46.2519150" lon="10.5444920">
	<ele>1648.80</ele>
	<time>2024-03-09T09:47:43.000Z</time>
</trkpt>
<trkpt lat="46.2519110" lon="10.5444690">
	<ele>1648.80</ele>
	<time>2024-03-09T09:47:44.000Z</time>
</trkpt>
<trkpt lat="46.2519080" lon="10.5444520">
	<ele>1648.80</ele>
	<time>2024-03-09T09:47:45.000Z</time>
</trkpt>
<trkpt lat="46.2519060" lon="10.5444250">
	<ele>1648.80</ele>
	<time>2024-03-09T09:47:46.000Z</time>
</trkpt>
<trkpt lat="46.2519060" lon="10.5444060">
	<ele>1648.80</ele>
	<time>2024-03-09T09:47:47.000Z</time>
</trkpt>
<trkpt lat="46.2519070" lon="10.5443850">
	<ele>1648.80</ele>
	<time>2024-03-09T09:47:48.000Z</time>
</trkpt>
<trkpt lat="46.2519070" lon="10.5443660">
	<ele>1648.80</ele>
	<time>2024-03-09T09:47:49.000Z</time>
</trkpt>
<trkpt lat="46.2519100" lon="10.5443480">
	<ele>1648.80</ele>
	<time>2024-03-09T09:47:50.000Z</time>
</trkpt>
<trkpt lat="46.2519110" lon="10.5443290">
	<ele>1648.80</ele>
	<time>2024-03-09T09:47:51.000Z</time>
</trkpt>
<trkpt lat="46.2519110" lon="10.5443240">
	<ele>1648.80</ele>
	<time>2024-03-09T09:47:52.000Z</time>
</trkpt>
<trkpt lat="46.2519120" lon="10.5443190">
	<ele>1648.60</ele>
	<time>2024-03-09T09:47:53.000Z</time>
</trkpt>
<trkpt lat="46.2519130" lon="10.5443180">
	<ele>1648.60</ele>
	<time>2024-03-09T09:47:54.000Z</time>
</trkpt>
<trkpt lat="46.2519130" lon="10.5443180">
	<ele>1648.60</ele>
	<time>2024-03-09T09:47:55.000Z</time>
</trkpt>
<trkpt lat="46.2519130" lon="10.5443180">
	<ele>1648.60</ele>
	<time>2024-03-09T09:47:56.000Z</time>
</trkpt>
<trkpt lat="46.2519140" lon="10.5443180">
	<ele>1648.60</ele>
	<time>2024-03-09T09:47:57.000Z</time>
</trkpt>
<trkpt lat="46.2519150" lon="10.5443160">
	<ele>1648.60</ele>
	<time>2024-03-09T09:47:58.000Z</time>
</trkpt>
<trkpt lat="46.2519170" lon="10.5443170">
	<ele>1648.60</ele>
	<time>2024-03-09T09:47:59.000Z</time>
</trkpt>
<trkpt lat="46.2519180" lon="10.5443170">
	<ele>1648.80</ele>
	<time>2024-03-09T09:48:00.000Z</time>
</trkpt>
<trkpt lat="46.2519180" lon="10.5443170">
	<ele>1648.80</ele>
	<time>2024-03-09T09:48:01.000Z</time>
</trkpt>
<trkpt lat="46.2519180" lon="10.5443170">
	<ele>1648.80</ele>
	<time>2024-03-09T09:48:02.000Z</time>
</trkpt>
<trkpt lat="46.2519180" lon="10.5443170">
	<ele>1648.80</ele>
	<time>2024-03-09T09:48:03.000Z</time>
</trkpt>
<trkpt lat="46.2519180" lon="10.5443170">
	<ele>1648.80</ele>
	<time>2024-03-09T09:48:04.000Z</time>
</trkpt>
<trkpt lat="46.2519180" lon="10.5443170">
	<ele>1649.00</ele>
	<time>2024-03-09T09:48:05.000Z</time>
</trkpt>
<trkpt lat="46.2519180" lon="10.5443170">
	<ele>1648.80</ele>
	<time>2024-03-09T09:48:06.000Z</time>
</trkpt>
<trkpt lat="46.2519180" lon="10.5443170">
	<ele>1648.80</ele>
	<time>2024-03-09T09:48:07.000Z</time>
</trkpt>
<trkpt lat="46.2519180" lon="10.5443170">
	<ele>1648.80</ele>
	<time>2024-03-09T09:48:08.000Z</time>
</trkpt>
<trkpt lat="46.2519180" lon="10.5443170">
	<ele>1648.80</ele>
	<time>2024-03-09T09:48:09.000Z</time>
</trkpt>
<trkpt lat="46.2519180" lon="10.5443170">
	<ele>1648.80</ele>
	<time>2024-03-09T09:48:10.000Z</time>
</trkpt>
<trkpt lat="46.2519180" lon="10.5443170">
	<ele>1648.80</ele>
	<time>2024-03-09T09:48:11.000Z</time>
</trkpt>
<trkpt lat="46.2519180" lon="10.5443170">
	<ele>1648.80</ele>
	<time>2024-03-09T09:48:12.000Z</time>
</trkpt>
<trkpt lat="46.2519180" lon="10.5443170">
	<ele>1648.80</ele>
	<time>2024-03-09T09:48:13.000Z</time>
</trkpt>
<trkpt lat="46.2519180" lon="10.5443170">
	<ele>1648.80</ele>
	<time>2024-03-09T09:48:14.000Z</time>
</trkpt>
<trkpt lat="46.2519170" lon="10.5443170">
	<ele>1648.80</ele>
	<time>2024-03-09T09:48:15.000Z</time>
</trkpt>
<trkpt lat="46.2519150" lon="10.5443170">
	<ele>1648.80</ele>
	<time>2024-03-09T09:48:16.000Z</time>
</trkpt>
<trkpt lat="46.2519140" lon="10.5443180">
	<ele>1648.80</ele>
	<time>2024-03-09T09:48:17.000Z</time>
</trkpt>
<trkpt lat="46.2519140" lon="10.5443180">
	<ele>1648.80</ele>
	<time>2024-03-09T09:48:18.000Z</time>
</trkpt>
<trkpt lat="46.2519130" lon="10.5443180">
	<ele>1648.80</ele>
	<time>2024-03-09T09:48:19.000Z</time>
</trkpt>
<trkpt lat="46.2519130" lon="10.5443180">
	<ele>1648.60</ele>
	<time>2024-03-09T09:48:20.000Z</time>
</trkpt>
<trkpt lat="46.2519130" lon="10.5443190">
	<ele>1648.60</ele>
	<time>2024-03-09T09:48:21.000Z</time>
</trkpt>
<trkpt lat="46.2519120" lon="10.5443200">
	<ele>1648.40</ele>
	<time>2024-03-09T09:48:22.000Z</time>
</trkpt>
<trkpt lat="46.2519100" lon="10.5443200">
	<ele>1648.40</ele>
	<time>2024-03-09T09:48:23.000Z</time>
</trkpt>
<trkpt lat="46.2519100" lon="10.5443200">
	<ele>1648.60</ele>
	<time>2024-03-09T09:48:24.000Z</time>
</trkpt>
<trkpt lat="46.2519080" lon="10.5443200">
	<ele>1648.60</ele>
	<time>2024-03-09T09:48:25.000Z</time>
</trkpt>
<trkpt lat="46.2519070" lon="10.5443200">
	<ele>1648.60</ele>
	<time>2024-03-09T09:48:26.000Z</time>
</trkpt>
<trkpt lat="46.2519070" lon="10.5443200">
	<ele>1648.60</ele>
	<time>2024-03-09T09:48:27.000Z</time>
</trkpt>
<trkpt lat="46.2519060" lon="10.5443200">
	<ele>1648.60</ele>
	<time>2024-03-09T09:48:28.000Z</time>
</trkpt>
<trkpt lat="46.2519060" lon="10.5443200">
	<ele>1648.60</ele>
	<time>2024-03-09T09:48:29.000Z</time>
</trkpt>
<trkpt lat="46.2519060" lon="10.5443200">
	<ele>1648.60</ele>
	<time>2024-03-09T09:48:30.000Z</time>
</trkpt>
<trkpt lat="46.2519050" lon="10.5443200">
	<ele>1648.60</ele>
	<time>2024-03-09T09:48:31.000Z</time>
</trkpt>
<trkpt lat="46.2519050" lon="10.5443200">
	<ele>1648.60</ele>
	<time>2024-03-09T09:48:32.000Z</time>
</trkpt>
<trkpt lat="46.2519050" lon="10.5443200">
	<ele>1648.60</ele>
	<time>2024-03-09T09:48:33.000Z</time>
</trkpt>
<trkpt lat="46.2519050" lon="10.5443200">
	<ele>1648.60</ele>
	<time>2024-03-09T09:48:34.000Z</time>
</trkpt>
<trkpt lat="46.2519040" lon="10.5443200">
	<ele>1648.60</ele>
	<time>2024-03-09T09:48:35.000Z</time>
</trkpt>
<trkpt lat="46.2519040" lon="10.5443200">
	<ele>1648.60</ele>
	<time>2024-03-09T09:48:36.000Z</time>
</trkpt>
<trkpt lat="46.2519040" lon="10.5443180">
	<ele>1648.60</ele>
	<time>2024-03-09T09:48:37.000Z</time>
</trkpt>
<trkpt lat="46.2519040" lon="10.5443160">
	<ele>1648.60</ele>
	<time>2024-03-09T09:48:38.000Z</time>
</trkpt>
<trkpt lat="46.2519030" lon="10.5443160">
	<ele>1648.60</ele>
	<time>2024-03-09T09:48:39.000Z</time>
</trkpt>
<trkpt lat="46.2519030" lon="10.5443150">
	<ele>1648.60</ele>
	<time>2024-03-09T09:48:40.000Z</time>
</trkpt>
<trkpt lat="46.2519030" lon="10.5443140">
	<ele>1648.60</ele>
	<time>2024-03-09T09:48:41.000Z</time>
</trkpt>
<trkpt lat="46.2519030" lon="10.5443130">
	<ele>1648.60</ele>
	<time>2024-03-09T09:48:42.000Z</time>
</trkpt>
<trkpt lat="46.2519030" lon="10.5443120">
	<ele>1648.60</ele>
	<time>2024-03-09T09:48:43.000Z</time>
</trkpt>
<trkpt lat="46.2519030" lon="10.5443110">
	<ele>1648.60</ele>
	<time>2024-03-09T09:48:44.000Z</time>
</trkpt>
<trkpt lat="46.2519030" lon="10.5443110">
	<ele>1648.60</ele>
	<time>2024-03-09T09:48:45.000Z</time>
</trkpt>
<trkpt lat="46.2519030" lon="10.5443110">
	<ele>1648.60</ele>
	<time>2024-03-09T09:48:46.000Z</time>
</trkpt>
<trkpt lat="46.2519030" lon="10.5443110">
	<ele>1648.60</ele>
	<time>2024-03-09T09:48:47.000Z</time>
</trkpt>
<trkpt lat="46.2519030" lon="10.5443110">
	<ele>1648.60</ele>
	<time>2024-03-09T09:48:48.000Z</time>
</trkpt>
<trkpt lat="46.2519030" lon="10.5443110">
	<ele>1648.60</ele>
	<time>2024-03-09T09:48:49.000Z</time>
</trkpt>
<trkpt lat="46.2519030" lon="10.5443110">
	<ele>1648.60</ele>
	<time>2024-03-09T09:48:50.000Z</time>
</trkpt>
<trkpt lat="46.2519030" lon="10.5443110">
	<ele>1648.60</ele>
	<time>2024-03-09T09:48:51.000Z</time>
</trkpt>
<trkpt lat="46.2519030" lon="10.5443110">
	<ele>1648.60</ele>
	<time>2024-03-09T09:48:52.000Z</time>
</trkpt>
<trkpt lat="46.2519030" lon="10.5443110">
	<ele>1648.60</ele>
	<time>2024-03-09T09:48:53.000Z</time>
</trkpt>
<trkpt lat="46.2519030" lon="10.5443110">
	<ele>1648.60</ele>
	<time>2024-03-09T09:48:54.000Z</time>
</trkpt>
<trkpt lat="46.2519030" lon="10.5443110">
	<ele>1648.60</ele>
	<time>2024-03-09T09:48:55.000Z</time>
</trkpt>
<trkpt lat="46.2519030" lon="10.5443110">
	<ele>1648.60</ele>
	<time>2024-03-09T09:48:56.000Z</time>
</trkpt>
<trkpt lat="46.2519030" lon="10.5443110">
	<ele>1648.60</ele>
	<time>2024-03-09T09:48:57.000Z</time>
</trkpt>
<trkpt lat="46.2519030" lon="10.5443110">
	<ele>1648.60</ele>
	<time>2024-03-09T09:48:58.000Z</time>
</trkpt>
<trkpt lat="46.2519030" lon="10.5443110">
	<ele>1648.60</ele>
	<time>2024-03-09T09:48:59.000Z</time>
</trkpt>
<trkpt lat="46.2519040" lon="10.5443110">
	<ele>1648.60</ele>
	<time>2024-03-09T09:49:00.000Z</time>
</trkpt>
<trkpt lat="46.2519040" lon="10.5443110">
	<ele>1648.60</ele>
	<time>2024-03-09T09:49:01.000Z</time>
</trkpt>
<trkpt lat="46.2519040" lon="10.5443120">
	<ele>1648.60</ele>
	<time>2024-03-09T09:49:02.000Z</time>
</trkpt>
<trkpt lat="46.2519040" lon="10.5443140">
	<ele>1648.60</ele>
	<time>2024-03-09T09:49:03.000Z</time>
</trkpt>
<trkpt lat="46.2519040" lon="10.5443140">
	<ele>1648.60</ele>
	<time>2024-03-09T09:49:04.000Z</time>
</trkpt>
<trkpt lat="46.2519040" lon="10.5443140">
	<ele>1648.60</ele>
	<time>2024-03-09T09:49:05.000Z</time>
</trkpt>
<trkpt lat="46.2519040" lon="10.5443140">
	<ele>1648.60</ele>
	<time>2024-03-09T09:49:06.000Z</time>
</trkpt>
<trkpt lat="46.2519040" lon="10.5443140">
	<ele>1648.60</ele>
	<time>2024-03-09T09:49:07.000Z</time>
</trkpt>
<trkpt lat="46.2519040" lon="10.5443140">
	<ele>1648.60</ele>
	<time>2024-03-09T09:49:08.000Z</time>
</trkpt>
<trkpt lat="46.2519040" lon="10.5443140">
	<ele>1648.60</ele>
	<time>2024-03-09T09:49:09.000Z</time>
</trkpt>
<trkpt lat="46.2519040" lon="10.5443140">
	<ele>1648.60</ele>
	<time>2024-03-09T09:49:10.000Z</time>
</trkpt>
<trkpt lat="46.2519040" lon="10.5443140">
	<ele>1648.60</ele>
	<time>2024-03-09T09:49:11.000Z</time>
</trkpt>
<trkpt lat="46.2519040" lon="10.5443140">
	<ele>1648.60</ele>
	<time>2024-03-09T09:49:12.000Z</time>
</trkpt>
<trkpt lat="46.2519050" lon="10.5443140">
	<ele>1648.60</ele>
	<time>2024-03-09T09:49:13.000Z</time>
</trkpt>
<trkpt lat="46.2519050" lon="10.5443140">
	<ele>1648.60</ele>
	<time>2024-03-09T09:49:14.000Z</time>
</trkpt>
<trkpt lat="46.2519070" lon="10.5443140">
	<ele>1648.60</ele>
	<time>2024-03-09T09:49:15.000Z</time>
</trkpt>
<trkpt lat="46.2519070" lon="10.5443140">
	<ele>1648.60</ele>
	<time>2024-03-09T09:49:16.000Z</time>
</trkpt>
<trkpt lat="46.2519070" lon="10.5443140">
	<ele>1648.60</ele>
	<time>2024-03-09T09:49:17.000Z</time>
</trkpt>
<trkpt lat="46.2519080" lon="10.5443130">
	<ele>1648.60</ele>
	<time>2024-03-09T09:49:18.000Z</time>
</trkpt>
<trkpt lat="46.2519080" lon="10.5443100">
	<ele>1648.60</ele>
	<time>2024-03-09T09:49:19.000Z</time>
</trkpt>
<trkpt lat="46.2519090" lon="10.5443060">
	<ele>1648.60</ele>
	<time>2024-03-09T09:49:20.000Z</time>
</trkpt>
<trkpt lat="46.2519100" lon="10.5443030">
	<ele>1648.60</ele>
	<time>2024-03-09T09:49:21.000Z</time>
</trkpt>
<trkpt lat="46.2519100" lon="10.5443020">
	<ele>1648.60</ele>
	<time>2024-03-09T09:49:22.000Z</time>
</trkpt>
<trkpt lat="46.2519110" lon="10.5443020">
	<ele>1648.60</ele>
	<time>2024-03-09T09:49:23.000Z</time>
</trkpt>
<trkpt lat="46.2519110" lon="10.5443020">
	<ele>1648.60</ele>
	<time>2024-03-09T09:49:24.000Z</time>
</trkpt>
<trkpt lat="46.2519110" lon="10.5443020">
	<ele>1648.60</ele>
	<time>2024-03-09T09:49:25.000Z</time>
</trkpt>
<trkpt lat="46.2519110" lon="10.5443020">
	<ele>1648.60</ele>
	<time>2024-03-09T09:49:26.000Z</time>
</trkpt>
<trkpt lat="46.2519110" lon="10.5443020">
	<ele>1648.60</ele>
	<time>2024-03-09T09:49:27.000Z</time>
</trkpt>
<trkpt lat="46.2519110" lon="10.5443020">
	<ele>1648.60</ele>
	<time>2024-03-09T09:49:28.000Z</time>
</trkpt>
<trkpt lat="46.2519110" lon="10.5443020">
	<ele>1648.60</ele>
	<time>2024-03-09T09:49:29.000Z</time>
</trkpt>
<trkpt lat="46.2519110" lon="10.5443020">
	<ele>1648.60</ele>
	<time>2024-03-09T09:49:30.000Z</time>
</trkpt>
<trkpt lat="46.2519110" lon="10.5443020">
	<ele>1648.60</ele>
	<time>2024-03-09T09:49:31.000Z</time>
</trkpt>
<trkpt lat="46.2519110" lon="10.5443020">
	<ele>1648.60</ele>
	<time>2024-03-09T09:49:32.000Z</time>
</trkpt>
<trkpt lat="46.2519110" lon="10.5443020">
	<ele>1648.60</ele>
	<time>2024-03-09T09:49:33.000Z</time>
</trkpt>
<trkpt lat="46.2519110" lon="10.5443020">
	<ele>1648.60</ele>
	<time>2024-03-09T09:49:34.000Z</time>
</trkpt>
<trkpt lat="46.2519110" lon="10.5443020">
	<ele>1648.60</ele>
	<time>2024-03-09T09:49:35.000Z</time>
</trkpt>
<trkpt lat="46.2519110" lon="10.5443020">
	<ele>1648.60</ele>
	<time>2024-03-09T09:49:36.000Z</time>
</trkpt>
<trkpt lat="46.2519120" lon="10.5443030">
	<ele>1648.60</ele>
	<time>2024-03-09T09:49:37.000Z</time>
</trkpt>
<trkpt lat="46.2519120" lon="10.5443060">
	<ele>1648.60</ele>
	<time>2024-03-09T09:49:38.000Z</time>
</trkpt>
<trkpt lat="46.2519120" lon="10.5443070">
	<ele>1648.60</ele>
	<time>2024-03-09T09:49:39.000Z</time>
</trkpt>
<trkpt lat="46.2519120" lon="10.5443080">
	<ele>1648.60</ele>
	<time>2024-03-09T09:49:40.000Z</time>
</trkpt>
<trkpt lat="46.2519120" lon="10.5443080">
	<ele>1648.60</ele>
	<time>2024-03-09T09:49:41.000Z</time>
</trkpt>
<trkpt lat="46.2519120" lon="10.5443090">
	<ele>1648.60</ele>
	<time>2024-03-09T09:49:42.000Z</time>
</trkpt>
<trkpt lat="46.2519110" lon="10.5443090">
	<ele>1648.60</ele>
	<time>2024-03-09T09:49:43.000Z</time>
</trkpt>
<trkpt lat="46.2519110" lon="10.5443090">
	<ele>1648.60</ele>
	<time>2024-03-09T09:49:44.000Z</time>
</trkpt>
<trkpt lat="46.2519110" lon="10.5443100">
	<ele>1648.60</ele>
	<time>2024-03-09T09:49:45.000Z</time>
</trkpt>
<trkpt lat="46.2519110" lon="10.5443100">
	<ele>1648.60</ele>
	<time>2024-03-09T09:49:46.000Z</time>
</trkpt>
<trkpt lat="46.2519110" lon="10.5443100">
	<ele>1648.60</ele>
	<time>2024-03-09T09:49:47.000Z</time>
</trkpt>
<trkpt lat="46.2519110" lon="10.5443110">
	<ele>1648.60</ele>
	<time>2024-03-09T09:49:48.000Z</time>
</trkpt>
<trkpt lat="46.2519110" lon="10.5443110">
	<ele>1648.60</ele>
	<time>2024-03-09T09:49:49.000Z</time>
</trkpt>
<trkpt lat="46.2519110" lon="10.5443110">
	<ele>1648.60</ele>
	<time>2024-03-09T09:49:50.000Z</time>
</trkpt>
<trkpt lat="46.2519110" lon="10.5443110">
	<ele>1648.60</ele>
	<time>2024-03-09T09:49:51.000Z</time>
</trkpt>
<trkpt lat="46.2519110" lon="10.5443130">
	<ele>1648.60</ele>
	<time>2024-03-09T09:49:52.000Z</time>
</trkpt>
<trkpt lat="46.2519110" lon="10.5443150">
	<ele>1648.60</ele>
	<time>2024-03-09T09:49:53.000Z</time>
</trkpt>
<trkpt lat="46.2519120" lon="10.5443160">
	<ele>1648.60</ele>
	<time>2024-03-09T09:49:54.000Z</time>
</trkpt>
<trkpt lat="46.2519120" lon="10.5443190">
	<ele>1648.60</ele>
	<time>2024-03-09T09:49:55.000Z</time>
</trkpt>
<trkpt lat="46.2519130" lon="10.5443200">
	<ele>1648.60</ele>
	<time>2024-03-09T09:49:56.000Z</time>
</trkpt>
<trkpt lat="46.2519130" lon="10.5443210">
	<ele>1648.60</ele>
	<time>2024-03-09T09:49:57.000Z</time>
</trkpt>
<trkpt lat="46.2519140" lon="10.5443220">
	<ele>1648.60</ele>
	<time>2024-03-09T09:49:58.000Z</time>
</trkpt>
<trkpt lat="46.2519140" lon="10.5443230">
	<ele>1648.60</ele>
	<time>2024-03-09T09:49:59.000Z</time>
</trkpt>
<trkpt lat="46.2519150" lon="10.5443230">
	<ele>1648.60</ele>
	<time>2024-03-09T09:50:00.000Z</time>
</trkpt>
<trkpt lat="46.2519150" lon="10.5443230">
	<ele>1648.60</ele>
	<time>2024-03-09T09:50:01.000Z</time>
</trkpt>
<trkpt lat="46.2519150" lon="10.5443240">
	<ele>1648.60</ele>
	<time>2024-03-09T09:50:02.000Z</time>
</trkpt>
<trkpt lat="46.2519150" lon="10.5443240">
	<ele>1648.60</ele>
	<time>2024-03-09T09:50:03.000Z</time>
</trkpt>
<trkpt lat="46.2519150" lon="10.5443240">
	<ele>1648.60</ele>
	<time>2024-03-09T09:50:04.000Z</time>
</trkpt>
<trkpt lat="46.2519150" lon="10.5443240">
	<ele>1648.60</ele>
	<time>2024-03-09T09:50:05.000Z</time>
</trkpt>
<trkpt lat="46.2519150" lon="10.5443240">
	<ele>1648.60</ele>
	<time>2024-03-09T09:50:06.000Z</time>
</trkpt>
<trkpt lat="46.2519150" lon="10.5443240">
	<ele>1648.60</ele>
	<time>2024-03-09T09:50:07.000Z</time>
</trkpt>
<trkpt lat="46.2519150" lon="10.5443240">
	<ele>1648.60</ele>
	<time>2024-03-09T09:50:08.000Z</time>
</trkpt>
<trkpt lat="46.2519150" lon="10.5443240">
	<ele>1648.60</ele>
	<time>2024-03-09T09:50:09.000Z</time>
</trkpt>
<trkpt lat="46.2519150" lon="10.5443240">
	<ele>1648.60</ele>
	<time>2024-03-09T09:50:10.000Z</time>
</trkpt>
<trkpt lat="46.2519150" lon="10.5443240">
	<ele>1648.60</ele>
	<time>2024-03-09T09:50:11.000Z</time>
</trkpt>
<trkpt lat="46.2519150" lon="10.5443230">
	<ele>1648.60</ele>
	<time>2024-03-09T09:50:12.000Z</time>
</trkpt>
<trkpt lat="46.2519150" lon="10.5443230">
	<ele>1648.60</ele>
	<time>2024-03-09T09:50:13.000Z</time>
</trkpt>
<trkpt lat="46.2519150" lon="10.5443230">
	<ele>1648.60</ele>
	<time>2024-03-09T09:50:14.000Z</time>
</trkpt>
<trkpt lat="46.2519150" lon="10.5443220">
	<ele>1648.60</ele>
	<time>2024-03-09T09:50:15.000Z</time>
</trkpt>
<trkpt lat="46.2519150" lon="10.5443220">
	<ele>1648.60</ele>
	<time>2024-03-09T09:50:16.000Z</time>
</trkpt>
<trkpt lat="46.2519150" lon="10.5443220">
	<ele>1648.60</ele>
	<time>2024-03-09T09:50:17.000Z</time>
</trkpt>
<trkpt lat="46.2519150" lon="10.5443220">
	<ele>1648.60</ele>
	<time>2024-03-09T09:50:18.000Z</time>
</trkpt>
<trkpt lat="46.2519150" lon="10.5443220">
	<ele>1648.60</ele>
	<time>2024-03-09T09:50:19.000Z</time>
</trkpt>
<trkpt lat="46.2519150" lon="10.5443220">
	<ele>1648.60</ele>
	<time>2024-03-09T09:50:20.000Z</time>
</trkpt>
<trkpt lat="46.2519150" lon="10.5443220">
	<ele>1648.60</ele>
	<time>2024-03-09T09:50:21.000Z</time>
</trkpt>
<trkpt lat="46.2519150" lon="10.5443220">
	<ele>1648.60</ele>
	<time>2024-03-09T09:50:22.000Z</time>
</trkpt>
<trkpt lat="46.2519150" lon="10.5443220">
	<ele>1648.60</ele>
	<time>2024-03-09T09:50:23.000Z</time>
</trkpt>
<trkpt lat="46.2519150" lon="10.5443220">
	<ele>1648.60</ele>
	<time>2024-03-09T09:50:24.000Z</time>
</trkpt>
<trkpt lat="46.2519150" lon="10.5443220">
	<ele>1648.60</ele>
	<time>2024-03-09T09:50:25.000Z</time>
</trkpt>
<trkpt lat="46.2519140" lon="10.5443220">
	<ele>1648.60</ele>
	<time>2024-03-09T09:50:26.000Z</time>
</trkpt>
<trkpt lat="46.2519120" lon="10.5443220">
	<ele>1648.60</ele>
	<time>2024-03-09T09:50:27.000Z</time>
</trkpt>
<trkpt lat="46.2519100" lon="10.5443220">
	<ele>1648.60</ele>
	<time>2024-03-09T09:50:28.000Z</time>
</trkpt>
<trkpt lat="46.2519090" lon="10.5443220">
	<ele>1648.60</ele>
	<time>2024-03-09T09:50:29.000Z</time>
</trkpt>
<trkpt lat="46.2519080" lon="10.5443220">
	<ele>1648.60</ele>
	<time>2024-03-09T09:50:30.000Z</time>
</trkpt>
<trkpt lat="46.2519070" lon="10.5443220">
	<ele>1648.60</ele>
	<time>2024-03-09T09:50:31.000Z</time>
</trkpt>
<trkpt lat="46.2519070" lon="10.5443230">
	<ele>1648.60</ele>
	<time>2024-03-09T09:50:32.000Z</time>
</trkpt>
<trkpt lat="46.2519060" lon="10.5443230">
	<ele>1648.60</ele>
	<time>2024-03-09T09:50:33.000Z</time>
</trkpt>
<trkpt lat="46.2519050" lon="10.5443230">
	<ele>1648.60</ele>
	<time>2024-03-09T09:50:34.000Z</time>
</trkpt>
<trkpt lat="46.2519050" lon="10.5443230">
	<ele>1648.60</ele>
	<time>2024-03-09T09:50:35.000Z</time>
</trkpt>
<trkpt lat="46.2519050" lon="10.5443230">
	<ele>1648.60</ele>
	<time>2024-03-09T09:50:36.000Z</time>
</trkpt>
<trkpt lat="46.2519050" lon="10.5443230">
	<ele>1648.60</ele>
	<time>2024-03-09T09:50:37.000Z</time>
</trkpt>
<trkpt lat="46.2519040" lon="10.5443230">
	<ele>1648.60</ele>
	<time>2024-03-09T09:50:38.000Z</time>
</trkpt>
<trkpt lat="46.2519040" lon="10.5443230">
	<ele>1648.60</ele>
	<time>2024-03-09T09:50:39.000Z</time>
</trkpt>
<trkpt lat="46.2519040" lon="10.5443230">
	<ele>1648.60</ele>
	<time>2024-03-09T09:50:40.000Z</time>
</trkpt>
<trkpt lat="46.2519040" lon="10.5443230">
	<ele>1648.60</ele>
	<time>2024-03-09T09:50:41.000Z</time>
</trkpt>
<trkpt lat="46.2519040" lon="10.5443230">
	<ele>1648.60</ele>
	<time>2024-03-09T09:50:42.000Z</time>
</trkpt>
<trkpt lat="46.2519040" lon="10.5443230">
	<ele>1648.60</ele>
	<time>2024-03-09T09:50:43.000Z</time>
</trkpt>
<trkpt lat="46.2519030" lon="10.5443220">
	<ele>1648.60</ele>
	<time>2024-03-09T09:50:44.000Z</time>
</trkpt>
<trkpt lat="46.2519030" lon="10.5443220">
	<ele>1648.60</ele>
	<time>2024-03-09T09:50:45.000Z</time>
</trkpt>
<trkpt lat="46.2519030" lon="10.5443200">
	<ele>1648.60</ele>
	<time>2024-03-09T09:50:46.000Z</time>
</trkpt>
<trkpt lat="46.2519030" lon="10.5443190">
	<ele>1648.60</ele>
	<time>2024-03-09T09:50:47.000Z</time>
</trkpt>
<trkpt lat="46.2519030" lon="10.5443170">
	<ele>1648.60</ele>
	<time>2024-03-09T09:50:48.000Z</time>
</trkpt>
<trkpt lat="46.2519020" lon="10.5443160">
	<ele>1648.60</ele>
	<time>2024-03-09T09:50:49.000Z</time>
</trkpt>
<trkpt lat="46.2519020" lon="10.5443150">
	<ele>1648.60</ele>
	<time>2024-03-09T09:50:50.000Z</time>
</trkpt>
<trkpt lat="46.2519020" lon="10.5443140">
	<ele>1648.60</ele>
	<time>2024-03-09T09:50:51.000Z</time>
</trkpt>
<trkpt lat="46.2519020" lon="10.5443130">
	<ele>1648.60</ele>
	<time>2024-03-09T09:50:52.000Z</time>
</trkpt>
<trkpt lat="46.2519020" lon="10.5443120">
	<ele>1648.60</ele>
	<time>2024-03-09T09:50:53.000Z</time>
</trkpt>
<trkpt lat="46.2519020" lon="10.5443110">
	<ele>1648.60</ele>
	<time>2024-03-09T09:50:54.000Z</time>
</trkpt>
<trkpt lat="46.2519020" lon="10.5443100">
	<ele>1648.60</ele>
	<time>2024-03-09T09:50:55.000Z</time>
</trkpt>
<trkpt lat="46.2519020" lon="10.5443100">
	<ele>1648.60</ele>
	<time>2024-03-09T09:50:56.000Z</time>
</trkpt>
<trkpt lat="46.2519020" lon="10.5443090">
	<ele>1648.60</ele>
	<time>2024-03-09T09:50:57.000Z</time>
</trkpt>
<trkpt lat="46.2519010" lon="10.5443090">
	<ele>1648.60</ele>
	<time>2024-03-09T09:50:58.000Z</time>
</trkpt>
<trkpt lat="46.2519010" lon="10.5443080">
	<ele>1648.60</ele>
	<time>2024-03-09T09:50:59.000Z</time>
</trkpt>
<trkpt lat="46.2519010" lon="10.5443070">
	<ele>1648.60</ele>
	<time>2024-03-09T09:51:00.000Z</time>
</trkpt>
<trkpt lat="46.2519010" lon="10.5443070">
	<ele>1648.60</ele>
	<time>2024-03-09T09:51:01.000Z</time>
</trkpt>
<trkpt lat="46.2519010" lon="10.5443060">
	<ele>1648.60</ele>
	<time>2024-03-09T09:51:02.000Z</time>
</trkpt>
<trkpt lat="46.2519010" lon="10.5443060">
	<ele>1648.60</ele>
	<time>2024-03-09T09:51:03.000Z</time>
</trkpt>
<trkpt lat="46.2519010" lon="10.5443060">
	<ele>1648.60</ele>
	<time>2024-03-09T09:51:04.000Z</time>
</trkpt>
<trkpt lat="46.2519010" lon="10.5443050">
	<ele>1648.60</ele>
	<time>2024-03-09T09:51:05.000Z</time>
</trkpt>
<trkpt lat="46.2519010" lon="10.5443050">
	<ele>1648.60</ele>
	<time>2024-03-09T09:51:06.000Z</time>
</trkpt>
<trkpt lat="46.2519020" lon="10.5443040">
	<ele>1648.60</ele>
	<time>2024-03-09T09:51:07.000Z</time>
</trkpt>
<trkpt lat="46.2519020" lon="10.5443030">
	<ele>1648.60</ele>
	<time>2024-03-09T09:51:08.000Z</time>
</trkpt>
<trkpt lat="46.2519020" lon="10.5443030">
	<ele>1648.60</ele>
	<time>2024-03-09T09:51:09.000Z</time>
</trkpt>
<trkpt lat="46.2519020" lon="10.5443030">
	<ele>1648.60</ele>
	<time>2024-03-09T09:51:10.000Z</time>
</trkpt>
<trkpt lat="46.2519020" lon="10.5443020">
	<ele>1648.60</ele>
	<time>2024-03-09T09:51:11.000Z</time>
</trkpt>
<trkpt lat="46.2519020" lon="10.5443020">
	<ele>1648.60</ele>
	<time>2024-03-09T09:51:12.000Z</time>
</trkpt>
<trkpt lat="46.2519020" lon="10.5443010">
	<ele>1648.60</ele>
	<time>2024-03-09T09:51:13.000Z</time>
</trkpt>
<trkpt lat="46.2519020" lon="10.5443010">
	<ele>1648.60</ele>
	<time>2024-03-09T09:51:14.000Z</time>
</trkpt>
<trkpt lat="46.2519030" lon="10.5443010">
	<ele>1648.60</ele>
	<time>2024-03-09T09:51:15.000Z</time>
</trkpt>
<trkpt lat="46.2519030" lon="10.5443000">
	<ele>1648.60</ele>
	<time>2024-03-09T09:51:16.000Z</time>
</trkpt>
<trkpt lat="46.2519030" lon="10.5443000">
	<ele>1648.60</ele>
	<time>2024-03-09T09:51:17.000Z</time>
</trkpt>
<trkpt lat="46.2519030" lon="10.5443000">
	<ele>1648.60</ele>
	<time>2024-03-09T09:51:18.000Z</time>
</trkpt>
<trkpt lat="46.2519030" lon="10.5443000">
	<ele>1648.60</ele>
	<time>2024-03-09T09:51:19.000Z</time>
</trkpt>
<trkpt lat="46.2519030" lon="10.5443000">
	<ele>1648.60</ele>
	<time>2024-03-09T09:51:20.000Z</time>
</trkpt>
<trkpt lat="46.2519030" lon="10.5443000">
	<ele>1648.60</ele>
	<time>2024-03-09T09:51:21.000Z</time>
</trkpt>
<trkpt lat="46.2519030" lon="10.5443000">
	<ele>1648.60</ele>
	<time>2024-03-09T09:51:22.000Z</time>
</trkpt>
<trkpt lat="46.2519030" lon="10.5443000">
	<ele>1648.60</ele>
	<time>2024-03-09T09:51:23.000Z</time>
</trkpt>
<trkpt lat="46.2519030" lon="10.5443000">
	<ele>1648.60</ele>
	<time>2024-03-09T09:51:24.000Z</time>
</trkpt>
<trkpt lat="46.2519030" lon="10.5443000">
	<ele>1648.60</ele>
	<time>2024-03-09T09:51:25.000Z</time>
</trkpt>
<trkpt lat="46.2519030" lon="10.5443000">
	<ele>1648.60</ele>
	<time>2024-03-09T09:51:26.000Z</time>
</trkpt>
<trkpt lat="46.2519030" lon="10.5443000">
	<ele>1648.60</ele>
	<time>2024-03-09T09:51:27.000Z</time>
</trkpt>
<trkpt lat="46.2519030" lon="10.5443000">
	<ele>1648.60</ele>
	<time>2024-03-09T09:51:28.000Z</time>
</trkpt>
<trkpt lat="46.2519030" lon="10.5443000">
	<ele>1648.60</ele>
	<time>2024-03-09T09:51:29.000Z</time>
</trkpt>
<trkpt lat="46.2519030" lon="10.5443000">
	<ele>1648.60</ele>
	<time>2024-03-09T09:51:30.000Z</time>
</trkpt>
<trkpt lat="46.2519030" lon="10.5443000">
	<ele>1648.60</ele>
	<time>2024-03-09T09:51:31.000Z</time>
</trkpt>
<trkpt lat="46.2519030" lon="10.5443000">
	<ele>1648.60</ele>
	<time>2024-03-09T09:51:32.000Z</time>
</trkpt>
<trkpt lat="46.2519030" lon="10.5443000">
	<ele>1648.60</ele>
	<time>2024-03-09T09:51:33.000Z</time>
</trkpt>
<trkpt lat="46.2519030" lon="10.5443000">
	<ele>1648.60</ele>
	<time>2024-03-09T09:51:34.000Z</time>
</trkpt>
<trkpt lat="46.2519030" lon="10.5443000">
	<ele>1648.60</ele>
	<time>2024-03-09T09:51:35.000Z</time>
</trkpt>
<trkpt lat="46.2519030" lon="10.5443000">
	<ele>1648.60</ele>
	<time>2024-03-09T09:51:36.000Z</time>
</trkpt>
<trkpt lat="46.2519030" lon="10.5443000">
	<ele>1648.60</ele>
	<time>2024-03-09T09:51:37.000Z</time>
</trkpt>
<trkpt lat="46.2519030" lon="10.5443000">
	<ele>1648.60</ele>
	<time>2024-03-09T09:51:38.000Z</time>
</trkpt>
<trkpt lat="46.2519030" lon="10.5443000">
	<ele>1648.60</ele>
	<time>2024-03-09T09:51:39.000Z</time>
</trkpt>
<trkpt lat="46.2519030" lon="10.5443000">
	<ele>1648.60</ele>
	<time>2024-03-09T09:51:40.000Z</time>
</trkpt>
<trkpt lat="46.2519030" lon="10.5442990">
	<ele>1648.60</ele>
	<time>2024-03-09T09:51:41.000Z</time>
</trkpt>
<trkpt lat="46.2519030" lon="10.5442990">
	<ele>1648.60</ele>
	<time>2024-03-09T09:51:42.000Z</time>
</trkpt>
<trkpt lat="46.2519030" lon="10.5442990">
	<ele>1648.60</ele>
	<time>2024-03-09T09:51:43.000Z</time>
</trkpt>
<trkpt lat="46.2519030" lon="10.5442990">
	<ele>1648.60</ele>
	<time>2024-03-09T09:51:44.000Z</time>
</trkpt>
<trkpt lat="46.2519030" lon="10.5442990">
	<ele>1648.60</ele>
	<time>2024-03-09T09:51:45.000Z</time>
</trkpt>
<trkpt lat="46.2519020" lon="10.5442990">
	<ele>1648.60</ele>
	<time>2024-03-09T09:51:46.000Z</time>
</trkpt>
<trkpt lat="46.2519030" lon="10.5442990">
	<ele>1648.60</ele>
	<time>2024-03-09T09:51:47.000Z</time>
</trkpt>
<trkpt lat="46.2519030" lon="10.5442990">
	<ele>1648.60</ele>
	<time>2024-03-09T09:51:48.000Z</time>
</trkpt>
<trkpt lat="46.2519030" lon="10.5442990">
	<ele>1648.60</ele>
	<time>2024-03-09T09:51:49.000Z</time>
</trkpt>
<trkpt lat="46.2519030" lon="10.5442990">
	<ele>1648.60</ele>
	<time>2024-03-09T09:51:50.000Z</time>
</trkpt>
<trkpt lat="46.2519020" lon="10.5442990">
	<ele>1648.60</ele>
	<time>2024-03-09T09:51:51.000Z</time>
</trkpt>
<trkpt lat="46.2519020" lon="10.5442990">
	<ele>1648.60</ele>
	<time>2024-03-09T09:51:52.000Z</time>
</trkpt>
<trkpt lat="46.2519020" lon="10.5442990">
	<ele>1648.60</ele>
	<time>2024-03-09T09:51:53.000Z</time>
</trkpt>
<trkpt lat="46.2519020" lon="10.5442990">
	<ele>1648.60</ele>
	<time>2024-03-09T09:51:54.000Z</time>
</trkpt>
<trkpt lat="46.2519020" lon="10.5442990">
	<ele>1648.60</ele>
	<time>2024-03-09T09:51:55.000Z</time>
</trkpt>
<trkpt lat="46.2519020" lon="10.5442990">
	<ele>1648.60</ele>
	<time>2024-03-09T09:51:56.000Z</time>
</trkpt>
<trkpt lat="46.2519020" lon="10.5442990">
	<ele>1648.60</ele>
	<time>2024-03-09T09:51:57.000Z</time>
</trkpt>
<trkpt lat="46.2519020" lon="10.5442990">
	<ele>1648.60</ele>
	<time>2024-03-09T09:51:58.000Z</time>
</trkpt>
<trkpt lat="46.2519020" lon="10.5442990">
	<ele>1648.60</ele>
	<time>2024-03-09T09:51:59.000Z</time>
</trkpt>
<trkpt lat="46.2519020" lon="10.5442990">
	<ele>1648.60</ele>
	<time>2024-03-09T09:52:00.000Z</time>
</trkpt>
<trkpt lat="46.2519020" lon="10.5442990">
	<ele>1648.60</ele>
	<time>2024-03-09T09:52:01.000Z</time>
</trkpt>
<trkpt lat="46.2519030" lon="10.5442990">
	<ele>1648.60</ele>
	<time>2024-03-09T09:52:02.000Z</time>
</trkpt>
<trkpt lat="46.2519030" lon="10.5442990">
	<ele>1648.60</ele>
	<time>2024-03-09T09:52:03.000Z</time>
</trkpt>
<trkpt lat="46.2519030" lon="10.5442990">
	<ele>1648.60</ele>
	<time>2024-03-09T09:52:04.000Z</time>
</trkpt>
<trkpt lat="46.2519030" lon="10.5442990">
	<ele>1648.60</ele>
	<time>2024-03-09T09:52:05.000Z</time>
</trkpt>
<trkpt lat="46.2519020" lon="10.5442990">
	<ele>1648.60</ele>
	<time>2024-03-09T09:52:06.000Z</time>
</trkpt>
<trkpt lat="46.2519020" lon="10.5442990">
	<ele>1648.60</ele>
	<time>2024-03-09T09:52:07.000Z</time>
</trkpt>
<trkpt lat="46.2519020" lon="10.5442990">
	<ele>1648.60</ele>
	<time>2024-03-09T09:52:08.000Z</time>
</trkpt>
<trkpt lat="46.2519020" lon="10.5442990">
	<ele>1648.60</ele>
	<time>2024-03-09T09:52:09.000Z</time>
</trkpt>
<trkpt lat="46.2519020" lon="10.5442990">
	<ele>1648.60</ele>
	<time>2024-03-09T09:52:10.000Z</time>
</trkpt>
<trkpt lat="46.2519020" lon="10.5442990">
	<ele>1648.60</ele>
	<time>2024-03-09T09:52:11.000Z</time>
</trkpt>
<trkpt lat="46.2519020" lon="10.5442990">
	<ele>1648.60</ele>
	<time>2024-03-09T09:52:12.000Z</time>
</trkpt>
<trkpt lat="46.2519020" lon="10.5442990">
	<ele>1648.60</ele>
	<time>2024-03-09T09:52:13.000Z</time>
</trkpt>
<trkpt lat="46.2519020" lon="10.5442990">
	<ele>1648.60</ele>
	<time>2024-03-09T09:52:14.000Z</time>
</trkpt>
<trkpt lat="46.2519020" lon="10.5442990">
	<ele>1648.60</ele>
	<time>2024-03-09T09:52:15.000Z</time>
</trkpt>
<trkpt lat="46.2519020" lon="10.5442990">
	<ele>1648.60</ele>
	<time>2024-03-09T09:52:16.000Z</time>
</trkpt>
<trkpt lat="46.2519020" lon="10.5442990">
	<ele>1648.60</ele>
	<time>2024-03-09T09:52:17.000Z</time>
</trkpt>
<trkpt lat="46.2519020" lon="10.5442990">
	<ele>1648.60</ele>
	<time>2024-03-09T09:52:18.000Z</time>
</trkpt>
<trkpt lat="46.2519020" lon="10.5442990">
	<ele>1648.60</ele>
	<time>2024-03-09T09:52:19.000Z</time>
</trkpt>
<trkpt lat="46.2519020" lon="10.5442990">
	<ele>1648.60</ele>
	<time>2024-03-09T09:52:20.000Z</time>
</trkpt>
<trkpt lat="46.2519020" lon="10.5442990">
	<ele>1648.60</ele>
	<time>2024-03-09T09:52:21.000Z</time>
</trkpt>
<trkpt lat="46.2519020" lon="10.5442990">
	<ele>1648.60</ele>
	<time>2024-03-09T09:52:22.000Z</time>
</trkpt>
<trkpt lat="46.2519020" lon="10.5442990">
	<ele>1648.60</ele>
	<time>2024-03-09T09:52:23.000Z</time>
</trkpt>
<trkpt lat="46.2519020" lon="10.5442990">
	<ele>1648.60</ele>
	<time>2024-03-09T09:52:24.000Z</time>
</trkpt>
<trkpt lat="46.2519020" lon="10.5442990">
	<ele>1648.60</ele>
	<time>2024-03-09T09:52:25.000Z</time>
</trkpt>
<trkpt lat="46.2519020" lon="10.5442980">
	<ele>1648.60</ele>
	<time>2024-03-09T09:52:26.000Z</time>
</trkpt>
<trkpt lat="46.2519020" lon="10.5442980">
	<ele>1648.60</ele>
	<time>2024-03-09T09:52:27.000Z</time>
</trkpt>
<trkpt lat="46.2519020" lon="10.5442990">
	<ele>1648.60</ele>
	<time>2024-03-09T09:52:28.000Z</time>
</trkpt>
<trkpt lat="46.2519020" lon="10.5442990">
	<ele>1648.60</ele>
	<time>2024-03-09T09:52:29.000Z</time>
</trkpt>
<trkpt lat="46.2519020" lon="10.5442980">
	<ele>1648.60</ele>
	<time>2024-03-09T09:52:30.000Z</time>
</trkpt>
<trkpt lat="46.2519020" lon="10.5442980">
	<ele>1648.60</ele>
	<time>2024-03-09T09:52:31.000Z</time>
</trkpt>
<trkpt lat="46.2519020" lon="10.5442980">
	<ele>1648.60</ele>
	<time>2024-03-09T09:52:32.000Z</time>
</trkpt>
<trkpt lat="46.2519020" lon="10.5442980">
	<ele>1648.60</ele>
	<time>2024-03-09T09:52:33.000Z</time>
</trkpt>
<trkpt lat="46.2519020" lon="10.5442980">
	<ele>1648.60</ele>
	<time>2024-03-09T09:52:34.000Z</time>
</trkpt>
<trkpt lat="46.2519020" lon="10.5442980">
	<ele>1648.60</ele>
	<time>2024-03-09T09:52:35.000Z</time>
</trkpt>
<trkpt lat="46.2519030" lon="10.5442980">
	<ele>1648.60</ele>
	<time>2024-03-09T09:52:36.000Z</time>
</trkpt>
<trkpt lat="46.2519030" lon="10.5442980">
	<ele>1648.60</ele>
	<time>2024-03-09T09:52:37.000Z</time>
</trkpt>
<trkpt lat="46.2519030" lon="10.5442980">
	<ele>1648.60</ele>
	<time>2024-03-09T09:52:38.000Z</time>
</trkpt>
<trkpt lat="46.2519030" lon="10.5442980">
	<ele>1648.60</ele>
	<time>2024-03-09T09:52:39.000Z</time>
</trkpt>
<trkpt lat="46.2519030" lon="10.5442980">
	<ele>1648.60</ele>
	<time>2024-03-09T09:52:40.000Z</time>
</trkpt>
<trkpt lat="46.2519030" lon="10.5442980">
	<ele>1648.60</ele>
	<time>2024-03-09T09:52:41.000Z</time>
</trkpt>
<trkpt lat="46.2519030" lon="10.5442980">
	<ele>1648.60</ele>
	<time>2024-03-09T09:52:42.000Z</time>
</trkpt>
<trkpt lat="46.2519030" lon="10.5442980">
	<ele>1648.60</ele>
	<time>2024-03-09T09:52:43.000Z</time>
</trkpt>
<trkpt lat="46.2519030" lon="10.5442980">
	<ele>1648.60</ele>
	<time>2024-03-09T09:52:44.000Z</time>
</trkpt>
<trkpt lat="46.2519030" lon="10.5442980">
	<ele>1648.60</ele>
	<time>2024-03-09T09:52:45.000Z</time>
</trkpt>
<trkpt lat="46.2519040" lon="10.5442980">
	<ele>1648.60</ele>
	<time>2024-03-09T09:52:46.000Z</time>
</trkpt>
<trkpt lat="46.2519040" lon="10.5442980">
	<ele>1648.60</ele>
	<time>2024-03-09T09:52:47.000Z</time>
</trkpt>
<trkpt lat="46.2519040" lon="10.5442980">
	<ele>1648.60</ele>
	<time>2024-03-09T09:52:48.000Z</time>
</trkpt>
<trkpt lat="46.2519040" lon="10.5442980">
	<ele>1648.60</ele>
	<time>2024-03-09T09:52:49.000Z</time>
</trkpt>
<trkpt lat="46.2519040" lon="10.5442980">
	<ele>1648.60</ele>
	<time>2024-03-09T09:52:50.000Z</time>
</trkpt>
<trkpt lat="46.2519040" lon="10.5442980">
	<ele>1648.60</ele>
	<time>2024-03-09T09:52:51.000Z</time>
</trkpt>
<trkpt lat="46.2519040" lon="10.5442980">
	<ele>1648.60</ele>
	<time>2024-03-09T09:52:52.000Z</time>
</trkpt>
<trkpt lat="46.2519040" lon="10.5442980">
	<ele>1648.60</ele>
	<time>2024-03-09T09:52:53.000Z</time>
</trkpt>
<trkpt lat="46.2519040" lon="10.5442980">
	<ele>1648.60</ele>
	<time>2024-03-09T09:52:54.000Z</time>
</trkpt>
<trkpt lat="46.2519040" lon="10.5442980">
	<ele>1648.60</ele>
	<time>2024-03-09T09:52:55.000Z</time>
</trkpt>
<trkpt lat="46.2519040" lon="10.5442980">
	<ele>1648.60</ele>
	<time>2024-03-09T09:52:56.000Z</time>
</trkpt>
<trkpt lat="46.2519050" lon="10.5442980">
	<ele>1648.60</ele>
	<time>2024-03-09T09:52:57.000Z</time>
</trkpt>
<trkpt lat="46.2519050" lon="10.5442980">
	<ele>1648.60</ele>
	<time>2024-03-09T09:52:58.000Z</time>
</trkpt>
<trkpt lat="46.2519050" lon="10.5442980">
	<ele>1648.60</ele>
	<time>2024-03-09T09:52:59.000Z</time>
</trkpt>
<trkpt lat="46.2519050" lon="10.5442980">
	<ele>1648.60</ele>
	<time>2024-03-09T09:53:00.000Z</time>
</trkpt>
<trkpt lat="46.2519050" lon="10.5442980">
	<ele>1648.60</ele>
	<time>2024-03-09T09:53:01.000Z</time>
</trkpt>
<trkpt lat="46.2519050" lon="10.5442980">
	<ele>1648.60</ele>
	<time>2024-03-09T09:53:02.000Z</time>
</trkpt>
<trkpt lat="46.2519050" lon="10.5442980">
	<ele>1648.60</ele>
	<time>2024-03-09T09:53:03.000Z</time>
</trkpt>
<trkpt lat="46.2519050" lon="10.5442980">
	<ele>1648.60</ele>
	<time>2024-03-09T09:53:04.000Z</time>
</trkpt>
<trkpt lat="46.2519050" lon="10.5442980">
	<ele>1648.60</ele>
	<time>2024-03-09T09:53:05.000Z</time>
</trkpt>
<trkpt lat="46.2519050" lon="10.5442980">
	<ele>1648.60</ele>
	<time>2024-03-09T09:53:06.000Z</time>
</trkpt>
<trkpt lat="46.2519050" lon="10.5442980">
	<ele>1648.60</ele>
	<time>2024-03-09T09:53:07.000Z</time>
</trkpt>
<trkpt lat="46.2519050" lon="10.5442980">
	<ele>1648.60</ele>
	<time>2024-03-09T09:53:08.000Z</time>
</trkpt>
<trkpt lat="46.2519050" lon="10.5442980">
	<ele>1648.60</ele>
	<time>2024-03-09T09:53:09.000Z</time>
</trkpt>
<trkpt lat="46.2519050" lon="10.5442980">
	<ele>1648.60</ele>
	<time>2024-03-09T09:53:10.000Z</time>
</trkpt>
<trkpt lat="46.2519050" lon="10.5442980">
	<ele>1648.60</ele>
	<time>2024-03-09T09:53:11.000Z</time>
</trkpt>
<trkpt lat="46.2519050" lon="10.5442980">
	<ele>1648.60</ele>
	<time>2024-03-09T09:53:12.000Z</time>
</trkpt>
<trkpt lat="46.2519050" lon="10.5442980">
	<ele>1648.60</ele>
	<time>2024-03-09T09:53:13.000Z</time>
</trkpt>
<trkpt lat="46.2519050" lon="10.5442980">
	<ele>1648.60</ele>
	<time>2024-03-09T09:53:14.000Z</time>
</trkpt>
<trkpt lat="46.2519050" lon="10.5442980">
	<ele>1648.60</ele>
	<time>2024-03-09T09:53:15.000Z</time>
</trkpt>
<trkpt lat="46.2519050" lon="10.5442980">
	<ele>1648.60</ele>
	<time>2024-03-09T09:53:16.000Z</time>
</trkpt>
<trkpt lat="46.2519050" lon="10.5442990">
	<ele>1648.60</ele>
	<time>2024-03-09T09:53:17.000Z</time>
</trkpt>
<trkpt lat="46.2519050" lon="10.5442990">
	<ele>1648.60</ele>
	<time>2024-03-09T09:53:18.000Z</time>
</trkpt>
<trkpt lat="46.2519050" lon="10.5442990">
	<ele>1648.60</ele>
	<time>2024-03-09T09:53:19.000Z</time>
</trkpt>
<trkpt lat="46.2519050" lon="10.5442990">
	<ele>1648.60</ele>
	<time>2024-03-09T09:53:20.000Z</time>
</trkpt>
<trkpt lat="46.2519050" lon="10.5442990">
	<ele>1648.60</ele>
	<time>2024-03-09T09:53:21.000Z</time>
</trkpt>
<trkpt lat="46.2519050" lon="10.5442990">
	<ele>1648.60</ele>
	<time>2024-03-09T09:53:22.000Z</time>
</trkpt>
<trkpt lat="46.2519050" lon="10.5442990">
	<ele>1648.60</ele>
	<time>2024-03-09T09:53:23.000Z</time>
</trkpt>
<trkpt lat="46.2519050" lon="10.5442990">
	<ele>1648.60</ele>
	<time>2024-03-09T09:53:24.000Z</time>
</trkpt>
<trkpt lat="46.2519050" lon="10.5442990">
	<ele>1648.60</ele>
	<time>2024-03-09T09:53:25.000Z</time>
</trkpt>
<trkpt lat="46.2519050" lon="10.5442990">
	<ele>1648.60</ele>
	<time>2024-03-09T09:53:26.000Z</time>
</trkpt>
<trkpt lat="46.2519050" lon="10.5442990">
	<ele>1648.60</ele>
	<time>2024-03-09T09:53:27.000Z</time>
</trkpt>
<trkpt lat="46.2519050" lon="10.5442990">
	<ele>1648.60</ele>
	<time>2024-03-09T09:53:28.000Z</time>
</trkpt>
<trkpt lat="46.2519050" lon="10.5442990">
	<ele>1648.60</ele>
	<time>2024-03-09T09:53:29.000Z</time>
</trkpt>
<trkpt lat="46.2519050" lon="10.5442990">
	<ele>1648.60</ele>
	<time>2024-03-09T09:53:30.000Z</time>
</trkpt>
<trkpt lat="46.2519050" lon="10.5442990">
	<ele>1648.60</ele>
	<time>2024-03-09T09:53:31.000Z</time>
</trkpt>
<trkpt lat="46.2519050" lon="10.5442990">
	<ele>1648.60</ele>
	<time>2024-03-09T09:53:32.000Z</time>
</trkpt>
<trkpt lat="46.2519050" lon="10.5442990">
	<ele>1648.60</ele>
	<time>2024-03-09T09:53:33.000Z</time>
</trkpt>
<trkpt lat="46.2519050" lon="10.5442990">
	<ele>1648.60</ele>
	<time>2024-03-09T09:53:34.000Z</time>
</trkpt>
<trkpt lat="46.2519050" lon="10.5442990">
	<ele>1648.60</ele>
	<time>2024-03-09T09:53:35.000Z</time>
</trkpt>
<trkpt lat="46.2519060" lon="10.5442990">
	<ele>1648.60</ele>
	<time>2024-03-09T09:53:36.000Z</time>
</trkpt>
<trkpt lat="46.2519060" lon="10.5442980">
	<ele>1648.60</ele>
	<time>2024-03-09T09:53:37.000Z</time>
</trkpt>
<trkpt lat="46.2519060" lon="10.5442980">
	<ele>1648.60</ele>
	<time>2024-03-09T09:53:38.000Z</time>
</trkpt>
<trkpt lat="46.2519060" lon="10.5442980">
	<ele>1648.60</ele>
	<time>2024-03-09T09:53:39.000Z</time>
</trkpt>
<trkpt lat="46.2519060" lon="10.5442980">
	<ele>1648.60</ele>
	<time>2024-03-09T09:53:40.000Z</time>
</trkpt>
<trkpt lat="46.2519060" lon="10.5442980">
	<ele>1648.60</ele>
	<time>2024-03-09T09:53:41.000Z</time>
</trkpt>
<trkpt lat="46.2519060" lon="10.5442980">
	<ele>1648.60</ele>
	<time>2024-03-09T09:53:42.000Z</time>
</trkpt>
<trkpt lat="46.2519060" lon="10.5442980">
	<ele>1648.60</ele>
	<time>2024-03-09T09:53:43.000Z</time>
</trkpt>
<trkpt lat="46.2519060" lon="10.5442980">
	<ele>1648.60</ele>
	<time>2024-03-09T09:53:44.000Z</time>
</trkpt>
<trkpt lat="46.2519060" lon="10.5442980">
	<ele>1648.60</ele>
	<time>2024-03-09T09:53:45.000Z</time>
</trkpt>
<trkpt lat="46.2519060" lon="10.5442980">
	<ele>1648.60</ele>
	<time>2024-03-09T09:53:46.000Z</time>
</trkpt>
<trkpt lat="46.2519060" lon="10.5442980">
	<ele>1648.60</ele>
	<time>2024-03-09T09:53:47.000Z</time>
</trkpt>
<trkpt lat="46.2519060" lon="10.5442980">
	<ele>1648.60</ele>
	<time>2024-03-09T09:53:48.000Z</time>
</trkpt>
<trkpt lat="46.2519060" lon="10.5442980">
	<ele>1648.60</ele>
	<time>2024-03-09T09:53:49.000Z</time>
</trkpt>
<trkpt lat="46.2519060" lon="10.5442980">
	<ele>1648.60</ele>
	<time>2024-03-09T09:53:50.000Z</time>
</trkpt>
<trkpt lat="46.2519060" lon="10.5442980">
	<ele>1648.60</ele>
	<time>2024-03-09T09:53:51.000Z</time>
</trkpt>
<trkpt lat="46.2519060" lon="10.5442990">
	<ele>1648.60</ele>
	<time>2024-03-09T09:53:52.000Z</time>
</trkpt>
<trkpt lat="46.2519060" lon="10.5442980">
	<ele>1648.60</ele>
	<time>2024-03-09T09:53:53.000Z</time>
</trkpt>
<trkpt lat="46.2519060" lon="10.5442980">
	<ele>1648.60</ele>
	<time>2024-03-09T09:53:54.000Z</time>
</trkpt>
<trkpt lat="46.2519060" lon="10.5442980">
	<ele>1648.60</ele>
	<time>2024-03-09T09:53:55.000Z</time>
</trkpt>
<trkpt lat="46.2519060" lon="10.5442980">
	<ele>1648.60</ele>
	<time>2024-03-09T09:53:56.000Z</time>
</trkpt>
<trkpt lat="46.2519060" lon="10.5442980">
	<ele>1648.60</ele>
	<time>2024-03-09T09:53:57.000Z</time>
</trkpt>
<trkpt lat="46.2519060" lon="10.5442990">
	<ele>1648.60</ele>
	<time>2024-03-09T09:53:58.000Z</time>
</trkpt>
<trkpt lat="46.2519060" lon="10.5442990">
	<ele>1648.60</ele>
	<time>2024-03-09T09:53:59.000Z</time>
</trkpt>
<trkpt lat="46.2519060" lon="10.5442980">
	<ele>1648.60</ele>
	<time>2024-03-09T09:54:00.000Z</time>
</trkpt>
<trkpt lat="46.2519060" lon="10.5442980">
	<ele>1648.60</ele>
	<time>2024-03-09T09:54:01.000Z</time>
</trkpt>
<trkpt lat="46.2519060" lon="10.5442980">
	<ele>1648.60</ele>
	<time>2024-03-09T09:54:02.000Z</time>
</trkpt>
<trkpt lat="46.2519060" lon="10.5442980">
	<ele>1648.60</ele>
	<time>2024-03-09T09:54:03.000Z</time>
</trkpt>
<trkpt lat="46.2519060" lon="10.5442980">
	<ele>1648.60</ele>
	<time>2024-03-09T09:54:04.000Z</time>
</trkpt>
<trkpt lat="46.2519060" lon="10.5442980">
	<ele>1648.60</ele>
	<time>2024-03-09T09:54:05.000Z</time>
</trkpt>
<trkpt lat="46.2519060" lon="10.5442980">
	<ele>1648.60</ele>
	<time>2024-03-09T09:54:06.000Z</time>
</trkpt>
<trkpt lat="46.2519060" lon="10.5442980">
	<ele>1648.60</ele>
	<time>2024-03-09T09:54:07.000Z</time>
</trkpt>
<trkpt lat="46.2519060" lon="10.5442980">
	<ele>1648.60</ele>
	<time>2024-03-09T09:54:08.000Z</time>
</trkpt>
<trkpt lat="46.2519060" lon="10.5442980">
	<ele>1648.60</ele>
	<time>2024-03-09T09:54:09.000Z</time>
</trkpt>
<trkpt lat="46.2519060" lon="10.5442980">
	<ele>1648.60</ele>
	<time>2024-03-09T09:54:10.000Z</time>
</trkpt>
<trkpt lat="46.2519060" lon="10.5442980">
	<ele>1648.60</ele>
	<time>2024-03-09T09:54:11.000Z</time>
</trkpt>
<trkpt lat="46.2519060" lon="10.5442980">
	<ele>1648.60</ele>
	<time>2024-03-09T09:54:12.000Z</time>
</trkpt>
<trkpt lat="46.2519060" lon="10.5442980">
	<ele>1648.60</ele>
	<time>2024-03-09T09:54:13.000Z</time>
</trkpt>
<trkpt lat="46.2519060" lon="10.5442980">
	<ele>1648.60</ele>
	<time>2024-03-09T09:54:14.000Z</time>
</trkpt>
<trkpt lat="46.2519060" lon="10.5442980">
	<ele>1648.60</ele>
	<time>2024-03-09T09:54:15.000Z</time>
</trkpt>
<trkpt lat="46.2519060" lon="10.5442980">
	<ele>1648.60</ele>
	<time>2024-03-09T09:54:16.000Z</time>
</trkpt>
<trkpt lat="46.2519060" lon="10.5442990">
	<ele>1648.60</ele>
	<time>2024-03-09T09:54:17.000Z</time>
</trkpt>
<trkpt lat="46.2519060" lon="10.5442980">
	<ele>1648.60</ele>
	<time>2024-03-09T09:54:18.000Z</time>
</trkpt>
<trkpt lat="46.2519070" lon="10.5442980">
	<ele>1648.60</ele>
	<time>2024-03-09T09:54:19.000Z</time>
</trkpt>
<trkpt lat="46.2519070" lon="10.5442980">
	<ele>1648.60</ele>
	<time>2024-03-09T09:54:20.000Z</time>
</trkpt>
<trkpt lat="46.2519070" lon="10.5442980">
	<ele>1648.60</ele>
	<time>2024-03-09T09:54:21.000Z</time>
</trkpt>
<trkpt lat="46.2519070" lon="10.5442980">
	<ele>1648.60</ele>
	<time>2024-03-09T09:54:22.000Z</time>
</trkpt>
<trkpt lat="46.2519070" lon="10.5442980">
	<ele>1648.60</ele>
	<time>2024-03-09T09:54:23.000Z</time>
</trkpt>
<trkpt lat="46.2519070" lon="10.5442980">
	<ele>1648.60</ele>
	<time>2024-03-09T09:54:24.000Z</time>
</trkpt>
<trkpt lat="46.2519070" lon="10.5442980">
	<ele>1648.60</ele>
	<time>2024-03-09T09:54:25.000Z</time>
</trkpt>
<trkpt lat="46.2519070" lon="10.5442980">
	<ele>1648.60</ele>
	<time>2024-03-09T09:54:26.000Z</time>
</trkpt>
<trkpt lat="46.2519070" lon="10.5442980">
	<ele>1648.60</ele>
	<time>2024-03-09T09:54:27.000Z</time>
</trkpt>
<trkpt lat="46.2519070" lon="10.5442980">
	<ele>1648.60</ele>
	<time>2024-03-09T09:54:28.000Z</time>
</trkpt>
<trkpt lat="46.2519080" lon="10.5442990">
	<ele>1648.60</ele>
	<time>2024-03-09T09:54:29.000Z</time>
</trkpt>
<trkpt lat="46.2519080" lon="10.5442990">
	<ele>1648.60</ele>
	<time>2024-03-09T09:54:30.000Z</time>
</trkpt>
<trkpt lat="46.2519080" lon="10.5442990">
	<ele>1648.60</ele>
	<time>2024-03-09T09:54:31.000Z</time>
</trkpt>
<trkpt lat="46.2519080" lon="10.5442990">
	<ele>1648.60</ele>
	<time>2024-03-09T09:54:32.000Z</time>
</trkpt>
<trkpt lat="46.2519080" lon="10.5442990">
	<ele>1648.60</ele>
	<time>2024-03-09T09:54:33.000Z</time>
</trkpt>
<trkpt lat="46.2519080" lon="10.5442990">
	<ele>1648.60</ele>
	<time>2024-03-09T09:54:34.000Z</time>
</trkpt>
<trkpt lat="46.2519080" lon="10.5442990">
	<ele>1648.60</ele>
	<time>2024-03-09T09:54:35.000Z</time>
</trkpt>
<trkpt lat="46.2519080" lon="10.5442990">
	<ele>1648.60</ele>
	<time>2024-03-09T09:54:36.000Z</time>
</trkpt>
<trkpt lat="46.2519080" lon="10.5442990">
	<ele>1648.60</ele>
	<time>2024-03-09T09:54:37.000Z</time>
</trkpt>
<trkpt lat="46.2519090" lon="10.5442990">
	<ele>1648.60</ele>
	<time>2024-03-09T09:54:38.000Z</time>
</trkpt>
<trkpt lat="46.2519090" lon="10.5442990">
	<ele>1648.60</ele>
	<time>2024-03-09T09:54:39.000Z</time>
</trkpt>
<trkpt lat="46.2519090" lon="10.5442990">
	<ele>1648.60</ele>
	<time>2024-03-09T09:54:40.000Z</time>
</trkpt>
<trkpt lat="46.2519090" lon="10.5442990">
	<ele>1648.60</ele>
	<time>2024-03-09T09:54:41.000Z</time>
</trkpt>
<trkpt lat="46.2519090" lon="10.5442990">
	<ele>1648.60</ele>
	<time>2024-03-09T09:54:42.000Z</time>
</trkpt>
<trkpt lat="46.2519090" lon="10.5442990">
	<ele>1648.60</ele>
	<time>2024-03-09T09:54:43.000Z</time>
</trkpt>
<trkpt lat="46.2519090" lon="10.5442990">
	<ele>1648.60</ele>
	<time>2024-03-09T09:54:44.000Z</time>
</trkpt>
<trkpt lat="46.2519090" lon="10.5442990">
	<ele>1648.60</ele>
	<time>2024-03-09T09:54:45.000Z</time>
</trkpt>
<trkpt lat="46.2519090" lon="10.5442990">
	<ele>1648.60</ele>
	<time>2024-03-09T09:54:46.000Z</time>
</trkpt>
<trkpt lat="46.2519090" lon="10.5442990">
	<ele>1648.60</ele>
	<time>2024-03-09T09:54:47.000Z</time>
</trkpt>
<trkpt lat="46.2519090" lon="10.5442990">
	<ele>1648.60</ele>
	<time>2024-03-09T09:54:48.000Z</time>
</trkpt>
<trkpt lat="46.2519090" lon="10.5442990">
	<ele>1648.60</ele>
	<time>2024-03-09T09:54:49.000Z</time>
</trkpt>
<trkpt lat="46.2519090" lon="10.5442990">
	<ele>1648.60</ele>
	<time>2024-03-09T09:54:50.000Z</time>
</trkpt>
<trkpt lat="46.2519090" lon="10.5442990">
	<ele>1648.60</ele>
	<time>2024-03-09T09:54:51.000Z</time>
</trkpt>
<trkpt lat="46.2519090" lon="10.5442990">
	<ele>1648.60</ele>
	<time>2024-03-09T09:54:52.000Z</time>
</trkpt>
<trkpt lat="46.2519090" lon="10.5442990">
	<ele>1648.60</ele>
	<time>2024-03-09T09:54:53.000Z</time>
</trkpt>
<trkpt lat="46.2519090" lon="10.5442990">
	<ele>1648.60</ele>
	<time>2024-03-09T09:54:54.000Z</time>
</trkpt>
<trkpt lat="46.2519090" lon="10.5442990">
	<ele>1648.60</ele>
	<time>2024-03-09T09:54:55.000Z</time>
</trkpt>
<trkpt lat="46.2519090" lon="10.5442990">
	<ele>1648.60</ele>
	<time>2024-03-09T09:54:56.000Z</time>
</trkpt>
<trkpt lat="46.2519090" lon="10.5442990">
	<ele>1648.60</ele>
	<time>2024-03-09T09:54:57.000Z</time>
</trkpt>
<trkpt lat="46.2519090" lon="10.5442990">
	<ele>1648.60</ele>
	<time>2024-03-09T09:54:58.000Z</time>
</trkpt>
<trkpt lat="46.2519090" lon="10.5442990">
	<ele>1648.60</ele>
	<time>2024-03-09T09:54:59.000Z</time>
</trkpt>
<trkpt lat="46.2519090" lon="10.5442990">
	<ele>1648.60</ele>
	<time>2024-03-09T09:55:00.000Z</time>
</trkpt>
<trkpt lat="46.2519090" lon="10.5442990">
	<ele>1648.60</ele>
	<time>2024-03-09T09:55:01.000Z</time>
</trkpt>
<trkpt lat="46.2519090" lon="10.5442990">
	<ele>1648.60</ele>
	<time>2024-03-09T09:55:02.000Z</time>
</trkpt>
<trkpt lat="46.2519090" lon="10.5442990">
	<ele>1648.60</ele>
	<time>2024-03-09T09:55:03.000Z</time>
</trkpt>
<trkpt lat="46.2519090" lon="10.5442990">
	<ele>1648.60</ele>
	<time>2024-03-09T09:55:04.000Z</time>
</trkpt>
<trkpt lat="46.2519090" lon="10.5442990">
	<ele>1648.60</ele>
	<time>2024-03-09T09:55:05.000Z</time>
</trkpt>
<trkpt lat="46.2519090" lon="10.5442990">
	<ele>1648.60</ele>
	<time>2024-03-09T09:55:06.000Z</time>
</trkpt>
<trkpt lat="46.2519090" lon="10.5442990">
	<ele>1648.60</ele>
	<time>2024-03-09T09:55:07.000Z</time>
</trkpt>
<trkpt lat="46.2519090" lon="10.5442990">
	<ele>1648.60</ele>
	<time>2024-03-09T09:55:08.000Z</time>
</trkpt>
<trkpt lat="46.2519090" lon="10.5442990">
	<ele>1648.60</ele>
	<time>2024-03-09T09:55:09.000Z</time>
</trkpt>
<trkpt lat="46.2519090" lon="10.5442990">
	<ele>1648.60</ele>
	<time>2024-03-09T09:55:10.000Z</time>
</trkpt>
<trkpt lat="46.2519090" lon="10.5442990">
	<ele>1648.60</ele>
	<time>2024-03-09T09:55:11.000Z</time>
</trkpt>
<trkpt lat="46.2519090" lon="10.5442990">
	<ele>1648.60</ele>
	<time>2024-03-09T09:55:12.000Z</time>
</trkpt>
<trkpt lat="46.2519090" lon="10.5442990">
	<ele>1648.60</ele>
	<time>2024-03-09T09:55:13.000Z</time>
</trkpt>
<trkpt lat="46.2519090" lon="10.5442990">
	<ele>1648.60</ele>
	<time>2024-03-09T09:55:14.000Z</time>
</trkpt>
<trkpt lat="46.2519090" lon="10.5442990">
	<ele>1648.60</ele>
	<time>2024-03-09T09:55:15.000Z</time>
</trkpt>
<trkpt lat="46.2519090" lon="10.5442990">
	<ele>1648.60</ele>
	<time>2024-03-09T09:55:16.000Z</time>
</trkpt>
<trkpt lat="46.2519090" lon="10.5442990">
	<ele>1648.60</ele>
	<time>2024-03-09T09:55:17.000Z</time>
</trkpt>
<trkpt lat="46.2519090" lon="10.5442990">
	<ele>1648.60</ele>
	<time>2024-03-09T09:55:18.000Z</time>
</trkpt>
<trkpt lat="46.2519090" lon="10.5442980">
	<ele>1648.60</ele>
	<time>2024-03-09T09:55:19.000Z</time>
</trkpt>
<trkpt lat="46.2519090" lon="10.5442980">
	<ele>1648.60</ele>
	<time>2024-03-09T09:55:20.000Z</time>
</trkpt>
<trkpt lat="46.2519090" lon="10.5442980">
	<ele>1648.60</ele>
	<time>2024-03-09T09:55:21.000Z</time>
</trkpt>
<trkpt lat="46.2519090" lon="10.5442980">
	<ele>1648.60</ele>
	<time>2024-03-09T09:55:22.000Z</time>
</trkpt>
<trkpt lat="46.2519090" lon="10.5442990">
	<ele>1648.60</ele>
	<time>2024-03-09T09:55:23.000Z</time>
</trkpt>
<trkpt lat="46.2519090" lon="10.5442990">
	<ele>1648.60</ele>
	<time>2024-03-09T09:55:24.000Z</time>
</trkpt>
<trkpt lat="46.2519090" lon="10.5442990">
	<ele>1648.60</ele>
	<time>2024-03-09T09:55:25.000Z</time>
</trkpt>
<trkpt lat="46.2519090" lon="10.5442990">
	<ele>1648.60</ele>
	<time>2024-03-09T09:55:26.000Z</time>
</trkpt>
<trkpt lat="46.2519090" lon="10.5442990">
	<ele>1648.60</ele>
	<time>2024-03-09T09:55:27.000Z</time>
</trkpt>
<trkpt lat="46.2519090" lon="10.5442990">
	<ele>1648.60</ele>
	<time>2024-03-09T09:55:28.000Z</time>
</trkpt>
<trkpt lat="46.2519100" lon="10.5442990">
	<ele>1648.60</ele>
	<time>2024-03-09T09:55:29.000Z</time>
</trkpt>
<trkpt lat="46.2519100" lon="10.5442990">
	<ele>1648.60</ele>
	<time>2024-03-09T09:55:30.000Z</time>
</trkpt>
<trkpt lat="46.2519100" lon="10.5442980">
	<ele>1648.60</ele>
	<time>2024-03-09T09:55:31.000Z</time>
</trkpt>
<trkpt lat="46.2519100" lon="10.5442980">
	<ele>1648.60</ele>
	<time>2024-03-09T09:55:32.000Z</time>
</trkpt>
<trkpt lat="46.2519100" lon="10.5442980">
	<ele>1648.60</ele>
	<time>2024-03-09T09:55:33.000Z</time>
</trkpt>
<trkpt lat="46.2519100" lon="10.5442980">
	<ele>1648.60</ele>
	<time>2024-03-09T09:55:34.000Z</time>
</trkpt>
<trkpt lat="46.2519100" lon="10.5442980">
	<ele>1648.60</ele>
	<time>2024-03-09T09:55:35.000Z</time>
</trkpt>
<trkpt lat="46.2519100" lon="10.5442990">
	<ele>1648.60</ele>
	<time>2024-03-09T09:55:36.000Z</time>
</trkpt>
<trkpt lat="46.2519100" lon="10.5442990">
	<ele>1648.60</ele>
	<time>2024-03-09T09:55:37.000Z</time>
</trkpt>
<trkpt lat="46.2519110" lon="10.5442990">
	<ele>1648.60</ele>
	<time>2024-03-09T09:55:38.000Z</time>
</trkpt>
<trkpt lat="46.2519100" lon="10.5442990">
	<ele>1648.60</ele>
	<time>2024-03-09T09:55:39.000Z</time>
</trkpt>
<trkpt lat="46.2519100" lon="10.5442990">
	<ele>1648.60</ele>
	<time>2024-03-09T09:55:40.000Z</time>
</trkpt>
<trkpt lat="46.2519100" lon="10.5442990">
	<ele>1648.60</ele>
	<time>2024-03-09T09:55:41.000Z</time>
</trkpt>
<trkpt lat="46.2519100" lon="10.5442990">
	<ele>1648.60</ele>
	<time>2024-03-09T09:55:42.000Z</time>
</trkpt>
<trkpt lat="46.2519100" lon="10.5442990">
	<ele>1648.60</ele>
	<time>2024-03-09T09:55:43.000Z</time>
</trkpt>
<trkpt lat="46.2519100" lon="10.5442980">
	<ele>1648.60</ele>
	<time>2024-03-09T09:55:44.000Z</time>
</trkpt>
<trkpt lat="46.2519100" lon="10.5442980">
	<ele>1648.60</ele>
	<time>2024-03-09T09:55:45.000Z</time>
</trkpt>
<trkpt lat="46.2519100" lon="10.5442980">
	<ele>1648.60</ele>
	<time>2024-03-09T09:55:46.000Z</time>
</trkpt>
<trkpt lat="46.2519100" lon="10.5442980">
	<ele>1648.60</ele>
	<time>2024-03-09T09:55:47.000Z</time>
</trkpt>
<trkpt lat="46.2519100" lon="10.5442980">
	<ele>1648.60</ele>
	<time>2024-03-09T09:55:48.000Z</time>
</trkpt>
<trkpt lat="46.2519100" lon="10.5442980">
	<ele>1648.60</ele>
	<time>2024-03-09T09:55:49.000Z</time>
</trkpt>
<trkpt lat="46.2519090" lon="10.5442980">
	<ele>1648.60</ele>
	<time>2024-03-09T09:55:50.000Z</time>
</trkpt>
<trkpt lat="46.2519090" lon="10.5442990">
	<ele>1648.60</ele>
	<time>2024-03-09T09:55:51.000Z</time>
</trkpt>
<trkpt lat="46.2519090" lon="10.5442990">
	<ele>1648.60</ele>
	<time>2024-03-09T09:55:52.000Z</time>
</trkpt>
<trkpt lat="46.2519090" lon="10.5442990">
	<ele>1648.60</ele>
	<time>2024-03-09T09:55:53.000Z</time>
</trkpt>
<trkpt lat="46.2519090" lon="10.5442990">
	<ele>1648.60</ele>
	<time>2024-03-09T09:55:54.000Z</time>
</trkpt>
<trkpt lat="46.2519090" lon="10.5442980">
	<ele>1648.60</ele>
	<time>2024-03-09T09:55:55.000Z</time>
</trkpt>
<trkpt lat="46.2519090" lon="10.5442980">
	<ele>1648.60</ele>
	<time>2024-03-09T09:55:56.000Z</time>
</trkpt>
<trkpt lat="46.2519090" lon="10.5442980">
	<ele>1648.60</ele>
	<time>2024-03-09T09:55:57.000Z</time>
</trkpt>
<trkpt lat="46.2519090" lon="10.5442980">
	<ele>1648.60</ele>
	<time>2024-03-09T09:55:58.000Z</time>
</trkpt>
<trkpt lat="46.2519090" lon="10.5442980">
	<ele>1648.60</ele>
	<time>2024-03-09T09:55:59.000Z</time>
</trkpt>
<trkpt lat="46.2519090" lon="10.5442990">
	<ele>1648.60</ele>
	<time>2024-03-09T09:56:00.000Z</time>
</trkpt>
<trkpt lat="46.2519090" lon="10.5442990">
	<ele>1648.60</ele>
	<time>2024-03-09T09:56:01.000Z</time>
</trkpt>
<trkpt lat="46.2519090" lon="10.5442990">
	<ele>1648.60</ele>
	<time>2024-03-09T09:56:02.000Z</time>
</trkpt>
<trkpt lat="46.2519090" lon="10.5442990">
	<ele>1648.60</ele>
	<time>2024-03-09T09:56:03.000Z</time>
</trkpt>
<trkpt lat="46.2519090" lon="10.5442990">
	<ele>1648.60</ele>
	<time>2024-03-09T09:56:04.000Z</time>
</trkpt>
<trkpt lat="46.2519090" lon="10.5442990">
	<ele>1648.60</ele>
	<time>2024-03-09T09:56:05.000Z</time>
</trkpt>
<trkpt lat="46.2519090" lon="10.5442990">
	<ele>1648.60</ele>
	<time>2024-03-09T09:56:06.000Z</time>
</trkpt>
<trkpt lat="46.2519090" lon="10.5442990">
	<ele>1648.60</ele>
	<time>2024-03-09T09:56:07.000Z</time>
</trkpt>
<trkpt lat="46.2519090" lon="10.5442990">
	<ele>1648.60</ele>
	<time>2024-03-09T09:56:08.000Z</time>
</trkpt>
<trkpt lat="46.2519090" lon="10.5442990">
	<ele>1648.60</ele>
	<time>2024-03-09T09:56:09.000Z</time>
</trkpt>
<trkpt lat="46.2519090" lon="10.5442990">
	<ele>1648.60</ele>
	<time>2024-03-09T09:56:10.000Z</time>
</trkpt>
<trkpt lat="46.2519090" lon="10.5442990">
	<ele>1648.60</ele>
	<time>2024-03-09T09:56:11.000Z</time>
</trkpt>
<trkpt lat="46.2519090" lon="10.5442990">
	<ele>1648.60</ele>
	<time>2024-03-09T09:56:12.000Z</time>
</trkpt>
<trkpt lat="46.2519090" lon="10.5442990">
	<ele>1648.60</ele>
	<time>2024-03-09T09:56:13.000Z</time>
</trkpt>
<trkpt lat="46.2519090" lon="10.5442990">
	<ele>1648.60</ele>
	<time>2024-03-09T09:56:14.000Z</time>
</trkpt>
<trkpt lat="46.2519090" lon="10.5442990">
	<ele>1648.60</ele>
	<time>2024-03-09T09:56:15.000Z</time>
</trkpt>
<trkpt lat="46.2519090" lon="10.5442990">
	<ele>1648.60</ele>
	<time>2024-03-09T09:56:16.000Z</time>
</trkpt>
<trkpt lat="46.2519090" lon="10.5442990">
	<ele>1648.60</ele>
	<time>2024-03-09T09:56:17.000Z</time>
</trkpt>
<trkpt lat="46.2519090" lon="10.5442990">
	<ele>1648.60</ele>
	<time>2024-03-09T09:56:18.000Z</time>
</trkpt>
<trkpt lat="46.2519090" lon="10.5442990">
	<ele>1648.60</ele>
	<time>2024-03-09T09:56:19.000Z</time>
</trkpt>
<trkpt lat="46.2519090" lon="10.5442990">
	<ele>1648.60</ele>
	<time>2024-03-09T09:56:20.000Z</time>
</trkpt>
<trkpt lat="46.2519090" lon="10.5442990">
	<ele>1648.60</ele>
	<time>2024-03-09T09:56:21.000Z</time>
</trkpt>
<trkpt lat="46.2519090" lon="10.5442990">
	<ele>1648.60</ele>
	<time>2024-03-09T09:56:22.000Z</time>
</trkpt>
<trkpt lat="46.2519090" lon="10.5442990">
	<ele>1648.60</ele>
	<time>2024-03-09T09:56:23.000Z</time>
</trkpt>
<trkpt lat="46.2519090" lon="10.5442990">
	<ele>1648.60</ele>
	<time>2024-03-09T09:56:24.000Z</time>
</trkpt>
<trkpt lat="46.2519090" lon="10.5442990">
	<ele>1648.60</ele>
	<time>2024-03-09T09:56:25.000Z</time>
</trkpt>
<trkpt lat="46.2519090" lon="10.5442990">
	<ele>1648.60</ele>
	<time>2024-03-09T09:56:26.000Z</time>
</trkpt>
<trkpt lat="46.2519090" lon="10.5442990">
	<ele>1648.60</ele>
	<time>2024-03-09T09:56:27.000Z</time>
</trkpt>
<trkpt lat="46.2519090" lon="10.5442990">
	<ele>1648.60</ele>
	<time>2024-03-09T09:56:28.000Z</time>
</trkpt>
<trkpt lat="46.2519090" lon="10.5442990">
	<ele>1648.60</ele>
	<time>2024-03-09T09:56:29.000Z</time>
</trkpt>
<trkpt lat="46.2519090" lon="10.5442990">
	<ele>1648.60</ele>
	<time>2024-03-09T09:56:30.000Z</time>
</trkpt>
<trkpt lat="46.2519090" lon="10.5442990">
	<ele>1648.60</ele>
	<time>2024-03-09T09:56:31.000Z</time>
</trkpt>
<trkpt lat="46.2519090" lon="10.5442990">
	<ele>1648.60</ele>
	<time>2024-03-09T09:56:32.000Z</time>
</trkpt>
<trkpt lat="46.2519090" lon="10.5442990">
	<ele>1648.60</ele>
	<time>2024-03-09T09:56:33.000Z</time>
</trkpt>
<trkpt lat="46.2519090" lon="10.5442990">
	<ele>1648.60</ele>
	<time>2024-03-09T09:56:34.000Z</time>
</trkpt>
<trkpt lat="46.2519090" lon="10.5443000">
	<ele>1648.60</ele>
	<time>2024-03-09T09:56:35.000Z</time>
</trkpt>
<trkpt lat="46.2519090" lon="10.5443000">
	<ele>1648.60</ele>
	<time>2024-03-09T09:56:36.000Z</time>
</trkpt>
<trkpt lat="46.2519090" lon="10.5443000">
	<ele>1648.60</ele>
	<time>2024-03-09T09:56:37.000Z</time>
</trkpt>
<trkpt lat="46.2519090" lon="10.5443000">
	<ele>1648.60</ele>
	<time>2024-03-09T09:56:38.000Z</time>
</trkpt>
<trkpt lat="46.2519090" lon="10.5443000">
	<ele>1648.60</ele>
	<time>2024-03-09T09:56:39.000Z</time>
</trkpt>
<trkpt lat="46.2519090" lon="10.5443000">
	<ele>1648.60</ele>
	<time>2024-03-09T09:56:40.000Z</time>
</trkpt>
<trkpt lat="46.2519090" lon="10.5443000">
	<ele>1648.60</ele>
	<time>2024-03-09T09:56:41.000Z</time>
</trkpt>
<trkpt lat="46.2519090" lon="10.5443000">
	<ele>1648.60</ele>
	<time>2024-03-09T09:56:42.000Z</time>
</trkpt>
<trkpt lat="46.2519090" lon="10.5443000">
	<ele>1648.60</ele>
	<time>2024-03-09T09:56:43.000Z</time>
</trkpt>
<trkpt lat="46.2519090" lon="10.5443000">
	<ele>1648.60</ele>
	<time>2024-03-09T09:56:44.000Z</time>
</trkpt>
<trkpt lat="46.2519090" lon="10.5443000">
	<ele>1648.60</ele>
	<time>2024-03-09T09:56:45.000Z</time>
</trkpt>
<trkpt lat="46.2519090" lon="10.5443000">
	<ele>1648.60</ele>
	<time>2024-03-09T09:56:46.000Z</time>
</trkpt>
<trkpt lat="46.2519090" lon="10.5443000">
	<ele>1648.60</ele>
	<time>2024-03-09T09:56:47.000Z</time>
</trkpt>
<trkpt lat="46.2519090" lon="10.5443000">
	<ele>1648.60</ele>
	<time>2024-03-09T09:56:48.000Z</time>
</trkpt>
<trkpt lat="46.2519090" lon="10.5443000">
	<ele>1648.60</ele>
	<time>2024-03-09T09:56:49.000Z</time>
</trkpt>
<trkpt lat="46.2519090" lon="10.5443000">
	<ele>1648.60</ele>
	<time>2024-03-09T09:56:50.000Z</time>
</trkpt>
<trkpt lat="46.2519090" lon="10.5443000">
	<ele>1648.60</ele>
	<time>2024-03-09T09:56:51.000Z</time>
</trkpt>
<trkpt lat="46.2519090" lon="10.5443000">
	<ele>1648.60</ele>
	<time>2024-03-09T09:56:52.000Z</time>
</trkpt>
<trkpt lat="46.2519090" lon="10.5443000">
	<ele>1648.60</ele>
	<time>2024-03-09T09:56:53.000Z</time>
</trkpt>
<trkpt lat="46.2519090" lon="10.5443000">
	<ele>1648.60</ele>
	<time>2024-03-09T09:56:54.000Z</time>
</trkpt>
<trkpt lat="46.2519090" lon="10.5443000">
	<ele>1648.60</ele>
	<time>2024-03-09T09:56:55.000Z</time>
</trkpt>
<trkpt lat="46.2519090" lon="10.5443000">
	<ele>1648.60</ele>
	<time>2024-03-09T09:56:56.000Z</time>
</trkpt>
<trkpt lat="46.2519090" lon="10.5443000">
	<ele>1648.60</ele>
	<time>2024-03-09T09:56:57.000Z</time>
</trkpt>
<trkpt lat="46.2519090" lon="10.5443000">
	<ele>1648.60</ele>
	<time>2024-03-09T09:56:58.000Z</time>
</trkpt>
<trkpt lat="46.2519080" lon="10.5443000">
	<ele>1648.60</ele>
	<time>2024-03-09T09:56:59.000Z</time>
</trkpt>
<trkpt lat="46.2519080" lon="10.5443000">
	<ele>1648.60</ele>
	<time>2024-03-09T09:57:00.000Z</time>
</trkpt>
<trkpt lat="46.2519080" lon="10.5443000">
	<ele>1648.60</ele>
	<time>2024-03-09T09:57:01.000Z</time>
</trkpt>
<trkpt lat="46.2519080" lon="10.5443000">
	<ele>1648.60</ele>
	<time>2024-03-09T09:57:02.000Z</time>
</trkpt>
<trkpt lat="46.2519080" lon="10.5443000">
	<ele>1648.60</ele>
	<time>2024-03-09T09:57:03.000Z</time>
</trkpt>
<trkpt lat="46.2519080" lon="10.5442990">
	<ele>1648.60</ele>
	<time>2024-03-09T09:57:04.000Z</time>
</trkpt>
<trkpt lat="46.2519080" lon="10.5442990">
	<ele>1648.60</ele>
	<time>2024-03-09T09:57:05.000Z</time>
</trkpt>
<trkpt lat="46.2519080" lon="10.5442990">
	<ele>1648.60</ele>
	<time>2024-03-09T09:57:06.000Z</time>
</trkpt>
<trkpt lat="46.2519080" lon="10.5442990">
	<ele>1648.60</ele>
	<time>2024-03-09T09:57:07.000Z</time>
</trkpt>
<trkpt lat="46.2519080" lon="10.5442990">
	<ele>1648.60</ele>
	<time>2024-03-09T09:57:08.000Z</time>
</trkpt>
<trkpt lat="46.2519080" lon="10.5442990">
	<ele>1648.60</ele>
	<time>2024-03-09T09:57:09.000Z</time>
</trkpt>
<trkpt lat="46.2519080" lon="10.5442990">
	<ele>1648.60</ele>
	<time>2024-03-09T09:57:10.000Z</time>
</trkpt>
<trkpt lat="46.2519080" lon="10.5442990">
	<ele>1648.60</ele>
	<time>2024-03-09T09:57:11.000Z</time>
</trkpt>
<trkpt lat="46.2519080" lon="10.5442990">
	<ele>1648.60</ele>
	<time>2024-03-09T09:57:12.000Z</time>
</trkpt>
<trkpt lat="46.2519080" lon="10.5442990">
	<ele>1648.60</ele>
	<time>2024-03-09T09:57:13.000Z</time>
</trkpt>
<trkpt lat="46.2519080" lon="10.5443000">
	<ele>1648.60</ele>
	<time>2024-03-09T09:57:14.000Z</time>
</trkpt>
<trkpt lat="46.2519080" lon="10.5443000">
	<ele>1648.60</ele>
	<time>2024-03-09T09:57:15.000Z</time>
</trkpt>
<trkpt lat="46.2519080" lon="10.5443000">
	<ele>1648.60</ele>
	<time>2024-03-09T09:57:16.000Z</time>
</trkpt>
<trkpt lat="46.2519080" lon="10.5443000">
	<ele>1648.60</ele>
	<time>2024-03-09T09:57:17.000Z</time>
</trkpt>
<trkpt lat="46.2519080" lon="10.5443000">
	<ele>1648.60</ele>
	<time>2024-03-09T09:57:18.000Z</time>
</trkpt>
<trkpt lat="46.2519080" lon="10.5443000">
	<ele>1648.60</ele>
	<time>2024-03-09T09:57:19.000Z</time>
</trkpt>
<trkpt lat="46.2519080" lon="10.5443000">
	<ele>1648.60</ele>
	<time>2024-03-09T09:57:20.000Z</time>
</trkpt>
<trkpt lat="46.2519080" lon="10.5443000">
	<ele>1648.60</ele>
	<time>2024-03-09T09:57:21.000Z</time>
</trkpt>
<trkpt lat="46.2519080" lon="10.5443000">
	<ele>1648.60</ele>
	<time>2024-03-09T09:57:22.000Z</time>
</trkpt>
<trkpt lat="46.2519080" lon="10.5443000">
	<ele>1648.60</ele>
	<time>2024-03-09T09:57:23.000Z</time>
</trkpt>
<trkpt lat="46.2519080" lon="10.5443000">
	<ele>1648.60</ele>
	<time>2024-03-09T09:57:24.000Z</time>
</trkpt>
<trkpt lat="46.2519080" lon="10.5443000">
	<ele>1648.60</ele>
	<time>2024-03-09T09:57:25.000Z</time>
</trkpt>
<trkpt lat="46.2519080" lon="10.5443000">
	<ele>1648.60</ele>
	<time>2024-03-09T09:57:26.000Z</time>
</trkpt>
<trkpt lat="46.2519080" lon="10.5442990">
	<ele>1648.60</ele>
	<time>2024-03-09T09:57:27.000Z</time>
</trkpt>
<trkpt lat="46.2519080" lon="10.5442990">
	<ele>1648.60</ele>
	<time>2024-03-09T09:57:28.000Z</time>
</trkpt>
<trkpt lat="46.2519070" lon="10.5442990">
	<ele>1648.60</ele>
	<time>2024-03-09T09:57:29.000Z</time>
</trkpt>
<trkpt lat="46.2519070" lon="10.5443000">
	<ele>1648.60</ele>
	<time>2024-03-09T09:57:30.000Z</time>
</trkpt>
<trkpt lat="46.2519070" lon="10.5443000">
	<ele>1648.60</ele>
	<time>2024-03-09T09:57:31.000Z</time>
</trkpt>
<trkpt lat="46.2519070" lon="10.5443000">
	<ele>1648.60</ele>
	<time>2024-03-09T09:57:32.000Z</time>
</trkpt>
<trkpt lat="46.2519070" lon="10.5443000">
	<ele>1648.60</ele>
	<time>2024-03-09T09:57:33.000Z</time>
</trkpt>
<trkpt lat="46.2519070" lon="10.5443000">
	<ele>1648.60</ele>
	<time>2024-03-09T09:57:34.000Z</time>
</trkpt>
<trkpt lat="46.2519070" lon="10.5443000">
	<ele>1648.60</ele>
	<time>2024-03-09T09:57:35.000Z</time>
</trkpt>
<trkpt lat="46.2519070" lon="10.5443000">
	<ele>1648.60</ele>
	<time>2024-03-09T09:57:36.000Z</time>
</trkpt>
<trkpt lat="46.2519070" lon="10.5443000">
	<ele>1648.60</ele>
	<time>2024-03-09T09:57:37.000Z</time>
</trkpt>
<trkpt lat="46.2519070" lon="10.5443000">
	<ele>1648.60</ele>
	<time>2024-03-09T09:57:38.000Z</time>
</trkpt>
<trkpt lat="46.2519070" lon="10.5443000">
	<ele>1648.60</ele>
	<time>2024-03-09T09:57:39.000Z</time>
</trkpt>
<trkpt lat="46.2519070" lon="10.5443000">
	<ele>1648.60</ele>
	<time>2024-03-09T09:57:40.000Z</time>
</trkpt>
<trkpt lat="46.2519070" lon="10.5443000">
	<ele>1648.60</ele>
	<time>2024-03-09T09:57:41.000Z</time>
</trkpt>
<trkpt lat="46.2519070" lon="10.5443000">
	<ele>1648.60</ele>
	<time>2024-03-09T09:57:42.000Z</time>
</trkpt>
<trkpt lat="46.2519070" lon="10.5443000">
	<ele>1648.60</ele>
	<time>2024-03-09T09:57:43.000Z</time>
</trkpt>
<trkpt lat="46.2519070" lon="10.5443000">
	<ele>1648.60</ele>
	<time>2024-03-09T09:57:44.000Z</time>
</trkpt>
<trkpt lat="46.2519070" lon="10.5443000">
	<ele>1648.60</ele>
	<time>2024-03-09T09:57:45.000Z</time>
</trkpt>
<trkpt lat="46.2519070" lon="10.5443000">
	<ele>1648.60</ele>
	<time>2024-03-09T09:57:46.000Z</time>
</trkpt>
<trkpt lat="46.2519070" lon="10.5443000">
	<ele>1648.60</ele>
	<time>2024-03-09T09:57:47.000Z</time>
</trkpt>
<trkpt lat="46.2519070" lon="10.5443000">
	<ele>1648.60</ele>
	<time>2024-03-09T09:57:48.000Z</time>
</trkpt>
<trkpt lat="46.2519070" lon="10.5443000">
	<ele>1648.60</ele>
	<time>2024-03-09T09:57:49.000Z</time>
</trkpt>
<trkpt lat="46.2519070" lon="10.5443000">
	<ele>1648.60</ele>
	<time>2024-03-09T09:57:50.000Z</time>
</trkpt>
<trkpt lat="46.2519070" lon="10.5443000">
	<ele>1648.60</ele>
	<time>2024-03-09T09:57:51.000Z</time>
</trkpt>
<trkpt lat="46.2519070" lon="10.5443000">
	<ele>1648.60</ele>
	<time>2024-03-09T09:57:52.000Z</time>
</trkpt>
<trkpt lat="46.2519070" lon="10.5443000">
	<ele>1648.60</ele>
	<time>2024-03-09T09:57:53.000Z</time>
</trkpt>
<trkpt lat="46.2519070" lon="10.5443000">
	<ele>1648.60</ele>
	<time>2024-03-09T09:57:54.000Z</time>
</trkpt>
<trkpt lat="46.2519070" lon="10.5443000">
	<ele>1648.60</ele>
	<time>2024-03-09T09:57:55.000Z</time>
</trkpt>
<trkpt lat="46.2519070" lon="10.5443000">
	<ele>1648.60</ele>
	<time>2024-03-09T09:57:56.000Z</time>
</trkpt>
<trkpt lat="46.2519070" lon="10.5443000">
	<ele>1648.60</ele>
	<time>2024-03-09T09:57:57.000Z</time>
</trkpt>
<trkpt lat="46.2519060" lon="10.5443000">
	<ele>1648.60</ele>
	<time>2024-03-09T09:57:58.000Z</time>
</trkpt>
<trkpt lat="46.2519060" lon="10.5443000">
	<ele>1648.60</ele>
	<time>2024-03-09T09:57:59.000Z</time>
</trkpt>
<trkpt lat="46.2519060" lon="10.5443000">
	<ele>1648.60</ele>
	<time>2024-03-09T09:58:00.000Z</time>
</trkpt>
<trkpt lat="46.2519060" lon="10.5443000">
	<ele>1648.60</ele>
	<time>2024-03-09T09:58:01.000Z</time>
</trkpt>
<trkpt lat="46.2519060" lon="10.5443000">
	<ele>1648.60</ele>
	<time>2024-03-09T09:58:02.000Z</time>
</trkpt>
<trkpt lat="46.2519060" lon="10.5443000">
	<ele>1648.60</ele>
	<time>2024-03-09T09:58:03.000Z</time>
</trkpt>
<trkpt lat="46.2519060" lon="10.5443000">
	<ele>1648.60</ele>
	<time>2024-03-09T09:58:04.000Z</time>
</trkpt>
<trkpt lat="46.2519060" lon="10.5443000">
	<ele>1648.60</ele>
	<time>2024-03-09T09:58:05.000Z</time>
</trkpt>
<trkpt lat="46.2519060" lon="10.5443000">
	<ele>1648.60</ele>
	<time>2024-03-09T09:58:06.000Z</time>
</trkpt>
<trkpt lat="46.2519060" lon="10.5443000">
	<ele>1648.60</ele>
	<time>2024-03-09T09:58:07.000Z</time>
</trkpt>
<trkpt lat="46.2519060" lon="10.5443000">
	<ele>1648.60</ele>
	<time>2024-03-09T09:58:08.000Z</time>
</trkpt>
<trkpt lat="46.2519060" lon="10.5443000">
	<ele>1648.60</ele>
	<time>2024-03-09T09:58:09.000Z</time>
</trkpt>
<trkpt lat="46.2519060" lon="10.5443000">
	<ele>1648.60</ele>
	<time>2024-03-09T09:58:10.000Z</time>
</trkpt>
<trkpt lat="46.2519060" lon="10.5443000">
	<ele>1648.60</ele>
	<time>2024-03-09T09:58:11.000Z</time>
</trkpt>
<trkpt lat="46.2519060" lon="10.5443000">
	<ele>1648.60</ele>
	<time>2024-03-09T09:58:12.000Z</time>
</trkpt>
<trkpt lat="46.2519060" lon="10.5443000">
	<ele>1648.60</ele>
	<time>2024-03-09T09:58:13.000Z</time>
</trkpt>
<trkpt lat="46.2519060" lon="10.5443000">
	<ele>1648.60</ele>
	<time>2024-03-09T09:58:14.000Z</time>
</trkpt>
<trkpt lat="46.2519060" lon="10.5443000">
	<ele>1648.60</ele>
	<time>2024-03-09T09:58:15.000Z</time>
</trkpt>
<trkpt lat="46.2519060" lon="10.5443000">
	<ele>1648.60</ele>
	<time>2024-03-09T09:58:16.000Z</time>
</trkpt>
<trkpt lat="46.2519060" lon="10.5443000">
	<ele>1648.60</ele>
	<time>2024-03-09T09:58:17.000Z</time>
</trkpt>
<trkpt lat="46.2519060" lon="10.5443000">
	<ele>1648.60</ele>
	<time>2024-03-09T09:58:18.000Z</time>
</trkpt>
<trkpt lat="46.2519060" lon="10.5443000">
	<ele>1648.60</ele>
	<time>2024-03-09T09:58:19.000Z</time>
</trkpt>
<trkpt lat="46.2519060" lon="10.5443000">
	<ele>1648.60</ele>
	<time>2024-03-09T09:58:20.000Z</time>
</trkpt>
<trkpt lat="46.2519060" lon="10.5443000">
	<ele>1648.60</ele>
	<time>2024-03-09T09:58:21.000Z</time>
</trkpt>
<trkpt lat="46.2519060" lon="10.5443000">
	<ele>1648.60</ele>
	<time>2024-03-09T09:58:22.000Z</time>
</trkpt>
<trkpt lat="46.2519050" lon="10.5443000">
	<ele>1648.60</ele>
	<time>2024-03-09T09:58:23.000Z</time>
</trkpt>
<trkpt lat="46.2519050" lon="10.5443000">
	<ele>1648.60</ele>
	<time>2024-03-09T09:58:24.000Z</time>
</trkpt>
<trkpt lat="46.2519050" lon="10.5443000">
	<ele>1648.60</ele>
	<time>2024-03-09T09:58:25.000Z</time>
</trkpt>
<trkpt lat="46.2519050" lon="10.5443000">
	<ele>1648.60</ele>
	<time>2024-03-09T09:58:26.000Z</time>
</trkpt>
<trkpt lat="46.2519050" lon="10.5443000">
	<ele>1648.60</ele>
	<time>2024-03-09T09:58:27.000Z</time>
</trkpt>
<trkpt lat="46.2519050" lon="10.5443000">
	<ele>1648.60</ele>
	<time>2024-03-09T09:58:28.000Z</time>
</trkpt>
<trkpt lat="46.2519040" lon="10.5443080">
	<ele>1648.60</ele>
	<time>2024-03-09T09:58:29.000Z</time>
</trkpt>
<trkpt lat="46.2519010" lon="10.5443270">
	<ele>1648.60</ele>
	<time>2024-03-09T09:58:30.000Z</time>
</trkpt>
<trkpt lat="46.2518980" lon="10.5443500">
	<ele>1648.60</ele>
	<time>2024-03-09T09:58:31.000Z</time>
</trkpt>
<trkpt lat="46.2518950" lon="10.5443710">
	<ele>1648.60</ele>
	<time>2024-03-09T09:58:32.000Z</time>
</trkpt>
<trkpt lat="46.2518910" lon="10.5443890">
	<ele>1648.60</ele>
	<time>2024-03-09T09:58:33.000Z</time>
</trkpt>
<trkpt lat="46.2518860" lon="10.5444080">
	<ele>1648.60</ele>
	<time>2024-03-09T09:58:34.000Z</time>
</trkpt>
<trkpt lat="46.2518820" lon="10.5444250">
	<ele>1648.60</ele>
	<time>2024-03-09T09:58:35.000Z</time>
</trkpt>
<trkpt lat="46.2518780" lon="10.5444460">
	<ele>1648.60</ele>
	<time>2024-03-09T09:58:36.000Z</time>
</trkpt>
<trkpt lat="46.2518750" lon="10.5444620">
	<ele>1648.60</ele>
	<time>2024-03-09T09:58:37.000Z</time>
</trkpt>
<trkpt lat="46.2518720" lon="10.5444800">
	<ele>1648.60</ele>
	<time>2024-03-09T09:58:38.000Z</time>
</trkpt>
<trkpt lat="46.2518670" lon="10.5444900">
	<ele>1648.60</ele>
	<time>2024-03-09T09:58:39.000Z</time>
</trkpt>
<trkpt lat="46.2518650" lon="10.5444990">
	<ele>1648.60</ele>
	<time>2024-03-09T09:58:40.000Z</time>
</trkpt>
<trkpt lat="46.2518660" lon="10.5445050">
	<ele>1648.60</ele>
	<time>2024-03-09T09:58:41.000Z</time>
</trkpt>
<trkpt lat="46.2518640" lon="10.5445120">
	<ele>1648.60</ele>
	<time>2024-03-09T09:58:42.000Z</time>
</trkpt>
<trkpt lat="46.2518620" lon="10.5445220">
	<ele>1648.60</ele>
	<time>2024-03-09T09:58:43.000Z</time>
</trkpt>
<trkpt lat="46.2518600" lon="10.5445330">
	<ele>1648.60</ele>
	<time>2024-03-09T09:58:44.000Z</time>
</trkpt>
<trkpt lat="46.2518590" lon="10.5445410">
	<ele>1649.40</ele>
	<time>2024-03-09T09:58:45.000Z</time>
</trkpt>
<trkpt lat="46.2518570" lon="10.5445530">
	<ele>1650.00</ele>
	<time>2024-03-09T09:58:46.000Z</time>
</trkpt>
<trkpt lat="46.2518570" lon="10.5445620">
	<ele>1650.20</ele>
	<time>2024-03-09T09:58:47.000Z</time>
</trkpt>
<trkpt lat="46.2518590" lon="10.5445720">
	<ele>1650.40</ele>
	<time>2024-03-09T09:58:48.000Z</time>
</trkpt>
<trkpt lat="46.2518580" lon="10.5445850">
	<ele>1650.40</ele>
	<time>2024-03-09T09:58:49.000Z</time>
</trkpt>
<trkpt lat="46.2518570" lon="10.5445960">
	<ele>1650.40</ele>
	<time>2024-03-09T09:58:50.000Z</time>
</trkpt>
<trkpt lat="46.2518560" lon="10.5446110">
	<ele>1650.40</ele>
	<time>2024-03-09T09:58:51.000Z</time>
</trkpt>
<trkpt lat="46.2518550" lon="10.5446210">
	<ele>1650.40</ele>
	<time>2024-03-09T09:58:52.000Z</time>
</trkpt>
<trkpt lat="46.2518550" lon="10.5446370">
	<ele>1650.40</ele>
	<time>2024-03-09T09:58:53.000Z</time>
</trkpt>
<trkpt lat="46.2518520" lon="10.5446500">
	<ele>1650.40</ele>
	<time>2024-03-09T09:58:54.000Z</time>
</trkpt>
<trkpt lat="46.2518520" lon="10.5446590">
	<ele>1650.40</ele>
	<time>2024-03-09T09:58:55.000Z</time>
</trkpt>
<trkpt lat="46.2518550" lon="10.5446680">
	<ele>1650.40</ele>
	<time>2024-03-09T09:58:56.000Z</time>
</trkpt>
<trkpt lat="46.2518570" lon="10.5446790">
	<ele>1650.20</ele>
	<time>2024-03-09T09:58:57.000Z</time>
</trkpt>
<trkpt lat="46.2518610" lon="10.5446930">
	<ele>1650.20</ele>
	<time>2024-03-09T09:58:58.000Z</time>
</trkpt>
<trkpt lat="46.2518630" lon="10.5447020">
	<ele>1650.20</ele>
	<time>2024-03-09T09:58:59.000Z</time>
</trkpt>
<trkpt lat="46.2518640" lon="10.5447120">
	<ele>1650.20</ele>
	<time>2024-03-09T09:59:00.000Z</time>
</trkpt>
<trkpt lat="46.2518650" lon="10.5447220">
	<ele>1650.20</ele>
	<time>2024-03-09T09:59:01.000Z</time>
</trkpt>
<trkpt lat="46.2518650" lon="10.5447300">
	<ele>1650.20</ele>
	<time>2024-03-09T09:59:02.000Z</time>
</trkpt>
<trkpt lat="46.2518650" lon="10.5447360">
	<ele>1650.20</ele>
	<time>2024-03-09T09:59:03.000Z</time>
</trkpt>
<trkpt lat="46.2518690" lon="10.5447460">
	<ele>1650.20</ele>
	<time>2024-03-09T09:59:04.000Z</time>
</trkpt>
<trkpt lat="46.2518730" lon="10.5447540">
	<ele>1650.40</ele>
	<time>2024-03-09T09:59:05.000Z</time>
</trkpt>
<trkpt lat="46.2518760" lon="10.5447630">
	<ele>1650.40</ele>
	<time>2024-03-09T09:59:06.000Z</time>
</trkpt>
<trkpt lat="46.2518780" lon="10.5447730">
	<ele>1650.40</ele>
	<time>2024-03-09T09:59:07.000Z</time>
</trkpt>
<trkpt lat="46.2518790" lon="10.5447830">
	<ele>1650.40</ele>
	<time>2024-03-09T09:59:08.000Z</time>
</trkpt>
<trkpt lat="46.2518780" lon="10.5447930">
	<ele>1650.60</ele>
	<time>2024-03-09T09:59:09.000Z</time>
</trkpt>
<trkpt lat="46.2518810" lon="10.5448030">
	<ele>1650.60</ele>
	<time>2024-03-09T09:59:10.000Z</time>
</trkpt>
<trkpt lat="46.2518890" lon="10.5448150">
	<ele>1650.60</ele>
	<time>2024-03-09T09:59:11.000Z</time>
</trkpt>
<trkpt lat="46.2518940" lon="10.5448300">
	<ele>1650.80</ele>
	<time>2024-03-09T09:59:12.000Z</time>
</trkpt>
<trkpt lat="46.2518940" lon="10.5448400">
	<ele>1650.80</ele>
	<time>2024-03-09T09:59:13.000Z</time>
</trkpt>
<trkpt lat="46.2518950" lon="10.5448530">
	<ele>1651.00</ele>
	<time>2024-03-09T09:59:14.000Z</time>
</trkpt>
<trkpt lat="46.2518950" lon="10.5448670">
	<ele>1651.00</ele>
	<time>2024-03-09T09:59:15.000Z</time>
</trkpt>
<trkpt lat="46.2518940" lon="10.5448810">
	<ele>1651.00</ele>
	<time>2024-03-09T09:59:16.000Z</time>
</trkpt>
<trkpt lat="46.2518950" lon="10.5448930">
	<ele>1651.00</ele>
	<time>2024-03-09T09:59:17.000Z</time>
</trkpt>
<trkpt lat="46.2518960" lon="10.5449040">
	<ele>1651.00</ele>
	<time>2024-03-09T09:59:18.000Z</time>
</trkpt>
<trkpt lat="46.2518980" lon="10.5449140">
	<ele>1651.20</ele>
	<time>2024-03-09T09:59:19.000Z</time>
</trkpt>
<trkpt lat="46.2518990" lon="10.5449280">
	<ele>1651.20</ele>
	<time>2024-03-09T09:59:20.000Z</time>
</trkpt>
<trkpt lat="46.2518980" lon="10.5449360">
	<ele>1651.20</ele>
	<time>2024-03-09T09:59:21.000Z</time>
</trkpt>
<trkpt lat="46.2518940" lon="10.5449420">
	<ele>1651.40</ele>
	<time>2024-03-09T09:59:22.000Z</time>
</trkpt>
<trkpt lat="46.2518930" lon="10.5449480">
	<ele>1651.40</ele>
	<time>2024-03-09T09:59:23.000Z</time>
</trkpt>
<trkpt lat="46.2518910" lon="10.5449550">
	<ele>1651.60</ele>
	<time>2024-03-09T09:59:24.000Z</time>
</trkpt>
<trkpt lat="46.2518910" lon="10.5449650">
	<ele>1651.60</ele>
	<time>2024-03-09T09:59:25.000Z</time>
</trkpt>
<trkpt lat="46.2518930" lon="10.5449790">
	<ele>1651.60</ele>
	<time>2024-03-09T09:59:26.000Z</time>
</trkpt>
<trkpt lat="46.2518990" lon="10.5449910">
	<ele>1651.80</ele>
	<time>2024-03-09T09:59:27.000Z</time>
</trkpt>
<trkpt lat="46.2519020" lon="10.5450040">
	<ele>1652.00</ele>
	<time>2024-03-09T09:59:28.000Z</time>
</trkpt>
<trkpt lat="46.2519010" lon="10.5450150">
	<ele>1652.20</ele>
	<time>2024-03-09T09:59:29.000Z</time>
</trkpt>
<trkpt lat="46.2519030" lon="10.5450230">
	<ele>1652.20</ele>
	<time>2024-03-09T09:59:30.000Z</time>
</trkpt>
<trkpt lat="46.2519040" lon="10.5450280">
	<ele>1652.40</ele>
	<time>2024-03-09T09:59:31.000Z</time>
</trkpt>
<trkpt lat="46.2519070" lon="10.5450360">
	<ele>1652.60</ele>
	<time>2024-03-09T09:59:32.000Z</time>
</trkpt>
<trkpt lat="46.2519130" lon="10.5450450">
	<ele>1652.60</ele>
	<time>2024-03-09T09:59:33.000Z</time>
</trkpt>
<trkpt lat="46.2519160" lon="10.5450530">
	<ele>1652.80</ele>
	<time>2024-03-09T09:59:34.000Z</time>
</trkpt>
<trkpt lat="46.2519110" lon="10.5450630">
	<ele>1652.80</ele>
	<time>2024-03-09T09:59:35.000Z</time>
</trkpt>
<trkpt lat="46.2519080" lon="10.5450720">
	<ele>1653.00</ele>
	<time>2024-03-09T09:59:36.000Z</time>
</trkpt>
<trkpt lat="46.2519090" lon="10.5450810">
	<ele>1653.00</ele>
	<time>2024-03-09T09:59:37.000Z</time>
</trkpt>
<trkpt lat="46.2519080" lon="10.5450860">
	<ele>1653.20</ele>
	<time>2024-03-09T09:59:38.000Z</time>
</trkpt>
<trkpt lat="46.2519060" lon="10.5450920">
	<ele>1653.40</ele>
	<time>2024-03-09T09:59:39.000Z</time>
</trkpt>
<trkpt lat="46.2519040" lon="10.5450980">
	<ele>1653.60</ele>
	<time>2024-03-09T09:59:40.000Z</time>
</trkpt>
<trkpt lat="46.2519040" lon="10.5451060">
	<ele>1653.60</ele>
	<time>2024-03-09T09:59:41.000Z</time>
</trkpt>
<trkpt lat="46.2519000" lon="10.5451140">
	<ele>1653.80</ele>
	<time>2024-03-09T09:59:42.000Z</time>
</trkpt>
<trkpt lat="46.2518990" lon="10.5451200">
	<ele>1653.80</ele>
	<time>2024-03-09T09:59:43.000Z</time>
</trkpt>
<trkpt lat="46.2518940" lon="10.5451250">
	<ele>1653.80</ele>
	<time>2024-03-09T09:59:44.000Z</time>
</trkpt>
<trkpt lat="46.2518920" lon="10.5451340">
	<ele>1654.00</ele>
	<time>2024-03-09T09:59:45.000Z</time>
</trkpt>
<trkpt lat="46.2518900" lon="10.5451420">
	<ele>1654.20</ele>
	<time>2024-03-09T09:59:46.000Z</time>
</trkpt>
<trkpt lat="46.2518870" lon="10.5451490">
	<ele>1654.40</ele>
	<time>2024-03-09T09:59:47.000Z</time>
</trkpt>
<trkpt lat="46.2518810" lon="10.5451590">
	<ele>1654.60</ele>
	<time>2024-03-09T09:59:48.000Z</time>
</trkpt>
<trkpt lat="46.2518790" lon="10.5451660">
	<ele>1654.80</ele>
	<time>2024-03-09T09:59:49.000Z</time>
</trkpt>
<trkpt lat="46.2518800" lon="10.5451750">
	<ele>1655.00</ele>
	<time>2024-03-09T09:59:50.000Z</time>
</trkpt>
<trkpt lat="46.2518800" lon="10.5451840">
	<ele>1655.20</ele>
	<time>2024-03-09T09:59:51.000Z</time>
</trkpt>
<trkpt lat="46.2518770" lon="10.5451950">
	<ele>1655.40</ele>
	<time>2024-03-09T09:59:52.000Z</time>
</trkpt>
<trkpt lat="46.2518750" lon="10.5452110">
	<ele>1655.60</ele>
	<time>2024-03-09T09:59:53.000Z</time>
</trkpt>
<trkpt lat="46.2518720" lon="10.5452210">
	<ele>1655.60</ele>
	<time>2024-03-09T09:59:54.000Z</time>
</trkpt>
<trkpt lat="46.2518680" lon="10.5452300">
	<ele>1655.80</ele>
	<time>2024-03-09T09:59:55.000Z</time>
</trkpt>
<trkpt lat="46.2518650" lon="10.5452410">
	<ele>1655.80</ele>
	<time>2024-03-09T09:59:56.000Z</time>
</trkpt>
<trkpt lat="46.2518620" lon="10.5452500">
	<ele>1656.20</ele>
	<time>2024-03-09T09:59:57.000Z</time>
</trkpt>
<trkpt lat="46.2518610" lon="10.5452570">
	<ele>1656.40</ele>
	<time>2024-03-09T09:59:58.000Z</time>
</trkpt>
<trkpt lat="46.2518560" lon="10.5452640">
	<ele>1656.60</ele>
	<time>2024-03-09T09:59:59.000Z</time>
</trkpt>
<trkpt lat="46.2518490" lon="10.5452750">
	<ele>1656.60</ele>
	<time>2024-03-09T10:00:00.000Z</time>
</trkpt>
<trkpt lat="46.2518450" lon="10.5452810">
	<ele>1656.80</ele>
	<time>2024-03-09T10:00:01.000Z</time>
</trkpt>
<trkpt lat="46.2518430" lon="10.5452900">
	<ele>1657.00</ele>
	<time>2024-03-09T10:00:02.000Z</time>
</trkpt>
<trkpt lat="46.2518390" lon="10.5453000">
	<ele>1657.00</ele>
	<time>2024-03-09T10:00:03.000Z</time>
</trkpt>
<trkpt lat="46.2518360" lon="10.5453110">
	<ele>1657.20</ele>
	<time>2024-03-09T10:00:04.000Z</time>
</trkpt>
<trkpt lat="46.2518360" lon="10.5453190">
	<ele>1657.20</ele>
	<time>2024-03-09T10:00:05.000Z</time>
</trkpt>
<trkpt lat="46.2518350" lon="10.5453290">
	<ele>1657.20</ele>
	<time>2024-03-09T10:00:06.000Z</time>
</trkpt>
<trkpt lat="46.2518340" lon="10.5453430">
	<ele>1657.20</ele>
	<time>2024-03-09T10:00:07.000Z</time>
</trkpt>
<trkpt lat="46.2518360" lon="10.5453580">
	<ele>1657.40</ele>
	<time>2024-03-09T10:00:08.000Z</time>
</trkpt>
<trkpt lat="46.2518390" lon="10.5453610">
	<ele>1657.40</ele>
	<time>2024-03-09T10:00:09.000Z</time>
</trkpt>
<trkpt lat="46.2518410" lon="10.5453620">
	<ele>1657.40</ele>
	<time>2024-03-09T10:00:10.000Z</time>
</trkpt>
<trkpt lat="46.2518410" lon="10.5453610">
	<ele>1657.40</ele>
	<time>2024-03-09T10:00:11.000Z</time>
</trkpt>
<trkpt lat="46.2518440" lon="10.5453660">
	<ele>1657.40</ele>
	<time>2024-03-09T10:00:12.000Z</time>
</trkpt>
<trkpt lat="46.2518440" lon="10.5453660">
	<ele>1657.40</ele>
	<time>2024-03-09T10:00:13.000Z</time>
</trkpt>
<trkpt lat="46.2518430" lon="10.5453690">
	<ele>1657.40</ele>
	<time>2024-03-09T10:00:14.000Z</time>
</trkpt>
<trkpt lat="46.2518410" lon="10.5453740">
	<ele>1657.40</ele>
	<time>2024-03-09T10:00:15.000Z</time>
</trkpt>
<trkpt lat="46.2518350" lon="10.5453810">
	<ele>1657.40</ele>
	<time>2024-03-09T10:00:16.000Z</time>
</trkpt>
<trkpt lat="46.2518310" lon="10.5453890">
	<ele>1657.40</ele>
	<time>2024-03-09T10:00:17.000Z</time>
</trkpt>
<trkpt lat="46.2518280" lon="10.5454000">
	<ele>1657.60</ele>
	<time>2024-03-09T10:00:18.000Z</time>
</trkpt>
<trkpt lat="46.2518280" lon="10.5454140">
	<ele>1657.60</ele>
	<time>2024-03-09T10:00:19.000Z</time>
</trkpt>
<trkpt lat="46.2518260" lon="10.5454250">
	<ele>1657.60</ele>
	<time>2024-03-09T10:00:20.000Z</time>
</trkpt>
<trkpt lat="46.2518280" lon="10.5454370">
	<ele>1657.60</ele>
	<time>2024-03-09T10:00:21.000Z</time>
</trkpt>
<trkpt lat="46.2518270" lon="10.5454460">
	<ele>1657.60</ele>
	<time>2024-03-09T10:00:22.000Z</time>
</trkpt>
<trkpt lat="46.2518270" lon="10.5454520">
	<ele>1657.60</ele>
	<time>2024-03-09T10:00:23.000Z</time>
</trkpt>
<trkpt lat="46.2518250" lon="10.5454620">
	<ele>1657.60</ele>
	<time>2024-03-09T10:00:24.000Z</time>
</trkpt>
<trkpt lat="46.2518260" lon="10.5454730">
	<ele>1657.80</ele>
	<time>2024-03-09T10:00:25.000Z</time>
</trkpt>
<trkpt lat="46.2518260" lon="10.5454820">
	<ele>1657.80</ele>
	<time>2024-03-09T10:00:26.000Z</time>
</trkpt>
<trkpt lat="46.2518290" lon="10.5454960">
	<ele>1657.80</ele>
	<time>2024-03-09T10:00:27.000Z</time>
</trkpt>
<trkpt lat="46.2518300" lon="10.5455060">
	<ele>1657.80</ele>
	<time>2024-03-09T10:00:28.000Z</time>
</trkpt>
<trkpt lat="46.2518330" lon="10.5455140">
	<ele>1658.00</ele>
	<time>2024-03-09T10:00:29.000Z</time>
</trkpt>
<trkpt lat="46.2518370" lon="10.5455230">
	<ele>1658.00</ele>
	<time>2024-03-09T10:00:30.000Z</time>
</trkpt>
<trkpt lat="46.2518370" lon="10.5455360">
	<ele>1658.00</ele>
	<time>2024-03-09T10:00:31.000Z</time>
</trkpt>
<trkpt lat="46.2518320" lon="10.5455490">
	<ele>1658.20</ele>
	<time>2024-03-09T10:00:32.000Z</time>
</trkpt>
<trkpt lat="46.2518310" lon="10.5455580">
	<ele>1658.20</ele>
	<time>2024-03-09T10:00:33.000Z</time>
</trkpt>
<trkpt lat="46.2518280" lon="10.5455680">
	<ele>1658.20</ele>
	<time>2024-03-09T10:00:34.000Z</time>
</trkpt>
<trkpt lat="46.2518310" lon="10.5455830">
	<ele>1658.20</ele>
	<time>2024-03-09T10:00:35.000Z</time>
</trkpt>
<trkpt lat="46.2518310" lon="10.5455930">
	<ele>1658.40</ele>
	<time>2024-03-09T10:00:36.000Z</time>
</trkpt>
<trkpt lat="46.2518330" lon="10.5456050">
	<ele>1658.40</ele>
	<time>2024-03-09T10:00:37.000Z</time>
</trkpt>
<trkpt lat="46.2518350" lon="10.5456200">
	<ele>1658.40</ele>
	<time>2024-03-09T10:00:38.000Z</time>
</trkpt>
<trkpt lat="46.2518370" lon="10.5456340">
	<ele>1658.60</ele>
	<time>2024-03-09T10:00:39.000Z</time>
</trkpt>
<trkpt lat="46.2518420" lon="10.5456460">
	<ele>1658.60</ele>
	<time>2024-03-09T10:00:40.000Z</time>
</trkpt>
<trkpt lat="46.2518440" lon="10.5456660">
	<ele>1658.60</ele>
	<time>2024-03-09T10:00:41.000Z</time>
</trkpt>
<trkpt lat="46.2518460" lon="10.5456820">
	<ele>1658.60</ele>
	<time>2024-03-09T10:00:42.000Z</time>
</trkpt>
<trkpt lat="46.2518480" lon="10.5456930">
	<ele>1658.60</ele>
	<time>2024-03-09T10:00:43.000Z</time>
</trkpt>
<trkpt lat="46.2518510" lon="10.5457050">
	<ele>1658.60</ele>
	<time>2024-03-09T10:00:44.000Z</time>
</trkpt>
<trkpt lat="46.2518570" lon="10.5457170">
	<ele>1658.60</ele>
	<time>2024-03-09T10:00:45.000Z</time>
</trkpt>
<trkpt lat="46.2518620" lon="10.5457250">
	<ele>1658.60</ele>
	<time>2024-03-09T10:00:46.000Z</time>
</trkpt>
<trkpt lat="46.2518670" lon="10.5457370">
	<ele>1658.60</ele>
	<time>2024-03-09T10:00:47.000Z</time>
</trkpt>
<trkpt lat="46.2518710" lon="10.5457480">
	<ele>1658.60</ele>
	<time>2024-03-09T10:00:48.000Z</time>
</trkpt>
<trkpt lat="46.2518750" lon="10.5457570">
	<ele>1658.60</ele>
	<time>2024-03-09T10:00:49.000Z</time>
</trkpt>
<trkpt lat="46.2518750" lon="10.5457720">
	<ele>1658.60</ele>
	<time>2024-03-09T10:00:50.000Z</time>
</trkpt>
<trkpt lat="46.2518790" lon="10.5457880">
	<ele>1658.60</ele>
	<time>2024-03-09T10:00:51.000Z</time>
</trkpt>
<trkpt lat="46.2518830" lon="10.5458030">
	<ele>1658.60</ele>
	<time>2024-03-09T10:00:52.000Z</time>
</trkpt>
<trkpt lat="46.2518840" lon="10.5458180">
	<ele>1658.80</ele>
	<time>2024-03-09T10:00:53.000Z</time>
</trkpt>
<trkpt lat="46.2518860" lon="10.5458310">
	<ele>1658.80</ele>
	<time>2024-03-09T10:00:54.000Z</time>
</trkpt>
<trkpt lat="46.2518890" lon="10.5458420">
	<ele>1658.80</ele>
	<time>2024-03-09T10:00:55.000Z</time>
</trkpt>
<trkpt lat="46.2518920" lon="10.5458500">
	<ele>1658.80</ele>
	<time>2024-03-09T10:00:56.000Z</time>
</trkpt>
<trkpt lat="46.2518970" lon="10.5458590">
	<ele>1658.80</ele>
	<time>2024-03-09T10:00:57.000Z</time>
</trkpt>
<trkpt lat="46.2519010" lon="10.5458700">
	<ele>1658.80</ele>
	<time>2024-03-09T10:00:58.000Z</time>
</trkpt>
<trkpt lat="46.2519080" lon="10.5458780">
	<ele>1659.00</ele>
	<time>2024-03-09T10:00:59.000Z</time>
</trkpt>
<trkpt lat="46.2519160" lon="10.5458860">
	<ele>1659.20</ele>
	<time>2024-03-09T10:01:00.000Z</time>
</trkpt>
<trkpt lat="46.2519220" lon="10.5458970">
	<ele>1659.20</ele>
	<time>2024-03-09T10:01:01.000Z</time>
</trkpt>
<trkpt lat="46.2519240" lon="10.5459090">
	<ele>1659.20</ele>
	<time>2024-03-09T10:01:02.000Z</time>
</trkpt>
<trkpt lat="46.2519290" lon="10.5459220">
	<ele>1659.20</ele>
	<time>2024-03-09T10:01:03.000Z</time>
</trkpt>
<trkpt lat="46.2519360" lon="10.5459340">
	<ele>1659.20</ele>
	<time>2024-03-09T10:01:04.000Z</time>
</trkpt>
<trkpt lat="46.2519400" lon="10.5459450">
	<ele>1659.20</ele>
	<time>2024-03-09T10:01:05.000Z</time>
</trkpt>
<trkpt lat="46.2519440" lon="10.5459570">
	<ele>1659.40</ele>
	<time>2024-03-09T10:01:06.000Z</time>
</trkpt>
<trkpt lat="46.2519450" lon="10.5459730">
	<ele>1659.20</ele>
	<time>2024-03-09T10:01:07.000Z</time>
</trkpt>
<trkpt lat="46.2519490" lon="10.5459860">
	<ele>1659.20</ele>
	<time>2024-03-09T10:01:08.000Z</time>
</trkpt>
<trkpt lat="46.2519520" lon="10.5459990">
	<ele>1659.40</ele>
	<time>2024-03-09T10:01:09.000Z</time>
</trkpt>
<trkpt lat="46.2519600" lon="10.5460100">
	<ele>1659.40</ele>
	<time>2024-03-09T10:01:10.000Z</time>
</trkpt>
<trkpt lat="46.2519650" lon="10.5460200">
	<ele>1659.40</ele>
	<time>2024-03-09T10:01:11.000Z</time>
</trkpt>
<trkpt lat="46.2519700" lon="10.5460290">
	<ele>1659.40</ele>
	<time>2024-03-09T10:01:12.000Z</time>
</trkpt>
<trkpt lat="46.2519730" lon="10.5460400">
	<ele>1659.40</ele>
	<time>2024-03-09T10:01:13.000Z</time>
</trkpt>
<trkpt lat="46.2519740" lon="10.5460510">
	<ele>1659.60</ele>
	<time>2024-03-09T10:01:14.000Z</time>
</trkpt>
<trkpt lat="46.2519760" lon="10.5460630">
	<ele>1659.60</ele>
	<time>2024-03-09T10:01:15.000Z</time>
</trkpt>
<trkpt lat="46.2519820" lon="10.5460690">
	<ele>1659.80</ele>
	<time>2024-03-09T10:01:16.000Z</time>
</trkpt>
<trkpt lat="46.2519850" lon="10.5460790">
	<ele>1659.80</ele>
	<time>2024-03-09T10:01:17.000Z</time>
</trkpt>
<trkpt lat="46.2519900" lon="10.5460870">
	<ele>1660.00</ele>
	<time>2024-03-09T10:01:18.000Z</time>
</trkpt>
<trkpt lat="46.2519950" lon="10.5460960">
	<ele>1660.20</ele>
	<time>2024-03-09T10:01:19.000Z</time>
</trkpt>
<trkpt lat="46.2519990" lon="10.5461030">
	<ele>1660.40</ele>
	<time>2024-03-09T10:01:20.000Z</time>
</trkpt>
<trkpt lat="46.2520050" lon="10.5461120">
	<ele>1660.40</ele>
	<time>2024-03-09T10:01:21.000Z</time>
</trkpt>
<trkpt lat="46.2520100" lon="10.5461180">
	<ele>1660.40</ele>
	<time>2024-03-09T10:01:22.000Z</time>
</trkpt>
<trkpt lat="46.2520150" lon="10.5461260">
	<ele>1660.60</ele>
	<time>2024-03-09T10:01:23.000Z</time>
</trkpt>
<trkpt lat="46.2520200" lon="10.5461340">
	<ele>1660.60</ele>
	<time>2024-03-09T10:01:24.000Z</time>
</trkpt>
<trkpt lat="46.2520260" lon="10.5461450">
	<ele>1660.60</ele>
	<time>2024-03-09T10:01:25.000Z</time>
</trkpt>
<trkpt lat="46.2520320" lon="10.5461580">
	<ele>1660.60</ele>
	<time>2024-03-09T10:01:26.000Z</time>
</trkpt>
<trkpt lat="46.2520360" lon="10.5461670">
	<ele>1660.60</ele>
	<time>2024-03-09T10:01:27.000Z</time>
</trkpt>
<trkpt lat="46.2520410" lon="10.5461790">
	<ele>1660.80</ele>
	<time>2024-03-09T10:01:28.000Z</time>
</trkpt>
<trkpt lat="46.2520460" lon="10.5461880">
	<ele>1660.80</ele>
	<time>2024-03-09T10:01:29.000Z</time>
</trkpt>
<trkpt lat="46.2520530" lon="10.5461990">
	<ele>1660.80</ele>
	<time>2024-03-09T10:01:30.000Z</time>
</trkpt>
<trkpt lat="46.2520580" lon="10.5462040">
	<ele>1661.00</ele>
	<time>2024-03-09T10:01:31.000Z</time>
</trkpt>
<trkpt lat="46.2520640" lon="10.5462120">
	<ele>1661.00</ele>
	<time>2024-03-09T10:01:32.000Z</time>
</trkpt>
<trkpt lat="46.2520680" lon="10.5462190">
	<ele>1661.20</ele>
	<time>2024-03-09T10:01:33.000Z</time>
</trkpt>
<trkpt lat="46.2520740" lon="10.5462310">
	<ele>1661.20</ele>
	<time>2024-03-09T10:01:34.000Z</time>
</trkpt>
<trkpt lat="46.2520770" lon="10.5462410">
	<ele>1661.20</ele>
	<time>2024-03-09T10:01:35.000Z</time>
</trkpt>
<trkpt lat="46.2520810" lon="10.5462500">
	<ele>1661.40</ele>
	<time>2024-03-09T10:01:36.000Z</time>
</trkpt>
<trkpt lat="46.2520860" lon="10.5462600">
	<ele>1661.40</ele>
	<time>2024-03-09T10:01:37.000Z</time>
</trkpt>
<trkpt lat="46.2520910" lon="10.5462700">
	<ele>1661.40</ele>
	<time>2024-03-09T10:01:38.000Z</time>
</trkpt>
<trkpt lat="46.2520950" lon="10.5462790">
	<ele>1661.40</ele>
	<time>2024-03-09T10:01:39.000Z</time>
</trkpt>
<trkpt lat="46.2520980" lon="10.5462910">
	<ele>1661.40</ele>
	<time>2024-03-09T10:01:40.000Z</time>
</trkpt>
<trkpt lat="46.2521040" lon="10.5462990">
	<ele>1661.40</ele>
	<time>2024-03-09T10:01:41.000Z</time>
</trkpt>
<trkpt lat="46.2521090" lon="10.5463070">
	<ele>1661.40</ele>
	<time>2024-03-09T10:01:42.000Z</time>
</trkpt>
<trkpt lat="46.2521120" lon="10.5463180">
	<ele>1661.80</ele>
	<time>2024-03-09T10:01:43.000Z</time>
</trkpt>
<trkpt lat="46.2521160" lon="10.5463300">
	<ele>1661.80</ele>
	<time>2024-03-09T10:01:44.000Z</time>
</trkpt>
<trkpt lat="46.2521210" lon="10.5463410">
	<ele>1662.00</ele>
	<time>2024-03-09T10:01:45.000Z</time>
</trkpt>
<trkpt lat="46.2521230" lon="10.5463530">
	<ele>1662.00</ele>
	<time>2024-03-09T10:01:46.000Z</time>
</trkpt>
<trkpt lat="46.2521240" lon="10.5463640">
	<ele>1662.20</ele>
	<time>2024-03-09T10:01:47.000Z</time>
</trkpt>
<trkpt lat="46.2521290" lon="10.5463760">
	<ele>1662.20</ele>
	<time>2024-03-09T10:01:48.000Z</time>
</trkpt>
<trkpt lat="46.2521320" lon="10.5463890">
	<ele>1662.20</ele>
	<time>2024-03-09T10:01:49.000Z</time>
</trkpt>
<trkpt lat="46.2521350" lon="10.5463980">
	<ele>1662.40</ele>
	<time>2024-03-09T10:01:50.000Z</time>
</trkpt>
<trkpt lat="46.2521370" lon="10.5464110">
	<ele>1662.40</ele>
	<time>2024-03-09T10:01:51.000Z</time>
</trkpt>
<trkpt lat="46.2521410" lon="10.5464260">
	<ele>1662.40</ele>
	<time>2024-03-09T10:01:52.000Z</time>
</trkpt>
<trkpt lat="46.2521450" lon="10.5464400">
	<ele>1662.40</ele>
	<time>2024-03-09T10:01:53.000Z</time>
</trkpt>
<trkpt lat="46.2521490" lon="10.5464480">
	<ele>1662.40</ele>
	<time>2024-03-09T10:01:54.000Z</time>
</trkpt>
<trkpt lat="46.2521540" lon="10.5464600">
	<ele>1662.40</ele>
	<time>2024-03-09T10:01:55.000Z</time>
</trkpt>
<trkpt lat="46.2521600" lon="10.5464760">
	<ele>1662.60</ele>
	<time>2024-03-09T10:01:56.000Z</time>
</trkpt>
<trkpt lat="46.2521630" lon="10.5464880">
	<ele>1662.60</ele>
	<time>2024-03-09T10:01:57.000Z</time>
</trkpt>
<trkpt lat="46.2521660" lon="10.5464980">
	<ele>1662.80</ele>
	<time>2024-03-09T10:01:58.000Z</time>
</trkpt>
<trkpt lat="46.2521710" lon="10.5465120">
	<ele>1662.80</ele>
	<time>2024-03-09T10:01:59.000Z</time>
</trkpt>
<trkpt lat="46.2521750" lon="10.5465240">
	<ele>1663.00</ele>
	<time>2024-03-09T10:02:00.000Z</time>
</trkpt>
<trkpt lat="46.2521800" lon="10.5465330">
	<ele>1663.20</ele>
	<time>2024-03-09T10:02:01.000Z</time>
</trkpt>
<trkpt lat="46.2521850" lon="10.5465430">
	<ele>1663.40</ele>
	<time>2024-03-09T10:02:02.000Z</time>
</trkpt>
<trkpt lat="46.2521900" lon="10.5465580">
	<ele>1663.40</ele>
	<time>2024-03-09T10:02:03.000Z</time>
</trkpt>
<trkpt lat="46.2521950" lon="10.5465680">
	<ele>1663.40</ele>
	<time>2024-03-09T10:02:04.000Z</time>
</trkpt>
<trkpt lat="46.2521980" lon="10.5465770">
	<ele>1663.40</ele>
	<time>2024-03-09T10:02:05.000Z</time>
</trkpt>
<trkpt lat="46.2522010" lon="10.5465850">
	<ele>1663.60</ele>
	<time>2024-03-09T10:02:06.000Z</time>
</trkpt>
<trkpt lat="46.2522080" lon="10.5465990">
	<ele>1663.60</ele>
	<time>2024-03-09T10:02:07.000Z</time>
</trkpt>
<trkpt lat="46.2522140" lon="10.5466100">
	<ele>1663.60</ele>
	<time>2024-03-09T10:02:08.000Z</time>
</trkpt>
<trkpt lat="46.2522170" lon="10.5466170">
	<ele>1663.60</ele>
	<time>2024-03-09T10:02:09.000Z</time>
</trkpt>
<trkpt lat="46.2522200" lon="10.5466290">
	<ele>1663.60</ele>
	<time>2024-03-09T10:02:10.000Z</time>
</trkpt>
<trkpt lat="46.2522280" lon="10.5466370">
	<ele>1663.80</ele>
	<time>2024-03-09T10:02:11.000Z</time>
</trkpt>
<trkpt lat="46.2522310" lon="10.5466430">
	<ele>1663.80</ele>
	<time>2024-03-09T10:02:12.000Z</time>
</trkpt>
<trkpt lat="46.2522330" lon="10.5466530">
	<ele>1664.00</ele>
	<time>2024-03-09T10:02:13.000Z</time>
</trkpt>
<trkpt lat="46.2522370" lon="10.5466630">
	<ele>1664.00</ele>
	<time>2024-03-09T10:02:14.000Z</time>
</trkpt>
<trkpt lat="46.2522420" lon="10.5466730">
	<ele>1664.00</ele>
	<time>2024-03-09T10:02:15.000Z</time>
</trkpt>
<trkpt lat="46.2522440" lon="10.5466830">
	<ele>1664.00</ele>
	<time>2024-03-09T10:02:16.000Z</time>
</trkpt>
<trkpt lat="46.2522470" lon="10.5466930">
	<ele>1664.20</ele>
	<time>2024-03-09T10:02:17.000Z</time>
</trkpt>
<trkpt lat="46.2522520" lon="10.5467060">
	<ele>1664.20</ele>
	<time>2024-03-09T10:02:18.000Z</time>
</trkpt>
<trkpt lat="46.2522570" lon="10.5467140">
	<ele>1664.20</ele>
	<time>2024-03-09T10:02:19.000Z</time>
</trkpt>
<trkpt lat="46.2522600" lon="10.5467200">
	<ele>1664.40</ele>
	<time>2024-03-09T10:02:20.000Z</time>
</trkpt>
<trkpt lat="46.2522620" lon="10.5467280">
	<ele>1664.40</ele>
	<time>2024-03-09T10:02:21.000Z</time>
</trkpt>
<trkpt lat="46.2522680" lon="10.5467410">
	<ele>1664.60</ele>
	<time>2024-03-09T10:02:22.000Z</time>
</trkpt>
<trkpt lat="46.2522750" lon="10.5467490">
	<ele>1664.60</ele>
	<time>2024-03-09T10:02:23.000Z</time>
</trkpt>
<trkpt lat="46.2522800" lon="10.5467560">
	<ele>1664.80</ele>
	<time>2024-03-09T10:02:24.000Z</time>
</trkpt>
<trkpt lat="46.2522840" lon="10.5467640">
	<ele>1665.00</ele>
	<time>2024-03-09T10:02:25.000Z</time>
</trkpt>
<trkpt lat="46.2522870" lon="10.5467770">
	<ele>1665.00</ele>
	<time>2024-03-09T10:02:26.000Z</time>
</trkpt>
<trkpt lat="46.2522910" lon="10.5467850">
	<ele>1665.00</ele>
	<time>2024-03-09T10:02:27.000Z</time>
</trkpt>
<trkpt lat="46.2522960" lon="10.5467950">
	<ele>1665.20</ele>
	<time>2024-03-09T10:02:28.000Z</time>
</trkpt>
<trkpt lat="46.2523020" lon="10.5468070">
	<ele>1665.20</ele>
	<time>2024-03-09T10:02:29.000Z</time>
</trkpt>
<trkpt lat="46.2523060" lon="10.5468180">
	<ele>1665.60</ele>
	<time>2024-03-09T10:02:30.000Z</time>
</trkpt>
<trkpt lat="46.2523120" lon="10.5468260">
	<ele>1665.60</ele>
	<time>2024-03-09T10:02:31.000Z</time>
</trkpt>
<trkpt lat="46.2523160" lon="10.5468340">
	<ele>1665.80</ele>
	<time>2024-03-09T10:02:32.000Z</time>
</trkpt>
<trkpt lat="46.2523200" lon="10.5468440">
	<ele>1665.80</ele>
	<time>2024-03-09T10:02:33.000Z</time>
</trkpt>
<trkpt lat="46.2523230" lon="10.5468550">
	<ele>1665.80</ele>
	<time>2024-03-09T10:02:34.000Z</time>
</trkpt>
<trkpt lat="46.2523260" lon="10.5468690">
	<ele>1665.80</ele>
	<time>2024-03-09T10:02:35.000Z</time>
</trkpt>
<trkpt lat="46.2523300" lon="10.5468800">
	<ele>1665.80</ele>
	<time>2024-03-09T10:02:36.000Z</time>
</trkpt>
<trkpt lat="46.2523340" lon="10.5468900">
	<ele>1665.80</ele>
	<time>2024-03-09T10:02:37.000Z</time>
</trkpt>
<trkpt lat="46.2523360" lon="10.5468980">
	<ele>1666.00</ele>
	<time>2024-03-09T10:02:38.000Z</time>
</trkpt>
<trkpt lat="46.2523400" lon="10.5469100">
	<ele>1666.20</ele>
	<time>2024-03-09T10:02:39.000Z</time>
</trkpt>
<trkpt lat="46.2523440" lon="10.5469190">
	<ele>1666.40</ele>
	<time>2024-03-09T10:02:40.000Z</time>
</trkpt>
<trkpt lat="46.2523480" lon="10.5469290">
	<ele>1666.60</ele>
	<time>2024-03-09T10:02:41.000Z</time>
</trkpt>
<trkpt lat="46.2523530" lon="10.5469350">
	<ele>1666.80</ele>
	<time>2024-03-09T10:02:42.000Z</time>
</trkpt>
<trkpt lat="46.2523590" lon="10.5469440">
	<ele>1666.80</ele>
	<time>2024-03-09T10:02:43.000Z</time>
</trkpt>
<trkpt lat="46.2523590" lon="10.5469510">
	<ele>1666.80</ele>
	<time>2024-03-09T10:02:44.000Z</time>
</trkpt>
<trkpt lat="46.2523640" lon="10.5469580">
	<ele>1666.80</ele>
	<time>2024-03-09T10:02:45.000Z</time>
</trkpt>
<trkpt lat="46.2523670" lon="10.5469670">
	<ele>1667.00</ele>
	<time>2024-03-09T10:02:46.000Z</time>
</trkpt>
<trkpt lat="46.2523700" lon="10.5469720">
	<ele>1666.80</ele>
	<time>2024-03-09T10:02:47.000Z</time>
</trkpt>
<trkpt lat="46.2523730" lon="10.5469770">
	<ele>1666.80</ele>
	<time>2024-03-09T10:02:48.000Z</time>
</trkpt>
<trkpt lat="46.2523760" lon="10.5469840">
	<ele>1667.00</ele>
	<time>2024-03-09T10:02:49.000Z</time>
</trkpt>
<trkpt lat="46.2523770" lon="10.5469920">
	<ele>1667.00</ele>
	<time>2024-03-09T10:02:50.000Z</time>
</trkpt>
<trkpt lat="46.2523790" lon="10.5470000">
	<ele>1667.00</ele>
	<time>2024-03-09T10:02:51.000Z</time>
</trkpt>
<trkpt lat="46.2523830" lon="10.5470090">
	<ele>1667.00</ele>
	<time>2024-03-09T10:02:52.000Z</time>
</trkpt>
<trkpt lat="46.2523840" lon="10.5470170">
	<ele>1667.00</ele>
	<time>2024-03-09T10:02:53.000Z</time>
</trkpt>
<trkpt lat="46.2523870" lon="10.5470270">
	<ele>1667.00</ele>
	<time>2024-03-09T10:02:54.000Z</time>
</trkpt>
<trkpt lat="46.2523870" lon="10.5470390">
	<ele>1667.20</ele>
	<time>2024-03-09T10:02:55.000Z</time>
</trkpt>
<trkpt lat="46.2523860" lon="10.5470510">
	<ele>1667.20</ele>
	<time>2024-03-09T10:02:56.000Z</time>
</trkpt>
<trkpt lat="46.2523850" lon="10.5470630">
	<ele>1667.20</ele>
	<time>2024-03-09T10:02:57.000Z</time>
</trkpt>
<trkpt lat="46.2523840" lon="10.5470720">
	<ele>1667.40</ele>
	<time>2024-03-09T10:02:58.000Z</time>
</trkpt>
<trkpt lat="46.2523870" lon="10.5470800">
	<ele>1667.40</ele>
	<time>2024-03-09T10:02:59.000Z</time>
</trkpt>
<trkpt lat="46.2523900" lon="10.5470880">
	<ele>1667.40</ele>
	<time>2024-03-09T10:03:00.000Z</time>
</trkpt>
<trkpt lat="46.2523940" lon="10.5470950">
	<ele>1667.60</ele>
	<time>2024-03-09T10:03:01.000Z</time>
</trkpt>
<trkpt lat="46.2523960" lon="10.5471020">
	<ele>1667.60</ele>
	<time>2024-03-09T10:03:02.000Z</time>
</trkpt>
<trkpt lat="46.2523990" lon="10.5471090">
	<ele>1667.60</ele>
	<time>2024-03-09T10:03:03.000Z</time>
</trkpt>
<trkpt lat="46.2524010" lon="10.5471150">
	<ele>1667.60</ele>
	<time>2024-03-09T10:03:04.000Z</time>
</trkpt>
<trkpt lat="46.2524020" lon="10.5471250">
	<ele>1667.80</ele>
	<time>2024-03-09T10:03:05.000Z</time>
</trkpt>
<trkpt lat="46.2524040" lon="10.5471330">
	<ele>1667.80</ele>
	<time>2024-03-09T10:03:06.000Z</time>
</trkpt>
<trkpt lat="46.2524070" lon="10.5471430">
	<ele>1668.00</ele>
	<time>2024-03-09T10:03:07.000Z</time>
</trkpt>
<trkpt lat="46.2524090" lon="10.5471540">
	<ele>1668.00</ele>
	<time>2024-03-09T10:03:08.000Z</time>
</trkpt>
<trkpt lat="46.2524110" lon="10.5471620">
	<ele>1668.20</ele>
	<time>2024-03-09T10:03:09.000Z</time>
</trkpt>
<trkpt lat="46.2524120" lon="10.5471720">
	<ele>1668.20</ele>
	<time>2024-03-09T10:03:10.000Z</time>
</trkpt>
<trkpt lat="46.2524140" lon="10.5471830">
	<ele>1668.20</ele>
	<time>2024-03-09T10:03:11.000Z</time>
</trkpt>
<trkpt lat="46.2524160" lon="10.5471880">
	<ele>1668.40</ele>
	<time>2024-03-09T10:03:12.000Z</time>
</trkpt>
<trkpt lat="46.2524180" lon="10.5471960">
	<ele>1668.40</ele>
	<time>2024-03-09T10:03:13.000Z</time>
</trkpt>
<trkpt lat="46.2524190" lon="10.5472040">
	<ele>1668.60</ele>
	<time>2024-03-09T10:03:14.000Z</time>
</trkpt>
<trkpt lat="46.2524190" lon="10.5472110">
	<ele>1668.60</ele>
	<time>2024-03-09T10:03:15.000Z</time>
</trkpt>
<trkpt lat="46.2524200" lon="10.5472220">
	<ele>1668.60</ele>
	<time>2024-03-09T10:03:16.000Z</time>
</trkpt>
<trkpt lat="46.2524220" lon="10.5472380">
	<ele>1668.80</ele>
	<time>2024-03-09T10:03:17.000Z</time>
</trkpt>
<trkpt lat="46.2524240" lon="10.5472500">
	<ele>1668.80</ele>
	<time>2024-03-09T10:03:18.000Z</time>
</trkpt>
<trkpt lat="46.2524250" lon="10.5472600">
	<ele>1668.80</ele>
	<time>2024-03-09T10:03:19.000Z</time>
</trkpt>
<trkpt lat="46.2524240" lon="10.5472690">
	<ele>1668.80</ele>
	<time>2024-03-09T10:03:20.000Z</time>
</trkpt>
<trkpt lat="46.2524270" lon="10.5472800">
	<ele>1669.00</ele>
	<time>2024-03-09T10:03:21.000Z</time>
</trkpt>
<trkpt lat="46.2524290" lon="10.5472920">
	<ele>1669.20</ele>
	<time>2024-03-09T10:03:22.000Z</time>
</trkpt>
<trkpt lat="46.2524320" lon="10.5473030">
	<ele>1669.20</ele>
	<time>2024-03-09T10:03:23.000Z</time>
</trkpt>
<trkpt lat="46.2524360" lon="10.5473130">
	<ele>1669.40</ele>
	<time>2024-03-09T10:03:24.000Z</time>
</trkpt>
<trkpt lat="46.2524380" lon="10.5473250">
	<ele>1669.40</ele>
	<time>2024-03-09T10:03:25.000Z</time>
</trkpt>
<trkpt lat="46.2524410" lon="10.5473340">
	<ele>1669.40</ele>
	<time>2024-03-09T10:03:26.000Z</time>
</trkpt>
<trkpt lat="46.2524430" lon="10.5473380">
	<ele>1669.60</ele>
	<time>2024-03-09T10:03:27.000Z</time>
</trkpt>
<trkpt lat="46.2524440" lon="10.5473400">
	<ele>1669.60</ele>
	<time>2024-03-09T10:03:28.000Z</time>
</trkpt>
<trkpt lat="46.2524450" lon="10.5473390">
	<ele>1669.80</ele>
	<time>2024-03-09T10:03:29.000Z</time>
</trkpt>
<trkpt lat="46.2524460" lon="10.5473370">
	<ele>1669.80</ele>
	<time>2024-03-09T10:03:30.000Z</time>
</trkpt>
<trkpt lat="46.2524460" lon="10.5473350">
	<ele>1669.80</ele>
	<time>2024-03-09T10:03:31.000Z</time>
</trkpt>
<trkpt lat="46.2524460" lon="10.5473350">
	<ele>1669.80</ele>
	<time>2024-03-09T10:03:32.000Z</time>
</trkpt>
<trkpt lat="46.2524460" lon="10.5473360">
	<ele>1669.60</ele>
	<time>2024-03-09T10:03:33.000Z</time>
</trkpt>
<trkpt lat="46.2524460" lon="10.5473370">
	<ele>1669.60</ele>
	<time>2024-03-09T10:03:34.000Z</time>
</trkpt>
<trkpt lat="46.2524450" lon="10.5473390">
	<ele>1669.40</ele>
	<time>2024-03-09T10:03:35.000Z</time>
</trkpt>
<trkpt lat="46.2524440" lon="10.5473420">
	<ele>1669.40</ele>
	<time>2024-03-09T10:03:36.000Z</time>
</trkpt>
<trkpt lat="46.2524430" lon="10.5473450">
	<ele>1669.40</ele>
	<time>2024-03-09T10:03:37.000Z</time>
</trkpt>
<trkpt lat="46.2524430" lon="10.5473440">
	<ele>1669.40</ele>
	<time>2024-03-09T10:03:38.000Z</time>
</trkpt>
<trkpt lat="46.2524430" lon="10.5473420">
	<ele>1669.40</ele>
	<time>2024-03-09T10:03:39.000Z</time>
</trkpt>
<trkpt lat="46.2524420" lon="10.5473460">
	<ele>1669.60</ele>
	<time>2024-03-09T10:03:40.000Z</time>
</trkpt>
<trkpt lat="46.2524420" lon="10.5473460">
	<ele>1669.60</ele>
	<time>2024-03-09T10:03:41.000Z</time>
</trkpt>
<trkpt lat="46.2524430" lon="10.5473460">
	<ele>1669.60</ele>
	<time>2024-03-09T10:03:42.000Z</time>
</trkpt>
<trkpt lat="46.2524420" lon="10.5473500">
	<ele>1669.80</ele>
	<time>2024-03-09T10:03:43.000Z</time>
</trkpt>
<trkpt lat="46.2524430" lon="10.5473510">
	<ele>1669.80</ele>
	<time>2024-03-09T10:03:44.000Z</time>
</trkpt>
<trkpt lat="46.2524420" lon="10.5473530">
	<ele>1669.80</ele>
	<time>2024-03-09T10:03:45.000Z</time>
</trkpt>
<trkpt lat="46.2524400" lon="10.5473540">
	<ele>1669.80</ele>
	<time>2024-03-09T10:03:46.000Z</time>
</trkpt>
<trkpt lat="46.2524400" lon="10.5473540">
	<ele>1669.60</ele>
	<time>2024-03-09T10:03:47.000Z</time>
</trkpt>
<trkpt lat="46.2524410" lon="10.5473540">
	<ele>1669.60</ele>
	<time>2024-03-09T10:03:48.000Z</time>
</trkpt>
<trkpt lat="46.2524410" lon="10.5473540">
	<ele>1669.60</ele>
	<time>2024-03-09T10:03:49.000Z</time>
</trkpt>
<trkpt lat="46.2524410" lon="10.5473540">
	<ele>1669.40</ele>
	<time>2024-03-09T10:03:50.000Z</time>
</trkpt>
<trkpt lat="46.2524410" lon="10.5473540">
	<ele>1669.40</ele>
	<time>2024-03-09T10:03:51.000Z</time>
</trkpt>
<trkpt lat="46.2524410" lon="10.5473540">
	<ele>1669.40</ele>
	<time>2024-03-09T10:03:52.000Z</time>
</trkpt>
<trkpt lat="46.2524410" lon="10.5473540">
	<ele>1669.40</ele>
	<time>2024-03-09T10:03:53.000Z</time>
</trkpt>
<trkpt lat="46.2524410" lon="10.5473540">
	<ele>1669.60</ele>
	<time>2024-03-09T10:03:54.000Z</time>
</trkpt>
<trkpt lat="46.2524410" lon="10.5473540">
	<ele>1669.60</ele>
	<time>2024-03-09T10:03:55.000Z</time>
</trkpt>
<trkpt lat="46.2524410" lon="10.5473540">
	<ele>1669.60</ele>
	<time>2024-03-09T10:03:56.000Z</time>
</trkpt>
<trkpt lat="46.2524410" lon="10.5473540">
	<ele>1669.60</ele>
	<time>2024-03-09T10:03:57.000Z</time>
</trkpt>
<trkpt lat="46.2524410" lon="10.5473540">
	<ele>1669.60</ele>
	<time>2024-03-09T10:03:58.000Z</time>
</trkpt>
<trkpt lat="46.2524410" lon="10.5473540">
	<ele>1669.60</ele>
	<time>2024-03-09T10:03:59.000Z</time>
</trkpt>
<trkpt lat="46.2524410" lon="10.5473540">
	<ele>1669.80</ele>
	<time>2024-03-09T10:04:00.000Z</time>
</trkpt>
<trkpt lat="46.2524410" lon="10.5473540">
	<ele>1669.80</ele>
	<time>2024-03-09T10:04:01.000Z</time>
</trkpt>
<trkpt lat="46.2524410" lon="10.5473540">
	<ele>1670.00</ele>
	<time>2024-03-09T10:04:02.000Z</time>
</trkpt>
<trkpt lat="46.2524420" lon="10.5473540">
	<ele>1670.00</ele>
	<time>2024-03-09T10:04:03.000Z</time>
</trkpt>
<trkpt lat="46.2524420" lon="10.5473540">
	<ele>1670.00</ele>
	<time>2024-03-09T10:04:04.000Z</time>
</trkpt>
<trkpt lat="46.2524420" lon="10.5473540">
	<ele>1670.20</ele>
	<time>2024-03-09T10:04:05.000Z</time>
</trkpt>
<trkpt lat="46.2524420" lon="10.5473540">
	<ele>1670.20</ele>
	<time>2024-03-09T10:04:06.000Z</time>
</trkpt>
<trkpt lat="46.2524430" lon="10.5473540">
	<ele>1670.20</ele>
	<time>2024-03-09T10:04:07.000Z</time>
</trkpt>
<trkpt lat="46.2524430" lon="10.5473540">
	<ele>1670.20</ele>
	<time>2024-03-09T10:04:08.000Z</time>
</trkpt>
<trkpt lat="46.2524430" lon="10.5473540">
	<ele>1670.20</ele>
	<time>2024-03-09T10:04:09.000Z</time>
</trkpt>
<trkpt lat="46.2524430" lon="10.5473540">
	<ele>1670.20</ele>
	<time>2024-03-09T10:04:10.000Z</time>
</trkpt>
<trkpt lat="46.2524430" lon="10.5473540">
	<ele>1670.40</ele>
	<time>2024-03-09T10:04:11.000Z</time>
</trkpt>
<trkpt lat="46.2524470" lon="10.5473650">
	<ele>1670.40</ele>
	<time>2024-03-09T10:04:12.000Z</time>
</trkpt>
<trkpt lat="46.2524550" lon="10.5473840">
	<ele>1670.40</ele>
	<time>2024-03-09T10:04:13.000Z</time>
</trkpt>
<trkpt lat="46.2524640" lon="10.5474030">
	<ele>1670.40</ele>
	<time>2024-03-09T10:04:14.000Z</time>
</trkpt>
<trkpt lat="46.2524710" lon="10.5474210">
	<ele>1670.60</ele>
	<time>2024-03-09T10:04:15.000Z</time>
</trkpt>
<trkpt lat="46.2524770" lon="10.5474390">
	<ele>1670.60</ele>
	<time>2024-03-09T10:04:16.000Z</time>
</trkpt>
<trkpt lat="46.2524860" lon="10.5474580">
	<ele>1670.60</ele>
	<time>2024-03-09T10:04:17.000Z</time>
</trkpt>
<trkpt lat="46.2524940" lon="10.5474780">
	<ele>1670.80</ele>
	<time>2024-03-09T10:04:18.000Z</time>
</trkpt>
<trkpt lat="46.2525050" lon="10.5474960">
	<ele>1671.00</ele>
	<time>2024-03-09T10:04:19.000Z</time>
</trkpt>
<trkpt lat="46.2525140" lon="10.5475160">
	<ele>1671.00</ele>
	<time>2024-03-09T10:04:20.000Z</time>
</trkpt>
<trkpt lat="46.2525230" lon="10.5475360">
	<ele>1671.00</ele>
	<time>2024-03-09T10:04:21.000Z</time>
</trkpt>
<trkpt lat="46.2525270" lon="10.5475460">
	<ele>1671.00</ele>
	<time>2024-03-09T10:04:22.000Z</time>
</trkpt>
<trkpt lat="46.2525320" lon="10.5475540">
	<ele>1671.40</ele>
	<time>2024-03-09T10:04:23.000Z</time>
</trkpt>
<trkpt lat="46.2525380" lon="10.5475640">
	<ele>1671.60</ele>
	<time>2024-03-09T10:04:24.000Z</time>
</trkpt>
<trkpt lat="46.2525440" lon="10.5475740">
	<ele>1671.60</ele>
	<time>2024-03-09T10:04:25.000Z</time>
</trkpt>
<trkpt lat="46.2525480" lon="10.5475840">
	<ele>1671.80</ele>
	<time>2024-03-09T10:04:26.000Z</time>
</trkpt>
<trkpt lat="46.2525490" lon="10.5475940">
	<ele>1671.80</ele>
	<time>2024-03-09T10:04:27.000Z</time>
</trkpt>
<trkpt lat="46.2525530" lon="10.5476030">
	<ele>1671.80</ele>
	<time>2024-03-09T10:04:28.000Z</time>
</trkpt>
<trkpt lat="46.2525580" lon="10.5476110">
	<ele>1671.80</ele>
	<time>2024-03-09T10:04:29.000Z</time>
</trkpt>
<trkpt lat="46.2525640" lon="10.5476180">
	<ele>1671.80</ele>
	<time>2024-03-09T10:04:30.000Z</time>
</trkpt>
<trkpt lat="46.2525680" lon="10.5476240">
	<ele>1672.00</ele>
	<time>2024-03-09T10:04:31.000Z</time>
</trkpt>
<trkpt lat="46.2525740" lon="10.5476300">
	<ele>1672.00</ele>
	<time>2024-03-09T10:04:32.000Z</time>
</trkpt>
<trkpt lat="46.2525780" lon="10.5476360">
	<ele>1672.20</ele>
	<time>2024-03-09T10:04:33.000Z</time>
</trkpt>
<trkpt lat="46.2525840" lon="10.5476440">
	<ele>1672.20</ele>
	<time>2024-03-09T10:04:34.000Z</time>
</trkpt>
<trkpt lat="46.2525890" lon="10.5476550">
	<ele>1672.40</ele>
	<time>2024-03-09T10:04:35.000Z</time>
</trkpt>
<trkpt lat="46.2525930" lon="10.5476660">
	<ele>1672.60</ele>
	<time>2024-03-09T10:04:36.000Z</time>
</trkpt>
<trkpt lat="46.2525940" lon="10.5476740">
	<ele>1672.60</ele>
	<time>2024-03-09T10:04:37.000Z</time>
</trkpt>
<trkpt lat="46.2525960" lon="10.5476820">
	<ele>1672.80</ele>
	<time>2024-03-09T10:04:38.000Z</time>
</trkpt>
<trkpt lat="46.2525970" lon="10.5476910">
	<ele>1672.80</ele>
	<time>2024-03-09T10:04:39.000Z</time>
</trkpt>
<trkpt lat="46.2525980" lon="10.5476980">
	<ele>1672.80</ele>
	<time>2024-03-09T10:04:40.000Z</time>
</trkpt>
<trkpt lat="46.2526030" lon="10.5477040">
	<ele>1673.00</ele>
	<time>2024-03-09T10:04:41.000Z</time>
</trkpt>
<trkpt lat="46.2526080" lon="10.5477130">
	<ele>1673.20</ele>
	<time>2024-03-09T10:04:42.000Z</time>
</trkpt>
<trkpt lat="46.2526120" lon="10.5477250">
	<ele>1673.20</ele>
	<time>2024-03-09T10:04:43.000Z</time>
</trkpt>
<trkpt lat="46.2526150" lon="10.5477360">
	<ele>1673.20</ele>
	<time>2024-03-09T10:04:44.000Z</time>
</trkpt>
<trkpt lat="46.2526190" lon="10.5477440">
	<ele>1673.40</ele>
	<time>2024-03-09T10:04:45.000Z</time>
</trkpt>
<trkpt lat="46.2526240" lon="10.5477530">
	<ele>1673.60</ele>
	<time>2024-03-09T10:04:46.000Z</time>
</trkpt>
<trkpt lat="46.2526290" lon="10.5477630">
	<ele>1673.60</ele>
	<time>2024-03-09T10:04:47.000Z</time>
</trkpt>
<trkpt lat="46.2526340" lon="10.5477700">
	<ele>1673.60</ele>
	<time>2024-03-09T10:04:48.000Z</time>
</trkpt>
<trkpt lat="46.2526380" lon="10.5477800">
	<ele>1673.80</ele>
	<time>2024-03-09T10:04:49.000Z</time>
</trkpt>
<trkpt lat="46.2526430" lon="10.5477880">
	<ele>1673.80</ele>
	<time>2024-03-09T10:04:50.000Z</time>
</trkpt>
<trkpt lat="46.2526470" lon="10.5477960">
	<ele>1673.80</ele>
	<time>2024-03-09T10:04:51.000Z</time>
</trkpt>
<trkpt lat="46.2526520" lon="10.5478050">
	<ele>1673.80</ele>
	<time>2024-03-09T10:04:52.000Z</time>
</trkpt>
<trkpt lat="46.2526560" lon="10.5478140">
	<ele>1674.00</ele>
	<time>2024-03-09T10:04:53.000Z</time>
</trkpt>
<trkpt lat="46.2526590" lon="10.5478220">
	<ele>1674.20</ele>
	<time>2024-03-09T10:04:54.000Z</time>
</trkpt>
<trkpt lat="46.2526640" lon="10.5478290">
	<ele>1674.40</ele>
	<time>2024-03-09T10:04:55.000Z</time>
</trkpt>
<trkpt lat="46.2526690" lon="10.5478380">
	<ele>1674.40</ele>
	<time>2024-03-09T10:04:56.000Z</time>
</trkpt>
<trkpt lat="46.2526720" lon="10.5478540">
	<ele>1674.40</ele>
	<time>2024-03-09T10:04:57.000Z</time>
</trkpt>
<trkpt lat="46.2526730" lon="10.5478630">
	<ele>1674.60</ele>
	<time>2024-03-09T10:04:58.000Z</time>
</trkpt>
<trkpt lat="46.2526780" lon="10.5478720">
	<ele>1674.60</ele>
	<time>2024-03-09T10:04:59.000Z</time>
</trkpt>
<trkpt lat="46.2526830" lon="10.5478810">
	<ele>1674.80</ele>
	<time>2024-03-09T10:05:00.000Z</time>
</trkpt>
<trkpt lat="46.2526920" lon="10.5478890">
	<ele>1674.80</ele>
	<time>2024-03-09T10:05:01.000Z</time>
</trkpt>
<trkpt lat="46.2527000" lon="10.5478980">
	<ele>1675.00</ele>
	<time>2024-03-09T10:05:02.000Z</time>
</trkpt>
<trkpt lat="46.2527040" lon="10.5479100">
	<ele>1675.00</ele>
	<time>2024-03-09T10:05:03.000Z</time>
</trkpt>
<trkpt lat="46.2527080" lon="10.5479190">
	<ele>1675.20</ele>
	<time>2024-03-09T10:05:04.000Z</time>
</trkpt>
<trkpt lat="46.2527120" lon="10.5479260">
	<ele>1675.40</ele>
	<time>2024-03-09T10:05:05.000Z</time>
</trkpt>
<trkpt lat="46.2527160" lon="10.5479330">
	<ele>1675.40</ele>
	<time>2024-03-09T10:05:06.000Z</time>
</trkpt>
<trkpt lat="46.2527200" lon="10.5479380">
	<ele>1675.60</ele>
	<time>2024-03-09T10:05:07.000Z</time>
</trkpt>
<trkpt lat="46.2527210" lon="10.5479450">
	<ele>1675.80</ele>
	<time>2024-03-09T10:05:08.000Z</time>
</trkpt>
<trkpt lat="46.2527240" lon="10.5479580">
	<ele>1676.00</ele>
	<time>2024-03-09T10:05:09.000Z</time>
</trkpt>
<trkpt lat="46.2527260" lon="10.5479720">
	<ele>1676.00</ele>
	<time>2024-03-09T10:05:10.000Z</time>
</trkpt>
<trkpt lat="46.2527290" lon="10.5479850">
	<ele>1676.20</ele>
	<time>2024-03-09T10:05:11.000Z</time>
</trkpt>
<trkpt lat="46.2527340" lon="10.5479970">
	<ele>1676.40</ele>
	<time>2024-03-09T10:05:12.000Z</time>
</trkpt>
<trkpt lat="46.2527380" lon="10.5480070">
	<ele>1676.60</ele>
	<time>2024-03-09T10:05:13.000Z</time>
</trkpt>
<trkpt lat="46.2527430" lon="10.5480140">
	<ele>1676.60</ele>
	<time>2024-03-09T10:05:14.000Z</time>
</trkpt>
<trkpt lat="46.2527450" lon="10.5480240">
	<ele>1676.60</ele>
	<time>2024-03-09T10:05:15.000Z</time>
</trkpt>
<trkpt lat="46.2527480" lon="10.5480340">
	<ele>1676.80</ele>
	<time>2024-03-09T10:05:16.000Z</time>
</trkpt>
<trkpt lat="46.2527520" lon="10.5480430">
	<ele>1676.80</ele>
	<time>2024-03-09T10:05:17.000Z</time>
</trkpt>
<trkpt lat="46.2527570" lon="10.5480540">
	<ele>1676.80</ele>
	<time>2024-03-09T10:05:18.000Z</time>
</trkpt>
<trkpt lat="46.2527610" lon="10.5480630">
	<ele>1677.00</ele>
	<time>2024-03-09T10:05:19.000Z</time>
</trkpt>
<trkpt lat="46.2527670" lon="10.5480710">
	<ele>1677.20</ele>
	<time>2024-03-09T10:05:20.000Z</time>
</trkpt>
<trkpt lat="46.2527720" lon="10.5480770">
	<ele>1677.40</ele>
	<time>2024-03-09T10:05:21.000Z</time>
</trkpt>
<trkpt lat="46.2527750" lon="10.5480860">
	<ele>1677.40</ele>
	<time>2024-03-09T10:05:22.000Z</time>
</trkpt>
<trkpt lat="46.2527770" lon="10.5480980">
	<ele>1677.40</ele>
	<time>2024-03-09T10:05:23.000Z</time>
</trkpt>
<trkpt lat="46.2527790" lon="10.5481060">
	<ele>1677.40</ele>
	<time>2024-03-09T10:05:24.000Z</time>
</trkpt>
<trkpt lat="46.2527840" lon="10.5481160">
	<ele>1677.40</ele>
	<time>2024-03-09T10:05:25.000Z</time>
</trkpt>
<trkpt lat="46.2527870" lon="10.5481260">
	<ele>1677.40</ele>
	<time>2024-03-09T10:05:26.000Z</time>
</trkpt>
<trkpt lat="46.2527920" lon="10.5481340">
	<ele>1677.40</ele>
	<time>2024-03-09T10:05:27.000Z</time>
</trkpt>
<trkpt lat="46.2527970" lon="10.5481420">
	<ele>1677.60</ele>
	<time>2024-03-09T10:05:28.000Z</time>
</trkpt>
<trkpt lat="46.2528000" lon="10.5481530">
	<ele>1677.80</ele>
	<time>2024-03-09T10:05:29.000Z</time>
</trkpt>
<trkpt lat="46.2528020" lon="10.5481640">
	<ele>1678.20</ele>
	<time>2024-03-09T10:05:30.000Z</time>
</trkpt>
<trkpt lat="46.2528020" lon="10.5481770">
	<ele>1678.20</ele>
	<time>2024-03-09T10:05:31.000Z</time>
</trkpt>
<trkpt lat="46.2528040" lon="10.5481910">
	<ele>1678.40</ele>
	<time>2024-03-09T10:05:32.000Z</time>
</trkpt>
<trkpt lat="46.2528080" lon="10.5481990">
	<ele>1678.40</ele>
	<time>2024-03-09T10:05:33.000Z</time>
</trkpt>
<trkpt lat="46.2528110" lon="10.5482100">
	<ele>1678.40</ele>
	<time>2024-03-09T10:05:34.000Z</time>
</trkpt>
<trkpt lat="46.2528150" lon="10.5482210">
	<ele>1678.60</ele>
	<time>2024-03-09T10:05:35.000Z</time>
</trkpt>
<trkpt lat="46.2528160" lon="10.5482320">
	<ele>1678.60</ele>
	<time>2024-03-09T10:05:36.000Z</time>
</trkpt>
<trkpt lat="46.2528190" lon="10.5482420">
	<ele>1678.80</ele>
	<time>2024-03-09T10:05:37.000Z</time>
</trkpt>
<trkpt lat="46.2528180" lon="10.5482500">
	<ele>1679.00</ele>
	<time>2024-03-09T10:05:38.000Z</time>
</trkpt>
<trkpt lat="46.2528180" lon="10.5482590">
	<ele>1679.20</ele>
	<time>2024-03-09T10:05:39.000Z</time>
</trkpt>
<trkpt lat="46.2528200" lon="10.5482690">
	<ele>1679.20</ele>
	<time>2024-03-09T10:05:40.000Z</time>
</trkpt>
<trkpt lat="46.2528220" lon="10.5482770">
	<ele>1679.40</ele>
	<time>2024-03-09T10:05:41.000Z</time>
</trkpt>
<trkpt lat="46.2528240" lon="10.5482910">
	<ele>1679.40</ele>
	<time>2024-03-09T10:05:42.000Z</time>
</trkpt>
<trkpt lat="46.2528260" lon="10.5483000">
	<ele>1679.60</ele>
	<time>2024-03-09T10:05:43.000Z</time>
</trkpt>
<trkpt lat="46.2528300" lon="10.5483100">
	<ele>1679.60</ele>
	<time>2024-03-09T10:05:44.000Z</time>
</trkpt>
<trkpt lat="46.2528330" lon="10.5483190">
	<ele>1679.60</ele>
	<time>2024-03-09T10:05:45.000Z</time>
</trkpt>
<trkpt lat="46.2528350" lon="10.5483290">
	<ele>1679.80</ele>
	<time>2024-03-09T10:05:46.000Z</time>
</trkpt>
<trkpt lat="46.2528400" lon="10.5483390">
	<ele>1679.80</ele>
	<time>2024-03-09T10:05:47.000Z</time>
</trkpt>
<trkpt lat="46.2528450" lon="10.5483510">
	<ele>1679.80</ele>
	<time>2024-03-09T10:05:48.000Z</time>
</trkpt>
<trkpt lat="46.2528480" lon="10.5483560">
	<ele>1680.00</ele>
	<time>2024-03-09T10:05:49.000Z</time>
</trkpt>
<trkpt lat="46.2528520" lon="10.5483660">
	<ele>1680.20</ele>
	<time>2024-03-09T10:05:50.000Z</time>
</trkpt>
<trkpt lat="46.2528540" lon="10.5483760">
	<ele>1680.20</ele>
	<time>2024-03-09T10:05:51.000Z</time>
</trkpt>
<trkpt lat="46.2528560" lon="10.5483830">
	<ele>1680.20</ele>
	<time>2024-03-09T10:05:52.000Z</time>
</trkpt>
<trkpt lat="46.2528590" lon="10.5483910">
	<ele>1680.40</ele>
	<time>2024-03-09T10:05:53.000Z</time>
</trkpt>
<trkpt lat="46.2528600" lon="10.5484020">
	<ele>1680.60</ele>
	<time>2024-03-09T10:05:54.000Z</time>
</trkpt>
<trkpt lat="46.2528640" lon="10.5484100">
	<ele>1680.60</ele>
	<time>2024-03-09T10:05:55.000Z</time>
</trkpt>
<trkpt lat="46.2528670" lon="10.5484180">
	<ele>1680.60</ele>
	<time>2024-03-09T10:05:56.000Z</time>
</trkpt>
<trkpt lat="46.2528700" lon="10.5484300">
	<ele>1680.60</ele>
	<time>2024-03-09T10:05:57.000Z</time>
</trkpt>
<trkpt lat="46.2528700" lon="10.5484380">
	<ele>1680.80</ele>
	<time>2024-03-09T10:05:58.000Z</time>
</trkpt>
<trkpt lat="46.2528720" lon="10.5484470">
	<ele>1680.80</ele>
	<time>2024-03-09T10:05:59.000Z</time>
</trkpt>
<trkpt lat="46.2528750" lon="10.5484560">
	<ele>1680.80</ele>
	<time>2024-03-09T10:06:00.000Z</time>
</trkpt>
<trkpt lat="46.2528770" lon="10.5484630">
	<ele>1680.80</ele>
	<time>2024-03-09T10:06:01.000Z</time>
</trkpt>
<trkpt lat="46.2528790" lon="10.5484710">
	<ele>1681.00</ele>
	<time>2024-03-09T10:06:02.000Z</time>
</trkpt>
<trkpt lat="46.2528830" lon="10.5484790">
	<ele>1681.20</ele>
	<time>2024-03-09T10:06:03.000Z</time>
</trkpt>
<trkpt lat="46.2528850" lon="10.5484910">
	<ele>1681.20</ele>
	<time>2024-03-09T10:06:04.000Z</time>
</trkpt>
<trkpt lat="46.2528860" lon="10.5485010">
	<ele>1681.40</ele>
	<time>2024-03-09T10:06:05.000Z</time>
</trkpt>
<trkpt lat="46.2528860" lon="10.5485150">
	<ele>1681.60</ele>
	<time>2024-03-09T10:06:06.000Z</time>
</trkpt>
<trkpt lat="46.2528860" lon="10.5485270">
	<ele>1681.60</ele>
	<time>2024-03-09T10:06:07.000Z</time>
</trkpt>
<trkpt lat="46.2528880" lon="10.5485370">
	<ele>1681.60</ele>
	<time>2024-03-09T10:06:08.000Z</time>
</trkpt>
<trkpt lat="46.2528880" lon="10.5485470">
	<ele>1681.80</ele>
	<time>2024-03-09T10:06:09.000Z</time>
</trkpt>
<trkpt lat="46.2528890" lon="10.5485640">
	<ele>1682.00</ele>
	<time>2024-03-09T10:06:10.000Z</time>
</trkpt>
<trkpt lat="46.2528920" lon="10.5485780">
	<ele>1682.20</ele>
	<time>2024-03-09T10:06:11.000Z</time>
</trkpt>
<trkpt lat="46.2528930" lon="10.5485900">
	<ele>1682.40</ele>
	<time>2024-03-09T10:06:12.000Z</time>
</trkpt>
<trkpt lat="46.2528940" lon="10.5486010">
	<ele>1682.60</ele>
	<time>2024-03-09T10:06:13.000Z</time>
</trkpt>
<trkpt lat="46.2528930" lon="10.5486130">
	<ele>1682.60</ele>
	<time>2024-03-09T10:06:14.000Z</time>
</trkpt>
<trkpt lat="46.2528930" lon="10.5486230">
	<ele>1682.80</ele>
	<time>2024-03-09T10:06:15.000Z</time>
</trkpt>
<trkpt lat="46.2528930" lon="10.5486320">
	<ele>1682.80</ele>
	<time>2024-03-09T10:06:16.000Z</time>
</trkpt>
<trkpt lat="46.2528920" lon="10.5486390">
	<ele>1682.80</ele>
	<time>2024-03-09T10:06:17.000Z</time>
</trkpt>
<trkpt lat="46.2528920" lon="10.5486470">
	<ele>1682.80</ele>
	<time>2024-03-09T10:06:18.000Z</time>
</trkpt>
<trkpt lat="46.2528910" lon="10.5486530">
	<ele>1682.80</ele>
	<time>2024-03-09T10:06:19.000Z</time>
</trkpt>
<trkpt lat="46.2528930" lon="10.5486540">
	<ele>1682.80</ele>
	<time>2024-03-09T10:06:20.000Z</time>
</trkpt>
<trkpt lat="46.2528940" lon="10.5486560">
	<ele>1682.80</ele>
	<time>2024-03-09T10:06:21.000Z</time>
</trkpt>
<trkpt lat="46.2528940" lon="10.5486560">
	<ele>1682.80</ele>
	<time>2024-03-09T10:06:22.000Z</time>
</trkpt>
<trkpt lat="46.2528940" lon="10.5486570">
	<ele>1682.80</ele>
	<time>2024-03-09T10:06:23.000Z</time>
</trkpt>
<trkpt lat="46.2528930" lon="10.5486560">
	<ele>1682.80</ele>
	<time>2024-03-09T10:06:24.000Z</time>
</trkpt>
<trkpt lat="46.2528910" lon="10.5486560">
	<ele>1682.80</ele>
	<time>2024-03-09T10:06:25.000Z</time>
</trkpt>
<trkpt lat="46.2528900" lon="10.5486560">
	<ele>1682.80</ele>
	<time>2024-03-09T10:06:26.000Z</time>
</trkpt>
<trkpt lat="46.2528910" lon="10.5486560">
	<ele>1682.80</ele>
	<time>2024-03-09T10:06:27.000Z</time>
</trkpt>
<trkpt lat="46.2528910" lon="10.5486550">
	<ele>1682.80</ele>
	<time>2024-03-09T10:06:28.000Z</time>
</trkpt>
<trkpt lat="46.2528920" lon="10.5486540">
	<ele>1682.80</ele>
	<time>2024-03-09T10:06:29.000Z</time>
</trkpt>
<trkpt lat="46.2528920" lon="10.5486520">
	<ele>1682.80</ele>
	<time>2024-03-09T10:06:30.000Z</time>
</trkpt>
<trkpt lat="46.2528930" lon="10.5486520">
	<ele>1682.80</ele>
	<time>2024-03-09T10:06:31.000Z</time>
</trkpt>
<trkpt lat="46.2528920" lon="10.5486520">
	<ele>1682.60</ele>
	<time>2024-03-09T10:06:32.000Z</time>
</trkpt>
<trkpt lat="46.2528920" lon="10.5486520">
	<ele>1682.60</ele>
	<time>2024-03-09T10:06:33.000Z</time>
</trkpt>
<trkpt lat="46.2528930" lon="10.5486520">
	<ele>1682.60</ele>
	<time>2024-03-09T10:06:34.000Z</time>
</trkpt>
<trkpt lat="46.2528930" lon="10.5486530">
	<ele>1682.60</ele>
	<time>2024-03-09T10:06:35.000Z</time>
</trkpt>
<trkpt lat="46.2528930" lon="10.5486550">
	<ele>1682.80</ele>
	<time>2024-03-09T10:06:36.000Z</time>
</trkpt>
<trkpt lat="46.2528940" lon="10.5486560">
	<ele>1682.80</ele>
	<time>2024-03-09T10:06:37.000Z</time>
</trkpt>
<trkpt lat="46.2528940" lon="10.5486560">
	<ele>1682.60</ele>
	<time>2024-03-09T10:06:38.000Z</time>
</trkpt>
<trkpt lat="46.2528940" lon="10.5486560">
	<ele>1682.60</ele>
	<time>2024-03-09T10:06:39.000Z</time>
</trkpt>
<trkpt lat="46.2528940" lon="10.5486560">
	<ele>1682.80</ele>
	<time>2024-03-09T10:06:40.000Z</time>
</trkpt>
<trkpt lat="46.2528940" lon="10.5486560">
	<ele>1682.80</ele>
	<time>2024-03-09T10:06:41.000Z</time>
</trkpt>
<trkpt lat="46.2528940" lon="10.5486560">
	<ele>1682.80</ele>
	<time>2024-03-09T10:06:42.000Z</time>
</trkpt>
<trkpt lat="46.2528940" lon="10.5486560">
	<ele>1682.80</ele>
	<time>2024-03-09T10:06:43.000Z</time>
</trkpt>
<trkpt lat="46.2528940" lon="10.5486560">
	<ele>1682.80</ele>
	<time>2024-03-09T10:06:44.000Z</time>
</trkpt>
<trkpt lat="46.2528940" lon="10.5486560">
	<ele>1682.80</ele>
	<time>2024-03-09T10:06:45.000Z</time>
</trkpt>
<trkpt lat="46.2528940" lon="10.5486560">
	<ele>1682.80</ele>
	<time>2024-03-09T10:06:46.000Z</time>
</trkpt>
<trkpt lat="46.2528930" lon="10.5486550">
	<ele>1682.80</ele>
	<time>2024-03-09T10:06:47.000Z</time>
</trkpt>
<trkpt lat="46.2528930" lon="10.5486550">
	<ele>1682.60</ele>
	<time>2024-03-09T10:06:48.000Z</time>
</trkpt>
<trkpt lat="46.2528930" lon="10.5486540">
	<ele>1682.40</ele>
	<time>2024-03-09T10:06:49.000Z</time>
</trkpt>
<trkpt lat="46.2528930" lon="10.5486540">
	<ele>1682.20</ele>
	<time>2024-03-09T10:06:50.000Z</time>
</trkpt>
<trkpt lat="46.2528930" lon="10.5486540">
	<ele>1682.20</ele>
	<time>2024-03-09T10:06:51.000Z</time>
</trkpt>
<trkpt lat="46.2528930" lon="10.5486540">
	<ele>1682.20</ele>
	<time>2024-03-09T10:06:52.000Z</time>
</trkpt>
<trkpt lat="46.2528930" lon="10.5486540">
	<ele>1682.40</ele>
	<time>2024-03-09T10:06:53.000Z</time>
</trkpt>
<trkpt lat="46.2528930" lon="10.5486530">
	<ele>1682.40</ele>
	<time>2024-03-09T10:06:54.000Z</time>
</trkpt>
<trkpt lat="46.2528930" lon="10.5486530">
	<ele>1682.40</ele>
	<time>2024-03-09T10:06:55.000Z</time>
</trkpt>
<trkpt lat="46.2528930" lon="10.5486530">
	<ele>1682.40</ele>
	<time>2024-03-09T10:06:56.000Z</time>
</trkpt>
<trkpt lat="46.2528930" lon="10.5486530">
	<ele>1682.40</ele>
	<time>2024-03-09T10:06:57.000Z</time>
</trkpt>
<trkpt lat="46.2528930" lon="10.5486530">
	<ele>1682.40</ele>
	<time>2024-03-09T10:06:58.000Z</time>
</trkpt>
<trkpt lat="46.2528930" lon="10.5486530">
	<ele>1682.20</ele>
	<time>2024-03-09T10:06:59.000Z</time>
</trkpt>
<trkpt lat="46.2528930" lon="10.5486530">
	<ele>1682.20</ele>
	<time>2024-03-09T10:07:00.000Z</time>
</trkpt>
<trkpt lat="46.2528930" lon="10.5486530">
	<ele>1682.20</ele>
	<time>2024-03-09T10:07:01.000Z</time>
</trkpt>
<trkpt lat="46.2528930" lon="10.5486530">
	<ele>1682.20</ele>
	<time>2024-03-09T10:07:02.000Z</time>
</trkpt>
<trkpt lat="46.2528930" lon="10.5486530">
	<ele>1682.20</ele>
	<time>2024-03-09T10:07:03.000Z</time>
</trkpt>
<trkpt lat="46.2528930" lon="10.5486530">
	<ele>1682.20</ele>
	<time>2024-03-09T10:07:04.000Z</time>
</trkpt>
<trkpt lat="46.2528930" lon="10.5486530">
	<ele>1682.40</ele>
	<time>2024-03-09T10:07:05.000Z</time>
</trkpt>
<trkpt lat="46.2528930" lon="10.5486530">
	<ele>1682.40</ele>
	<time>2024-03-09T10:07:06.000Z</time>
</trkpt>
<trkpt lat="46.2528930" lon="10.5486530">
	<ele>1682.60</ele>
	<time>2024-03-09T10:07:07.000Z</time>
</trkpt>
<trkpt lat="46.2528930" lon="10.5486530">
	<ele>1682.60</ele>
	<time>2024-03-09T10:07:08.000Z</time>
</trkpt>
<trkpt lat="46.2528930" lon="10.5486530">
	<ele>1682.60</ele>
	<time>2024-03-09T10:07:09.000Z</time>
</trkpt>
<trkpt lat="46.2528930" lon="10.5486530">
	<ele>1682.80</ele>
	<time>2024-03-09T10:07:10.000Z</time>
</trkpt>
<trkpt lat="46.2528940" lon="10.5486530">
	<ele>1683.00</ele>
	<time>2024-03-09T10:07:11.000Z</time>
</trkpt>
<trkpt lat="46.2528940" lon="10.5486530">
	<ele>1683.00</ele>
	<time>2024-03-09T10:07:12.000Z</time>
</trkpt>
<trkpt lat="46.2528940" lon="10.5486530">
	<ele>1683.20</ele>
	<time>2024-03-09T10:07:13.000Z</time>
</trkpt>
<trkpt lat="46.2528950" lon="10.5486590">
	<ele>1683.20</ele>
	<time>2024-03-09T10:07:14.000Z</time>
</trkpt>
<trkpt lat="46.2528950" lon="10.5486730">
	<ele>1683.40</ele>
	<time>2024-03-09T10:07:15.000Z</time>
</trkpt>
<trkpt lat="46.2528960" lon="10.5486860">
	<ele>1683.40</ele>
	<time>2024-03-09T10:07:16.000Z</time>
</trkpt>
<trkpt lat="46.2528970" lon="10.5487030">
	<ele>1683.40</ele>
	<time>2024-03-09T10:07:17.000Z</time>
</trkpt>
<trkpt lat="46.2528960" lon="10.5487200">
	<ele>1683.40</ele>
	<time>2024-03-09T10:07:18.000Z</time>
</trkpt>
<trkpt lat="46.2528980" lon="10.5487360">
	<ele>1683.40</ele>
	<time>2024-03-09T10:07:19.000Z</time>
</trkpt>
<trkpt lat="46.2528990" lon="10.5487540">
	<ele>1683.60</ele>
	<time>2024-03-09T10:07:20.000Z</time>
</trkpt>
<trkpt lat="46.2529000" lon="10.5487700">
	<ele>1683.60</ele>
	<time>2024-03-09T10:07:21.000Z</time>
</trkpt>
<trkpt lat="46.2529010" lon="10.5487880">
	<ele>1683.60</ele>
	<time>2024-03-09T10:07:22.000Z</time>
</trkpt>
<trkpt lat="46.2529010" lon="10.5488040">
	<ele>1683.80</ele>
	<time>2024-03-09T10:07:23.000Z</time>
</trkpt>
<trkpt lat="46.2529020" lon="10.5488110">
	<ele>1683.80</ele>
	<time>2024-03-09T10:07:24.000Z</time>
</trkpt>
<trkpt lat="46.2529020" lon="10.5488180">
	<ele>1684.00</ele>
	<time>2024-03-09T10:07:25.000Z</time>
</trkpt>
<trkpt lat="46.2529030" lon="10.5488260">
	<ele>1684.00</ele>
	<time>2024-03-09T10:07:26.000Z</time>
</trkpt>
<trkpt lat="46.2529030" lon="10.5488360">
	<ele>1684.00</ele>
	<time>2024-03-09T10:07:27.000Z</time>
</trkpt>
<trkpt lat="46.2529040" lon="10.5488440">
	<ele>1684.00</ele>
	<time>2024-03-09T10:07:28.000Z</time>
</trkpt>
<trkpt lat="46.2529030" lon="10.5488550">
	<ele>1684.00</ele>
	<time>2024-03-09T10:07:29.000Z</time>
</trkpt>
<trkpt lat="46.2529010" lon="10.5488670">
	<ele>1684.00</ele>
	<time>2024-03-09T10:07:30.000Z</time>
</trkpt>
<trkpt lat="46.2529000" lon="10.5488800">
	<ele>1684.20</ele>
	<time>2024-03-09T10:07:31.000Z</time>
</trkpt>
<trkpt lat="46.2529020" lon="10.5488900">
	<ele>1684.20</ele>
	<time>2024-03-09T10:07:32.000Z</time>
</trkpt>
<trkpt lat="46.2529060" lon="10.5489000">
	<ele>1684.20</ele>
	<time>2024-03-09T10:07:33.000Z</time>
</trkpt>
<trkpt lat="46.2529060" lon="10.5489120">
	<ele>1684.40</ele>
	<time>2024-03-09T10:07:34.000Z</time>
</trkpt>
<trkpt lat="46.2529080" lon="10.5489210">
	<ele>1684.40</ele>
	<time>2024-03-09T10:07:35.000Z</time>
</trkpt>
<trkpt lat="46.2529100" lon="10.5489280">
	<ele>1684.60</ele>
	<time>2024-03-09T10:07:36.000Z</time>
</trkpt>
<trkpt lat="46.2529100" lon="10.5489410">
	<ele>1684.60</ele>
	<time>2024-03-09T10:07:37.000Z</time>
</trkpt>
<trkpt lat="46.2529090" lon="10.5489480">
	<ele>1684.80</ele>
	<time>2024-03-09T10:07:38.000Z</time>
</trkpt>
<trkpt lat="46.2529090" lon="10.5489570">
	<ele>1684.80</ele>
	<time>2024-03-09T10:07:39.000Z</time>
</trkpt>
<trkpt lat="46.2529080" lon="10.5489700">
	<ele>1685.00</ele>
	<time>2024-03-09T10:07:40.000Z</time>
</trkpt>
<trkpt lat="46.2529060" lon="10.5489840">
	<ele>1685.00</ele>
	<time>2024-03-09T10:07:41.000Z</time>
</trkpt>
<trkpt lat="46.2529060" lon="10.5489930">
	<ele>1685.00</ele>
	<time>2024-03-09T10:07:42.000Z</time>
</trkpt>
<trkpt lat="46.2529060" lon="10.5490050">
	<ele>1685.00</ele>
	<time>2024-03-09T10:07:43.000Z</time>
</trkpt>
<trkpt lat="46.2529060" lon="10.5490180">
	<ele>1685.00</ele>
	<time>2024-03-09T10:07:44.000Z</time>
</trkpt>
<trkpt lat="46.2529050" lon="10.5490300">
	<ele>1685.00</ele>
	<time>2024-03-09T10:07:45.000Z</time>
</trkpt>
<trkpt lat="46.2529060" lon="10.5490400">
	<ele>1685.00</ele>
	<time>2024-03-09T10:07:46.000Z</time>
</trkpt>
<trkpt lat="46.2529070" lon="10.5490530">
	<ele>1685.20</ele>
	<time>2024-03-09T10:07:47.000Z</time>
</trkpt>
<trkpt lat="46.2529090" lon="10.5490640">
	<ele>1685.20</ele>
	<time>2024-03-09T10:07:48.000Z</time>
</trkpt>
<trkpt lat="46.2529110" lon="10.5490720">
	<ele>1685.20</ele>
	<time>2024-03-09T10:07:49.000Z</time>
</trkpt>
<trkpt lat="46.2529090" lon="10.5490880">
	<ele>1685.20</ele>
	<time>2024-03-09T10:07:50.000Z</time>
</trkpt>
<trkpt lat="46.2529090" lon="10.5490950">
	<ele>1685.20</ele>
	<time>2024-03-09T10:07:51.000Z</time>
</trkpt>
<trkpt lat="46.2529100" lon="10.5491070">
	<ele>1685.20</ele>
	<time>2024-03-09T10:07:52.000Z</time>
</trkpt>
<trkpt lat="46.2529110" lon="10.5491170">
	<ele>1685.20</ele>
	<time>2024-03-09T10:07:53.000Z</time>
</trkpt>
<trkpt lat="46.2529110" lon="10.5491290">
	<ele>1685.20</ele>
	<time>2024-03-09T10:07:54.000Z</time>
</trkpt>
<trkpt lat="46.2529110" lon="10.5491410">
	<ele>1685.20</ele>
	<time>2024-03-09T10:07:55.000Z</time>
</trkpt>
<trkpt lat="46.2529110" lon="10.5491550">
	<ele>1685.20</ele>
	<time>2024-03-09T10:07:56.000Z</time>
</trkpt>
<trkpt lat="46.2529100" lon="10.5491690">
	<ele>1685.20</ele>
	<time>2024-03-09T10:07:57.000Z</time>
</trkpt>
<trkpt lat="46.2529100" lon="10.5491760">
	<ele>1685.20</ele>
	<time>2024-03-09T10:07:58.000Z</time>
</trkpt>
<trkpt lat="46.2529110" lon="10.5491890">
	<ele>1685.20</ele>
	<time>2024-03-09T10:07:59.000Z</time>
</trkpt>
<trkpt lat="46.2529120" lon="10.5492010">
	<ele>1685.40</ele>
	<time>2024-03-09T10:08:00.000Z</time>
</trkpt>
<trkpt lat="46.2529120" lon="10.5492140">
	<ele>1685.40</ele>
	<time>2024-03-09T10:08:01.000Z</time>
</trkpt>
<trkpt lat="46.2529120" lon="10.5492280">
	<ele>1685.40</ele>
	<time>2024-03-09T10:08:02.000Z</time>
</trkpt>
<trkpt lat="46.2529100" lon="10.5492400">
	<ele>1685.60</ele>
	<time>2024-03-09T10:08:03.000Z</time>
</trkpt>
<trkpt lat="46.2529090" lon="10.5492490">
	<ele>1685.60</ele>
	<time>2024-03-09T10:08:04.000Z</time>
</trkpt>
<trkpt lat="46.2529100" lon="10.5492590">
	<ele>1685.60</ele>
	<time>2024-03-09T10:08:05.000Z</time>
</trkpt>
<trkpt lat="46.2529090" lon="10.5492700">
	<ele>1685.80</ele>
	<time>2024-03-09T10:08:06.000Z</time>
</trkpt>
<trkpt lat="46.2529120" lon="10.5492820">
	<ele>1685.80</ele>
	<time>2024-03-09T10:08:07.000Z</time>
</trkpt>
<trkpt lat="46.2529120" lon="10.5492930">
	<ele>1685.80</ele>
	<time>2024-03-09T10:08:08.000Z</time>
</trkpt>
<trkpt lat="46.2529080" lon="10.5493050">
	<ele>1686.00</ele>
	<time>2024-03-09T10:08:09.000Z</time>
</trkpt>
<trkpt lat="46.2529070" lon="10.5493180">
	<ele>1686.00</ele>
	<time>2024-03-09T10:08:10.000Z</time>
</trkpt>
<trkpt lat="46.2529060" lon="10.5493310">
	<ele>1686.20</ele>
	<time>2024-03-09T10:08:11.000Z</time>
</trkpt>
<trkpt lat="46.2529050" lon="10.5493450">
	<ele>1686.20</ele>
	<time>2024-03-09T10:08:12.000Z</time>
</trkpt>
<trkpt lat="46.2529070" lon="10.5493560">
	<ele>1686.40</ele>
	<time>2024-03-09T10:08:13.000Z</time>
</trkpt>
<trkpt lat="46.2529080" lon="10.5493660">
	<ele>1686.40</ele>
	<time>2024-03-09T10:08:14.000Z</time>
</trkpt>
<trkpt lat="46.2529090" lon="10.5493780">
	<ele>1686.40</ele>
	<time>2024-03-09T10:08:15.000Z</time>
</trkpt>
<trkpt lat="46.2529080" lon="10.5493910">
	<ele>1686.40</ele>
	<time>2024-03-09T10:08:16.000Z</time>
</trkpt>
<trkpt lat="46.2529080" lon="10.5494020">
	<ele>1686.40</ele>
	<time>2024-03-09T10:08:17.000Z</time>
</trkpt>
<trkpt lat="46.2529070" lon="10.5494150">
	<ele>1686.40</ele>
	<time>2024-03-09T10:08:18.000Z</time>
</trkpt>
<trkpt lat="46.2529080" lon="10.5494290">
	<ele>1686.40</ele>
	<time>2024-03-09T10:08:19.000Z</time>
</trkpt>
<trkpt lat="46.2529080" lon="10.5494430">
	<ele>1686.60</ele>
	<time>2024-03-09T10:08:20.000Z</time>
</trkpt>
<trkpt lat="46.2529090" lon="10.5494560">
	<ele>1686.60</ele>
	<time>2024-03-09T10:08:21.000Z</time>
</trkpt>
<trkpt lat="46.2529100" lon="10.5494720">
	<ele>1686.60</ele>
	<time>2024-03-09T10:08:22.000Z</time>
</trkpt>
<trkpt lat="46.2529100" lon="10.5494860">
	<ele>1686.60</ele>
	<time>2024-03-09T10:08:23.000Z</time>
</trkpt>
<trkpt lat="46.2529090" lon="10.5494980">
	<ele>1686.60</ele>
	<time>2024-03-09T10:08:24.000Z</time>
</trkpt>
<trkpt lat="46.2529080" lon="10.5495120">
	<ele>1686.80</ele>
	<time>2024-03-09T10:08:25.000Z</time>
</trkpt>
<trkpt lat="46.2529060" lon="10.5495240">
	<ele>1687.00</ele>
	<time>2024-03-09T10:08:26.000Z</time>
</trkpt>
<trkpt lat="46.2529060" lon="10.5495340">
	<ele>1687.00</ele>
	<time>2024-03-09T10:08:27.000Z</time>
</trkpt>
<trkpt lat="46.2529060" lon="10.5495470">
	<ele>1687.20</ele>
	<time>2024-03-09T10:08:28.000Z</time>
</trkpt>
<trkpt lat="46.2529050" lon="10.5495580">
	<ele>1687.20</ele>
	<time>2024-03-09T10:08:29.000Z</time>
</trkpt>
<trkpt lat="46.2529050" lon="10.5495660">
	<ele>1687.20</ele>
	<time>2024-03-09T10:08:30.000Z</time>
</trkpt>
<trkpt lat="46.2529060" lon="10.5495760">
	<ele>1687.40</ele>
	<time>2024-03-09T10:08:31.000Z</time>
</trkpt>
<trkpt lat="46.2529050" lon="10.5495880">
	<ele>1687.40</ele>
	<time>2024-03-09T10:08:32.000Z</time>
</trkpt>
<trkpt lat="46.2529030" lon="10.5495940">
	<ele>1687.40</ele>
	<time>2024-03-09T10:08:33.000Z</time>
</trkpt>
<trkpt lat="46.2529020" lon="10.5496080">
	<ele>1687.40</ele>
	<time>2024-03-09T10:08:34.000Z</time>
</trkpt>
<trkpt lat="46.2529000" lon="10.5496230">
	<ele>1687.40</ele>
	<time>2024-03-09T10:08:35.000Z</time>
</trkpt>
<trkpt lat="46.2528990" lon="10.5496350">
	<ele>1687.40</ele>
	<time>2024-03-09T10:08:36.000Z</time>
</trkpt>
<trkpt lat="46.2528990" lon="10.5496470">
	<ele>1687.40</ele>
	<time>2024-03-09T10:08:37.000Z</time>
</trkpt>
<trkpt lat="46.2529000" lon="10.5496610">
	<ele>1687.60</ele>
	<time>2024-03-09T10:08:38.000Z</time>
</trkpt>
<trkpt lat="46.2528990" lon="10.5496750">
	<ele>1687.60</ele>
	<time>2024-03-09T10:08:39.000Z</time>
</trkpt>
<trkpt lat="46.2528950" lon="10.5496870">
	<ele>1687.80</ele>
	<time>2024-03-09T10:08:40.000Z</time>
</trkpt>
<trkpt lat="46.2528940" lon="10.5497000">
	<ele>1687.80</ele>
	<time>2024-03-09T10:08:41.000Z</time>
</trkpt>
<trkpt lat="46.2528950" lon="10.5497100">
	<ele>1688.00</ele>
	<time>2024-03-09T10:08:42.000Z</time>
</trkpt>
<trkpt lat="46.2528970" lon="10.5497210">
	<ele>1688.00</ele>
	<time>2024-03-09T10:08:43.000Z</time>
</trkpt>
<trkpt lat="46.2528980" lon="10.5497310">
	<ele>1688.00</ele>
	<time>2024-03-09T10:08:44.000Z</time>
</trkpt>
<trkpt lat="46.2528980" lon="10.5497400">
	<ele>1688.20</ele>
	<time>2024-03-09T10:08:45.000Z</time>
</trkpt>
<trkpt lat="46.2529010" lon="10.5497510">
	<ele>1688.20</ele>
	<time>2024-03-09T10:08:46.000Z</time>
</trkpt>
<trkpt lat="46.2529030" lon="10.5497620">
	<ele>1688.20</ele>
	<time>2024-03-09T10:08:47.000Z</time>
</trkpt>
<trkpt lat="46.2529050" lon="10.5497710">
	<ele>1688.20</ele>
	<time>2024-03-09T10:08:48.000Z</time>
</trkpt>
<trkpt lat="46.2529040" lon="10.5497810">
	<ele>1688.40</ele>
	<time>2024-03-09T10:08:49.000Z</time>
</trkpt>
<trkpt lat="46.2529040" lon="10.5497940">
	<ele>1688.40</ele>
	<time>2024-03-09T10:08:50.000Z</time>
</trkpt>
<trkpt lat="46.2529010" lon="10.5498030">
	<ele>1688.40</ele>
	<time>2024-03-09T10:08:51.000Z</time>
</trkpt>
<trkpt lat="46.2529010" lon="10.5498130">
	<ele>1688.40</ele>
	<time>2024-03-09T10:08:52.000Z</time>
</trkpt>
<trkpt lat="46.2529020" lon="10.5498230">
	<ele>1688.40</ele>
	<time>2024-03-09T10:08:53.000Z</time>
</trkpt>
<trkpt lat="46.2529030" lon="10.5498320">
	<ele>1688.60</ele>
	<time>2024-03-09T10:08:54.000Z</time>
</trkpt>
<trkpt lat="46.2529010" lon="10.5498450">
	<ele>1688.60</ele>
	<time>2024-03-09T10:08:55.000Z</time>
</trkpt>
<trkpt lat="46.2529020" lon="10.5498550">
	<ele>1688.80</ele>
	<time>2024-03-09T10:08:56.000Z</time>
</trkpt>
<trkpt lat="46.2529040" lon="10.5498670">
	<ele>1688.80</ele>
	<time>2024-03-09T10:08:57.000Z</time>
</trkpt>
<trkpt lat="46.2529060" lon="10.5498770">
	<ele>1688.80</ele>
	<time>2024-03-09T10:08:58.000Z</time>
</trkpt>
<trkpt lat="46.2529060" lon="10.5498870">
	<ele>1689.00</ele>
	<time>2024-03-09T10:08:59.000Z</time>
</trkpt>
<trkpt lat="46.2529080" lon="10.5498970">
	<ele>1689.00</ele>
	<time>2024-03-09T10:09:00.000Z</time>
</trkpt>
<trkpt lat="46.2529080" lon="10.5499070">
	<ele>1689.00</ele>
	<time>2024-03-09T10:09:01.000Z</time>
</trkpt>
<trkpt lat="46.2529080" lon="10.5499160">
	<ele>1689.00</ele>
	<time>2024-03-09T10:09:02.000Z</time>
</trkpt>
<trkpt lat="46.2529080" lon="10.5499260">
	<ele>1689.00</ele>
	<time>2024-03-09T10:09:03.000Z</time>
</trkpt>
<trkpt lat="46.2529080" lon="10.5499360">
	<ele>1689.00</ele>
	<time>2024-03-09T10:09:04.000Z</time>
</trkpt>
<trkpt lat="46.2529060" lon="10.5499500">
	<ele>1689.20</ele>
	<time>2024-03-09T10:09:05.000Z</time>
</trkpt>
<trkpt lat="46.2529070" lon="10.5499590">
	<ele>1689.20</ele>
	<time>2024-03-09T10:09:06.000Z</time>
</trkpt>
<trkpt lat="46.2529060" lon="10.5499710">
	<ele>1689.20</ele>
	<time>2024-03-09T10:09:07.000Z</time>
</trkpt>
<trkpt lat="46.2529060" lon="10.5499800">
	<ele>1689.20</ele>
	<time>2024-03-09T10:09:08.000Z</time>
</trkpt>
<trkpt lat="46.2529060" lon="10.5499890">
	<ele>1689.20</ele>
	<time>2024-03-09T10:09:09.000Z</time>
</trkpt>
<trkpt lat="46.2529080" lon="10.5500030">
	<ele>1689.40</ele>
	<time>2024-03-09T10:09:10.000Z</time>
</trkpt>
<trkpt lat="46.2529080" lon="10.5500150">
	<ele>1689.60</ele>
	<time>2024-03-09T10:09:11.000Z</time>
</trkpt>
<trkpt lat="46.2529090" lon="10.5500230">
	<ele>1689.60</ele>
	<time>2024-03-09T10:09:12.000Z</time>
</trkpt>
<trkpt lat="46.2529110" lon="10.5500350">
	<ele>1689.60</ele>
	<time>2024-03-09T10:09:13.000Z</time>
</trkpt>
<trkpt lat="46.2529110" lon="10.5500460">
	<ele>1689.80</ele>
	<time>2024-03-09T10:09:14.000Z</time>
</trkpt>
<trkpt lat="46.2529130" lon="10.5500580">
	<ele>1689.80</ele>
	<time>2024-03-09T10:09:15.000Z</time>
</trkpt>
<trkpt lat="46.2529080" lon="10.5500710">
	<ele>1690.00</ele>
	<time>2024-03-09T10:09:16.000Z</time>
</trkpt>
<trkpt lat="46.2529070" lon="10.5500830">
	<ele>1690.00</ele>
	<time>2024-03-09T10:09:17.000Z</time>
</trkpt>
<trkpt lat="46.2529060" lon="10.5500900">
	<ele>1690.20</ele>
	<time>2024-03-09T10:09:18.000Z</time>
</trkpt>
<trkpt lat="46.2529060" lon="10.5501020">
	<ele>1690.20</ele>
	<time>2024-03-09T10:09:19.000Z</time>
</trkpt>
<trkpt lat="46.2529070" lon="10.5501130">
	<ele>1690.20</ele>
	<time>2024-03-09T10:09:20.000Z</time>
</trkpt>
<trkpt lat="46.2529070" lon="10.5501240">
	<ele>1690.40</ele>
	<time>2024-03-09T10:09:21.000Z</time>
</trkpt>
<trkpt lat="46.2529100" lon="10.5501300">
	<ele>1690.40</ele>
	<time>2024-03-09T10:09:22.000Z</time>
</trkpt>
<trkpt lat="46.2529080" lon="10.5501470">
	<ele>1690.40</ele>
	<time>2024-03-09T10:09:23.000Z</time>
</trkpt>
<trkpt lat="46.2529070" lon="10.5501610">
	<ele>1690.40</ele>
	<time>2024-03-09T10:09:24.000Z</time>
</trkpt>
<trkpt lat="46.2529070" lon="10.5501720">
	<ele>1690.40</ele>
	<time>2024-03-09T10:09:25.000Z</time>
</trkpt>
<trkpt lat="46.2529070" lon="10.5501810">
	<ele>1690.40</ele>
	<time>2024-03-09T10:09:26.000Z</time>
</trkpt>
<trkpt lat="46.2529070" lon="10.5501930">
	<ele>1690.40</ele>
	<time>2024-03-09T10:09:27.000Z</time>
</trkpt>
<trkpt lat="46.2529060" lon="10.5502050">
	<ele>1690.60</ele>
	<time>2024-03-09T10:09:28.000Z</time>
</trkpt>
<trkpt lat="46.2529080" lon="10.5502160">
	<ele>1690.60</ele>
	<time>2024-03-09T10:09:29.000Z</time>
</trkpt>
<trkpt lat="46.2529080" lon="10.5502280">
	<ele>1690.80</ele>
	<time>2024-03-09T10:09:30.000Z</time>
</trkpt>
<trkpt lat="46.2529070" lon="10.5502370">
	<ele>1690.80</ele>
	<time>2024-03-09T10:09:31.000Z</time>
</trkpt>
<trkpt lat="46.2529080" lon="10.5502460">
	<ele>1690.80</ele>
	<time>2024-03-09T10:09:32.000Z</time>
</trkpt>
<trkpt lat="46.2529050" lon="10.5502590">
	<ele>1690.80</ele>
	<time>2024-03-09T10:09:33.000Z</time>
</trkpt>
<trkpt lat="46.2529020" lon="10.5502720">
	<ele>1691.00</ele>
	<time>2024-03-09T10:09:34.000Z</time>
</trkpt>
<trkpt lat="46.2528980" lon="10.5502820">
	<ele>1691.00</ele>
	<time>2024-03-09T10:09:35.000Z</time>
</trkpt>
<trkpt lat="46.2528960" lon="10.5502910">
	<ele>1691.00</ele>
	<time>2024-03-09T10:09:36.000Z</time>
</trkpt>
<trkpt lat="46.2528970" lon="10.5503040">
	<ele>1691.00</ele>
	<time>2024-03-09T10:09:37.000Z</time>
</trkpt>
<trkpt lat="46.2528970" lon="10.5503150">
	<ele>1691.00</ele>
	<time>2024-03-09T10:09:38.000Z</time>
</trkpt>
<trkpt lat="46.2529000" lon="10.5503270">
	<ele>1691.00</ele>
	<time>2024-03-09T10:09:39.000Z</time>
</trkpt>
<trkpt lat="46.2529010" lon="10.5503410">
	<ele>1691.20</ele>
	<time>2024-03-09T10:09:40.000Z</time>
</trkpt>
<trkpt lat="46.2528980" lon="10.5503540">
	<ele>1691.20</ele>
	<time>2024-03-09T10:09:41.000Z</time>
</trkpt>
<trkpt lat="46.2528980" lon="10.5503640">
	<ele>1691.40</ele>
	<time>2024-03-09T10:09:42.000Z</time>
</trkpt>
<trkpt lat="46.2529000" lon="10.5503720">
	<ele>1691.40</ele>
	<time>2024-03-09T10:09:43.000Z</time>
</trkpt>
<trkpt lat="46.2529000" lon="10.5503790">
	<ele>1691.60</ele>
	<time>2024-03-09T10:09:44.000Z</time>
</trkpt>
<trkpt lat="46.2528980" lon="10.5503890">
	<ele>1691.60</ele>
	<time>2024-03-09T10:09:45.000Z</time>
</trkpt>
<trkpt lat="46.2528990" lon="10.5504030">
	<ele>1691.60</ele>
	<time>2024-03-09T10:09:46.000Z</time>
</trkpt>
<trkpt lat="46.2528990" lon="10.5504180">
	<ele>1691.60</ele>
	<time>2024-03-09T10:09:47.000Z</time>
</trkpt>
<trkpt lat="46.2528980" lon="10.5504300">
	<ele>1691.60</ele>
	<time>2024-03-09T10:09:48.000Z</time>
</trkpt>
<trkpt lat="46.2528980" lon="10.5504400">
	<ele>1691.80</ele>
	<time>2024-03-09T10:09:49.000Z</time>
</trkpt>
<trkpt lat="46.2528980" lon="10.5504510">
	<ele>1691.80</ele>
	<time>2024-03-09T10:09:50.000Z</time>
</trkpt>
<trkpt lat="46.2528960" lon="10.5504640">
	<ele>1691.80</ele>
	<time>2024-03-09T10:09:51.000Z</time>
</trkpt>
<trkpt lat="46.2528950" lon="10.5504730">
	<ele>1691.80</ele>
	<time>2024-03-09T10:09:52.000Z</time>
</trkpt>
<trkpt lat="46.2528960" lon="10.5504840">
	<ele>1691.80</ele>
	<time>2024-03-09T10:09:53.000Z</time>
</trkpt>
<trkpt lat="46.2528950" lon="10.5504980">
	<ele>1692.00</ele>
	<time>2024-03-09T10:09:54.000Z</time>
</trkpt>
<trkpt lat="46.2528940" lon="10.5505090">
	<ele>1692.00</ele>
	<time>2024-03-09T10:09:55.000Z</time>
</trkpt>
<trkpt lat="46.2528940" lon="10.5505230">
	<ele>1692.00</ele>
	<time>2024-03-09T10:09:56.000Z</time>
</trkpt>
<trkpt lat="46.2528950" lon="10.5505360">
	<ele>1692.20</ele>
	<time>2024-03-09T10:09:57.000Z</time>
</trkpt>
<trkpt lat="46.2528930" lon="10.5505490">
	<ele>1692.20</ele>
	<time>2024-03-09T10:09:58.000Z</time>
</trkpt>
<trkpt lat="46.2528910" lon="10.5505610">
	<ele>1692.20</ele>
	<time>2024-03-09T10:09:59.000Z</time>
</trkpt>
<trkpt lat="46.2528910" lon="10.5505730">
	<ele>1692.20</ele>
	<time>2024-03-09T10:10:00.000Z</time>
</trkpt>
<trkpt lat="46.2528920" lon="10.5505840">
	<ele>1692.20</ele>
	<time>2024-03-09T10:10:01.000Z</time>
</trkpt>
<trkpt lat="46.2528940" lon="10.5505960">
	<ele>1692.20</ele>
	<time>2024-03-09T10:10:02.000Z</time>
</trkpt>
<trkpt lat="46.2528950" lon="10.5506080">
	<ele>1692.40</ele>
	<time>2024-03-09T10:10:03.000Z</time>
</trkpt>
<trkpt lat="46.2528950" lon="10.5506210">
	<ele>1692.40</ele>
	<time>2024-03-09T10:10:04.000Z</time>
</trkpt>
<trkpt lat="46.2528930" lon="10.5506340">
	<ele>1692.40</ele>
	<time>2024-03-09T10:10:05.000Z</time>
</trkpt>
<trkpt lat="46.2528940" lon="10.5506440">
	<ele>1692.40</ele>
	<time>2024-03-09T10:10:06.000Z</time>
</trkpt>
<trkpt lat="46.2528940" lon="10.5506570">
	<ele>1692.60</ele>
	<time>2024-03-09T10:10:07.000Z</time>
</trkpt>
<trkpt lat="46.2528930" lon="10.5506680">
	<ele>1692.60</ele>
	<time>2024-03-09T10:10:08.000Z</time>
</trkpt>
<trkpt lat="46.2528920" lon="10.5506780">
	<ele>1692.80</ele>
	<time>2024-03-09T10:10:09.000Z</time>
</trkpt>
<trkpt lat="46.2528940" lon="10.5506890">
	<ele>1693.00</ele>
	<time>2024-03-09T10:10:10.000Z</time>
</trkpt>
<trkpt lat="46.2528930" lon="10.5506990">
	<ele>1693.00</ele>
	<time>2024-03-09T10:10:11.000Z</time>
</trkpt>
<trkpt lat="46.2528950" lon="10.5507100">
	<ele>1693.00</ele>
	<time>2024-03-09T10:10:12.000Z</time>
</trkpt>
<trkpt lat="46.2528950" lon="10.5507200">
	<ele>1693.00</ele>
	<time>2024-03-09T10:10:13.000Z</time>
</trkpt>
<trkpt lat="46.2528920" lon="10.5507300">
	<ele>1693.00</ele>
	<time>2024-03-09T10:10:14.000Z</time>
</trkpt>
<trkpt lat="46.2528910" lon="10.5507400">
	<ele>1693.20</ele>
	<time>2024-03-09T10:10:15.000Z</time>
</trkpt>
<trkpt lat="46.2528890" lon="10.5507510">
	<ele>1693.20</ele>
	<time>2024-03-09T10:10:16.000Z</time>
</trkpt>
<trkpt lat="46.2528900" lon="10.5507630">
	<ele>1693.20</ele>
	<time>2024-03-09T10:10:17.000Z</time>
</trkpt>
<trkpt lat="46.2528910" lon="10.5507730">
	<ele>1693.20</ele>
	<time>2024-03-09T10:10:18.000Z</time>
</trkpt>
<trkpt lat="46.2528910" lon="10.5507830">
	<ele>1693.20</ele>
	<time>2024-03-09T10:10:19.000Z</time>
</trkpt>
<trkpt lat="46.2528910" lon="10.5507930">
	<ele>1693.20</ele>
	<time>2024-03-09T10:10:20.000Z</time>
</trkpt>
<trkpt lat="46.2528910" lon="10.5508020">
	<ele>1693.40</ele>
	<time>2024-03-09T10:10:21.000Z</time>
</trkpt>
<trkpt lat="46.2528920" lon="10.5508130">
	<ele>1693.40</ele>
	<time>2024-03-09T10:10:22.000Z</time>
</trkpt>
<trkpt lat="46.2528920" lon="10.5508240">
	<ele>1693.40</ele>
	<time>2024-03-09T10:10:23.000Z</time>
</trkpt>
<trkpt lat="46.2528920" lon="10.5508360">
	<ele>1693.60</ele>
	<time>2024-03-09T10:10:24.000Z</time>
</trkpt>
<trkpt lat="46.2528930" lon="10.5508490">
	<ele>1693.60</ele>
	<time>2024-03-09T10:10:25.000Z</time>
</trkpt>
<trkpt lat="46.2528920" lon="10.5508610">
	<ele>1693.60</ele>
	<time>2024-03-09T10:10:26.000Z</time>
</trkpt>
<trkpt lat="46.2528920" lon="10.5508700">
	<ele>1693.60</ele>
	<time>2024-03-09T10:10:27.000Z</time>
</trkpt>
<trkpt lat="46.2528890" lon="10.5508820">
	<ele>1693.80</ele>
	<time>2024-03-09T10:10:28.000Z</time>
</trkpt>
<trkpt lat="46.2528870" lon="10.5508930">
	<ele>1693.80</ele>
	<time>2024-03-09T10:10:29.000Z</time>
</trkpt>
<trkpt lat="46.2528860" lon="10.5509010">
	<ele>1693.80</ele>
	<time>2024-03-09T10:10:30.000Z</time>
</trkpt>
<trkpt lat="46.2528870" lon="10.5509100">
	<ele>1694.00</ele>
	<time>2024-03-09T10:10:31.000Z</time>
</trkpt>
<trkpt lat="46.2528880" lon="10.5509220">
	<ele>1694.00</ele>
	<time>2024-03-09T10:10:32.000Z</time>
</trkpt>
<trkpt lat="46.2528890" lon="10.5509340">
	<ele>1694.20</ele>
	<time>2024-03-09T10:10:33.000Z</time>
</trkpt>
<trkpt lat="46.2528900" lon="10.5509450">
	<ele>1694.20</ele>
	<time>2024-03-09T10:10:34.000Z</time>
</trkpt>
<trkpt lat="46.2528910" lon="10.5509550">
	<ele>1694.20</ele>
	<time>2024-03-09T10:10:35.000Z</time>
</trkpt>
<trkpt lat="46.2528930" lon="10.5509640">
	<ele>1694.40</ele>
	<time>2024-03-09T10:10:36.000Z</time>
</trkpt>
<trkpt lat="46.2528950" lon="10.5509790">
	<ele>1694.40</ele>
	<time>2024-03-09T10:10:37.000Z</time>
</trkpt>
<trkpt lat="46.2528960" lon="10.5509920">
	<ele>1694.60</ele>
	<time>2024-03-09T10:10:38.000Z</time>
</trkpt>
<trkpt lat="46.2528970" lon="10.5510020">
	<ele>1694.80</ele>
	<time>2024-03-09T10:10:39.000Z</time>
</trkpt>
<trkpt lat="46.2528940" lon="10.5510160">
	<ele>1695.00</ele>
	<time>2024-03-09T10:10:40.000Z</time>
</trkpt>
<trkpt lat="46.2528930" lon="10.5510330">
	<ele>1695.00</ele>
	<time>2024-03-09T10:10:41.000Z</time>
</trkpt>
<trkpt lat="46.2528930" lon="10.5510460">
	<ele>1695.00</ele>
	<time>2024-03-09T10:10:42.000Z</time>
</trkpt>
<trkpt lat="46.2528930" lon="10.5510600">
	<ele>1695.00</ele>
	<time>2024-03-09T10:10:43.000Z</time>
</trkpt>
<trkpt lat="46.2528920" lon="10.5510690">
	<ele>1695.00</ele>
	<time>2024-03-09T10:10:44.000Z</time>
</trkpt>
<trkpt lat="46.2528940" lon="10.5510770">
	<ele>1695.20</ele>
	<time>2024-03-09T10:10:45.000Z</time>
</trkpt>
<trkpt lat="46.2528990" lon="10.5510880">
	<ele>1695.20</ele>
	<time>2024-03-09T10:10:46.000Z</time>
</trkpt>
<trkpt lat="46.2529020" lon="10.5510960">
	<ele>1695.40</ele>
	<time>2024-03-09T10:10:47.000Z</time>
</trkpt>
<trkpt lat="46.2529050" lon="10.5511060">
	<ele>1695.40</ele>
	<time>2024-03-09T10:10:48.000Z</time>
</trkpt>
<trkpt lat="46.2529130" lon="10.5511200">
	<ele>1695.40</ele>
	<time>2024-03-09T10:10:49.000Z</time>
</trkpt>
<trkpt lat="46.2529150" lon="10.5511260">
	<ele>1695.40</ele>
	<time>2024-03-09T10:10:50.000Z</time>
</trkpt>
<trkpt lat="46.2529150" lon="10.5511280">
	<ele>1695.60</ele>
	<time>2024-03-09T10:10:51.000Z</time>
</trkpt>
<trkpt lat="46.2529160" lon="10.5511290">
	<ele>1695.40</ele>
	<time>2024-03-09T10:10:52.000Z</time>
</trkpt>
<trkpt lat="46.2529150" lon="10.5511290">
	<ele>1695.40</ele>
	<time>2024-03-09T10:10:53.000Z</time>
</trkpt>
<trkpt lat="46.2529150" lon="10.5511280">
	<ele>1695.60</ele>
	<time>2024-03-09T10:10:54.000Z</time>
</trkpt>
<trkpt lat="46.2529140" lon="10.5511280">
	<ele>1695.40</ele>
	<time>2024-03-09T10:10:55.000Z</time>
</trkpt>
<trkpt lat="46.2529130" lon="10.5511270">
	<ele>1695.40</ele>
	<time>2024-03-09T10:10:56.000Z</time>
</trkpt>
<trkpt lat="46.2529140" lon="10.5511280">
	<ele>1695.40</ele>
	<time>2024-03-09T10:10:57.000Z</time>
</trkpt>
<trkpt lat="46.2529130" lon="10.5511280">
	<ele>1695.40</ele>
	<time>2024-03-09T10:10:58.000Z</time>
</trkpt>
<trkpt lat="46.2529140" lon="10.5511290">
	<ele>1695.40</ele>
	<time>2024-03-09T10:10:59.000Z</time>
</trkpt>
<trkpt lat="46.2529150" lon="10.5511310">
	<ele>1695.40</ele>
	<time>2024-03-09T10:11:00.000Z</time>
</trkpt>
<trkpt lat="46.2529170" lon="10.5511310">
	<ele>1695.40</ele>
	<time>2024-03-09T10:11:01.000Z</time>
</trkpt>
<trkpt lat="46.2529170" lon="10.5511310">
	<ele>1695.40</ele>
	<time>2024-03-09T10:11:02.000Z</time>
</trkpt>
<trkpt lat="46.2529170" lon="10.5511310">
	<ele>1695.40</ele>
	<time>2024-03-09T10:11:03.000Z</time>
</trkpt>
<trkpt lat="46.2529170" lon="10.5511290">
	<ele>1695.40</ele>
	<time>2024-03-09T10:11:04.000Z</time>
</trkpt>
<trkpt lat="46.2529180" lon="10.5511280">
	<ele>1695.40</ele>
	<time>2024-03-09T10:11:05.000Z</time>
</trkpt>
<trkpt lat="46.2529180" lon="10.5511280">
	<ele>1695.60</ele>
	<time>2024-03-09T10:11:06.000Z</time>
</trkpt>
<trkpt lat="46.2529190" lon="10.5511270">
	<ele>1695.80</ele>
	<time>2024-03-09T10:11:07.000Z</time>
</trkpt>
<trkpt lat="46.2529190" lon="10.5511270">
	<ele>1695.80</ele>
	<time>2024-03-09T10:11:08.000Z</time>
</trkpt>
<trkpt lat="46.2529190" lon="10.5511270">
	<ele>1695.80</ele>
	<time>2024-03-09T10:11:09.000Z</time>
</trkpt>
<trkpt lat="46.2529190" lon="10.5511270">
	<ele>1695.80</ele>
	<time>2024-03-09T10:11:10.000Z</time>
</trkpt>
<trkpt lat="46.2529190" lon="10.5511270">
	<ele>1695.80</ele>
	<time>2024-03-09T10:11:11.000Z</time>
</trkpt>
<trkpt lat="46.2529190" lon="10.5511270">
	<ele>1695.80</ele>
	<time>2024-03-09T10:11:12.000Z</time>
</trkpt>
<trkpt lat="46.2529190" lon="10.5511270">
	<ele>1695.80</ele>
	<time>2024-03-09T10:11:13.000Z</time>
</trkpt>
<trkpt lat="46.2529190" lon="10.5511270">
	<ele>1695.60</ele>
	<time>2024-03-09T10:11:14.000Z</time>
</trkpt>
<trkpt lat="46.2529190" lon="10.5511270">
	<ele>1695.40</ele>
	<time>2024-03-09T10:11:15.000Z</time>
</trkpt>
<trkpt lat="46.2529190" lon="10.5511270">
	<ele>1695.20</ele>
	<time>2024-03-09T10:11:16.000Z</time>
</trkpt>
<trkpt lat="46.2529190" lon="10.5511270">
	<ele>1695.20</ele>
	<time>2024-03-09T10:11:17.000Z</time>
</trkpt>
<trkpt lat="46.2529190" lon="10.5511270">
	<ele>1695.20</ele>
	<time>2024-03-09T10:11:18.000Z</time>
</trkpt>
<trkpt lat="46.2529190" lon="10.5511280">
	<ele>1695.20</ele>
	<time>2024-03-09T10:11:19.000Z</time>
</trkpt>
<trkpt lat="46.2529180" lon="10.5511280">
	<ele>1695.20</ele>
	<time>2024-03-09T10:11:20.000Z</time>
</trkpt>
<trkpt lat="46.2529180" lon="10.5511290">
	<ele>1695.20</ele>
	<time>2024-03-09T10:11:21.000Z</time>
</trkpt>
<trkpt lat="46.2529170" lon="10.5511290">
	<ele>1695.60</ele>
	<time>2024-03-09T10:11:22.000Z</time>
</trkpt>
<trkpt lat="46.2529170" lon="10.5511300">
	<ele>1695.80</ele>
	<time>2024-03-09T10:11:23.000Z</time>
</trkpt>
<trkpt lat="46.2529170" lon="10.5511310">
	<ele>1695.80</ele>
	<time>2024-03-09T10:11:24.000Z</time>
</trkpt>
<trkpt lat="46.2529170" lon="10.5511310">
	<ele>1696.00</ele>
	<time>2024-03-09T10:11:25.000Z</time>
</trkpt>
<trkpt lat="46.2529170" lon="10.5511310">
	<ele>1696.00</ele>
	<time>2024-03-09T10:11:26.000Z</time>
</trkpt>
<trkpt lat="46.2529170" lon="10.5511310">
	<ele>1696.00</ele>
	<time>2024-03-09T10:11:27.000Z</time>
</trkpt>
<trkpt lat="46.2529170" lon="10.5511310">
	<ele>1696.00</ele>
	<time>2024-03-09T10:11:28.000Z</time>
</trkpt>
<trkpt lat="46.2529170" lon="10.5511310">
	<ele>1696.00</ele>
	<time>2024-03-09T10:11:29.000Z</time>
</trkpt>
<trkpt lat="46.2529170" lon="10.5511310">
	<ele>1696.00</ele>
	<time>2024-03-09T10:11:30.000Z</time>
</trkpt>
<trkpt lat="46.2529170" lon="10.5511310">
	<ele>1696.00</ele>
	<time>2024-03-09T10:11:31.000Z</time>
</trkpt>
<trkpt lat="46.2529170" lon="10.5511310">
	<ele>1696.00</ele>
	<time>2024-03-09T10:11:32.000Z</time>
</trkpt>
<trkpt lat="46.2529170" lon="10.5511300">
	<ele>1696.00</ele>
	<time>2024-03-09T10:11:33.000Z</time>
</trkpt>
<trkpt lat="46.2529160" lon="10.5511280">
	<ele>1695.80</ele>
	<time>2024-03-09T10:11:34.000Z</time>
</trkpt>
<trkpt lat="46.2529150" lon="10.5511280">
	<ele>1695.60</ele>
	<time>2024-03-09T10:11:35.000Z</time>
</trkpt>
<trkpt lat="46.2529150" lon="10.5511280">
	<ele>1695.40</ele>
	<time>2024-03-09T10:11:36.000Z</time>
</trkpt>
<trkpt lat="46.2529150" lon="10.5511280">
	<ele>1695.20</ele>
	<time>2024-03-09T10:11:37.000Z</time>
</trkpt>
<trkpt lat="46.2529150" lon="10.5511280">
	<ele>1695.00</ele>
	<time>2024-03-09T10:11:38.000Z</time>
</trkpt>
<trkpt lat="46.2529150" lon="10.5511280">
	<ele>1695.00</ele>
	<time>2024-03-09T10:11:39.000Z</time>
</trkpt>
<trkpt lat="46.2529140" lon="10.5511290">
	<ele>1695.00</ele>
	<time>2024-03-09T10:11:40.000Z</time>
</trkpt>
<trkpt lat="46.2529140" lon="10.5511290">
	<ele>1695.00</ele>
	<time>2024-03-09T10:11:41.000Z</time>
</trkpt>
<trkpt lat="46.2529140" lon="10.5511280">
	<ele>1695.00</ele>
	<time>2024-03-09T10:11:42.000Z</time>
</trkpt>
<trkpt lat="46.2529140" lon="10.5511280">
	<ele>1695.00</ele>
	<time>2024-03-09T10:11:43.000Z</time>
</trkpt>
<trkpt lat="46.2529140" lon="10.5511280">
	<ele>1695.00</ele>
	<time>2024-03-09T10:11:44.000Z</time>
</trkpt>
<trkpt lat="46.2529140" lon="10.5511280">
	<ele>1695.00</ele>
	<time>2024-03-09T10:11:45.000Z</time>
</trkpt>
<trkpt lat="46.2529140" lon="10.5511280">
	<ele>1695.00</ele>
	<time>2024-03-09T10:11:46.000Z</time>
</trkpt>
<trkpt lat="46.2529140" lon="10.5511280">
	<ele>1695.00</ele>
	<time>2024-03-09T10:11:47.000Z</time>
</trkpt>
<trkpt lat="46.2529140" lon="10.5511280">
	<ele>1695.00</ele>
	<time>2024-03-09T10:11:48.000Z</time>
</trkpt>
<trkpt lat="46.2529140" lon="10.5511280">
	<ele>1695.00</ele>
	<time>2024-03-09T10:11:49.000Z</time>
</trkpt>
<trkpt lat="46.2529140" lon="10.5511280">
	<ele>1695.00</ele>
	<time>2024-03-09T10:11:50.000Z</time>
</trkpt>
<trkpt lat="46.2529140" lon="10.5511270">
	<ele>1695.00</ele>
	<time>2024-03-09T10:11:51.000Z</time>
</trkpt>
<trkpt lat="46.2529140" lon="10.5511270">
	<ele>1695.00</ele>
	<time>2024-03-09T10:11:52.000Z</time>
</trkpt>
<trkpt lat="46.2529140" lon="10.5511270">
	<ele>1695.00</ele>
	<time>2024-03-09T10:11:53.000Z</time>
</trkpt>
<trkpt lat="46.2529150" lon="10.5511270">
	<ele>1695.00</ele>
	<time>2024-03-09T10:11:54.000Z</time>
</trkpt>
<trkpt lat="46.2529150" lon="10.5511270">
	<ele>1695.00</ele>
	<time>2024-03-09T10:11:55.000Z</time>
</trkpt>
<trkpt lat="46.2529150" lon="10.5511260">
	<ele>1695.00</ele>
	<time>2024-03-09T10:11:56.000Z</time>
</trkpt>
<trkpt lat="46.2529150" lon="10.5511260">
	<ele>1695.00</ele>
	<time>2024-03-09T10:11:57.000Z</time>
</trkpt>
<trkpt lat="46.2529160" lon="10.5511250">
	<ele>1695.00</ele>
	<time>2024-03-09T10:11:58.000Z</time>
</trkpt>
<trkpt lat="46.2529180" lon="10.5511260">
	<ele>1695.20</ele>
	<time>2024-03-09T10:11:59.000Z</time>
</trkpt>
<trkpt lat="46.2529190" lon="10.5511270">
	<ele>1695.40</ele>
	<time>2024-03-09T10:12:00.000Z</time>
</trkpt>
<trkpt lat="46.2529200" lon="10.5511270">
	<ele>1695.40</ele>
	<time>2024-03-09T10:12:01.000Z</time>
</trkpt>
<trkpt lat="46.2529210" lon="10.5511270">
	<ele>1695.40</ele>
	<time>2024-03-09T10:12:02.000Z</time>
</trkpt>
<trkpt lat="46.2529210" lon="10.5511270">
	<ele>1695.60</ele>
	<time>2024-03-09T10:12:03.000Z</time>
</trkpt>
<trkpt lat="46.2529220" lon="10.5511270">
	<ele>1695.60</ele>
	<time>2024-03-09T10:12:04.000Z</time>
</trkpt>
<trkpt lat="46.2529230" lon="10.5511270">
	<ele>1695.40</ele>
	<time>2024-03-09T10:12:05.000Z</time>
</trkpt>
<trkpt lat="46.2529230" lon="10.5511270">
	<ele>1695.40</ele>
	<time>2024-03-09T10:12:06.000Z</time>
</trkpt>
<trkpt lat="46.2529240" lon="10.5511270">
	<ele>1695.40</ele>
	<time>2024-03-09T10:12:07.000Z</time>
</trkpt>
<trkpt lat="46.2529240" lon="10.5511270">
	<ele>1695.40</ele>
	<time>2024-03-09T10:12:08.000Z</time>
</trkpt>
<trkpt lat="46.2529240" lon="10.5511270">
	<ele>1695.40</ele>
	<time>2024-03-09T10:12:09.000Z</time>
</trkpt>
<trkpt lat="46.2529240" lon="10.5511270">
	<ele>1695.40</ele>
	<time>2024-03-09T10:12:10.000Z</time>
</trkpt>
<trkpt lat="46.2529240" lon="10.5511270">
	<ele>1695.40</ele>
	<time>2024-03-09T10:12:11.000Z</time>
</trkpt>
<trkpt lat="46.2529240" lon="10.5511270">
	<ele>1695.40</ele>
	<time>2024-03-09T10:12:12.000Z</time>
</trkpt>
<trkpt lat="46.2529240" lon="10.5511270">
	<ele>1695.40</ele>
	<time>2024-03-09T10:12:13.000Z</time>
</trkpt>
<trkpt lat="46.2529240" lon="10.5511330">
	<ele>1695.40</ele>
	<time>2024-03-09T10:12:14.000Z</time>
</trkpt>
<trkpt lat="46.2529240" lon="10.5511380">
	<ele>1695.40</ele>
	<time>2024-03-09T10:12:15.000Z</time>
</trkpt>
<trkpt lat="46.2529250" lon="10.5511460">
	<ele>1695.40</ele>
	<time>2024-03-09T10:12:16.000Z</time>
</trkpt>
<trkpt lat="46.2529250" lon="10.5511520">
	<ele>1695.40</ele>
	<time>2024-03-09T10:12:17.000Z</time>
</trkpt>
<trkpt lat="46.2529250" lon="10.5511580">
	<ele>1695.40</ele>
	<time>2024-03-09T10:12:18.000Z</time>
</trkpt>
<trkpt lat="46.2529250" lon="10.5511660">
	<ele>1695.40</ele>
	<time>2024-03-09T10:12:19.000Z</time>
</trkpt>
<trkpt lat="46.2529250" lon="10.5511710">
	<ele>1695.40</ele>
	<time>2024-03-09T10:12:20.000Z</time>
</trkpt>
<trkpt lat="46.2529250" lon="10.5511790">
	<ele>1695.40</ele>
	<time>2024-03-09T10:12:21.000Z</time>
</trkpt>
<trkpt lat="46.2529250" lon="10.5511870">
	<ele>1695.40</ele>
	<time>2024-03-09T10:12:22.000Z</time>
</trkpt>
<trkpt lat="46.2529250" lon="10.5511930">
	<ele>1695.40</ele>
	<time>2024-03-09T10:12:23.000Z</time>
</trkpt>
<trkpt lat="46.2529260" lon="10.5512010">
	<ele>1695.40</ele>
	<time>2024-03-09T10:12:24.000Z</time>
</trkpt>
<trkpt lat="46.2529260" lon="10.5512080">
	<ele>1695.40</ele>
	<time>2024-03-09T10:12:25.000Z</time>
</trkpt>
<trkpt lat="46.2529270" lon="10.5512160">
	<ele>1695.40</ele>
	<time>2024-03-09T10:12:26.000Z</time>
</trkpt>
<trkpt lat="46.2529280" lon="10.5512250">
	<ele>1695.40</ele>
	<time>2024-03-09T10:12:27.000Z</time>
</trkpt>
<trkpt lat="46.2529300" lon="10.5512350">
	<ele>1695.40</ele>
	<time>2024-03-09T10:12:28.000Z</time>
</trkpt>
<trkpt lat="46.2529310" lon="10.5512450">
	<ele>1695.40</ele>
	<time>2024-03-09T10:12:29.000Z</time>
</trkpt>
<trkpt lat="46.2529310" lon="10.5512540">
	<ele>1695.40</ele>
	<time>2024-03-09T10:12:30.000Z</time>
</trkpt>
<trkpt lat="46.2529310" lon="10.5512630">
	<ele>1695.40</ele>
	<time>2024-03-09T10:12:31.000Z</time>
</trkpt>
<trkpt lat="46.2529320" lon="10.5512710">
	<ele>1695.40</ele>
	<time>2024-03-09T10:12:32.000Z</time>
</trkpt>
<trkpt lat="46.2529320" lon="10.5512790">
	<ele>1695.40</ele>
	<time>2024-03-09T10:12:33.000Z</time>
</trkpt>
<trkpt lat="46.2529320" lon="10.5512870">
	<ele>1695.40</ele>
	<time>2024-03-09T10:12:34.000Z</time>
</trkpt>
<trkpt lat="46.2529340" lon="10.5512950">
	<ele>1695.40</ele>
	<time>2024-03-09T10:12:35.000Z</time>
</trkpt>
<trkpt lat="46.2529340" lon="10.5513040">
	<ele>1695.40</ele>
	<time>2024-03-09T10:12:36.000Z</time>
</trkpt>
<trkpt lat="46.2529350" lon="10.5513140">
	<ele>1695.40</ele>
	<time>2024-03-09T10:12:37.000Z</time>
</trkpt>
<trkpt lat="46.2529360" lon="10.5513230">
	<ele>1695.40</ele>
	<time>2024-03-09T10:12:38.000Z</time>
</trkpt>
<trkpt lat="46.2529370" lon="10.5513280">
	<ele>1695.40</ele>
	<time>2024-03-09T10:12:39.000Z</time>
</trkpt>
<trkpt lat="46.2529370" lon="10.5513310">
	<ele>1695.40</ele>
	<time>2024-03-09T10:12:40.000Z</time>
</trkpt>
<trkpt lat="46.2529370" lon="10.5513330">
	<ele>1695.40</ele>
	<time>2024-03-09T10:12:41.000Z</time>
</trkpt>
<trkpt lat="46.2529380" lon="10.5513340">
	<ele>1695.40</ele>
	<time>2024-03-09T10:12:42.000Z</time>
</trkpt>
<trkpt lat="46.2529380" lon="10.5513350">
	<ele>1695.40</ele>
	<time>2024-03-09T10:12:43.000Z</time>
</trkpt>
<trkpt lat="46.2529390" lon="10.5513360">
	<ele>1695.40</ele>
	<time>2024-03-09T10:12:44.000Z</time>
</trkpt>
<trkpt lat="46.2529390" lon="10.5513370">
	<ele>1695.40</ele>
	<time>2024-03-09T10:12:45.000Z</time>
</trkpt>
<trkpt lat="46.2529390" lon="10.5513370">
	<ele>1695.40</ele>
	<time>2024-03-09T10:12:46.000Z</time>
</trkpt>
<trkpt lat="46.2529390" lon="10.5513370">
	<ele>1695.40</ele>
	<time>2024-03-09T10:12:47.000Z</time>
</trkpt>
<trkpt lat="46.2529400" lon="10.5513370">
	<ele>1695.40</ele>
	<time>2024-03-09T10:12:48.000Z</time>
</trkpt>
<trkpt lat="46.2529400" lon="10.5513380">
	<ele>1695.40</ele>
	<time>2024-03-09T10:12:49.000Z</time>
</trkpt>
<trkpt lat="46.2529400" lon="10.5513380">
	<ele>1695.40</ele>
	<time>2024-03-09T10:12:50.000Z</time>
</trkpt>
<trkpt lat="46.2529400" lon="10.5513380">
	<ele>1695.40</ele>
	<time>2024-03-09T10:12:51.000Z</time>
</trkpt>
<trkpt lat="46.2529410" lon="10.5513390">
	<ele>1695.40</ele>
	<time>2024-03-09T10:12:52.000Z</time>
</trkpt>
<trkpt lat="46.2529410" lon="10.5513410">
	<ele>1695.40</ele>
	<time>2024-03-09T10:12:53.000Z</time>
</trkpt>
<trkpt lat="46.2529420" lon="10.5513430">
	<ele>1695.40</ele>
	<time>2024-03-09T10:12:54.000Z</time>
</trkpt>
<trkpt lat="46.2529430" lon="10.5513490">
	<ele>1695.40</ele>
	<time>2024-03-09T10:12:55.000Z</time>
</trkpt>
<trkpt lat="46.2529440" lon="10.5513550">
	<ele>1695.40</ele>
	<time>2024-03-09T10:12:56.000Z</time>
</trkpt>
<trkpt lat="46.2529460" lon="10.5513610">
	<ele>1695.40</ele>
	<time>2024-03-09T10:12:57.000Z</time>
</trkpt>
<trkpt lat="46.2529480" lon="10.5513670">
	<ele>1695.40</ele>
	<time>2024-03-09T10:12:58.000Z</time>
</trkpt>
<trkpt lat="46.2529500" lon="10.5513730">
	<ele>1695.40</ele>
	<time>2024-03-09T10:12:59.000Z</time>
</trkpt>
<trkpt lat="46.2529510" lon="10.5513790">
	<ele>1695.40</ele>
	<time>2024-03-09T10:13:00.000Z</time>
</trkpt>
<trkpt lat="46.2529520" lon="10.5513860">
	<ele>1695.40</ele>
	<time>2024-03-09T10:13:01.000Z</time>
</trkpt>
<trkpt lat="46.2529540" lon="10.5513920">
	<ele>1695.40</ele>
	<time>2024-03-09T10:13:02.000Z</time>
</trkpt>
<trkpt lat="46.2529570" lon="10.5513990">
	<ele>1695.40</ele>
	<time>2024-03-09T10:13:03.000Z</time>
</trkpt>
<trkpt lat="46.2529590" lon="10.5514060">
	<ele>1695.40</ele>
	<time>2024-03-09T10:13:04.000Z</time>
</trkpt>
<trkpt lat="46.2529610" lon="10.5514140">
	<ele>1695.40</ele>
	<time>2024-03-09T10:13:05.000Z</time>
</trkpt>
<trkpt lat="46.2529630" lon="10.5514220">
	<ele>1695.40</ele>
	<time>2024-03-09T10:13:06.000Z</time>
</trkpt>
<trkpt lat="46.2529640" lon="10.5514290">
	<ele>1695.40</ele>
	<time>2024-03-09T10:13:07.000Z</time>
</trkpt>
<trkpt lat="46.2529650" lon="10.5514370">
	<ele>1695.40</ele>
	<time>2024-03-09T10:13:08.000Z</time>
</trkpt>
<trkpt lat="46.2529660" lon="10.5514460">
	<ele>1695.40</ele>
	<time>2024-03-09T10:13:09.000Z</time>
</trkpt>
<trkpt lat="46.2529670" lon="10.5514560">
	<ele>1695.40</ele>
	<time>2024-03-09T10:13:10.000Z</time>
</trkpt>
<trkpt lat="46.2529670" lon="10.5514640">
	<ele>1695.40</ele>
	<time>2024-03-09T10:13:11.000Z</time>
</trkpt>
<trkpt lat="46.2529680" lon="10.5514720">
	<ele>1695.40</ele>
	<time>2024-03-09T10:13:12.000Z</time>
</trkpt>
<trkpt lat="46.2529680" lon="10.5514810">
	<ele>1695.40</ele>
	<time>2024-03-09T10:13:13.000Z</time>
</trkpt>
<trkpt lat="46.2529680" lon="10.5514880">
	<ele>1695.40</ele>
	<time>2024-03-09T10:13:14.000Z</time>
</trkpt>
<trkpt lat="46.2529680" lon="10.5514930">
	<ele>1695.40</ele>
	<time>2024-03-09T10:13:15.000Z</time>
</trkpt>
<trkpt lat="46.2529680" lon="10.5514980">
	<ele>1695.40</ele>
	<time>2024-03-09T10:13:16.000Z</time>
</trkpt>
<trkpt lat="46.2529680" lon="10.5515100">
	<ele>1695.40</ele>
	<time>2024-03-09T10:13:17.000Z</time>
</trkpt>
<trkpt lat="46.2529670" lon="10.5515320">
	<ele>1695.40</ele>
	<time>2024-03-09T10:13:18.000Z</time>
</trkpt>
<trkpt lat="46.2529670" lon="10.5515540">
	<ele>1695.40</ele>
	<time>2024-03-09T10:13:19.000Z</time>
</trkpt>
<trkpt lat="46.2529650" lon="10.5515750">
	<ele>1695.40</ele>
	<time>2024-03-09T10:13:20.000Z</time>
</trkpt>
<trkpt lat="46.2529640" lon="10.5515940">
	<ele>1695.40</ele>
	<time>2024-03-09T10:13:21.000Z</time>
</trkpt>
<trkpt lat="46.2529640" lon="10.5516140">
	<ele>1695.40</ele>
	<time>2024-03-09T10:13:22.000Z</time>
</trkpt>
<trkpt lat="46.2529640" lon="10.5516370">
	<ele>1695.40</ele>
	<time>2024-03-09T10:13:23.000Z</time>
</trkpt>
<trkpt lat="46.2529630" lon="10.5516620">
	<ele>1695.40</ele>
	<time>2024-03-09T10:13:24.000Z</time>
</trkpt>
<trkpt lat="46.2529620" lon="10.5516860">
	<ele>1695.40</ele>
	<time>2024-03-09T10:13:25.000Z</time>
</trkpt>
<trkpt lat="46.2529610" lon="10.5517130">
	<ele>1695.40</ele>
	<time>2024-03-09T10:13:26.000Z</time>
</trkpt>
<trkpt lat="46.2529590" lon="10.5517260">
	<ele>1695.40</ele>
	<time>2024-03-09T10:13:27.000Z</time>
</trkpt>
<trkpt lat="46.2529580" lon="10.5517390">
	<ele>1695.40</ele>
	<time>2024-03-09T10:13:28.000Z</time>
</trkpt>
<trkpt lat="46.2529560" lon="10.5517510">
	<ele>1695.40</ele>
	<time>2024-03-09T10:13:29.000Z</time>
</trkpt>
<trkpt lat="46.2529530" lon="10.5517630">
	<ele>1695.80</ele>
	<time>2024-03-09T10:13:30.000Z</time>
</trkpt>
<trkpt lat="46.2529520" lon="10.5517780">
	<ele>1696.00</ele>
	<time>2024-03-09T10:13:31.000Z</time>
</trkpt>
<trkpt lat="46.2529530" lon="10.5517910">
	<ele>1696.00</ele>
	<time>2024-03-09T10:13:32.000Z</time>
</trkpt>
<trkpt lat="46.2529510" lon="10.5518040">
	<ele>1696.20</ele>
	<time>2024-03-09T10:13:33.000Z</time>
</trkpt>
<trkpt lat="46.2529510" lon="10.5518160">
	<ele>1696.00</ele>
	<time>2024-03-09T10:13:34.000Z</time>
</trkpt>
<trkpt lat="46.2529500" lon="10.5518290">
	<ele>1696.00</ele>
	<time>2024-03-09T10:13:35.000Z</time>
</trkpt>
<trkpt lat="46.2529490" lon="10.5518430">
	<ele>1696.00</ele>
	<time>2024-03-09T10:13:36.000Z</time>
</trkpt>
<trkpt lat="46.2529470" lon="10.5518580">
	<ele>1696.00</ele>
	<time>2024-03-09T10:13:37.000Z</time>
</trkpt>
<trkpt lat="46.2529470" lon="10.5518740">
	<ele>1695.80</ele>
	<time>2024-03-09T10:13:38.000Z</time>
</trkpt>
<trkpt lat="46.2529460" lon="10.5518890">
	<ele>1695.80</ele>
	<time>2024-03-09T10:13:39.000Z</time>
</trkpt>
<trkpt lat="46.2529460" lon="10.5519000">
	<ele>1695.80</ele>
	<time>2024-03-09T10:13:40.000Z</time>
</trkpt>
<trkpt lat="46.2529460" lon="10.5519140">
	<ele>1695.80</ele>
	<time>2024-03-09T10:13:41.000Z</time>
</trkpt>
<trkpt lat="46.2529460" lon="10.5519280">
	<ele>1695.80</ele>
	<time>2024-03-09T10:13:42.000Z</time>
</trkpt>
<trkpt lat="46.2529450" lon="10.5519380">
	<ele>1695.80</ele>
	<time>2024-03-09T10:13:43.000Z</time>
</trkpt>
<trkpt lat="46.2529440" lon="10.5519460">
	<ele>1695.80</ele>
	<time>2024-03-09T10:13:44.000Z</time>
</trkpt>
<trkpt lat="46.2529450" lon="10.5519560">
	<ele>1695.80</ele>
	<time>2024-03-09T10:13:45.000Z</time>
</trkpt>
<trkpt lat="46.2529460" lon="10.5519620">
	<ele>1695.80</ele>
	<time>2024-03-09T10:13:46.000Z</time>
</trkpt>
<trkpt lat="46.2529490" lon="10.5519710">
	<ele>1695.80</ele>
	<time>2024-03-09T10:13:47.000Z</time>
</trkpt>
<trkpt lat="46.2529520" lon="10.5519810">
	<ele>1695.80</ele>
	<time>2024-03-09T10:13:48.000Z</time>
</trkpt>
<trkpt lat="46.2529500" lon="10.5519910">
	<ele>1695.80</ele>
	<time>2024-03-09T10:13:49.000Z</time>
</trkpt>
<trkpt lat="46.2529500" lon="10.5520040">
	<ele>1695.80</ele>
	<time>2024-03-09T10:13:50.000Z</time>
</trkpt>
<trkpt lat="46.2529480" lon="10.5520150">
	<ele>1695.80</ele>
	<time>2024-03-09T10:13:51.000Z</time>
</trkpt>
<trkpt lat="46.2529480" lon="10.5520270">
	<ele>1696.00</ele>
	<time>2024-03-09T10:13:52.000Z</time>
</trkpt>
<trkpt lat="46.2529510" lon="10.5520340">
	<ele>1696.20</ele>
	<time>2024-03-09T10:13:53.000Z</time>
</trkpt>
<trkpt lat="46.2529520" lon="10.5520450">
	<ele>1696.20</ele>
	<time>2024-03-09T10:13:54.000Z</time>
</trkpt>
<trkpt lat="46.2529560" lon="10.5520500">
	<ele>1696.40</ele>
	<time>2024-03-09T10:13:55.000Z</time>
</trkpt>
<trkpt lat="46.2529620" lon="10.5520580">
	<ele>1696.60</ele>
	<time>2024-03-09T10:13:56.000Z</time>
</trkpt>
<trkpt lat="46.2529630" lon="10.5520720">
	<ele>1696.80</ele>
	<time>2024-03-09T10:13:57.000Z</time>
</trkpt>
<trkpt lat="46.2529630" lon="10.5520810">
	<ele>1696.80</ele>
	<time>2024-03-09T10:13:58.000Z</time>
</trkpt>
<trkpt lat="46.2529620" lon="10.5520900">
	<ele>1697.00</ele>
	<time>2024-03-09T10:13:59.000Z</time>
</trkpt>
<trkpt lat="46.2529630" lon="10.5521020">
	<ele>1697.00</ele>
	<time>2024-03-09T10:14:00.000Z</time>
</trkpt>
<trkpt lat="46.2529630" lon="10.5521140">
	<ele>1697.00</ele>
	<time>2024-03-09T10:14:01.000Z</time>
</trkpt>
<trkpt lat="46.2529650" lon="10.5521270">
	<ele>1697.20</ele>
	<time>2024-03-09T10:14:02.000Z</time>
</trkpt>
<trkpt lat="46.2529660" lon="10.5521400">
	<ele>1697.20</ele>
	<time>2024-03-09T10:14:03.000Z</time>
</trkpt>
<trkpt lat="46.2529700" lon="10.5521530">
	<ele>1697.20</ele>
	<time>2024-03-09T10:14:04.000Z</time>
</trkpt>
<trkpt lat="46.2529730" lon="10.5521620">
	<ele>1697.20</ele>
	<time>2024-03-09T10:14:05.000Z</time>
</trkpt>
<trkpt lat="46.2529720" lon="10.5521750">
	<ele>1697.20</ele>
	<time>2024-03-09T10:14:06.000Z</time>
</trkpt>
<trkpt lat="46.2529750" lon="10.5521870">
	<ele>1697.20</ele>
	<time>2024-03-09T10:14:07.000Z</time>
</trkpt>
<trkpt lat="46.2529760" lon="10.5521980">
	<ele>1697.20</ele>
	<time>2024-03-09T10:14:08.000Z</time>
</trkpt>
<trkpt lat="46.2529760" lon="10.5522080">
	<ele>1697.20</ele>
	<time>2024-03-09T10:14:09.000Z</time>
</trkpt>
<trkpt lat="46.2529790" lon="10.5522180">
	<ele>1697.20</ele>
	<time>2024-03-09T10:14:10.000Z</time>
</trkpt>
<trkpt lat="46.2529810" lon="10.5522300">
	<ele>1697.40</ele>
	<time>2024-03-09T10:14:11.000Z</time>
</trkpt>
<trkpt lat="46.2529830" lon="10.5522360">
	<ele>1697.40</ele>
	<time>2024-03-09T10:14:12.000Z</time>
</trkpt>
<trkpt lat="46.2529840" lon="10.5522480">
	<ele>1697.40</ele>
	<time>2024-03-09T10:14:13.000Z</time>
</trkpt>
<trkpt lat="46.2529850" lon="10.5522600">
	<ele>1697.40</ele>
	<time>2024-03-09T10:14:14.000Z</time>
</trkpt>
<trkpt lat="46.2529850" lon="10.5522690">
	<ele>1697.40</ele>
	<time>2024-03-09T10:14:15.000Z</time>
</trkpt>
<trkpt lat="46.2529860" lon="10.5522810">
	<ele>1697.40</ele>
	<time>2024-03-09T10:14:16.000Z</time>
</trkpt>
<trkpt lat="46.2529860" lon="10.5522930">
	<ele>1697.60</ele>
	<time>2024-03-09T10:14:17.000Z</time>
</trkpt>
<trkpt lat="46.2529870" lon="10.5523040">
	<ele>1697.60</ele>
	<time>2024-03-09T10:14:18.000Z</time>
</trkpt>
<trkpt lat="46.2529890" lon="10.5523110">
	<ele>1697.60</ele>
	<time>2024-03-09T10:14:19.000Z</time>
</trkpt>
<trkpt lat="46.2529900" lon="10.5523240">
	<ele>1697.60</ele>
	<time>2024-03-09T10:14:20.000Z</time>
</trkpt>
<trkpt lat="46.2529900" lon="10.5523360">
	<ele>1697.60</ele>
	<time>2024-03-09T10:14:21.000Z</time>
</trkpt>
<trkpt lat="46.2529920" lon="10.5523460">
	<ele>1697.60</ele>
	<time>2024-03-09T10:14:22.000Z</time>
</trkpt>
<trkpt lat="46.2529960" lon="10.5523620">
	<ele>1697.60</ele>
	<time>2024-03-09T10:14:23.000Z</time>
</trkpt>
<trkpt lat="46.2529970" lon="10.5523790">
	<ele>1697.60</ele>
	<time>2024-03-09T10:14:24.000Z</time>
</trkpt>
<trkpt lat="46.2529980" lon="10.5523910">
	<ele>1697.60</ele>
	<time>2024-03-09T10:14:25.000Z</time>
</trkpt>
<trkpt lat="46.2530010" lon="10.5524060">
	<ele>1697.80</ele>
	<time>2024-03-09T10:14:26.000Z</time>
</trkpt>
<trkpt lat="46.2530030" lon="10.5524120">
	<ele>1697.80</ele>
	<time>2024-03-09T10:14:27.000Z</time>
</trkpt>
<trkpt lat="46.2530030" lon="10.5524220">
	<ele>1697.80</ele>
	<time>2024-03-09T10:14:28.000Z</time>
</trkpt>
<trkpt lat="46.2530050" lon="10.5524320">
	<ele>1697.80</ele>
	<time>2024-03-09T10:14:29.000Z</time>
</trkpt>
<trkpt lat="46.2530050" lon="10.5524410">
	<ele>1697.80</ele>
	<time>2024-03-09T10:14:30.000Z</time>
</trkpt>
<trkpt lat="46.2530040" lon="10.5524500">
	<ele>1697.80</ele>
	<time>2024-03-09T10:14:31.000Z</time>
</trkpt>
<trkpt lat="46.2530020" lon="10.5524570">
	<ele>1697.80</ele>
	<time>2024-03-09T10:14:32.000Z</time>
</trkpt>
<trkpt lat="46.2530000" lon="10.5524690">
	<ele>1697.60</ele>
	<time>2024-03-09T10:14:33.000Z</time>
</trkpt>
<trkpt lat="46.2529980" lon="10.5524770">
	<ele>1697.60</ele>
	<time>2024-03-09T10:14:34.000Z</time>
</trkpt>
<trkpt lat="46.2529950" lon="10.5524880">
	<ele>1697.60</ele>
	<time>2024-03-09T10:14:35.000Z</time>
</trkpt>
<trkpt lat="46.2529960" lon="10.5524990">
	<ele>1697.60</ele>
	<time>2024-03-09T10:14:36.000Z</time>
</trkpt>
<trkpt lat="46.2529950" lon="10.5525140">
	<ele>1697.60</ele>
	<time>2024-03-09T10:14:37.000Z</time>
</trkpt>
<trkpt lat="46.2529950" lon="10.5525230">
	<ele>1697.60</ele>
	<time>2024-03-09T10:14:38.000Z</time>
</trkpt>
<trkpt lat="46.2529950" lon="10.5525290">
	<ele>1697.60</ele>
	<time>2024-03-09T10:14:39.000Z</time>
</trkpt>
<trkpt lat="46.2529890" lon="10.5525390">
	<ele>1697.60</ele>
	<time>2024-03-09T10:14:40.000Z</time>
</trkpt>
<trkpt lat="46.2529870" lon="10.5525450">
	<ele>1697.80</ele>
	<time>2024-03-09T10:14:41.000Z</time>
</trkpt>
<trkpt lat="46.2529790" lon="10.5525580">
	<ele>1697.80</ele>
	<time>2024-03-09T10:14:42.000Z</time>
</trkpt>
<trkpt lat="46.2529750" lon="10.5525700">
	<ele>1698.00</ele>
	<time>2024-03-09T10:14:43.000Z</time>
</trkpt>
<trkpt lat="46.2529750" lon="10.5525770">
	<ele>1698.00</ele>
	<time>2024-03-09T10:14:44.000Z</time>
</trkpt>
<trkpt lat="46.2529760" lon="10.5525890">
	<ele>1698.20</ele>
	<time>2024-03-09T10:14:45.000Z</time>
</trkpt>
<trkpt lat="46.2529760" lon="10.5526000">
	<ele>1698.20</ele>
	<time>2024-03-09T10:14:46.000Z</time>
</trkpt>
<trkpt lat="46.2529770" lon="10.5526110">
	<ele>1698.20</ele>
	<time>2024-03-09T10:14:47.000Z</time>
</trkpt>
<trkpt lat="46.2529750" lon="10.5526210">
	<ele>1698.20</ele>
	<time>2024-03-09T10:14:48.000Z</time>
</trkpt>
<trkpt lat="46.2529750" lon="10.5526300">
	<ele>1698.40</ele>
	<time>2024-03-09T10:14:49.000Z</time>
</trkpt>
<trkpt lat="46.2529720" lon="10.5526400">
	<ele>1698.40</ele>
	<time>2024-03-09T10:14:50.000Z</time>
</trkpt>
<trkpt lat="46.2529740" lon="10.5526490">
	<ele>1698.40</ele>
	<time>2024-03-09T10:14:51.000Z</time>
</trkpt>
<trkpt lat="46.2529730" lon="10.5526630">
	<ele>1698.60</ele>
	<time>2024-03-09T10:14:52.000Z</time>
</trkpt>
<trkpt lat="46.2529760" lon="10.5526730">
	<ele>1698.60</ele>
	<time>2024-03-09T10:14:53.000Z</time>
</trkpt>
<trkpt lat="46.2529760" lon="10.5526880">
	<ele>1698.80</ele>
	<time>2024-03-09T10:14:54.000Z</time>
</trkpt>
<trkpt lat="46.2529750" lon="10.5527000">
	<ele>1698.80</ele>
	<time>2024-03-09T10:14:55.000Z</time>
</trkpt>
<trkpt lat="46.2529720" lon="10.5527150">
	<ele>1698.80</ele>
	<time>2024-03-09T10:14:56.000Z</time>
</trkpt>
<trkpt lat="46.2529710" lon="10.5527260">
	<ele>1698.80</ele>
	<time>2024-03-09T10:14:57.000Z</time>
</trkpt>
<trkpt lat="46.2529720" lon="10.5527360">
	<ele>1699.00</ele>
	<time>2024-03-09T10:14:58.000Z</time>
</trkpt>
<trkpt lat="46.2529740" lon="10.5527440">
	<ele>1699.00</ele>
	<time>2024-03-09T10:14:59.000Z</time>
</trkpt>
<trkpt lat="46.2529760" lon="10.5527530">
	<ele>1699.00</ele>
	<time>2024-03-09T10:15:00.000Z</time>
</trkpt>
<trkpt lat="46.2529790" lon="10.5527630">
	<ele>1699.00</ele>
	<time>2024-03-09T10:15:01.000Z</time>
</trkpt>
<trkpt lat="46.2529800" lon="10.5527760">
	<ele>1699.00</ele>
	<time>2024-03-09T10:15:02.000Z</time>
</trkpt>
<trkpt lat="46.2529860" lon="10.5527900">
	<ele>1699.00</ele>
	<time>2024-03-09T10:15:03.000Z</time>
</trkpt>
<trkpt lat="46.2529870" lon="10.5527990">
	<ele>1699.20</ele>
	<time>2024-03-09T10:15:04.000Z</time>
</trkpt>
<trkpt lat="46.2529860" lon="10.5528110">
	<ele>1699.20</ele>
	<time>2024-03-09T10:15:05.000Z</time>
</trkpt>
<trkpt lat="46.2529890" lon="10.5528220">
	<ele>1699.20</ele>
	<time>2024-03-09T10:15:06.000Z</time>
</trkpt>
<trkpt lat="46.2529910" lon="10.5528290">
	<ele>1699.20</ele>
	<time>2024-03-09T10:15:07.000Z</time>
</trkpt>
<trkpt lat="46.2529940" lon="10.5528380">
	<ele>1699.20</ele>
	<time>2024-03-09T10:15:08.000Z</time>
</trkpt>
<trkpt lat="46.2529970" lon="10.5528480">
	<ele>1699.20</ele>
	<time>2024-03-09T10:15:09.000Z</time>
</trkpt>
<trkpt lat="46.2529990" lon="10.5528560">
	<ele>1699.40</ele>
	<time>2024-03-09T10:15:10.000Z</time>
</trkpt>
<trkpt lat="46.2530050" lon="10.5528610">
	<ele>1699.40</ele>
	<time>2024-03-09T10:15:11.000Z</time>
</trkpt>
<trkpt lat="46.2530060" lon="10.5528720">
	<ele>1699.60</ele>
	<time>2024-03-09T10:15:12.000Z</time>
</trkpt>
<trkpt lat="46.2530070" lon="10.5528840">
	<ele>1699.80</ele>
	<time>2024-03-09T10:15:13.000Z</time>
</trkpt>
<trkpt lat="46.2530100" lon="10.5528940">
	<ele>1699.80</ele>
	<time>2024-03-09T10:15:14.000Z</time>
</trkpt>
<trkpt lat="46.2530110" lon="10.5529080">
	<ele>1700.00</ele>
	<time>2024-03-09T10:15:15.000Z</time>
</trkpt>
<trkpt lat="46.2530140" lon="10.5529180">
	<ele>1700.00</ele>
	<time>2024-03-09T10:15:16.000Z</time>
</trkpt>
<trkpt lat="46.2530160" lon="10.5529280">
	<ele>1700.00</ele>
	<time>2024-03-09T10:15:17.000Z</time>
</trkpt>
<trkpt lat="46.2530180" lon="10.5529350">
	<ele>1700.20</ele>
	<time>2024-03-09T10:15:18.000Z</time>
</trkpt>
<trkpt lat="46.2530230" lon="10.5529450">
	<ele>1700.20</ele>
	<time>2024-03-09T10:15:19.000Z</time>
</trkpt>
<trkpt lat="46.2530270" lon="10.5529560">
	<ele>1700.20</ele>
	<time>2024-03-09T10:15:20.000Z</time>
</trkpt>
<trkpt lat="46.2530310" lon="10.5529620">
	<ele>1700.40</ele>
	<time>2024-03-09T10:15:21.000Z</time>
</trkpt>
<trkpt lat="46.2530320" lon="10.5529750">
	<ele>1700.40</ele>
	<time>2024-03-09T10:15:22.000Z</time>
</trkpt>
<trkpt lat="46.2530360" lon="10.5529890">
	<ele>1700.40</ele>
	<time>2024-03-09T10:15:23.000Z</time>
</trkpt>
<trkpt lat="46.2530380" lon="10.5529980">
	<ele>1700.60</ele>
	<time>2024-03-09T10:15:24.000Z</time>
</trkpt>
<trkpt lat="46.2530400" lon="10.5530130">
	<ele>1700.60</ele>
	<time>2024-03-09T10:15:25.000Z</time>
</trkpt>
<trkpt lat="46.2530410" lon="10.5530250">
	<ele>1700.60</ele>
	<time>2024-03-09T10:15:26.000Z</time>
</trkpt>
<trkpt lat="46.2530410" lon="10.5530390">
	<ele>1700.60</ele>
	<time>2024-03-09T10:15:27.000Z</time>
</trkpt>
<trkpt lat="46.2530400" lon="10.5530490">
	<ele>1700.60</ele>
	<time>2024-03-09T10:15:28.000Z</time>
</trkpt>
<trkpt lat="46.2530410" lon="10.5530630">
	<ele>1700.60</ele>
	<time>2024-03-09T10:15:29.000Z</time>
</trkpt>
<trkpt lat="46.2530410" lon="10.5530710">
	<ele>1700.80</ele>
	<time>2024-03-09T10:15:30.000Z</time>
</trkpt>
<trkpt lat="46.2530410" lon="10.5530820">
	<ele>1700.80</ele>
	<time>2024-03-09T10:15:31.000Z</time>
</trkpt>
<trkpt lat="46.2530420" lon="10.5530960">
	<ele>1700.80</ele>
	<time>2024-03-09T10:15:32.000Z</time>
</trkpt>
<trkpt lat="46.2530430" lon="10.5531030">
	<ele>1700.80</ele>
	<time>2024-03-09T10:15:33.000Z</time>
</trkpt>
<trkpt lat="46.2530450" lon="10.5531120">
	<ele>1700.80</ele>
	<time>2024-03-09T10:15:34.000Z</time>
</trkpt>
<trkpt lat="46.2530450" lon="10.5531240">
	<ele>1700.80</ele>
	<time>2024-03-09T10:15:35.000Z</time>
</trkpt>
<trkpt lat="46.2530470" lon="10.5531350">
	<ele>1700.80</ele>
	<time>2024-03-09T10:15:36.000Z</time>
</trkpt>
<trkpt lat="46.2530460" lon="10.5531440">
	<ele>1700.80</ele>
	<time>2024-03-09T10:15:37.000Z</time>
</trkpt>
<trkpt lat="46.2530470" lon="10.5531530">
	<ele>1700.80</ele>
	<time>2024-03-09T10:15:38.000Z</time>
</trkpt>
<trkpt lat="46.2530480" lon="10.5531580">
	<ele>1700.80</ele>
	<time>2024-03-09T10:15:39.000Z</time>
</trkpt>
<trkpt lat="46.2530490" lon="10.5531660">
	<ele>1700.80</ele>
	<time>2024-03-09T10:15:40.000Z</time>
</trkpt>
<trkpt lat="46.2530520" lon="10.5531760">
	<ele>1700.80</ele>
	<time>2024-03-09T10:15:41.000Z</time>
</trkpt>
<trkpt lat="46.2530540" lon="10.5531860">
	<ele>1700.60</ele>
	<time>2024-03-09T10:15:42.000Z</time>
</trkpt>
<trkpt lat="46.2530570" lon="10.5531980">
	<ele>1700.60</ele>
	<time>2024-03-09T10:15:43.000Z</time>
</trkpt>
<trkpt lat="46.2530610" lon="10.5532080">
	<ele>1700.60</ele>
	<time>2024-03-09T10:15:44.000Z</time>
</trkpt>
<trkpt lat="46.2530630" lon="10.5532190">
	<ele>1700.60</ele>
	<time>2024-03-09T10:15:45.000Z</time>
</trkpt>
<trkpt lat="46.2530640" lon="10.5532320">
	<ele>1700.80</ele>
	<time>2024-03-09T10:15:46.000Z</time>
</trkpt>
<trkpt lat="46.2530650" lon="10.5532420">
	<ele>1700.80</ele>
	<time>2024-03-09T10:15:47.000Z</time>
</trkpt>
<trkpt lat="46.2530670" lon="10.5532540">
	<ele>1700.80</ele>
	<time>2024-03-09T10:15:48.000Z</time>
</trkpt>
<trkpt lat="46.2530680" lon="10.5532650">
	<ele>1700.80</ele>
	<time>2024-03-09T10:15:49.000Z</time>
</trkpt>
<trkpt lat="46.2530670" lon="10.5532750">
	<ele>1700.80</ele>
	<time>2024-03-09T10:15:50.000Z</time>
</trkpt>
<trkpt lat="46.2530700" lon="10.5532850">
	<ele>1700.80</ele>
	<time>2024-03-09T10:15:51.000Z</time>
</trkpt>
<trkpt lat="46.2530740" lon="10.5532920">
	<ele>1700.80</ele>
	<time>2024-03-09T10:15:52.000Z</time>
</trkpt>
<trkpt lat="46.2530790" lon="10.5533030">
	<ele>1700.60</ele>
	<time>2024-03-09T10:15:53.000Z</time>
</trkpt>
<trkpt lat="46.2530840" lon="10.5533140">
	<ele>1700.80</ele>
	<time>2024-03-09T10:15:54.000Z</time>
</trkpt>
<trkpt lat="46.2530870" lon="10.5533190">
	<ele>1700.80</ele>
	<time>2024-03-09T10:15:55.000Z</time>
</trkpt>
<trkpt lat="46.2530930" lon="10.5533260">
	<ele>1700.80</ele>
	<time>2024-03-09T10:15:56.000Z</time>
</trkpt>
<trkpt lat="46.2530980" lon="10.5533300">
	<ele>1700.80</ele>
	<time>2024-03-09T10:15:57.000Z</time>
</trkpt>
<trkpt lat="46.2531020" lon="10.5533340">
	<ele>1700.80</ele>
	<time>2024-03-09T10:15:58.000Z</time>
</trkpt>
<trkpt lat="46.2531080" lon="10.5533420">
	<ele>1700.80</ele>
	<time>2024-03-09T10:15:59.000Z</time>
</trkpt>
<trkpt lat="46.2531100" lon="10.5533500">
	<ele>1700.80</ele>
	<time>2024-03-09T10:16:00.000Z</time>
</trkpt>
<trkpt lat="46.2531140" lon="10.5533550">
	<ele>1700.80</ele>
	<time>2024-03-09T10:16:01.000Z</time>
</trkpt>
<trkpt lat="46.2531190" lon="10.5533620">
	<ele>1701.00</ele>
	<time>2024-03-09T10:16:02.000Z</time>
</trkpt>
<trkpt lat="46.2531230" lon="10.5533680">
	<ele>1701.00</ele>
	<time>2024-03-09T10:16:03.000Z</time>
</trkpt>
<trkpt lat="46.2531300" lon="10.5533700">
	<ele>1701.00</ele>
	<time>2024-03-09T10:16:04.000Z</time>
</trkpt>
<trkpt lat="46.2531360" lon="10.5533740">
	<ele>1701.00</ele>
	<time>2024-03-09T10:16:05.000Z</time>
</trkpt>
<trkpt lat="46.2531450" lon="10.5533730">
	<ele>1701.00</ele>
	<time>2024-03-09T10:16:06.000Z</time>
</trkpt>
<trkpt lat="46.2531540" lon="10.5533750">
	<ele>1701.20</ele>
	<time>2024-03-09T10:16:07.000Z</time>
</trkpt>
<trkpt lat="46.2531610" lon="10.5533770">
	<ele>1701.20</ele>
	<time>2024-03-09T10:16:08.000Z</time>
</trkpt>
<trkpt lat="46.2531720" lon="10.5533790">
	<ele>1701.40</ele>
	<time>2024-03-09T10:16:09.000Z</time>
</trkpt>
<trkpt lat="46.2531820" lon="10.5533850">
	<ele>1701.40</ele>
	<time>2024-03-09T10:16:10.000Z</time>
</trkpt>
<trkpt lat="46.2531910" lon="10.5533870">
	<ele>1701.40</ele>
	<time>2024-03-09T10:16:11.000Z</time>
</trkpt>
<trkpt lat="46.2531970" lon="10.5533890">
	<ele>1701.40</ele>
	<time>2024-03-09T10:16:12.000Z</time>
</trkpt>
<trkpt lat="46.2531960" lon="10.5533950">
	<ele>1701.60</ele>
	<time>2024-03-09T10:16:13.000Z</time>
</trkpt>
<trkpt lat="46.2532010" lon="10.5533990">
	<ele>1701.60</ele>
	<time>2024-03-09T10:16:14.000Z</time>
</trkpt>
<trkpt lat="46.2532050" lon="10.5534000">
	<ele>1701.80</ele>
	<time>2024-03-09T10:16:15.000Z</time>
</trkpt>
<trkpt lat="46.2532110" lon="10.5534000">
	<ele>1702.00</ele>
	<time>2024-03-09T10:16:16.000Z</time>
</trkpt>
<trkpt lat="46.2532140" lon="10.5533970">
	<ele>1702.00</ele>
	<time>2024-03-09T10:16:17.000Z</time>
</trkpt>
<trkpt lat="46.2532200" lon="10.5533990">
	<ele>1702.20</ele>
	<time>2024-03-09T10:16:18.000Z</time>
</trkpt>
<trkpt lat="46.2532240" lon="10.5534010">
	<ele>1702.20</ele>
	<time>2024-03-09T10:16:19.000Z</time>
</trkpt>
<trkpt lat="46.2532330" lon="10.5534060">
	<ele>1702.40</ele>
	<time>2024-03-09T10:16:20.000Z</time>
</trkpt>
<trkpt lat="46.2532390" lon="10.5534140">
	<ele>1702.60</ele>
	<time>2024-03-09T10:16:21.000Z</time>
</trkpt>
<trkpt lat="46.2532410" lon="10.5534160">
	<ele>1702.80</ele>
	<time>2024-03-09T10:16:22.000Z</time>
</trkpt>
<trkpt lat="46.2532440" lon="10.5534180">
	<ele>1703.00</ele>
	<time>2024-03-09T10:16:23.000Z</time>
</trkpt>
<trkpt lat="46.2532530" lon="10.5534210">
	<ele>1703.00</ele>
	<time>2024-03-09T10:16:24.000Z</time>
</trkpt>
<trkpt lat="46.2532600" lon="10.5534210">
	<ele>1703.20</ele>
	<time>2024-03-09T10:16:25.000Z</time>
</trkpt>
<trkpt lat="46.2532690" lon="10.5534240">
	<ele>1703.40</ele>
	<time>2024-03-09T10:16:26.000Z</time>
</trkpt>
<trkpt lat="46.2532770" lon="10.5534260">
	<ele>1703.40</ele>
	<time>2024-03-09T10:16:27.000Z</time>
</trkpt>
<trkpt lat="46.2532860" lon="10.5534280">
	<ele>1703.40</ele>
	<time>2024-03-09T10:16:28.000Z</time>
</trkpt>
<trkpt lat="46.2532930" lon="10.5534290">
	<ele>1703.60</ele>
	<time>2024-03-09T10:16:29.000Z</time>
</trkpt>
<trkpt lat="46.2532970" lon="10.5534300">
	<ele>1703.80</ele>
	<time>2024-03-09T10:16:30.000Z</time>
</trkpt>
<trkpt lat="46.2533010" lon="10.5534310">
	<ele>1704.00</ele>
	<time>2024-03-09T10:16:31.000Z</time>
</trkpt>
<trkpt lat="46.2533060" lon="10.5534300">
	<ele>1704.00</ele>
	<time>2024-03-09T10:16:32.000Z</time>
</trkpt>
<trkpt lat="46.2533100" lon="10.5534280">
	<ele>1704.20</ele>
	<time>2024-03-09T10:16:33.000Z</time>
</trkpt>
<trkpt lat="46.2533130" lon="10.5534270">
	<ele>1704.40</ele>
	<time>2024-03-09T10:16:34.000Z</time>
</trkpt>
<trkpt lat="46.2533180" lon="10.5534290">
	<ele>1704.40</ele>
	<time>2024-03-09T10:16:35.000Z</time>
</trkpt>
<trkpt lat="46.2533240" lon="10.5534280">
	<ele>1704.60</ele>
	<time>2024-03-09T10:16:36.000Z</time>
</trkpt>
<trkpt lat="46.2533310" lon="10.5534260">
	<ele>1704.60</ele>
	<time>2024-03-09T10:16:37.000Z</time>
</trkpt>
<trkpt lat="46.2533380" lon="10.5534260">
	<ele>1704.80</ele>
	<time>2024-03-09T10:16:38.000Z</time>
</trkpt>
<trkpt lat="46.2533430" lon="10.5534260">
	<ele>1705.00</ele>
	<time>2024-03-09T10:16:39.000Z</time>
</trkpt>
<trkpt lat="46.2533460" lon="10.5534250">
	<ele>1705.00</ele>
	<time>2024-03-09T10:16:40.000Z</time>
</trkpt>
<trkpt lat="46.2533510" lon="10.5534260">
	<ele>1705.20</ele>
	<time>2024-03-09T10:16:41.000Z</time>
</trkpt>
<trkpt lat="46.2533570" lon="10.5534240">
	<ele>1705.40</ele>
	<time>2024-03-09T10:16:42.000Z</time>
</trkpt>
<trkpt lat="46.2533650" lon="10.5534230">
	<ele>1705.40</ele>
	<time>2024-03-09T10:16:43.000Z</time>
</trkpt>
<trkpt lat="46.2533700" lon="10.5534220">
	<ele>1705.60</ele>
	<time>2024-03-09T10:16:44.000Z</time>
</trkpt>
<trkpt lat="46.2533730" lon="10.5534170">
	<ele>1705.60</ele>
	<time>2024-03-09T10:16:45.000Z</time>
</trkpt>
<trkpt lat="46.2533800" lon="10.5534140">
	<ele>1705.80</ele>
	<time>2024-03-09T10:16:46.000Z</time>
</trkpt>
<trkpt lat="46.2533830" lon="10.5534130">
	<ele>1706.00</ele>
	<time>2024-03-09T10:16:47.000Z</time>
</trkpt>
<trkpt lat="46.2533880" lon="10.5534140">
	<ele>1706.20</ele>
	<time>2024-03-09T10:16:48.000Z</time>
</trkpt>
<trkpt lat="46.2533950" lon="10.5534140">
	<ele>1706.40</ele>
	<time>2024-03-09T10:16:49.000Z</time>
</trkpt>
<trkpt lat="46.2534010" lon="10.5534120">
	<ele>1706.60</ele>
	<time>2024-03-09T10:16:50.000Z</time>
</trkpt>
<trkpt lat="46.2534060" lon="10.5534130">
	<ele>1706.80</ele>
	<time>2024-03-09T10:16:51.000Z</time>
</trkpt>
<trkpt lat="46.2534110" lon="10.5534150">
	<ele>1707.00</ele>
	<time>2024-03-09T10:16:52.000Z</time>
</trkpt>
<trkpt lat="46.2534200" lon="10.5534180">
	<ele>1707.00</ele>
	<time>2024-03-09T10:16:53.000Z</time>
</trkpt>
<trkpt lat="46.2534240" lon="10.5534190">
	<ele>1707.20</ele>
	<time>2024-03-09T10:16:54.000Z</time>
</trkpt>
<trkpt lat="46.2534270" lon="10.5534200">
	<ele>1707.40</ele>
	<time>2024-03-09T10:16:55.000Z</time>
</trkpt>
<trkpt lat="46.2534290" lon="10.5534210">
	<ele>1707.60</ele>
	<time>2024-03-09T10:16:56.000Z</time>
</trkpt>
<trkpt lat="46.2534310" lon="10.5534210">
	<ele>1707.80</ele>
	<time>2024-03-09T10:16:57.000Z</time>
</trkpt>
<trkpt lat="46.2534320" lon="10.5534220">
	<ele>1708.00</ele>
	<time>2024-03-09T10:16:58.000Z</time>
</trkpt>
<trkpt lat="46.2534340" lon="10.5534230">
	<ele>1708.20</ele>
	<time>2024-03-09T10:16:59.000Z</time>
</trkpt>
<trkpt lat="46.2534370" lon="10.5534240">
	<ele>1708.40</ele>
	<time>2024-03-09T10:17:00.000Z</time>
</trkpt>
<trkpt lat="46.2534400" lon="10.5534250">
	<ele>1708.60</ele>
	<time>2024-03-09T10:17:01.000Z</time>
</trkpt>
<trkpt lat="46.2534440" lon="10.5534250">
	<ele>1708.80</ele>
	<time>2024-03-09T10:17:02.000Z</time>
</trkpt>
<trkpt lat="46.2534460" lon="10.5534230">
	<ele>1708.80</ele>
	<time>2024-03-09T10:17:03.000Z</time>
</trkpt>
<trkpt lat="46.2534540" lon="10.5534200">
	<ele>1709.00</ele>
	<time>2024-03-09T10:17:04.000Z</time>
</trkpt>
<trkpt lat="46.2534600" lon="10.5534190">
	<ele>1709.00</ele>
	<time>2024-03-09T10:17:05.000Z</time>
</trkpt>
<trkpt lat="46.2534630" lon="10.5534170">
	<ele>1709.20</ele>
	<time>2024-03-09T10:17:06.000Z</time>
</trkpt>
<trkpt lat="46.2534640" lon="10.5534160">
	<ele>1709.20</ele>
	<time>2024-03-09T10:17:07.000Z</time>
</trkpt>
<trkpt lat="46.2534590" lon="10.5534180">
	<ele>1709.20</ele>
	<time>2024-03-09T10:17:08.000Z</time>
</trkpt>
<trkpt lat="46.2534580" lon="10.5534170">
	<ele>1709.20</ele>
	<time>2024-03-09T10:17:09.000Z</time>
</trkpt>
<trkpt lat="46.2534570" lon="10.5534140">
	<ele>1709.20</ele>
	<time>2024-03-09T10:17:10.000Z</time>
</trkpt>
<trkpt lat="46.2534560" lon="10.5534130">
	<ele>1709.20</ele>
	<time>2024-03-09T10:17:11.000Z</time>
</trkpt>
<trkpt lat="46.2534560" lon="10.5534150">
	<ele>1709.20</ele>
	<time>2024-03-09T10:17:12.000Z</time>
</trkpt>
<trkpt lat="46.2534560" lon="10.5534160">
	<ele>1709.20</ele>
	<time>2024-03-09T10:17:13.000Z</time>
</trkpt>
<trkpt lat="46.2534560" lon="10.5534160">
	<ele>1709.20</ele>
	<time>2024-03-09T10:17:14.000Z</time>
</trkpt>
<trkpt lat="46.2534560" lon="10.5534160">
	<ele>1709.20</ele>
	<time>2024-03-09T10:17:15.000Z</time>
</trkpt>
<trkpt lat="46.2534560" lon="10.5534160">
	<ele>1709.40</ele>
	<time>2024-03-09T10:17:16.000Z</time>
</trkpt>
<trkpt lat="46.2534560" lon="10.5534160">
	<ele>1709.20</ele>
	<time>2024-03-09T10:17:17.000Z</time>
</trkpt>
<trkpt lat="46.2534560" lon="10.5534160">
	<ele>1709.40</ele>
	<time>2024-03-09T10:17:18.000Z</time>
</trkpt>
<trkpt lat="46.2534560" lon="10.5534160">
	<ele>1709.40</ele>
	<time>2024-03-09T10:17:19.000Z</time>
</trkpt>
<trkpt lat="46.2534560" lon="10.5534160">
	<ele>1709.60</ele>
	<time>2024-03-09T10:17:20.000Z</time>
</trkpt>
<trkpt lat="46.2534560" lon="10.5534160">
	<ele>1709.60</ele>
	<time>2024-03-09T10:17:21.000Z</time>
</trkpt>
<trkpt lat="46.2534560" lon="10.5534160">
	<ele>1709.60</ele>
	<time>2024-03-09T10:17:22.000Z</time>
</trkpt>
<trkpt lat="46.2534560" lon="10.5534160">
	<ele>1709.80</ele>
	<time>2024-03-09T10:17:23.000Z</time>
</trkpt>
<trkpt lat="46.2534560" lon="10.5534160">
	<ele>1710.00</ele>
	<time>2024-03-09T10:17:24.000Z</time>
</trkpt>
<trkpt lat="46.2534560" lon="10.5534160">
	<ele>1710.00</ele>
	<time>2024-03-09T10:17:25.000Z</time>
</trkpt>
<trkpt lat="46.2534560" lon="10.5534150">
	<ele>1710.00</ele>
	<time>2024-03-09T10:17:26.000Z</time>
</trkpt>
<trkpt lat="46.2534560" lon="10.5534140">
	<ele>1710.00</ele>
	<time>2024-03-09T10:17:27.000Z</time>
</trkpt>
<trkpt lat="46.2534560" lon="10.5534140">
	<ele>1710.00</ele>
	<time>2024-03-09T10:17:28.000Z</time>
</trkpt>
<trkpt lat="46.2534540" lon="10.5534130">
	<ele>1709.80</ele>
	<time>2024-03-09T10:17:29.000Z</time>
</trkpt>
<trkpt lat="46.2534530" lon="10.5534130">
	<ele>1709.80</ele>
	<time>2024-03-09T10:17:30.000Z</time>
</trkpt>
<trkpt lat="46.2534530" lon="10.5534130">
	<ele>1709.80</ele>
	<time>2024-03-09T10:17:31.000Z</time>
</trkpt>
<trkpt lat="46.2534530" lon="10.5534130">
	<ele>1709.60</ele>
	<time>2024-03-09T10:17:32.000Z</time>
</trkpt>
<trkpt lat="46.2534530" lon="10.5534130">
	<ele>1709.40</ele>
	<time>2024-03-09T10:17:33.000Z</time>
</trkpt>
<trkpt lat="46.2534530" lon="10.5534130">
	<ele>1709.40</ele>
	<time>2024-03-09T10:17:34.000Z</time>
</trkpt>
<trkpt lat="46.2534520" lon="10.5534130">
	<ele>1709.20</ele>
	<time>2024-03-09T10:17:35.000Z</time>
</trkpt>
<trkpt lat="46.2534490" lon="10.5534130">
	<ele>1709.20</ele>
	<time>2024-03-09T10:17:36.000Z</time>
</trkpt>
<trkpt lat="46.2534480" lon="10.5534130">
	<ele>1709.20</ele>
	<time>2024-03-09T10:17:37.000Z</time>
</trkpt>
<trkpt lat="46.2534450" lon="10.5534120">
	<ele>1709.20</ele>
	<time>2024-03-09T10:17:38.000Z</time>
</trkpt>
<trkpt lat="46.2534440" lon="10.5534120">
	<ele>1709.00</ele>
	<time>2024-03-09T10:17:39.000Z</time>
</trkpt>
<trkpt lat="46.2534440" lon="10.5534120">
	<ele>1709.00</ele>
	<time>2024-03-09T10:17:40.000Z</time>
</trkpt>
<trkpt lat="46.2534430" lon="10.5534120">
	<ele>1709.00</ele>
	<time>2024-03-09T10:17:41.000Z</time>
</trkpt>
<trkpt lat="46.2534430" lon="10.5534120">
	<ele>1709.00</ele>
	<time>2024-03-09T10:17:42.000Z</time>
</trkpt>
<trkpt lat="46.2534430" lon="10.5534120">
	<ele>1708.80</ele>
	<time>2024-03-09T10:17:43.000Z</time>
</trkpt>
<trkpt lat="46.2534430" lon="10.5534120">
	<ele>1709.00</ele>
	<time>2024-03-09T10:17:44.000Z</time>
</trkpt>
<trkpt lat="46.2534430" lon="10.5534120">
	<ele>1709.00</ele>
	<time>2024-03-09T10:17:45.000Z</time>
</trkpt>
<trkpt lat="46.2534430" lon="10.5534120">
	<ele>1709.00</ele>
	<time>2024-03-09T10:17:46.000Z</time>
</trkpt>
<trkpt lat="46.2534420" lon="10.5534120">
	<ele>1709.00</ele>
	<time>2024-03-09T10:17:47.000Z</time>
</trkpt>
<trkpt lat="46.2534400" lon="10.5534120">
	<ele>1709.00</ele>
	<time>2024-03-09T10:17:48.000Z</time>
</trkpt>
<trkpt lat="46.2534390" lon="10.5534130">
	<ele>1709.20</ele>
	<time>2024-03-09T10:17:49.000Z</time>
</trkpt>
<trkpt lat="46.2534390" lon="10.5534130">
	<ele>1709.20</ele>
	<time>2024-03-09T10:17:50.000Z</time>
</trkpt>
<trkpt lat="46.2534390" lon="10.5534130">
	<ele>1709.40</ele>
	<time>2024-03-09T10:17:51.000Z</time>
</trkpt>
<trkpt lat="46.2534390" lon="10.5534130">
	<ele>1709.40</ele>
	<time>2024-03-09T10:17:52.000Z</time>
</trkpt>
<trkpt lat="46.2534390" lon="10.5534130">
	<ele>1709.40</ele>
	<time>2024-03-09T10:17:53.000Z</time>
</trkpt>
<trkpt lat="46.2534420" lon="10.5534200">
	<ele>1709.40</ele>
	<time>2024-03-09T10:17:54.000Z</time>
</trkpt>
<trkpt lat="46.2534530" lon="10.5534370">
	<ele>1709.60</ele>
	<time>2024-03-09T10:17:55.000Z</time>
</trkpt>
<trkpt lat="46.2534610" lon="10.5534560">
	<ele>1709.60</ele>
	<time>2024-03-09T10:17:56.000Z</time>
</trkpt>
<trkpt lat="46.2534760" lon="10.5534720">
	<ele>1709.60</ele>
	<time>2024-03-09T10:17:57.000Z</time>
</trkpt>
<trkpt lat="46.2534880" lon="10.5534830">
	<ele>1709.60</ele>
	<time>2024-03-09T10:17:58.000Z</time>
</trkpt>
<trkpt lat="46.2535010" lon="10.5534980">
	<ele>1709.60</ele>
	<time>2024-03-09T10:17:59.000Z</time>
</trkpt>
<trkpt lat="46.2535100" lon="10.5535130">
	<ele>1709.60</ele>
	<time>2024-03-09T10:18:00.000Z</time>
</trkpt>
<trkpt lat="46.2535190" lon="10.5535260">
	<ele>1709.80</ele>
	<time>2024-03-09T10:18:01.000Z</time>
</trkpt>
<trkpt lat="46.2535270" lon="10.5535390">
	<ele>1709.80</ele>
	<time>2024-03-09T10:18:02.000Z</time>
</trkpt>
<trkpt lat="46.2535340" lon="10.5535560">
	<ele>1710.00</ele>
	<time>2024-03-09T10:18:03.000Z</time>
</trkpt>
<trkpt lat="46.2535420" lon="10.5535640">
	<ele>1710.00</ele>
	<time>2024-03-09T10:18:04.000Z</time>
</trkpt>
<trkpt lat="46.2535490" lon="10.5535690">
	<ele>1710.00</ele>
	<time>2024-03-09T10:18:05.000Z</time>
</trkpt>
<trkpt lat="46.2535560" lon="10.5535770">
	<ele>1710.00</ele>
	<time>2024-03-09T10:18:06.000Z</time>
</trkpt>
<trkpt lat="46.2535620" lon="10.5535850">
	<ele>1710.00</ele>
	<time>2024-03-09T10:18:07.000Z</time>
</trkpt>
<trkpt lat="46.2535650" lon="10.5535920">
	<ele>1710.20</ele>
	<time>2024-03-09T10:18:08.000Z</time>
</trkpt>
<trkpt lat="46.2535680" lon="10.5536040">
	<ele>1710.20</ele>
	<time>2024-03-09T10:18:09.000Z</time>
</trkpt>
<trkpt lat="46.2535700" lon="10.5536150">
	<ele>1710.20</ele>
	<time>2024-03-09T10:18:10.000Z</time>
</trkpt>
<trkpt lat="46.2535750" lon="10.5536240">
	<ele>1710.40</ele>
	<time>2024-03-09T10:18:11.000Z</time>
</trkpt>
<trkpt lat="46.2535790" lon="10.5536370">
	<ele>1710.40</ele>
	<time>2024-03-09T10:18:12.000Z</time>
</trkpt>
<trkpt lat="46.2535820" lon="10.5536480">
	<ele>1710.40</ele>
	<time>2024-03-09T10:18:13.000Z</time>
</trkpt>
<trkpt lat="46.2535850" lon="10.5536550">
	<ele>1710.40</ele>
	<time>2024-03-09T10:18:14.000Z</time>
</trkpt>
<trkpt lat="46.2535940" lon="10.5536610">
	<ele>1710.40</ele>
	<time>2024-03-09T10:18:15.000Z</time>
</trkpt>
<trkpt lat="46.2535990" lon="10.5536720">
	<ele>1710.60</ele>
	<time>2024-03-09T10:18:16.000Z</time>
</trkpt>
<trkpt lat="46.2536050" lon="10.5536820">
	<ele>1710.60</ele>
	<time>2024-03-09T10:18:17.000Z</time>
</trkpt>
<trkpt lat="46.2536100" lon="10.5536890">
	<ele>1710.60</ele>
	<time>2024-03-09T10:18:18.000Z</time>
</trkpt>
<trkpt lat="46.2536100" lon="10.5537030">
	<ele>1710.80</ele>
	<time>2024-03-09T10:18:19.000Z</time>
</trkpt>
<trkpt lat="46.2536120" lon="10.5537200">
	<ele>1710.80</ele>
	<time>2024-03-09T10:18:20.000Z</time>
</trkpt>
<trkpt lat="46.2536150" lon="10.5537310">
	<ele>1711.00</ele>
	<time>2024-03-09T10:18:21.000Z</time>
</trkpt>
<trkpt lat="46.2536210" lon="10.5537410">
	<ele>1711.20</ele>
	<time>2024-03-09T10:18:22.000Z</time>
</trkpt>
<trkpt lat="46.2536300" lon="10.5537480">
	<ele>1711.20</ele>
	<time>2024-03-09T10:18:23.000Z</time>
</trkpt>
<trkpt lat="46.2536380" lon="10.5537490">
	<ele>1711.20</ele>
	<time>2024-03-09T10:18:24.000Z</time>
</trkpt>
<trkpt lat="46.2536440" lon="10.5537550">
	<ele>1711.40</ele>
	<time>2024-03-09T10:18:25.000Z</time>
</trkpt>
<trkpt lat="46.2536500" lon="10.5537670">
	<ele>1711.40</ele>
	<time>2024-03-09T10:18:26.000Z</time>
</trkpt>
<trkpt lat="46.2536550" lon="10.5537750">
	<ele>1711.40</ele>
	<time>2024-03-09T10:18:27.000Z</time>
</trkpt>
<trkpt lat="46.2536610" lon="10.5537850">
	<ele>1711.40</ele>
	<time>2024-03-09T10:18:28.000Z</time>
</trkpt>
<trkpt lat="46.2536680" lon="10.5537930">
	<ele>1711.40</ele>
	<time>2024-03-09T10:18:29.000Z</time>
</trkpt>
<trkpt lat="46.2536750" lon="10.5538010">
	<ele>1711.60</ele>
	<time>2024-03-09T10:18:30.000Z</time>
</trkpt>
<trkpt lat="46.2536830" lon="10.5538070">
	<ele>1711.60</ele>
	<time>2024-03-09T10:18:31.000Z</time>
</trkpt>
<trkpt lat="46.2536900" lon="10.5538140">
	<ele>1711.60</ele>
	<time>2024-03-09T10:18:32.000Z</time>
</trkpt>
<trkpt lat="46.2536990" lon="10.5538230">
	<ele>1711.80</ele>
	<time>2024-03-09T10:18:33.000Z</time>
</trkpt>
<trkpt lat="46.2537040" lon="10.5538300">
	<ele>1711.80</ele>
	<time>2024-03-09T10:18:34.000Z</time>
</trkpt>
<trkpt lat="46.2537100" lon="10.5538390">
	<ele>1711.80</ele>
	<time>2024-03-09T10:18:35.000Z</time>
</trkpt>
<trkpt lat="46.2537110" lon="10.5538480">
	<ele>1712.00</ele>
	<time>2024-03-09T10:18:36.000Z</time>
</trkpt>
<trkpt lat="46.2537140" lon="10.5538560">
	<ele>1712.00</ele>
	<time>2024-03-09T10:18:37.000Z</time>
</trkpt>
<trkpt lat="46.2537190" lon="10.5538640">
	<ele>1712.00</ele>
	<time>2024-03-09T10:18:38.000Z</time>
</trkpt>
<trkpt lat="46.2537250" lon="10.5538730">
	<ele>1712.20</ele>
	<time>2024-03-09T10:18:39.000Z</time>
</trkpt>
<trkpt lat="46.2537260" lon="10.5538840">
	<ele>1712.40</ele>
	<time>2024-03-09T10:18:40.000Z</time>
</trkpt>
<trkpt lat="46.2537270" lon="10.5538970">
	<ele>1712.40</ele>
	<time>2024-03-09T10:18:41.000Z</time>
</trkpt>
<trkpt lat="46.2537270" lon="10.5539050">
	<ele>1712.60</ele>
	<time>2024-03-09T10:18:42.000Z</time>
</trkpt>
<trkpt lat="46.2537300" lon="10.5539170">
	<ele>1712.60</ele>
	<time>2024-03-09T10:18:43.000Z</time>
</trkpt>
<trkpt lat="46.2537350" lon="10.5539250">
	<ele>1712.80</ele>
	<time>2024-03-09T10:18:44.000Z</time>
</trkpt>
<trkpt lat="46.2537400" lon="10.5539320">
	<ele>1712.80</ele>
	<time>2024-03-09T10:18:45.000Z</time>
</trkpt>
<trkpt lat="46.2537440" lon="10.5539410">
	<ele>1712.80</ele>
	<time>2024-03-09T10:18:46.000Z</time>
</trkpt>
<trkpt lat="46.2537500" lon="10.5539530">
	<ele>1713.00</ele>
	<time>2024-03-09T10:18:47.000Z</time>
</trkpt>
<trkpt lat="46.2537610" lon="10.5539610">
	<ele>1713.00</ele>
	<time>2024-03-09T10:18:48.000Z</time>
</trkpt>
<trkpt lat="46.2537680" lon="10.5539690">
	<ele>1713.00</ele>
	<time>2024-03-09T10:18:49.000Z</time>
</trkpt>
<trkpt lat="46.2537730" lon="10.5539780">
	<ele>1713.00</ele>
	<time>2024-03-09T10:18:50.000Z</time>
</trkpt>
<trkpt lat="46.2537790" lon="10.5539870">
	<ele>1713.20</ele>
	<time>2024-03-09T10:18:51.000Z</time>
</trkpt>
<trkpt lat="46.2537850" lon="10.5539950">
	<ele>1713.20</ele>
	<time>2024-03-09T10:18:52.000Z</time>
</trkpt>
<trkpt lat="46.2537930" lon="10.5540000">
	<ele>1713.20</ele>
	<time>2024-03-09T10:18:53.000Z</time>
</trkpt>
<trkpt lat="46.2537970" lon="10.5540080">
	<ele>1713.40</ele>
	<time>2024-03-09T10:18:54.000Z</time>
</trkpt>
<trkpt lat="46.2538000" lon="10.5540200">
	<ele>1713.60</ele>
	<time>2024-03-09T10:18:55.000Z</time>
</trkpt>
<trkpt lat="46.2538050" lon="10.5540280">
	<ele>1713.60</ele>
	<time>2024-03-09T10:18:56.000Z</time>
</trkpt>
<trkpt lat="46.2538120" lon="10.5540320">
	<ele>1713.60</ele>
	<time>2024-03-09T10:18:57.000Z</time>
</trkpt>
<trkpt lat="46.2538180" lon="10.5540380">
	<ele>1713.80</ele>
	<time>2024-03-09T10:18:58.000Z</time>
</trkpt>
<trkpt lat="46.2538220" lon="10.5540450">
	<ele>1713.80</ele>
	<time>2024-03-09T10:18:59.000Z</time>
</trkpt>
<trkpt lat="46.2538260" lon="10.5540560">
	<ele>1714.00</ele>
	<time>2024-03-09T10:19:00.000Z</time>
</trkpt>
<trkpt lat="46.2538300" lon="10.5540660">
	<ele>1714.00</ele>
	<time>2024-03-09T10:19:01.000Z</time>
</trkpt>
<trkpt lat="46.2538340" lon="10.5540780">
	<ele>1714.20</ele>
	<time>2024-03-09T10:19:02.000Z</time>
</trkpt>
<trkpt lat="46.2538360" lon="10.5540860">
	<ele>1714.20</ele>
	<time>2024-03-09T10:19:03.000Z</time>
</trkpt>
<trkpt lat="46.2538380" lon="10.5540960">
	<ele>1714.40</ele>
	<time>2024-03-09T10:19:04.000Z</time>
</trkpt>
<trkpt lat="46.2538410" lon="10.5541050">
	<ele>1714.40</ele>
	<time>2024-03-09T10:19:05.000Z</time>
</trkpt>
<trkpt lat="46.2538460" lon="10.5541110">
	<ele>1714.60</ele>
	<time>2024-03-09T10:19:06.000Z</time>
</trkpt>
<trkpt lat="46.2538510" lon="10.5541200">
	<ele>1714.60</ele>
	<time>2024-03-09T10:19:07.000Z</time>
</trkpt>
<trkpt lat="46.2538560" lon="10.5541330">
	<ele>1714.80</ele>
	<time>2024-03-09T10:19:08.000Z</time>
</trkpt>
<trkpt lat="46.2538590" lon="10.5541450">
	<ele>1714.80</ele>
	<time>2024-03-09T10:19:09.000Z</time>
</trkpt>
<trkpt lat="46.2538630" lon="10.5541550">
	<ele>1714.80</ele>
	<time>2024-03-09T10:19:10.000Z</time>
</trkpt>
<trkpt lat="46.2538670" lon="10.5541650">
	<ele>1714.80</ele>
	<time>2024-03-09T10:19:11.000Z</time>
</trkpt>
<trkpt lat="46.2538710" lon="10.5541740">
	<ele>1715.00</ele>
	<time>2024-03-09T10:19:12.000Z</time>
</trkpt>
<trkpt lat="46.2538760" lon="10.5541820">
	<ele>1715.00</ele>
	<time>2024-03-09T10:19:13.000Z</time>
</trkpt>
<trkpt lat="46.2538790" lon="10.5541920">
	<ele>1715.20</ele>
	<time>2024-03-09T10:19:14.000Z</time>
</trkpt>
<trkpt lat="46.2538820" lon="10.5542050">
	<ele>1715.20</ele>
	<time>2024-03-09T10:19:15.000Z</time>
</trkpt>
<trkpt lat="46.2538830" lon="10.5542170">
	<ele>1715.20</ele>
	<time>2024-03-09T10:19:16.000Z</time>
</trkpt>
<trkpt lat="46.2538850" lon="10.5542270">
	<ele>1715.20</ele>
	<time>2024-03-09T10:19:17.000Z</time>
</trkpt>
<trkpt lat="46.2538890" lon="10.5542360">
	<ele>1715.20</ele>
	<time>2024-03-09T10:19:18.000Z</time>
</trkpt>
<trkpt lat="46.2538950" lon="10.5542450">
	<ele>1715.40</ele>
	<time>2024-03-09T10:19:19.000Z</time>
</trkpt>
<trkpt lat="46.2539010" lon="10.5542540">
	<ele>1715.60</ele>
	<time>2024-03-09T10:19:20.000Z</time>
</trkpt>
<trkpt lat="46.2539070" lon="10.5542630">
	<ele>1715.80</ele>
	<time>2024-03-09T10:19:21.000Z</time>
</trkpt>
<trkpt lat="46.2539160" lon="10.5542750">
	<ele>1715.80</ele>
	<time>2024-03-09T10:19:22.000Z</time>
</trkpt>
<trkpt lat="46.2539220" lon="10.5542880">
	<ele>1715.80</ele>
	<time>2024-03-09T10:19:23.000Z</time>
</trkpt>
<trkpt lat="46.2539300" lon="10.5542910">
	<ele>1715.80</ele>
	<time>2024-03-09T10:19:24.000Z</time>
</trkpt>
<trkpt lat="46.2539380" lon="10.5542990">
	<ele>1715.80</ele>
	<time>2024-03-09T10:19:25.000Z</time>
</trkpt>
<trkpt lat="46.2539490" lon="10.5543040">
	<ele>1715.80</ele>
	<time>2024-03-09T10:19:26.000Z</time>
</trkpt>
<trkpt lat="46.2539540" lon="10.5543090">
	<ele>1715.80</ele>
	<time>2024-03-09T10:19:27.000Z</time>
</trkpt>
<trkpt lat="46.2539520" lon="10.5543160">
	<ele>1716.00</ele>
	<time>2024-03-09T10:19:28.000Z</time>
</trkpt>
<trkpt lat="46.2539600" lon="10.5543220">
	<ele>1716.00</ele>
	<time>2024-03-09T10:19:29.000Z</time>
</trkpt>
<trkpt lat="46.2539700" lon="10.5543270">
	<ele>1716.00</ele>
	<time>2024-03-09T10:19:30.000Z</time>
</trkpt>
<trkpt lat="46.2539770" lon="10.5543270">
	<ele>1716.20</ele>
	<time>2024-03-09T10:19:31.000Z</time>
</trkpt>
<trkpt lat="46.2539830" lon="10.5543350">
	<ele>1716.20</ele>
	<time>2024-03-09T10:19:32.000Z</time>
</trkpt>
<trkpt lat="46.2539850" lon="10.5543430">
	<ele>1716.20</ele>
	<time>2024-03-09T10:19:33.000Z</time>
</trkpt>
<trkpt lat="46.2539880" lon="10.5543550">
	<ele>1716.20</ele>
	<time>2024-03-09T10:19:34.000Z</time>
</trkpt>
<trkpt lat="46.2539910" lon="10.5543650">
	<ele>1716.40</ele>
	<time>2024-03-09T10:19:35.000Z</time>
</trkpt>
<trkpt lat="46.2539940" lon="10.5543730">
	<ele>1716.40</ele>
	<time>2024-03-09T10:19:36.000Z</time>
</trkpt>
<trkpt lat="46.2539990" lon="10.5543830">
	<ele>1716.40</ele>
	<time>2024-03-09T10:19:37.000Z</time>
</trkpt>
<trkpt lat="46.2540030" lon="10.5543930">
	<ele>1716.60</ele>
	<time>2024-03-09T10:19:38.000Z</time>
</trkpt>
<trkpt lat="46.2540070" lon="10.5544010">
	<ele>1716.60</ele>
	<time>2024-03-09T10:19:39.000Z</time>
</trkpt>
<trkpt lat="46.2540070" lon="10.5544070">
	<ele>1716.60</ele>
	<time>2024-03-09T10:19:40.000Z</time>
</trkpt>
<trkpt lat="46.2540150" lon="10.5544120">
	<ele>1716.80</ele>
	<time>2024-03-09T10:19:41.000Z</time>
</trkpt>
<trkpt lat="46.2540210" lon="10.5544180">
	<ele>1716.80</ele>
	<time>2024-03-09T10:19:42.000Z</time>
</trkpt>
<trkpt lat="46.2540250" lon="10.5544270">
	<ele>1716.80</ele>
	<time>2024-03-09T10:19:43.000Z</time>
</trkpt>
<trkpt lat="46.2540300" lon="10.5544330">
	<ele>1716.80</ele>
	<time>2024-03-09T10:19:44.000Z</time>
</trkpt>
<trkpt lat="46.2540390" lon="10.5544360">
	<ele>1717.00</ele>
	<time>2024-03-09T10:19:45.000Z</time>
</trkpt>
<trkpt lat="46.2540450" lon="10.5544390">
	<ele>1717.00</ele>
	<time>2024-03-09T10:19:46.000Z</time>
</trkpt>
<trkpt lat="46.2540470" lon="10.5544460">
	<ele>1717.00</ele>
	<time>2024-03-09T10:19:47.000Z</time>
</trkpt>
<trkpt lat="46.2540540" lon="10.5544530">
	<ele>1717.40</ele>
	<time>2024-03-09T10:19:48.000Z</time>
</trkpt>
<trkpt lat="46.2540620" lon="10.5544620">
	<ele>1717.40</ele>
	<time>2024-03-09T10:19:49.000Z</time>
</trkpt>
<trkpt lat="46.2540650" lon="10.5544710">
	<ele>1717.40</ele>
	<time>2024-03-09T10:19:50.000Z</time>
</trkpt>
<trkpt lat="46.2540650" lon="10.5544840">
	<ele>1717.60</ele>
	<time>2024-03-09T10:19:51.000Z</time>
</trkpt>
<trkpt lat="46.2540680" lon="10.5544960">
	<ele>1717.60</ele>
	<time>2024-03-09T10:19:52.000Z</time>
</trkpt>
<trkpt lat="46.2540710" lon="10.5545060">
	<ele>1717.60</ele>
	<time>2024-03-09T10:19:53.000Z</time>
</trkpt>
<trkpt lat="46.2540780" lon="10.5545120">
	<ele>1717.60</ele>
	<time>2024-03-09T10:19:54.000Z</time>
</trkpt>
<trkpt lat="46.2540880" lon="10.5545210">
	<ele>1717.60</ele>
	<time>2024-03-09T10:19:55.000Z</time>
</trkpt>
<trkpt lat="46.2540950" lon="10.5545250">
	<ele>1717.80</ele>
	<time>2024-03-09T10:19:56.000Z</time>
</trkpt>
<trkpt lat="46.2541020" lon="10.5545300">
	<ele>1717.80</ele>
	<time>2024-03-09T10:19:57.000Z</time>
</trkpt>
<trkpt lat="46.2541100" lon="10.5545370">
	<ele>1718.00</ele>
	<time>2024-03-09T10:19:58.000Z</time>
</trkpt>
<trkpt lat="46.2541160" lon="10.5545480">
	<ele>1718.00</ele>
	<time>2024-03-09T10:19:59.000Z</time>
</trkpt>
<trkpt lat="46.2541210" lon="10.5545590">
	<ele>1718.00</ele>
	<time>2024-03-09T10:20:00.000Z</time>
</trkpt>
<trkpt lat="46.2541270" lon="10.5545730">
	<ele>1718.00</ele>
	<time>2024-03-09T10:20:01.000Z</time>
</trkpt>
<trkpt lat="46.2541370" lon="10.5545810">
	<ele>1718.20</ele>
	<time>2024-03-09T10:20:02.000Z</time>
</trkpt>
<trkpt lat="46.2541420" lon="10.5545900">
	<ele>1718.20</ele>
	<time>2024-03-09T10:20:03.000Z</time>
</trkpt>
<trkpt lat="46.2541530" lon="10.5545960">
	<ele>1718.20</ele>
	<time>2024-03-09T10:20:04.000Z</time>
</trkpt>
<trkpt lat="46.2541610" lon="10.5546070">
	<ele>1718.20</ele>
	<time>2024-03-09T10:20:05.000Z</time>
</trkpt>
<trkpt lat="46.2541690" lon="10.5546130">
	<ele>1718.40</ele>
	<time>2024-03-09T10:20:06.000Z</time>
</trkpt>
<trkpt lat="46.2541770" lon="10.5546210">
	<ele>1718.40</ele>
	<time>2024-03-09T10:20:07.000Z</time>
</trkpt>
<trkpt lat="46.2541840" lon="10.5546290">
	<ele>1718.40</ele>
	<time>2024-03-09T10:20:08.000Z</time>
</trkpt>
<trkpt lat="46.2541920" lon="10.5546350">
	<ele>1718.60</ele>
	<time>2024-03-09T10:20:09.000Z</time>
</trkpt>
<trkpt lat="46.2541970" lon="10.5546430">
	<ele>1718.80</ele>
	<time>2024-03-09T10:20:10.000Z</time>
</trkpt>
<trkpt lat="46.2542030" lon="10.5546520">
	<ele>1718.80</ele>
	<time>2024-03-09T10:20:11.000Z</time>
</trkpt>
<trkpt lat="46.2542080" lon="10.5546610">
	<ele>1718.80</ele>
	<time>2024-03-09T10:20:12.000Z</time>
</trkpt>
<trkpt lat="46.2542160" lon="10.5546670">
	<ele>1718.80</ele>
	<time>2024-03-09T10:20:13.000Z</time>
</trkpt>
<trkpt lat="46.2542200" lon="10.5546800">
	<ele>1718.80</ele>
	<time>2024-03-09T10:20:14.000Z</time>
</trkpt>
<trkpt lat="46.2542250" lon="10.5546920">
	<ele>1719.00</ele>
	<time>2024-03-09T10:20:15.000Z</time>
</trkpt>
<trkpt lat="46.2542290" lon="10.5547030">
	<ele>1719.00</ele>
	<time>2024-03-09T10:20:16.000Z</time>
</trkpt>
<trkpt lat="46.2542280" lon="10.5547140">
	<ele>1719.00</ele>
	<time>2024-03-09T10:20:17.000Z</time>
</trkpt>
<trkpt lat="46.2542260" lon="10.5547270">
	<ele>1719.00</ele>
	<time>2024-03-09T10:20:18.000Z</time>
</trkpt>
<trkpt lat="46.2542210" lon="10.5547380">
	<ele>1719.00</ele>
	<time>2024-03-09T10:20:19.000Z</time>
</trkpt>
<trkpt lat="46.2542260" lon="10.5547510">
	<ele>1719.20</ele>
	<time>2024-03-09T10:20:20.000Z</time>
</trkpt>
<trkpt lat="46.2542290" lon="10.5547600">
	<ele>1719.20</ele>
	<time>2024-03-09T10:20:21.000Z</time>
</trkpt>
<trkpt lat="46.2542340" lon="10.5547700">
	<ele>1719.40</ele>
	<time>2024-03-09T10:20:22.000Z</time>
</trkpt>
<trkpt lat="46.2542410" lon="10.5547850">
	<ele>1719.40</ele>
	<time>2024-03-09T10:20:23.000Z</time>
</trkpt>
<trkpt lat="46.2542390" lon="10.5547940">
	<ele>1719.40</ele>
	<time>2024-03-09T10:20:24.000Z</time>
</trkpt>
<trkpt lat="46.2542390" lon="10.5547990">
	<ele>1719.60</ele>
	<time>2024-03-09T10:20:25.000Z</time>
</trkpt>
<trkpt lat="46.2542390" lon="10.5548080">
	<ele>1719.60</ele>
	<time>2024-03-09T10:20:26.000Z</time>
</trkpt>
<trkpt lat="46.2542430" lon="10.5548260">
	<ele>1719.80</ele>
	<time>2024-03-09T10:20:27.000Z</time>
</trkpt>
<trkpt lat="46.2542480" lon="10.5548420">
	<ele>1719.80</ele>
	<time>2024-03-09T10:20:28.000Z</time>
</trkpt>
<trkpt lat="46.2542530" lon="10.5548460">
	<ele>1720.00</ele>
	<time>2024-03-09T10:20:29.000Z</time>
</trkpt>
<trkpt lat="46.2542590" lon="10.5548560">
	<ele>1720.00</ele>
	<time>2024-03-09T10:20:30.000Z</time>
</trkpt>
<trkpt lat="46.2542630" lon="10.5548700">
	<ele>1720.00</ele>
	<time>2024-03-09T10:20:31.000Z</time>
</trkpt>
<trkpt lat="46.2542690" lon="10.5548850">
	<ele>1720.20</ele>
	<time>2024-03-09T10:20:32.000Z</time>
</trkpt>
<trkpt lat="46.2542720" lon="10.5548970">
	<ele>1720.20</ele>
	<time>2024-03-09T10:20:33.000Z</time>
</trkpt>
<trkpt lat="46.2542760" lon="10.5549150">
	<ele>1720.20</ele>
	<time>2024-03-09T10:20:34.000Z</time>
</trkpt>
<trkpt lat="46.2542780" lon="10.5549270">
	<ele>1720.20</ele>
	<time>2024-03-09T10:20:35.000Z</time>
</trkpt>
<trkpt lat="46.2542780" lon="10.5549370">
	<ele>1720.20</ele>
	<time>2024-03-09T10:20:36.000Z</time>
</trkpt>
<trkpt lat="46.2542770" lon="10.5549480">
	<ele>1720.20</ele>
	<time>2024-03-09T10:20:37.000Z</time>
</trkpt>
<trkpt lat="46.2542770" lon="10.5549570">
	<ele>1720.20</ele>
	<time>2024-03-09T10:20:38.000Z</time>
</trkpt>
<trkpt lat="46.2542810" lon="10.5549650">
	<ele>1720.40</ele>
	<time>2024-03-09T10:20:39.000Z</time>
</trkpt>
<trkpt lat="46.2542830" lon="10.5549770">
	<ele>1720.40</ele>
	<time>2024-03-09T10:20:40.000Z</time>
</trkpt>
<trkpt lat="46.2542860" lon="10.5549910">
	<ele>1720.40</ele>
	<time>2024-03-09T10:20:41.000Z</time>
</trkpt>
<trkpt lat="46.2542900" lon="10.5550010">
	<ele>1720.40</ele>
	<time>2024-03-09T10:20:42.000Z</time>
</trkpt>
<trkpt lat="46.2542930" lon="10.5550150">
	<ele>1720.60</ele>
	<time>2024-03-09T10:20:43.000Z</time>
</trkpt>
<trkpt lat="46.2542960" lon="10.5550280">
	<ele>1720.60</ele>
	<time>2024-03-09T10:20:44.000Z</time>
</trkpt>
<trkpt lat="46.2543010" lon="10.5550390">
	<ele>1720.60</ele>
	<time>2024-03-09T10:20:45.000Z</time>
</trkpt>
<trkpt lat="46.2543040" lon="10.5550490">
	<ele>1720.60</ele>
	<time>2024-03-09T10:20:46.000Z</time>
</trkpt>
<trkpt lat="46.2543080" lon="10.5550570">
	<ele>1720.60</ele>
	<time>2024-03-09T10:20:47.000Z</time>
</trkpt>
<trkpt lat="46.2543120" lon="10.5550650">
	<ele>1720.80</ele>
	<time>2024-03-09T10:20:48.000Z</time>
</trkpt>
<trkpt lat="46.2543170" lon="10.5550730">
	<ele>1720.80</ele>
	<time>2024-03-09T10:20:49.000Z</time>
</trkpt>
<trkpt lat="46.2543250" lon="10.5550820">
	<ele>1720.80</ele>
	<time>2024-03-09T10:20:50.000Z</time>
</trkpt>
<trkpt lat="46.2543320" lon="10.5550930">
	<ele>1721.00</ele>
	<time>2024-03-09T10:20:51.000Z</time>
</trkpt>
<trkpt lat="46.2543360" lon="10.5551050">
	<ele>1721.00</ele>
	<time>2024-03-09T10:20:52.000Z</time>
</trkpt>
<trkpt lat="46.2543400" lon="10.5551160">
	<ele>1721.20</ele>
	<time>2024-03-09T10:20:53.000Z</time>
</trkpt>
<trkpt lat="46.2543420" lon="10.5551340">
	<ele>1721.20</ele>
	<time>2024-03-09T10:20:54.000Z</time>
</trkpt>
<trkpt lat="46.2543470" lon="10.5551450">
	<ele>1721.20</ele>
	<time>2024-03-09T10:20:55.000Z</time>
</trkpt>
<trkpt lat="46.2543520" lon="10.5551550">
	<ele>1721.20</ele>
	<time>2024-03-09T10:20:56.000Z</time>
</trkpt>
<trkpt lat="46.2543570" lon="10.5551590">
	<ele>1721.20</ele>
	<time>2024-03-09T10:20:57.000Z</time>
</trkpt>
<trkpt lat="46.2543640" lon="10.5551720">
	<ele>1721.40</ele>
	<time>2024-03-09T10:20:58.000Z</time>
</trkpt>
<trkpt lat="46.2543670" lon="10.5551830">
	<ele>1721.40</ele>
	<time>2024-03-09T10:20:59.000Z</time>
</trkpt>
<trkpt lat="46.2543710" lon="10.5551920">
	<ele>1721.60</ele>
	<time>2024-03-09T10:21:00.000Z</time>
</trkpt>
<trkpt lat="46.2543770" lon="10.5551990">
	<ele>1721.60</ele>
	<time>2024-03-09T10:21:01.000Z</time>
</trkpt>
<trkpt lat="46.2543820" lon="10.5552050">
	<ele>1721.80</ele>
	<time>2024-03-09T10:21:02.000Z</time>
</trkpt>
<trkpt lat="46.2543880" lon="10.5552130">
	<ele>1721.80</ele>
	<time>2024-03-09T10:21:03.000Z</time>
</trkpt>
<trkpt lat="46.2543920" lon="10.5552200">
	<ele>1722.00</ele>
	<time>2024-03-09T10:21:04.000Z</time>
</trkpt>
<trkpt lat="46.2543960" lon="10.5552260">
	<ele>1722.00</ele>
	<time>2024-03-09T10:21:05.000Z</time>
</trkpt>
<trkpt lat="46.2544010" lon="10.5552360">
	<ele>1722.00</ele>
	<time>2024-03-09T10:21:06.000Z</time>
</trkpt>
<trkpt lat="46.2544050" lon="10.5552460">
	<ele>1722.00</ele>
	<time>2024-03-09T10:21:07.000Z</time>
</trkpt>
<trkpt lat="46.2544050" lon="10.5552520">
	<ele>1722.00</ele>
	<time>2024-03-09T10:21:08.000Z</time>
</trkpt>
<trkpt lat="46.2544090" lon="10.5552650">
	<ele>1722.00</ele>
	<time>2024-03-09T10:21:09.000Z</time>
</trkpt>
<trkpt lat="46.2544130" lon="10.5552790">
	<ele>1722.00</ele>
	<time>2024-03-09T10:21:10.000Z</time>
</trkpt>
<trkpt lat="46.2544160" lon="10.5552890">
	<ele>1722.00</ele>
	<time>2024-03-09T10:21:11.000Z</time>
</trkpt>
<trkpt lat="46.2544220" lon="10.5552990">
	<ele>1722.20</ele>
	<time>2024-03-09T10:21:12.000Z</time>
</trkpt>
<trkpt lat="46.2544240" lon="10.5553090">
	<ele>1722.00</ele>
	<time>2024-03-09T10:21:13.000Z</time>
</trkpt>
<trkpt lat="46.2544250" lon="10.5553170">
	<ele>1722.00</ele>
	<time>2024-03-09T10:21:14.000Z</time>
</trkpt>
<trkpt lat="46.2544290" lon="10.5553240">
	<ele>1722.20</ele>
	<time>2024-03-09T10:21:15.000Z</time>
</trkpt>
<trkpt lat="46.2544340" lon="10.5553340">
	<ele>1722.20</ele>
	<time>2024-03-09T10:21:16.000Z</time>
</trkpt>
<trkpt lat="46.2544380" lon="10.5553450">
	<ele>1722.20</ele>
	<time>2024-03-09T10:21:17.000Z</time>
</trkpt>
<trkpt lat="46.2544420" lon="10.5553540">
	<ele>1722.20</ele>
	<time>2024-03-09T10:21:18.000Z</time>
</trkpt>
<trkpt lat="46.2544490" lon="10.5553650">
	<ele>1722.40</ele>
	<time>2024-03-09T10:21:19.000Z</time>
</trkpt>
<trkpt lat="46.2544500" lon="10.5553770">
	<ele>1722.40</ele>
	<time>2024-03-09T10:21:20.000Z</time>
</trkpt>
<trkpt lat="46.2544490" lon="10.5553910">
	<ele>1722.40</ele>
	<time>2024-03-09T10:21:21.000Z</time>
</trkpt>
<trkpt lat="46.2544550" lon="10.5554040">
	<ele>1722.40</ele>
	<time>2024-03-09T10:21:22.000Z</time>
</trkpt>
<trkpt lat="46.2544600" lon="10.5554160">
	<ele>1722.40</ele>
	<time>2024-03-09T10:21:23.000Z</time>
</trkpt>
<trkpt lat="46.2544620" lon="10.5554240">
	<ele>1722.60</ele>
	<time>2024-03-09T10:21:24.000Z</time>
</trkpt>
<trkpt lat="46.2544680" lon="10.5554340">
	<ele>1722.60</ele>
	<time>2024-03-09T10:21:25.000Z</time>
</trkpt>
<trkpt lat="46.2544690" lon="10.5554480">
	<ele>1722.60</ele>
	<time>2024-03-09T10:21:26.000Z</time>
</trkpt>
<trkpt lat="46.2544720" lon="10.5554600">
	<ele>1722.80</ele>
	<time>2024-03-09T10:21:27.000Z</time>
</trkpt>
<trkpt lat="46.2544760" lon="10.5554680">
	<ele>1722.80</ele>
	<time>2024-03-09T10:21:28.000Z</time>
</trkpt>
<trkpt lat="46.2544790" lon="10.5554790">
	<ele>1722.80</ele>
	<time>2024-03-09T10:21:29.000Z</time>
</trkpt>
<trkpt lat="46.2544820" lon="10.5554910">
	<ele>1723.00</ele>
	<time>2024-03-09T10:21:30.000Z</time>
</trkpt>
<trkpt lat="46.2544830" lon="10.5555000">
	<ele>1723.00</ele>
	<time>2024-03-09T10:21:31.000Z</time>
</trkpt>
<trkpt lat="46.2544910" lon="10.5555070">
	<ele>1723.00</ele>
	<time>2024-03-09T10:21:32.000Z</time>
</trkpt>
<trkpt lat="46.2544950" lon="10.5555170">
	<ele>1723.00</ele>
	<time>2024-03-09T10:21:33.000Z</time>
</trkpt>
<trkpt lat="46.2544990" lon="10.5555270">
	<ele>1723.20</ele>
	<time>2024-03-09T10:21:34.000Z</time>
</trkpt>
<trkpt lat="46.2545040" lon="10.5555360">
	<ele>1723.40</ele>
	<time>2024-03-09T10:21:35.000Z</time>
</trkpt>
<trkpt lat="46.2545100" lon="10.5555440">
	<ele>1723.40</ele>
	<time>2024-03-09T10:21:36.000Z</time>
</trkpt>
<trkpt lat="46.2545150" lon="10.5555540">
	<ele>1723.40</ele>
	<time>2024-03-09T10:21:37.000Z</time>
</trkpt>
<trkpt lat="46.2545220" lon="10.5555670">
	<ele>1723.40</ele>
	<time>2024-03-09T10:21:38.000Z</time>
</trkpt>
<trkpt lat="46.2545230" lon="10.5555800">
	<ele>1723.40</ele>
	<time>2024-03-09T10:21:39.000Z</time>
</trkpt>
<trkpt lat="46.2545270" lon="10.5555880">
	<ele>1723.60</ele>
	<time>2024-03-09T10:21:40.000Z</time>
</trkpt>
<trkpt lat="46.2545280" lon="10.5556020">
	<ele>1723.60</ele>
	<time>2024-03-09T10:21:41.000Z</time>
</trkpt>
<trkpt lat="46.2545280" lon="10.5556120">
	<ele>1723.80</ele>
	<time>2024-03-09T10:21:42.000Z</time>
</trkpt>
<trkpt lat="46.2545270" lon="10.5556240">
	<ele>1723.80</ele>
	<time>2024-03-09T10:21:43.000Z</time>
</trkpt>
<trkpt lat="46.2545270" lon="10.5556350">
	<ele>1723.80</ele>
	<time>2024-03-09T10:21:44.000Z</time>
</trkpt>
<trkpt lat="46.2545270" lon="10.5556510">
	<ele>1723.80</ele>
	<time>2024-03-09T10:21:45.000Z</time>
</trkpt>
<trkpt lat="46.2545290" lon="10.5556620">
	<ele>1724.00</ele>
	<time>2024-03-09T10:21:46.000Z</time>
</trkpt>
<trkpt lat="46.2545330" lon="10.5556730">
	<ele>1724.00</ele>
	<time>2024-03-09T10:21:47.000Z</time>
</trkpt>
<trkpt lat="46.2545340" lon="10.5556850">
	<ele>1724.00</ele>
	<time>2024-03-09T10:21:48.000Z</time>
</trkpt>
<trkpt lat="46.2545380" lon="10.5556930">
	<ele>1724.00</ele>
	<time>2024-03-09T10:21:49.000Z</time>
</trkpt>
<trkpt lat="46.2545410" lon="10.5557050">
	<ele>1724.00</ele>
	<time>2024-03-09T10:21:50.000Z</time>
</trkpt>
<trkpt lat="46.2545460" lon="10.5557140">
	<ele>1724.20</ele>
	<time>2024-03-09T10:21:51.000Z</time>
</trkpt>
<trkpt lat="46.2545480" lon="10.5557240">
	<ele>1724.40</ele>
	<time>2024-03-09T10:21:52.000Z</time>
</trkpt>
<trkpt lat="46.2545490" lon="10.5557330">
	<ele>1724.40</ele>
	<time>2024-03-09T10:21:53.000Z</time>
</trkpt>
<trkpt lat="46.2545520" lon="10.5557440">
	<ele>1724.60</ele>
	<time>2024-03-09T10:21:54.000Z</time>
</trkpt>
<trkpt lat="46.2545560" lon="10.5557550">
	<ele>1724.60</ele>
	<time>2024-03-09T10:21:55.000Z</time>
</trkpt>
<trkpt lat="46.2545600" lon="10.5557640">
	<ele>1724.60</ele>
	<time>2024-03-09T10:21:56.000Z</time>
</trkpt>
<trkpt lat="46.2545630" lon="10.5557770">
	<ele>1724.60</ele>
	<time>2024-03-09T10:21:57.000Z</time>
</trkpt>
<trkpt lat="46.2545660" lon="10.5557900">
	<ele>1724.80</ele>
	<time>2024-03-09T10:21:58.000Z</time>
</trkpt>
<trkpt lat="46.2545670" lon="10.5558010">
	<ele>1725.00</ele>
	<time>2024-03-09T10:21:59.000Z</time>
</trkpt>
<trkpt lat="46.2545640" lon="10.5558140">
	<ele>1725.00</ele>
	<time>2024-03-09T10:22:00.000Z</time>
</trkpt>
<trkpt lat="46.2545690" lon="10.5558260">
	<ele>1725.00</ele>
	<time>2024-03-09T10:22:01.000Z</time>
</trkpt>
<trkpt lat="46.2545740" lon="10.5558330">
	<ele>1725.00</ele>
	<time>2024-03-09T10:22:02.000Z</time>
</trkpt>
<trkpt lat="46.2545750" lon="10.5558480">
	<ele>1725.00</ele>
	<time>2024-03-09T10:22:03.000Z</time>
</trkpt>
<trkpt lat="46.2545770" lon="10.5558550">
	<ele>1725.20</ele>
	<time>2024-03-09T10:22:04.000Z</time>
</trkpt>
<trkpt lat="46.2545830" lon="10.5558620">
	<ele>1725.20</ele>
	<time>2024-03-09T10:22:05.000Z</time>
</trkpt>
<trkpt lat="46.2545890" lon="10.5558730">
	<ele>1725.20</ele>
	<time>2024-03-09T10:22:06.000Z</time>
</trkpt>
<trkpt lat="46.2545940" lon="10.5558870">
	<ele>1725.20</ele>
	<time>2024-03-09T10:22:07.000Z</time>
</trkpt>
<trkpt lat="46.2545990" lon="10.5558990">
	<ele>1725.40</ele>
	<time>2024-03-09T10:22:08.000Z</time>
</trkpt>
<trkpt lat="46.2546040" lon="10.5559140">
	<ele>1725.40</ele>
	<time>2024-03-09T10:22:09.000Z</time>
</trkpt>
<trkpt lat="46.2546100" lon="10.5559220">
	<ele>1725.40</ele>
	<time>2024-03-09T10:22:10.000Z</time>
</trkpt>
<trkpt lat="46.2546160" lon="10.5559300">
	<ele>1725.40</ele>
	<time>2024-03-09T10:22:11.000Z</time>
</trkpt>
<trkpt lat="46.2546190" lon="10.5559390">
	<ele>1725.40</ele>
	<time>2024-03-09T10:22:12.000Z</time>
</trkpt>
<trkpt lat="46.2546230" lon="10.5559530">
	<ele>1725.40</ele>
	<time>2024-03-09T10:22:13.000Z</time>
</trkpt>
<trkpt lat="46.2546280" lon="10.5559650">
	<ele>1725.60</ele>
	<time>2024-03-09T10:22:14.000Z</time>
</trkpt>
<trkpt lat="46.2546330" lon="10.5559780">
	<ele>1725.60</ele>
	<time>2024-03-09T10:22:15.000Z</time>
</trkpt>
<trkpt lat="46.2546370" lon="10.5559870">
	<ele>1725.60</ele>
	<time>2024-03-09T10:22:16.000Z</time>
</trkpt>
<trkpt lat="46.2546450" lon="10.5559960">
	<ele>1725.80</ele>
	<time>2024-03-09T10:22:17.000Z</time>
</trkpt>
<trkpt lat="46.2546500" lon="10.5560000">
	<ele>1725.80</ele>
	<time>2024-03-09T10:22:18.000Z</time>
</trkpt>
<trkpt lat="46.2546530" lon="10.5560090">
	<ele>1726.00</ele>
	<time>2024-03-09T10:22:19.000Z</time>
</trkpt>
<trkpt lat="46.2546580" lon="10.5560210">
	<ele>1726.00</ele>
	<time>2024-03-09T10:22:20.000Z</time>
</trkpt>
<trkpt lat="46.2546600" lon="10.5560330">
	<ele>1726.00</ele>
	<time>2024-03-09T10:22:21.000Z</time>
</trkpt>
<trkpt lat="46.2546630" lon="10.5560410">
	<ele>1726.20</ele>
	<time>2024-03-09T10:22:22.000Z</time>
</trkpt>
<trkpt lat="46.2546670" lon="10.5560520">
	<ele>1726.20</ele>
	<time>2024-03-09T10:22:23.000Z</time>
</trkpt>
<trkpt lat="46.2546720" lon="10.5560620">
	<ele>1726.20</ele>
	<time>2024-03-09T10:22:24.000Z</time>
</trkpt>
<trkpt lat="46.2546770" lon="10.5560710">
	<ele>1726.40</ele>
	<time>2024-03-09T10:22:25.000Z</time>
</trkpt>
<trkpt lat="46.2546820" lon="10.5560840">
	<ele>1726.40</ele>
	<time>2024-03-09T10:22:26.000Z</time>
</trkpt>
<trkpt lat="46.2546890" lon="10.5560960">
	<ele>1726.40</ele>
	<time>2024-03-09T10:22:27.000Z</time>
</trkpt>
<trkpt lat="46.2546930" lon="10.5561030">
	<ele>1726.40</ele>
	<time>2024-03-09T10:22:28.000Z</time>
</trkpt>
<trkpt lat="46.2546970" lon="10.5561160">
	<ele>1726.40</ele>
	<time>2024-03-09T10:22:29.000Z</time>
</trkpt>
<trkpt lat="46.2546990" lon="10.5561250">
	<ele>1726.40</ele>
	<time>2024-03-09T10:22:30.000Z</time>
</trkpt>
<trkpt lat="46.2547010" lon="10.5561380">
	<ele>1726.40</ele>
	<time>2024-03-09T10:22:31.000Z</time>
</trkpt>
<trkpt lat="46.2547050" lon="10.5561570">
	<ele>1726.40</ele>
	<time>2024-03-09T10:22:32.000Z</time>
</trkpt>
<trkpt lat="46.2547070" lon="10.5561720">
	<ele>1726.40</ele>
	<time>2024-03-09T10:22:33.000Z</time>
</trkpt>
<trkpt lat="46.2547120" lon="10.5561840">
	<ele>1726.60</ele>
	<time>2024-03-09T10:22:34.000Z</time>
</trkpt>
<trkpt lat="46.2547160" lon="10.5561980">
	<ele>1726.60</ele>
	<time>2024-03-09T10:22:35.000Z</time>
</trkpt>
<trkpt lat="46.2547200" lon="10.5562120">
	<ele>1726.60</ele>
	<time>2024-03-09T10:22:36.000Z</time>
</trkpt>
<trkpt lat="46.2547240" lon="10.5562260">
	<ele>1726.60</ele>
	<time>2024-03-09T10:22:37.000Z</time>
</trkpt>
<trkpt lat="46.2547300" lon="10.5562420">
	<ele>1726.80</ele>
	<time>2024-03-09T10:22:38.000Z</time>
</trkpt>
<trkpt lat="46.2547330" lon="10.5562570">
	<ele>1726.80</ele>
	<time>2024-03-09T10:22:39.000Z</time>
</trkpt>
<trkpt lat="46.2547340" lon="10.5562720">
	<ele>1726.80</ele>
	<time>2024-03-09T10:22:40.000Z</time>
</trkpt>
<trkpt lat="46.2547340" lon="10.5562810">
	<ele>1727.00</ele>
	<time>2024-03-09T10:22:41.000Z</time>
</trkpt>
<trkpt lat="46.2547360" lon="10.5562860">
	<ele>1727.00</ele>
	<time>2024-03-09T10:22:42.000Z</time>
</trkpt>
<trkpt lat="46.2547370" lon="10.5562890">
	<ele>1727.00</ele>
	<time>2024-03-09T10:22:43.000Z</time>
</trkpt>
<trkpt lat="46.2547370" lon="10.5562910">
	<ele>1727.00</ele>
	<time>2024-03-09T10:22:44.000Z</time>
</trkpt>
<trkpt lat="46.2547370" lon="10.5562930">
	<ele>1727.00</ele>
	<time>2024-03-09T10:22:45.000Z</time>
</trkpt>
<trkpt lat="46.2547410" lon="10.5562920">
	<ele>1726.80</ele>
	<time>2024-03-09T10:22:46.000Z</time>
</trkpt>
<trkpt lat="46.2547420" lon="10.5562910">
	<ele>1726.80</ele>
	<time>2024-03-09T10:22:47.000Z</time>
</trkpt>
<trkpt lat="46.2547430" lon="10.5562910">
	<ele>1726.80</ele>
	<time>2024-03-09T10:22:48.000Z</time>
</trkpt>
<trkpt lat="46.2547440" lon="10.5562900">
	<ele>1726.80</ele>
	<time>2024-03-09T10:22:49.000Z</time>
</trkpt>
<trkpt lat="46.2547450" lon="10.5562890">
	<ele>1726.80</ele>
	<time>2024-03-09T10:22:50.000Z</time>
</trkpt>
<trkpt lat="46.2547460" lon="10.5562880">
	<ele>1726.80</ele>
	<time>2024-03-09T10:22:51.000Z</time>
</trkpt>
<trkpt lat="46.2547470" lon="10.5562890">
	<ele>1726.80</ele>
	<time>2024-03-09T10:22:52.000Z</time>
</trkpt>
<trkpt lat="46.2547470" lon="10.5562900">
	<ele>1726.80</ele>
	<time>2024-03-09T10:22:53.000Z</time>
</trkpt>
<trkpt lat="46.2547470" lon="10.5562900">
	<ele>1726.80</ele>
	<time>2024-03-09T10:22:54.000Z</time>
</trkpt>
<trkpt lat="46.2547470" lon="10.5562900">
	<ele>1726.80</ele>
	<time>2024-03-09T10:22:55.000Z</time>
</trkpt>
<trkpt lat="46.2547470" lon="10.5562900">
	<ele>1726.80</ele>
	<time>2024-03-09T10:22:56.000Z</time>
</trkpt>
<trkpt lat="46.2547470" lon="10.5562900">
	<ele>1726.80</ele>
	<time>2024-03-09T10:22:57.000Z</time>
</trkpt>
<trkpt lat="46.2547470" lon="10.5562900">
	<ele>1726.80</ele>
	<time>2024-03-09T10:22:58.000Z</time>
</trkpt>
<trkpt lat="46.2547470" lon="10.5562900">
	<ele>1726.80</ele>
	<time>2024-03-09T10:22:59.000Z</time>
</trkpt>
<trkpt lat="46.2547470" lon="10.5562900">
	<ele>1726.60</ele>
	<time>2024-03-09T10:23:00.000Z</time>
</trkpt>
<trkpt lat="46.2547470" lon="10.5562900">
	<ele>1726.60</ele>
	<time>2024-03-09T10:23:01.000Z</time>
</trkpt>
<trkpt lat="46.2547460" lon="10.5562900">
	<ele>1726.60</ele>
	<time>2024-03-09T10:23:02.000Z</time>
</trkpt>
<trkpt lat="46.2547460" lon="10.5562900">
	<ele>1726.60</ele>
	<time>2024-03-09T10:23:03.000Z</time>
</trkpt>
<trkpt lat="46.2547450" lon="10.5562900">
	<ele>1726.60</ele>
	<time>2024-03-09T10:23:04.000Z</time>
</trkpt>
<trkpt lat="46.2547450" lon="10.5562900">
	<ele>1726.60</ele>
	<time>2024-03-09T10:23:05.000Z</time>
</trkpt>
<trkpt lat="46.2547450" lon="10.5562910">
	<ele>1726.60</ele>
	<time>2024-03-09T10:23:06.000Z</time>
</trkpt>
<trkpt lat="46.2547440" lon="10.5562910">
	<ele>1726.60</ele>
	<time>2024-03-09T10:23:07.000Z</time>
</trkpt>
<trkpt lat="46.2547440" lon="10.5562910">
	<ele>1726.60</ele>
	<time>2024-03-09T10:23:08.000Z</time>
</trkpt>
<trkpt lat="46.2547440" lon="10.5562910">
	<ele>1726.60</ele>
	<time>2024-03-09T10:23:09.000Z</time>
</trkpt>
<trkpt lat="46.2547440" lon="10.5562910">
	<ele>1726.60</ele>
	<time>2024-03-09T10:23:10.000Z</time>
</trkpt>
<trkpt lat="46.2547430" lon="10.5562910">
	<ele>1726.60</ele>
	<time>2024-03-09T10:23:11.000Z</time>
</trkpt>
<trkpt lat="46.2547430" lon="10.5562910">
	<ele>1726.60</ele>
	<time>2024-03-09T10:23:12.000Z</time>
</trkpt>
<trkpt lat="46.2547420" lon="10.5562910">
	<ele>1726.60</ele>
	<time>2024-03-09T10:23:13.000Z</time>
</trkpt>
<trkpt lat="46.2547410" lon="10.5562910">
	<ele>1726.60</ele>
	<time>2024-03-09T10:23:14.000Z</time>
</trkpt>
<trkpt lat="46.2547410" lon="10.5562910">
	<ele>1726.60</ele>
	<time>2024-03-09T10:23:15.000Z</time>
</trkpt>
<trkpt lat="46.2547400" lon="10.5562910">
	<ele>1726.60</ele>
	<time>2024-03-09T10:23:16.000Z</time>
</trkpt>
<trkpt lat="46.2547400" lon="10.5562910">
	<ele>1726.60</ele>
	<time>2024-03-09T10:23:17.000Z</time>
</trkpt>
<trkpt lat="46.2547390" lon="10.5562910">
	<ele>1726.60</ele>
	<time>2024-03-09T10:23:18.000Z</time>
</trkpt>
<trkpt lat="46.2547370" lon="10.5562910">
	<ele>1726.60</ele>
	<time>2024-03-09T10:23:19.000Z</time>
</trkpt>
<trkpt lat="46.2547370" lon="10.5562910">
	<ele>1726.60</ele>
	<time>2024-03-09T10:23:20.000Z</time>
</trkpt>
<trkpt lat="46.2547370" lon="10.5562910">
	<ele>1726.60</ele>
	<time>2024-03-09T10:23:21.000Z</time>
</trkpt>
<trkpt lat="46.2547370" lon="10.5562910">
	<ele>1726.60</ele>
	<time>2024-03-09T10:23:22.000Z</time>
</trkpt>
<trkpt lat="46.2547370" lon="10.5562910">
	<ele>1726.60</ele>
	<time>2024-03-09T10:23:23.000Z</time>
</trkpt>
<trkpt lat="46.2547370" lon="10.5562910">
	<ele>1726.60</ele>
	<time>2024-03-09T10:23:24.000Z</time>
</trkpt>
<trkpt lat="46.2547370" lon="10.5562910">
	<ele>1726.60</ele>
	<time>2024-03-09T10:23:25.000Z</time>
</trkpt>
<trkpt lat="46.2547370" lon="10.5562910">
	<ele>1726.60</ele>
	<time>2024-03-09T10:23:26.000Z</time>
</trkpt>
<trkpt lat="46.2547370" lon="10.5562910">
	<ele>1726.60</ele>
	<time>2024-03-09T10:23:27.000Z</time>
</trkpt>
<trkpt lat="46.2547370" lon="10.5562900">
	<ele>1726.60</ele>
	<time>2024-03-09T10:23:28.000Z</time>
</trkpt>
<trkpt lat="46.2547370" lon="10.5562900">
	<ele>1726.60</ele>
	<time>2024-03-09T10:23:29.000Z</time>
</trkpt>
<trkpt lat="46.2547370" lon="10.5562890">
	<ele>1726.60</ele>
	<time>2024-03-09T10:23:30.000Z</time>
</trkpt>
<trkpt lat="46.2547370" lon="10.5562890">
	<ele>1726.80</ele>
	<time>2024-03-09T10:23:31.000Z</time>
</trkpt>
<trkpt lat="46.2547370" lon="10.5562890">
	<ele>1726.80</ele>
	<time>2024-03-09T10:23:32.000Z</time>
</trkpt>
<trkpt lat="46.2547370" lon="10.5562890">
	<ele>1726.80</ele>
	<time>2024-03-09T10:23:33.000Z</time>
</trkpt>
<trkpt lat="46.2547370" lon="10.5562890">
	<ele>1726.60</ele>
	<time>2024-03-09T10:23:34.000Z</time>
</trkpt>
<trkpt lat="46.2547370" lon="10.5562890">
	<ele>1726.80</ele>
	<time>2024-03-09T10:23:35.000Z</time>
</trkpt>
<trkpt lat="46.2547370" lon="10.5562890">
	<ele>1726.80</ele>
	<time>2024-03-09T10:23:36.000Z</time>
</trkpt>
<trkpt lat="46.2547380" lon="10.5562890">
	<ele>1726.80</ele>
	<time>2024-03-09T10:23:37.000Z</time>
</trkpt>
<trkpt lat="46.2547400" lon="10.5562890">
	<ele>1726.80</ele>
	<time>2024-03-09T10:23:38.000Z</time>
</trkpt>
<trkpt lat="46.2547420" lon="10.5562940">
	<ele>1726.80</ele>
	<time>2024-03-09T10:23:39.000Z</time>
</trkpt>
<trkpt lat="46.2547490" lon="10.5563080">
	<ele>1726.80</ele>
	<time>2024-03-09T10:23:40.000Z</time>
</trkpt>
<trkpt lat="46.2547550" lon="10.5563250">
	<ele>1727.00</ele>
	<time>2024-03-09T10:23:41.000Z</time>
</trkpt>
<trkpt lat="46.2547600" lon="10.5563420">
	<ele>1727.00</ele>
	<time>2024-03-09T10:23:42.000Z</time>
</trkpt>
<trkpt lat="46.2547630" lon="10.5563540">
	<ele>1727.00</ele>
	<time>2024-03-09T10:23:43.000Z</time>
</trkpt>
<trkpt lat="46.2547670" lon="10.5563750">
	<ele>1727.00</ele>
	<time>2024-03-09T10:23:44.000Z</time>
</trkpt>
<trkpt lat="46.2547720" lon="10.5563990">
	<ele>1727.00</ele>
	<time>2024-03-09T10:23:45.000Z</time>
</trkpt>
<trkpt lat="46.2547780" lon="10.5564150">
	<ele>1727.00</ele>
	<time>2024-03-09T10:23:46.000Z</time>
</trkpt>
<trkpt lat="46.2547810" lon="10.5564290">
	<ele>1727.20</ele>
	<time>2024-03-09T10:23:47.000Z</time>
</trkpt>
<trkpt lat="46.2547860" lon="10.5564450">
	<ele>1727.40</ele>
	<time>2024-03-09T10:23:48.000Z</time>
</trkpt>
<trkpt lat="46.2547900" lon="10.5564520">
	<ele>1727.40</ele>
	<time>2024-03-09T10:23:49.000Z</time>
</trkpt>
<trkpt lat="46.2547960" lon="10.5564620">
	<ele>1727.40</ele>
	<time>2024-03-09T10:23:50.000Z</time>
</trkpt>
<trkpt lat="46.2547990" lon="10.5564700">
	<ele>1727.60</ele>
	<time>2024-03-09T10:23:51.000Z</time>
</trkpt>
<trkpt lat="46.2548050" lon="10.5564800">
	<ele>1727.80</ele>
	<time>2024-03-09T10:23:52.000Z</time>
</trkpt>
<trkpt lat="46.2548120" lon="10.5564900">
	<ele>1727.80</ele>
	<time>2024-03-09T10:23:53.000Z</time>
</trkpt>
<trkpt lat="46.2548180" lon="10.5565030">
	<ele>1727.80</ele>
	<time>2024-03-09T10:23:54.000Z</time>
</trkpt>
<trkpt lat="46.2548250" lon="10.5565150">
	<ele>1727.80</ele>
	<time>2024-03-09T10:23:55.000Z</time>
</trkpt>
<trkpt lat="46.2548310" lon="10.5565240">
	<ele>1728.00</ele>
	<time>2024-03-09T10:23:56.000Z</time>
</trkpt>
<trkpt lat="46.2548330" lon="10.5565330">
	<ele>1728.00</ele>
	<time>2024-03-09T10:23:57.000Z</time>
</trkpt>
<trkpt lat="46.2548360" lon="10.5565450">
	<ele>1728.00</ele>
	<time>2024-03-09T10:23:58.000Z</time>
</trkpt>
<trkpt lat="46.2548430" lon="10.5565520">
	<ele>1728.00</ele>
	<time>2024-03-09T10:23:59.000Z</time>
</trkpt>
<trkpt lat="46.2548450" lon="10.5565600">
	<ele>1728.20</ele>
	<time>2024-03-09T10:24:00.000Z</time>
</trkpt>
<trkpt lat="46.2548490" lon="10.5565720">
	<ele>1728.20</ele>
	<time>2024-03-09T10:24:01.000Z</time>
</trkpt>
<trkpt lat="46.2548510" lon="10.5565840">
	<ele>1728.40</ele>
	<time>2024-03-09T10:24:02.000Z</time>
</trkpt>
<trkpt lat="46.2548540" lon="10.5565950">
	<ele>1728.40</ele>
	<time>2024-03-09T10:24:03.000Z</time>
</trkpt>
<trkpt lat="46.2548580" lon="10.5566060">
	<ele>1728.40</ele>
	<time>2024-03-09T10:24:04.000Z</time>
</trkpt>
<trkpt lat="46.2548610" lon="10.5566200">
	<ele>1728.40</ele>
	<time>2024-03-09T10:24:05.000Z</time>
</trkpt>
<trkpt lat="46.2548600" lon="10.5566360">
	<ele>1728.60</ele>
	<time>2024-03-09T10:24:06.000Z</time>
</trkpt>
<trkpt lat="46.2548620" lon="10.5566490">
	<ele>1728.60</ele>
	<time>2024-03-09T10:24:07.000Z</time>
</trkpt>
<trkpt lat="46.2548620" lon="10.5566590">
	<ele>1728.60</ele>
	<time>2024-03-09T10:24:08.000Z</time>
</trkpt>
<trkpt lat="46.2548660" lon="10.5566680">
	<ele>1728.60</ele>
	<time>2024-03-09T10:24:09.000Z</time>
</trkpt>
<trkpt lat="46.2548700" lon="10.5566790">
	<ele>1728.60</ele>
	<time>2024-03-09T10:24:10.000Z</time>
</trkpt>
<trkpt lat="46.2548760" lon="10.5566880">
	<ele>1728.80</ele>
	<time>2024-03-09T10:24:11.000Z</time>
</trkpt>
<trkpt lat="46.2548820" lon="10.5566990">
	<ele>1728.80</ele>
	<time>2024-03-09T10:24:12.000Z</time>
</trkpt>
<trkpt lat="46.2548870" lon="10.5567080">
	<ele>1729.00</ele>
	<time>2024-03-09T10:24:13.000Z</time>
</trkpt>
<trkpt lat="46.2548920" lon="10.5567210">
	<ele>1729.00</ele>
	<time>2024-03-09T10:24:14.000Z</time>
</trkpt>
<trkpt lat="46.2548950" lon="10.5567290">
	<ele>1729.00</ele>
	<time>2024-03-09T10:24:15.000Z</time>
</trkpt>
<trkpt lat="46.2549020" lon="10.5567360">
	<ele>1729.00</ele>
	<time>2024-03-09T10:24:16.000Z</time>
</trkpt>
<trkpt lat="46.2549030" lon="10.5567480">
	<ele>1729.00</ele>
	<time>2024-03-09T10:24:17.000Z</time>
</trkpt>
<trkpt lat="46.2549120" lon="10.5567560">
	<ele>1729.00</ele>
	<time>2024-03-09T10:24:18.000Z</time>
</trkpt>
<trkpt lat="46.2549170" lon="10.5567690">
	<ele>1729.00</ele>
	<time>2024-03-09T10:24:19.000Z</time>
</trkpt>
<trkpt lat="46.2549200" lon="10.5567800">
	<ele>1729.20</ele>
	<time>2024-03-09T10:24:20.000Z</time>
</trkpt>
<trkpt lat="46.2549220" lon="10.5567890">
	<ele>1729.20</ele>
	<time>2024-03-09T10:24:21.000Z</time>
</trkpt>
<trkpt lat="46.2549260" lon="10.5567970">
	<ele>1729.20</ele>
	<time>2024-03-09T10:24:22.000Z</time>
</trkpt>
<trkpt lat="46.2549320" lon="10.5568080">
	<ele>1729.40</ele>
	<time>2024-03-09T10:24:23.000Z</time>
</trkpt>
<trkpt lat="46.2549320" lon="10.5568180">
	<ele>1729.40</ele>
	<time>2024-03-09T10:24:24.000Z</time>
</trkpt>
<trkpt lat="46.2549340" lon="10.5568260">
	<ele>1729.40</ele>
	<time>2024-03-09T10:24:25.000Z</time>
</trkpt>
<trkpt lat="46.2549360" lon="10.5568370">
	<ele>1729.40</ele>
	<time>2024-03-09T10:24:26.000Z</time>
</trkpt>
<trkpt lat="46.2549400" lon="10.5568470">
	<ele>1729.40</ele>
	<time>2024-03-09T10:24:27.000Z</time>
</trkpt>
<trkpt lat="46.2549450" lon="10.5568540">
	<ele>1729.60</ele>
	<time>2024-03-09T10:24:28.000Z</time>
</trkpt>
<trkpt lat="46.2549500" lon="10.5568620">
	<ele>1729.60</ele>
	<time>2024-03-09T10:24:29.000Z</time>
</trkpt>
<trkpt lat="46.2549540" lon="10.5568730">
	<ele>1729.80</ele>
	<time>2024-03-09T10:24:30.000Z</time>
</trkpt>
<trkpt lat="46.2549540" lon="10.5568850">
	<ele>1729.80</ele>
	<time>2024-03-09T10:24:31.000Z</time>
</trkpt>
<trkpt lat="46.2549530" lon="10.5568950">
	<ele>1730.00</ele>
	<time>2024-03-09T10:24:32.000Z</time>
</trkpt>
<trkpt lat="46.2549550" lon="10.5569000">
	<ele>1730.00</ele>
	<time>2024-03-09T10:24:33.000Z</time>
</trkpt>
<trkpt lat="46.2549580" lon="10.5569090">
	<ele>1730.20</ele>
	<time>2024-03-09T10:24:34.000Z</time>
</trkpt>
<trkpt lat="46.2549600" lon="10.5569180">
	<ele>1730.20</ele>
	<time>2024-03-09T10:24:35.000Z</time>
</trkpt>
<trkpt lat="46.2549660" lon="10.5569310">
	<ele>1730.40</ele>
	<time>2024-03-09T10:24:36.000Z</time>
</trkpt>
<trkpt lat="46.2549690" lon="10.5569430">
	<ele>1730.60</ele>
	<time>2024-03-09T10:24:37.000Z</time>
</trkpt>
<trkpt lat="46.2549730" lon="10.5569520">
	<ele>1730.60</ele>
	<time>2024-03-09T10:24:38.000Z</time>
</trkpt>
<trkpt lat="46.2549770" lon="10.5569620">
	<ele>1730.60</ele>
	<time>2024-03-09T10:24:39.000Z</time>
</trkpt>
<trkpt lat="46.2549830" lon="10.5569750">
	<ele>1730.60</ele>
	<time>2024-03-09T10:24:40.000Z</time>
</trkpt>
<trkpt lat="46.2549850" lon="10.5569870">
	<ele>1730.80</ele>
	<time>2024-03-09T10:24:41.000Z</time>
</trkpt>
<trkpt lat="46.2549870" lon="10.5569960">
	<ele>1731.00</ele>
	<time>2024-03-09T10:24:42.000Z</time>
</trkpt>
<trkpt lat="46.2549890" lon="10.5570080">
	<ele>1731.00</ele>
	<time>2024-03-09T10:24:43.000Z</time>
</trkpt>
<trkpt lat="46.2549920" lon="10.5570240">
	<ele>1731.20</ele>
	<time>2024-03-09T10:24:44.000Z</time>
</trkpt>
<trkpt lat="46.2549930" lon="10.5570400">
	<ele>1731.40</ele>
	<time>2024-03-09T10:24:45.000Z</time>
</trkpt>
<trkpt lat="46.2549960" lon="10.5570560">
	<ele>1731.40</ele>
	<time>2024-03-09T10:24:46.000Z</time>
</trkpt>
<trkpt lat="46.2549990" lon="10.5570710">
	<ele>1731.40</ele>
	<time>2024-03-09T10:24:47.000Z</time>
</trkpt>
<trkpt lat="46.2549990" lon="10.5570840">
	<ele>1731.60</ele>
	<time>2024-03-09T10:24:48.000Z</time>
</trkpt>
<trkpt lat="46.2550010" lon="10.5570960">
	<ele>1731.60</ele>
	<time>2024-03-09T10:24:49.000Z</time>
</trkpt>
<trkpt lat="46.2550060" lon="10.5570980">
	<ele>1731.60</ele>
	<time>2024-03-09T10:24:50.000Z</time>
</trkpt>
<trkpt lat="46.2550070" lon="10.5571080">
	<ele>1731.60</ele>
	<time>2024-03-09T10:24:51.000Z</time>
</trkpt>
<trkpt lat="46.2550120" lon="10.5571170">
	<ele>1731.60</ele>
	<time>2024-03-09T10:24:52.000Z</time>
</trkpt>
<trkpt lat="46.2550130" lon="10.5571280">
	<ele>1731.80</ele>
	<time>2024-03-09T10:24:53.000Z</time>
</trkpt>
<trkpt lat="46.2550160" lon="10.5571410">
	<ele>1731.80</ele>
	<time>2024-03-09T10:24:54.000Z</time>
</trkpt>
<trkpt lat="46.2550190" lon="10.5571530">
	<ele>1731.80</ele>
	<time>2024-03-09T10:24:55.000Z</time>
</trkpt>
<trkpt lat="46.2550240" lon="10.5571620">
	<ele>1731.80</ele>
	<time>2024-03-09T10:24:56.000Z</time>
</trkpt>
<trkpt lat="46.2550310" lon="10.5571730">
	<ele>1731.80</ele>
	<time>2024-03-09T10:24:57.000Z</time>
</trkpt>
<trkpt lat="46.2550320" lon="10.5571870">
	<ele>1731.80</ele>
	<time>2024-03-09T10:24:58.000Z</time>
</trkpt>
<trkpt lat="46.2550380" lon="10.5571990">
	<ele>1731.60</ele>
	<time>2024-03-09T10:24:59.000Z</time>
</trkpt>
<trkpt lat="46.2550370" lon="10.5572130">
	<ele>1731.60</ele>
	<time>2024-03-09T10:25:00.000Z</time>
</trkpt>
<trkpt lat="46.2550430" lon="10.5572230">
	<ele>1731.80</ele>
	<time>2024-03-09T10:25:01.000Z</time>
</trkpt>
<trkpt lat="46.2550490" lon="10.5572350">
	<ele>1731.80</ele>
	<time>2024-03-09T10:25:02.000Z</time>
</trkpt>
<trkpt lat="46.2550500" lon="10.5572500">
	<ele>1732.00</ele>
	<time>2024-03-09T10:25:03.000Z</time>
</trkpt>
<trkpt lat="46.2550540" lon="10.5572600">
	<ele>1732.00</ele>
	<time>2024-03-09T10:25:04.000Z</time>
</trkpt>
<trkpt lat="46.2550570" lon="10.5572720">
	<ele>1732.00</ele>
	<time>2024-03-09T10:25:05.000Z</time>
</trkpt>
<trkpt lat="46.2550590" lon="10.5572860">
	<ele>1732.00</ele>
	<time>2024-03-09T10:25:06.000Z</time>
</trkpt>
<trkpt lat="46.2550630" lon="10.5572980">
	<ele>1732.00</ele>
	<time>2024-03-09T10:25:07.000Z</time>
</trkpt>
<trkpt lat="46.2550680" lon="10.5573060">
	<ele>1732.20</ele>
	<time>2024-03-09T10:25:08.000Z</time>
</trkpt>
<trkpt lat="46.2550720" lon="10.5573190">
	<ele>1732.20</ele>
	<time>2024-03-09T10:25:09.000Z</time>
</trkpt>
<trkpt lat="46.2550750" lon="10.5573340">
	<ele>1732.40</ele>
	<time>2024-03-09T10:25:10.000Z</time>
</trkpt>
<trkpt lat="46.2550780" lon="10.5573450">
	<ele>1732.40</ele>
	<time>2024-03-09T10:25:11.000Z</time>
</trkpt>
<trkpt lat="46.2550780" lon="10.5573600">
	<ele>1732.60</ele>
	<time>2024-03-09T10:25:12.000Z</time>
</trkpt>
<trkpt lat="46.2550810" lon="10.5573740">
	<ele>1732.80</ele>
	<time>2024-03-09T10:25:13.000Z</time>
</trkpt>
<trkpt lat="46.2550840" lon="10.5573860">
	<ele>1732.80</ele>
	<time>2024-03-09T10:25:14.000Z</time>
</trkpt>
<trkpt lat="46.2550880" lon="10.5573990">
	<ele>1732.80</ele>
	<time>2024-03-09T10:25:15.000Z</time>
</trkpt>
<trkpt lat="46.2550920" lon="10.5574110">
	<ele>1733.00</ele>
	<time>2024-03-09T10:25:16.000Z</time>
</trkpt>
<trkpt lat="46.2550940" lon="10.5574230">
	<ele>1733.00</ele>
	<time>2024-03-09T10:25:17.000Z</time>
</trkpt>
<trkpt lat="46.2550970" lon="10.5574330">
	<ele>1733.00</ele>
	<time>2024-03-09T10:25:18.000Z</time>
</trkpt>
<trkpt lat="46.2551010" lon="10.5574460">
	<ele>1733.00</ele>
	<time>2024-03-09T10:25:19.000Z</time>
</trkpt>
<trkpt lat="46.2551030" lon="10.5574580">
	<ele>1733.20</ele>
	<time>2024-03-09T10:25:20.000Z</time>
</trkpt>
<trkpt lat="46.2551040" lon="10.5574680">
	<ele>1733.40</ele>
	<time>2024-03-09T10:25:21.000Z</time>
</trkpt>
<trkpt lat="46.2551080" lon="10.5574790">
	<ele>1733.60</ele>
	<time>2024-03-09T10:25:22.000Z</time>
</trkpt>
<trkpt lat="46.2551100" lon="10.5574900">
	<ele>1733.60</ele>
	<time>2024-03-09T10:25:23.000Z</time>
</trkpt>
<trkpt lat="46.2551120" lon="10.5575000">
	<ele>1733.60</ele>
	<time>2024-03-09T10:25:24.000Z</time>
</trkpt>
<trkpt lat="46.2551150" lon="10.5575080">
	<ele>1733.80</ele>
	<time>2024-03-09T10:25:25.000Z</time>
</trkpt>
<trkpt lat="46.2551200" lon="10.5575200">
	<ele>1733.80</ele>
	<time>2024-03-09T10:25:26.000Z</time>
</trkpt>
<trkpt lat="46.2551240" lon="10.5575320">
	<ele>1734.00</ele>
	<time>2024-03-09T10:25:27.000Z</time>
</trkpt>
<trkpt lat="46.2551280" lon="10.5575420">
	<ele>1734.00</ele>
	<time>2024-03-09T10:25:28.000Z</time>
</trkpt>
<trkpt lat="46.2551340" lon="10.5575550">
	<ele>1734.00</ele>
	<time>2024-03-09T10:25:29.000Z</time>
</trkpt>
<trkpt lat="46.2551380" lon="10.5575630">
	<ele>1734.20</ele>
	<time>2024-03-09T10:25:30.000Z</time>
</trkpt>
<trkpt lat="46.2551450" lon="10.5575710">
	<ele>1734.20</ele>
	<time>2024-03-09T10:25:31.000Z</time>
</trkpt>
<trkpt lat="46.2551490" lon="10.5575800">
	<ele>1734.20</ele>
	<time>2024-03-09T10:25:32.000Z</time>
</trkpt>
<trkpt lat="46.2551510" lon="10.5575900">
	<ele>1734.20</ele>
	<time>2024-03-09T10:25:33.000Z</time>
</trkpt>
<trkpt lat="46.2551570" lon="10.5575980">
	<ele>1734.20</ele>
	<time>2024-03-09T10:25:34.000Z</time>
</trkpt>
<trkpt lat="46.2551610" lon="10.5576110">
	<ele>1734.40</ele>
	<time>2024-03-09T10:25:35.000Z</time>
</trkpt>
<trkpt lat="46.2551700" lon="10.5576190">
	<ele>1734.60</ele>
	<time>2024-03-09T10:25:36.000Z</time>
</trkpt>
<trkpt lat="46.2551730" lon="10.5576250">
	<ele>1734.80</ele>
	<time>2024-03-09T10:25:37.000Z</time>
</trkpt>
<trkpt lat="46.2551800" lon="10.5576340">
	<ele>1734.80</ele>
	<time>2024-03-09T10:25:38.000Z</time>
</trkpt>
<trkpt lat="46.2551850" lon="10.5576450">
	<ele>1735.00</ele>
	<time>2024-03-09T10:25:39.000Z</time>
</trkpt>
<trkpt lat="46.2551860" lon="10.5576550">
	<ele>1735.00</ele>
	<time>2024-03-09T10:25:40.000Z</time>
</trkpt>
<trkpt lat="46.2551930" lon="10.5576630">
	<ele>1735.00</ele>
	<time>2024-03-09T10:25:41.000Z</time>
</trkpt>
<trkpt lat="46.2551960" lon="10.5576730">
	<ele>1735.20</ele>
	<time>2024-03-09T10:25:42.000Z</time>
</trkpt>
<trkpt lat="46.2551970" lon="10.5576830">
	<ele>1735.40</ele>
	<time>2024-03-09T10:25:43.000Z</time>
</trkpt>
<trkpt lat="46.2552000" lon="10.5576920">
	<ele>1735.60</ele>
	<time>2024-03-09T10:25:44.000Z</time>
</trkpt>
<trkpt lat="46.2552040" lon="10.5577040">
	<ele>1735.60</ele>
	<time>2024-03-09T10:25:45.000Z</time>
</trkpt>
<trkpt lat="46.2552030" lon="10.5577200">
	<ele>1735.80</ele>
	<time>2024-03-09T10:25:46.000Z</time>
</trkpt>
<trkpt lat="46.2552020" lon="10.5577330">
	<ele>1735.80</ele>
	<time>2024-03-09T10:25:47.000Z</time>
</trkpt>
<trkpt lat="46.2552040" lon="10.5577440">
	<ele>1736.20</ele>
	<time>2024-03-09T10:25:48.000Z</time>
</trkpt>
<trkpt lat="46.2552040" lon="10.5577540">
	<ele>1736.40</ele>
	<time>2024-03-09T10:25:49.000Z</time>
</trkpt>
<trkpt lat="46.2552040" lon="10.5577630">
	<ele>1736.40</ele>
	<time>2024-03-09T10:25:50.000Z</time>
</trkpt>
<trkpt lat="46.2552020" lon="10.5577770">
	<ele>1736.60</ele>
	<time>2024-03-09T10:25:51.000Z</time>
</trkpt>
<trkpt lat="46.2551980" lon="10.5577920">
	<ele>1736.60</ele>
	<time>2024-03-09T10:25:52.000Z</time>
</trkpt>
<trkpt lat="46.2551950" lon="10.5578040">
	<ele>1736.80</ele>
	<time>2024-03-09T10:25:53.000Z</time>
</trkpt>
<trkpt lat="46.2551950" lon="10.5578130">
	<ele>1736.80</ele>
	<time>2024-03-09T10:25:54.000Z</time>
</trkpt>
<trkpt lat="46.2551930" lon="10.5578250">
	<ele>1736.80</ele>
	<time>2024-03-09T10:25:55.000Z</time>
</trkpt>
<trkpt lat="46.2551900" lon="10.5578380">
	<ele>1737.00</ele>
	<time>2024-03-09T10:25:56.000Z</time>
</trkpt>
<trkpt lat="46.2551900" lon="10.5578480">
	<ele>1737.20</ele>
	<time>2024-03-09T10:25:57.000Z</time>
</trkpt>
<trkpt lat="46.2551890" lon="10.5578600">
	<ele>1737.40</ele>
	<time>2024-03-09T10:25:58.000Z</time>
</trkpt>
<trkpt lat="46.2551860" lon="10.5578710">
	<ele>1737.60</ele>
	<time>2024-03-09T10:25:59.000Z</time>
</trkpt>
<trkpt lat="46.2551850" lon="10.5578830">
	<ele>1737.80</ele>
	<time>2024-03-09T10:26:00.000Z</time>
</trkpt>
<trkpt lat="46.2551840" lon="10.5578960">
	<ele>1737.80</ele>
	<time>2024-03-09T10:26:01.000Z</time>
</trkpt>
<trkpt lat="46.2551830" lon="10.5579080">
	<ele>1738.00</ele>
	<time>2024-03-09T10:26:02.000Z</time>
</trkpt>
<trkpt lat="46.2551810" lon="10.5579200">
	<ele>1738.20</ele>
	<time>2024-03-09T10:26:03.000Z</time>
</trkpt>
<trkpt lat="46.2551830" lon="10.5579320">
	<ele>1738.20</ele>
	<time>2024-03-09T10:26:04.000Z</time>
</trkpt>
<trkpt lat="46.2551850" lon="10.5579430">
	<ele>1738.20</ele>
	<time>2024-03-09T10:26:05.000Z</time>
</trkpt>
<trkpt lat="46.2551890" lon="10.5579530">
	<ele>1738.40</ele>
	<time>2024-03-09T10:26:06.000Z</time>
</trkpt>
<trkpt lat="46.2551920" lon="10.5579610">
	<ele>1738.40</ele>
	<time>2024-03-09T10:26:07.000Z</time>
</trkpt>
<trkpt lat="46.2551940" lon="10.5579680">
	<ele>1738.60</ele>
	<time>2024-03-09T10:26:08.000Z</time>
</trkpt>
<trkpt lat="46.2551930" lon="10.5579800">
	<ele>1738.60</ele>
	<time>2024-03-09T10:26:09.000Z</time>
</trkpt>
<trkpt lat="46.2551950" lon="10.5579890">
	<ele>1738.60</ele>
	<time>2024-03-09T10:26:10.000Z</time>
</trkpt>
<trkpt lat="46.2551940" lon="10.5580000">
	<ele>1738.80</ele>
	<time>2024-03-09T10:26:11.000Z</time>
</trkpt>
<trkpt lat="46.2551970" lon="10.5580100">
	<ele>1738.80</ele>
	<time>2024-03-09T10:26:12.000Z</time>
</trkpt>
<trkpt lat="46.2551990" lon="10.5580160">
	<ele>1738.80</ele>
	<time>2024-03-09T10:26:13.000Z</time>
</trkpt>
<trkpt lat="46.2552030" lon="10.5580260">
	<ele>1739.00</ele>
	<time>2024-03-09T10:26:14.000Z</time>
</trkpt>
<trkpt lat="46.2552060" lon="10.5580350">
	<ele>1739.00</ele>
	<time>2024-03-09T10:26:15.000Z</time>
</trkpt>
<trkpt lat="46.2552070" lon="10.5580420">
	<ele>1739.00</ele>
	<time>2024-03-09T10:26:16.000Z</time>
</trkpt>
<trkpt lat="46.2552110" lon="10.5580510">
	<ele>1739.00</ele>
	<time>2024-03-09T10:26:17.000Z</time>
</trkpt>
<trkpt lat="46.2552080" lon="10.5580620">
	<ele>1739.00</ele>
	<time>2024-03-09T10:26:18.000Z</time>
</trkpt>
<trkpt lat="46.2552070" lon="10.5580720">
	<ele>1739.20</ele>
	<time>2024-03-09T10:26:19.000Z</time>
</trkpt>
<trkpt lat="46.2552050" lon="10.5580830">
	<ele>1739.20</ele>
	<time>2024-03-09T10:26:20.000Z</time>
</trkpt>
<trkpt lat="46.2552040" lon="10.5580950">
	<ele>1739.40</ele>
	<time>2024-03-09T10:26:21.000Z</time>
</trkpt>
<trkpt lat="46.2552040" lon="10.5581050">
	<ele>1739.40</ele>
	<time>2024-03-09T10:26:22.000Z</time>
</trkpt>
<trkpt lat="46.2552030" lon="10.5581160">
	<ele>1739.60</ele>
	<time>2024-03-09T10:26:23.000Z</time>
</trkpt>
<trkpt lat="46.2552030" lon="10.5581300">
	<ele>1739.80</ele>
	<time>2024-03-09T10:26:24.000Z</time>
</trkpt>
<trkpt lat="46.2552020" lon="10.5581410">
	<ele>1739.80</ele>
	<time>2024-03-09T10:26:25.000Z</time>
</trkpt>
<trkpt lat="46.2552010" lon="10.5581510">
	<ele>1740.00</ele>
	<time>2024-03-09T10:26:26.000Z</time>
</trkpt>
<trkpt lat="46.2552030" lon="10.5581580">
	<ele>1740.00</ele>
	<time>2024-03-09T10:26:27.000Z</time>
</trkpt>
<trkpt lat="46.2552020" lon="10.5581690">
	<ele>1740.00</ele>
	<time>2024-03-09T10:26:28.000Z</time>
</trkpt>
<trkpt lat="46.2552020" lon="10.5581750">
	<ele>1740.20</ele>
	<time>2024-03-09T10:26:29.000Z</time>
</trkpt>
<trkpt lat="46.2552030" lon="10.5581850">
	<ele>1740.20</ele>
	<time>2024-03-09T10:26:30.000Z</time>
</trkpt>
<trkpt lat="46.2552000" lon="10.5581970">
	<ele>1740.20</ele>
	<time>2024-03-09T10:26:31.000Z</time>
</trkpt>
<trkpt lat="46.2551990" lon="10.5582060">
	<ele>1740.40</ele>
	<time>2024-03-09T10:26:32.000Z</time>
</trkpt>
<trkpt lat="46.2551960" lon="10.5582180">
	<ele>1740.40</ele>
	<time>2024-03-09T10:26:33.000Z</time>
</trkpt>
<trkpt lat="46.2551950" lon="10.5582300">
	<ele>1740.40</ele>
	<time>2024-03-09T10:26:34.000Z</time>
</trkpt>
<trkpt lat="46.2551910" lon="10.5582420">
	<ele>1740.60</ele>
	<time>2024-03-09T10:26:35.000Z</time>
</trkpt>
<trkpt lat="46.2551860" lon="10.5582560">
	<ele>1740.80</ele>
	<time>2024-03-09T10:26:36.000Z</time>
</trkpt>
<trkpt lat="46.2551840" lon="10.5582670">
	<ele>1741.00</ele>
	<time>2024-03-09T10:26:37.000Z</time>
</trkpt>
<trkpt lat="46.2551830" lon="10.5582750">
	<ele>1741.00</ele>
	<time>2024-03-09T10:26:38.000Z</time>
</trkpt>
<trkpt lat="46.2551820" lon="10.5582860">
	<ele>1741.20</ele>
	<time>2024-03-09T10:26:39.000Z</time>
</trkpt>
<trkpt lat="46.2551830" lon="10.5582940">
	<ele>1741.20</ele>
	<time>2024-03-09T10:26:40.000Z</time>
</trkpt>
<trkpt lat="46.2551800" lon="10.5583070">
	<ele>1741.20</ele>
	<time>2024-03-09T10:26:41.000Z</time>
</trkpt>
<trkpt lat="46.2551780" lon="10.5583180">
	<ele>1741.40</ele>
	<time>2024-03-09T10:26:42.000Z</time>
</trkpt>
<trkpt lat="46.2551750" lon="10.5583290">
	<ele>1741.60</ele>
	<time>2024-03-09T10:26:43.000Z</time>
</trkpt>
<trkpt lat="46.2551730" lon="10.5583420">
	<ele>1741.80</ele>
	<time>2024-03-09T10:26:44.000Z</time>
</trkpt>
<trkpt lat="46.2551710" lon="10.5583570">
	<ele>1742.00</ele>
	<time>2024-03-09T10:26:45.000Z</time>
</trkpt>
<trkpt lat="46.2551700" lon="10.5583700">
	<ele>1742.00</ele>
	<time>2024-03-09T10:26:46.000Z</time>
</trkpt>
<trkpt lat="46.2551660" lon="10.5583840">
	<ele>1742.20</ele>
	<time>2024-03-09T10:26:47.000Z</time>
</trkpt>
<trkpt lat="46.2551630" lon="10.5583940">
	<ele>1742.20</ele>
	<time>2024-03-09T10:26:48.000Z</time>
</trkpt>
<trkpt lat="46.2551600" lon="10.5584030">
	<ele>1742.20</ele>
	<time>2024-03-09T10:26:49.000Z</time>
</trkpt>
<trkpt lat="46.2551620" lon="10.5584130">
	<ele>1742.40</ele>
	<time>2024-03-09T10:26:50.000Z</time>
</trkpt>
<trkpt lat="46.2551630" lon="10.5584240">
	<ele>1742.40</ele>
	<time>2024-03-09T10:26:51.000Z</time>
</trkpt>
<trkpt lat="46.2551630" lon="10.5584330">
	<ele>1742.40</ele>
	<time>2024-03-09T10:26:52.000Z</time>
</trkpt>
<trkpt lat="46.2551600" lon="10.5584450">
	<ele>1742.40</ele>
	<time>2024-03-09T10:26:53.000Z</time>
</trkpt>
<trkpt lat="46.2551560" lon="10.5584590">
	<ele>1742.40</ele>
	<time>2024-03-09T10:26:54.000Z</time>
</trkpt>
<trkpt lat="46.2551540" lon="10.5584770">
	<ele>1742.60</ele>
	<time>2024-03-09T10:26:55.000Z</time>
</trkpt>
<trkpt lat="46.2551490" lon="10.5584890">
	<ele>1742.80</ele>
	<time>2024-03-09T10:26:56.000Z</time>
</trkpt>
<trkpt lat="46.2551460" lon="10.5585010">
	<ele>1742.80</ele>
	<time>2024-03-09T10:26:57.000Z</time>
</trkpt>
<trkpt lat="46.2551470" lon="10.5585110">
	<ele>1742.80</ele>
	<time>2024-03-09T10:26:58.000Z</time>
</trkpt>
<trkpt lat="46.2551460" lon="10.5585190">
	<ele>1743.00</ele>
	<time>2024-03-09T10:26:59.000Z</time>
</trkpt>
<trkpt lat="46.2551420" lon="10.5585290">
	<ele>1742.80</ele>
	<time>2024-03-09T10:27:00.000Z</time>
</trkpt>
<trkpt lat="46.2551390" lon="10.5585430">
	<ele>1743.00</ele>
	<time>2024-03-09T10:27:01.000Z</time>
</trkpt>
<trkpt lat="46.2551410" lon="10.5585500">
	<ele>1743.00</ele>
	<time>2024-03-09T10:27:02.000Z</time>
</trkpt>
<trkpt lat="46.2551380" lon="10.5585660">
	<ele>1743.00</ele>
	<time>2024-03-09T10:27:03.000Z</time>
</trkpt>
<trkpt lat="46.2551370" lon="10.5585770">
	<ele>1743.20</ele>
	<time>2024-03-09T10:27:04.000Z</time>
</trkpt>
<trkpt lat="46.2551330" lon="10.5585900">
	<ele>1743.20</ele>
	<time>2024-03-09T10:27:05.000Z</time>
</trkpt>
<trkpt lat="46.2551330" lon="10.5586020">
	<ele>1743.20</ele>
	<time>2024-03-09T10:27:06.000Z</time>
</trkpt>
<trkpt lat="46.2551310" lon="10.5586120">
	<ele>1743.40</ele>
	<time>2024-03-09T10:27:07.000Z</time>
</trkpt>
<trkpt lat="46.2551280" lon="10.5586230">
	<ele>1743.40</ele>
	<time>2024-03-09T10:27:08.000Z</time>
</trkpt>
<trkpt lat="46.2551230" lon="10.5586380">
	<ele>1743.60</ele>
	<time>2024-03-09T10:27:09.000Z</time>
</trkpt>
<trkpt lat="46.2551200" lon="10.5586460">
	<ele>1743.80</ele>
	<time>2024-03-09T10:27:10.000Z</time>
</trkpt>
<trkpt lat="46.2551200" lon="10.5586580">
	<ele>1743.80</ele>
	<time>2024-03-09T10:27:11.000Z</time>
</trkpt>
<trkpt lat="46.2551200" lon="10.5586690">
	<ele>1743.80</ele>
	<time>2024-03-09T10:27:12.000Z</time>
</trkpt>
<trkpt lat="46.2551180" lon="10.5586760">
	<ele>1744.00</ele>
	<time>2024-03-09T10:27:13.000Z</time>
</trkpt>
<trkpt lat="46.2551180" lon="10.5586820">
	<ele>1744.20</ele>
	<time>2024-03-09T10:27:14.000Z</time>
</trkpt>
<trkpt lat="46.2551160" lon="10.5586930">
	<ele>1744.20</ele>
	<time>2024-03-09T10:27:15.000Z</time>
</trkpt>
<trkpt lat="46.2551140" lon="10.5587050">
	<ele>1744.20</ele>
	<time>2024-03-09T10:27:16.000Z</time>
</trkpt>
<trkpt lat="46.2551090" lon="10.5587170">
	<ele>1744.40</ele>
	<time>2024-03-09T10:27:17.000Z</time>
</trkpt>
<trkpt lat="46.2551060" lon="10.5587260">
	<ele>1744.60</ele>
	<time>2024-03-09T10:27:18.000Z</time>
</trkpt>
<trkpt lat="46.2551060" lon="10.5587360">
	<ele>1744.60</ele>
	<time>2024-03-09T10:27:19.000Z</time>
</trkpt>
<trkpt lat="46.2551050" lon="10.5587470">
	<ele>1744.60</ele>
	<time>2024-03-09T10:27:20.000Z</time>
</trkpt>
<trkpt lat="46.2551050" lon="10.5587590">
	<ele>1744.60</ele>
	<time>2024-03-09T10:27:21.000Z</time>
</trkpt>
<trkpt lat="46.2551050" lon="10.5587690">
	<ele>1744.80</ele>
	<time>2024-03-09T10:27:22.000Z</time>
</trkpt>
<trkpt lat="46.2551040" lon="10.5587740">
	<ele>1745.00</ele>
	<time>2024-03-09T10:27:23.000Z</time>
</trkpt>
<trkpt lat="46.2551020" lon="10.5587850">
	<ele>1745.00</ele>
	<time>2024-03-09T10:27:24.000Z</time>
</trkpt>
<trkpt lat="46.2551010" lon="10.5587950">
	<ele>1745.20</ele>
	<time>2024-03-09T10:27:25.000Z</time>
</trkpt>
<trkpt lat="46.2550990" lon="10.5588070">
	<ele>1745.40</ele>
	<time>2024-03-09T10:27:26.000Z</time>
</trkpt>
<trkpt lat="46.2550970" lon="10.5588200">
	<ele>1745.60</ele>
	<time>2024-03-09T10:27:27.000Z</time>
</trkpt>
<trkpt lat="46.2550910" lon="10.5588330">
	<ele>1745.60</ele>
	<time>2024-03-09T10:27:28.000Z</time>
</trkpt>
<trkpt lat="46.2550850" lon="10.5588430">
	<ele>1745.80</ele>
	<time>2024-03-09T10:27:29.000Z</time>
</trkpt>
<trkpt lat="46.2550850" lon="10.5588490">
	<ele>1745.80</ele>
	<time>2024-03-09T10:27:30.000Z</time>
</trkpt>
<trkpt lat="46.2550850" lon="10.5588510">
	<ele>1745.80</ele>
	<time>2024-03-09T10:27:31.000Z</time>
</trkpt>
<trkpt lat="46.2550830" lon="10.5588500">
	<ele>1745.60</ele>
	<time>2024-03-09T10:27:32.000Z</time>
</trkpt>
<trkpt lat="46.2550820" lon="10.5588510">
	<ele>1745.60</ele>
	<time>2024-03-09T10:27:33.000Z</time>
</trkpt>
<trkpt lat="46.2550850" lon="10.5588540">
	<ele>1745.60</ele>
	<time>2024-03-09T10:27:34.000Z</time>
</trkpt>
<trkpt lat="46.2550860" lon="10.5588560">
	<ele>1745.60</ele>
	<time>2024-03-09T10:27:35.000Z</time>
</trkpt>
<trkpt lat="46.2550850" lon="10.5588590">
	<ele>1745.60</ele>
	<time>2024-03-09T10:27:36.000Z</time>
</trkpt>
<trkpt lat="46.2550830" lon="10.5588610">
	<ele>1745.60</ele>
	<time>2024-03-09T10:27:37.000Z</time>
</trkpt>
<trkpt lat="46.2550820" lon="10.5588630">
	<ele>1745.60</ele>
	<time>2024-03-09T10:27:38.000Z</time>
</trkpt>
<trkpt lat="46.2550830" lon="10.5588620">
	<ele>1745.60</ele>
	<time>2024-03-09T10:27:39.000Z</time>
</trkpt>
<trkpt lat="46.2550830" lon="10.5588630">
	<ele>1745.60</ele>
	<time>2024-03-09T10:27:40.000Z</time>
</trkpt>
<trkpt lat="46.2550820" lon="10.5588630">
	<ele>1745.60</ele>
	<time>2024-03-09T10:27:41.000Z</time>
</trkpt>
<trkpt lat="46.2550800" lon="10.5588630">
	<ele>1745.60</ele>
	<time>2024-03-09T10:27:42.000Z</time>
</trkpt>
<trkpt lat="46.2550800" lon="10.5588640">
	<ele>1745.60</ele>
	<time>2024-03-09T10:27:43.000Z</time>
</trkpt>
<trkpt lat="46.2550800" lon="10.5588640">
	<ele>1745.60</ele>
	<time>2024-03-09T10:27:44.000Z</time>
</trkpt>
<trkpt lat="46.2550800" lon="10.5588640">
	<ele>1745.60</ele>
	<time>2024-03-09T10:27:45.000Z</time>
</trkpt>
<trkpt lat="46.2550800" lon="10.5588640">
	<ele>1745.60</ele>
	<time>2024-03-09T10:27:46.000Z</time>
</trkpt>
<trkpt lat="46.2550800" lon="10.5588640">
	<ele>1745.80</ele>
	<time>2024-03-09T10:27:47.000Z</time>
</trkpt>
<trkpt lat="46.2550800" lon="10.5588640">
	<ele>1746.00</ele>
	<time>2024-03-09T10:27:48.000Z</time>
</trkpt>
<trkpt lat="46.2550800" lon="10.5588640">
	<ele>1746.00</ele>
	<time>2024-03-09T10:27:49.000Z</time>
</trkpt>
<trkpt lat="46.2550800" lon="10.5588640">
	<ele>1746.20</ele>
	<time>2024-03-09T10:27:50.000Z</time>
</trkpt>
<trkpt lat="46.2550800" lon="10.5588640">
	<ele>1746.20</ele>
	<time>2024-03-09T10:27:51.000Z</time>
</trkpt>
<trkpt lat="46.2550800" lon="10.5588640">
	<ele>1746.20</ele>
	<time>2024-03-09T10:27:52.000Z</time>
</trkpt>
<trkpt lat="46.2550800" lon="10.5588640">
	<ele>1746.20</ele>
	<time>2024-03-09T10:27:53.000Z</time>
</trkpt>
<trkpt lat="46.2550800" lon="10.5588640">
	<ele>1746.40</ele>
	<time>2024-03-09T10:27:54.000Z</time>
</trkpt>
<trkpt lat="46.2550800" lon="10.5588640">
	<ele>1746.40</ele>
	<time>2024-03-09T10:27:55.000Z</time>
</trkpt>
<trkpt lat="46.2550800" lon="10.5588640">
	<ele>1746.40</ele>
	<time>2024-03-09T10:27:56.000Z</time>
</trkpt>
<trkpt lat="46.2550800" lon="10.5588640">
	<ele>1746.20</ele>
	<time>2024-03-09T10:27:57.000Z</time>
</trkpt>
<trkpt lat="46.2550800" lon="10.5588640">
	<ele>1746.00</ele>
	<time>2024-03-09T10:27:58.000Z</time>
</trkpt>
<trkpt lat="46.2550760" lon="10.5588660">
	<ele>1745.80</ele>
	<time>2024-03-09T10:27:59.000Z</time>
</trkpt>
<trkpt lat="46.2550720" lon="10.5588690">
	<ele>1745.60</ele>
	<time>2024-03-09T10:28:00.000Z</time>
</trkpt>
<trkpt lat="46.2550690" lon="10.5588700">
	<ele>1745.60</ele>
	<time>2024-03-09T10:28:01.000Z</time>
</trkpt>
<trkpt lat="46.2550680" lon="10.5588700">
	<ele>1745.60</ele>
	<time>2024-03-09T10:28:02.000Z</time>
</trkpt>
<trkpt lat="46.2550660" lon="10.5588710">
	<ele>1745.60</ele>
	<time>2024-03-09T10:28:03.000Z</time>
</trkpt>
<trkpt lat="46.2550640" lon="10.5588710">
	<ele>1745.60</ele>
	<time>2024-03-09T10:28:04.000Z</time>
</trkpt>
<trkpt lat="46.2550640" lon="10.5588740">
	<ele>1745.60</ele>
	<time>2024-03-09T10:28:05.000Z</time>
</trkpt>
<trkpt lat="46.2550610" lon="10.5588760">
	<ele>1745.80</ele>
	<time>2024-03-09T10:28:06.000Z</time>
</trkpt>
<trkpt lat="46.2550590" lon="10.5588780">
	<ele>1745.80</ele>
	<time>2024-03-09T10:28:07.000Z</time>
</trkpt>
<trkpt lat="46.2550570" lon="10.5588780">
	<ele>1745.80</ele>
	<time>2024-03-09T10:28:08.000Z</time>
</trkpt>
<trkpt lat="46.2550560" lon="10.5588790">
	<ele>1745.80</ele>
	<time>2024-03-09T10:28:09.000Z</time>
</trkpt>
<trkpt lat="46.2550550" lon="10.5588790">
	<ele>1745.80</ele>
	<time>2024-03-09T10:28:10.000Z</time>
</trkpt>
<trkpt lat="46.2550540" lon="10.5588790">
	<ele>1745.80</ele>
	<time>2024-03-09T10:28:11.000Z</time>
</trkpt>
<trkpt lat="46.2550540" lon="10.5588790">
	<ele>1745.80</ele>
	<time>2024-03-09T10:28:12.000Z</time>
</trkpt>
<trkpt lat="46.2550540" lon="10.5588790">
	<ele>1745.80</ele>
	<time>2024-03-09T10:28:13.000Z</time>
</trkpt>
<trkpt lat="46.2550530" lon="10.5588790">
	<ele>1746.00</ele>
	<time>2024-03-09T10:28:14.000Z</time>
</trkpt>
<trkpt lat="46.2550530" lon="10.5588790">
	<ele>1745.80</ele>
	<time>2024-03-09T10:28:15.000Z</time>
</trkpt>
<trkpt lat="46.2550530" lon="10.5588790">
	<ele>1745.80</ele>
	<time>2024-03-09T10:28:16.000Z</time>
</trkpt>
<trkpt lat="46.2550530" lon="10.5588800">
	<ele>1745.80</ele>
	<time>2024-03-09T10:28:17.000Z</time>
</trkpt>
<trkpt lat="46.2550530" lon="10.5588800">
	<ele>1745.80</ele>
	<time>2024-03-09T10:28:18.000Z</time>
</trkpt>
<trkpt lat="46.2550520" lon="10.5588800">
	<ele>1746.00</ele>
	<time>2024-03-09T10:28:19.000Z</time>
</trkpt>
<trkpt lat="46.2550520" lon="10.5588800">
	<ele>1745.80</ele>
	<time>2024-03-09T10:28:20.000Z</time>
</trkpt>
<trkpt lat="46.2550520" lon="10.5588800">
	<ele>1745.80</ele>
	<time>2024-03-09T10:28:21.000Z</time>
</trkpt>
<trkpt lat="46.2550510" lon="10.5588800">
	<ele>1745.80</ele>
	<time>2024-03-09T10:28:22.000Z</time>
</trkpt>
<trkpt lat="46.2550510" lon="10.5588810">
	<ele>1745.80</ele>
	<time>2024-03-09T10:28:23.000Z</time>
</trkpt>
<trkpt lat="46.2550510" lon="10.5588810">
	<ele>1745.80</ele>
	<time>2024-03-09T10:28:24.000Z</time>
</trkpt>
<trkpt lat="46.2550500" lon="10.5588810">
	<ele>1746.00</ele>
	<time>2024-03-09T10:28:25.000Z</time>
</trkpt>
<trkpt lat="46.2550490" lon="10.5588820">
	<ele>1746.00</ele>
	<time>2024-03-09T10:28:26.000Z</time>
</trkpt>
<trkpt lat="46.2550470" lon="10.5588840">
	<ele>1746.00</ele>
	<time>2024-03-09T10:28:27.000Z</time>
</trkpt>
<trkpt lat="46.2550470" lon="10.5588850">
	<ele>1746.00</ele>
	<time>2024-03-09T10:28:28.000Z</time>
</trkpt>
<trkpt lat="46.2550460" lon="10.5588860">
	<ele>1746.00</ele>
	<time>2024-03-09T10:28:29.000Z</time>
</trkpt>
<trkpt lat="46.2550460" lon="10.5588870">
	<ele>1746.20</ele>
	<time>2024-03-09T10:28:30.000Z</time>
</trkpt>
<trkpt lat="46.2550460" lon="10.5588870">
	<ele>1746.40</ele>
	<time>2024-03-09T10:28:31.000Z</time>
</trkpt>
<trkpt lat="46.2550440" lon="10.5588880">
	<ele>1746.40</ele>
	<time>2024-03-09T10:28:32.000Z</time>
</trkpt>
<trkpt lat="46.2550440" lon="10.5588900">
	<ele>1746.60</ele>
	<time>2024-03-09T10:28:33.000Z</time>
</trkpt>
<trkpt lat="46.2550380" lon="10.5588930">
	<ele>1746.60</ele>
	<time>2024-03-09T10:28:34.000Z</time>
</trkpt>
<trkpt lat="46.2550350" lon="10.5588970">
	<ele>1746.60</ele>
	<time>2024-03-09T10:28:35.000Z</time>
</trkpt>
<trkpt lat="46.2550330" lon="10.5589010">
	<ele>1746.80</ele>
	<time>2024-03-09T10:28:36.000Z</time>
</trkpt>
<trkpt lat="46.2550310" lon="10.5589070">
	<ele>1746.80</ele>
	<time>2024-03-09T10:28:37.000Z</time>
</trkpt>
<trkpt lat="46.2550310" lon="10.5589150">
	<ele>1746.80</ele>
	<time>2024-03-09T10:28:38.000Z</time>
</trkpt>
<trkpt lat="46.2550300" lon="10.5589220">
	<ele>1747.00</ele>
	<time>2024-03-09T10:28:39.000Z</time>
</trkpt>
<trkpt lat="46.2550290" lon="10.5589280">
	<ele>1747.00</ele>
	<time>2024-03-09T10:28:40.000Z</time>
</trkpt>
<trkpt lat="46.2550290" lon="10.5589350">
	<ele>1747.00</ele>
	<time>2024-03-09T10:28:41.000Z</time>
</trkpt>
<trkpt lat="46.2550280" lon="10.5589430">
	<ele>1747.20</ele>
	<time>2024-03-09T10:28:42.000Z</time>
</trkpt>
<trkpt lat="46.2550280" lon="10.5589510">
	<ele>1747.40</ele>
	<time>2024-03-09T10:28:43.000Z</time>
</trkpt>
<trkpt lat="46.2550280" lon="10.5589580">
	<ele>1747.60</ele>
	<time>2024-03-09T10:28:44.000Z</time>
</trkpt>
<trkpt lat="46.2550270" lon="10.5589660">
	<ele>1747.80</ele>
	<time>2024-03-09T10:28:45.000Z</time>
</trkpt>
<trkpt lat="46.2550260" lon="10.5589730">
	<ele>1747.80</ele>
	<time>2024-03-09T10:28:46.000Z</time>
</trkpt>
<trkpt lat="46.2550240" lon="10.5589870">
	<ele>1747.80</ele>
	<time>2024-03-09T10:28:47.000Z</time>
</trkpt>
<trkpt lat="46.2550210" lon="10.5590120">
	<ele>1748.00</ele>
	<time>2024-03-09T10:28:48.000Z</time>
</trkpt>
<trkpt lat="46.2550160" lon="10.5590370">
	<ele>1748.00</ele>
	<time>2024-03-09T10:28:49.000Z</time>
</trkpt>
<trkpt lat="46.2550110" lon="10.5590580">
	<ele>1748.00</ele>
	<time>2024-03-09T10:28:50.000Z</time>
</trkpt>
<trkpt lat="46.2550060" lon="10.5590830">
	<ele>1748.00</ele>
	<time>2024-03-09T10:28:51.000Z</time>
</trkpt>
<trkpt lat="46.2550030" lon="10.5591060">
	<ele>1748.00</ele>
	<time>2024-03-09T10:28:52.000Z</time>
</trkpt>
<trkpt lat="46.2549990" lon="10.5591280">
	<ele>1748.00</ele>
	<time>2024-03-09T10:28:53.000Z</time>
</trkpt>
<trkpt lat="46.2549950" lon="10.5591520">
	<ele>1748.00</ele>
	<time>2024-03-09T10:28:54.000Z</time>
</trkpt>
<trkpt lat="46.2549920" lon="10.5591740">
	<ele>1748.00</ele>
	<time>2024-03-09T10:28:55.000Z</time>
</trkpt>
<trkpt lat="46.2549900" lon="10.5591920">
	<ele>1748.20</ele>
	<time>2024-03-09T10:28:56.000Z</time>
</trkpt>
<trkpt lat="46.2549910" lon="10.5591920">
	<ele>1748.20</ele>
	<time>2024-03-09T10:28:57.000Z</time>
</trkpt>
<trkpt lat="46.2549920" lon="10.5591930">
	<ele>1748.20</ele>
	<time>2024-03-09T10:28:58.000Z</time>
</trkpt>
<trkpt lat="46.2549930" lon="10.5591910">
	<ele>1748.40</ele>
	<time>2024-03-09T10:28:59.000Z</time>
</trkpt>
<trkpt lat="46.2549940" lon="10.5591910">
	<ele>1748.40</ele>
	<time>2024-03-09T10:29:00.000Z</time>
</trkpt>
<trkpt lat="46.2549940" lon="10.5591910">
	<ele>1748.40</ele>
	<time>2024-03-09T10:29:01.000Z</time>
</trkpt>
<trkpt lat="46.2549930" lon="10.5591920">
	<ele>1748.40</ele>
	<time>2024-03-09T10:29:02.000Z</time>
</trkpt>
<trkpt lat="46.2549920" lon="10.5591930">
	<ele>1748.40</ele>
	<time>2024-03-09T10:29:03.000Z</time>
</trkpt>
<trkpt lat="46.2549910" lon="10.5591940">
	<ele>1748.40</ele>
	<time>2024-03-09T10:29:04.000Z</time>
</trkpt>
<trkpt lat="46.2549880" lon="10.5591960">
	<ele>1748.40</ele>
	<time>2024-03-09T10:29:05.000Z</time>
</trkpt>
<trkpt lat="46.2549870" lon="10.5592010">
	<ele>1748.40</ele>
	<time>2024-03-09T10:29:06.000Z</time>
</trkpt>
<trkpt lat="46.2549850" lon="10.5592040">
	<ele>1748.40</ele>
	<time>2024-03-09T10:29:07.000Z</time>
</trkpt>
<trkpt lat="46.2549830" lon="10.5592140">
	<ele>1748.40</ele>
	<time>2024-03-09T10:29:08.000Z</time>
</trkpt>
<trkpt lat="46.2549820" lon="10.5592220">
	<ele>1748.40</ele>
	<time>2024-03-09T10:29:09.000Z</time>
</trkpt>
<trkpt lat="46.2549810" lon="10.5592300">
	<ele>1748.40</ele>
	<time>2024-03-09T10:29:10.000Z</time>
</trkpt>
<trkpt lat="46.2549800" lon="10.5592420">
	<ele>1748.40</ele>
	<time>2024-03-09T10:29:11.000Z</time>
</trkpt>
<trkpt lat="46.2549780" lon="10.5592530">
	<ele>1748.60</ele>
	<time>2024-03-09T10:29:12.000Z</time>
</trkpt>
<trkpt lat="46.2549760" lon="10.5592640">
	<ele>1748.60</ele>
	<time>2024-03-09T10:29:13.000Z</time>
</trkpt>
<trkpt lat="46.2549730" lon="10.5592750">
	<ele>1748.80</ele>
	<time>2024-03-09T10:29:14.000Z</time>
</trkpt>
<trkpt lat="46.2549720" lon="10.5592840">
	<ele>1749.00</ele>
	<time>2024-03-09T10:29:15.000Z</time>
</trkpt>
<trkpt lat="46.2549680" lon="10.5592940">
	<ele>1749.20</ele>
	<time>2024-03-09T10:29:16.000Z</time>
</trkpt>
<trkpt lat="46.2549630" lon="10.5593060">
	<ele>1749.20</ele>
	<time>2024-03-09T10:29:17.000Z</time>
</trkpt>
<trkpt lat="46.2549590" lon="10.5593160">
	<ele>1749.40</ele>
	<time>2024-03-09T10:29:18.000Z</time>
</trkpt>
<trkpt lat="46.2549570" lon="10.5593240">
	<ele>1749.40</ele>
	<time>2024-03-09T10:29:19.000Z</time>
</trkpt>
<trkpt lat="46.2549570" lon="10.5593310">
	<ele>1749.60</ele>
	<time>2024-03-09T10:29:20.000Z</time>
</trkpt>
<trkpt lat="46.2549550" lon="10.5593400">
	<ele>1749.60</ele>
	<time>2024-03-09T10:29:21.000Z</time>
</trkpt>
<trkpt lat="46.2549550" lon="10.5593490">
	<ele>1749.60</ele>
	<time>2024-03-09T10:29:22.000Z</time>
</trkpt>
<trkpt lat="46.2549540" lon="10.5593580">
	<ele>1749.60</ele>
	<time>2024-03-09T10:29:23.000Z</time>
</trkpt>
<trkpt lat="46.2549590" lon="10.5593620">
	<ele>1749.80</ele>
	<time>2024-03-09T10:29:24.000Z</time>
</trkpt>
<trkpt lat="46.2549590" lon="10.5593740">
	<ele>1749.80</ele>
	<time>2024-03-09T10:29:25.000Z</time>
</trkpt>
<trkpt lat="46.2549550" lon="10.5593850">
	<ele>1749.80</ele>
	<time>2024-03-09T10:29:26.000Z</time>
</trkpt>
<trkpt lat="46.2549510" lon="10.5594010">
	<ele>1749.80</ele>
	<time>2024-03-09T10:29:27.000Z</time>
</trkpt>
<trkpt lat="46.2549440" lon="10.5594130">
	<ele>1749.80</ele>
	<time>2024-03-09T10:29:28.000Z</time>
</trkpt>
<trkpt lat="46.2549400" lon="10.5594190">
	<ele>1749.80</ele>
	<time>2024-03-09T10:29:29.000Z</time>
</trkpt>
<trkpt lat="46.2549410" lon="10.5594280">
	<ele>1749.80</ele>
	<time>2024-03-09T10:29:30.000Z</time>
</trkpt>
<trkpt lat="46.2549400" lon="10.5594390">
	<ele>1749.80</ele>
	<time>2024-03-09T10:29:31.000Z</time>
</trkpt>
<trkpt lat="46.2549370" lon="10.5594470">
	<ele>1750.00</ele>
	<time>2024-03-09T10:29:32.000Z</time>
</trkpt>
<trkpt lat="46.2549370" lon="10.5594550">
	<ele>1750.20</ele>
	<time>2024-03-09T10:29:33.000Z</time>
</trkpt>
<trkpt lat="46.2549380" lon="10.5594640">
	<ele>1750.40</ele>
	<time>2024-03-09T10:29:34.000Z</time>
</trkpt>
<trkpt lat="46.2549360" lon="10.5594710">
	<ele>1750.40</ele>
	<time>2024-03-09T10:29:35.000Z</time>
</trkpt>
<trkpt lat="46.2549350" lon="10.5594810">
	<ele>1750.60</ele>
	<time>2024-03-09T10:29:36.000Z</time>
</trkpt>
<trkpt lat="46.2549350" lon="10.5594910">
	<ele>1750.80</ele>
	<time>2024-03-09T10:29:37.000Z</time>
</trkpt>
<trkpt lat="46.2549330" lon="10.5594990">
	<ele>1750.80</ele>
	<time>2024-03-09T10:29:38.000Z</time>
</trkpt>
<trkpt lat="46.2549350" lon="10.5595100">
	<ele>1751.00</ele>
	<time>2024-03-09T10:29:39.000Z</time>
</trkpt>
<trkpt lat="46.2549320" lon="10.5595230">
	<ele>1751.20</ele>
	<time>2024-03-09T10:29:40.000Z</time>
</trkpt>
<trkpt lat="46.2549290" lon="10.5595340">
	<ele>1751.20</ele>
	<time>2024-03-09T10:29:41.000Z</time>
</trkpt>
<trkpt lat="46.2549280" lon="10.5595440">
	<ele>1751.20</ele>
	<time>2024-03-09T10:29:42.000Z</time>
</trkpt>
<trkpt lat="46.2549260" lon="10.5595560">
	<ele>1751.40</ele>
	<time>2024-03-09T10:29:43.000Z</time>
</trkpt>
<trkpt lat="46.2549220" lon="10.5595670">
	<ele>1751.40</ele>
	<time>2024-03-09T10:29:44.000Z</time>
</trkpt>
<trkpt lat="46.2549170" lon="10.5595750">
	<ele>1751.40</ele>
	<time>2024-03-09T10:29:45.000Z</time>
</trkpt>
<trkpt lat="46.2549130" lon="10.5595840">
	<ele>1751.60</ele>
	<time>2024-03-09T10:29:46.000Z</time>
</trkpt>
<trkpt lat="46.2549080" lon="10.5595960">
	<ele>1751.60</ele>
	<time>2024-03-09T10:29:47.000Z</time>
</trkpt>
<trkpt lat="46.2549030" lon="10.5596080">
	<ele>1751.80</ele>
	<time>2024-03-09T10:29:48.000Z</time>
</trkpt>
<trkpt lat="46.2549010" lon="10.5596170">
	<ele>1752.00</ele>
	<time>2024-03-09T10:29:49.000Z</time>
</trkpt>
<trkpt lat="46.2548980" lon="10.5596260">
	<ele>1752.20</ele>
	<time>2024-03-09T10:29:50.000Z</time>
</trkpt>
<trkpt lat="46.2548970" lon="10.5596370">
	<ele>1752.20</ele>
	<time>2024-03-09T10:29:51.000Z</time>
</trkpt>
<trkpt lat="46.2548950" lon="10.5596460">
	<ele>1752.40</ele>
	<time>2024-03-09T10:29:52.000Z</time>
</trkpt>
<trkpt lat="46.2548930" lon="10.5596550">
	<ele>1752.40</ele>
	<time>2024-03-09T10:29:53.000Z</time>
</trkpt>
<trkpt lat="46.2548870" lon="10.5596700">
	<ele>1752.60</ele>
	<time>2024-03-09T10:29:54.000Z</time>
</trkpt>
<trkpt lat="46.2548840" lon="10.5596800">
	<ele>1752.80</ele>
	<time>2024-03-09T10:29:55.000Z</time>
</trkpt>
<trkpt lat="46.2548820" lon="10.5596870">
	<ele>1753.00</ele>
	<time>2024-03-09T10:29:56.000Z</time>
</trkpt>
<trkpt lat="46.2548790" lon="10.5596980">
	<ele>1753.20</ele>
	<time>2024-03-09T10:29:57.000Z</time>
</trkpt>
<trkpt lat="46.2548760" lon="10.5597060">
	<ele>1753.20</ele>
	<time>2024-03-09T10:29:58.000Z</time>
</trkpt>
<trkpt lat="46.2548720" lon="10.5597160">
	<ele>1753.40</ele>
	<time>2024-03-09T10:29:59.000Z</time>
</trkpt>
<trkpt lat="46.2548700" lon="10.5597270">
	<ele>1753.40</ele>
	<time>2024-03-09T10:30:00.000Z</time>
</trkpt>
<trkpt lat="46.2548680" lon="10.5597350">
	<ele>1753.60</ele>
	<time>2024-03-09T10:30:01.000Z</time>
</trkpt>
<trkpt lat="46.2548660" lon="10.5597440">
	<ele>1754.00</ele>
	<time>2024-03-09T10:30:02.000Z</time>
</trkpt>
<trkpt lat="46.2548670" lon="10.5597580">
	<ele>1754.20</ele>
	<time>2024-03-09T10:30:03.000Z</time>
</trkpt>
<trkpt lat="46.2548640" lon="10.5597670">
	<ele>1754.20</ele>
	<time>2024-03-09T10:30:04.000Z</time>
</trkpt>
<trkpt lat="46.2548620" lon="10.5597770">
	<ele>1754.20</ele>
	<time>2024-03-09T10:30:05.000Z</time>
</trkpt>
<trkpt lat="46.2548590" lon="10.5597880">
	<ele>1754.20</ele>
	<time>2024-03-09T10:30:06.000Z</time>
</trkpt>
<trkpt lat="46.2548590" lon="10.5597940">
	<ele>1754.20</ele>
	<time>2024-03-09T10:30:07.000Z</time>
</trkpt>
<trkpt lat="46.2548560" lon="10.5598070">
	<ele>1754.20</ele>
	<time>2024-03-09T10:30:08.000Z</time>
</trkpt>
<trkpt lat="46.2548620" lon="10.5598100">
	<ele>1754.40</ele>
	<time>2024-03-09T10:30:09.000Z</time>
</trkpt>
<trkpt lat="46.2548580" lon="10.5598230">
	<ele>1754.60</ele>
	<time>2024-03-09T10:30:10.000Z</time>
</trkpt>
<trkpt lat="46.2548580" lon="10.5598380">
	<ele>1754.60</ele>
	<time>2024-03-09T10:30:11.000Z</time>
</trkpt>
<trkpt lat="46.2548560" lon="10.5598460">
	<ele>1754.80</ele>
	<time>2024-03-09T10:30:12.000Z</time>
</trkpt>
<trkpt lat="46.2548570" lon="10.5598560">
	<ele>1754.80</ele>
	<time>2024-03-09T10:30:13.000Z</time>
</trkpt>
<trkpt lat="46.2548540" lon="10.5598640">
	<ele>1754.80</ele>
	<time>2024-03-09T10:30:14.000Z</time>
</trkpt>
<trkpt lat="46.2548510" lon="10.5598760">
	<ele>1755.00</ele>
	<time>2024-03-09T10:30:15.000Z</time>
</trkpt>
<trkpt lat="46.2548490" lon="10.5598880">
	<ele>1755.20</ele>
	<time>2024-03-09T10:30:16.000Z</time>
</trkpt>
<trkpt lat="46.2548500" lon="10.5599000">
	<ele>1755.40</ele>
	<time>2024-03-09T10:30:17.000Z</time>
</trkpt>
<trkpt lat="46.2548510" lon="10.5599110">
	<ele>1755.60</ele>
	<time>2024-03-09T10:30:18.000Z</time>
</trkpt>
<trkpt lat="46.2548500" lon="10.5599240">
	<ele>1755.80</ele>
	<time>2024-03-09T10:30:19.000Z</time>
</trkpt>
<trkpt lat="46.2548480" lon="10.5599330">
	<ele>1756.00</ele>
	<time>2024-03-09T10:30:20.000Z</time>
</trkpt>
<trkpt lat="46.2548470" lon="10.5599400">
	<ele>1756.00</ele>
	<time>2024-03-09T10:30:21.000Z</time>
</trkpt>
<trkpt lat="46.2548460" lon="10.5599510">
	<ele>1756.00</ele>
	<time>2024-03-09T10:30:22.000Z</time>
</trkpt>
<trkpt lat="46.2548440" lon="10.5599620">
	<ele>1756.20</ele>
	<time>2024-03-09T10:30:23.000Z</time>
</trkpt>
<trkpt lat="46.2548430" lon="10.5599720">
	<ele>1756.20</ele>
	<time>2024-03-09T10:30:24.000Z</time>
</trkpt>
<trkpt lat="46.2548390" lon="10.5599850">
	<ele>1756.40</ele>
	<time>2024-03-09T10:30:25.000Z</time>
</trkpt>
<trkpt lat="46.2548340" lon="10.5599980">
	<ele>1756.60</ele>
	<time>2024-03-09T10:30:26.000Z</time>
</trkpt>
<trkpt lat="46.2548330" lon="10.5600070">
	<ele>1756.80</ele>
	<time>2024-03-09T10:30:27.000Z</time>
</trkpt>
<trkpt lat="46.2548330" lon="10.5600160">
	<ele>1756.80</ele>
	<time>2024-03-09T10:30:28.000Z</time>
</trkpt>
<trkpt lat="46.2548290" lon="10.5600280">
	<ele>1757.00</ele>
	<time>2024-03-09T10:30:29.000Z</time>
</trkpt>
<trkpt lat="46.2548280" lon="10.5600420">
	<ele>1757.00</ele>
	<time>2024-03-09T10:30:30.000Z</time>
</trkpt>
<trkpt lat="46.2548280" lon="10.5600560">
	<ele>1757.20</ele>
	<time>2024-03-09T10:30:31.000Z</time>
</trkpt>
<trkpt lat="46.2548260" lon="10.5600700">
	<ele>1757.20</ele>
	<time>2024-03-09T10:30:32.000Z</time>
</trkpt>
<trkpt lat="46.2548240" lon="10.5600820">
	<ele>1757.40</ele>
	<time>2024-03-09T10:30:33.000Z</time>
</trkpt>
<trkpt lat="46.2548220" lon="10.5600910">
	<ele>1757.40</ele>
	<time>2024-03-09T10:30:34.000Z</time>
</trkpt>
<trkpt lat="46.2548190" lon="10.5601030">
	<ele>1757.60</ele>
	<time>2024-03-09T10:30:35.000Z</time>
</trkpt>
<trkpt lat="46.2548190" lon="10.5601120">
	<ele>1757.60</ele>
	<time>2024-03-09T10:30:36.000Z</time>
</trkpt>
<trkpt lat="46.2548210" lon="10.5601170">
	<ele>1757.60</ele>
	<time>2024-03-09T10:30:37.000Z</time>
</trkpt>
<trkpt lat="46.2548210" lon="10.5601240">
	<ele>1757.60</ele>
	<time>2024-03-09T10:30:38.000Z</time>
</trkpt>
<trkpt lat="46.2548230" lon="10.5601320">
	<ele>1758.00</ele>
	<time>2024-03-09T10:30:39.000Z</time>
</trkpt>
<trkpt lat="46.2548260" lon="10.5601390">
	<ele>1758.20</ele>
	<time>2024-03-09T10:30:40.000Z</time>
</trkpt>
<trkpt lat="46.2548260" lon="10.5601440">
	<ele>1758.20</ele>
	<time>2024-03-09T10:30:41.000Z</time>
</trkpt>
<trkpt lat="46.2548270" lon="10.5601510">
	<ele>1758.40</ele>
	<time>2024-03-09T10:30:42.000Z</time>
</trkpt>
<trkpt lat="46.2548290" lon="10.5601580">
	<ele>1758.40</ele>
	<time>2024-03-09T10:30:43.000Z</time>
</trkpt>
<trkpt lat="46.2548300" lon="10.5601650">
	<ele>1758.40</ele>
	<time>2024-03-09T10:30:44.000Z</time>
</trkpt>
<trkpt lat="46.2548340" lon="10.5601730">
	<ele>1758.60</ele>
	<time>2024-03-09T10:30:45.000Z</time>
</trkpt>
<trkpt lat="46.2548400" lon="10.5601790">
	<ele>1758.80</ele>
	<time>2024-03-09T10:30:46.000Z</time>
</trkpt>
<trkpt lat="46.2548440" lon="10.5601860">
	<ele>1758.80</ele>
	<time>2024-03-09T10:30:47.000Z</time>
</trkpt>
<trkpt lat="46.2548510" lon="10.5601970">
	<ele>1759.00</ele>
	<time>2024-03-09T10:30:48.000Z</time>
</trkpt>
<trkpt lat="46.2548570" lon="10.5602030">
	<ele>1759.20</ele>
	<time>2024-03-09T10:30:49.000Z</time>
</trkpt>
<trkpt lat="46.2548660" lon="10.5602090">
	<ele>1759.40</ele>
	<time>2024-03-09T10:30:50.000Z</time>
</trkpt>
<trkpt lat="46.2548750" lon="10.5602150">
	<ele>1759.40</ele>
	<time>2024-03-09T10:30:51.000Z</time>
</trkpt>
<trkpt lat="46.2548780" lon="10.5602240">
	<ele>1759.40</ele>
	<time>2024-03-09T10:30:52.000Z</time>
</trkpt>
<trkpt lat="46.2548820" lon="10.5602300">
	<ele>1759.40</ele>
	<time>2024-03-09T10:30:53.000Z</time>
</trkpt>
<trkpt lat="46.2548830" lon="10.5602400">
	<ele>1759.40</ele>
	<time>2024-03-09T10:30:54.000Z</time>
</trkpt>
<trkpt lat="46.2548820" lon="10.5602550">
	<ele>1759.40</ele>
	<time>2024-03-09T10:30:55.000Z</time>
</trkpt>
<trkpt lat="46.2548860" lon="10.5602680">
	<ele>1759.40</ele>
	<time>2024-03-09T10:30:56.000Z</time>
</trkpt>
<trkpt lat="46.2548890" lon="10.5602790">
	<ele>1759.60</ele>
	<time>2024-03-09T10:30:57.000Z</time>
</trkpt>
<trkpt lat="46.2548910" lon="10.5602890">
	<ele>1759.60</ele>
	<time>2024-03-09T10:30:58.000Z</time>
</trkpt>
<trkpt lat="46.2548950" lon="10.5602980">
	<ele>1759.60</ele>
	<time>2024-03-09T10:30:59.000Z</time>
</trkpt>
<trkpt lat="46.2549000" lon="10.5603060">
	<ele>1759.80</ele>
	<time>2024-03-09T10:31:00.000Z</time>
</trkpt>
<trkpt lat="46.2549020" lon="10.5603150">
	<ele>1760.00</ele>
	<time>2024-03-09T10:31:01.000Z</time>
</trkpt>
<trkpt lat="46.2549040" lon="10.5603260">
	<ele>1760.20</ele>
	<time>2024-03-09T10:31:02.000Z</time>
</trkpt>
<trkpt lat="46.2549040" lon="10.5603360">
	<ele>1760.40</ele>
	<time>2024-03-09T10:31:03.000Z</time>
</trkpt>
<trkpt lat="46.2549070" lon="10.5603440">
	<ele>1760.40</ele>
	<time>2024-03-09T10:31:04.000Z</time>
</trkpt>
<trkpt lat="46.2549080" lon="10.5603540">
	<ele>1760.60</ele>
	<time>2024-03-09T10:31:05.000Z</time>
</trkpt>
<trkpt lat="46.2549130" lon="10.5603590">
	<ele>1760.60</ele>
	<time>2024-03-09T10:31:06.000Z</time>
</trkpt>
<trkpt lat="46.2549130" lon="10.5603670">
	<ele>1760.60</ele>
	<time>2024-03-09T10:31:07.000Z</time>
</trkpt>
<trkpt lat="46.2549190" lon="10.5603750">
	<ele>1760.60</ele>
	<time>2024-03-09T10:31:08.000Z</time>
</trkpt>
<trkpt lat="46.2549230" lon="10.5603790">
	<ele>1760.80</ele>
	<time>2024-03-09T10:31:09.000Z</time>
</trkpt>
<trkpt lat="46.2549290" lon="10.5603880">
	<ele>1760.80</ele>
	<time>2024-03-09T10:31:10.000Z</time>
</trkpt>
<trkpt lat="46.2549310" lon="10.5603960">
	<ele>1761.00</ele>
	<time>2024-03-09T10:31:11.000Z</time>
</trkpt>
<trkpt lat="46.2549340" lon="10.5604040">
	<ele>1761.20</ele>
	<time>2024-03-09T10:31:12.000Z</time>
</trkpt>
<trkpt lat="46.2549390" lon="10.5604110">
	<ele>1761.20</ele>
	<time>2024-03-09T10:31:13.000Z</time>
</trkpt>
<trkpt lat="46.2549430" lon="10.5604190">
	<ele>1761.40</ele>
	<time>2024-03-09T10:31:14.000Z</time>
</trkpt>
<trkpt lat="46.2549490" lon="10.5604240">
	<ele>1761.40</ele>
	<time>2024-03-09T10:31:15.000Z</time>
</trkpt>
<trkpt lat="46.2549560" lon="10.5604310">
	<ele>1761.60</ele>
	<time>2024-03-09T10:31:16.000Z</time>
</trkpt>
<trkpt lat="46.2549610" lon="10.5604410">
	<ele>1761.60</ele>
	<time>2024-03-09T10:31:17.000Z</time>
</trkpt>
<trkpt lat="46.2549640" lon="10.5604480">
	<ele>1761.60</ele>
	<time>2024-03-09T10:31:18.000Z</time>
</trkpt>
<trkpt lat="46.2549700" lon="10.5604540">
	<ele>1761.60</ele>
	<time>2024-03-09T10:31:19.000Z</time>
</trkpt>
<trkpt lat="46.2549730" lon="10.5604620">
	<ele>1761.80</ele>
	<time>2024-03-09T10:31:20.000Z</time>
</trkpt>
<trkpt lat="46.2549770" lon="10.5604700">
	<ele>1762.00</ele>
	<time>2024-03-09T10:31:21.000Z</time>
</trkpt>
<trkpt lat="46.2549790" lon="10.5604770">
	<ele>1762.00</ele>
	<time>2024-03-09T10:31:22.000Z</time>
</trkpt>
<trkpt lat="46.2549790" lon="10.5604860">
	<ele>1762.20</ele>
	<time>2024-03-09T10:31:23.000Z</time>
</trkpt>
<trkpt lat="46.2549810" lon="10.5604950">
	<ele>1762.20</ele>
	<time>2024-03-09T10:31:24.000Z</time>
</trkpt>
<trkpt lat="46.2549860" lon="10.5605040">
	<ele>1762.20</ele>
	<time>2024-03-09T10:31:25.000Z</time>
</trkpt>
<trkpt lat="46.2549880" lon="10.5605200">
	<ele>1762.20</ele>
	<time>2024-03-09T10:31:26.000Z</time>
</trkpt>
<trkpt lat="46.2549890" lon="10.5605260">
	<ele>1762.20</ele>
	<time>2024-03-09T10:31:27.000Z</time>
</trkpt>
<trkpt lat="46.2549880" lon="10.5605290">
	<ele>1762.20</ele>
	<time>2024-03-09T10:31:28.000Z</time>
</trkpt>
<trkpt lat="46.2549870" lon="10.5605310">
	<ele>1762.20</ele>
	<time>2024-03-09T10:31:29.000Z</time>
</trkpt>
<trkpt lat="46.2549870" lon="10.5605320">
	<ele>1762.20</ele>
	<time>2024-03-09T10:31:30.000Z</time>
</trkpt>
<trkpt lat="46.2549860" lon="10.5605310">
	<ele>1762.20</ele>
	<time>2024-03-09T10:31:31.000Z</time>
</trkpt>
<trkpt lat="46.2549870" lon="10.5605320">
	<ele>1762.20</ele>
	<time>2024-03-09T10:31:32.000Z</time>
</trkpt>
<trkpt lat="46.2549890" lon="10.5605340">
	<ele>1762.20</ele>
	<time>2024-03-09T10:31:33.000Z</time>
</trkpt>
<trkpt lat="46.2549910" lon="10.5605360">
	<ele>1762.20</ele>
	<time>2024-03-09T10:31:34.000Z</time>
</trkpt>
<trkpt lat="46.2549930" lon="10.5605360">
	<ele>1762.40</ele>
	<time>2024-03-09T10:31:35.000Z</time>
</trkpt>
<trkpt lat="46.2549920" lon="10.5605360">
	<ele>1762.40</ele>
	<time>2024-03-09T10:31:36.000Z</time>
</trkpt>
<trkpt lat="46.2549910" lon="10.5605380">
	<ele>1762.40</ele>
	<time>2024-03-09T10:31:37.000Z</time>
</trkpt>
<trkpt lat="46.2549890" lon="10.5605390">
	<ele>1762.40</ele>
	<time>2024-03-09T10:31:38.000Z</time>
</trkpt>
<trkpt lat="46.2549890" lon="10.5605390">
	<ele>1762.40</ele>
	<time>2024-03-09T10:31:39.000Z</time>
</trkpt>
<trkpt lat="46.2549890" lon="10.5605390">
	<ele>1762.40</ele>
	<time>2024-03-09T10:31:40.000Z</time>
</trkpt>
<trkpt lat="46.2549890" lon="10.5605390">
	<ele>1762.40</ele>
	<time>2024-03-09T10:31:41.000Z</time>
</trkpt>
<trkpt lat="46.2549890" lon="10.5605390">
	<ele>1762.40</ele>
	<time>2024-03-09T10:31:42.000Z</time>
</trkpt>
<trkpt lat="46.2549890" lon="10.5605390">
	<ele>1762.40</ele>
	<time>2024-03-09T10:31:43.000Z</time>
</trkpt>
<trkpt lat="46.2549890" lon="10.5605390">
	<ele>1762.40</ele>
	<time>2024-03-09T10:31:44.000Z</time>
</trkpt>
<trkpt lat="46.2549890" lon="10.5605390">
	<ele>1762.40</ele>
	<time>2024-03-09T10:31:45.000Z</time>
</trkpt>
<trkpt lat="46.2549890" lon="10.5605390">
	<ele>1762.40</ele>
	<time>2024-03-09T10:31:46.000Z</time>
</trkpt>
<trkpt lat="46.2549890" lon="10.5605390">
	<ele>1762.40</ele>
	<time>2024-03-09T10:31:47.000Z</time>
</trkpt>
<trkpt lat="46.2549890" lon="10.5605390">
	<ele>1762.40</ele>
	<time>2024-03-09T10:31:48.000Z</time>
</trkpt>
<trkpt lat="46.2549890" lon="10.5605390">
	<ele>1762.40</ele>
	<time>2024-03-09T10:31:49.000Z</time>
</trkpt>
<trkpt lat="46.2549890" lon="10.5605390">
	<ele>1762.40</ele>
	<time>2024-03-09T10:31:50.000Z</time>
</trkpt>
<trkpt lat="46.2549890" lon="10.5605390">
	<ele>1762.40</ele>
	<time>2024-03-09T10:31:51.000Z</time>
</trkpt>
<trkpt lat="46.2549900" lon="10.5605390">
	<ele>1762.40</ele>
	<time>2024-03-09T10:31:52.000Z</time>
</trkpt>
<trkpt lat="46.2549900" lon="10.5605390">
	<ele>1762.20</ele>
	<time>2024-03-09T10:31:53.000Z</time>
</trkpt>
<trkpt lat="46.2549910" lon="10.5605390">
	<ele>1762.20</ele>
	<time>2024-03-09T10:31:54.000Z</time>
</trkpt>
<trkpt lat="46.2549910" lon="10.5605390">
	<ele>1762.20</ele>
	<time>2024-03-09T10:31:55.000Z</time>
</trkpt>
<trkpt lat="46.2549920" lon="10.5605390">
	<ele>1762.20</ele>
	<time>2024-03-09T10:31:56.000Z</time>
</trkpt>
<trkpt lat="46.2549920" lon="10.5605380">
	<ele>1762.20</ele>
	<time>2024-03-09T10:31:57.000Z</time>
</trkpt>
<trkpt lat="46.2549930" lon="10.5605380">
	<ele>1762.20</ele>
	<time>2024-03-09T10:31:58.000Z</time>
</trkpt>
<trkpt lat="46.2549940" lon="10.5605380">
	<ele>1762.20</ele>
	<time>2024-03-09T10:31:59.000Z</time>
</trkpt>
<trkpt lat="46.2549960" lon="10.5605380">
	<ele>1762.20</ele>
	<time>2024-03-09T10:32:00.000Z</time>
</trkpt>
<trkpt lat="46.2549990" lon="10.5605380">
	<ele>1761.80</ele>
	<time>2024-03-09T10:32:01.000Z</time>
</trkpt>
<trkpt lat="46.2550020" lon="10.5605380">
	<ele>1761.60</ele>
	<time>2024-03-09T10:32:02.000Z</time>
</trkpt>
<trkpt lat="46.2550020" lon="10.5605380">
	<ele>1761.60</ele>
	<time>2024-03-09T10:32:03.000Z</time>
</trkpt>
<trkpt lat="46.2550020" lon="10.5605380">
	<ele>1761.40</ele>
	<time>2024-03-09T10:32:04.000Z</time>
</trkpt>
<trkpt lat="46.2550030" lon="10.5605380">
	<ele>1761.40</ele>
	<time>2024-03-09T10:32:05.000Z</time>
</trkpt>
<trkpt lat="46.2550030" lon="10.5605380">
	<ele>1761.40</ele>
	<time>2024-03-09T10:32:06.000Z</time>
</trkpt>
<trkpt lat="46.2550050" lon="10.5605380">
	<ele>1761.20</ele>
	<time>2024-03-09T10:32:07.000Z</time>
</trkpt>
<trkpt lat="46.2550080" lon="10.5605370">
	<ele>1761.40</ele>
	<time>2024-03-09T10:32:08.000Z</time>
</trkpt>
<trkpt lat="46.2550090" lon="10.5605370">
	<ele>1761.40</ele>
	<time>2024-03-09T10:32:09.000Z</time>
</trkpt>
<trkpt lat="46.2550110" lon="10.5605360">
	<ele>1761.40</ele>
	<time>2024-03-09T10:32:10.000Z</time>
</trkpt>
<trkpt lat="46.2550110" lon="10.5605360">
	<ele>1761.40</ele>
	<time>2024-03-09T10:32:11.000Z</time>
</trkpt>
<trkpt lat="46.2550120" lon="10.5605350">
	<ele>1761.60</ele>
	<time>2024-03-09T10:32:12.000Z</time>
</trkpt>
<trkpt lat="46.2550120" lon="10.5605340">
	<ele>1761.60</ele>
	<time>2024-03-09T10:32:13.000Z</time>
</trkpt>
<trkpt lat="46.2550140" lon="10.5605320">
	<ele>1761.60</ele>
	<time>2024-03-09T10:32:14.000Z</time>
</trkpt>
<trkpt lat="46.2550180" lon="10.5605310">
	<ele>1761.60</ele>
	<time>2024-03-09T10:32:15.000Z</time>
</trkpt>
<trkpt lat="46.2550200" lon="10.5605290">
	<ele>1761.60</ele>
	<time>2024-03-09T10:32:16.000Z</time>
</trkpt>
<trkpt lat="46.2550210" lon="10.5605270">
	<ele>1761.60</ele>
	<time>2024-03-09T10:32:17.000Z</time>
</trkpt>
<trkpt lat="46.2550220" lon="10.5605250">
	<ele>1761.60</ele>
	<time>2024-03-09T10:32:18.000Z</time>
</trkpt>
<trkpt lat="46.2550220" lon="10.5605240">
	<ele>1761.60</ele>
	<time>2024-03-09T10:32:19.000Z</time>
</trkpt>
<trkpt lat="46.2550220" lon="10.5605220">
	<ele>1761.60</ele>
	<time>2024-03-09T10:32:20.000Z</time>
</trkpt>
<trkpt lat="46.2550220" lon="10.5605220">
	<ele>1761.60</ele>
	<time>2024-03-09T10:32:21.000Z</time>
</trkpt>
<trkpt lat="46.2550220" lon="10.5605220">
	<ele>1761.60</ele>
	<time>2024-03-09T10:32:22.000Z</time>
</trkpt>
<trkpt lat="46.2550220" lon="10.5605220">
	<ele>1761.60</ele>
	<time>2024-03-09T10:32:23.000Z</time>
</trkpt>
<trkpt lat="46.2550220" lon="10.5605220">
	<ele>1761.60</ele>
	<time>2024-03-09T10:32:24.000Z</time>
</trkpt>
<trkpt lat="46.2550220" lon="10.5605220">
	<ele>1761.60</ele>
	<time>2024-03-09T10:32:25.000Z</time>
</trkpt>
<trkpt lat="46.2550220" lon="10.5605220">
	<ele>1761.80</ele>
	<time>2024-03-09T10:32:26.000Z</time>
</trkpt>
<trkpt lat="46.2550220" lon="10.5605220">
	<ele>1761.80</ele>
	<time>2024-03-09T10:32:27.000Z</time>
</trkpt>
<trkpt lat="46.2550220" lon="10.5605220">
	<ele>1761.80</ele>
	<time>2024-03-09T10:32:28.000Z</time>
</trkpt>
<trkpt lat="46.2550220" lon="10.5605220">
	<ele>1761.80</ele>
	<time>2024-03-09T10:32:29.000Z</time>
</trkpt>
<trkpt lat="46.2550220" lon="10.5605220">
	<ele>1761.80</ele>
	<time>2024-03-09T10:32:30.000Z</time>
</trkpt>
<trkpt lat="46.2550220" lon="10.5605220">
	<ele>1761.80</ele>
	<time>2024-03-09T10:32:31.000Z</time>
</trkpt>
<trkpt lat="46.2550220" lon="10.5605220">
	<ele>1761.80</ele>
	<time>2024-03-09T10:32:32.000Z</time>
</trkpt>
<trkpt lat="46.2550220" lon="10.5605220">
	<ele>1761.80</ele>
	<time>2024-03-09T10:32:33.000Z</time>
</trkpt>
<trkpt lat="46.2550210" lon="10.5605220">
	<ele>1761.80</ele>
	<time>2024-03-09T10:32:34.000Z</time>
</trkpt>
<trkpt lat="46.2550210" lon="10.5605220">
	<ele>1761.80</ele>
	<time>2024-03-09T10:32:35.000Z</time>
</trkpt>
<trkpt lat="46.2550200" lon="10.5605230">
	<ele>1761.60</ele>
	<time>2024-03-09T10:32:36.000Z</time>
</trkpt>
<trkpt lat="46.2550190" lon="10.5605240">
	<ele>1761.60</ele>
	<time>2024-03-09T10:32:37.000Z</time>
</trkpt>
<trkpt lat="46.2550180" lon="10.5605250">
	<ele>1761.60</ele>
	<time>2024-03-09T10:32:38.000Z</time>
</trkpt>
<trkpt lat="46.2550170" lon="10.5605260">
	<ele>1761.60</ele>
	<time>2024-03-09T10:32:39.000Z</time>
</trkpt>
<trkpt lat="46.2550170" lon="10.5605260">
	<ele>1761.60</ele>
	<time>2024-03-09T10:32:40.000Z</time>
</trkpt>
<trkpt lat="46.2550170" lon="10.5605260">
	<ele>1761.60</ele>
	<time>2024-03-09T10:32:41.000Z</time>
</trkpt>
<trkpt lat="46.2550170" lon="10.5605260">
	<ele>1761.60</ele>
	<time>2024-03-09T10:32:42.000Z</time>
</trkpt>
<trkpt lat="46.2550170" lon="10.5605270">
	<ele>1761.60</ele>
	<time>2024-03-09T10:32:43.000Z</time>
</trkpt>
<trkpt lat="46.2550170" lon="10.5605270">
	<ele>1761.60</ele>
	<time>2024-03-09T10:32:44.000Z</time>
</trkpt>
<trkpt lat="46.2550160" lon="10.5605280">
	<ele>1761.60</ele>
	<time>2024-03-09T10:32:45.000Z</time>
</trkpt>
<trkpt lat="46.2550160" lon="10.5605280">
	<ele>1761.60</ele>
	<time>2024-03-09T10:32:46.000Z</time>
</trkpt>
<trkpt lat="46.2550150" lon="10.5605280">
	<ele>1761.60</ele>
	<time>2024-03-09T10:32:47.000Z</time>
</trkpt>
<trkpt lat="46.2550150" lon="10.5605290">
	<ele>1761.60</ele>
	<time>2024-03-09T10:32:48.000Z</time>
</trkpt>
<trkpt lat="46.2550130" lon="10.5605300">
	<ele>1761.60</ele>
	<time>2024-03-09T10:32:49.000Z</time>
</trkpt>
<trkpt lat="46.2550120" lon="10.5605300">
	<ele>1761.60</ele>
	<time>2024-03-09T10:32:50.000Z</time>
</trkpt>
<trkpt lat="46.2550120" lon="10.5605300">
	<ele>1761.60</ele>
	<time>2024-03-09T10:32:51.000Z</time>
</trkpt>
<trkpt lat="46.2550120" lon="10.5605300">
	<ele>1761.60</ele>
	<time>2024-03-09T10:32:52.000Z</time>
</trkpt>
<trkpt lat="46.2550110" lon="10.5605300">
	<ele>1761.60</ele>
	<time>2024-03-09T10:32:53.000Z</time>
</trkpt>
<trkpt lat="46.2550110" lon="10.5605300">
	<ele>1761.60</ele>
	<time>2024-03-09T10:32:54.000Z</time>
</trkpt>
<trkpt lat="46.2550090" lon="10.5605310">
	<ele>1761.60</ele>
	<time>2024-03-09T10:32:55.000Z</time>
</trkpt>
<trkpt lat="46.2550080" lon="10.5605320">
	<ele>1761.60</ele>
	<time>2024-03-09T10:32:56.000Z</time>
</trkpt>
<trkpt lat="46.2550080" lon="10.5605330">
	<ele>1761.60</ele>
	<time>2024-03-09T10:32:57.000Z</time>
</trkpt>
<trkpt lat="46.2550080" lon="10.5605340">
	<ele>1761.60</ele>
	<time>2024-03-09T10:32:58.000Z</time>
</trkpt>
<trkpt lat="46.2550080" lon="10.5605340">
	<ele>1761.60</ele>
	<time>2024-03-09T10:32:59.000Z</time>
</trkpt>
<trkpt lat="46.2550080" lon="10.5605340">
	<ele>1761.60</ele>
	<time>2024-03-09T10:33:00.000Z</time>
</trkpt>
<trkpt lat="46.2550070" lon="10.5605340">
	<ele>1761.60</ele>
	<time>2024-03-09T10:33:01.000Z</time>
</trkpt>
<trkpt lat="46.2550050" lon="10.5605350">
	<ele>1761.60</ele>
	<time>2024-03-09T10:33:02.000Z</time>
</trkpt>
<trkpt lat="46.2550040" lon="10.5605350">
	<ele>1761.60</ele>
	<time>2024-03-09T10:33:03.000Z</time>
</trkpt>
<trkpt lat="46.2550030" lon="10.5605350">
	<ele>1761.60</ele>
	<time>2024-03-09T10:33:04.000Z</time>
</trkpt>
<trkpt lat="46.2550010" lon="10.5605350">
	<ele>1761.40</ele>
	<time>2024-03-09T10:33:05.000Z</time>
</trkpt>
<trkpt lat="46.2550000" lon="10.5605350">
	<ele>1761.40</ele>
	<time>2024-03-09T10:33:06.000Z</time>
</trkpt>
<trkpt lat="46.2550000" lon="10.5605350">
	<ele>1761.40</ele>
	<time>2024-03-09T10:33:07.000Z</time>
</trkpt>
<trkpt lat="46.2549990" lon="10.5605350">
	<ele>1761.40</ele>
	<time>2024-03-09T10:33:08.000Z</time>
</trkpt>
<trkpt lat="46.2549980" lon="10.5605360">
	<ele>1761.40</ele>
	<time>2024-03-09T10:33:09.000Z</time>
</trkpt>
<trkpt lat="46.2549980" lon="10.5605370">
	<ele>1761.40</ele>
	<time>2024-03-09T10:33:10.000Z</time>
</trkpt>
<trkpt lat="46.2549980" lon="10.5605380">
	<ele>1761.20</ele>
	<time>2024-03-09T10:33:11.000Z</time>
</trkpt>
<trkpt lat="46.2549940" lon="10.5605430">
	<ele>1761.20</ele>
	<time>2024-03-09T10:33:12.000Z</time>
</trkpt>
<trkpt lat="46.2549910" lon="10.5605460">
	<ele>1761.20</ele>
	<time>2024-03-09T10:33:13.000Z</time>
</trkpt>
<trkpt lat="46.2549890" lon="10.5605490">
	<ele>1761.20</ele>
	<time>2024-03-09T10:33:14.000Z</time>
</trkpt>
<trkpt lat="46.2549890" lon="10.5605500">
	<ele>1761.20</ele>
	<time>2024-03-09T10:33:15.000Z</time>
</trkpt>
<trkpt lat="46.2549880" lon="10.5605510">
	<ele>1761.40</ele>
	<time>2024-03-09T10:33:16.000Z</time>
</trkpt>
<trkpt lat="46.2549870" lon="10.5605510">
	<ele>1761.40</ele>
	<time>2024-03-09T10:33:17.000Z</time>
</trkpt>
<trkpt lat="46.2549870" lon="10.5605510">
	<ele>1761.40</ele>
	<time>2024-03-09T10:33:18.000Z</time>
</trkpt>
<trkpt lat="46.2549860" lon="10.5605510">
	<ele>1761.60</ele>
	<time>2024-03-09T10:33:19.000Z</time>
</trkpt>
<trkpt lat="46.2549840" lon="10.5605510">
	<ele>1761.60</ele>
	<time>2024-03-09T10:33:20.000Z</time>
</trkpt>
<trkpt lat="46.2549840" lon="10.5605510">
	<ele>1761.60</ele>
	<time>2024-03-09T10:33:21.000Z</time>
</trkpt>
<trkpt lat="46.2549800" lon="10.5605510">
	<ele>1761.60</ele>
	<time>2024-03-09T10:33:22.000Z</time>
</trkpt>
<trkpt lat="46.2549760" lon="10.5605520">
	<ele>1761.80</ele>
	<time>2024-03-09T10:33:23.000Z</time>
</trkpt>
<trkpt lat="46.2549740" lon="10.5605520">
	<ele>1761.80</ele>
	<time>2024-03-09T10:33:24.000Z</time>
</trkpt>
<trkpt lat="46.2549730" lon="10.5605520">
	<ele>1761.80</ele>
	<time>2024-03-09T10:33:25.000Z</time>
</trkpt>
<trkpt lat="46.2549720" lon="10.5605520">
	<ele>1762.00</ele>
	<time>2024-03-09T10:33:26.000Z</time>
</trkpt>
<trkpt lat="46.2549720" lon="10.5605520">
	<ele>1762.00</ele>
	<time>2024-03-09T10:33:27.000Z</time>
</trkpt>
<trkpt lat="46.2549720" lon="10.5605520">
	<ele>1761.80</ele>
	<time>2024-03-09T10:33:28.000Z</time>
</trkpt>
<trkpt lat="46.2549720" lon="10.5605520">
	<ele>1761.60</ele>
	<time>2024-03-09T10:33:29.000Z</time>
</trkpt>
<trkpt lat="46.2549720" lon="10.5605520">
	<ele>1761.40</ele>
	<time>2024-03-09T10:33:30.000Z</time>
</trkpt>
<trkpt lat="46.2549720" lon="10.5605520">
	<ele>1761.40</ele>
	<time>2024-03-09T10:33:31.000Z</time>
</trkpt>
<trkpt lat="46.2549720" lon="10.5605520">
	<ele>1761.20</ele>
	<time>2024-03-09T10:33:32.000Z</time>
</trkpt>
<trkpt lat="46.2549710" lon="10.5605510">
	<ele>1761.20</ele>
	<time>2024-03-09T10:33:33.000Z</time>
</trkpt>
<trkpt lat="46.2549710" lon="10.5605500">
	<ele>1761.20</ele>
	<time>2024-03-09T10:33:34.000Z</time>
</trkpt>
<trkpt lat="46.2549710" lon="10.5605480">
	<ele>1761.00</ele>
	<time>2024-03-09T10:33:35.000Z</time>
</trkpt>
<trkpt lat="46.2549710" lon="10.5605470">
	<ele>1761.00</ele>
	<time>2024-03-09T10:33:36.000Z</time>
</trkpt>
<trkpt lat="46.2549710" lon="10.5605460">
	<ele>1761.00</ele>
	<time>2024-03-09T10:33:37.000Z</time>
</trkpt>
<trkpt lat="46.2549710" lon="10.5605450">
	<ele>1761.00</ele>
	<time>2024-03-09T10:33:38.000Z</time>
</trkpt>
<trkpt lat="46.2549710" lon="10.5605440">
	<ele>1760.80</ele>
	<time>2024-03-09T10:33:39.000Z</time>
</trkpt>
<trkpt lat="46.2549720" lon="10.5605430">
	<ele>1760.80</ele>
	<time>2024-03-09T10:33:40.000Z</time>
</trkpt>
<trkpt lat="46.2549720" lon="10.5605420">
	<ele>1760.80</ele>
	<time>2024-03-09T10:33:41.000Z</time>
</trkpt>
<trkpt lat="46.2549720" lon="10.5605410">
	<ele>1760.80</ele>
	<time>2024-03-09T10:33:42.000Z</time>
</trkpt>
<trkpt lat="46.2549720" lon="10.5605410">
	<ele>1760.80</ele>
	<time>2024-03-09T10:33:43.000Z</time>
</trkpt>
<trkpt lat="46.2549720" lon="10.5605410">
	<ele>1760.80</ele>
	<time>2024-03-09T10:33:44.000Z</time>
</trkpt>
<trkpt lat="46.2549730" lon="10.5605400">
	<ele>1760.80</ele>
	<time>2024-03-09T10:33:45.000Z</time>
</trkpt>
<trkpt lat="46.2549730" lon="10.5605400">
	<ele>1760.80</ele>
	<time>2024-03-09T10:33:46.000Z</time>
</trkpt>
<trkpt lat="46.2549730" lon="10.5605390">
	<ele>1760.80</ele>
	<time>2024-03-09T10:33:47.000Z</time>
</trkpt>
<trkpt lat="46.2549750" lon="10.5605390">
	<ele>1760.80</ele>
	<time>2024-03-09T10:33:48.000Z</time>
</trkpt>
<trkpt lat="46.2549770" lon="10.5605380">
	<ele>1760.80</ele>
	<time>2024-03-09T10:33:49.000Z</time>
</trkpt>
<trkpt lat="46.2549790" lon="10.5605380">
	<ele>1760.80</ele>
	<time>2024-03-09T10:33:50.000Z</time>
</trkpt>
<trkpt lat="46.2549800" lon="10.5605370">
	<ele>1760.80</ele>
	<time>2024-03-09T10:33:51.000Z</time>
</trkpt>
<trkpt lat="46.2549810" lon="10.5605370">
	<ele>1760.80</ele>
	<time>2024-03-09T10:33:52.000Z</time>
</trkpt>
<trkpt lat="46.2549820" lon="10.5605350">
	<ele>1760.80</ele>
	<time>2024-03-09T10:33:53.000Z</time>
</trkpt>
<trkpt lat="46.2549820" lon="10.5605340">
	<ele>1760.80</ele>
	<time>2024-03-09T10:33:54.000Z</time>
</trkpt>
<trkpt lat="46.2549830" lon="10.5605330">
	<ele>1761.00</ele>
	<time>2024-03-09T10:33:55.000Z</time>
</trkpt>
<trkpt lat="46.2549830" lon="10.5605330">
	<ele>1761.00</ele>
	<time>2024-03-09T10:33:56.000Z</time>
</trkpt>
<trkpt lat="46.2549840" lon="10.5605330">
	<ele>1761.20</ele>
	<time>2024-03-09T10:33:57.000Z</time>
</trkpt>
<trkpt lat="46.2549840" lon="10.5605320">
	<ele>1761.20</ele>
	<time>2024-03-09T10:33:58.000Z</time>
</trkpt>
<trkpt lat="46.2549840" lon="10.5605320">
	<ele>1761.20</ele>
	<time>2024-03-09T10:33:59.000Z</time>
</trkpt>
<trkpt lat="46.2549840" lon="10.5605320">
	<ele>1761.40</ele>
	<time>2024-03-09T10:34:00.000Z</time>
</trkpt>
<trkpt lat="46.2549840" lon="10.5605320">
	<ele>1761.40</ele>
	<time>2024-03-09T10:34:01.000Z</time>
</trkpt>
<trkpt lat="46.2549840" lon="10.5605320">
	<ele>1761.40</ele>
	<time>2024-03-09T10:34:02.000Z</time>
</trkpt>
<trkpt lat="46.2549850" lon="10.5605320">
	<ele>1761.20</ele>
	<time>2024-03-09T10:34:03.000Z</time>
</trkpt>
<trkpt lat="46.2549850" lon="10.5605320">
	<ele>1761.20</ele>
	<time>2024-03-09T10:34:04.000Z</time>
</trkpt>
<trkpt lat="46.2549850" lon="10.5605320">
	<ele>1761.20</ele>
	<time>2024-03-09T10:34:05.000Z</time>
</trkpt>
<trkpt lat="46.2549850" lon="10.5605320">
	<ele>1761.20</ele>
	<time>2024-03-09T10:34:06.000Z</time>
</trkpt>
<trkpt lat="46.2549850" lon="10.5605310">
	<ele>1761.20</ele>
	<time>2024-03-09T10:34:07.000Z</time>
</trkpt>
<trkpt lat="46.2549850" lon="10.5605310">
	<ele>1761.20</ele>
	<time>2024-03-09T10:34:08.000Z</time>
</trkpt>
<trkpt lat="46.2549850" lon="10.5605310">
	<ele>1761.20</ele>
	<time>2024-03-09T10:34:09.000Z</time>
</trkpt>
<trkpt lat="46.2549860" lon="10.5605310">
	<ele>1761.20</ele>
	<time>2024-03-09T10:34:10.000Z</time>
</trkpt>
<trkpt lat="46.2549860" lon="10.5605310">
	<ele>1761.20</ele>
	<time>2024-03-09T10:34:11.000Z</time>
</trkpt>
<trkpt lat="46.2549850" lon="10.5605310">
	<ele>1761.20</ele>
	<time>2024-03-09T10:34:12.000Z</time>
</trkpt>
<trkpt lat="46.2549850" lon="10.5605310">
	<ele>1761.20</ele>
	<time>2024-03-09T10:34:13.000Z</time>
</trkpt>
<trkpt lat="46.2549850" lon="10.5605320">
	<ele>1761.20</ele>
	<time>2024-03-09T10:34:14.000Z</time>
</trkpt>
<trkpt lat="46.2549840" lon="10.5605320">
	<ele>1761.40</ele>
	<time>2024-03-09T10:34:15.000Z</time>
</trkpt>
<trkpt lat="46.2549840" lon="10.5605320">
	<ele>1761.40</ele>
	<time>2024-03-09T10:34:16.000Z</time>
</trkpt>
<trkpt lat="46.2549840" lon="10.5605320">
	<ele>1761.60</ele>
	<time>2024-03-09T10:34:17.000Z</time>
</trkpt>
<trkpt lat="46.2549840" lon="10.5605320">
	<ele>1761.60</ele>
	<time>2024-03-09T10:34:18.000Z</time>
</trkpt>
<trkpt lat="46.2549840" lon="10.5605310">
	<ele>1761.80</ele>
	<time>2024-03-09T10:34:19.000Z</time>
</trkpt>
<trkpt lat="46.2549830" lon="10.5605310">
	<ele>1761.80</ele>
	<time>2024-03-09T10:34:20.000Z</time>
</trkpt>
<trkpt lat="46.2549830" lon="10.5605310">
	<ele>1761.80</ele>
	<time>2024-03-09T10:34:21.000Z</time>
</trkpt>
<trkpt lat="46.2549830" lon="10.5605310">
	<ele>1761.80</ele>
	<time>2024-03-09T10:34:22.000Z</time>
</trkpt>
<trkpt lat="46.2549830" lon="10.5605310">
	<ele>1761.80</ele>
	<time>2024-03-09T10:34:23.000Z</time>
</trkpt>
<trkpt lat="46.2549830" lon="10.5605310">
	<ele>1761.80</ele>
	<time>2024-03-09T10:34:24.000Z</time>
</trkpt>
<trkpt lat="46.2549830" lon="10.5605310">
	<ele>1761.60</ele>
	<time>2024-03-09T10:34:25.000Z</time>
</trkpt>
<trkpt lat="46.2549830" lon="10.5605310">
	<ele>1761.80</ele>
	<time>2024-03-09T10:34:26.000Z</time>
</trkpt>
<trkpt lat="46.2549820" lon="10.5605310">
	<ele>1761.80</ele>
	<time>2024-03-09T10:34:27.000Z</time>
</trkpt>
<trkpt lat="46.2549820" lon="10.5605310">
	<ele>1761.60</ele>
	<time>2024-03-09T10:34:28.000Z</time>
</trkpt>
<trkpt lat="46.2549820" lon="10.5605310">
	<ele>1761.80</ele>
	<time>2024-03-09T10:34:29.000Z</time>
</trkpt>
<trkpt lat="46.2549820" lon="10.5605310">
	<ele>1761.80</ele>
	<time>2024-03-09T10:34:30.000Z</time>
</trkpt>
<trkpt lat="46.2549820" lon="10.5605310">
	<ele>1761.80</ele>
	<time>2024-03-09T10:34:31.000Z</time>
</trkpt>
<trkpt lat="46.2549820" lon="10.5605310">
	<ele>1761.80</ele>
	<time>2024-03-09T10:34:32.000Z</time>
</trkpt>
<trkpt lat="46.2549820" lon="10.5605300">
	<ele>1761.80</ele>
	<time>2024-03-09T10:34:33.000Z</time>
</trkpt>
<trkpt lat="46.2549820" lon="10.5605300">
	<ele>1761.80</ele>
	<time>2024-03-09T10:34:34.000Z</time>
</trkpt>
<trkpt lat="46.2549820" lon="10.5605300">
	<ele>1762.00</ele>
	<time>2024-03-09T10:34:35.000Z</time>
</trkpt>
<trkpt lat="46.2549820" lon="10.5605300">
	<ele>1762.00</ele>
	<time>2024-03-09T10:34:36.000Z</time>
</trkpt>
<trkpt lat="46.2549820" lon="10.5605290">
	<ele>1762.00</ele>
	<time>2024-03-09T10:34:37.000Z</time>
</trkpt>
<trkpt lat="46.2549820" lon="10.5605290">
	<ele>1762.00</ele>
	<time>2024-03-09T10:34:38.000Z</time>
</trkpt>
<trkpt lat="46.2549820" lon="10.5605290">
	<ele>1762.00</ele>
	<time>2024-03-09T10:34:39.000Z</time>
</trkpt>
<trkpt lat="46.2549820" lon="10.5605290">
	<ele>1761.80</ele>
	<time>2024-03-09T10:34:40.000Z</time>
</trkpt>
<trkpt lat="46.2549820" lon="10.5605290">
	<ele>1761.80</ele>
	<time>2024-03-09T10:34:41.000Z</time>
</trkpt>
<trkpt lat="46.2549820" lon="10.5605290">
	<ele>1761.60</ele>
	<time>2024-03-09T10:34:42.000Z</time>
</trkpt>
<trkpt lat="46.2549820" lon="10.5605290">
	<ele>1761.60</ele>
	<time>2024-03-09T10:34:43.000Z</time>
</trkpt>
<trkpt lat="46.2549820" lon="10.5605290">
	<ele>1761.60</ele>
	<time>2024-03-09T10:34:44.000Z</time>
</trkpt>
<trkpt lat="46.2549820" lon="10.5605290">
	<ele>1761.80</ele>
	<time>2024-03-09T10:34:45.000Z</time>
</trkpt>
<trkpt lat="46.2549820" lon="10.5605290">
	<ele>1761.80</ele>
	<time>2024-03-09T10:34:46.000Z</time>
</trkpt>
<trkpt lat="46.2549820" lon="10.5605280">
	<ele>1762.00</ele>
	<time>2024-03-09T10:34:47.000Z</time>
</trkpt>
<trkpt lat="46.2549820" lon="10.5605280">
	<ele>1762.00</ele>
	<time>2024-03-09T10:34:48.000Z</time>
</trkpt>
<trkpt lat="46.2549820" lon="10.5605280">
	<ele>1762.00</ele>
	<time>2024-03-09T10:34:49.000Z</time>
</trkpt>
<trkpt lat="46.2549820" lon="10.5605290">
	<ele>1762.00</ele>
	<time>2024-03-09T10:34:50.000Z</time>
</trkpt>
<trkpt lat="46.2549820" lon="10.5605290">
	<ele>1761.80</ele>
	<time>2024-03-09T10:34:51.000Z</time>
</trkpt>
<trkpt lat="46.2549820" lon="10.5605290">
	<ele>1761.60</ele>
	<time>2024-03-09T10:34:52.000Z</time>
</trkpt>
<trkpt lat="46.2549820" lon="10.5605290">
	<ele>1761.40</ele>
	<time>2024-03-09T10:34:53.000Z</time>
</trkpt>
<trkpt lat="46.2549820" lon="10.5605290">
	<ele>1761.40</ele>
	<time>2024-03-09T10:34:54.000Z</time>
</trkpt>
<trkpt lat="46.2549820" lon="10.5605300">
	<ele>1761.40</ele>
	<time>2024-03-09T10:34:55.000Z</time>
</trkpt>
<trkpt lat="46.2549820" lon="10.5605300">
	<ele>1761.40</ele>
	<time>2024-03-09T10:34:56.000Z</time>
</trkpt>
<trkpt lat="46.2549820" lon="10.5605300">
	<ele>1761.40</ele>
	<time>2024-03-09T10:34:57.000Z</time>
</trkpt>
<trkpt lat="46.2549820" lon="10.5605300">
	<ele>1761.40</ele>
	<time>2024-03-09T10:34:58.000Z</time>
</trkpt>
<trkpt lat="46.2549820" lon="10.5605300">
	<ele>1761.60</ele>
	<time>2024-03-09T10:34:59.000Z</time>
</trkpt>
<trkpt lat="46.2549830" lon="10.5605300">
	<ele>1761.60</ele>
	<time>2024-03-09T10:35:00.000Z</time>
</trkpt>
<trkpt lat="46.2549830" lon="10.5605300">
	<ele>1761.60</ele>
	<time>2024-03-09T10:35:01.000Z</time>
</trkpt>
<trkpt lat="46.2549830" lon="10.5605300">
	<ele>1761.60</ele>
	<time>2024-03-09T10:35:02.000Z</time>
</trkpt>
<trkpt lat="46.2549830" lon="10.5605300">
	<ele>1761.80</ele>
	<time>2024-03-09T10:35:03.000Z</time>
</trkpt>
<trkpt lat="46.2549830" lon="10.5605300">
	<ele>1761.80</ele>
	<time>2024-03-09T10:35:04.000Z</time>
</trkpt>
<trkpt lat="46.2549830" lon="10.5605300">
	<ele>1761.80</ele>
	<time>2024-03-09T10:35:05.000Z</time>
</trkpt>
<trkpt lat="46.2549830" lon="10.5605300">
	<ele>1762.00</ele>
	<time>2024-03-09T10:35:06.000Z</time>
</trkpt>
<trkpt lat="46.2549830" lon="10.5605300">
	<ele>1762.00</ele>
	<time>2024-03-09T10:35:07.000Z</time>
</trkpt>
<trkpt lat="46.2549830" lon="10.5605310">
	<ele>1762.00</ele>
	<time>2024-03-09T10:35:08.000Z</time>
</trkpt>
<trkpt lat="46.2549830" lon="10.5605310">
	<ele>1762.00</ele>
	<time>2024-03-09T10:35:09.000Z</time>
</trkpt>
<trkpt lat="46.2549830" lon="10.5605310">
	<ele>1762.00</ele>
	<time>2024-03-09T10:35:10.000Z</time>
</trkpt>
<trkpt lat="46.2549830" lon="10.5605310">
	<ele>1762.00</ele>
	<time>2024-03-09T10:35:11.000Z</time>
</trkpt>
<trkpt lat="46.2549840" lon="10.5605310">
	<ele>1762.00</ele>
	<time>2024-03-09T10:35:12.000Z</time>
</trkpt>
<trkpt lat="46.2549840" lon="10.5605310">
	<ele>1762.00</ele>
	<time>2024-03-09T10:35:13.000Z</time>
</trkpt>
<trkpt lat="46.2549840" lon="10.5605300">
	<ele>1762.00</ele>
	<time>2024-03-09T10:35:14.000Z</time>
</trkpt>
<trkpt lat="46.2549840" lon="10.5605300">
	<ele>1761.80</ele>
	<time>2024-03-09T10:35:15.000Z</time>
</trkpt>
<trkpt lat="46.2549840" lon="10.5605300">
	<ele>1761.80</ele>
	<time>2024-03-09T10:35:16.000Z</time>
</trkpt>
<trkpt lat="46.2549850" lon="10.5605300">
	<ele>1761.80</ele>
	<time>2024-03-09T10:35:17.000Z</time>
</trkpt>
<trkpt lat="46.2549850" lon="10.5605300">
	<ele>1761.80</ele>
	<time>2024-03-09T10:35:18.000Z</time>
</trkpt>
<trkpt lat="46.2549850" lon="10.5605300">
	<ele>1761.80</ele>
	<time>2024-03-09T10:35:19.000Z</time>
</trkpt>
<trkpt lat="46.2549850" lon="10.5605300">
	<ele>1761.80</ele>
	<time>2024-03-09T10:35:20.000Z</time>
</trkpt>
<trkpt lat="46.2549850" lon="10.5605300">
	<ele>1761.80</ele>
	<time>2024-03-09T10:35:21.000Z</time>
</trkpt>
<trkpt lat="46.2549850" lon="10.5605310">
	<ele>1761.80</ele>
	<time>2024-03-09T10:35:22.000Z</time>
</trkpt>
<trkpt lat="46.2549850" lon="10.5605310">
	<ele>1761.80</ele>
	<time>2024-03-09T10:35:23.000Z</time>
</trkpt>
<trkpt lat="46.2549850" lon="10.5605300">
	<ele>1761.80</ele>
	<time>2024-03-09T10:35:24.000Z</time>
</trkpt>
<trkpt lat="46.2549850" lon="10.5605300">
	<ele>1761.60</ele>
	<time>2024-03-09T10:35:25.000Z</time>
</trkpt>
<trkpt lat="46.2549860" lon="10.5605300">
	<ele>1761.60</ele>
	<time>2024-03-09T10:35:26.000Z</time>
</trkpt>
<trkpt lat="46.2549860" lon="10.5605300">
	<ele>1761.60</ele>
	<time>2024-03-09T10:35:27.000Z</time>
</trkpt>
<trkpt lat="46.2549860" lon="10.5605300">
	<ele>1761.60</ele>
	<time>2024-03-09T10:35:28.000Z</time>
</trkpt>
<trkpt lat="46.2549860" lon="10.5605300">
	<ele>1761.60</ele>
	<time>2024-03-09T10:35:29.000Z</time>
</trkpt>
<trkpt lat="46.2549860" lon="10.5605300">
	<ele>1761.60</ele>
	<time>2024-03-09T10:35:30.000Z</time>
</trkpt>
<trkpt lat="46.2549860" lon="10.5605300">
	<ele>1761.60</ele>
	<time>2024-03-09T10:35:31.000Z</time>
</trkpt>
<trkpt lat="46.2549860" lon="10.5605300">
	<ele>1761.60</ele>
	<time>2024-03-09T10:35:32.000Z</time>
</trkpt>
<trkpt lat="46.2549860" lon="10.5605300">
	<ele>1761.60</ele>
	<time>2024-03-09T10:35:33.000Z</time>
</trkpt>
<trkpt lat="46.2549870" lon="10.5605300">
	<ele>1761.60</ele>
	<time>2024-03-09T10:35:34.000Z</time>
</trkpt>
<trkpt lat="46.2549870" lon="10.5605300">
	<ele>1761.60</ele>
	<time>2024-03-09T10:35:35.000Z</time>
</trkpt>
<trkpt lat="46.2549880" lon="10.5605310">
	<ele>1761.40</ele>
	<time>2024-03-09T10:35:36.000Z</time>
</trkpt>
<trkpt lat="46.2549880" lon="10.5605310">
	<ele>1761.40</ele>
	<time>2024-03-09T10:35:37.000Z</time>
</trkpt>
<trkpt lat="46.2549880" lon="10.5605310">
	<ele>1761.40</ele>
	<time>2024-03-09T10:35:38.000Z</time>
</trkpt>
<trkpt lat="46.2549880" lon="10.5605310">
	<ele>1761.40</ele>
	<time>2024-03-09T10:35:39.000Z</time>
</trkpt>
<trkpt lat="46.2549880" lon="10.5605310">
	<ele>1761.40</ele>
	<time>2024-03-09T10:35:40.000Z</time>
</trkpt>
<trkpt lat="46.2549890" lon="10.5605310">
	<ele>1761.60</ele>
	<time>2024-03-09T10:35:41.000Z</time>
</trkpt>
<trkpt lat="46.2549890" lon="10.5605310">
	<ele>1761.60</ele>
	<time>2024-03-09T10:35:42.000Z</time>
</trkpt>
<trkpt lat="46.2549890" lon="10.5605310">
	<ele>1761.60</ele>
	<time>2024-03-09T10:35:43.000Z</time>
</trkpt>
<trkpt lat="46.2549890" lon="10.5605310">
	<ele>1761.80</ele>
	<time>2024-03-09T10:35:44.000Z</time>
</trkpt>
<trkpt lat="46.2549890" lon="10.5605320">
	<ele>1761.80</ele>
	<time>2024-03-09T10:35:45.000Z</time>
</trkpt>
<trkpt lat="46.2549890" lon="10.5605320">
	<ele>1761.60</ele>
	<time>2024-03-09T10:35:46.000Z</time>
</trkpt>
<trkpt lat="46.2549890" lon="10.5605320">
	<ele>1761.60</ele>
	<time>2024-03-09T10:35:47.000Z</time>
</trkpt>
<trkpt lat="46.2549890" lon="10.5605320">
	<ele>1761.60</ele>
	<time>2024-03-09T10:35:48.000Z</time>
</trkpt>
<trkpt lat="46.2549890" lon="10.5605320">
	<ele>1761.60</ele>
	<time>2024-03-09T10:35:49.000Z</time>
</trkpt>
<trkpt lat="46.2549890" lon="10.5605320">
	<ele>1761.60</ele>
	<time>2024-03-09T10:35:50.000Z</time>
</trkpt>
<trkpt lat="46.2549890" lon="10.5605320">
	<ele>1761.60</ele>
	<time>2024-03-09T10:35:51.000Z</time>
</trkpt>
<trkpt lat="46.2549890" lon="10.5605320">
	<ele>1761.60</ele>
	<time>2024-03-09T10:35:52.000Z</time>
</trkpt>
<trkpt lat="46.2549890" lon="10.5605320">
	<ele>1761.60</ele>
	<time>2024-03-09T10:35:53.000Z</time>
</trkpt>
<trkpt lat="46.2549900" lon="10.5605320">
	<ele>1761.60</ele>
	<time>2024-03-09T10:35:54.000Z</time>
</trkpt>
<trkpt lat="46.2549900" lon="10.5605320">
	<ele>1761.60</ele>
	<time>2024-03-09T10:35:55.000Z</time>
</trkpt>
<trkpt lat="46.2549900" lon="10.5605320">
	<ele>1761.60</ele>
	<time>2024-03-09T10:35:56.000Z</time>
</trkpt>
<trkpt lat="46.2549900" lon="10.5605320">
	<ele>1761.60</ele>
	<time>2024-03-09T10:35:57.000Z</time>
</trkpt>
<trkpt lat="46.2549900" lon="10.5605320">
	<ele>1761.60</ele>
	<time>2024-03-09T10:35:58.000Z</time>
</trkpt>
<trkpt lat="46.2549900" lon="10.5605320">
	<ele>1761.60</ele>
	<time>2024-03-09T10:35:59.000Z</time>
</trkpt>
<trkpt lat="46.2549900" lon="10.5605320">
	<ele>1761.60</ele>
	<time>2024-03-09T10:36:00.000Z</time>
</trkpt>
<trkpt lat="46.2549900" lon="10.5605320">
	<ele>1761.60</ele>
	<time>2024-03-09T10:36:01.000Z</time>
</trkpt>
<trkpt lat="46.2549900" lon="10.5605320">
	<ele>1761.60</ele>
	<time>2024-03-09T10:36:02.000Z</time>
</trkpt>
<trkpt lat="46.2549900" lon="10.5605320">
	<ele>1761.60</ele>
	<time>2024-03-09T10:36:03.000Z</time>
</trkpt>
<trkpt lat="46.2549910" lon="10.5605320">
	<ele>1761.60</ele>
	<time>2024-03-09T10:36:04.000Z</time>
</trkpt>
<trkpt lat="46.2549910" lon="10.5605320">
	<ele>1761.60</ele>
	<time>2024-03-09T10:36:05.000Z</time>
</trkpt>
<trkpt lat="46.2549910" lon="10.5605320">
	<ele>1761.60</ele>
	<time>2024-03-09T10:36:06.000Z</time>
</trkpt>
<trkpt lat="46.2549910" lon="10.5605320">
	<ele>1761.60</ele>
	<time>2024-03-09T10:36:07.000Z</time>
</trkpt>
<trkpt lat="46.2549910" lon="10.5605320">
	<ele>1761.60</ele>
	<time>2024-03-09T10:36:08.000Z</time>
</trkpt>
<trkpt lat="46.2549910" lon="10.5605320">
	<ele>1761.60</ele>
	<time>2024-03-09T10:36:09.000Z</time>
</trkpt>
<trkpt lat="46.2549910" lon="10.5605320">
	<ele>1761.60</ele>
	<time>2024-03-09T10:36:10.000Z</time>
</trkpt>
<trkpt lat="46.2549910" lon="10.5605320">
	<ele>1761.60</ele>
	<time>2024-03-09T10:36:11.000Z</time>
</trkpt>
<trkpt lat="46.2549910" lon="10.5605320">
	<ele>1761.60</ele>
	<time>2024-03-09T10:36:12.000Z</time>
</trkpt>
<trkpt lat="46.2549910" lon="10.5605320">
	<ele>1761.60</ele>
	<time>2024-03-09T10:36:13.000Z</time>
</trkpt>
<trkpt lat="46.2549910" lon="10.5605320">
	<ele>1761.60</ele>
	<time>2024-03-09T10:36:14.000Z</time>
</trkpt>
<trkpt lat="46.2549910" lon="10.5605320">
	<ele>1761.60</ele>
	<time>2024-03-09T10:36:15.000Z</time>
</trkpt>
<trkpt lat="46.2549910" lon="10.5605320">
	<ele>1761.60</ele>
	<time>2024-03-09T10:36:16.000Z</time>
</trkpt>
<trkpt lat="46.2549910" lon="10.5605320">
	<ele>1761.60</ele>
	<time>2024-03-09T10:36:17.000Z</time>
</trkpt>
<trkpt lat="46.2549910" lon="10.5605320">
	<ele>1761.60</ele>
	<time>2024-03-09T10:36:18.000Z</time>
</trkpt>
<trkpt lat="46.2549910" lon="10.5605320">
	<ele>1761.60</ele>
	<time>2024-03-09T10:36:19.000Z</time>
</trkpt>
<trkpt lat="46.2549910" lon="10.5605320">
	<ele>1761.60</ele>
	<time>2024-03-09T10:36:20.000Z</time>
</trkpt>
<trkpt lat="46.2549910" lon="10.5605320">
	<ele>1761.60</ele>
	<time>2024-03-09T10:36:21.000Z</time>
</trkpt>
<trkpt lat="46.2549910" lon="10.5605320">
	<ele>1761.60</ele>
	<time>2024-03-09T10:36:22.000Z</time>
</trkpt>
<trkpt lat="46.2549910" lon="10.5605320">
	<ele>1761.60</ele>
	<time>2024-03-09T10:36:23.000Z</time>
</trkpt>
<trkpt lat="46.2549910" lon="10.5605320">
	<ele>1761.60</ele>
	<time>2024-03-09T10:36:24.000Z</time>
</trkpt>
<trkpt lat="46.2549910" lon="10.5605320">
	<ele>1761.60</ele>
	<time>2024-03-09T10:36:25.000Z</time>
</trkpt>
<trkpt lat="46.2549910" lon="10.5605320">
	<ele>1761.60</ele>
	<time>2024-03-09T10:36:26.000Z</time>
</trkpt>
<trkpt lat="46.2549910" lon="10.5605320">
	<ele>1761.60</ele>
	<time>2024-03-09T10:36:27.000Z</time>
</trkpt>
<trkpt lat="46.2549910" lon="10.5605320">
	<ele>1761.60</ele>
	<time>2024-03-09T10:36:28.000Z</time>
</trkpt>
<trkpt lat="46.2549910" lon="10.5605320">
	<ele>1761.60</ele>
	<time>2024-03-09T10:36:29.000Z</time>
</trkpt>
<trkpt lat="46.2549910" lon="10.5605320">
	<ele>1761.60</ele>
	<time>2024-03-09T10:36:30.000Z</time>
</trkpt>
<trkpt lat="46.2549910" lon="10.5605320">
	<ele>1761.60</ele>
	<time>2024-03-09T10:36:31.000Z</time>
</trkpt>
<trkpt lat="46.2549910" lon="10.5605320">
	<ele>1761.60</ele>
	<time>2024-03-09T10:36:32.000Z</time>
</trkpt>
<trkpt lat="46.2549920" lon="10.5605320">
	<ele>1761.60</ele>
	<time>2024-03-09T10:36:33.000Z</time>
</trkpt>
<trkpt lat="46.2549920" lon="10.5605320">
	<ele>1761.60</ele>
	<time>2024-03-09T10:36:34.000Z</time>
</trkpt>
<trkpt lat="46.2549920" lon="10.5605320">
	<ele>1761.60</ele>
	<time>2024-03-09T10:36:35.000Z</time>
</trkpt>
<trkpt lat="46.2549920" lon="10.5605320">
	<ele>1761.60</ele>
	<time>2024-03-09T10:36:36.000Z</time>
</trkpt>
<trkpt lat="46.2549930" lon="10.5605320">
	<ele>1761.60</ele>
	<time>2024-03-09T10:36:37.000Z</time>
</trkpt>
<trkpt lat="46.2549930" lon="10.5605320">
	<ele>1761.60</ele>
	<time>2024-03-09T10:36:38.000Z</time>
</trkpt>
<trkpt lat="46.2549930" lon="10.5605320">
	<ele>1761.60</ele>
	<time>2024-03-09T10:36:39.000Z</time>
</trkpt>
<trkpt lat="46.2549930" lon="10.5605320">
	<ele>1761.60</ele>
	<time>2024-03-09T10:36:40.000Z</time>
</trkpt>
<trkpt lat="46.2549930" lon="10.5605320">
	<ele>1761.60</ele>
	<time>2024-03-09T10:36:41.000Z</time>
</trkpt>
<trkpt lat="46.2549930" lon="10.5605320">
	<ele>1761.60</ele>
	<time>2024-03-09T10:36:42.000Z</time>
</trkpt>
<trkpt lat="46.2549930" lon="10.5605320">
	<ele>1761.60</ele>
	<time>2024-03-09T10:36:43.000Z</time>
</trkpt>
<trkpt lat="46.2549930" lon="10.5605320">
	<ele>1761.60</ele>
	<time>2024-03-09T10:36:44.000Z</time>
</trkpt>
<trkpt lat="46.2549930" lon="10.5605320">
	<ele>1761.60</ele>
	<time>2024-03-09T10:36:45.000Z</time>
</trkpt>
<trkpt lat="46.2549930" lon="10.5605320">
	<ele>1761.60</ele>
	<time>2024-03-09T10:36:46.000Z</time>
</trkpt>
<trkpt lat="46.2549940" lon="10.5605320">
	<ele>1761.60</ele>
	<time>2024-03-09T10:36:47.000Z</time>
</trkpt>
<trkpt lat="46.2549940" lon="10.5605320">
	<ele>1761.60</ele>
	<time>2024-03-09T10:36:48.000Z</time>
</trkpt>
<trkpt lat="46.2549940" lon="10.5605320">
	<ele>1761.60</ele>
	<time>2024-03-09T10:36:49.000Z</time>
</trkpt>
<trkpt lat="46.2549940" lon="10.5605320">
	<ele>1761.60</ele>
	<time>2024-03-09T10:36:50.000Z</time>
</trkpt>
<trkpt lat="46.2549940" lon="10.5605330">
	<ele>1761.60</ele>
	<time>2024-03-09T10:36:51.000Z</time>
</trkpt>
<trkpt lat="46.2549940" lon="10.5605330">
	<ele>1761.60</ele>
	<time>2024-03-09T10:36:52.000Z</time>
</trkpt>
<trkpt lat="46.2549950" lon="10.5605330">
	<ele>1761.60</ele>
	<time>2024-03-09T10:36:53.000Z</time>
</trkpt>
<trkpt lat="46.2549950" lon="10.5605320">
	<ele>1761.60</ele>
	<time>2024-03-09T10:36:54.000Z</time>
</trkpt>
<trkpt lat="46.2549950" lon="10.5605320">
	<ele>1761.60</ele>
	<time>2024-03-09T10:36:55.000Z</time>
</trkpt>
<trkpt lat="46.2549950" lon="10.5605320">
	<ele>1761.60</ele>
	<time>2024-03-09T10:36:56.000Z</time>
</trkpt>
<trkpt lat="46.2549950" lon="10.5605320">
	<ele>1761.60</ele>
	<time>2024-03-09T10:36:57.000Z</time>
</trkpt>
<trkpt lat="46.2549950" lon="10.5605330">
	<ele>1761.60</ele>
	<time>2024-03-09T10:36:58.000Z</time>
</trkpt>
<trkpt lat="46.2549950" lon="10.5605330">
	<ele>1761.60</ele>
	<time>2024-03-09T10:36:59.000Z</time>
</trkpt>
<trkpt lat="46.2549960" lon="10.5605390">
	<ele>1761.60</ele>
	<time>2024-03-09T10:37:00.000Z</time>
</trkpt>
<trkpt lat="46.2549950" lon="10.5605430">
	<ele>1761.60</ele>
	<time>2024-03-09T10:37:01.000Z</time>
</trkpt>
<trkpt lat="46.2549950" lon="10.5605500">
	<ele>1761.60</ele>
	<time>2024-03-09T10:37:02.000Z</time>
</trkpt>
<trkpt lat="46.2549930" lon="10.5605590">
	<ele>1761.60</ele>
	<time>2024-03-09T10:37:03.000Z</time>
</trkpt>
<trkpt lat="46.2549920" lon="10.5605670">
	<ele>1761.60</ele>
	<time>2024-03-09T10:37:04.000Z</time>
</trkpt>
<trkpt lat="46.2549920" lon="10.5605750">
	<ele>1761.60</ele>
	<time>2024-03-09T10:37:05.000Z</time>
</trkpt>
<trkpt lat="46.2549920" lon="10.5605810">
	<ele>1761.60</ele>
	<time>2024-03-09T10:37:06.000Z</time>
</trkpt>
<trkpt lat="46.2549920" lon="10.5605810">
	<ele>1761.60</ele>
	<time>2024-03-09T10:37:07.000Z</time>
</trkpt>
<trkpt lat="46.2549920" lon="10.5605810">
	<ele>1761.60</ele>
	<time>2024-03-09T10:37:08.000Z</time>
</trkpt>
<trkpt lat="46.2549920" lon="10.5605810">
	<ele>1761.60</ele>
	<time>2024-03-09T10:37:09.000Z</time>
</trkpt>
<trkpt lat="46.2549920" lon="10.5605810">
	<ele>1761.60</ele>
	<time>2024-03-09T10:37:10.000Z</time>
</trkpt>
<trkpt lat="46.2549920" lon="10.5605810">
	<ele>1761.60</ele>
	<time>2024-03-09T10:37:11.000Z</time>
</trkpt>
<trkpt lat="46.2549920" lon="10.5605810">
	<ele>1761.60</ele>
	<time>2024-03-09T10:37:12.000Z</time>
</trkpt>
<trkpt lat="46.2549950" lon="10.5605930">
	<ele>1761.60</ele>
	<time>2024-03-09T10:37:13.000Z</time>
</trkpt>
<trkpt lat="46.2549950" lon="10.5605940">
	<ele>1761.60</ele>
	<time>2024-03-09T10:37:14.000Z</time>
</trkpt>
<trkpt lat="46.2549970" lon="10.5605950">
	<ele>1761.60</ele>
	<time>2024-03-09T10:37:15.000Z</time>
</trkpt>
<trkpt lat="46.2549970" lon="10.5605960">
	<ele>1761.60</ele>
	<time>2024-03-09T10:37:16.000Z</time>
</trkpt>
<trkpt lat="46.2549980" lon="10.5605960">
	<ele>1761.60</ele>
	<time>2024-03-09T10:37:17.000Z</time>
</trkpt>
<trkpt lat="46.2549980" lon="10.5605960">
	<ele>1761.60</ele>
	<time>2024-03-09T10:37:18.000Z</time>
</trkpt>
<trkpt lat="46.2549980" lon="10.5605970">
	<ele>1761.60</ele>
	<time>2024-03-09T10:37:19.000Z</time>
</trkpt>
<trkpt lat="46.2549980" lon="10.5605970">
	<ele>1761.60</ele>
	<time>2024-03-09T10:37:20.000Z</time>
</trkpt>
<trkpt lat="46.2549980" lon="10.5605970">
	<ele>1761.60</ele>
	<time>2024-03-09T10:37:21.000Z</time>
</trkpt>
<trkpt lat="46.2549980" lon="10.5605980">
	<ele>1761.60</ele>
	<time>2024-03-09T10:37:22.000Z</time>
</trkpt>
<trkpt lat="46.2549980" lon="10.5605980">
	<ele>1761.60</ele>
	<time>2024-03-09T10:37:23.000Z</time>
</trkpt>
<trkpt lat="46.2549980" lon="10.5605990">
	<ele>1761.60</ele>
	<time>2024-03-09T10:37:24.000Z</time>
</trkpt>
<trkpt lat="46.2549980" lon="10.5605990">
	<ele>1761.60</ele>
	<time>2024-03-09T10:37:25.000Z</time>
</trkpt>
<trkpt lat="46.2549980" lon="10.5605990">
	<ele>1761.60</ele>
	<time>2024-03-09T10:37:26.000Z</time>
</trkpt>
<trkpt lat="46.2549980" lon="10.5606000">
	<ele>1761.60</ele>
	<time>2024-03-09T10:37:27.000Z</time>
</trkpt>
<trkpt lat="46.2549980" lon="10.5606000">
	<ele>1761.60</ele>
	<time>2024-03-09T10:37:28.000Z</time>
</trkpt>
<trkpt lat="46.2549970" lon="10.5606000">
	<ele>1761.60</ele>
	<time>2024-03-09T10:37:29.000Z</time>
</trkpt>
<trkpt lat="46.2549970" lon="10.5606000">
	<ele>1761.60</ele>
	<time>2024-03-09T10:37:30.000Z</time>
</trkpt>
<trkpt lat="46.2549970" lon="10.5606010">
	<ele>1761.60</ele>
	<time>2024-03-09T10:37:31.000Z</time>
</trkpt>
<trkpt lat="46.2549970" lon="10.5606010">
	<ele>1761.60</ele>
	<time>2024-03-09T10:37:32.000Z</time>
</trkpt>
<trkpt lat="46.2549970" lon="10.5606020">
	<ele>1761.60</ele>
	<time>2024-03-09T10:37:33.000Z</time>
</trkpt>
<trkpt lat="46.2549960" lon="10.5606020">
	<ele>1761.60</ele>
	<time>2024-03-09T10:37:34.000Z</time>
</trkpt>
<trkpt lat="46.2549950" lon="10.5606020">
	<ele>1761.60</ele>
	<time>2024-03-09T10:37:35.000Z</time>
</trkpt>
<trkpt lat="46.2549950" lon="10.5606020">
	<ele>1761.60</ele>
	<time>2024-03-09T10:37:36.000Z</time>
</trkpt>
<trkpt lat="46.2549940" lon="10.5606030">
	<ele>1761.60</ele>
	<time>2024-03-09T10:37:37.000Z</time>
</trkpt>
<trkpt lat="46.2549920" lon="10.5606050">
	<ele>1761.60</ele>
	<time>2024-03-09T10:37:38.000Z</time>
</trkpt>
<trkpt lat="46.2549870" lon="10.5606050">
	<ele>1761.60</ele>
	<time>2024-03-09T10:37:39.000Z</time>
</trkpt>
<trkpt lat="46.2549840" lon="10.5606060">
	<ele>1761.60</ele>
	<time>2024-03-09T10:37:40.000Z</time>
</trkpt>
<trkpt lat="46.2549820" lon="10.5606070">
	<ele>1761.60</ele>
	<time>2024-03-09T10:37:41.000Z</time>
</trkpt>
<trkpt lat="46.2549820" lon="10.5606070">
	<ele>1761.60</ele>
	<time>2024-03-09T10:37:42.000Z</time>
</trkpt>
<trkpt lat="46.2549810" lon="10.5606070">
	<ele>1761.60</ele>
	<time>2024-03-09T10:37:43.000Z</time>
</trkpt>
<trkpt lat="46.2549780" lon="10.5606080">
	<ele>1761.60</ele>
	<time>2024-03-09T10:37:44.000Z</time>
</trkpt>
<trkpt lat="46.2549760" lon="10.5606090">
	<ele>1761.60</ele>
	<time>2024-03-09T10:37:45.000Z</time>
</trkpt>
<trkpt lat="46.2549760" lon="10.5606120">
	<ele>1761.60</ele>
	<time>2024-03-09T10:37:46.000Z</time>
</trkpt>
<trkpt lat="46.2549750" lon="10.5606130">
	<ele>1761.60</ele>
	<time>2024-03-09T10:37:47.000Z</time>
</trkpt>
<trkpt lat="46.2549750" lon="10.5606140">
	<ele>1761.60</ele>
	<time>2024-03-09T10:37:48.000Z</time>
</trkpt>
<trkpt lat="46.2549750" lon="10.5606140">
	<ele>1761.60</ele>
	<time>2024-03-09T10:37:49.000Z</time>
</trkpt>
<trkpt lat="46.2549750" lon="10.5606140">
	<ele>1761.60</ele>
	<time>2024-03-09T10:37:50.000Z</time>
</trkpt>
<trkpt lat="46.2549750" lon="10.5606140">
	<ele>1761.60</ele>
	<time>2024-03-09T10:37:51.000Z</time>
</trkpt>
<trkpt lat="46.2549750" lon="10.5606140">
	<ele>1761.60</ele>
	<time>2024-03-09T10:37:52.000Z</time>
</trkpt>
<trkpt lat="46.2549750" lon="10.5606140">
	<ele>1761.60</ele>
	<time>2024-03-09T10:37:53.000Z</time>
</trkpt>
<trkpt lat="46.2549750" lon="10.5606140">
	<ele>1761.60</ele>
	<time>2024-03-09T10:37:54.000Z</time>
</trkpt>
<trkpt lat="46.2549750" lon="10.5606140">
	<ele>1761.60</ele>
	<time>2024-03-09T10:37:55.000Z</time>
</trkpt>
<trkpt lat="46.2549750" lon="10.5606140">
	<ele>1761.60</ele>
	<time>2024-03-09T10:37:56.000Z</time>
</trkpt>
<trkpt lat="46.2549750" lon="10.5606140">
	<ele>1761.60</ele>
	<time>2024-03-09T10:37:57.000Z</time>
</trkpt>
<trkpt lat="46.2549750" lon="10.5606150">
	<ele>1761.60</ele>
	<time>2024-03-09T10:37:58.000Z</time>
</trkpt>
<trkpt lat="46.2549750" lon="10.5606150">
	<ele>1761.60</ele>
	<time>2024-03-09T10:37:59.000Z</time>
</trkpt>
<trkpt lat="46.2549760" lon="10.5606150">
	<ele>1761.60</ele>
	<time>2024-03-09T10:38:00.000Z</time>
</trkpt>
<trkpt lat="46.2549760" lon="10.5606150">
	<ele>1761.60</ele>
	<time>2024-03-09T10:38:01.000Z</time>
</trkpt>
<trkpt lat="46.2549760" lon="10.5606160">
	<ele>1761.60</ele>
	<time>2024-03-09T10:38:02.000Z</time>
</trkpt>
<trkpt lat="46.2549760" lon="10.5606160">
	<ele>1761.60</ele>
	<time>2024-03-09T10:38:03.000Z</time>
</trkpt>
<trkpt lat="46.2549760" lon="10.5606160">
	<ele>1761.60</ele>
	<time>2024-03-09T10:38:04.000Z</time>
</trkpt>
<trkpt lat="46.2549770" lon="10.5606160">
	<ele>1761.60</ele>
	<time>2024-03-09T10:38:05.000Z</time>
</trkpt>
<trkpt lat="46.2549770" lon="10.5606160">
	<ele>1761.60</ele>
	<time>2024-03-09T10:38:06.000Z</time>
</trkpt>
<trkpt lat="46.2549770" lon="10.5606170">
	<ele>1761.60</ele>
	<time>2024-03-09T10:38:07.000Z</time>
</trkpt>
<trkpt lat="46.2549770" lon="10.5606170">
	<ele>1761.60</ele>
	<time>2024-03-09T10:38:08.000Z</time>
</trkpt>
<trkpt lat="46.2549770" lon="10.5606170">
	<ele>1761.60</ele>
	<time>2024-03-09T10:38:09.000Z</time>
</trkpt>
<trkpt lat="46.2549770" lon="10.5606170">
	<ele>1761.60</ele>
	<time>2024-03-09T10:38:10.000Z</time>
</trkpt>
<trkpt lat="46.2549770" lon="10.5606170">
	<ele>1761.60</ele>
	<time>2024-03-09T10:38:11.000Z</time>
</trkpt>
<trkpt lat="46.2549770" lon="10.5606170">
	<ele>1761.60</ele>
	<time>2024-03-09T10:38:12.000Z</time>
</trkpt>
<trkpt lat="46.2549770" lon="10.5606170">
	<ele>1761.60</ele>
	<time>2024-03-09T10:38:13.000Z</time>
</trkpt>
<trkpt lat="46.2549770" lon="10.5606170">
	<ele>1761.60</ele>
	<time>2024-03-09T10:38:14.000Z</time>
</trkpt>
<trkpt lat="46.2549770" lon="10.5606180">
	<ele>1761.60</ele>
	<time>2024-03-09T10:38:15.000Z</time>
</trkpt>
<trkpt lat="46.2549770" lon="10.5606190">
	<ele>1761.60</ele>
	<time>2024-03-09T10:38:16.000Z</time>
</trkpt>
<trkpt lat="46.2549760" lon="10.5606190">
	<ele>1761.60</ele>
	<time>2024-03-09T10:38:17.000Z</time>
</trkpt>
<trkpt lat="46.2549760" lon="10.5606200">
	<ele>1761.60</ele>
	<time>2024-03-09T10:38:18.000Z</time>
</trkpt>
<trkpt lat="46.2549760" lon="10.5606210">
	<ele>1761.60</ele>
	<time>2024-03-09T10:38:19.000Z</time>
</trkpt>
<trkpt lat="46.2549750" lon="10.5606210">
	<ele>1761.60</ele>
	<time>2024-03-09T10:38:20.000Z</time>
</trkpt>
<trkpt lat="46.2549740" lon="10.5606210">
	<ele>1761.60</ele>
	<time>2024-03-09T10:38:21.000Z</time>
</trkpt>
<trkpt lat="46.2549730" lon="10.5606220">
	<ele>1761.60</ele>
	<time>2024-03-09T10:38:22.000Z</time>
</trkpt>
<trkpt lat="46.2549730" lon="10.5606220">
	<ele>1761.60</ele>
	<time>2024-03-09T10:38:23.000Z</time>
</trkpt>
<trkpt lat="46.2549720" lon="10.5606220">
	<ele>1761.60</ele>
	<time>2024-03-09T10:38:24.000Z</time>
</trkpt>
<trkpt lat="46.2549720" lon="10.5606230">
	<ele>1761.60</ele>
	<time>2024-03-09T10:38:25.000Z</time>
</trkpt>
<trkpt lat="46.2549720" lon="10.5606230">
	<ele>1761.60</ele>
	<time>2024-03-09T10:38:26.000Z</time>
</trkpt>
<trkpt lat="46.2549720" lon="10.5606230">
	<ele>1761.60</ele>
	<time>2024-03-09T10:38:27.000Z</time>
</trkpt>
<trkpt lat="46.2549710" lon="10.5606240">
	<ele>1761.60</ele>
	<time>2024-03-09T10:38:28.000Z</time>
</trkpt>
<trkpt lat="46.2549710" lon="10.5606240">
	<ele>1761.60</ele>
	<time>2024-03-09T10:38:29.000Z</time>
</trkpt>
<trkpt lat="46.2549700" lon="10.5606240">
	<ele>1761.60</ele>
	<time>2024-03-09T10:38:30.000Z</time>
</trkpt>
<trkpt lat="46.2549700" lon="10.5606240">
	<ele>1761.60</ele>
	<time>2024-03-09T10:38:31.000Z</time>
</trkpt>
<trkpt lat="46.2549680" lon="10.5606240">
	<ele>1761.60</ele>
	<time>2024-03-09T10:38:32.000Z</time>
</trkpt>
<trkpt lat="46.2549680" lon="10.5606240">
	<ele>1761.60</ele>
	<time>2024-03-09T10:38:33.000Z</time>
</trkpt>
<trkpt lat="46.2549680" lon="10.5606240">
	<ele>1761.60</ele>
	<time>2024-03-09T10:38:34.000Z</time>
</trkpt>
<trkpt lat="46.2549670" lon="10.5606240">
	<ele>1761.60</ele>
	<time>2024-03-09T10:38:35.000Z</time>
</trkpt>
<trkpt lat="46.2549660" lon="10.5606240">
	<ele>1761.60</ele>
	<time>2024-03-09T10:38:36.000Z</time>
</trkpt>
<trkpt lat="46.2549650" lon="10.5606240">
	<ele>1761.60</ele>
	<time>2024-03-09T10:38:37.000Z</time>
</trkpt>
<trkpt lat="46.2549650" lon="10.5606230">
	<ele>1761.60</ele>
	<time>2024-03-09T10:38:38.000Z</time>
</trkpt>
<trkpt lat="46.2549650" lon="10.5606230">
	<ele>1761.60</ele>
	<time>2024-03-09T10:38:39.000Z</time>
</trkpt>
<trkpt lat="46.2549650" lon="10.5606230">
	<ele>1761.60</ele>
	<time>2024-03-09T10:38:40.000Z</time>
</trkpt>
<trkpt lat="46.2549650" lon="10.5606220">
	<ele>1761.60</ele>
	<time>2024-03-09T10:38:41.000Z</time>
</trkpt>
<trkpt lat="46.2549650" lon="10.5606220">
	<ele>1761.60</ele>
	<time>2024-03-09T10:38:42.000Z</time>
</trkpt>
<trkpt lat="46.2549650" lon="10.5606220">
	<ele>1761.60</ele>
	<time>2024-03-09T10:38:43.000Z</time>
</trkpt>
<trkpt lat="46.2549650" lon="10.5606210">
	<ele>1761.60</ele>
	<time>2024-03-09T10:38:44.000Z</time>
</trkpt>
<trkpt lat="46.2549650" lon="10.5606210">
	<ele>1761.60</ele>
	<time>2024-03-09T10:38:45.000Z</time>
</trkpt>
<trkpt lat="46.2549650" lon="10.5606210">
	<ele>1761.60</ele>
	<time>2024-03-09T10:38:46.000Z</time>
</trkpt>
<trkpt lat="46.2549650" lon="10.5606200">
	<ele>1761.60</ele>
	<time>2024-03-09T10:38:47.000Z</time>
</trkpt>
<trkpt lat="46.2549640" lon="10.5606170">
	<ele>1761.60</ele>
	<time>2024-03-09T10:38:48.000Z</time>
</trkpt>
<trkpt lat="46.2549640" lon="10.5606150">
	<ele>1761.60</ele>
	<time>2024-03-09T10:38:49.000Z</time>
</trkpt>
<trkpt lat="46.2549630" lon="10.5606130">
	<ele>1761.60</ele>
	<time>2024-03-09T10:38:50.000Z</time>
</trkpt>
<trkpt lat="46.2549630" lon="10.5606120">
	<ele>1761.60</ele>
	<time>2024-03-09T10:38:51.000Z</time>
</trkpt>
<trkpt lat="46.2549640" lon="10.5606120">
	<ele>1761.60</ele>
	<time>2024-03-09T10:38:52.000Z</time>
</trkpt>
<trkpt lat="46.2549640" lon="10.5606110">
	<ele>1761.60</ele>
	<time>2024-03-09T10:38:53.000Z</time>
</trkpt>
<trkpt lat="46.2549640" lon="10.5606100">
	<ele>1761.60</ele>
	<time>2024-03-09T10:38:54.000Z</time>
</trkpt>
<trkpt lat="46.2549670" lon="10.5606060">
	<ele>1761.60</ele>
	<time>2024-03-09T10:38:55.000Z</time>
</trkpt>
<trkpt lat="46.2549700" lon="10.5606010">
	<ele>1761.60</ele>
	<time>2024-03-09T10:38:56.000Z</time>
</trkpt>
<trkpt lat="46.2549730" lon="10.5605980">
	<ele>1761.60</ele>
	<time>2024-03-09T10:38:57.000Z</time>
</trkpt>
<trkpt lat="46.2549760" lon="10.5605930">
	<ele>1761.60</ele>
	<time>2024-03-09T10:38:58.000Z</time>
</trkpt>
<trkpt lat="46.2549820" lon="10.5605880">
	<ele>1761.60</ele>
	<time>2024-03-09T10:38:59.000Z</time>
</trkpt>
<trkpt lat="46.2549840" lon="10.5605850">
	<ele>1761.60</ele>
	<time>2024-03-09T10:39:00.000Z</time>
</trkpt>
<trkpt lat="46.2549910" lon="10.5605750">
	<ele>1761.60</ele>
	<time>2024-03-09T10:39:01.000Z</time>
</trkpt>
<trkpt lat="46.2549950" lon="10.5605690">
	<ele>1761.60</ele>
	<time>2024-03-09T10:39:02.000Z</time>
</trkpt>
<trkpt lat="46.2550010" lon="10.5605640">
	<ele>1761.60</ele>
	<time>2024-03-09T10:39:03.000Z</time>
</trkpt>
<trkpt lat="46.2550070" lon="10.5605550">
	<ele>1761.60</ele>
	<time>2024-03-09T10:39:04.000Z</time>
</trkpt>
<trkpt lat="46.2550090" lon="10.5605510">
	<ele>1761.60</ele>
	<time>2024-03-09T10:39:05.000Z</time>
</trkpt>
<trkpt lat="46.2550100" lon="10.5605490">
	<ele>1761.60</ele>
	<time>2024-03-09T10:39:06.000Z</time>
</trkpt>
<trkpt lat="46.2550090" lon="10.5605500">
	<ele>1761.60</ele>
	<time>2024-03-09T10:39:07.000Z</time>
</trkpt>
<trkpt lat="46.2550130" lon="10.5605490">
	<ele>1761.60</ele>
	<time>2024-03-09T10:39:08.000Z</time>
</trkpt>
<trkpt lat="46.2550140" lon="10.5605510">
	<ele>1761.60</ele>
	<time>2024-03-09T10:39:09.000Z</time>
</trkpt>
<trkpt lat="46.2550200" lon="10.5605500">
	<ele>1761.60</ele>
	<time>2024-03-09T10:39:10.000Z</time>
</trkpt>
<trkpt lat="46.2550280" lon="10.5605500">
	<ele>1761.60</ele>
	<time>2024-03-09T10:39:11.000Z</time>
</trkpt>
<trkpt lat="46.2550350" lon="10.5605480">
	<ele>1761.60</ele>
	<time>2024-03-09T10:39:12.000Z</time>
</trkpt>
<trkpt lat="46.2550380" lon="10.5605480">
	<ele>1761.60</ele>
	<time>2024-03-09T10:39:13.000Z</time>
</trkpt>
<trkpt lat="46.2550460" lon="10.5605450">
	<ele>1761.60</ele>
	<time>2024-03-09T10:39:14.000Z</time>
</trkpt>
<trkpt lat="46.2550500" lon="10.5605450">
	<ele>1761.60</ele>
	<time>2024-03-09T10:39:15.000Z</time>
</trkpt>
<trkpt lat="46.2550540" lon="10.5605460">
	<ele>1761.60</ele>
	<time>2024-03-09T10:39:16.000Z</time>
</trkpt>
<trkpt lat="46.2550530" lon="10.5605480">
	<ele>1761.60</ele>
	<time>2024-03-09T10:39:17.000Z</time>
</trkpt>
<trkpt lat="46.2550530" lon="10.5605470">
	<ele>1761.60</ele>
	<time>2024-03-09T10:39:18.000Z</time>
</trkpt>
<trkpt lat="46.2550540" lon="10.5605450">
	<ele>1761.60</ele>
	<time>2024-03-09T10:39:19.000Z</time>
</trkpt>
<trkpt lat="46.2550550" lon="10.5605450">
	<ele>1761.60</ele>
	<time>2024-03-09T10:39:20.000Z</time>
</trkpt>
<trkpt lat="46.2550530" lon="10.5605460">
	<ele>1761.60</ele>
	<time>2024-03-09T10:39:21.000Z</time>
</trkpt>
<trkpt lat="46.2550530" lon="10.5605470">
	<ele>1761.60</ele>
	<time>2024-03-09T10:39:22.000Z</time>
</trkpt>
<trkpt lat="46.2550640" lon="10.5605440">
	<ele>1761.60</ele>
	<time>2024-03-09T10:39:23.000Z</time>
</trkpt>
<trkpt lat="46.2550680" lon="10.5605420">
	<ele>1761.60</ele>
	<time>2024-03-09T10:39:24.000Z</time>
</trkpt>
<trkpt lat="46.2550650" lon="10.5605400">
	<ele>1761.60</ele>
	<time>2024-03-09T10:39:25.000Z</time>
</trkpt>
<trkpt lat="46.2550640" lon="10.5605420">
	<ele>1761.60</ele>
	<time>2024-03-09T10:39:26.000Z</time>
</trkpt>
<trkpt lat="46.2550640" lon="10.5605430">
	<ele>1761.60</ele>
	<time>2024-03-09T10:39:27.000Z</time>
</trkpt>
<trkpt lat="46.2550640" lon="10.5605450">
	<ele>1761.60</ele>
	<time>2024-03-09T10:39:28.000Z</time>
</trkpt>
<trkpt lat="46.2550650" lon="10.5605440">
	<ele>1761.60</ele>
	<time>2024-03-09T10:39:29.000Z</time>
</trkpt>
<trkpt lat="46.2550650" lon="10.5605440">
	<ele>1761.60</ele>
	<time>2024-03-09T10:39:30.000Z</time>
</trkpt>
<trkpt lat="46.2550650" lon="10.5605440">
	<ele>1761.60</ele>
	<time>2024-03-09T10:39:31.000Z</time>
</trkpt>
<trkpt lat="46.2550650" lon="10.5605440">
	<ele>1761.60</ele>
	<time>2024-03-09T10:39:32.000Z</time>
</trkpt>
<trkpt lat="46.2550650" lon="10.5605440">
	<ele>1761.60</ele>
	<time>2024-03-09T10:39:33.000Z</time>
</trkpt>
<trkpt lat="46.2550650" lon="10.5605440">
	<ele>1761.60</ele>
	<time>2024-03-09T10:39:34.000Z</time>
</trkpt>
<trkpt lat="46.2550650" lon="10.5605440">
	<ele>1761.60</ele>
	<time>2024-03-09T10:39:35.000Z</time>
</trkpt>
<trkpt lat="46.2550650" lon="10.5605440">
	<ele>1761.60</ele>
	<time>2024-03-09T10:39:36.000Z</time>
</trkpt>
<trkpt lat="46.2550650" lon="10.5605440">
	<ele>1761.60</ele>
	<time>2024-03-09T10:39:37.000Z</time>
</trkpt>
<trkpt lat="46.2550650" lon="10.5605440">
	<ele>1761.60</ele>
	<time>2024-03-09T10:39:38.000Z</time>
</trkpt>
<trkpt lat="46.2550640" lon="10.5605440">
	<ele>1761.60</ele>
	<time>2024-03-09T10:39:39.000Z</time>
</trkpt>
<trkpt lat="46.2550640" lon="10.5605440">
	<ele>1761.60</ele>
	<time>2024-03-09T10:39:40.000Z</time>
</trkpt>
<trkpt lat="46.2550640" lon="10.5605440">
	<ele>1761.60</ele>
	<time>2024-03-09T10:39:41.000Z</time>
</trkpt>
<trkpt lat="46.2550640" lon="10.5605440">
	<ele>1761.60</ele>
	<time>2024-03-09T10:39:42.000Z</time>
</trkpt>
<trkpt lat="46.2550640" lon="10.5605450">
	<ele>1761.60</ele>
	<time>2024-03-09T10:39:43.000Z</time>
</trkpt>
<trkpt lat="46.2550640" lon="10.5605450">
	<ele>1761.60</ele>
	<time>2024-03-09T10:39:44.000Z</time>
</trkpt>
<trkpt lat="46.2550640" lon="10.5605450">
	<ele>1761.60</ele>
	<time>2024-03-09T10:39:45.000Z</time>
</trkpt>
<trkpt lat="46.2550640" lon="10.5605450">
	<ele>1761.60</ele>
	<time>2024-03-09T10:39:46.000Z</time>
</trkpt>
<trkpt lat="46.2550640" lon="10.5605450">
	<ele>1761.60</ele>
	<time>2024-03-09T10:39:47.000Z</time>
</trkpt>
<trkpt lat="46.2550640" lon="10.5605450">
	<ele>1761.60</ele>
	<time>2024-03-09T10:39:48.000Z</time>
</trkpt>
<trkpt lat="46.2550640" lon="10.5605450">
	<ele>1761.60</ele>
	<time>2024-03-09T10:39:49.000Z</time>
</trkpt>
<trkpt lat="46.2550640" lon="10.5605450">
	<ele>1761.60</ele>
	<time>2024-03-09T10:39:50.000Z</time>
</trkpt>
<trkpt lat="46.2550640" lon="10.5605450">
	<ele>1761.60</ele>
	<time>2024-03-09T10:39:51.000Z</time>
</trkpt>
<trkpt lat="46.2550640" lon="10.5605450">
	<ele>1761.60</ele>
	<time>2024-03-09T10:39:52.000Z</time>
</trkpt>
<trkpt lat="46.2550640" lon="10.5605460">
	<ele>1761.60</ele>
	<time>2024-03-09T10:39:53.000Z</time>
</trkpt>
<trkpt lat="46.2550640" lon="10.5605460">
	<ele>1761.60</ele>
	<time>2024-03-09T10:39:54.000Z</time>
</trkpt>
<trkpt lat="46.2550640" lon="10.5605470">
	<ele>1761.60</ele>
	<time>2024-03-09T10:39:55.000Z</time>
</trkpt>
<trkpt lat="46.2550640" lon="10.5605470">
	<ele>1761.60</ele>
	<time>2024-03-09T10:39:56.000Z</time>
</trkpt>
<trkpt lat="46.2550640" lon="10.5605470">
	<ele>1761.60</ele>
	<time>2024-03-09T10:39:57.000Z</time>
</trkpt>
<trkpt lat="46.2550650" lon="10.5605470">
	<ele>1761.60</ele>
	<time>2024-03-09T10:39:58.000Z</time>
</trkpt>
<trkpt lat="46.2550650" lon="10.5605470">
	<ele>1761.60</ele>
	<time>2024-03-09T10:39:59.000Z</time>
</trkpt>
<trkpt lat="46.2550710" lon="10.5605470">
	<ele>1761.60</ele>
	<time>2024-03-09T10:40:00.000Z</time>
</trkpt>
<trkpt lat="46.2550740" lon="10.5605470">
	<ele>1761.60</ele>
	<time>2024-03-09T10:40:01.000Z</time>
</trkpt>
<trkpt lat="46.2550750" lon="10.5605470">
	<ele>1761.60</ele>
	<time>2024-03-09T10:40:02.000Z</time>
</trkpt>
<trkpt lat="46.2550760" lon="10.5605470">
	<ele>1761.60</ele>
	<time>2024-03-09T10:40:03.000Z</time>
</trkpt>
<trkpt lat="46.2550780" lon="10.5605470">
	<ele>1761.60</ele>
	<time>2024-03-09T10:40:04.000Z</time>
</trkpt>
<trkpt lat="46.2550800" lon="10.5605470">
	<ele>1761.60</ele>
	<time>2024-03-09T10:40:05.000Z</time>
</trkpt>
<trkpt lat="46.2550810" lon="10.5605470">
	<ele>1761.60</ele>
	<time>2024-03-09T10:40:06.000Z</time>
</trkpt>
<trkpt lat="46.2550820" lon="10.5605470">
	<ele>1761.60</ele>
	<time>2024-03-09T10:40:07.000Z</time>
</trkpt>
<trkpt lat="46.2550820" lon="10.5605460">
	<ele>1761.60</ele>
	<time>2024-03-09T10:40:08.000Z</time>
</trkpt>
<trkpt lat="46.2550820" lon="10.5605460">
	<ele>1761.60</ele>
	<time>2024-03-09T10:40:09.000Z</time>
</trkpt>
<trkpt lat="46.2550820" lon="10.5605460">
	<ele>1761.60</ele>
	<time>2024-03-09T10:40:10.000Z</time>
</trkpt>
<trkpt lat="46.2550820" lon="10.5605460">
	<ele>1761.60</ele>
	<time>2024-03-09T10:40:11.000Z</time>
</trkpt>
<trkpt lat="46.2550840" lon="10.5605460">
	<ele>1761.60</ele>
	<time>2024-03-09T10:40:12.000Z</time>
</trkpt>
<trkpt lat="46.2550840" lon="10.5605460">
	<ele>1761.60</ele>
	<time>2024-03-09T10:40:13.000Z</time>
</trkpt>
<trkpt lat="46.2550850" lon="10.5605450">
	<ele>1761.60</ele>
	<time>2024-03-09T10:40:14.000Z</time>
</trkpt>
<trkpt lat="46.2550860" lon="10.5605450">
	<ele>1761.60</ele>
	<time>2024-03-09T10:40:15.000Z</time>
</trkpt>
<trkpt lat="46.2550870" lon="10.5605450">
	<ele>1761.60</ele>
	<time>2024-03-09T10:40:16.000Z</time>
</trkpt>
<trkpt lat="46.2550870" lon="10.5605450">
	<ele>1761.60</ele>
	<time>2024-03-09T10:40:17.000Z</time>
</trkpt>
<trkpt lat="46.2550870" lon="10.5605450">
	<ele>1761.60</ele>
	<time>2024-03-09T10:40:18.000Z</time>
</trkpt>
<trkpt lat="46.2550870" lon="10.5605450">
	<ele>1761.60</ele>
	<time>2024-03-09T10:40:19.000Z</time>
</trkpt>
<trkpt lat="46.2550870" lon="10.5605450">
	<ele>1761.60</ele>
	<time>2024-03-09T10:40:20.000Z</time>
</trkpt>
<trkpt lat="46.2550870" lon="10.5605450">
	<ele>1761.60</ele>
	<time>2024-03-09T10:40:21.000Z</time>
</trkpt>
<trkpt lat="46.2550870" lon="10.5605450">
	<ele>1761.60</ele>
	<time>2024-03-09T10:40:22.000Z</time>
</trkpt>
<trkpt lat="46.2550870" lon="10.5605450">
	<ele>1761.60</ele>
	<time>2024-03-09T10:40:23.000Z</time>
</trkpt>
<trkpt lat="46.2550870" lon="10.5605450">
	<ele>1761.60</ele>
	<time>2024-03-09T10:40:24.000Z</time>
</trkpt>
<trkpt lat="46.2550870" lon="10.5605450">
	<ele>1761.60</ele>
	<time>2024-03-09T10:40:25.000Z</time>
</trkpt>
<trkpt lat="46.2550870" lon="10.5605450">
	<ele>1761.60</ele>
	<time>2024-03-09T10:40:26.000Z</time>
</trkpt>
<trkpt lat="46.2550870" lon="10.5605450">
	<ele>1761.60</ele>
	<time>2024-03-09T10:40:27.000Z</time>
</trkpt>
<trkpt lat="46.2550870" lon="10.5605450">
	<ele>1761.60</ele>
	<time>2024-03-09T10:40:28.000Z</time>
</trkpt>
<trkpt lat="46.2550870" lon="10.5605450">
	<ele>1761.60</ele>
	<time>2024-03-09T10:40:29.000Z</time>
</trkpt>
<trkpt lat="46.2550870" lon="10.5605450">
	<ele>1761.60</ele>
	<time>2024-03-09T10:40:30.000Z</time>
</trkpt>
<trkpt lat="46.2550870" lon="10.5605450">
	<ele>1761.60</ele>
	<time>2024-03-09T10:40:31.000Z</time>
</trkpt>
<trkpt lat="46.2550870" lon="10.5605450">
	<ele>1761.60</ele>
	<time>2024-03-09T10:40:32.000Z</time>
</trkpt>
<trkpt lat="46.2550870" lon="10.5605450">
	<ele>1761.60</ele>
	<time>2024-03-09T10:40:33.000Z</time>
</trkpt>
<trkpt lat="46.2550860" lon="10.5605450">
	<ele>1761.60</ele>
	<time>2024-03-09T10:40:34.000Z</time>
</trkpt>
<trkpt lat="46.2550850" lon="10.5605450">
	<ele>1761.60</ele>
	<time>2024-03-09T10:40:35.000Z</time>
</trkpt>
<trkpt lat="46.2550850" lon="10.5605450">
	<ele>1761.60</ele>
	<time>2024-03-09T10:40:36.000Z</time>
</trkpt>
<trkpt lat="46.2550840" lon="10.5605440">
	<ele>1761.60</ele>
	<time>2024-03-09T10:40:37.000Z</time>
</trkpt>
<trkpt lat="46.2550840" lon="10.5605440">
	<ele>1761.60</ele>
	<time>2024-03-09T10:40:38.000Z</time>
</trkpt>
<trkpt lat="46.2550840" lon="10.5605430">
	<ele>1761.60</ele>
	<time>2024-03-09T10:40:39.000Z</time>
</trkpt>
<trkpt lat="46.2550790" lon="10.5605430">
	<ele>1761.60</ele>
	<time>2024-03-09T10:40:40.000Z</time>
</trkpt>
<trkpt lat="46.2550760" lon="10.5605430">
	<ele>1761.60</ele>
	<time>2024-03-09T10:40:41.000Z</time>
</trkpt>
<trkpt lat="46.2550750" lon="10.5605430">
	<ele>1761.60</ele>
	<time>2024-03-09T10:40:42.000Z</time>
</trkpt>
<trkpt lat="46.2550750" lon="10.5605430">
	<ele>1761.60</ele>
	<time>2024-03-09T10:40:43.000Z</time>
</trkpt>
<trkpt lat="46.2550740" lon="10.5605430">
	<ele>1761.60</ele>
	<time>2024-03-09T10:40:44.000Z</time>
</trkpt>
<trkpt lat="46.2550740" lon="10.5605430">
	<ele>1761.60</ele>
	<time>2024-03-09T10:40:45.000Z</time>
</trkpt>
<trkpt lat="46.2550740" lon="10.5605430">
	<ele>1761.60</ele>
	<time>2024-03-09T10:40:46.000Z</time>
</trkpt>
<trkpt lat="46.2550740" lon="10.5605430">
	<ele>1761.60</ele>
	<time>2024-03-09T10:40:47.000Z</time>
</trkpt>
<trkpt lat="46.2550740" lon="10.5605430">
	<ele>1761.60</ele>
	<time>2024-03-09T10:40:48.000Z</time>
</trkpt>
<trkpt lat="46.2550740" lon="10.5605430">
	<ele>1761.60</ele>
	<time>2024-03-09T10:40:49.000Z</time>
</trkpt>
<trkpt lat="46.2550740" lon="10.5605430">
	<ele>1761.60</ele>
	<time>2024-03-09T10:40:50.000Z</time>
</trkpt>
<trkpt lat="46.2550730" lon="10.5605430">
	<ele>1761.60</ele>
	<time>2024-03-09T10:40:51.000Z</time>
</trkpt>
<trkpt lat="46.2550730" lon="10.5605430">
	<ele>1761.60</ele>
	<time>2024-03-09T10:40:52.000Z</time>
</trkpt>
<trkpt lat="46.2550730" lon="10.5605430">
	<ele>1761.60</ele>
	<time>2024-03-09T10:40:53.000Z</time>
</trkpt>
<trkpt lat="46.2550730" lon="10.5605430">
	<ele>1761.60</ele>
	<time>2024-03-09T10:40:54.000Z</time>
</trkpt>
<trkpt lat="46.2550730" lon="10.5605430">
	<ele>1761.60</ele>
	<time>2024-03-09T10:40:55.000Z</time>
</trkpt>
<trkpt lat="46.2550730" lon="10.5605430">
	<ele>1761.60</ele>
	<time>2024-03-09T10:40:56.000Z</time>
</trkpt>
<trkpt lat="46.2550730" lon="10.5605430">
	<ele>1761.60</ele>
	<time>2024-03-09T10:40:57.000Z</time>
</trkpt>
<trkpt lat="46.2550730" lon="10.5605430">
	<ele>1761.60</ele>
	<time>2024-03-09T10:40:58.000Z</time>
</trkpt>
<trkpt lat="46.2550730" lon="10.5605430">
	<ele>1761.60</ele>
	<time>2024-03-09T10:40:59.000Z</time>
</trkpt>
<trkpt lat="46.2550730" lon="10.5605430">
	<ele>1761.60</ele>
	<time>2024-03-09T10:41:00.000Z</time>
</trkpt>
<trkpt lat="46.2550730" lon="10.5605430">
	<ele>1761.60</ele>
	<time>2024-03-09T10:41:01.000Z</time>
</trkpt>
<trkpt lat="46.2550730" lon="10.5605430">
	<ele>1761.60</ele>
	<time>2024-03-09T10:41:02.000Z</time>
</trkpt>
<trkpt lat="46.2550730" lon="10.5605430">
	<ele>1761.60</ele>
	<time>2024-03-09T10:41:03.000Z</time>
</trkpt>
<trkpt lat="46.2550720" lon="10.5605430">
	<ele>1761.60</ele>
	<time>2024-03-09T10:41:04.000Z</time>
</trkpt>
<trkpt lat="46.2550720" lon="10.5605430">
	<ele>1761.60</ele>
	<time>2024-03-09T10:41:05.000Z</time>
</trkpt>
<trkpt lat="46.2550720" lon="10.5605430">
	<ele>1761.60</ele>
	<time>2024-03-09T10:41:06.000Z</time>
</trkpt>
<trkpt lat="46.2550720" lon="10.5605430">
	<ele>1761.60</ele>
	<time>2024-03-09T10:41:07.000Z</time>
</trkpt>
<trkpt lat="46.2550720" lon="10.5605430">
	<ele>1761.60</ele>
	<time>2024-03-09T10:41:08.000Z</time>
</trkpt>
<trkpt lat="46.2550720" lon="10.5605430">
	<ele>1761.60</ele>
	<time>2024-03-09T10:41:09.000Z</time>
</trkpt>
<trkpt lat="46.2550720" lon="10.5605430">
	<ele>1761.60</ele>
	<time>2024-03-09T10:41:10.000Z</time>
</trkpt>
<trkpt lat="46.2550720" lon="10.5605430">
	<ele>1761.60</ele>
	<time>2024-03-09T10:41:11.000Z</time>
</trkpt>
<trkpt lat="46.2550720" lon="10.5605430">
	<ele>1761.60</ele>
	<time>2024-03-09T10:41:12.000Z</time>
</trkpt>
<trkpt lat="46.2550720" lon="10.5605420">
	<ele>1761.60</ele>
	<time>2024-03-09T10:41:13.000Z</time>
</trkpt>
<trkpt lat="46.2550720" lon="10.5605410">
	<ele>1761.60</ele>
	<time>2024-03-09T10:41:14.000Z</time>
</trkpt>
<trkpt lat="46.2550720" lon="10.5605400">
	<ele>1761.60</ele>
	<time>2024-03-09T10:41:15.000Z</time>
</trkpt>
<trkpt lat="46.2550720" lon="10.5605390">
	<ele>1761.60</ele>
	<time>2024-03-09T10:41:16.000Z</time>
</trkpt>
<trkpt lat="46.2550720" lon="10.5605390">
	<ele>1761.60</ele>
	<time>2024-03-09T10:41:17.000Z</time>
</trkpt>
<trkpt lat="46.2550720" lon="10.5605380">
	<ele>1761.60</ele>
	<time>2024-03-09T10:41:18.000Z</time>
</trkpt>
<trkpt lat="46.2550720" lon="10.5605380">
	<ele>1761.60</ele>
	<time>2024-03-09T10:41:19.000Z</time>
</trkpt>
<trkpt lat="46.2550720" lon="10.5605380">
	<ele>1761.60</ele>
	<time>2024-03-09T10:41:20.000Z</time>
</trkpt>
<trkpt lat="46.2550720" lon="10.5605370">
	<ele>1761.60</ele>
	<time>2024-03-09T10:41:21.000Z</time>
</trkpt>
<trkpt lat="46.2550710" lon="10.5605370">
	<ele>1761.60</ele>
	<time>2024-03-09T10:41:22.000Z</time>
</trkpt>
<trkpt lat="46.2550710" lon="10.5605370">
	<ele>1761.60</ele>
	<time>2024-03-09T10:41:23.000Z</time>
</trkpt>
<trkpt lat="46.2550710" lon="10.5605360">
	<ele>1761.60</ele>
	<time>2024-03-09T10:41:24.000Z</time>
</trkpt>
<trkpt lat="46.2550710" lon="10.5605360">
	<ele>1761.60</ele>
	<time>2024-03-09T10:41:25.000Z</time>
</trkpt>
<trkpt lat="46.2550710" lon="10.5605350">
	<ele>1761.60</ele>
	<time>2024-03-09T10:41:26.000Z</time>
</trkpt>
<trkpt lat="46.2550710" lon="10.5605340">
	<ele>1761.60</ele>
	<time>2024-03-09T10:41:27.000Z</time>
</trkpt>
<trkpt lat="46.2550680" lon="10.5605340">
	<ele>1761.60</ele>
	<time>2024-03-09T10:41:28.000Z</time>
</trkpt>
<trkpt lat="46.2550670" lon="10.5605340">
	<ele>1761.60</ele>
	<time>2024-03-09T10:41:29.000Z</time>
</trkpt>
<trkpt lat="46.2550660" lon="10.5605340">
	<ele>1761.60</ele>
	<time>2024-03-09T10:41:30.000Z</time>
</trkpt>
<trkpt lat="46.2550650" lon="10.5605340">
	<ele>1761.60</ele>
	<time>2024-03-09T10:41:31.000Z</time>
</trkpt>
<trkpt lat="46.2550650" lon="10.5605340">
	<ele>1761.60</ele>
	<time>2024-03-09T10:41:32.000Z</time>
</trkpt>
<trkpt lat="46.2550640" lon="10.5605330">
	<ele>1761.60</ele>
	<time>2024-03-09T10:41:33.000Z</time>
</trkpt>
<trkpt lat="46.2550640" lon="10.5605330">
	<ele>1761.60</ele>
	<time>2024-03-09T10:41:34.000Z</time>
</trkpt>
<trkpt lat="46.2550640" lon="10.5605330">
	<ele>1761.60</ele>
	<time>2024-03-09T10:41:35.000Z</time>
</trkpt>
<trkpt lat="46.2550630" lon="10.5605330">
	<ele>1761.60</ele>
	<time>2024-03-09T10:41:36.000Z</time>
</trkpt>
<trkpt lat="46.2550630" lon="10.5605330">
	<ele>1761.60</ele>
	<time>2024-03-09T10:41:37.000Z</time>
</trkpt>
<trkpt lat="46.2550630" lon="10.5605320">
	<ele>1761.60</ele>
	<time>2024-03-09T10:41:38.000Z</time>
</trkpt>
<trkpt lat="46.2550620" lon="10.5605320">
	<ele>1761.60</ele>
	<time>2024-03-09T10:41:39.000Z</time>
</trkpt>
<trkpt lat="46.2550620" lon="10.5605320">
	<ele>1761.60</ele>
	<time>2024-03-09T10:41:40.000Z</time>
</trkpt>
<trkpt lat="46.2550610" lon="10.5605320">
	<ele>1761.60</ele>
	<time>2024-03-09T10:41:41.000Z</time>
</trkpt>
<trkpt lat="46.2550610" lon="10.5605320">
	<ele>1761.60</ele>
	<time>2024-03-09T10:41:42.000Z</time>
</trkpt>
<trkpt lat="46.2550590" lon="10.5605260">
	<ele>1761.60</ele>
	<time>2024-03-09T10:41:43.000Z</time>
</trkpt>
<trkpt lat="46.2550620" lon="10.5604990">
	<ele>1761.60</ele>
	<time>2024-03-09T10:41:44.000Z</time>
</trkpt>
<trkpt lat="46.2550630" lon="10.5604670">
	<ele>1761.60</ele>
	<time>2024-03-09T10:41:45.000Z</time>
</trkpt>
<trkpt lat="46.2550630" lon="10.5604380">
	<ele>1761.60</ele>
	<time>2024-03-09T10:41:46.000Z</time>
</trkpt>
<trkpt lat="46.2550640" lon="10.5603960">
	<ele>1761.60</ele>
	<time>2024-03-09T10:41:47.000Z</time>
</trkpt>
<trkpt lat="46.2550680" lon="10.5603590">
	<ele>1761.60</ele>
	<time>2024-03-09T10:41:48.000Z</time>
</trkpt>
<trkpt lat="46.2550710" lon="10.5603220">
	<ele>1761.60</ele>
	<time>2024-03-09T10:41:49.000Z</time>
</trkpt>
<trkpt lat="46.2550710" lon="10.5602890">
	<ele>1761.60</ele>
	<time>2024-03-09T10:41:50.000Z</time>
</trkpt>
<trkpt lat="46.2550680" lon="10.5602410">
	<ele>1761.60</ele>
	<time>2024-03-09T10:41:51.000Z</time>
</trkpt>
<trkpt lat="46.2550670" lon="10.5601960">
	<ele>1761.60</ele>
	<time>2024-03-09T10:41:52.000Z</time>
</trkpt>
<trkpt lat="46.2550670" lon="10.5601620">
	<ele>1761.60</ele>
	<time>2024-03-09T10:41:53.000Z</time>
</trkpt>
<trkpt lat="46.2550670" lon="10.5601190">
	<ele>1760.60</ele>
	<time>2024-03-09T10:41:54.000Z</time>
</trkpt>
<trkpt lat="46.2550680" lon="10.5600790">
	<ele>1759.80</ele>
	<time>2024-03-09T10:41:55.000Z</time>
</trkpt>
<trkpt lat="46.2550720" lon="10.5600400">
	<ele>1759.20</ele>
	<time>2024-03-09T10:41:56.000Z</time>
</trkpt>
<trkpt lat="46.2550750" lon="10.5599980">
	<ele>1758.80</ele>
	<time>2024-03-09T10:41:57.000Z</time>
</trkpt>
<trkpt lat="46.2550760" lon="10.5599540">
	<ele>1758.20</ele>
	<time>2024-03-09T10:41:58.000Z</time>
</trkpt>
<trkpt lat="46.2550760" lon="10.5599030">
	<ele>1758.00</ele>
	<time>2024-03-09T10:41:59.000Z</time>
</trkpt>
<trkpt lat="46.2550780" lon="10.5598490">
	<ele>1757.40</ele>
	<time>2024-03-09T10:42:00.000Z</time>
</trkpt>
<trkpt lat="46.2550830" lon="10.5597940">
	<ele>1756.60</ele>
	<time>2024-03-09T10:42:01.000Z</time>
</trkpt>
<trkpt lat="46.2550890" lon="10.5597380">
	<ele>1756.00</ele>
	<time>2024-03-09T10:42:02.000Z</time>
</trkpt>
<trkpt lat="46.2550930" lon="10.5596790">
	<ele>1755.40</ele>
	<time>2024-03-09T10:42:03.000Z</time>
</trkpt>
<trkpt lat="46.2550930" lon="10.5596190">
	<ele>1754.80</ele>
	<time>2024-03-09T10:42:04.000Z</time>
</trkpt>
<trkpt lat="46.2550890" lon="10.5595610">
	<ele>1754.20</ele>
	<time>2024-03-09T10:42:05.000Z</time>
</trkpt>
<trkpt lat="46.2550830" lon="10.5595030">
	<ele>1753.40</ele>
	<time>2024-03-09T10:42:06.000Z</time>
</trkpt>
<trkpt lat="46.2550770" lon="10.5594480">
	<ele>1752.80</ele>
	<time>2024-03-09T10:42:07.000Z</time>
</trkpt>
<trkpt lat="46.2550780" lon="10.5593990">
	<ele>1752.20</ele>
	<time>2024-03-09T10:42:08.000Z</time>
</trkpt>
<trkpt lat="46.2550910" lon="10.5593490">
	<ele>1751.60</ele>
	<time>2024-03-09T10:42:09.000Z</time>
</trkpt>
<trkpt lat="46.2551000" lon="10.5592930">
	<ele>1751.20</ele>
	<time>2024-03-09T10:42:10.000Z</time>
</trkpt>
<trkpt lat="46.2551160" lon="10.5592400">
	<ele>1750.40</ele>
	<time>2024-03-09T10:42:11.000Z</time>
</trkpt>
<trkpt lat="46.2551350" lon="10.5591910">
	<ele>1749.80</ele>
	<time>2024-03-09T10:42:12.000Z</time>
</trkpt>
<trkpt lat="46.2551500" lon="10.5591390">
	<ele>1749.20</ele>
	<time>2024-03-09T10:42:13.000Z</time>
</trkpt>
<trkpt lat="46.2551610" lon="10.5590860">
	<ele>1748.40</ele>
	<time>2024-03-09T10:42:14.000Z</time>
</trkpt>
<trkpt lat="46.2551640" lon="10.5590340">
	<ele>1748.00</ele>
	<time>2024-03-09T10:42:15.000Z</time>
</trkpt>
<trkpt lat="46.2551690" lon="10.5589830">
	<ele>1747.60</ele>
	<time>2024-03-09T10:42:16.000Z</time>
</trkpt>
<trkpt lat="46.2551770" lon="10.5589250">
	<ele>1747.00</ele>
	<time>2024-03-09T10:42:17.000Z</time>
</trkpt>
<trkpt lat="46.2551810" lon="10.5588810">
	<ele>1746.40</ele>
	<time>2024-03-09T10:42:18.000Z</time>
</trkpt>
<trkpt lat="46.2551880" lon="10.5588390">
	<ele>1746.00</ele>
	<time>2024-03-09T10:42:19.000Z</time>
</trkpt>
<trkpt lat="46.2551910" lon="10.5587950">
	<ele>1745.80</ele>
	<time>2024-03-09T10:42:20.000Z</time>
</trkpt>
<trkpt lat="46.2551910" lon="10.5587520">
	<ele>1745.20</ele>
	<time>2024-03-09T10:42:21.000Z</time>
</trkpt>
<trkpt lat="46.2551900" lon="10.5587120">
	<ele>1744.80</ele>
	<time>2024-03-09T10:42:22.000Z</time>
</trkpt>
<trkpt lat="46.2551940" lon="10.5586730">
	<ele>1744.60</ele>
	<time>2024-03-09T10:42:23.000Z</time>
</trkpt>
<trkpt lat="46.2552000" lon="10.5586410">
	<ele>1744.20</ele>
	<time>2024-03-09T10:42:24.000Z</time>
</trkpt>
<trkpt lat="46.2552110" lon="10.5586140">
	<ele>1744.20</ele>
	<time>2024-03-09T10:42:25.000Z</time>
</trkpt>
<trkpt lat="46.2552210" lon="10.5585730">
	<ele>1743.80</ele>
	<time>2024-03-09T10:42:26.000Z</time>
</trkpt>
<trkpt lat="46.2552310" lon="10.5585370">
	<ele>1743.40</ele>
	<time>2024-03-09T10:42:27.000Z</time>
</trkpt>
<trkpt lat="46.2552420" lon="10.5585000">
	<ele>1743.20</ele>
	<time>2024-03-09T10:42:28.000Z</time>
</trkpt>
<trkpt lat="46.2552560" lon="10.5584570">
	<ele>1742.80</ele>
	<time>2024-03-09T10:42:29.000Z</time>
</trkpt>
<trkpt lat="46.2552650" lon="10.5584140">
	<ele>1742.60</ele>
	<time>2024-03-09T10:42:30.000Z</time>
</trkpt>
<trkpt lat="46.2552730" lon="10.5583680">
	<ele>1742.40</ele>
	<time>2024-03-09T10:42:31.000Z</time>
</trkpt>
<trkpt lat="46.2552880" lon="10.5583160">
	<ele>1742.00</ele>
	<time>2024-03-09T10:42:32.000Z</time>
</trkpt>
<trkpt lat="46.2552950" lon="10.5582650">
	<ele>1741.60</ele>
	<time>2024-03-09T10:42:33.000Z</time>
</trkpt>
<trkpt lat="46.2552970" lon="10.5582240">
	<ele>1741.20</ele>
	<time>2024-03-09T10:42:34.000Z</time>
</trkpt>
<trkpt lat="46.2553100" lon="10.5581580">
	<ele>1741.00</ele>
	<time>2024-03-09T10:42:35.000Z</time>
</trkpt>
<trkpt lat="46.2553160" lon="10.5581010">
	<ele>1740.40</ele>
	<time>2024-03-09T10:42:36.000Z</time>
</trkpt>
<trkpt lat="46.2553140" lon="10.5580450">
	<ele>1740.00</ele>
	<time>2024-03-09T10:42:37.000Z</time>
</trkpt>
<trkpt lat="46.2553100" lon="10.5579870">
	<ele>1739.40</ele>
	<time>2024-03-09T10:42:38.000Z</time>
</trkpt>
<trkpt lat="46.2553050" lon="10.5579290">
	<ele>1739.00</ele>
	<time>2024-03-09T10:42:39.000Z</time>
</trkpt>
<trkpt lat="46.2552980" lon="10.5578900">
	<ele>1738.60</ele>
	<time>2024-03-09T10:42:40.000Z</time>
</trkpt>
<trkpt lat="46.2552910" lon="10.5578380">
	<ele>1738.20</ele>
	<time>2024-03-09T10:42:41.000Z</time>
</trkpt>
<trkpt lat="46.2552840" lon="10.5577980">
	<ele>1737.80</ele>
	<time>2024-03-09T10:42:42.000Z</time>
</trkpt>
<trkpt lat="46.2552780" lon="10.5577590">
	<ele>1737.60</ele>
	<time>2024-03-09T10:42:43.000Z</time>
</trkpt>
<trkpt lat="46.2552750" lon="10.5577210">
	<ele>1737.00</ele>
	<time>2024-03-09T10:42:44.000Z</time>
</trkpt>
<trkpt lat="46.2552710" lon="10.5576780">
	<ele>1736.60</ele>
	<time>2024-03-09T10:42:45.000Z</time>
</trkpt>
<trkpt lat="46.2552660" lon="10.5576310">
	<ele>1736.00</ele>
	<time>2024-03-09T10:42:46.000Z</time>
</trkpt>
<trkpt lat="46.2552610" lon="10.5575830">
	<ele>1735.60</ele>
	<time>2024-03-09T10:42:47.000Z</time>
</trkpt>
<trkpt lat="46.2552530" lon="10.5575350">
	<ele>1735.00</ele>
	<time>2024-03-09T10:42:48.000Z</time>
</trkpt>
<trkpt lat="46.2552460" lon="10.5574860">
	<ele>1734.80</ele>
	<time>2024-03-09T10:42:49.000Z</time>
</trkpt>
<trkpt lat="46.2552440" lon="10.5574370">
	<ele>1734.40</ele>
	<time>2024-03-09T10:42:50.000Z</time>
</trkpt>
<trkpt lat="46.2552460" lon="10.5573870">
	<ele>1734.20</ele>
	<time>2024-03-09T10:42:51.000Z</time>
</trkpt>
<trkpt lat="46.2552460" lon="10.5573340">
	<ele>1733.80</ele>
	<time>2024-03-09T10:42:52.000Z</time>
</trkpt>
<trkpt lat="46.2552430" lon="10.5572820">
	<ele>1733.40</ele>
	<time>2024-03-09T10:42:53.000Z</time>
</trkpt>
<trkpt lat="46.2552370" lon="10.5572410">
	<ele>1733.00</ele>
	<time>2024-03-09T10:42:54.000Z</time>
</trkpt>
<trkpt lat="46.2552210" lon="10.5571870">
	<ele>1732.60</ele>
	<time>2024-03-09T10:42:55.000Z</time>
</trkpt>
<trkpt lat="46.2552070" lon="10.5571560">
	<ele>1732.40</ele>
	<time>2024-03-09T10:42:56.000Z</time>
</trkpt>
<trkpt lat="46.2551920" lon="10.5571150">
	<ele>1732.00</ele>
	<time>2024-03-09T10:42:57.000Z</time>
</trkpt>
<trkpt lat="46.2551730" lon="10.5570680">
	<ele>1731.60</ele>
	<time>2024-03-09T10:42:58.000Z</time>
</trkpt>
<trkpt lat="46.2551500" lon="10.5570240">
	<ele>1731.40</ele>
	<time>2024-03-09T10:42:59.000Z</time>
</trkpt>
<trkpt lat="46.2551250" lon="10.5569850">
	<ele>1731.20</ele>
	<time>2024-03-09T10:43:00.000Z</time>
</trkpt>
<trkpt lat="46.2550940" lon="10.5569500">
	<ele>1731.00</ele>
	<time>2024-03-09T10:43:01.000Z</time>
</trkpt>
<trkpt lat="46.2550610" lon="10.5569150">
	<ele>1730.60</ele>
	<time>2024-03-09T10:43:02.000Z</time>
</trkpt>
<trkpt lat="46.2550310" lon="10.5568750">
	<ele>1730.40</ele>
	<time>2024-03-09T10:43:03.000Z</time>
</trkpt>
<trkpt lat="46.2550070" lon="10.5568310">
	<ele>1730.00</ele>
	<time>2024-03-09T10:43:04.000Z</time>
</trkpt>
<trkpt lat="46.2549820" lon="10.5567850">
	<ele>1729.80</ele>
	<time>2024-03-09T10:43:05.000Z</time>
</trkpt>
<trkpt lat="46.2549590" lon="10.5567320">
	<ele>1729.40</ele>
	<time>2024-03-09T10:43:06.000Z</time>
</trkpt>
<trkpt lat="46.2549360" lon="10.5566780">
	<ele>1729.00</ele>
	<time>2024-03-09T10:43:07.000Z</time>
</trkpt>
<trkpt lat="46.2549100" lon="10.5566270">
	<ele>1728.80</ele>
	<time>2024-03-09T10:43:08.000Z</time>
</trkpt>
<trkpt lat="46.2548900" lon="10.5565720">
	<ele>1728.40</ele>
	<time>2024-03-09T10:43:09.000Z</time>
</trkpt>
<trkpt lat="46.2548690" lon="10.5565180">
	<ele>1728.20</ele>
	<time>2024-03-09T10:43:10.000Z</time>
</trkpt>
<trkpt lat="46.2548500" lon="10.5564600">
	<ele>1727.80</ele>
	<time>2024-03-09T10:43:11.000Z</time>
</trkpt>
<trkpt lat="46.2548270" lon="10.5564040">
	<ele>1727.40</ele>
	<time>2024-03-09T10:43:12.000Z</time>
</trkpt>
<trkpt lat="46.2548040" lon="10.5563470">
	<ele>1727.20</ele>
	<time>2024-03-09T10:43:13.000Z</time>
</trkpt>
<trkpt lat="46.2547810" lon="10.5562920">
	<ele>1726.60</ele>
	<time>2024-03-09T10:43:14.000Z</time>
</trkpt>
<trkpt lat="46.2547530" lon="10.5562250">
	<ele>1726.40</ele>
	<time>2024-03-09T10:43:15.000Z</time>
</trkpt>
<trkpt lat="46.2547360" lon="10.5561800">
	<ele>1726.00</ele>
	<time>2024-03-09T10:43:16.000Z</time>
</trkpt>
<trkpt lat="46.2547080" lon="10.5561100">
	<ele>1725.80</ele>
	<time>2024-03-09T10:43:17.000Z</time>
</trkpt>
<trkpt lat="46.2546810" lon="10.5560550">
	<ele>1725.60</ele>
	<time>2024-03-09T10:43:18.000Z</time>
</trkpt>
<trkpt lat="46.2546540" lon="10.5560000">
	<ele>1725.40</ele>
	<time>2024-03-09T10:43:19.000Z</time>
</trkpt>
<trkpt lat="46.2546300" lon="10.5559440">
	<ele>1725.00</ele>
	<time>2024-03-09T10:43:20.000Z</time>
</trkpt>
<trkpt lat="46.2546130" lon="10.5558830">
	<ele>1724.60</ele>
	<time>2024-03-09T10:43:21.000Z</time>
</trkpt>
<trkpt lat="46.2546010" lon="10.5558310">
	<ele>1724.40</ele>
	<time>2024-03-09T10:43:22.000Z</time>
</trkpt>
<trkpt lat="46.2545790" lon="10.5557580">
	<ele>1724.00</ele>
	<time>2024-03-09T10:43:23.000Z</time>
</trkpt>
<trkpt lat="46.2545560" lon="10.5557020">
	<ele>1723.40</ele>
	<time>2024-03-09T10:43:24.000Z</time>
</trkpt>
<trkpt lat="46.2545350" lon="10.5556460">
	<ele>1723.20</ele>
	<time>2024-03-09T10:43:25.000Z</time>
</trkpt>
<trkpt lat="46.2545160" lon="10.5555870">
	<ele>1723.00</ele>
	<time>2024-03-09T10:43:26.000Z</time>
</trkpt>
<trkpt lat="46.2545010" lon="10.5555250">
	<ele>1722.80</ele>
	<time>2024-03-09T10:43:27.000Z</time>
</trkpt>
<trkpt lat="46.2544860" lon="10.5554630">
	<ele>1722.40</ele>
	<time>2024-03-09T10:43:28.000Z</time>
</trkpt>
<trkpt lat="46.2544680" lon="10.5554000">
	<ele>1722.00</ele>
	<time>2024-03-09T10:43:29.000Z</time>
</trkpt>
<trkpt lat="46.2544550" lon="10.5553510">
	<ele>1721.60</ele>
	<time>2024-03-09T10:43:30.000Z</time>
</trkpt>
<trkpt lat="46.2544340" lon="10.5552770">
	<ele>1721.20</ele>
	<time>2024-03-09T10:43:31.000Z</time>
</trkpt>
<trkpt lat="46.2544160" lon="10.5552300">
	<ele>1720.80</ele>
	<time>2024-03-09T10:43:32.000Z</time>
</trkpt>
<trkpt lat="46.2543920" lon="10.5551670">
	<ele>1720.60</ele>
	<time>2024-03-09T10:43:33.000Z</time>
</trkpt>
<trkpt lat="46.2543790" lon="10.5551250">
	<ele>1720.40</ele>
	<time>2024-03-09T10:43:34.000Z</time>
</trkpt>
<trkpt lat="46.2543750" lon="10.5550990">
	<ele>1720.20</ele>
	<time>2024-03-09T10:43:35.000Z</time>
</trkpt>
<trkpt lat="46.2543710" lon="10.5550890">
	<ele>1720.00</ele>
	<time>2024-03-09T10:43:36.000Z</time>
</trkpt>
<trkpt lat="46.2543680" lon="10.5550880">
	<ele>1719.60</ele>
	<time>2024-03-09T10:43:37.000Z</time>
</trkpt>
<trkpt lat="46.2543640" lon="10.5550870">
	<ele>1719.40</ele>
	<time>2024-03-09T10:43:38.000Z</time>
</trkpt>
<trkpt lat="46.2543670" lon="10.5550830">
	<ele>1719.40</ele>
	<time>2024-03-09T10:43:39.000Z</time>
</trkpt>
<trkpt lat="46.2543750" lon="10.5550740">
	<ele>1719.20</ele>
	<time>2024-03-09T10:43:40.000Z</time>
</trkpt>
<trkpt lat="46.2543810" lon="10.5550650">
	<ele>1719.20</ele>
	<time>2024-03-09T10:43:41.000Z</time>
</trkpt>
<trkpt lat="46.2543830" lon="10.5550500">
	<ele>1719.20</ele>
	<time>2024-03-09T10:43:42.000Z</time>
</trkpt>
<trkpt lat="46.2543810" lon="10.5550280">
	<ele>1719.20</ele>
	<time>2024-03-09T10:43:43.000Z</time>
</trkpt>
<trkpt lat="46.2543770" lon="10.5550040">
	<ele>1719.20</ele>
	<time>2024-03-09T10:43:44.000Z</time>
</trkpt>
<trkpt lat="46.2543740" lon="10.5549790">
	<ele>1719.20</ele>
	<time>2024-03-09T10:43:45.000Z</time>
</trkpt>
<trkpt lat="46.2543680" lon="10.5549530">
	<ele>1719.20</ele>
	<time>2024-03-09T10:43:46.000Z</time>
</trkpt>
<trkpt lat="46.2543630" lon="10.5549230">
	<ele>1719.00</ele>
	<time>2024-03-09T10:43:47.000Z</time>
</trkpt>
<trkpt lat="46.2543550" lon="10.5548920">
	<ele>1718.80</ele>
	<time>2024-03-09T10:43:48.000Z</time>
</trkpt>
<trkpt lat="46.2543420" lon="10.5548590">
	<ele>1718.80</ele>
	<time>2024-03-09T10:43:49.000Z</time>
</trkpt>
<trkpt lat="46.2543240" lon="10.5548230">
	<ele>1718.60</ele>
	<time>2024-03-09T10:43:50.000Z</time>
</trkpt>
<trkpt lat="46.2543040" lon="10.5547810">
	<ele>1718.40</ele>
	<time>2024-03-09T10:43:51.000Z</time>
</trkpt>
<trkpt lat="46.2542830" lon="10.5547340">
	<ele>1718.20</ele>
	<time>2024-03-09T10:43:52.000Z</time>
</trkpt>
<trkpt lat="46.2542630" lon="10.5546850">
	<ele>1718.00</ele>
	<time>2024-03-09T10:43:53.000Z</time>
</trkpt>
<trkpt lat="46.2542450" lon="10.5546310">
	<ele>1717.60</ele>
	<time>2024-03-09T10:43:54.000Z</time>
</trkpt>
<trkpt lat="46.2542240" lon="10.5545750">
	<ele>1717.40</ele>
	<time>2024-03-09T10:43:55.000Z</time>
</trkpt>
<trkpt lat="46.2542010" lon="10.5545230">
	<ele>1717.00</ele>
	<time>2024-03-09T10:43:56.000Z</time>
</trkpt>
<trkpt lat="46.2541740" lon="10.5544780">
	<ele>1716.80</ele>
	<time>2024-03-09T10:43:57.000Z</time>
</trkpt>
<trkpt lat="46.2541530" lon="10.5544320">
	<ele>1716.60</ele>
	<time>2024-03-09T10:43:58.000Z</time>
</trkpt>
<trkpt lat="46.2541360" lon="10.5543820">
	<ele>1716.40</ele>
	<time>2024-03-09T10:43:59.000Z</time>
</trkpt>
<trkpt lat="46.2541230" lon="10.5543290">
	<ele>1716.00</ele>
	<time>2024-03-09T10:44:00.000Z</time>
</trkpt>
<trkpt lat="46.2541110" lon="10.5542730">
	<ele>1715.80</ele>
	<time>2024-03-09T10:44:01.000Z</time>
</trkpt>
<trkpt lat="46.2540930" lon="10.5542190">
	<ele>1715.40</ele>
	<time>2024-03-09T10:44:02.000Z</time>
</trkpt>
<trkpt lat="46.2540690" lon="10.5541710">
	<ele>1715.20</ele>
	<time>2024-03-09T10:44:03.000Z</time>
</trkpt>
<trkpt lat="46.2540430" lon="10.5541260">
	<ele>1714.60</ele>
	<time>2024-03-09T10:44:04.000Z</time>
</trkpt>
<trkpt lat="46.2540130" lon="10.5540810">
	<ele>1714.20</ele>
	<time>2024-03-09T10:44:05.000Z</time>
</trkpt>
<trkpt lat="46.2539810" lon="10.5540350">
	<ele>1714.00</ele>
	<time>2024-03-09T10:44:06.000Z</time>
</trkpt>
<trkpt lat="46.2539500" lon="10.5539860">
	<ele>1713.40</ele>
	<time>2024-03-09T10:44:07.000Z</time>
</trkpt>
<trkpt lat="46.2539210" lon="10.5539330">
	<ele>1713.00</ele>
	<time>2024-03-09T10:44:08.000Z</time>
</trkpt>
<trkpt lat="46.2538860" lon="10.5538750">
	<ele>1712.60</ele>
	<time>2024-03-09T10:44:09.000Z</time>
</trkpt>
<trkpt lat="46.2538520" lon="10.5538430">
	<ele>1712.00</ele>
	<time>2024-03-09T10:44:10.000Z</time>
</trkpt>
<trkpt lat="46.2538150" lon="10.5538160">
	<ele>1711.80</ele>
	<time>2024-03-09T10:44:11.000Z</time>
</trkpt>
<trkpt lat="46.2537840" lon="10.5537930">
	<ele>1711.20</ele>
	<time>2024-03-09T10:44:12.000Z</time>
</trkpt>
<trkpt lat="46.2537340" lon="10.5537560">
	<ele>1710.80</ele>
	<time>2024-03-09T10:44:13.000Z</time>
</trkpt>
<trkpt lat="46.2536950" lon="10.5537170">
	<ele>1710.40</ele>
	<time>2024-03-09T10:44:14.000Z</time>
</trkpt>
<trkpt lat="46.2536620" lon="10.5536690">
	<ele>1710.00</ele>
	<time>2024-03-09T10:44:15.000Z</time>
</trkpt>
<trkpt lat="46.2536410" lon="10.5536140">
	<ele>1709.60</ele>
	<time>2024-03-09T10:44:16.000Z</time>
</trkpt>
<trkpt lat="46.2536210" lon="10.5535580">
	<ele>1709.20</ele>
	<time>2024-03-09T10:44:17.000Z</time>
</trkpt>
<trkpt lat="46.2536080" lon="10.5534930">
	<ele>1709.00</ele>
	<time>2024-03-09T10:44:18.000Z</time>
</trkpt>
<trkpt lat="46.2535910" lon="10.5534360">
	<ele>1708.40</ele>
	<time>2024-03-09T10:44:19.000Z</time>
</trkpt>
<trkpt lat="46.2535760" lon="10.5533920">
	<ele>1708.20</ele>
	<time>2024-03-09T10:44:20.000Z</time>
</trkpt>
<trkpt lat="46.2535490" lon="10.5533320">
	<ele>1707.80</ele>
	<time>2024-03-09T10:44:21.000Z</time>
</trkpt>
<trkpt lat="46.2535190" lon="10.5532930">
	<ele>1707.80</ele>
	<time>2024-03-09T10:44:22.000Z</time>
</trkpt>
<trkpt lat="46.2534930" lon="10.5532530">
	<ele>1707.60</ele>
	<time>2024-03-09T10:44:23.000Z</time>
</trkpt>
<trkpt lat="46.2534780" lon="10.5532020">
	<ele>1707.40</ele>
	<time>2024-03-09T10:44:24.000Z</time>
</trkpt>
<trkpt lat="46.2534590" lon="10.5531490">
	<ele>1707.00</ele>
	<time>2024-03-09T10:44:25.000Z</time>
</trkpt>
<trkpt lat="46.2534330" lon="10.5531020">
	<ele>1706.60</ele>
	<time>2024-03-09T10:44:26.000Z</time>
</trkpt>
<trkpt lat="46.2534040" lon="10.5530530">
	<ele>1706.20</ele>
	<time>2024-03-09T10:44:27.000Z</time>
</trkpt>
<trkpt lat="46.2533920" lon="10.5530050">
	<ele>1705.80</ele>
	<time>2024-03-09T10:44:28.000Z</time>
</trkpt>
<trkpt lat="46.2533730" lon="10.5529310">
	<ele>1705.60</ele>
	<time>2024-03-09T10:44:29.000Z</time>
</trkpt>
<trkpt lat="46.2533530" lon="10.5528710">
	<ele>1705.00</ele>
	<time>2024-03-09T10:44:30.000Z</time>
</trkpt>
<trkpt lat="46.2533350" lon="10.5528230">
	<ele>1704.60</ele>
	<time>2024-03-09T10:44:31.000Z</time>
</trkpt>
<trkpt lat="46.2533150" lon="10.5527610">
	<ele>1704.00</ele>
	<time>2024-03-09T10:44:32.000Z</time>
</trkpt>
<trkpt lat="46.2533040" lon="10.5526780">
	<ele>1703.60</ele>
	<time>2024-03-09T10:44:33.000Z</time>
</trkpt>
<trkpt lat="46.2532990" lon="10.5526200">
	<ele>1703.00</ele>
	<time>2024-03-09T10:44:34.000Z</time>
</trkpt>
<trkpt lat="46.2532960" lon="10.5525470">
	<ele>1702.60</ele>
	<time>2024-03-09T10:44:35.000Z</time>
</trkpt>
<trkpt lat="46.2532910" lon="10.5524720">
	<ele>1702.20</ele>
	<time>2024-03-09T10:44:36.000Z</time>
</trkpt>
<trkpt lat="46.2532700" lon="10.5523910">
	<ele>1701.80</ele>
	<time>2024-03-09T10:44:37.000Z</time>
</trkpt>
<trkpt lat="46.2532460" lon="10.5523480">
	<ele>1701.40</ele>
	<time>2024-03-09T10:44:38.000Z</time>
</trkpt>
<trkpt lat="46.2532200" lon="10.5522890">
	<ele>1700.80</ele>
	<time>2024-03-09T10:44:39.000Z</time>
</trkpt>
<trkpt lat="46.2532030" lon="10.5522210">
	<ele>1700.60</ele>
	<time>2024-03-09T10:44:40.000Z</time>
</trkpt>
<trkpt lat="46.2531870" lon="10.5521330">
	<ele>1699.80</ele>
	<time>2024-03-09T10:44:41.000Z</time>
</trkpt>
<trkpt lat="46.2531680" lon="10.5520620">
	<ele>1699.20</ele>
	<time>2024-03-09T10:44:42.000Z</time>
</trkpt>
<trkpt lat="46.2531510" lon="10.5519970">
	<ele>1698.60</ele>
	<time>2024-03-09T10:44:43.000Z</time>
</trkpt>
<trkpt lat="46.2531370" lon="10.5519290">
	<ele>1698.20</ele>
	<time>2024-03-09T10:44:44.000Z</time>
</trkpt>
<trkpt lat="46.2531220" lon="10.5518590">
	<ele>1698.00</ele>
	<time>2024-03-09T10:44:45.000Z</time>
</trkpt>
<trkpt lat="46.2531040" lon="10.5517890">
	<ele>1697.40</ele>
	<time>2024-03-09T10:44:46.000Z</time>
</trkpt>
<trkpt lat="46.2530910" lon="10.5517210">
	<ele>1696.80</ele>
	<time>2024-03-09T10:44:47.000Z</time>
</trkpt>
<trkpt lat="46.2530800" lon="10.5516500">
	<ele>1696.40</ele>
	<time>2024-03-09T10:44:48.000Z</time>
</trkpt>
<trkpt lat="46.2530650" lon="10.5515780">
	<ele>1696.00</ele>
	<time>2024-03-09T10:44:49.000Z</time>
</trkpt>
<trkpt lat="46.2530490" lon="10.5515070">
	<ele>1695.20</ele>
	<time>2024-03-09T10:44:50.000Z</time>
</trkpt>
<trkpt lat="46.2530360" lon="10.5514370">
	<ele>1694.60</ele>
	<time>2024-03-09T10:44:51.000Z</time>
</trkpt>
<trkpt lat="46.2530340" lon="10.5513620">
	<ele>1694.40</ele>
	<time>2024-03-09T10:44:52.000Z</time>
</trkpt>
<trkpt lat="46.2530350" lon="10.5512840">
	<ele>1694.00</ele>
	<time>2024-03-09T10:44:53.000Z</time>
</trkpt>
<trkpt lat="46.2530310" lon="10.5512030">
	<ele>1693.80</ele>
	<time>2024-03-09T10:44:54.000Z</time>
</trkpt>
<trkpt lat="46.2530240" lon="10.5511230">
	<ele>1693.20</ele>
	<time>2024-03-09T10:44:55.000Z</time>
</trkpt>
<trkpt lat="46.2530170" lon="10.5510420">
	<ele>1692.60</ele>
	<time>2024-03-09T10:44:56.000Z</time>
</trkpt>
<trkpt lat="46.2530130" lon="10.5509630">
	<ele>1692.00</ele>
	<time>2024-03-09T10:44:57.000Z</time>
</trkpt>
<trkpt lat="46.2530150" lon="10.5508800">
	<ele>1691.80</ele>
	<time>2024-03-09T10:44:58.000Z</time>
</trkpt>
<trkpt lat="46.2530130" lon="10.5507980">
	<ele>1691.60</ele>
	<time>2024-03-09T10:44:59.000Z</time>
</trkpt>
<trkpt lat="46.2530060" lon="10.5507340">
	<ele>1690.80</ele>
	<time>2024-03-09T10:45:00.000Z</time>
</trkpt>
<trkpt lat="46.2530000" lon="10.5506530">
	<ele>1690.40</ele>
	<time>2024-03-09T10:45:01.000Z</time>
</trkpt>
<trkpt lat="46.2529930" lon="10.5505720">
	<ele>1690.00</ele>
	<time>2024-03-09T10:45:02.000Z</time>
</trkpt>
<trkpt lat="46.2529800" lon="10.5504950">
	<ele>1689.40</ele>
	<time>2024-03-09T10:45:03.000Z</time>
</trkpt>
<trkpt lat="46.2529650" lon="10.5504180">
	<ele>1689.00</ele>
	<time>2024-03-09T10:45:04.000Z</time>
</trkpt>
<trkpt lat="46.2529540" lon="10.5503450">
	<ele>1688.80</ele>
	<time>2024-03-09T10:45:05.000Z</time>
</trkpt>
<trkpt lat="46.2529520" lon="10.5502670">
	<ele>1688.40</ele>
	<time>2024-03-09T10:45:06.000Z</time>
</trkpt>
<trkpt lat="46.2529480" lon="10.5501910">
	<ele>1688.00</ele>
	<time>2024-03-09T10:45:07.000Z</time>
</trkpt>
<trkpt lat="46.2529400" lon="10.5501180">
	<ele>1687.60</ele>
	<time>2024-03-09T10:45:08.000Z</time>
</trkpt>
<trkpt lat="46.2529380" lon="10.5500480">
	<ele>1687.20</ele>
	<time>2024-03-09T10:45:09.000Z</time>
</trkpt>
<trkpt lat="46.2529440" lon="10.5499720">
	<ele>1686.80</ele>
	<time>2024-03-09T10:45:10.000Z</time>
</trkpt>
<trkpt lat="46.2529410" lon="10.5498990">
	<ele>1686.60</ele>
	<time>2024-03-09T10:45:11.000Z</time>
</trkpt>
<trkpt lat="46.2529400" lon="10.5498240">
	<ele>1686.00</ele>
	<time>2024-03-09T10:45:12.000Z</time>
</trkpt>
<trkpt lat="46.2529510" lon="10.5497310">
	<ele>1685.60</ele>
	<time>2024-03-09T10:45:13.000Z</time>
</trkpt>
<trkpt lat="46.2529590" lon="10.5496520">
	<ele>1685.20</ele>
	<time>2024-03-09T10:45:14.000Z</time>
</trkpt>
<trkpt lat="46.2529590" lon="10.5495760">
	<ele>1684.80</ele>
	<time>2024-03-09T10:45:15.000Z</time>
</trkpt>
<trkpt lat="46.2529450" lon="10.5495190">
	<ele>1684.20</ele>
	<time>2024-03-09T10:45:16.000Z</time>
</trkpt>
<trkpt lat="46.2529490" lon="10.5494500">
	<ele>1683.60</ele>
	<time>2024-03-09T10:45:17.000Z</time>
</trkpt>
<trkpt lat="46.2529530" lon="10.5493650">
	<ele>1683.20</ele>
	<time>2024-03-09T10:45:18.000Z</time>
</trkpt>
<trkpt lat="46.2529600" lon="10.5493050">
	<ele>1682.60</ele>
	<time>2024-03-09T10:45:19.000Z</time>
</trkpt>
<trkpt lat="46.2529580" lon="10.5492330">
	<ele>1682.20</ele>
	<time>2024-03-09T10:45:20.000Z</time>
</trkpt>
<trkpt lat="46.2529540" lon="10.5491620">
	<ele>1681.80</ele>
	<time>2024-03-09T10:45:21.000Z</time>
</trkpt>
<trkpt lat="46.2529490" lon="10.5490930">
	<ele>1681.40</ele>
	<time>2024-03-09T10:45:22.000Z</time>
</trkpt>
<trkpt lat="46.2529510" lon="10.5490230">
	<ele>1681.20</ele>
	<time>2024-03-09T10:45:23.000Z</time>
</trkpt>
<trkpt lat="46.2529570" lon="10.5489540">
	<ele>1681.00</ele>
	<time>2024-03-09T10:45:24.000Z</time>
</trkpt>
<trkpt lat="46.2529660" lon="10.5488720">
	<ele>1680.60</ele>
	<time>2024-03-09T10:45:25.000Z</time>
</trkpt>
<trkpt lat="46.2529720" lon="10.5488070">
	<ele>1680.20</ele>
	<time>2024-03-09T10:45:26.000Z</time>
</trkpt>
<trkpt lat="46.2529760" lon="10.5487410">
	<ele>1679.80</ele>
	<time>2024-03-09T10:45:27.000Z</time>
</trkpt>
<trkpt lat="46.2529810" lon="10.5486840">
	<ele>1679.60</ele>
	<time>2024-03-09T10:45:28.000Z</time>
</trkpt>
<trkpt lat="46.2529840" lon="10.5486100">
	<ele>1679.20</ele>
	<time>2024-03-09T10:45:29.000Z</time>
</trkpt>
<trkpt lat="46.2529840" lon="10.5485360">
	<ele>1678.60</ele>
	<time>2024-03-09T10:45:30.000Z</time>
</trkpt>
<trkpt lat="46.2529910" lon="10.5484640">
	<ele>1678.20</ele>
	<time>2024-03-09T10:45:31.000Z</time>
</trkpt>
<trkpt lat="46.2529990" lon="10.5483850">
	<ele>1677.80</ele>
	<time>2024-03-09T10:45:32.000Z</time>
</trkpt>
<trkpt lat="46.2529930" lon="10.5483070">
	<ele>1676.80</ele>
	<time>2024-03-09T10:45:33.000Z</time>
</trkpt>
<trkpt lat="46.2529810" lon="10.5482350">
	<ele>1676.00</ele>
	<time>2024-03-09T10:45:34.000Z</time>
</trkpt>
<trkpt lat="46.2529760" lon="10.5481580">
	<ele>1675.40</ele>
	<time>2024-03-09T10:45:35.000Z</time>
</trkpt>
<trkpt lat="46.2529690" lon="10.5480780">
	<ele>1675.00</ele>
	<time>2024-03-09T10:45:36.000Z</time>
</trkpt>
<trkpt lat="46.2529480" lon="10.5480080">
	<ele>1674.60</ele>
	<time>2024-03-09T10:45:37.000Z</time>
</trkpt>
<trkpt lat="46.2529060" lon="10.5479370">
	<ele>1674.00</ele>
	<time>2024-03-09T10:45:38.000Z</time>
</trkpt>
<trkpt lat="46.2528750" lon="10.5478770">
	<ele>1673.40</ele>
	<time>2024-03-09T10:45:39.000Z</time>
</trkpt>
<trkpt lat="46.2528570" lon="10.5478250">
	<ele>1672.80</ele>
	<time>2024-03-09T10:45:40.000Z</time>
</trkpt>
<trkpt lat="46.2528350" lon="10.5477570">
	<ele>1672.00</ele>
	<time>2024-03-09T10:45:41.000Z</time>
</trkpt>
<trkpt lat="46.2528050" lon="10.5476950">
	<ele>1671.20</ele>
	<time>2024-03-09T10:45:42.000Z</time>
</trkpt>
<trkpt lat="46.2527640" lon="10.5476250">
	<ele>1670.40</ele>
	<time>2024-03-09T10:45:43.000Z</time>
</trkpt>
<trkpt lat="46.2527400" lon="10.5475590">
	<ele>1669.80</ele>
	<time>2024-03-09T10:45:44.000Z</time>
</trkpt>
<trkpt lat="46.2527230" lon="10.5474860">
	<ele>1669.00</ele>
	<time>2024-03-09T10:45:45.000Z</time>
</trkpt>
<trkpt lat="46.2527000" lon="10.5474340">
	<ele>1668.60</ele>
	<time>2024-03-09T10:45:46.000Z</time>
</trkpt>
<trkpt lat="46.2526560" lon="10.5473620">
	<ele>1667.80</ele>
	<time>2024-03-09T10:45:47.000Z</time>
</trkpt>
<trkpt lat="46.2526290" lon="10.5473040">
	<ele>1667.40</ele>
	<time>2024-03-09T10:45:48.000Z</time>
</trkpt>
<trkpt lat="46.2526130" lon="10.5472510">
	<ele>1666.60</ele>
	<time>2024-03-09T10:45:49.000Z</time>
</trkpt>
<trkpt lat="46.2525930" lon="10.5471850">
	<ele>1666.20</ele>
	<time>2024-03-09T10:45:50.000Z</time>
</trkpt>
<trkpt lat="46.2525650" lon="10.5471270">
	<ele>1665.40</ele>
	<time>2024-03-09T10:45:51.000Z</time>
</trkpt>
<trkpt lat="46.2525420" lon="10.5470610">
	<ele>1665.00</ele>
	<time>2024-03-09T10:45:52.000Z</time>
</trkpt>
<trkpt lat="46.2525120" lon="10.5470060">
	<ele>1664.60</ele>
	<time>2024-03-09T10:45:53.000Z</time>
</trkpt>
<trkpt lat="46.2524800" lon="10.5469530">
	<ele>1663.80</ele>
	<time>2024-03-09T10:45:54.000Z</time>
</trkpt>
<trkpt lat="46.2524560" lon="10.5468970">
	<ele>1663.40</ele>
	<time>2024-03-09T10:45:55.000Z</time>
</trkpt>
<trkpt lat="46.2524390" lon="10.5468430">
	<ele>1663.00</ele>
	<time>2024-03-09T10:45:56.000Z</time>
</trkpt>
<trkpt lat="46.2524260" lon="10.5467890">
	<ele>1662.60</ele>
	<time>2024-03-09T10:45:57.000Z</time>
</trkpt>
<trkpt lat="46.2524150" lon="10.5467380">
	<ele>1662.00</ele>
	<time>2024-03-09T10:45:58.000Z</time>
</trkpt>
<trkpt lat="46.2523980" lon="10.5466850">
	<ele>1661.60</ele>
	<time>2024-03-09T10:45:59.000Z</time>
</trkpt>
<trkpt lat="46.2523820" lon="10.5466280">
	<ele>1661.00</ele>
	<time>2024-03-09T10:46:00.000Z</time>
</trkpt>
<trkpt lat="46.2523590" lon="10.5465760">
	<ele>1660.60</ele>
	<time>2024-03-09T10:46:01.000Z</time>
</trkpt>
<trkpt lat="46.2523320" lon="10.5465300">
	<ele>1660.20</ele>
	<time>2024-03-09T10:46:02.000Z</time>
</trkpt>
<trkpt lat="46.2523140" lon="10.5464780">
	<ele>1659.60</ele>
	<time>2024-03-09T10:46:03.000Z</time>
</trkpt>
<trkpt lat="46.2522980" lon="10.5464230">
	<ele>1659.20</ele>
	<time>2024-03-09T10:46:04.000Z</time>
</trkpt>
<trkpt lat="46.2522800" lon="10.5463590">
	<ele>1658.60</ele>
	<time>2024-03-09T10:46:05.000Z</time>
</trkpt>
<trkpt lat="46.2522700" lon="10.5463170">
	<ele>1658.00</ele>
	<time>2024-03-09T10:46:06.000Z</time>
</trkpt>
<trkpt lat="46.2522510" lon="10.5462560">
	<ele>1657.60</ele>
	<time>2024-03-09T10:46:07.000Z</time>
</trkpt>
<trkpt lat="46.2522330" lon="10.5462030">
	<ele>1657.20</ele>
	<time>2024-03-09T10:46:08.000Z</time>
</trkpt>
<trkpt lat="46.2522180" lon="10.5461520">
	<ele>1656.80</ele>
	<time>2024-03-09T10:46:09.000Z</time>
</trkpt>
<trkpt lat="46.2522010" lon="10.5461050">
	<ele>1656.40</ele>
	<time>2024-03-09T10:46:10.000Z</time>
</trkpt>
<trkpt lat="46.2521880" lon="10.5460690">
	<ele>1656.20</ele>
	<time>2024-03-09T10:46:11.000Z</time>
</trkpt>
<trkpt lat="46.2521690" lon="10.5460250">
	<ele>1656.00</ele>
	<time>2024-03-09T10:46:12.000Z</time>
</trkpt>
<trkpt lat="46.2521560" lon="10.5459800">
	<ele>1656.00</ele>
	<time>2024-03-09T10:46:13.000Z</time>
</trkpt>
<trkpt lat="46.2521450" lon="10.5459430">
	<ele>1655.80</ele>
	<time>2024-03-09T10:46:14.000Z</time>
</trkpt>
<trkpt lat="46.2521360" lon="10.5458970">
	<ele>1655.80</ele>
	<time>2024-03-09T10:46:15.000Z</time>
</trkpt>
<trkpt lat="46.2521320" lon="10.5458690">
	<ele>1655.80</ele>
	<time>2024-03-09T10:46:16.000Z</time>
</trkpt>
<trkpt lat="46.2521250" lon="10.5458380">
	<ele>1655.60</ele>
	<time>2024-03-09T10:46:17.000Z</time>
</trkpt>
<trkpt lat="46.2521100" lon="10.5458140">
	<ele>1655.60</ele>
	<time>2024-03-09T10:46:18.000Z</time>
</trkpt>
<trkpt lat="46.2520820" lon="10.5457960">
	<ele>1655.60</ele>
	<time>2024-03-09T10:46:19.000Z</time>
</trkpt>
<trkpt lat="46.2520410" lon="10.5457700">
	<ele>1655.60</ele>
	<time>2024-03-09T10:46:20.000Z</time>
</trkpt>
<trkpt lat="46.2520060" lon="10.5457470">
	<ele>1655.40</ele>
	<time>2024-03-09T10:46:21.000Z</time>
</trkpt>
<trkpt lat="46.2519790" lon="10.5457240">
	<ele>1655.00</ele>
	<time>2024-03-09T10:46:22.000Z</time>
</trkpt>
<trkpt lat="46.2519610" lon="10.5457010">
	<ele>1654.80</ele>
	<time>2024-03-09T10:46:23.000Z</time>
</trkpt>
<trkpt lat="46.2519490" lon="10.5456930">
	<ele>1654.60</ele>
	<time>2024-03-09T10:46:24.000Z</time>
</trkpt>
<trkpt lat="46.2519380" lon="10.5456920">
	<ele>1654.40</ele>
	<time>2024-03-09T10:46:25.000Z</time>
</trkpt>
<trkpt lat="46.2519340" lon="10.5456900">
	<ele>1654.20</ele>
	<time>2024-03-09T10:46:26.000Z</time>
</trkpt>
<trkpt lat="46.2519300" lon="10.5456890">
	<ele>1654.20</ele>
	<time>2024-03-09T10:46:27.000Z</time>
</trkpt>
<trkpt lat="46.2519260" lon="10.5456890">
	<ele>1654.20</ele>
	<time>2024-03-09T10:46:28.000Z</time>
</trkpt>
<trkpt lat="46.2519220" lon="10.5456910">
	<ele>1654.20</ele>
	<time>2024-03-09T10:46:29.000Z</time>
</trkpt>
<trkpt lat="46.2519220" lon="10.5456910">
	<ele>1654.20</ele>
	<time>2024-03-09T10:46:30.000Z</time>
</trkpt>
<trkpt lat="46.2519230" lon="10.5456910">
	<ele>1654.20</ele>
	<time>2024-03-09T10:46:31.000Z</time>
</trkpt>
<trkpt lat="46.2519220" lon="10.5456930">
	<ele>1654.20</ele>
	<time>2024-03-09T10:46:32.000Z</time>
</trkpt>
<trkpt lat="46.2519210" lon="10.5456960">
	<ele>1654.20</ele>
	<time>2024-03-09T10:46:33.000Z</time>
</trkpt>
<trkpt lat="46.2519250" lon="10.5456920">
	<ele>1654.40</ele>
	<time>2024-03-09T10:46:34.000Z</time>
</trkpt>
<trkpt lat="46.2519220" lon="10.5456850">
	<ele>1654.40</ele>
	<time>2024-03-09T10:46:35.000Z</time>
</trkpt>
<trkpt lat="46.2519200" lon="10.5456730">
	<ele>1654.40</ele>
	<time>2024-03-09T10:46:36.000Z</time>
</trkpt>
<trkpt lat="46.2519210" lon="10.5456570">
	<ele>1654.40</ele>
	<time>2024-03-09T10:46:37.000Z</time>
</trkpt>
<trkpt lat="46.2519210" lon="10.5456390">
	<ele>1654.20</ele>
	<time>2024-03-09T10:46:38.000Z</time>
</trkpt>
<trkpt lat="46.2519210" lon="10.5456180">
	<ele>1654.20</ele>
	<time>2024-03-09T10:46:39.000Z</time>
</trkpt>
<trkpt lat="46.2519140" lon="10.5455980">
	<ele>1654.20</ele>
	<time>2024-03-09T10:46:40.000Z</time>
</trkpt>
<trkpt lat="46.2519160" lon="10.5455680">
	<ele>1654.20</ele>
	<time>2024-03-09T10:46:41.000Z</time>
</trkpt>
<trkpt lat="46.2519160" lon="10.5455390">
	<ele>1654.20</ele>
	<time>2024-03-09T10:46:42.000Z</time>
</trkpt>
<trkpt lat="46.2519120" lon="10.5455150">
	<ele>1654.00</ele>
	<time>2024-03-09T10:46:43.000Z</time>
</trkpt>
<trkpt lat="46.2519060" lon="10.5454870">
	<ele>1654.00</ele>
	<time>2024-03-09T10:46:44.000Z</time>
</trkpt>
<trkpt lat="46.2519000" lon="10.5454610">
	<ele>1653.80</ele>
	<time>2024-03-09T10:46:45.000Z</time>
</trkpt>
<trkpt lat="46.2518980" lon="10.5454260">
	<ele>1653.60</ele>
	<time>2024-03-09T10:46:46.000Z</time>
</trkpt>
<trkpt lat="46.2519060" lon="10.5453910">
	<ele>1653.60</ele>
	<time>2024-03-09T10:46:47.000Z</time>
</trkpt>
<trkpt lat="46.2519210" lon="10.5453590">
	<ele>1653.40</ele>
	<time>2024-03-09T10:46:48.000Z</time>
</trkpt>
<trkpt lat="46.2519510" lon="10.5453280">
	<ele>1653.00</ele>
	<time>2024-03-09T10:46:49.000Z</time>
</trkpt>
<trkpt lat="46.2519850" lon="10.5453010">
	<ele>1652.60</ele>
	<time>2024-03-09T10:46:50.000Z</time>
</trkpt>
<trkpt lat="46.2520360" lon="10.5452720">
	<ele>1652.20</ele>
	<time>2024-03-09T10:46:51.000Z</time>
</trkpt>
<trkpt lat="46.2520820" lon="10.5452480">
	<ele>1651.60</ele>
	<time>2024-03-09T10:46:52.000Z</time>
</trkpt>
<trkpt lat="46.2521210" lon="10.5452270">
	<ele>1651.20</ele>
	<time>2024-03-09T10:46:53.000Z</time>
</trkpt>
<trkpt lat="46.2521850" lon="10.5451930">
	<ele>1650.60</ele>
	<time>2024-03-09T10:46:54.000Z</time>
</trkpt>
<trkpt lat="46.2522320" lon="10.5451580">
	<ele>1650.40</ele>
	<time>2024-03-09T10:46:55.000Z</time>
</trkpt>
<trkpt lat="46.2522800" lon="10.5451160">
	<ele>1649.80</ele>
	<time>2024-03-09T10:46:56.000Z</time>
</trkpt>
<trkpt lat="46.2523170" lon="10.5450710">
	<ele>1649.20</ele>
	<time>2024-03-09T10:46:57.000Z</time>
</trkpt>
<trkpt lat="46.2523380" lon="10.5450340">
	<ele>1648.60</ele>
	<time>2024-03-09T10:46:58.000Z</time>
</trkpt>
<trkpt lat="46.2523510" lon="10.5449890">
	<ele>1648.40</ele>
	<time>2024-03-09T10:46:59.000Z</time>
</trkpt>
<trkpt lat="46.2523540" lon="10.5449420">
	<ele>1648.00</ele>
	<time>2024-03-09T10:47:00.000Z</time>
</trkpt>
<trkpt lat="46.2523510" lon="10.5449030">
	<ele>1648.00</ele>
	<time>2024-03-09T10:47:01.000Z</time>
</trkpt>
<trkpt lat="46.2523490" lon="10.5448620">
	<ele>1647.80</ele>
	<time>2024-03-09T10:47:02.000Z</time>
</trkpt>
<trkpt lat="46.2523400" lon="10.5448270">
	<ele>1647.60</ele>
	<time>2024-03-09T10:47:03.000Z</time>
</trkpt>
<trkpt lat="46.2523300" lon="10.5447970">
	<ele>1647.60</ele>
	<time>2024-03-09T10:47:04.000Z</time>
</trkpt>
<trkpt lat="46.2523230" lon="10.5447640">
	<ele>1647.40</ele>
	<time>2024-03-09T10:47:05.000Z</time>
</trkpt>
<trkpt lat="46.2523220" lon="10.5447280">
	<ele>1647.40</ele>
	<time>2024-03-09T10:47:06.000Z</time>
</trkpt>
<trkpt lat="46.2523140" lon="10.5446950">
	<ele>1647.40</ele>
	<time>2024-03-09T10:47:07.000Z</time>
</trkpt>
<trkpt lat="46.2523050" lon="10.5446660">
	<ele>1647.20</ele>
	<time>2024-03-09T10:47:08.000Z</time>
</trkpt>
<trkpt lat="46.2522960" lon="10.5446350">
	<ele>1647.20</ele>
	<time>2024-03-09T10:47:09.000Z</time>
</trkpt>
<trkpt lat="46.2522840" lon="10.5446070">
	<ele>1647.00</ele>
	<time>2024-03-09T10:47:10.000Z</time>
</trkpt>
<trkpt lat="46.2522740" lon="10.5445820">
	<ele>1647.00</ele>
	<time>2024-03-09T10:47:11.000Z</time>
</trkpt>
<trkpt lat="46.2522670" lon="10.5445550">
	<ele>1647.00</ele>
	<time>2024-03-09T10:47:12.000Z</time>
</trkpt>
<trkpt lat="46.2522650" lon="10.5445290">
	<ele>1646.80</ele>
	<time>2024-03-09T10:47:13.000Z</time>
</trkpt>
<trkpt lat="46.2522620" lon="10.5445030">
	<ele>1646.80</ele>
	<time>2024-03-09T10:47:14.000Z</time>
</trkpt>
<trkpt lat="46.2522570" lon="10.5444840">
	<ele>1646.80</ele>
	<time>2024-03-09T10:47:15.000Z</time>
</trkpt>
<trkpt lat="46.2522550" lon="10.5444650">
	<ele>1646.80</ele>
	<time>2024-03-09T10:47:16.000Z</time>
</trkpt>
<trkpt lat="46.2522520" lon="10.5444480">
	<ele>1647.00</ele>
	<time>2024-03-09T10:47:17.000Z</time>
</trkpt>
<trkpt lat="46.2522500" lon="10.5444360">
	<ele>1647.00</ele>
	<time>2024-03-09T10:47:18.000Z</time>
</trkpt>
<trkpt lat="46.2522550" lon="10.5444260">
	<ele>1647.00</ele>
	<time>2024-03-09T10:47:19.000Z</time>
</trkpt>
<trkpt lat="46.2522530" lon="10.5444170">
	<ele>1647.00</ele>
	<time>2024-03-09T10:47:20.000Z</time>
</trkpt>
<trkpt lat="46.2522530" lon="10.5444140">
	<ele>1647.00</ele>
	<time>2024-03-09T10:47:21.000Z</time>
</trkpt>
<trkpt lat="46.2522530" lon="10.5444110">
	<ele>1647.00</ele>
	<time>2024-03-09T10:47:22.000Z</time>
</trkpt>
<trkpt lat="46.2522540" lon="10.5444100">
	<ele>1647.00</ele>
	<time>2024-03-09T10:47:23.000Z</time>
</trkpt>
<trkpt lat="46.2522560" lon="10.5444090">
	<ele>1647.00</ele>
	<time>2024-03-09T10:47:24.000Z</time>
</trkpt>
<trkpt lat="46.2522580" lon="10.5444100">
	<ele>1647.00</ele>
	<time>2024-03-09T10:47:25.000Z</time>
</trkpt>
<trkpt lat="46.2522580" lon="10.5444050">
	<ele>1647.00</ele>
	<time>2024-03-09T10:47:26.000Z</time>
</trkpt>
<trkpt lat="46.2522570" lon="10.5443990">
	<ele>1647.00</ele>
	<time>2024-03-09T10:47:27.000Z</time>
</trkpt>
<trkpt lat="46.2522570" lon="10.5443990">
	<ele>1647.00</ele>
	<time>2024-03-09T10:47:28.000Z</time>
</trkpt>
<trkpt lat="46.2522550" lon="10.5443960">
	<ele>1647.00</ele>
	<time>2024-03-09T10:47:29.000Z</time>
</trkpt>
<trkpt lat="46.2522540" lon="10.5443930">
	<ele>1647.00</ele>
	<time>2024-03-09T10:47:30.000Z</time>
</trkpt>
<trkpt lat="46.2522560" lon="10.5443860">
	<ele>1647.00</ele>
	<time>2024-03-09T10:47:31.000Z</time>
</trkpt>
<trkpt lat="46.2522590" lon="10.5443810">
	<ele>1647.00</ele>
	<time>2024-03-09T10:47:32.000Z</time>
</trkpt>
<trkpt lat="46.2522580" lon="10.5443790">
	<ele>1647.00</ele>
	<time>2024-03-09T10:47:33.000Z</time>
</trkpt>
<trkpt lat="46.2522560" lon="10.5443790">
	<ele>1647.00</ele>
	<time>2024-03-09T10:47:34.000Z</time>
</trkpt>
<trkpt lat="46.2522550" lon="10.5443790">
	<ele>1647.00</ele>
	<time>2024-03-09T10:47:35.000Z</time>
</trkpt>
<trkpt lat="46.2522570" lon="10.5443800">
	<ele>1647.00</ele>
	<time>2024-03-09T10:47:36.000Z</time>
</trkpt>
<trkpt lat="46.2522590" lon="10.5443790">
	<ele>1647.00</ele>
	<time>2024-03-09T10:47:37.000Z</time>
</trkpt>
<trkpt lat="46.2522610" lon="10.5443770">
	<ele>1647.00</ele>
	<time>2024-03-09T10:47:38.000Z</time>
</trkpt>
<trkpt lat="46.2522630" lon="10.5443770">
	<ele>1647.00</ele>
	<time>2024-03-09T10:47:39.000Z</time>
</trkpt>
<trkpt lat="46.2522640" lon="10.5443780">
	<ele>1647.00</ele>
	<time>2024-03-09T10:47:40.000Z</time>
</trkpt>
<trkpt lat="46.2522650" lon="10.5443790">
	<ele>1647.00</ele>
	<time>2024-03-09T10:47:41.000Z</time>
</trkpt>
<trkpt lat="46.2522660" lon="10.5443800">
	<ele>1647.00</ele>
	<time>2024-03-09T10:47:42.000Z</time>
</trkpt>
<trkpt lat="46.2522660" lon="10.5443810">
	<ele>1647.00</ele>
	<time>2024-03-09T10:47:43.000Z</time>
</trkpt>
<trkpt lat="46.2522660" lon="10.5443810">
	<ele>1647.00</ele>
	<time>2024-03-09T10:47:44.000Z</time>
</trkpt>
<trkpt lat="46.2522660" lon="10.5443810">
	<ele>1647.00</ele>
	<time>2024-03-09T10:47:45.000Z</time>
</trkpt>
<trkpt lat="46.2522660" lon="10.5443810">
	<ele>1647.00</ele>
	<time>2024-03-09T10:47:46.000Z</time>
</trkpt>
<trkpt lat="46.2522660" lon="10.5443810">
	<ele>1647.00</ele>
	<time>2024-03-09T10:47:47.000Z</time>
</trkpt>
<trkpt lat="46.2522660" lon="10.5443810">
	<ele>1647.00</ele>
	<time>2024-03-09T10:47:48.000Z</time>
</trkpt>
<trkpt lat="46.2522660" lon="10.5443810">
	<ele>1647.00</ele>
	<time>2024-03-09T10:47:49.000Z</time>
</trkpt>
<trkpt lat="46.2522660" lon="10.5443810">
	<ele>1647.20</ele>
	<time>2024-03-09T10:47:50.000Z</time>
</trkpt>
<trkpt lat="46.2522660" lon="10.5443800">
	<ele>1647.20</ele>
	<time>2024-03-09T10:47:51.000Z</time>
</trkpt>
<trkpt lat="46.2522660" lon="10.5443800">
	<ele>1647.20</ele>
	<time>2024-03-09T10:47:52.000Z</time>
</trkpt>
<trkpt lat="46.2522660" lon="10.5443790">
	<ele>1647.20</ele>
	<time>2024-03-09T10:47:53.000Z</time>
</trkpt>
<trkpt lat="46.2522660" lon="10.5443790">
	<ele>1647.20</ele>
	<time>2024-03-09T10:47:54.000Z</time>
</trkpt>
<trkpt lat="46.2522660" lon="10.5443790">
	<ele>1647.20</ele>
	<time>2024-03-09T10:47:55.000Z</time>
</trkpt>
<trkpt lat="46.2522660" lon="10.5443790">
	<ele>1647.20</ele>
	<time>2024-03-09T10:47:56.000Z</time>
</trkpt>
<trkpt lat="46.2522660" lon="10.5443790">
	<ele>1647.20</ele>
	<time>2024-03-09T10:47:57.000Z</time>
</trkpt>
<trkpt lat="46.2522660" lon="10.5443790">
	<ele>1647.20</ele>
	<time>2024-03-09T10:47:58.000Z</time>
</trkpt>
<trkpt lat="46.2522680" lon="10.5443790">
	<ele>1647.20</ele>
	<time>2024-03-09T10:47:59.000Z</time>
</trkpt>
<trkpt lat="46.2522690" lon="10.5443790">
	<ele>1647.20</ele>
	<time>2024-03-09T10:48:00.000Z</time>
</trkpt>
<trkpt lat="46.2522690" lon="10.5443790">
	<ele>1647.20</ele>
	<time>2024-03-09T10:48:01.000Z</time>
</trkpt>
<trkpt lat="46.2522690" lon="10.5443790">
	<ele>1647.20</ele>
	<time>2024-03-09T10:48:02.000Z</time>
</trkpt>
<trkpt lat="46.2522700" lon="10.5443790">
	<ele>1647.20</ele>
	<time>2024-03-09T10:48:03.000Z</time>
</trkpt>
<trkpt lat="46.2522700" lon="10.5443790">
	<ele>1647.20</ele>
	<time>2024-03-09T10:48:04.000Z</time>
</trkpt>
<trkpt lat="46.2522700" lon="10.5443790">
	<ele>1647.20</ele>
	<time>2024-03-09T10:48:05.000Z</time>
</trkpt>
<trkpt lat="46.2522700" lon="10.5443790">
	<ele>1647.20</ele>
	<time>2024-03-09T10:48:06.000Z</time>
</trkpt>
<trkpt lat="46.2522700" lon="10.5443800">
	<ele>1647.20</ele>
	<time>2024-03-09T10:48:07.000Z</time>
</trkpt>
<trkpt lat="46.2522700" lon="10.5443800">
	<ele>1647.20</ele>
	<time>2024-03-09T10:48:08.000Z</time>
</trkpt>
<trkpt lat="46.2522700" lon="10.5443810">
	<ele>1647.20</ele>
	<time>2024-03-09T10:48:09.000Z</time>
</trkpt>
<trkpt lat="46.2522700" lon="10.5443810">
	<ele>1647.20</ele>
	<time>2024-03-09T10:48:10.000Z</time>
</trkpt>
<trkpt lat="46.2522700" lon="10.5443820">
	<ele>1647.20</ele>
	<time>2024-03-09T10:48:11.000Z</time>
</trkpt>
<trkpt lat="46.2522700" lon="10.5443820">
	<ele>1647.20</ele>
	<time>2024-03-09T10:48:12.000Z</time>
</trkpt>
<trkpt lat="46.2522700" lon="10.5443820">
	<ele>1647.20</ele>
	<time>2024-03-09T10:48:13.000Z</time>
</trkpt>
<trkpt lat="46.2522700" lon="10.5443830">
	<ele>1647.20</ele>
	<time>2024-03-09T10:48:14.000Z</time>
</trkpt>
<trkpt lat="46.2522690" lon="10.5443830">
	<ele>1647.20</ele>
	<time>2024-03-09T10:48:15.000Z</time>
</trkpt>
<trkpt lat="46.2522690" lon="10.5443840">
	<ele>1647.20</ele>
	<time>2024-03-09T10:48:16.000Z</time>
</trkpt>
<trkpt lat="46.2522690" lon="10.5443850">
	<ele>1647.20</ele>
	<time>2024-03-09T10:48:17.000Z</time>
</trkpt>
<trkpt lat="46.2522690" lon="10.5443850">
	<ele>1647.20</ele>
	<time>2024-03-09T10:48:18.000Z</time>
</trkpt>
<trkpt lat="46.2522690" lon="10.5443860">
	<ele>1647.20</ele>
	<time>2024-03-09T10:48:19.000Z</time>
</trkpt>
<trkpt lat="46.2522690" lon="10.5443860">
	<ele>1647.20</ele>
	<time>2024-03-09T10:48:20.000Z</time>
</trkpt>
<trkpt lat="46.2522690" lon="10.5443860">
	<ele>1647.20</ele>
	<time>2024-03-09T10:48:21.000Z</time>
</trkpt>
<trkpt lat="46.2522690" lon="10.5443860">
	<ele>1647.20</ele>
	<time>2024-03-09T10:48:22.000Z</time>
</trkpt>
<trkpt lat="46.2522690" lon="10.5443860">
	<ele>1647.20</ele>
	<time>2024-03-09T10:48:23.000Z</time>
</trkpt>
<trkpt lat="46.2522690" lon="10.5443860">
	<ele>1647.20</ele>
	<time>2024-03-09T10:48:24.000Z</time>
</trkpt>
<trkpt lat="46.2522690" lon="10.5443860">
	<ele>1647.20</ele>
	<time>2024-03-09T10:48:25.000Z</time>
</trkpt>
<trkpt lat="46.2522680" lon="10.5443860">
	<ele>1647.20</ele>
	<time>2024-03-09T10:48:26.000Z</time>
</trkpt>
<trkpt lat="46.2522680" lon="10.5443860">
	<ele>1647.20</ele>
	<time>2024-03-09T10:48:27.000Z</time>
</trkpt>
<trkpt lat="46.2522680" lon="10.5443860">
	<ele>1647.20</ele>
	<time>2024-03-09T10:48:28.000Z</time>
</trkpt>
<trkpt lat="46.2522660" lon="10.5443860">
	<ele>1647.20</ele>
	<time>2024-03-09T10:48:29.000Z</time>
</trkpt>
<trkpt lat="46.2522660" lon="10.5443860">
	<ele>1647.20</ele>
	<time>2024-03-09T10:48:30.000Z</time>
</trkpt>
<trkpt lat="46.2522660" lon="10.5443860">
	<ele>1647.20</ele>
	<time>2024-03-09T10:48:31.000Z</time>
</trkpt>
<trkpt lat="46.2522650" lon="10.5443860">
	<ele>1647.60</ele>
	<time>2024-03-09T10:48:32.000Z</time>
</trkpt>
<trkpt lat="46.2522650" lon="10.5443860">
	<ele>1647.60</ele>
	<time>2024-03-09T10:48:33.000Z</time>
</trkpt>
<trkpt lat="46.2522650" lon="10.5443860">
	<ele>1647.60</ele>
	<time>2024-03-09T10:48:34.000Z</time>
</trkpt>
<trkpt lat="46.2522650" lon="10.5443870">
	<ele>1647.60</ele>
	<time>2024-03-09T10:48:35.000Z</time>
</trkpt>
<trkpt lat="46.2522650" lon="10.5443870">
	<ele>1647.60</ele>
	<time>2024-03-09T10:48:36.000Z</time>
</trkpt>
<trkpt lat="46.2522640" lon="10.5443880">
	<ele>1647.60</ele>
	<time>2024-03-09T10:48:37.000Z</time>
</trkpt>
<trkpt lat="46.2522640" lon="10.5443880">
	<ele>1647.60</ele>
	<time>2024-03-09T10:48:38.000Z</time>
</trkpt>
<trkpt lat="46.2522640" lon="10.5443880">
	<ele>1647.60</ele>
	<time>2024-03-09T10:48:39.000Z</time>
</trkpt>
<trkpt lat="46.2522650" lon="10.5443880">
	<ele>1647.60</ele>
	<time>2024-03-09T10:48:40.000Z</time>
</trkpt>
<trkpt lat="46.2522650" lon="10.5443880">
	<ele>1647.60</ele>
	<time>2024-03-09T10:48:41.000Z</time>
</trkpt>
<trkpt lat="46.2522650" lon="10.5443870">
	<ele>1647.60</ele>
	<time>2024-03-09T10:48:42.000Z</time>
</trkpt>
<trkpt lat="46.2522650" lon="10.5443870">
	<ele>1647.60</ele>
	<time>2024-03-09T10:48:43.000Z</time>
</trkpt>
<trkpt lat="46.2522650" lon="10.5443860">
	<ele>1647.60</ele>
	<time>2024-03-09T10:48:44.000Z</time>
</trkpt>
<trkpt lat="46.2522650" lon="10.5443860">
	<ele>1647.60</ele>
	<time>2024-03-09T10:48:45.000Z</time>
</trkpt>
<trkpt lat="46.2522650" lon="10.5443850">
	<ele>1647.60</ele>
	<time>2024-03-09T10:48:46.000Z</time>
</trkpt>
<trkpt lat="46.2522650" lon="10.5443850">
	<ele>1647.60</ele>
	<time>2024-03-09T10:48:47.000Z</time>
</trkpt>
<trkpt lat="46.2522650" lon="10.5443850">
	<ele>1647.60</ele>
	<time>2024-03-09T10:48:48.000Z</time>
</trkpt>
<trkpt lat="46.2522650" lon="10.5443840">
	<ele>1647.60</ele>
	<time>2024-03-09T10:48:49.000Z</time>
</trkpt>
<trkpt lat="46.2522650" lon="10.5443840">
	<ele>1647.60</ele>
	<time>2024-03-09T10:48:50.000Z</time>
</trkpt>
<trkpt lat="46.2522650" lon="10.5443840">
	<ele>1647.60</ele>
	<time>2024-03-09T10:48:51.000Z</time>
</trkpt>
<trkpt lat="46.2522650" lon="10.5443840">
	<ele>1647.60</ele>
	<time>2024-03-09T10:48:52.000Z</time>
</trkpt>
<trkpt lat="46.2522640" lon="10.5443840">
	<ele>1647.60</ele>
	<time>2024-03-09T10:48:53.000Z</time>
</trkpt>
<trkpt lat="46.2522640" lon="10.5443840">
	<ele>1647.60</ele>
	<time>2024-03-09T10:48:54.000Z</time>
</trkpt>
<trkpt lat="46.2522640" lon="10.5443840">
	<ele>1647.60</ele>
	<time>2024-03-09T10:48:55.000Z</time>
</trkpt>
<trkpt lat="46.2522640" lon="10.5443840">
	<ele>1647.60</ele>
	<time>2024-03-09T10:48:56.000Z</time>
</trkpt>
<trkpt lat="46.2522640" lon="10.5443840">
	<ele>1647.60</ele>
	<time>2024-03-09T10:48:57.000Z</time>
</trkpt>
<trkpt lat="46.2522640" lon="10.5443830">
	<ele>1647.60</ele>
	<time>2024-03-09T10:48:58.000Z</time>
</trkpt>
<trkpt lat="46.2522640" lon="10.5443820">
	<ele>1647.60</ele>
	<time>2024-03-09T10:48:59.000Z</time>
</trkpt>
<trkpt lat="46.2522640" lon="10.5443810">
	<ele>1647.60</ele>
	<time>2024-03-09T10:49:00.000Z</time>
</trkpt>
<trkpt lat="46.2522640" lon="10.5443800">
	<ele>1647.60</ele>
	<time>2024-03-09T10:49:01.000Z</time>
</trkpt>
<trkpt lat="46.2522640" lon="10.5443790">
	<ele>1647.60</ele>
	<time>2024-03-09T10:49:02.000Z</time>
</trkpt>
<trkpt lat="46.2522640" lon="10.5443790">
	<ele>1647.60</ele>
	<time>2024-03-09T10:49:03.000Z</time>
</trkpt>
<trkpt lat="46.2522640" lon="10.5443790">
	<ele>1647.60</ele>
	<time>2024-03-09T10:49:04.000Z</time>
</trkpt>
<trkpt lat="46.2522640" lon="10.5443780">
	<ele>1647.60</ele>
	<time>2024-03-09T10:49:05.000Z</time>
</trkpt>
<trkpt lat="46.2522620" lon="10.5443780">
	<ele>1647.60</ele>
	<time>2024-03-09T10:49:06.000Z</time>
</trkpt>
<trkpt lat="46.2522590" lon="10.5443780">
	<ele>1647.60</ele>
	<time>2024-03-09T10:49:07.000Z</time>
</trkpt>
<trkpt lat="46.2522530" lon="10.5443770">
	<ele>1647.60</ele>
	<time>2024-03-09T10:49:08.000Z</time>
</trkpt>
<trkpt lat="46.2522470" lon="10.5443770">
	<ele>1647.60</ele>
	<time>2024-03-09T10:49:09.000Z</time>
</trkpt>
<trkpt lat="46.2522430" lon="10.5443760">
	<ele>1647.60</ele>
	<time>2024-03-09T10:49:10.000Z</time>
</trkpt>
<trkpt lat="46.2522360" lon="10.5443750">
	<ele>1647.60</ele>
	<time>2024-03-09T10:49:11.000Z</time>
</trkpt>
<trkpt lat="46.2522320" lon="10.5443740">
	<ele>1647.60</ele>
	<time>2024-03-09T10:49:12.000Z</time>
</trkpt>
<trkpt lat="46.2522280" lon="10.5443740">
	<ele>1647.60</ele>
	<time>2024-03-09T10:49:13.000Z</time>
</trkpt>
<trkpt lat="46.2522240" lon="10.5443740">
	<ele>1647.60</ele>
	<time>2024-03-09T10:49:14.000Z</time>
</trkpt>
<trkpt lat="46.2522230" lon="10.5443730">
	<ele>1647.60</ele>
	<time>2024-03-09T10:49:15.000Z</time>
</trkpt>
<trkpt lat="46.2522220" lon="10.5443730">
	<ele>1647.60</ele>
	<time>2024-03-09T10:49:16.000Z</time>
</trkpt>
<trkpt lat="46.2522220" lon="10.5443720">
	<ele>1647.60</ele>
	<time>2024-03-09T10:49:17.000Z</time>
</trkpt>
<trkpt lat="46.2522210" lon="10.5443720">
	<ele>1647.60</ele>
	<time>2024-03-09T10:49:18.000Z</time>
</trkpt>
<trkpt lat="46.2522210" lon="10.5443680">
	<ele>1647.60</ele>
	<time>2024-03-09T10:49:19.000Z</time>
</trkpt>
<trkpt lat="46.2522210" lon="10.5443660">
	<ele>1647.60</ele>
	<time>2024-03-09T10:49:20.000Z</time>
</trkpt>
<trkpt lat="46.2522210" lon="10.5443610">
	<ele>1647.60</ele>
	<time>2024-03-09T10:49:21.000Z</time>
</trkpt>
<trkpt lat="46.2522210" lon="10.5443580">
	<ele>1647.60</ele>
	<time>2024-03-09T10:49:22.000Z</time>
</trkpt>
<trkpt lat="46.2522210" lon="10.5443560">
	<ele>1647.60</ele>
	<time>2024-03-09T10:49:23.000Z</time>
</trkpt>
<trkpt lat="46.2522210" lon="10.5443530">
	<ele>1647.60</ele>
	<time>2024-03-09T10:49:24.000Z</time>
</trkpt>
<trkpt lat="46.2522210" lon="10.5443500">
	<ele>1647.60</ele>
	<time>2024-03-09T10:49:25.000Z</time>
</trkpt>
<trkpt lat="46.2522210" lon="10.5443480">
	<ele>1647.60</ele>
	<time>2024-03-09T10:49:26.000Z</time>
</trkpt>
<trkpt lat="46.2522210" lon="10.5443460">
	<ele>1647.60</ele>
	<time>2024-03-09T10:49:27.000Z</time>
</trkpt>
<trkpt lat="46.2522210" lon="10.5443450">
	<ele>1647.60</ele>
	<time>2024-03-09T10:49:28.000Z</time>
</trkpt>
<trkpt lat="46.2522220" lon="10.5443400">
	<ele>1647.60</ele>
	<time>2024-03-09T10:49:29.000Z</time>
</trkpt>
<trkpt lat="46.2522230" lon="10.5443360">
	<ele>1647.60</ele>
	<time>2024-03-09T10:49:30.000Z</time>
</trkpt>
<trkpt lat="46.2522230" lon="10.5443340">
	<ele>1647.60</ele>
	<time>2024-03-09T10:49:31.000Z</time>
</trkpt>
<trkpt lat="46.2522240" lon="10.5443330">
	<ele>1647.60</ele>
	<time>2024-03-09T10:49:32.000Z</time>
</trkpt>
<trkpt lat="46.2522240" lon="10.5443320">
	<ele>1647.60</ele>
	<time>2024-03-09T10:49:33.000Z</time>
</trkpt>
<trkpt lat="46.2522250" lon="10.5443320">
	<ele>1647.60</ele>
	<time>2024-03-09T10:49:34.000Z</time>
</trkpt>
<trkpt lat="46.2522260" lon="10.5443320">
	<ele>1647.60</ele>
	<time>2024-03-09T10:49:35.000Z</time>
</trkpt>
<trkpt lat="46.2522280" lon="10.5443320">
	<ele>1647.60</ele>
	<time>2024-03-09T10:49:36.000Z</time>
</trkpt>
<trkpt lat="46.2522290" lon="10.5443320">
	<ele>1647.60</ele>
	<time>2024-03-09T10:49:37.000Z</time>
</trkpt>
<trkpt lat="46.2522340" lon="10.5443320">
	<ele>1647.60</ele>
	<time>2024-03-09T10:49:38.000Z</time>
</trkpt>
<trkpt lat="46.2522400" lon="10.5443320">
	<ele>1647.60</ele>
	<time>2024-03-09T10:49:39.000Z</time>
</trkpt>
<trkpt lat="46.2522450" lon="10.5443320">
	<ele>1647.60</ele>
	<time>2024-03-09T10:49:40.000Z</time>
</trkpt>
<trkpt lat="46.2522480" lon="10.5443320">
	<ele>1647.60</ele>
	<time>2024-03-09T10:49:41.000Z</time>
</trkpt>
<trkpt lat="46.2522500" lon="10.5443320">
	<ele>1647.60</ele>
	<time>2024-03-09T10:49:42.000Z</time>
</trkpt>
<trkpt lat="46.2522510" lon="10.5443320">
	<ele>1647.60</ele>
	<time>2024-03-09T10:49:43.000Z</time>
</trkpt>
<trkpt lat="46.2522520" lon="10.5443320">
	<ele>1647.60</ele>
	<time>2024-03-09T10:49:44.000Z</time>
</trkpt>
<trkpt lat="46.2522520" lon="10.5443320">
	<ele>1647.60</ele>
	<time>2024-03-09T10:49:45.000Z</time>
</trkpt>
<trkpt lat="46.2522530" lon="10.5443320">
	<ele>1647.60</ele>
	<time>2024-03-09T10:49:46.000Z</time>
</trkpt>
<trkpt lat="46.2522540" lon="10.5443320">
	<ele>1647.60</ele>
	<time>2024-03-09T10:49:47.000Z</time>
</trkpt>
<trkpt lat="46.2522540" lon="10.5443330">
	<ele>1647.60</ele>
	<time>2024-03-09T10:49:48.000Z</time>
</trkpt>
<trkpt lat="46.2522540" lon="10.5443340">
	<ele>1647.60</ele>
	<time>2024-03-09T10:49:49.000Z</time>
</trkpt>
<trkpt lat="46.2522480" lon="10.5443340">
	<ele>1647.60</ele>
	<time>2024-03-09T10:49:50.000Z</time>
</trkpt>
<trkpt lat="46.2522460" lon="10.5443340">
	<ele>1647.60</ele>
	<time>2024-03-09T10:49:51.000Z</time>
</trkpt>
<trkpt lat="46.2522410" lon="10.5443360">
	<ele>1647.60</ele>
	<time>2024-03-09T10:49:52.000Z</time>
</trkpt>
<trkpt lat="46.2522380" lon="10.5443370">
	<ele>1647.60</ele>
	<time>2024-03-09T10:49:53.000Z</time>
</trkpt>
<trkpt lat="46.2522330" lon="10.5443390">
	<ele>1647.60</ele>
	<time>2024-03-09T10:49:54.000Z</time>
</trkpt>
<trkpt lat="46.2522320" lon="10.5443410">
	<ele>1647.60</ele>
	<time>2024-03-09T10:49:55.000Z</time>
</trkpt>
<trkpt lat="46.2522250" lon="10.5443430">
	<ele>1647.60</ele>
	<time>2024-03-09T10:49:56.000Z</time>
</trkpt>
<trkpt lat="46.2522160" lon="10.5443500">
	<ele>1647.60</ele>
	<time>2024-03-09T10:49:57.000Z</time>
</trkpt>
<trkpt lat="46.2522130" lon="10.5443530">
	<ele>1647.60</ele>
	<time>2024-03-09T10:49:58.000Z</time>
</trkpt>
<trkpt lat="46.2522180" lon="10.5443520">
	<ele>1647.60</ele>
	<time>2024-03-09T10:49:59.000Z</time>
</trkpt>
<trkpt lat="46.2522170" lon="10.5443560">
	<ele>1647.60</ele>
	<time>2024-03-09T10:50:00.000Z</time>
</trkpt>
<trkpt lat="46.2522210" lon="10.5443550">
	<ele>1647.60</ele>
	<time>2024-03-09T10:50:01.000Z</time>
</trkpt>
<trkpt lat="46.2522300" lon="10.5443450">
	<ele>1647.60</ele>
	<time>2024-03-09T10:50:02.000Z</time>
</trkpt>
<trkpt lat="46.2522360" lon="10.5443310">
	<ele>1647.60</ele>
	<time>2024-03-09T10:50:03.000Z</time>
</trkpt>
<trkpt lat="46.2522450" lon="10.5443250">
	<ele>1647.60</ele>
	<time>2024-03-09T10:50:04.000Z</time>
</trkpt>
<trkpt lat="46.2522470" lon="10.5443200">
	<ele>1647.60</ele>
	<time>2024-03-09T10:50:05.000Z</time>
</trkpt>
<trkpt lat="46.2522480" lon="10.5443150">
	<ele>1647.60</ele>
	<time>2024-03-09T10:50:06.000Z</time>
</trkpt>
<trkpt lat="46.2522430" lon="10.5443180">
	<ele>1647.60</ele>
	<time>2024-03-09T10:50:07.000Z</time>
</trkpt>
<trkpt lat="46.2522470" lon="10.5443180">
	<ele>1647.60</ele>
	<time>2024-03-09T10:50:08.000Z</time>
</trkpt>
<trkpt lat="46.2522520" lon="10.5443160">
	<ele>1647.60</ele>
	<time>2024-03-09T10:50:09.000Z</time>
</trkpt>
<trkpt lat="46.2522560" lon="10.5443150">
	<ele>1647.60</ele>
	<time>2024-03-09T10:50:10.000Z</time>
</trkpt>
<trkpt lat="46.2522600" lon="10.5443110">
	<ele>1647.60</ele>
	<time>2024-03-09T10:50:11.000Z</time>
</trkpt>
<trkpt lat="46.2522640" lon="10.5443090">
	<ele>1647.60</ele>
	<time>2024-03-09T10:50:12.000Z</time>
</trkpt>
<trkpt lat="46.2522870" lon="10.5443000">
	<ele>1647.60</ele>
	<time>2024-03-09T10:50:17.000Z</time>
</trkpt>
<trkpt lat="46.2522930" lon="10.5442970">
	<ele>1647.60</ele>
	<time>2024-03-09T10:50:18.000Z</time>
</trkpt>
<trkpt lat="46.2522930" lon="10.5443050">
	<ele>1647.60</ele>
	<time>2024-03-09T10:50:19.000Z</time>
</trkpt>
<trkpt lat="46.2522150" lon="10.5443200">
	<ele>1647.60</ele>
	<time>2024-03-09T10:50:20.000Z</time>
</trkpt>
<trkpt lat="46.2522000" lon="10.5443210">
	<ele>1647.60</ele>
	<time>2024-03-09T10:50:21.000Z</time>
</trkpt>
<trkpt lat="46.2522090" lon="10.5443200">
	<ele>1647.60</ele>
	<time>2024-03-09T10:50:22.000Z</time>
</trkpt>
<trkpt lat="46.2522080" lon="10.5443210">
	<ele>1647.60</ele>
	<time>2024-03-09T10:50:23.000Z</time>
</trkpt>
<trkpt lat="46.2521940" lon="10.5443180">
	<ele>1647.60</ele>
	<time>2024-03-09T10:50:24.000Z</time>
</trkpt>
<trkpt lat="46.2521910" lon="10.5443190">
	<ele>1647.60</ele>
	<time>2024-03-09T10:50:25.000Z</time>
</trkpt>
<trkpt lat="46.2521860" lon="10.5443220">
	<ele>1647.60</ele>
	<time>2024-03-09T10:50:26.000Z</time>
</trkpt>
<trkpt lat="46.2521840" lon="10.5443230">
	<ele>1647.60</ele>
	<time>2024-03-09T10:50:27.000Z</time>
</trkpt>
<trkpt lat="46.2521810" lon="10.5443220">
	<ele>1647.60</ele>
	<time>2024-03-09T10:50:28.000Z</time>
</trkpt>
<trkpt lat="46.2521810" lon="10.5443180">
	<ele>1647.60</ele>
	<time>2024-03-09T10:50:29.000Z</time>
</trkpt>
<trkpt lat="46.2521660" lon="10.5443090">
	<ele>1647.60</ele>
	<time>2024-03-09T10:50:30.000Z</time>
</trkpt>
<trkpt lat="46.2521630" lon="10.5442920">
	<ele>1647.60</ele>
	<time>2024-03-09T10:50:31.000Z</time>
</trkpt>
<trkpt lat="46.2521560" lon="10.5442730">
	<ele>1647.60</ele>
	<time>2024-03-09T10:50:32.000Z</time>
</trkpt>
<trkpt lat="46.2521210" lon="10.5442250">
	<ele>1647.60</ele>
	<time>2024-03-09T10:50:33.000Z</time>
</trkpt>
<trkpt lat="46.2520830" lon="10.5441620">
	<ele>1647.60</ele>
	<time>2024-03-09T10:50:34.000Z</time>
</trkpt>
<trkpt lat="46.2520640" lon="10.5441060">
	<ele>1647.60</ele>
	<time>2024-03-09T10:50:35.000Z</time>
</trkpt>
<trkpt lat="46.2520640" lon="10.5440230">
	<ele>1647.60</ele>
	<time>2024-03-09T10:50:36.000Z</time>
</trkpt>
<trkpt lat="46.2520710" lon="10.5439480">
	<ele>1647.60</ele>
	<time>2024-03-09T10:50:37.000Z</time>
</trkpt>
<trkpt lat="46.2520820" lon="10.5438590">
	<ele>1647.60</ele>
	<time>2024-03-09T10:50:38.000Z</time>
</trkpt>
</trkseg>
</trk>
</gpx>
